<?xml version="1.0" encoding="UTF-8"?>
<gpx xmlns="http://www.topografix.com/GPX/1/1"
     creator="GpsDump 4.92"
     version="1.1"
     xmlns:xsi="http://www.w3.org/2001/XMLSchema-instance"
     xsi:schemaLocation="http://www.topografix.com/GPX/1/1 http://www.topografix.com/GPX/1/1/gpx.xsd">
  <metadata>
    <link href="http://www.gethome.no/stein.sorensen/">
      <text>GPS dump for www.flightlog.org</text>
    </link>
    <time>2018-09-20T07:26:27Z</time>
    <bounds minlat="40.425117" minlon="-5.307967" maxlat="40.879617" maxlon="-5.075067"/>
  </metadata>
  <trk>
    <name>Track 001</name>
    <trkseg>
      <trkpt lat="40.425117" lon="-5.301683">
        <ele>1882.0</ele>
        <time>2018-07-14T12:05:08Z</time>
      </trkpt>
      <trkpt lat="40.425200" lon="-5.301683">
        <ele>1883.0</ele>
        <time>2018-07-14T12:05:09Z</time>
      </trkpt>
      <trkpt lat="40.425283" lon="-5.301667">
        <ele>1883.0</ele>
        <time>2018-07-14T12:05:10Z</time>
      </trkpt>
      <trkpt lat="40.425383" lon="-5.301650">
        <ele>1883.0</ele>
        <time>2018-07-14T12:05:11Z</time>
      </trkpt>
      <trkpt lat="40.425483" lon="-5.301650">
        <ele>1883.0</ele>
        <time>2018-07-14T12:05:12Z</time>
      </trkpt>
      <trkpt lat="40.425550" lon="-5.301633">
        <ele>1884.0</ele>
        <time>2018-07-14T12:05:13Z</time>
      </trkpt>
      <trkpt lat="40.425617" lon="-5.301617">
        <ele>1885.0</ele>
        <time>2018-07-14T12:05:14Z</time>
      </trkpt>
      <trkpt lat="40.425683" lon="-5.301600">
        <ele>1885.0</ele>
        <time>2018-07-14T12:05:15Z</time>
      </trkpt>
      <trkpt lat="40.425767" lon="-5.301583">
        <ele>1884.0</ele>
        <time>2018-07-14T12:05:16Z</time>
      </trkpt>
      <trkpt lat="40.425867" lon="-5.301567">
        <ele>1883.0</ele>
        <time>2018-07-14T12:05:17Z</time>
      </trkpt>
      <trkpt lat="40.425950" lon="-5.301550">
        <ele>1882.0</ele>
        <time>2018-07-14T12:05:18Z</time>
      </trkpt>
      <trkpt lat="40.426033" lon="-5.301533">
        <ele>1882.0</ele>
        <time>2018-07-14T12:05:19Z</time>
      </trkpt>
      <trkpt lat="40.426100" lon="-5.301500">
        <ele>1882.0</ele>
        <time>2018-07-14T12:05:20Z</time>
      </trkpt>
      <trkpt lat="40.426167" lon="-5.301483">
        <ele>1884.0</ele>
        <time>2018-07-14T12:05:21Z</time>
      </trkpt>
      <trkpt lat="40.426233" lon="-5.301433">
        <ele>1884.0</ele>
        <time>2018-07-14T12:05:22Z</time>
      </trkpt>
      <trkpt lat="40.426283" lon="-5.301400">
        <ele>1885.0</ele>
        <time>2018-07-14T12:05:23Z</time>
      </trkpt>
      <trkpt lat="40.426350" lon="-5.301367">
        <ele>1886.0</ele>
        <time>2018-07-14T12:05:24Z</time>
      </trkpt>
      <trkpt lat="40.426400" lon="-5.301333">
        <ele>1886.0</ele>
        <time>2018-07-14T12:05:25Z</time>
      </trkpt>
      <trkpt lat="40.426467" lon="-5.301300">
        <ele>1885.0</ele>
        <time>2018-07-14T12:05:26Z</time>
      </trkpt>
      <trkpt lat="40.426533" lon="-5.301267">
        <ele>1885.0</ele>
        <time>2018-07-14T12:05:27Z</time>
      </trkpt>
      <trkpt lat="40.426600" lon="-5.301250">
        <ele>1885.0</ele>
        <time>2018-07-14T12:05:28Z</time>
      </trkpt>
      <trkpt lat="40.426650" lon="-5.301217">
        <ele>1884.0</ele>
        <time>2018-07-14T12:05:29Z</time>
      </trkpt>
      <trkpt lat="40.426700" lon="-5.301200">
        <ele>1884.0</ele>
        <time>2018-07-14T12:05:30Z</time>
      </trkpt>
      <trkpt lat="40.426767" lon="-5.301167">
        <ele>1883.0</ele>
        <time>2018-07-14T12:05:31Z</time>
      </trkpt>
      <trkpt lat="40.426833" lon="-5.301133">
        <ele>1881.0</ele>
        <time>2018-07-14T12:05:32Z</time>
      </trkpt>
      <trkpt lat="40.426917" lon="-5.301117">
        <ele>1879.0</ele>
        <time>2018-07-14T12:05:33Z</time>
      </trkpt>
      <trkpt lat="40.427000" lon="-5.301083">
        <ele>1876.0</ele>
        <time>2018-07-14T12:05:34Z</time>
      </trkpt>
      <trkpt lat="40.427067" lon="-5.301067">
        <ele>1875.0</ele>
        <time>2018-07-14T12:05:35Z</time>
      </trkpt>
      <trkpt lat="40.427133" lon="-5.301050">
        <ele>1875.0</ele>
        <time>2018-07-14T12:05:36Z</time>
      </trkpt>
      <trkpt lat="40.427200" lon="-5.301033">
        <ele>1874.0</ele>
        <time>2018-07-14T12:05:37Z</time>
      </trkpt>
      <trkpt lat="40.427250" lon="-5.301017">
        <ele>1873.0</ele>
        <time>2018-07-14T12:05:38Z</time>
      </trkpt>
      <trkpt lat="40.427317" lon="-5.300983">
        <ele>1871.0</ele>
        <time>2018-07-14T12:05:39Z</time>
      </trkpt>
      <trkpt lat="40.427383" lon="-5.300967">
        <ele>1868.0</ele>
        <time>2018-07-14T12:05:40Z</time>
      </trkpt>
      <trkpt lat="40.427450" lon="-5.300933">
        <ele>1865.0</ele>
        <time>2018-07-14T12:05:41Z</time>
      </trkpt>
      <trkpt lat="40.427533" lon="-5.300917">
        <ele>1862.0</ele>
        <time>2018-07-14T12:05:42Z</time>
      </trkpt>
      <trkpt lat="40.427617" lon="-5.300900">
        <ele>1859.0</ele>
        <time>2018-07-14T12:05:43Z</time>
      </trkpt>
      <trkpt lat="40.427700" lon="-5.300883">
        <ele>1856.0</ele>
        <time>2018-07-14T12:05:44Z</time>
      </trkpt>
      <trkpt lat="40.427783" lon="-5.300867">
        <ele>1854.0</ele>
        <time>2018-07-14T12:05:45Z</time>
      </trkpt>
      <trkpt lat="40.427867" lon="-5.300817">
        <ele>1852.0</ele>
        <time>2018-07-14T12:05:46Z</time>
      </trkpt>
      <trkpt lat="40.427933" lon="-5.300767">
        <ele>1851.0</ele>
        <time>2018-07-14T12:05:47Z</time>
      </trkpt>
      <trkpt lat="40.428017" lon="-5.300733">
        <ele>1852.0</ele>
        <time>2018-07-14T12:05:48Z</time>
      </trkpt>
      <trkpt lat="40.428067" lon="-5.300700">
        <ele>1854.0</ele>
        <time>2018-07-14T12:05:49Z</time>
      </trkpt>
      <trkpt lat="40.428117" lon="-5.300667">
        <ele>1856.0</ele>
        <time>2018-07-14T12:05:50Z</time>
      </trkpt>
      <trkpt lat="40.428167" lon="-5.300633">
        <ele>1857.0</ele>
        <time>2018-07-14T12:05:51Z</time>
      </trkpt>
      <trkpt lat="40.428217" lon="-5.300600">
        <ele>1858.0</ele>
        <time>2018-07-14T12:05:52Z</time>
      </trkpt>
      <trkpt lat="40.428267" lon="-5.300583">
        <ele>1857.0</ele>
        <time>2018-07-14T12:05:53Z</time>
      </trkpt>
      <trkpt lat="40.428333" lon="-5.300583">
        <ele>1857.0</ele>
        <time>2018-07-14T12:05:54Z</time>
      </trkpt>
      <trkpt lat="40.428400" lon="-5.300617">
        <ele>1856.0</ele>
        <time>2018-07-14T12:05:55Z</time>
      </trkpt>
      <trkpt lat="40.428450" lon="-5.300683">
        <ele>1855.0</ele>
        <time>2018-07-14T12:05:56Z</time>
      </trkpt>
      <trkpt lat="40.428467" lon="-5.300767">
        <ele>1854.0</ele>
        <time>2018-07-14T12:05:57Z</time>
      </trkpt>
      <trkpt lat="40.428483" lon="-5.300850">
        <ele>1853.0</ele>
        <time>2018-07-14T12:05:58Z</time>
      </trkpt>
      <trkpt lat="40.428483" lon="-5.300950">
        <ele>1851.0</ele>
        <time>2018-07-14T12:05:59Z</time>
      </trkpt>
      <trkpt lat="40.428450" lon="-5.301050">
        <ele>1850.0</ele>
        <time>2018-07-14T12:06:00Z</time>
      </trkpt>
      <trkpt lat="40.428400" lon="-5.301167">
        <ele>1847.0</ele>
        <time>2018-07-14T12:06:01Z</time>
      </trkpt>
      <trkpt lat="40.428350" lon="-5.301267">
        <ele>1849.0</ele>
        <time>2018-07-14T12:06:02Z</time>
      </trkpt>
      <trkpt lat="40.428333" lon="-5.301367">
        <ele>1849.0</ele>
        <time>2018-07-14T12:06:03Z</time>
      </trkpt>
      <trkpt lat="40.428350" lon="-5.301467">
        <ele>1848.0</ele>
        <time>2018-07-14T12:06:04Z</time>
      </trkpt>
      <trkpt lat="40.428367" lon="-5.301550">
        <ele>1847.0</ele>
        <time>2018-07-14T12:06:05Z</time>
      </trkpt>
      <trkpt lat="40.428417" lon="-5.301617">
        <ele>1846.0</ele>
        <time>2018-07-14T12:06:06Z</time>
      </trkpt>
      <trkpt lat="40.428467" lon="-5.301667">
        <ele>1844.0</ele>
        <time>2018-07-14T12:06:07Z</time>
      </trkpt>
      <trkpt lat="40.428517" lon="-5.301700">
        <ele>1845.0</ele>
        <time>2018-07-14T12:06:08Z</time>
      </trkpt>
      <trkpt lat="40.428583" lon="-5.301683">
        <ele>1845.0</ele>
        <time>2018-07-14T12:06:09Z</time>
      </trkpt>
      <trkpt lat="40.428683" lon="-5.301633">
        <ele>1844.0</ele>
        <time>2018-07-14T12:06:10Z</time>
      </trkpt>
      <trkpt lat="40.428783" lon="-5.301583">
        <ele>1841.0</ele>
        <time>2018-07-14T12:06:11Z</time>
      </trkpt>
      <trkpt lat="40.428850" lon="-5.301533">
        <ele>1839.0</ele>
        <time>2018-07-14T12:06:12Z</time>
      </trkpt>
      <trkpt lat="40.428917" lon="-5.301483">
        <ele>1836.0</ele>
        <time>2018-07-14T12:06:13Z</time>
      </trkpt>
      <trkpt lat="40.428983" lon="-5.301417">
        <ele>1834.0</ele>
        <time>2018-07-14T12:06:14Z</time>
      </trkpt>
      <trkpt lat="40.429050" lon="-5.301367">
        <ele>1830.0</ele>
        <time>2018-07-14T12:06:15Z</time>
      </trkpt>
      <trkpt lat="40.429117" lon="-5.301283">
        <ele>1826.0</ele>
        <time>2018-07-14T12:06:16Z</time>
      </trkpt>
      <trkpt lat="40.429200" lon="-5.301217">
        <ele>1822.0</ele>
        <time>2018-07-14T12:06:17Z</time>
      </trkpt>
      <trkpt lat="40.429283" lon="-5.301133">
        <ele>1818.0</ele>
        <time>2018-07-14T12:06:18Z</time>
      </trkpt>
      <trkpt lat="40.429367" lon="-5.301067">
        <ele>1815.0</ele>
        <time>2018-07-14T12:06:19Z</time>
      </trkpt>
      <trkpt lat="40.429433" lon="-5.301000">
        <ele>1813.0</ele>
        <time>2018-07-14T12:06:20Z</time>
      </trkpt>
      <trkpt lat="40.429500" lon="-5.300933">
        <ele>1810.0</ele>
        <time>2018-07-14T12:06:21Z</time>
      </trkpt>
      <trkpt lat="40.429600" lon="-5.300867">
        <ele>1806.0</ele>
        <time>2018-07-14T12:06:22Z</time>
      </trkpt>
      <trkpt lat="40.429700" lon="-5.300783">
        <ele>1802.0</ele>
        <time>2018-07-14T12:06:23Z</time>
      </trkpt>
      <trkpt lat="40.429817" lon="-5.300700">
        <ele>1800.0</ele>
        <time>2018-07-14T12:06:24Z</time>
      </trkpt>
      <trkpt lat="40.429900" lon="-5.300633">
        <ele>1801.0</ele>
        <time>2018-07-14T12:06:25Z</time>
      </trkpt>
      <trkpt lat="40.429967" lon="-5.300583">
        <ele>1802.0</ele>
        <time>2018-07-14T12:06:26Z</time>
      </trkpt>
      <trkpt lat="40.430017" lon="-5.300550">
        <ele>1804.0</ele>
        <time>2018-07-14T12:06:27Z</time>
      </trkpt>
      <trkpt lat="40.430067" lon="-5.300500">
        <ele>1806.0</ele>
        <time>2018-07-14T12:06:28Z</time>
      </trkpt>
      <trkpt lat="40.430117" lon="-5.300450">
        <ele>1806.0</ele>
        <time>2018-07-14T12:06:29Z</time>
      </trkpt>
      <trkpt lat="40.430183" lon="-5.300417">
        <ele>1805.0</ele>
        <time>2018-07-14T12:06:30Z</time>
      </trkpt>
      <trkpt lat="40.430250" lon="-5.300400">
        <ele>1804.0</ele>
        <time>2018-07-14T12:06:31Z</time>
      </trkpt>
      <trkpt lat="40.430333" lon="-5.300383">
        <ele>1802.0</ele>
        <time>2018-07-14T12:06:32Z</time>
      </trkpt>
      <trkpt lat="40.430417" lon="-5.300417">
        <ele>1801.0</ele>
        <time>2018-07-14T12:06:33Z</time>
      </trkpt>
      <trkpt lat="40.430467" lon="-5.300467">
        <ele>1800.0</ele>
        <time>2018-07-14T12:06:34Z</time>
      </trkpt>
      <trkpt lat="40.430500" lon="-5.300533">
        <ele>1798.0</ele>
        <time>2018-07-14T12:06:35Z</time>
      </trkpt>
      <trkpt lat="40.430550" lon="-5.300617">
        <ele>1797.0</ele>
        <time>2018-07-14T12:06:36Z</time>
      </trkpt>
      <trkpt lat="40.430600" lon="-5.300667">
        <ele>1794.0</ele>
        <time>2018-07-14T12:06:37Z</time>
      </trkpt>
      <trkpt lat="40.430667" lon="-5.300717">
        <ele>1791.0</ele>
        <time>2018-07-14T12:06:38Z</time>
      </trkpt>
      <trkpt lat="40.430717" lon="-5.300783">
        <ele>1787.0</ele>
        <time>2018-07-14T12:06:39Z</time>
      </trkpt>
      <trkpt lat="40.430783" lon="-5.300833">
        <ele>1788.0</ele>
        <time>2018-07-14T12:06:40Z</time>
      </trkpt>
      <trkpt lat="40.430850" lon="-5.300883">
        <ele>1786.0</ele>
        <time>2018-07-14T12:06:41Z</time>
      </trkpt>
      <trkpt lat="40.430933" lon="-5.300933">
        <ele>1782.0</ele>
        <time>2018-07-14T12:06:42Z</time>
      </trkpt>
      <trkpt lat="40.431033" lon="-5.300967">
        <ele>1779.0</ele>
        <time>2018-07-14T12:06:43Z</time>
      </trkpt>
      <trkpt lat="40.431133" lon="-5.300983">
        <ele>1776.0</ele>
        <time>2018-07-14T12:06:44Z</time>
      </trkpt>
      <trkpt lat="40.431217" lon="-5.300983">
        <ele>1773.0</ele>
        <time>2018-07-14T12:06:45Z</time>
      </trkpt>
      <trkpt lat="40.431300" lon="-5.300967">
        <ele>1771.0</ele>
        <time>2018-07-14T12:06:46Z</time>
      </trkpt>
      <trkpt lat="40.431367" lon="-5.300967">
        <ele>1769.0</ele>
        <time>2018-07-14T12:06:47Z</time>
      </trkpt>
      <trkpt lat="40.431450" lon="-5.300950">
        <ele>1767.0</ele>
        <time>2018-07-14T12:06:48Z</time>
      </trkpt>
      <trkpt lat="40.431517" lon="-5.300933">
        <ele>1764.0</ele>
        <time>2018-07-14T12:06:49Z</time>
      </trkpt>
      <trkpt lat="40.431600" lon="-5.300917">
        <ele>1760.0</ele>
        <time>2018-07-14T12:06:50Z</time>
      </trkpt>
      <trkpt lat="40.431683" lon="-5.300900">
        <ele>1758.0</ele>
        <time>2018-07-14T12:06:51Z</time>
      </trkpt>
      <trkpt lat="40.431767" lon="-5.300867">
        <ele>1755.0</ele>
        <time>2018-07-14T12:06:52Z</time>
      </trkpt>
      <trkpt lat="40.431817" lon="-5.300833">
        <ele>1753.0</ele>
        <time>2018-07-14T12:06:53Z</time>
      </trkpt>
      <trkpt lat="40.431883" lon="-5.300817">
        <ele>1751.0</ele>
        <time>2018-07-14T12:06:54Z</time>
      </trkpt>
      <trkpt lat="40.431967" lon="-5.300783">
        <ele>1748.0</ele>
        <time>2018-07-14T12:06:55Z</time>
      </trkpt>
      <trkpt lat="40.432033" lon="-5.300767">
        <ele>1745.0</ele>
        <time>2018-07-14T12:06:56Z</time>
      </trkpt>
      <trkpt lat="40.432117" lon="-5.300750">
        <ele>1742.0</ele>
        <time>2018-07-14T12:06:57Z</time>
      </trkpt>
      <trkpt lat="40.432200" lon="-5.300717">
        <ele>1740.0</ele>
        <time>2018-07-14T12:06:58Z</time>
      </trkpt>
      <trkpt lat="40.432267" lon="-5.300683">
        <ele>1738.0</ele>
        <time>2018-07-14T12:06:59Z</time>
      </trkpt>
      <trkpt lat="40.432333" lon="-5.300667">
        <ele>1737.0</ele>
        <time>2018-07-14T12:07:00Z</time>
      </trkpt>
      <trkpt lat="40.432417" lon="-5.300667">
        <ele>1735.0</ele>
        <time>2018-07-14T12:07:01Z</time>
      </trkpt>
      <trkpt lat="40.432483" lon="-5.300683">
        <ele>1733.0</ele>
        <time>2018-07-14T12:07:02Z</time>
      </trkpt>
      <trkpt lat="40.432567" lon="-5.300683">
        <ele>1731.0</ele>
        <time>2018-07-14T12:07:03Z</time>
      </trkpt>
      <trkpt lat="40.432650" lon="-5.300667">
        <ele>1729.0</ele>
        <time>2018-07-14T12:07:04Z</time>
      </trkpt>
      <trkpt lat="40.432717" lon="-5.300650">
        <ele>1727.0</ele>
        <time>2018-07-14T12:07:05Z</time>
      </trkpt>
      <trkpt lat="40.432800" lon="-5.300633">
        <ele>1725.0</ele>
        <time>2018-07-14T12:07:06Z</time>
      </trkpt>
      <trkpt lat="40.432883" lon="-5.300650">
        <ele>1724.0</ele>
        <time>2018-07-14T12:07:07Z</time>
      </trkpt>
      <trkpt lat="40.432967" lon="-5.300667">
        <ele>1722.0</ele>
        <time>2018-07-14T12:07:08Z</time>
      </trkpt>
      <trkpt lat="40.433050" lon="-5.300700">
        <ele>1723.0</ele>
        <time>2018-07-14T12:07:09Z</time>
      </trkpt>
      <trkpt lat="40.433133" lon="-5.300717">
        <ele>1724.0</ele>
        <time>2018-07-14T12:07:10Z</time>
      </trkpt>
      <trkpt lat="40.433200" lon="-5.300733">
        <ele>1726.0</ele>
        <time>2018-07-14T12:07:11Z</time>
      </trkpt>
      <trkpt lat="40.433267" lon="-5.300750">
        <ele>1727.0</ele>
        <time>2018-07-14T12:07:12Z</time>
      </trkpt>
      <trkpt lat="40.433333" lon="-5.300767">
        <ele>1727.0</ele>
        <time>2018-07-14T12:07:13Z</time>
      </trkpt>
      <trkpt lat="40.433383" lon="-5.300800">
        <ele>1727.0</ele>
        <time>2018-07-14T12:07:14Z</time>
      </trkpt>
      <trkpt lat="40.433450" lon="-5.300817">
        <ele>1727.0</ele>
        <time>2018-07-14T12:07:15Z</time>
      </trkpt>
      <trkpt lat="40.433517" lon="-5.300850">
        <ele>1724.0</ele>
        <time>2018-07-14T12:07:16Z</time>
      </trkpt>
      <trkpt lat="40.433600" lon="-5.300867">
        <ele>1722.0</ele>
        <time>2018-07-14T12:07:17Z</time>
      </trkpt>
      <trkpt lat="40.433700" lon="-5.300883">
        <ele>1722.0</ele>
        <time>2018-07-14T12:07:18Z</time>
      </trkpt>
      <trkpt lat="40.433767" lon="-5.300917">
        <ele>1721.0</ele>
        <time>2018-07-14T12:07:19Z</time>
      </trkpt>
      <trkpt lat="40.433817" lon="-5.300967">
        <ele>1721.0</ele>
        <time>2018-07-14T12:07:20Z</time>
      </trkpt>
      <trkpt lat="40.433883" lon="-5.301000">
        <ele>1720.0</ele>
        <time>2018-07-14T12:07:21Z</time>
      </trkpt>
      <trkpt lat="40.433950" lon="-5.301050">
        <ele>1719.0</ele>
        <time>2018-07-14T12:07:22Z</time>
      </trkpt>
      <trkpt lat="40.434017" lon="-5.301100">
        <ele>1717.0</ele>
        <time>2018-07-14T12:07:23Z</time>
      </trkpt>
      <trkpt lat="40.434083" lon="-5.301133">
        <ele>1716.0</ele>
        <time>2018-07-14T12:07:24Z</time>
      </trkpt>
      <trkpt lat="40.434150" lon="-5.301167">
        <ele>1714.0</ele>
        <time>2018-07-14T12:07:25Z</time>
      </trkpt>
      <trkpt lat="40.434200" lon="-5.301183">
        <ele>1713.0</ele>
        <time>2018-07-14T12:07:26Z</time>
      </trkpt>
      <trkpt lat="40.434283" lon="-5.301200">
        <ele>1711.0</ele>
        <time>2018-07-14T12:07:27Z</time>
      </trkpt>
      <trkpt lat="40.434317" lon="-5.301267">
        <ele>1709.0</ele>
        <time>2018-07-14T12:07:28Z</time>
      </trkpt>
      <trkpt lat="40.434383" lon="-5.301300">
        <ele>1711.0</ele>
        <time>2018-07-14T12:07:29Z</time>
      </trkpt>
      <trkpt lat="40.434467" lon="-5.301333">
        <ele>1710.0</ele>
        <time>2018-07-14T12:07:30Z</time>
      </trkpt>
      <trkpt lat="40.434533" lon="-5.301383">
        <ele>1708.0</ele>
        <time>2018-07-14T12:07:31Z</time>
      </trkpt>
      <trkpt lat="40.434600" lon="-5.301417">
        <ele>1707.0</ele>
        <time>2018-07-14T12:07:32Z</time>
      </trkpt>
      <trkpt lat="40.434667" lon="-5.301450">
        <ele>1706.0</ele>
        <time>2018-07-14T12:07:33Z</time>
      </trkpt>
      <trkpt lat="40.434733" lon="-5.301500">
        <ele>1704.0</ele>
        <time>2018-07-14T12:07:34Z</time>
      </trkpt>
      <trkpt lat="40.434783" lon="-5.301550">
        <ele>1703.0</ele>
        <time>2018-07-14T12:07:35Z</time>
      </trkpt>
      <trkpt lat="40.434833" lon="-5.301633">
        <ele>1701.0</ele>
        <time>2018-07-14T12:07:36Z</time>
      </trkpt>
      <trkpt lat="40.434900" lon="-5.301683">
        <ele>1700.0</ele>
        <time>2018-07-14T12:07:37Z</time>
      </trkpt>
      <trkpt lat="40.434933" lon="-5.301750">
        <ele>1698.0</ele>
        <time>2018-07-14T12:07:38Z</time>
      </trkpt>
      <trkpt lat="40.435000" lon="-5.301783">
        <ele>1700.0</ele>
        <time>2018-07-14T12:07:39Z</time>
      </trkpt>
      <trkpt lat="40.435033" lon="-5.301833">
        <ele>1700.0</ele>
        <time>2018-07-14T12:07:40Z</time>
      </trkpt>
      <trkpt lat="40.435083" lon="-5.301850">
        <ele>1700.0</ele>
        <time>2018-07-14T12:07:41Z</time>
      </trkpt>
      <trkpt lat="40.435133" lon="-5.301900">
        <ele>1699.0</ele>
        <time>2018-07-14T12:07:42Z</time>
      </trkpt>
      <trkpt lat="40.435167" lon="-5.301950">
        <ele>1699.0</ele>
        <time>2018-07-14T12:07:43Z</time>
      </trkpt>
      <trkpt lat="40.435217" lon="-5.302000">
        <ele>1699.0</ele>
        <time>2018-07-14T12:07:44Z</time>
      </trkpt>
      <trkpt lat="40.435267" lon="-5.302083">
        <ele>1699.0</ele>
        <time>2018-07-14T12:07:45Z</time>
      </trkpt>
      <trkpt lat="40.435333" lon="-5.302133">
        <ele>1698.0</ele>
        <time>2018-07-14T12:07:46Z</time>
      </trkpt>
      <trkpt lat="40.435400" lon="-5.302183">
        <ele>1698.0</ele>
        <time>2018-07-14T12:07:47Z</time>
      </trkpt>
      <trkpt lat="40.435467" lon="-5.302217">
        <ele>1697.0</ele>
        <time>2018-07-14T12:07:48Z</time>
      </trkpt>
      <trkpt lat="40.435533" lon="-5.302250">
        <ele>1696.0</ele>
        <time>2018-07-14T12:07:49Z</time>
      </trkpt>
      <trkpt lat="40.435583" lon="-5.302283">
        <ele>1696.0</ele>
        <time>2018-07-14T12:07:50Z</time>
      </trkpt>
      <trkpt lat="40.435633" lon="-5.302300">
        <ele>1695.0</ele>
        <time>2018-07-14T12:07:51Z</time>
      </trkpt>
      <trkpt lat="40.435683" lon="-5.302300">
        <ele>1694.0</ele>
        <time>2018-07-14T12:07:52Z</time>
      </trkpt>
      <trkpt lat="40.435733" lon="-5.302333">
        <ele>1692.0</ele>
        <time>2018-07-14T12:07:53Z</time>
      </trkpt>
      <trkpt lat="40.435783" lon="-5.302367">
        <ele>1693.0</ele>
        <time>2018-07-14T12:07:54Z</time>
      </trkpt>
      <trkpt lat="40.435850" lon="-5.302400">
        <ele>1692.0</ele>
        <time>2018-07-14T12:07:55Z</time>
      </trkpt>
      <trkpt lat="40.435900" lon="-5.302417">
        <ele>1690.0</ele>
        <time>2018-07-14T12:07:56Z</time>
      </trkpt>
      <trkpt lat="40.435967" lon="-5.302450">
        <ele>1690.0</ele>
        <time>2018-07-14T12:07:57Z</time>
      </trkpt>
      <trkpt lat="40.436017" lon="-5.302467">
        <ele>1689.0</ele>
        <time>2018-07-14T12:07:58Z</time>
      </trkpt>
      <trkpt lat="40.436050" lon="-5.302483">
        <ele>1689.0</ele>
        <time>2018-07-14T12:07:59Z</time>
      </trkpt>
      <trkpt lat="40.436083" lon="-5.302517">
        <ele>1688.0</ele>
        <time>2018-07-14T12:08:00Z</time>
      </trkpt>
      <trkpt lat="40.436133" lon="-5.302567">
        <ele>1688.0</ele>
        <time>2018-07-14T12:08:01Z</time>
      </trkpt>
      <trkpt lat="40.436200" lon="-5.302617">
        <ele>1688.0</ele>
        <time>2018-07-14T12:08:02Z</time>
      </trkpt>
      <trkpt lat="40.436250" lon="-5.302667">
        <ele>1688.0</ele>
        <time>2018-07-14T12:08:03Z</time>
      </trkpt>
      <trkpt lat="40.436300" lon="-5.302700">
        <ele>1687.0</ele>
        <time>2018-07-14T12:08:04Z</time>
      </trkpt>
      <trkpt lat="40.436350" lon="-5.302733">
        <ele>1687.0</ele>
        <time>2018-07-14T12:08:05Z</time>
      </trkpt>
      <trkpt lat="40.436383" lon="-5.302767">
        <ele>1687.0</ele>
        <time>2018-07-14T12:08:06Z</time>
      </trkpt>
      <trkpt lat="40.436433" lon="-5.302817">
        <ele>1687.0</ele>
        <time>2018-07-14T12:08:07Z</time>
      </trkpt>
      <trkpt lat="40.436500" lon="-5.302900">
        <ele>1686.0</ele>
        <time>2018-07-14T12:08:08Z</time>
      </trkpt>
      <trkpt lat="40.436567" lon="-5.302967">
        <ele>1686.0</ele>
        <time>2018-07-14T12:08:09Z</time>
      </trkpt>
      <trkpt lat="40.436633" lon="-5.303017">
        <ele>1686.0</ele>
        <time>2018-07-14T12:08:10Z</time>
      </trkpt>
      <trkpt lat="40.436700" lon="-5.303067">
        <ele>1685.0</ele>
        <time>2018-07-14T12:08:11Z</time>
      </trkpt>
      <trkpt lat="40.436767" lon="-5.303100">
        <ele>1685.0</ele>
        <time>2018-07-14T12:08:12Z</time>
      </trkpt>
      <trkpt lat="40.436833" lon="-5.303133">
        <ele>1685.0</ele>
        <time>2018-07-14T12:08:13Z</time>
      </trkpt>
      <trkpt lat="40.436900" lon="-5.303183">
        <ele>1684.0</ele>
        <time>2018-07-14T12:08:14Z</time>
      </trkpt>
      <trkpt lat="40.436983" lon="-5.303233">
        <ele>1683.0</ele>
        <time>2018-07-14T12:08:15Z</time>
      </trkpt>
      <trkpt lat="40.437050" lon="-5.303300">
        <ele>1683.0</ele>
        <time>2018-07-14T12:08:16Z</time>
      </trkpt>
      <trkpt lat="40.437133" lon="-5.303350">
        <ele>1683.0</ele>
        <time>2018-07-14T12:08:17Z</time>
      </trkpt>
      <trkpt lat="40.437200" lon="-5.303383">
        <ele>1683.0</ele>
        <time>2018-07-14T12:08:18Z</time>
      </trkpt>
      <trkpt lat="40.437267" lon="-5.303433">
        <ele>1683.0</ele>
        <time>2018-07-14T12:08:19Z</time>
      </trkpt>
      <trkpt lat="40.437367" lon="-5.303467">
        <ele>1682.0</ele>
        <time>2018-07-14T12:08:20Z</time>
      </trkpt>
      <trkpt lat="40.437450" lon="-5.303500">
        <ele>1682.0</ele>
        <time>2018-07-14T12:08:21Z</time>
      </trkpt>
      <trkpt lat="40.437517" lon="-5.303533">
        <ele>1682.0</ele>
        <time>2018-07-14T12:08:22Z</time>
      </trkpt>
      <trkpt lat="40.437583" lon="-5.303567">
        <ele>1682.0</ele>
        <time>2018-07-14T12:08:23Z</time>
      </trkpt>
      <trkpt lat="40.437650" lon="-5.303617">
        <ele>1682.0</ele>
        <time>2018-07-14T12:08:24Z</time>
      </trkpt>
      <trkpt lat="40.437717" lon="-5.303650">
        <ele>1682.0</ele>
        <time>2018-07-14T12:08:25Z</time>
      </trkpt>
      <trkpt lat="40.437800" lon="-5.303700">
        <ele>1682.0</ele>
        <time>2018-07-14T12:08:26Z</time>
      </trkpt>
      <trkpt lat="40.437867" lon="-5.303750">
        <ele>1683.0</ele>
        <time>2018-07-14T12:08:27Z</time>
      </trkpt>
      <trkpt lat="40.437933" lon="-5.303817">
        <ele>1683.0</ele>
        <time>2018-07-14T12:08:28Z</time>
      </trkpt>
      <trkpt lat="40.437983" lon="-5.303883">
        <ele>1684.0</ele>
        <time>2018-07-14T12:08:29Z</time>
      </trkpt>
      <trkpt lat="40.438033" lon="-5.303950">
        <ele>1685.0</ele>
        <time>2018-07-14T12:08:30Z</time>
      </trkpt>
      <trkpt lat="40.438083" lon="-5.304000">
        <ele>1687.0</ele>
        <time>2018-07-14T12:08:31Z</time>
      </trkpt>
      <trkpt lat="40.438150" lon="-5.304033">
        <ele>1688.0</ele>
        <time>2018-07-14T12:08:32Z</time>
      </trkpt>
      <trkpt lat="40.438217" lon="-5.304067">
        <ele>1687.0</ele>
        <time>2018-07-14T12:08:33Z</time>
      </trkpt>
      <trkpt lat="40.438283" lon="-5.304117">
        <ele>1687.0</ele>
        <time>2018-07-14T12:08:34Z</time>
      </trkpt>
      <trkpt lat="40.438333" lon="-5.304167">
        <ele>1687.0</ele>
        <time>2018-07-14T12:08:35Z</time>
      </trkpt>
      <trkpt lat="40.438367" lon="-5.304233">
        <ele>1687.0</ele>
        <time>2018-07-14T12:08:36Z</time>
      </trkpt>
      <trkpt lat="40.438417" lon="-5.304283">
        <ele>1688.0</ele>
        <time>2018-07-14T12:08:37Z</time>
      </trkpt>
      <trkpt lat="40.438483" lon="-5.304333">
        <ele>1688.0</ele>
        <time>2018-07-14T12:08:38Z</time>
      </trkpt>
      <trkpt lat="40.438550" lon="-5.304367">
        <ele>1687.0</ele>
        <time>2018-07-14T12:08:39Z</time>
      </trkpt>
      <trkpt lat="40.438617" lon="-5.304417">
        <ele>1687.0</ele>
        <time>2018-07-14T12:08:40Z</time>
      </trkpt>
      <trkpt lat="40.438683" lon="-5.304467">
        <ele>1687.0</ele>
        <time>2018-07-14T12:08:41Z</time>
      </trkpt>
      <trkpt lat="40.438750" lon="-5.304500">
        <ele>1688.0</ele>
        <time>2018-07-14T12:08:42Z</time>
      </trkpt>
      <trkpt lat="40.438817" lon="-5.304517">
        <ele>1688.0</ele>
        <time>2018-07-14T12:08:43Z</time>
      </trkpt>
      <trkpt lat="40.438900" lon="-5.304533">
        <ele>1688.0</ele>
        <time>2018-07-14T12:08:44Z</time>
      </trkpt>
      <trkpt lat="40.438983" lon="-5.304517">
        <ele>1688.0</ele>
        <time>2018-07-14T12:08:45Z</time>
      </trkpt>
      <trkpt lat="40.439050" lon="-5.304517">
        <ele>1689.0</ele>
        <time>2018-07-14T12:08:46Z</time>
      </trkpt>
      <trkpt lat="40.439083" lon="-5.304517">
        <ele>1689.0</ele>
        <time>2018-07-14T12:08:47Z</time>
      </trkpt>
      <trkpt lat="40.439150" lon="-5.304517">
        <ele>1689.0</ele>
        <time>2018-07-14T12:08:48Z</time>
      </trkpt>
      <trkpt lat="40.439200" lon="-5.304533">
        <ele>1689.0</ele>
        <time>2018-07-14T12:08:49Z</time>
      </trkpt>
      <trkpt lat="40.439267" lon="-5.304550">
        <ele>1687.0</ele>
        <time>2018-07-14T12:08:50Z</time>
      </trkpt>
      <trkpt lat="40.439333" lon="-5.304600">
        <ele>1686.0</ele>
        <time>2018-07-14T12:08:51Z</time>
      </trkpt>
      <trkpt lat="40.439400" lon="-5.304650">
        <ele>1686.0</ele>
        <time>2018-07-14T12:08:52Z</time>
      </trkpt>
      <trkpt lat="40.439433" lon="-5.304700">
        <ele>1687.0</ele>
        <time>2018-07-14T12:08:53Z</time>
      </trkpt>
      <trkpt lat="40.439483" lon="-5.304750">
        <ele>1686.0</ele>
        <time>2018-07-14T12:08:54Z</time>
      </trkpt>
      <trkpt lat="40.439533" lon="-5.304783">
        <ele>1686.0</ele>
        <time>2018-07-14T12:08:55Z</time>
      </trkpt>
      <trkpt lat="40.439583" lon="-5.304817">
        <ele>1686.0</ele>
        <time>2018-07-14T12:08:56Z</time>
      </trkpt>
      <trkpt lat="40.439633" lon="-5.304867">
        <ele>1686.0</ele>
        <time>2018-07-14T12:08:57Z</time>
      </trkpt>
      <trkpt lat="40.439667" lon="-5.304917">
        <ele>1686.0</ele>
        <time>2018-07-14T12:08:58Z</time>
      </trkpt>
      <trkpt lat="40.439717" lon="-5.304983">
        <ele>1686.0</ele>
        <time>2018-07-14T12:08:59Z</time>
      </trkpt>
      <trkpt lat="40.439767" lon="-5.305017">
        <ele>1686.0</ele>
        <time>2018-07-14T12:09:00Z</time>
      </trkpt>
      <trkpt lat="40.439800" lon="-5.305050">
        <ele>1685.0</ele>
        <time>2018-07-14T12:09:01Z</time>
      </trkpt>
      <trkpt lat="40.439833" lon="-5.305067">
        <ele>1685.0</ele>
        <time>2018-07-14T12:09:02Z</time>
      </trkpt>
      <trkpt lat="40.439867" lon="-5.305100">
        <ele>1685.0</ele>
        <time>2018-07-14T12:09:03Z</time>
      </trkpt>
      <trkpt lat="40.439917" lon="-5.305133">
        <ele>1685.0</ele>
        <time>2018-07-14T12:09:04Z</time>
      </trkpt>
      <trkpt lat="40.439983" lon="-5.305183">
        <ele>1684.0</ele>
        <time>2018-07-14T12:09:05Z</time>
      </trkpt>
      <trkpt lat="40.440033" lon="-5.305233">
        <ele>1684.0</ele>
        <time>2018-07-14T12:09:06Z</time>
      </trkpt>
      <trkpt lat="40.440083" lon="-5.305267">
        <ele>1683.0</ele>
        <time>2018-07-14T12:09:07Z</time>
      </trkpt>
      <trkpt lat="40.440117" lon="-5.305300">
        <ele>1683.0</ele>
        <time>2018-07-14T12:09:08Z</time>
      </trkpt>
      <trkpt lat="40.440167" lon="-5.305333">
        <ele>1682.0</ele>
        <time>2018-07-14T12:09:09Z</time>
      </trkpt>
      <trkpt lat="40.440217" lon="-5.305367">
        <ele>1681.0</ele>
        <time>2018-07-14T12:09:10Z</time>
      </trkpt>
      <trkpt lat="40.440267" lon="-5.305400">
        <ele>1679.0</ele>
        <time>2018-07-14T12:09:11Z</time>
      </trkpt>
      <trkpt lat="40.440317" lon="-5.305450">
        <ele>1678.0</ele>
        <time>2018-07-14T12:09:12Z</time>
      </trkpt>
      <trkpt lat="40.440367" lon="-5.305500">
        <ele>1677.0</ele>
        <time>2018-07-14T12:09:13Z</time>
      </trkpt>
      <trkpt lat="40.440433" lon="-5.305533">
        <ele>1675.0</ele>
        <time>2018-07-14T12:09:14Z</time>
      </trkpt>
      <trkpt lat="40.440467" lon="-5.305567">
        <ele>1672.0</ele>
        <time>2018-07-14T12:09:15Z</time>
      </trkpt>
      <trkpt lat="40.440533" lon="-5.305583">
        <ele>1669.0</ele>
        <time>2018-07-14T12:09:16Z</time>
      </trkpt>
      <trkpt lat="40.440583" lon="-5.305650">
        <ele>1665.0</ele>
        <time>2018-07-14T12:09:17Z</time>
      </trkpt>
      <trkpt lat="40.440617" lon="-5.305700">
        <ele>1669.0</ele>
        <time>2018-07-14T12:09:18Z</time>
      </trkpt>
      <trkpt lat="40.440683" lon="-5.305750">
        <ele>1669.0</ele>
        <time>2018-07-14T12:09:19Z</time>
      </trkpt>
      <trkpt lat="40.440733" lon="-5.305800">
        <ele>1668.0</ele>
        <time>2018-07-14T12:09:20Z</time>
      </trkpt>
      <trkpt lat="40.440767" lon="-5.305833">
        <ele>1667.0</ele>
        <time>2018-07-14T12:09:21Z</time>
      </trkpt>
      <trkpt lat="40.440817" lon="-5.305867">
        <ele>1666.0</ele>
        <time>2018-07-14T12:09:22Z</time>
      </trkpt>
      <trkpt lat="40.440867" lon="-5.305917">
        <ele>1666.0</ele>
        <time>2018-07-14T12:09:23Z</time>
      </trkpt>
      <trkpt lat="40.440917" lon="-5.305950">
        <ele>1666.0</ele>
        <time>2018-07-14T12:09:24Z</time>
      </trkpt>
      <trkpt lat="40.440967" lon="-5.306000">
        <ele>1666.0</ele>
        <time>2018-07-14T12:09:25Z</time>
      </trkpt>
      <trkpt lat="40.441017" lon="-5.306033">
        <ele>1666.0</ele>
        <time>2018-07-14T12:09:26Z</time>
      </trkpt>
      <trkpt lat="40.441067" lon="-5.306067">
        <ele>1666.0</ele>
        <time>2018-07-14T12:09:27Z</time>
      </trkpt>
      <trkpt lat="40.441100" lon="-5.306117">
        <ele>1665.0</ele>
        <time>2018-07-14T12:09:28Z</time>
      </trkpt>
      <trkpt lat="40.441167" lon="-5.306183">
        <ele>1665.0</ele>
        <time>2018-07-14T12:09:29Z</time>
      </trkpt>
      <trkpt lat="40.441233" lon="-5.306233">
        <ele>1665.0</ele>
        <time>2018-07-14T12:09:30Z</time>
      </trkpt>
      <trkpt lat="40.441300" lon="-5.306283">
        <ele>1665.0</ele>
        <time>2018-07-14T12:09:31Z</time>
      </trkpt>
      <trkpt lat="40.441367" lon="-5.306333">
        <ele>1665.0</ele>
        <time>2018-07-14T12:09:32Z</time>
      </trkpt>
      <trkpt lat="40.441417" lon="-5.306367">
        <ele>1664.0</ele>
        <time>2018-07-14T12:09:33Z</time>
      </trkpt>
      <trkpt lat="40.441450" lon="-5.306417">
        <ele>1664.0</ele>
        <time>2018-07-14T12:09:34Z</time>
      </trkpt>
      <trkpt lat="40.441517" lon="-5.306467">
        <ele>1665.0</ele>
        <time>2018-07-14T12:09:35Z</time>
      </trkpt>
      <trkpt lat="40.441550" lon="-5.306500">
        <ele>1665.0</ele>
        <time>2018-07-14T12:09:36Z</time>
      </trkpt>
      <trkpt lat="40.441600" lon="-5.306550">
        <ele>1665.0</ele>
        <time>2018-07-14T12:09:37Z</time>
      </trkpt>
      <trkpt lat="40.441633" lon="-5.306617">
        <ele>1665.0</ele>
        <time>2018-07-14T12:09:38Z</time>
      </trkpt>
      <trkpt lat="40.441650" lon="-5.306667">
        <ele>1666.0</ele>
        <time>2018-07-14T12:09:39Z</time>
      </trkpt>
      <trkpt lat="40.441667" lon="-5.306750">
        <ele>1667.0</ele>
        <time>2018-07-14T12:09:40Z</time>
      </trkpt>
      <trkpt lat="40.441633" lon="-5.306833">
        <ele>1668.0</ele>
        <time>2018-07-14T12:09:41Z</time>
      </trkpt>
      <trkpt lat="40.441583" lon="-5.306883">
        <ele>1669.0</ele>
        <time>2018-07-14T12:09:42Z</time>
      </trkpt>
      <trkpt lat="40.441533" lon="-5.306950">
        <ele>1669.0</ele>
        <time>2018-07-14T12:09:43Z</time>
      </trkpt>
      <trkpt lat="40.441500" lon="-5.307000">
        <ele>1670.0</ele>
        <time>2018-07-14T12:09:44Z</time>
      </trkpt>
      <trkpt lat="40.441483" lon="-5.307050">
        <ele>1671.0</ele>
        <time>2018-07-14T12:09:45Z</time>
      </trkpt>
      <trkpt lat="40.441517" lon="-5.307117">
        <ele>1670.0</ele>
        <time>2018-07-14T12:09:46Z</time>
      </trkpt>
      <trkpt lat="40.441567" lon="-5.307150">
        <ele>1670.0</ele>
        <time>2018-07-14T12:09:47Z</time>
      </trkpt>
      <trkpt lat="40.441617" lon="-5.307167">
        <ele>1670.0</ele>
        <time>2018-07-14T12:09:48Z</time>
      </trkpt>
      <trkpt lat="40.441667" lon="-5.307117">
        <ele>1670.0</ele>
        <time>2018-07-14T12:09:49Z</time>
      </trkpt>
      <trkpt lat="40.441717" lon="-5.307033">
        <ele>1670.0</ele>
        <time>2018-07-14T12:09:50Z</time>
      </trkpt>
      <trkpt lat="40.441767" lon="-5.306933">
        <ele>1670.0</ele>
        <time>2018-07-14T12:09:51Z</time>
      </trkpt>
      <trkpt lat="40.441800" lon="-5.306817">
        <ele>1671.0</ele>
        <time>2018-07-14T12:09:52Z</time>
      </trkpt>
      <trkpt lat="40.441817" lon="-5.306683">
        <ele>1671.0</ele>
        <time>2018-07-14T12:09:53Z</time>
      </trkpt>
      <trkpt lat="40.441817" lon="-5.306533">
        <ele>1671.0</ele>
        <time>2018-07-14T12:09:54Z</time>
      </trkpt>
      <trkpt lat="40.441767" lon="-5.306367">
        <ele>1671.0</ele>
        <time>2018-07-14T12:09:55Z</time>
      </trkpt>
      <trkpt lat="40.441717" lon="-5.306217">
        <ele>1671.0</ele>
        <time>2018-07-14T12:09:56Z</time>
      </trkpt>
      <trkpt lat="40.441617" lon="-5.306100">
        <ele>1672.0</ele>
        <time>2018-07-14T12:09:57Z</time>
      </trkpt>
      <trkpt lat="40.441517" lon="-5.306017">
        <ele>1672.0</ele>
        <time>2018-07-14T12:09:58Z</time>
      </trkpt>
      <trkpt lat="40.441400" lon="-5.305983">
        <ele>1673.0</ele>
        <time>2018-07-14T12:09:59Z</time>
      </trkpt>
      <trkpt lat="40.441283" lon="-5.305967">
        <ele>1673.0</ele>
        <time>2018-07-14T12:10:00Z</time>
      </trkpt>
      <trkpt lat="40.441200" lon="-5.305983">
        <ele>1675.0</ele>
        <time>2018-07-14T12:10:01Z</time>
      </trkpt>
      <trkpt lat="40.441117" lon="-5.306000">
        <ele>1675.0</ele>
        <time>2018-07-14T12:10:02Z</time>
      </trkpt>
      <trkpt lat="40.441033" lon="-5.306017">
        <ele>1675.0</ele>
        <time>2018-07-14T12:10:03Z</time>
      </trkpt>
      <trkpt lat="40.440933" lon="-5.306033">
        <ele>1675.0</ele>
        <time>2018-07-14T12:10:04Z</time>
      </trkpt>
      <trkpt lat="40.440833" lon="-5.306067">
        <ele>1674.0</ele>
        <time>2018-07-14T12:10:05Z</time>
      </trkpt>
      <trkpt lat="40.440767" lon="-5.306133">
        <ele>1673.0</ele>
        <time>2018-07-14T12:10:06Z</time>
      </trkpt>
      <trkpt lat="40.440717" lon="-5.306200">
        <ele>1673.0</ele>
        <time>2018-07-14T12:10:07Z</time>
      </trkpt>
      <trkpt lat="40.440700" lon="-5.306267">
        <ele>1672.0</ele>
        <time>2018-07-14T12:10:08Z</time>
      </trkpt>
      <trkpt lat="40.440700" lon="-5.306333">
        <ele>1671.0</ele>
        <time>2018-07-14T12:10:09Z</time>
      </trkpt>
      <trkpt lat="40.440700" lon="-5.306383">
        <ele>1671.0</ele>
        <time>2018-07-14T12:10:10Z</time>
      </trkpt>
      <trkpt lat="40.440700" lon="-5.306433">
        <ele>1672.0</ele>
        <time>2018-07-14T12:10:11Z</time>
      </trkpt>
      <trkpt lat="40.440733" lon="-5.306467">
        <ele>1672.0</ele>
        <time>2018-07-14T12:10:12Z</time>
      </trkpt>
      <trkpt lat="40.440783" lon="-5.306500">
        <ele>1672.0</ele>
        <time>2018-07-14T12:10:13Z</time>
      </trkpt>
      <trkpt lat="40.440833" lon="-5.306533">
        <ele>1672.0</ele>
        <time>2018-07-14T12:10:14Z</time>
      </trkpt>
      <trkpt lat="40.440883" lon="-5.306583">
        <ele>1672.0</ele>
        <time>2018-07-14T12:10:15Z</time>
      </trkpt>
      <trkpt lat="40.440917" lon="-5.306617">
        <ele>1672.0</ele>
        <time>2018-07-14T12:10:16Z</time>
      </trkpt>
      <trkpt lat="40.440950" lon="-5.306650">
        <ele>1672.0</ele>
        <time>2018-07-14T12:10:17Z</time>
      </trkpt>
      <trkpt lat="40.440983" lon="-5.306683">
        <ele>1672.0</ele>
        <time>2018-07-14T12:10:18Z</time>
      </trkpt>
      <trkpt lat="40.441017" lon="-5.306717">
        <ele>1672.0</ele>
        <time>2018-07-14T12:10:19Z</time>
      </trkpt>
      <trkpt lat="40.441067" lon="-5.306750">
        <ele>1672.0</ele>
        <time>2018-07-14T12:10:20Z</time>
      </trkpt>
      <trkpt lat="40.441100" lon="-5.306767">
        <ele>1672.0</ele>
        <time>2018-07-14T12:10:21Z</time>
      </trkpt>
      <trkpt lat="40.441133" lon="-5.306800">
        <ele>1672.0</ele>
        <time>2018-07-14T12:10:22Z</time>
      </trkpt>
      <trkpt lat="40.441183" lon="-5.306833">
        <ele>1672.0</ele>
        <time>2018-07-14T12:10:23Z</time>
      </trkpt>
      <trkpt lat="40.441233" lon="-5.306867">
        <ele>1672.0</ele>
        <time>2018-07-14T12:10:24Z</time>
      </trkpt>
      <trkpt lat="40.441267" lon="-5.306883">
        <ele>1672.0</ele>
        <time>2018-07-14T12:10:25Z</time>
      </trkpt>
      <trkpt lat="40.441317" lon="-5.306917">
        <ele>1672.0</ele>
        <time>2018-07-14T12:10:26Z</time>
      </trkpt>
      <trkpt lat="40.441350" lon="-5.306933">
        <ele>1673.0</ele>
        <time>2018-07-14T12:10:27Z</time>
      </trkpt>
      <trkpt lat="40.441383" lon="-5.306967">
        <ele>1673.0</ele>
        <time>2018-07-14T12:10:28Z</time>
      </trkpt>
      <trkpt lat="40.441417" lon="-5.307000">
        <ele>1673.0</ele>
        <time>2018-07-14T12:10:29Z</time>
      </trkpt>
      <trkpt lat="40.441467" lon="-5.307050">
        <ele>1673.0</ele>
        <time>2018-07-14T12:10:30Z</time>
      </trkpt>
      <trkpt lat="40.441517" lon="-5.307083">
        <ele>1673.0</ele>
        <time>2018-07-14T12:10:31Z</time>
      </trkpt>
      <trkpt lat="40.441567" lon="-5.307117">
        <ele>1673.0</ele>
        <time>2018-07-14T12:10:32Z</time>
      </trkpt>
      <trkpt lat="40.441617" lon="-5.307133">
        <ele>1673.0</ele>
        <time>2018-07-14T12:10:33Z</time>
      </trkpt>
      <trkpt lat="40.441667" lon="-5.307150">
        <ele>1673.0</ele>
        <time>2018-07-14T12:10:34Z</time>
      </trkpt>
      <trkpt lat="40.441717" lon="-5.307150">
        <ele>1673.0</ele>
        <time>2018-07-14T12:10:35Z</time>
      </trkpt>
      <trkpt lat="40.441783" lon="-5.307167">
        <ele>1674.0</ele>
        <time>2018-07-14T12:10:36Z</time>
      </trkpt>
      <trkpt lat="40.441850" lon="-5.307183">
        <ele>1674.0</ele>
        <time>2018-07-14T12:10:37Z</time>
      </trkpt>
      <trkpt lat="40.441900" lon="-5.307217">
        <ele>1675.0</ele>
        <time>2018-07-14T12:10:38Z</time>
      </trkpt>
      <trkpt lat="40.441950" lon="-5.307267">
        <ele>1675.0</ele>
        <time>2018-07-14T12:10:39Z</time>
      </trkpt>
      <trkpt lat="40.441983" lon="-5.307317">
        <ele>1675.0</ele>
        <time>2018-07-14T12:10:40Z</time>
      </trkpt>
      <trkpt lat="40.442017" lon="-5.307350">
        <ele>1675.0</ele>
        <time>2018-07-14T12:10:41Z</time>
      </trkpt>
      <trkpt lat="40.442067" lon="-5.307367">
        <ele>1676.0</ele>
        <time>2018-07-14T12:10:42Z</time>
      </trkpt>
      <trkpt lat="40.442100" lon="-5.307400">
        <ele>1676.0</ele>
        <time>2018-07-14T12:10:43Z</time>
      </trkpt>
      <trkpt lat="40.442150" lon="-5.307433">
        <ele>1676.0</ele>
        <time>2018-07-14T12:10:44Z</time>
      </trkpt>
      <trkpt lat="40.442200" lon="-5.307450">
        <ele>1677.0</ele>
        <time>2018-07-14T12:10:45Z</time>
      </trkpt>
      <trkpt lat="40.442250" lon="-5.307483">
        <ele>1677.0</ele>
        <time>2018-07-14T12:10:46Z</time>
      </trkpt>
      <trkpt lat="40.442283" lon="-5.307533">
        <ele>1678.0</ele>
        <time>2018-07-14T12:10:47Z</time>
      </trkpt>
      <trkpt lat="40.442333" lon="-5.307567">
        <ele>1678.0</ele>
        <time>2018-07-14T12:10:48Z</time>
      </trkpt>
      <trkpt lat="40.442383" lon="-5.307617">
        <ele>1678.0</ele>
        <time>2018-07-14T12:10:49Z</time>
      </trkpt>
      <trkpt lat="40.442417" lon="-5.307667">
        <ele>1678.0</ele>
        <time>2018-07-14T12:10:50Z</time>
      </trkpt>
      <trkpt lat="40.442483" lon="-5.307717">
        <ele>1678.0</ele>
        <time>2018-07-14T12:10:51Z</time>
      </trkpt>
      <trkpt lat="40.442533" lon="-5.307767">
        <ele>1678.0</ele>
        <time>2018-07-14T12:10:52Z</time>
      </trkpt>
      <trkpt lat="40.442567" lon="-5.307800">
        <ele>1678.0</ele>
        <time>2018-07-14T12:10:53Z</time>
      </trkpt>
      <trkpt lat="40.442617" lon="-5.307850">
        <ele>1679.0</ele>
        <time>2018-07-14T12:10:54Z</time>
      </trkpt>
      <trkpt lat="40.442650" lon="-5.307883">
        <ele>1679.0</ele>
        <time>2018-07-14T12:10:55Z</time>
      </trkpt>
      <trkpt lat="40.442683" lon="-5.307917">
        <ele>1679.0</ele>
        <time>2018-07-14T12:10:56Z</time>
      </trkpt>
      <trkpt lat="40.442733" lon="-5.307933">
        <ele>1680.0</ele>
        <time>2018-07-14T12:10:57Z</time>
      </trkpt>
      <trkpt lat="40.442783" lon="-5.307967">
        <ele>1679.0</ele>
        <time>2018-07-14T12:10:58Z</time>
      </trkpt>
      <trkpt lat="40.442833" lon="-5.307967">
        <ele>1679.0</ele>
        <time>2018-07-14T12:10:59Z</time>
      </trkpt>
      <trkpt lat="40.442900" lon="-5.307967">
        <ele>1680.0</ele>
        <time>2018-07-14T12:11:00Z</time>
      </trkpt>
      <trkpt lat="40.442950" lon="-5.307933">
        <ele>1681.0</ele>
        <time>2018-07-14T12:11:01Z</time>
      </trkpt>
      <trkpt lat="40.442983" lon="-5.307917">
        <ele>1682.0</ele>
        <time>2018-07-14T12:11:02Z</time>
      </trkpt>
      <trkpt lat="40.443033" lon="-5.307883">
        <ele>1682.0</ele>
        <time>2018-07-14T12:11:03Z</time>
      </trkpt>
      <trkpt lat="40.443083" lon="-5.307850">
        <ele>1682.0</ele>
        <time>2018-07-14T12:11:04Z</time>
      </trkpt>
      <trkpt lat="40.443150" lon="-5.307817">
        <ele>1682.0</ele>
        <time>2018-07-14T12:11:05Z</time>
      </trkpt>
      <trkpt lat="40.443217" lon="-5.307783">
        <ele>1681.0</ele>
        <time>2018-07-14T12:11:06Z</time>
      </trkpt>
      <trkpt lat="40.443283" lon="-5.307750">
        <ele>1681.0</ele>
        <time>2018-07-14T12:11:07Z</time>
      </trkpt>
      <trkpt lat="40.443333" lon="-5.307700">
        <ele>1682.0</ele>
        <time>2018-07-14T12:11:08Z</time>
      </trkpt>
      <trkpt lat="40.443400" lon="-5.307650">
        <ele>1683.0</ele>
        <time>2018-07-14T12:11:06Z</time>
      </trkpt>
      <trkpt lat="40.443450" lon="-5.307600">
        <ele>1683.0</ele>
        <time>2018-07-14T12:11:07Z</time>
      </trkpt>
      <trkpt lat="40.443500" lon="-5.307517">
        <ele>1684.0</ele>
        <time>2018-07-14T12:11:08Z</time>
      </trkpt>
      <trkpt lat="40.443550" lon="-5.307450">
        <ele>1685.0</ele>
        <time>2018-07-14T12:11:09Z</time>
      </trkpt>
      <trkpt lat="40.443600" lon="-5.307400">
        <ele>1687.0</ele>
        <time>2018-07-14T12:11:10Z</time>
      </trkpt>
      <trkpt lat="40.443683" lon="-5.307283">
        <ele>1690.0</ele>
        <time>2018-07-14T12:11:12Z</time>
      </trkpt>
      <trkpt lat="40.443717" lon="-5.307233">
        <ele>1692.0</ele>
        <time>2018-07-14T12:11:13Z</time>
      </trkpt>
      <trkpt lat="40.443750" lon="-5.307183">
        <ele>1694.0</ele>
        <time>2018-07-14T12:11:14Z</time>
      </trkpt>
      <trkpt lat="40.443783" lon="-5.307133">
        <ele>1696.0</ele>
        <time>2018-07-14T12:11:15Z</time>
      </trkpt>
      <trkpt lat="40.443817" lon="-5.307117">
        <ele>1697.0</ele>
        <time>2018-07-14T12:11:16Z</time>
      </trkpt>
      <trkpt lat="40.443867" lon="-5.307100">
        <ele>1696.0</ele>
        <time>2018-07-14T12:11:17Z</time>
      </trkpt>
      <trkpt lat="40.443917" lon="-5.307100">
        <ele>1696.0</ele>
        <time>2018-07-14T12:11:18Z</time>
      </trkpt>
      <trkpt lat="40.443950" lon="-5.307133">
        <ele>1696.0</ele>
        <time>2018-07-14T12:11:19Z</time>
      </trkpt>
      <trkpt lat="40.443967" lon="-5.307183">
        <ele>1697.0</ele>
        <time>2018-07-14T12:11:20Z</time>
      </trkpt>
      <trkpt lat="40.443933" lon="-5.307267">
        <ele>1697.0</ele>
        <time>2018-07-14T12:11:21Z</time>
      </trkpt>
      <trkpt lat="40.443800" lon="-5.307433">
        <ele>1698.0</ele>
        <time>2018-07-14T12:11:23Z</time>
      </trkpt>
      <trkpt lat="40.443683" lon="-5.307467">
        <ele>1698.0</ele>
        <time>2018-07-14T12:11:24Z</time>
      </trkpt>
      <trkpt lat="40.443550" lon="-5.307467">
        <ele>1699.0</ele>
        <time>2018-07-14T12:11:25Z</time>
      </trkpt>
      <trkpt lat="40.443433" lon="-5.307400">
        <ele>1700.0</ele>
        <time>2018-07-14T12:11:26Z</time>
      </trkpt>
      <trkpt lat="40.443317" lon="-5.307300">
        <ele>1701.0</ele>
        <time>2018-07-14T12:11:27Z</time>
      </trkpt>
      <trkpt lat="40.443233" lon="-5.307167">
        <ele>1704.0</ele>
        <time>2018-07-14T12:11:28Z</time>
      </trkpt>
      <trkpt lat="40.443167" lon="-5.306750">
        <ele>1709.0</ele>
        <time>2018-07-14T12:11:31Z</time>
      </trkpt>
      <trkpt lat="40.443200" lon="-5.306633">
        <ele>1711.0</ele>
        <time>2018-07-14T12:11:32Z</time>
      </trkpt>
      <trkpt lat="40.443233" lon="-5.306583">
        <ele>1712.0</ele>
        <time>2018-07-14T12:11:33Z</time>
      </trkpt>
      <trkpt lat="40.443283" lon="-5.306550">
        <ele>1712.0</ele>
        <time>2018-07-14T12:11:34Z</time>
      </trkpt>
      <trkpt lat="40.443317" lon="-5.306583">
        <ele>1712.0</ele>
        <time>2018-07-14T12:11:35Z</time>
      </trkpt>
      <trkpt lat="40.443317" lon="-5.306633">
        <ele>1711.0</ele>
        <time>2018-07-14T12:11:36Z</time>
      </trkpt>
      <trkpt lat="40.443300" lon="-5.306717">
        <ele>1709.0</ele>
        <time>2018-07-14T12:11:37Z</time>
      </trkpt>
      <trkpt lat="40.443267" lon="-5.306800">
        <ele>1707.0</ele>
        <time>2018-07-14T12:11:38Z</time>
      </trkpt>
      <trkpt lat="40.443183" lon="-5.306900">
        <ele>1706.0</ele>
        <time>2018-07-14T12:11:39Z</time>
      </trkpt>
      <trkpt lat="40.443083" lon="-5.306967">
        <ele>1706.0</ele>
        <time>2018-07-14T12:11:40Z</time>
      </trkpt>
      <trkpt lat="40.442950" lon="-5.307000">
        <ele>1706.0</ele>
        <time>2018-07-14T12:11:41Z</time>
      </trkpt>
      <trkpt lat="40.442833" lon="-5.306983">
        <ele>1710.0</ele>
        <time>2018-07-14T12:11:42Z</time>
      </trkpt>
      <trkpt lat="40.442717" lon="-5.306933">
        <ele>1713.0</ele>
        <time>2018-07-14T12:11:43Z</time>
      </trkpt>
      <trkpt lat="40.442617" lon="-5.306867">
        <ele>1716.0</ele>
        <time>2018-07-14T12:11:44Z</time>
      </trkpt>
      <trkpt lat="40.442517" lon="-5.306783">
        <ele>1718.0</ele>
        <time>2018-07-14T12:11:45Z</time>
      </trkpt>
      <trkpt lat="40.442433" lon="-5.306667">
        <ele>1719.0</ele>
        <time>2018-07-14T12:11:46Z</time>
      </trkpt>
      <trkpt lat="40.442383" lon="-5.306517">
        <ele>1720.0</ele>
        <time>2018-07-14T12:11:47Z</time>
      </trkpt>
      <trkpt lat="40.442350" lon="-5.306367">
        <ele>1721.0</ele>
        <time>2018-07-14T12:11:48Z</time>
      </trkpt>
      <trkpt lat="40.442350" lon="-5.306233">
        <ele>1722.0</ele>
        <time>2018-07-14T12:11:49Z</time>
      </trkpt>
      <trkpt lat="40.442383" lon="-5.306117">
        <ele>1723.0</ele>
        <time>2018-07-14T12:11:50Z</time>
      </trkpt>
      <trkpt lat="40.442433" lon="-5.306067">
        <ele>1724.0</ele>
        <time>2018-07-14T12:11:51Z</time>
      </trkpt>
      <trkpt lat="40.442483" lon="-5.306067">
        <ele>1724.0</ele>
        <time>2018-07-14T12:11:52Z</time>
      </trkpt>
      <trkpt lat="40.442567" lon="-5.306033">
        <ele>1724.0</ele>
        <time>2018-07-14T12:11:54Z</time>
      </trkpt>
      <trkpt lat="40.442583" lon="-5.305967">
        <ele>1724.0</ele>
        <time>2018-07-14T12:11:55Z</time>
      </trkpt>
      <trkpt lat="40.442617" lon="-5.305883">
        <ele>1724.0</ele>
        <time>2018-07-14T12:11:56Z</time>
      </trkpt>
      <trkpt lat="40.442617" lon="-5.305783">
        <ele>1724.0</ele>
        <time>2018-07-14T12:11:57Z</time>
      </trkpt>
      <trkpt lat="40.442617" lon="-5.305667">
        <ele>1723.0</ele>
        <time>2018-07-14T12:11:58Z</time>
      </trkpt>
      <trkpt lat="40.442583" lon="-5.305533">
        <ele>1722.0</ele>
        <time>2018-07-14T12:11:59Z</time>
      </trkpt>
      <trkpt lat="40.442417" lon="-5.305250">
        <ele>1717.0</ele>
        <time>2018-07-14T12:12:01Z</time>
      </trkpt>
      <trkpt lat="40.442300" lon="-5.305133">
        <ele>1716.0</ele>
        <time>2018-07-14T12:12:02Z</time>
      </trkpt>
      <trkpt lat="40.442183" lon="-5.305083">
        <ele>1715.0</ele>
        <time>2018-07-14T12:12:03Z</time>
      </trkpt>
      <trkpt lat="40.442050" lon="-5.305067">
        <ele>1715.0</ele>
        <time>2018-07-14T12:12:04Z</time>
      </trkpt>
      <trkpt lat="40.441933" lon="-5.305083">
        <ele>1716.0</ele>
        <time>2018-07-14T12:12:05Z</time>
      </trkpt>
      <trkpt lat="40.441850" lon="-5.305083">
        <ele>1719.0</ele>
        <time>2018-07-14T12:12:06Z</time>
      </trkpt>
      <trkpt lat="40.441767" lon="-5.305100">
        <ele>1721.0</ele>
        <time>2018-07-14T12:12:07Z</time>
      </trkpt>
      <trkpt lat="40.441700" lon="-5.305100">
        <ele>1721.0</ele>
        <time>2018-07-14T12:12:08Z</time>
      </trkpt>
      <trkpt lat="40.441617" lon="-5.305117">
        <ele>1720.0</ele>
        <time>2018-07-14T12:12:09Z</time>
      </trkpt>
      <trkpt lat="40.441567" lon="-5.305167">
        <ele>1720.0</ele>
        <time>2018-07-14T12:12:10Z</time>
      </trkpt>
      <trkpt lat="40.441533" lon="-5.305233">
        <ele>1720.0</ele>
        <time>2018-07-14T12:12:11Z</time>
      </trkpt>
      <trkpt lat="40.441533" lon="-5.305300">
        <ele>1720.0</ele>
        <time>2018-07-14T12:12:12Z</time>
      </trkpt>
      <trkpt lat="40.441567" lon="-5.305333">
        <ele>1720.0</ele>
        <time>2018-07-14T12:12:13Z</time>
      </trkpt>
      <trkpt lat="40.441600" lon="-5.305333">
        <ele>1721.0</ele>
        <time>2018-07-14T12:12:14Z</time>
      </trkpt>
      <trkpt lat="40.441650" lon="-5.305283">
        <ele>1721.0</ele>
        <time>2018-07-14T12:12:15Z</time>
      </trkpt>
      <trkpt lat="40.441683" lon="-5.305183">
        <ele>1722.0</ele>
        <time>2018-07-14T12:12:16Z</time>
      </trkpt>
      <trkpt lat="40.441717" lon="-5.305100">
        <ele>1722.0</ele>
        <time>2018-07-14T12:12:17Z</time>
      </trkpt>
      <trkpt lat="40.441767" lon="-5.304933">
        <ele>1722.0</ele>
        <time>2018-07-14T12:12:19Z</time>
      </trkpt>
      <trkpt lat="40.441783" lon="-5.304817">
        <ele>1722.0</ele>
        <time>2018-07-14T12:12:20Z</time>
      </trkpt>
      <trkpt lat="40.441767" lon="-5.304683">
        <ele>1722.0</ele>
        <time>2018-07-14T12:12:21Z</time>
      </trkpt>
      <trkpt lat="40.441733" lon="-5.304517">
        <ele>1721.0</ele>
        <time>2018-07-14T12:12:22Z</time>
      </trkpt>
      <trkpt lat="40.441667" lon="-5.304367">
        <ele>1720.0</ele>
        <time>2018-07-14T12:12:23Z</time>
      </trkpt>
      <trkpt lat="40.441583" lon="-5.304217">
        <ele>1721.0</ele>
        <time>2018-07-14T12:12:24Z</time>
      </trkpt>
      <trkpt lat="40.441483" lon="-5.304117">
        <ele>1722.0</ele>
        <time>2018-07-14T12:12:25Z</time>
      </trkpt>
      <trkpt lat="40.441383" lon="-5.304033">
        <ele>1722.0</ele>
        <time>2018-07-14T12:12:26Z</time>
      </trkpt>
      <trkpt lat="40.441250" lon="-5.304000">
        <ele>1722.0</ele>
        <time>2018-07-14T12:12:27Z</time>
      </trkpt>
      <trkpt lat="40.441133" lon="-5.303983">
        <ele>1722.0</ele>
        <time>2018-07-14T12:12:28Z</time>
      </trkpt>
      <trkpt lat="40.441033" lon="-5.304017">
        <ele>1723.0</ele>
        <time>2018-07-14T12:12:29Z</time>
      </trkpt>
      <trkpt lat="40.440967" lon="-5.304050">
        <ele>1723.0</ele>
        <time>2018-07-14T12:12:30Z</time>
      </trkpt>
      <trkpt lat="40.440917" lon="-5.304100">
        <ele>1723.0</ele>
        <time>2018-07-14T12:12:31Z</time>
      </trkpt>
      <trkpt lat="40.440883" lon="-5.304150">
        <ele>1723.0</ele>
        <time>2018-07-14T12:12:32Z</time>
      </trkpt>
      <trkpt lat="40.440867" lon="-5.304200">
        <ele>1723.0</ele>
        <time>2018-07-14T12:12:33Z</time>
      </trkpt>
      <trkpt lat="40.440833" lon="-5.304250">
        <ele>1723.0</ele>
        <time>2018-07-14T12:12:34Z</time>
      </trkpt>
      <trkpt lat="40.440817" lon="-5.304300">
        <ele>1723.0</ele>
        <time>2018-07-14T12:12:35Z</time>
      </trkpt>
      <trkpt lat="40.440800" lon="-5.304350">
        <ele>1723.0</ele>
        <time>2018-07-14T12:12:36Z</time>
      </trkpt>
      <trkpt lat="40.440800" lon="-5.304400">
        <ele>1723.0</ele>
        <time>2018-07-14T12:12:37Z</time>
      </trkpt>
      <trkpt lat="40.440867" lon="-5.304517">
        <ele>1727.0</ele>
        <time>2018-07-14T12:12:40Z</time>
      </trkpt>
      <trkpt lat="40.440900" lon="-5.304500">
        <ele>1731.0</ele>
        <time>2018-07-14T12:12:41Z</time>
      </trkpt>
      <trkpt lat="40.440950" lon="-5.304450">
        <ele>1734.0</ele>
        <time>2018-07-14T12:12:42Z</time>
      </trkpt>
      <trkpt lat="40.440983" lon="-5.304383">
        <ele>1735.0</ele>
        <time>2018-07-14T12:12:43Z</time>
      </trkpt>
      <trkpt lat="40.441017" lon="-5.304300">
        <ele>1737.0</ele>
        <time>2018-07-14T12:12:44Z</time>
      </trkpt>
      <trkpt lat="40.441033" lon="-5.304183">
        <ele>1738.0</ele>
        <time>2018-07-14T12:12:45Z</time>
      </trkpt>
      <trkpt lat="40.441067" lon="-5.304050">
        <ele>1738.0</ele>
        <time>2018-07-14T12:12:46Z</time>
      </trkpt>
      <trkpt lat="40.441083" lon="-5.303900">
        <ele>1739.0</ele>
        <time>2018-07-14T12:12:47Z</time>
      </trkpt>
      <trkpt lat="40.441067" lon="-5.303750">
        <ele>1740.0</ele>
        <time>2018-07-14T12:12:48Z</time>
      </trkpt>
      <trkpt lat="40.441050" lon="-5.303600">
        <ele>1742.0</ele>
        <time>2018-07-14T12:12:49Z</time>
      </trkpt>
      <trkpt lat="40.441000" lon="-5.303450">
        <ele>1743.0</ele>
        <time>2018-07-14T12:12:50Z</time>
      </trkpt>
      <trkpt lat="40.440917" lon="-5.303317">
        <ele>1743.0</ele>
        <time>2018-07-14T12:12:51Z</time>
      </trkpt>
      <trkpt lat="40.440833" lon="-5.303183">
        <ele>1744.0</ele>
        <time>2018-07-14T12:12:52Z</time>
      </trkpt>
      <trkpt lat="40.440717" lon="-5.303083">
        <ele>1744.0</ele>
        <time>2018-07-14T12:12:53Z</time>
      </trkpt>
      <trkpt lat="40.440600" lon="-5.303033">
        <ele>1745.0</ele>
        <time>2018-07-14T12:12:54Z</time>
      </trkpt>
      <trkpt lat="40.440500" lon="-5.303033">
        <ele>1745.0</ele>
        <time>2018-07-14T12:12:55Z</time>
      </trkpt>
      <trkpt lat="40.440400" lon="-5.303050">
        <ele>1745.0</ele>
        <time>2018-07-14T12:12:56Z</time>
      </trkpt>
      <trkpt lat="40.440333" lon="-5.303083">
        <ele>1746.0</ele>
        <time>2018-07-14T12:12:57Z</time>
      </trkpt>
      <trkpt lat="40.440267" lon="-5.303133">
        <ele>1747.0</ele>
        <time>2018-07-14T12:12:58Z</time>
      </trkpt>
      <trkpt lat="40.440233" lon="-5.303167">
        <ele>1748.0</ele>
        <time>2018-07-14T12:12:59Z</time>
      </trkpt>
      <trkpt lat="40.440200" lon="-5.303233">
        <ele>1746.0</ele>
        <time>2018-07-14T12:13:00Z</time>
      </trkpt>
      <trkpt lat="40.440167" lon="-5.303283">
        <ele>1746.0</ele>
        <time>2018-07-14T12:13:01Z</time>
      </trkpt>
      <trkpt lat="40.440167" lon="-5.303333">
        <ele>1746.0</ele>
        <time>2018-07-14T12:13:02Z</time>
      </trkpt>
      <trkpt lat="40.440167" lon="-5.303383">
        <ele>1746.0</ele>
        <time>2018-07-14T12:13:03Z</time>
      </trkpt>
      <trkpt lat="40.440183" lon="-5.303450">
        <ele>1747.0</ele>
        <time>2018-07-14T12:13:04Z</time>
      </trkpt>
      <trkpt lat="40.440200" lon="-5.303483">
        <ele>1747.0</ele>
        <time>2018-07-14T12:13:05Z</time>
      </trkpt>
      <trkpt lat="40.440217" lon="-5.303517">
        <ele>1749.0</ele>
        <time>2018-07-14T12:13:06Z</time>
      </trkpt>
      <trkpt lat="40.440267" lon="-5.303533">
        <ele>1750.0</ele>
        <time>2018-07-14T12:13:07Z</time>
      </trkpt>
      <trkpt lat="40.440300" lon="-5.303517">
        <ele>1752.0</ele>
        <time>2018-07-14T12:13:08Z</time>
      </trkpt>
      <trkpt lat="40.440333" lon="-5.303500">
        <ele>1753.0</ele>
        <time>2018-07-14T12:13:09Z</time>
      </trkpt>
      <trkpt lat="40.440383" lon="-5.303467">
        <ele>1755.0</ele>
        <time>2018-07-14T12:13:10Z</time>
      </trkpt>
      <trkpt lat="40.440433" lon="-5.303400">
        <ele>1756.0</ele>
        <time>2018-07-14T12:13:11Z</time>
      </trkpt>
      <trkpt lat="40.440483" lon="-5.303333">
        <ele>1756.0</ele>
        <time>2018-07-14T12:13:12Z</time>
      </trkpt>
      <trkpt lat="40.440533" lon="-5.303233">
        <ele>1758.0</ele>
        <time>2018-07-14T12:13:13Z</time>
      </trkpt>
      <trkpt lat="40.440567" lon="-5.303117">
        <ele>1759.0</ele>
        <time>2018-07-14T12:13:14Z</time>
      </trkpt>
      <trkpt lat="40.440567" lon="-5.303000">
        <ele>1759.0</ele>
        <time>2018-07-14T12:13:15Z</time>
      </trkpt>
      <trkpt lat="40.440550" lon="-5.302850">
        <ele>1757.0</ele>
        <time>2018-07-14T12:13:16Z</time>
      </trkpt>
      <trkpt lat="40.440500" lon="-5.302700">
        <ele>1755.0</ele>
        <time>2018-07-14T12:13:17Z</time>
      </trkpt>
      <trkpt lat="40.440450" lon="-5.302567">
        <ele>1755.0</ele>
        <time>2018-07-14T12:13:18Z</time>
      </trkpt>
      <trkpt lat="40.440367" lon="-5.302450">
        <ele>1754.0</ele>
        <time>2018-07-14T12:13:19Z</time>
      </trkpt>
      <trkpt lat="40.440250" lon="-5.302367">
        <ele>1754.0</ele>
        <time>2018-07-14T12:13:20Z</time>
      </trkpt>
      <trkpt lat="40.440150" lon="-5.302333">
        <ele>1754.0</ele>
        <time>2018-07-14T12:13:21Z</time>
      </trkpt>
      <trkpt lat="40.440050" lon="-5.302333">
        <ele>1753.0</ele>
        <time>2018-07-14T12:13:22Z</time>
      </trkpt>
      <trkpt lat="40.439967" lon="-5.302367">
        <ele>1752.0</ele>
        <time>2018-07-14T12:13:23Z</time>
      </trkpt>
      <trkpt lat="40.439900" lon="-5.302450">
        <ele>1752.0</ele>
        <time>2018-07-14T12:13:24Z</time>
      </trkpt>
      <trkpt lat="40.439850" lon="-5.302483">
        <ele>1754.0</ele>
        <time>2018-07-14T12:13:25Z</time>
      </trkpt>
      <trkpt lat="40.439817" lon="-5.302550">
        <ele>1754.0</ele>
        <time>2018-07-14T12:13:26Z</time>
      </trkpt>
      <trkpt lat="40.439783" lon="-5.302617">
        <ele>1754.0</ele>
        <time>2018-07-14T12:13:27Z</time>
      </trkpt>
      <trkpt lat="40.439750" lon="-5.302683">
        <ele>1754.0</ele>
        <time>2018-07-14T12:13:28Z</time>
      </trkpt>
      <trkpt lat="40.439733" lon="-5.302750">
        <ele>1754.0</ele>
        <time>2018-07-14T12:13:29Z</time>
      </trkpt>
      <trkpt lat="40.439733" lon="-5.302817">
        <ele>1754.0</ele>
        <time>2018-07-14T12:13:30Z</time>
      </trkpt>
      <trkpt lat="40.439733" lon="-5.302883">
        <ele>1755.0</ele>
        <time>2018-07-14T12:13:31Z</time>
      </trkpt>
      <trkpt lat="40.439750" lon="-5.303000">
        <ele>1755.0</ele>
        <time>2018-07-14T12:13:33Z</time>
      </trkpt>
      <trkpt lat="40.439750" lon="-5.303067">
        <ele>1755.0</ele>
        <time>2018-07-14T12:13:34Z</time>
      </trkpt>
      <trkpt lat="40.439750" lon="-5.303133">
        <ele>1755.0</ele>
        <time>2018-07-14T12:13:35Z</time>
      </trkpt>
      <trkpt lat="40.439750" lon="-5.303217">
        <ele>1755.0</ele>
        <time>2018-07-14T12:13:36Z</time>
      </trkpt>
      <trkpt lat="40.439767" lon="-5.303283">
        <ele>1755.0</ele>
        <time>2018-07-14T12:13:37Z</time>
      </trkpt>
      <trkpt lat="40.439783" lon="-5.303333">
        <ele>1755.0</ele>
        <time>2018-07-14T12:13:38Z</time>
      </trkpt>
      <trkpt lat="40.439800" lon="-5.303367">
        <ele>1756.0</ele>
        <time>2018-07-14T12:13:39Z</time>
      </trkpt>
      <trkpt lat="40.439817" lon="-5.303400">
        <ele>1756.0</ele>
        <time>2018-07-14T12:13:40Z</time>
      </trkpt>
      <trkpt lat="40.439833" lon="-5.303467">
        <ele>1756.0</ele>
        <time>2018-07-14T12:13:41Z</time>
      </trkpt>
      <trkpt lat="40.439833" lon="-5.303533">
        <ele>1756.0</ele>
        <time>2018-07-14T12:13:42Z</time>
      </trkpt>
      <trkpt lat="40.439833" lon="-5.303617">
        <ele>1756.0</ele>
        <time>2018-07-14T12:13:43Z</time>
      </trkpt>
      <trkpt lat="40.439850" lon="-5.303700">
        <ele>1756.0</ele>
        <time>2018-07-14T12:13:44Z</time>
      </trkpt>
      <trkpt lat="40.439883" lon="-5.303783">
        <ele>1756.0</ele>
        <time>2018-07-14T12:13:45Z</time>
      </trkpt>
      <trkpt lat="40.439917" lon="-5.303833">
        <ele>1756.0</ele>
        <time>2018-07-14T12:13:46Z</time>
      </trkpt>
      <trkpt lat="40.439933" lon="-5.303883">
        <ele>1756.0</ele>
        <time>2018-07-14T12:13:47Z</time>
      </trkpt>
      <trkpt lat="40.439950" lon="-5.303917">
        <ele>1757.0</ele>
        <time>2018-07-14T12:13:48Z</time>
      </trkpt>
      <trkpt lat="40.439967" lon="-5.303967">
        <ele>1757.0</ele>
        <time>2018-07-14T12:13:49Z</time>
      </trkpt>
      <trkpt lat="40.439983" lon="-5.304033">
        <ele>1757.0</ele>
        <time>2018-07-14T12:13:50Z</time>
      </trkpt>
      <trkpt lat="40.440000" lon="-5.304100">
        <ele>1758.0</ele>
        <time>2018-07-14T12:13:51Z</time>
      </trkpt>
      <trkpt lat="40.440017" lon="-5.304150">
        <ele>1758.0</ele>
        <time>2018-07-14T12:13:52Z</time>
      </trkpt>
      <trkpt lat="40.440033" lon="-5.304217">
        <ele>1758.0</ele>
        <time>2018-07-14T12:13:53Z</time>
      </trkpt>
      <trkpt lat="40.440033" lon="-5.304267">
        <ele>1758.0</ele>
        <time>2018-07-14T12:13:54Z</time>
      </trkpt>
      <trkpt lat="40.440067" lon="-5.304317">
        <ele>1758.0</ele>
        <time>2018-07-14T12:13:55Z</time>
      </trkpt>
      <trkpt lat="40.440083" lon="-5.304367">
        <ele>1759.0</ele>
        <time>2018-07-14T12:13:56Z</time>
      </trkpt>
      <trkpt lat="40.440100" lon="-5.304417">
        <ele>1759.0</ele>
        <time>2018-07-14T12:13:57Z</time>
      </trkpt>
      <trkpt lat="40.440133" lon="-5.304483">
        <ele>1759.0</ele>
        <time>2018-07-14T12:13:58Z</time>
      </trkpt>
      <trkpt lat="40.440167" lon="-5.304550">
        <ele>1759.0</ele>
        <time>2018-07-14T12:13:59Z</time>
      </trkpt>
      <trkpt lat="40.440200" lon="-5.304600">
        <ele>1760.0</ele>
        <time>2018-07-14T12:14:00Z</time>
      </trkpt>
      <trkpt lat="40.440217" lon="-5.304667">
        <ele>1760.0</ele>
        <time>2018-07-14T12:14:01Z</time>
      </trkpt>
      <trkpt lat="40.440250" lon="-5.304717">
        <ele>1760.0</ele>
        <time>2018-07-14T12:14:02Z</time>
      </trkpt>
      <trkpt lat="40.440283" lon="-5.304783">
        <ele>1760.0</ele>
        <time>2018-07-14T12:14:03Z</time>
      </trkpt>
      <trkpt lat="40.440317" lon="-5.304833">
        <ele>1760.0</ele>
        <time>2018-07-14T12:14:04Z</time>
      </trkpt>
      <trkpt lat="40.440383" lon="-5.304900">
        <ele>1760.0</ele>
        <time>2018-07-14T12:14:05Z</time>
      </trkpt>
      <trkpt lat="40.440450" lon="-5.304933">
        <ele>1760.0</ele>
        <time>2018-07-14T12:14:06Z</time>
      </trkpt>
      <trkpt lat="40.440500" lon="-5.304967">
        <ele>1760.0</ele>
        <time>2018-07-14T12:14:07Z</time>
      </trkpt>
      <trkpt lat="40.440633" lon="-5.304917">
        <ele>1758.0</ele>
        <time>2018-07-14T12:14:09Z</time>
      </trkpt>
      <trkpt lat="40.440717" lon="-5.304883">
        <ele>1758.0</ele>
        <time>2018-07-14T12:14:10Z</time>
      </trkpt>
      <trkpt lat="40.440783" lon="-5.304833">
        <ele>1757.0</ele>
        <time>2018-07-14T12:14:11Z</time>
      </trkpt>
      <trkpt lat="40.440850" lon="-5.304800">
        <ele>1757.0</ele>
        <time>2018-07-14T12:14:12Z</time>
      </trkpt>
      <trkpt lat="40.440900" lon="-5.304767">
        <ele>1757.0</ele>
        <time>2018-07-14T12:14:13Z</time>
      </trkpt>
      <trkpt lat="40.440950" lon="-5.304733">
        <ele>1757.0</ele>
        <time>2018-07-14T12:14:14Z</time>
      </trkpt>
      <trkpt lat="40.441000" lon="-5.304700">
        <ele>1756.0</ele>
        <time>2018-07-14T12:14:15Z</time>
      </trkpt>
      <trkpt lat="40.441067" lon="-5.304667">
        <ele>1755.0</ele>
        <time>2018-07-14T12:14:16Z</time>
      </trkpt>
      <trkpt lat="40.441150" lon="-5.304633">
        <ele>1754.0</ele>
        <time>2018-07-14T12:14:17Z</time>
      </trkpt>
      <trkpt lat="40.441233" lon="-5.304583">
        <ele>1752.0</ele>
        <time>2018-07-14T12:14:18Z</time>
      </trkpt>
      <trkpt lat="40.441317" lon="-5.304567">
        <ele>1751.0</ele>
        <time>2018-07-14T12:14:19Z</time>
      </trkpt>
      <trkpt lat="40.441383" lon="-5.304550">
        <ele>1752.0</ele>
        <time>2018-07-14T12:14:20Z</time>
      </trkpt>
      <trkpt lat="40.441433" lon="-5.304550">
        <ele>1752.0</ele>
        <time>2018-07-14T12:14:21Z</time>
      </trkpt>
      <trkpt lat="40.441483" lon="-5.304533">
        <ele>1752.0</ele>
        <time>2018-07-14T12:14:22Z</time>
      </trkpt>
      <trkpt lat="40.441517" lon="-5.304500">
        <ele>1752.0</ele>
        <time>2018-07-14T12:14:23Z</time>
      </trkpt>
      <trkpt lat="40.441567" lon="-5.304467">
        <ele>1751.0</ele>
        <time>2018-07-14T12:14:24Z</time>
      </trkpt>
      <trkpt lat="40.441633" lon="-5.304417">
        <ele>1750.0</ele>
        <time>2018-07-14T12:14:25Z</time>
      </trkpt>
      <trkpt lat="40.441717" lon="-5.304367">
        <ele>1748.0</ele>
        <time>2018-07-14T12:14:26Z</time>
      </trkpt>
      <trkpt lat="40.441783" lon="-5.304317">
        <ele>1747.0</ele>
        <time>2018-07-14T12:14:27Z</time>
      </trkpt>
      <trkpt lat="40.441850" lon="-5.304267">
        <ele>1745.0</ele>
        <time>2018-07-14T12:14:28Z</time>
      </trkpt>
      <trkpt lat="40.441917" lon="-5.304217">
        <ele>1744.0</ele>
        <time>2018-07-14T12:14:29Z</time>
      </trkpt>
      <trkpt lat="40.442000" lon="-5.304183">
        <ele>1743.0</ele>
        <time>2018-07-14T12:14:30Z</time>
      </trkpt>
      <trkpt lat="40.442067" lon="-5.304150">
        <ele>1741.0</ele>
        <time>2018-07-14T12:14:31Z</time>
      </trkpt>
      <trkpt lat="40.442133" lon="-5.304100">
        <ele>1741.0</ele>
        <time>2018-07-14T12:14:32Z</time>
      </trkpt>
      <trkpt lat="40.442183" lon="-5.304067">
        <ele>1741.0</ele>
        <time>2018-07-14T12:14:33Z</time>
      </trkpt>
      <trkpt lat="40.442250" lon="-5.304017">
        <ele>1740.0</ele>
        <time>2018-07-14T12:14:34Z</time>
      </trkpt>
      <trkpt lat="40.442300" lon="-5.303967">
        <ele>1738.0</ele>
        <time>2018-07-14T12:14:35Z</time>
      </trkpt>
      <trkpt lat="40.442367" lon="-5.303900">
        <ele>1737.0</ele>
        <time>2018-07-14T12:14:36Z</time>
      </trkpt>
      <trkpt lat="40.442417" lon="-5.303850">
        <ele>1736.0</ele>
        <time>2018-07-14T12:14:37Z</time>
      </trkpt>
      <trkpt lat="40.442483" lon="-5.303783">
        <ele>1735.0</ele>
        <time>2018-07-14T12:14:38Z</time>
      </trkpt>
      <trkpt lat="40.442533" lon="-5.303717">
        <ele>1734.0</ele>
        <time>2018-07-14T12:14:39Z</time>
      </trkpt>
      <trkpt lat="40.442600" lon="-5.303667">
        <ele>1733.0</ele>
        <time>2018-07-14T12:14:40Z</time>
      </trkpt>
      <trkpt lat="40.442650" lon="-5.303617">
        <ele>1732.0</ele>
        <time>2018-07-14T12:14:41Z</time>
      </trkpt>
      <trkpt lat="40.442733" lon="-5.303550">
        <ele>1731.0</ele>
        <time>2018-07-14T12:14:42Z</time>
      </trkpt>
      <trkpt lat="40.442800" lon="-5.303500">
        <ele>1730.0</ele>
        <time>2018-07-14T12:14:43Z</time>
      </trkpt>
      <trkpt lat="40.442850" lon="-5.303450">
        <ele>1729.0</ele>
        <time>2018-07-14T12:14:44Z</time>
      </trkpt>
      <trkpt lat="40.442917" lon="-5.303383">
        <ele>1728.0</ele>
        <time>2018-07-14T12:14:45Z</time>
      </trkpt>
      <trkpt lat="40.442983" lon="-5.303333">
        <ele>1727.0</ele>
        <time>2018-07-14T12:14:46Z</time>
      </trkpt>
      <trkpt lat="40.443050" lon="-5.303283">
        <ele>1726.0</ele>
        <time>2018-07-14T12:14:47Z</time>
      </trkpt>
      <trkpt lat="40.443117" lon="-5.303233">
        <ele>1724.0</ele>
        <time>2018-07-14T12:14:48Z</time>
      </trkpt>
      <trkpt lat="40.443183" lon="-5.303167">
        <ele>1723.0</ele>
        <time>2018-07-14T12:14:49Z</time>
      </trkpt>
      <trkpt lat="40.443233" lon="-5.303083">
        <ele>1722.0</ele>
        <time>2018-07-14T12:14:50Z</time>
      </trkpt>
      <trkpt lat="40.443300" lon="-5.303017">
        <ele>1721.0</ele>
        <time>2018-07-14T12:14:51Z</time>
      </trkpt>
      <trkpt lat="40.443350" lon="-5.302950">
        <ele>1719.0</ele>
        <time>2018-07-14T12:14:52Z</time>
      </trkpt>
      <trkpt lat="40.443417" lon="-5.302883">
        <ele>1718.0</ele>
        <time>2018-07-14T12:14:53Z</time>
      </trkpt>
      <trkpt lat="40.443483" lon="-5.302833">
        <ele>1717.0</ele>
        <time>2018-07-14T12:14:54Z</time>
      </trkpt>
      <trkpt lat="40.443550" lon="-5.302767">
        <ele>1716.0</ele>
        <time>2018-07-14T12:14:55Z</time>
      </trkpt>
      <trkpt lat="40.443617" lon="-5.302700">
        <ele>1714.0</ele>
        <time>2018-07-14T12:14:56Z</time>
      </trkpt>
      <trkpt lat="40.443683" lon="-5.302650">
        <ele>1713.0</ele>
        <time>2018-07-14T12:14:57Z</time>
      </trkpt>
      <trkpt lat="40.443733" lon="-5.302583">
        <ele>1712.0</ele>
        <time>2018-07-14T12:14:58Z</time>
      </trkpt>
      <trkpt lat="40.443800" lon="-5.302517">
        <ele>1711.0</ele>
        <time>2018-07-14T12:14:59Z</time>
      </trkpt>
      <trkpt lat="40.443867" lon="-5.302450">
        <ele>1709.0</ele>
        <time>2018-07-14T12:15:00Z</time>
      </trkpt>
      <trkpt lat="40.443933" lon="-5.302400">
        <ele>1707.0</ele>
        <time>2018-07-14T12:15:01Z</time>
      </trkpt>
      <trkpt lat="40.444000" lon="-5.302350">
        <ele>1705.0</ele>
        <time>2018-07-14T12:15:02Z</time>
      </trkpt>
      <trkpt lat="40.444083" lon="-5.302283">
        <ele>1703.0</ele>
        <time>2018-07-14T12:15:03Z</time>
      </trkpt>
      <trkpt lat="40.444150" lon="-5.302217">
        <ele>1701.0</ele>
        <time>2018-07-14T12:15:04Z</time>
      </trkpt>
      <trkpt lat="40.444200" lon="-5.302133">
        <ele>1700.0</ele>
        <time>2018-07-14T12:15:05Z</time>
      </trkpt>
      <trkpt lat="40.444267" lon="-5.302067">
        <ele>1698.0</ele>
        <time>2018-07-14T12:15:06Z</time>
      </trkpt>
      <trkpt lat="40.444333" lon="-5.302000">
        <ele>1696.0</ele>
        <time>2018-07-14T12:15:07Z</time>
      </trkpt>
      <trkpt lat="40.444400" lon="-5.301917">
        <ele>1695.0</ele>
        <time>2018-07-14T12:15:08Z</time>
      </trkpt>
      <trkpt lat="40.444483" lon="-5.301850">
        <ele>1693.0</ele>
        <time>2018-07-14T12:15:09Z</time>
      </trkpt>
      <trkpt lat="40.444550" lon="-5.301783">
        <ele>1691.0</ele>
        <time>2018-07-14T12:15:10Z</time>
      </trkpt>
      <trkpt lat="40.444633" lon="-5.301717">
        <ele>1690.0</ele>
        <time>2018-07-14T12:15:11Z</time>
      </trkpt>
      <trkpt lat="40.444700" lon="-5.301650">
        <ele>1690.0</ele>
        <time>2018-07-14T12:15:12Z</time>
      </trkpt>
      <trkpt lat="40.444767" lon="-5.301583">
        <ele>1690.0</ele>
        <time>2018-07-14T12:15:13Z</time>
      </trkpt>
      <trkpt lat="40.444833" lon="-5.301517">
        <ele>1690.0</ele>
        <time>2018-07-14T12:15:14Z</time>
      </trkpt>
      <trkpt lat="40.444917" lon="-5.301450">
        <ele>1688.0</ele>
        <time>2018-07-14T12:15:15Z</time>
      </trkpt>
      <trkpt lat="40.444983" lon="-5.301367">
        <ele>1687.0</ele>
        <time>2018-07-14T12:15:16Z</time>
      </trkpt>
      <trkpt lat="40.445067" lon="-5.301317">
        <ele>1686.0</ele>
        <time>2018-07-14T12:15:17Z</time>
      </trkpt>
      <trkpt lat="40.445133" lon="-5.301250">
        <ele>1685.0</ele>
        <time>2018-07-14T12:15:18Z</time>
      </trkpt>
      <trkpt lat="40.445217" lon="-5.301183">
        <ele>1683.0</ele>
        <time>2018-07-14T12:15:19Z</time>
      </trkpt>
      <trkpt lat="40.445283" lon="-5.301117">
        <ele>1682.0</ele>
        <time>2018-07-14T12:15:20Z</time>
      </trkpt>
      <trkpt lat="40.445367" lon="-5.301050">
        <ele>1680.0</ele>
        <time>2018-07-14T12:15:21Z</time>
      </trkpt>
      <trkpt lat="40.445433" lon="-5.301000">
        <ele>1679.0</ele>
        <time>2018-07-14T12:15:22Z</time>
      </trkpt>
      <trkpt lat="40.445517" lon="-5.300933">
        <ele>1677.0</ele>
        <time>2018-07-14T12:15:23Z</time>
      </trkpt>
      <trkpt lat="40.445617" lon="-5.300883">
        <ele>1675.0</ele>
        <time>2018-07-14T12:15:24Z</time>
      </trkpt>
      <trkpt lat="40.445700" lon="-5.300817">
        <ele>1674.0</ele>
        <time>2018-07-14T12:15:25Z</time>
      </trkpt>
      <trkpt lat="40.445767" lon="-5.300767">
        <ele>1675.0</ele>
        <time>2018-07-14T12:15:26Z</time>
      </trkpt>
      <trkpt lat="40.445817" lon="-5.300700">
        <ele>1675.0</ele>
        <time>2018-07-14T12:15:27Z</time>
      </trkpt>
      <trkpt lat="40.445867" lon="-5.300617">
        <ele>1674.0</ele>
        <time>2018-07-14T12:15:28Z</time>
      </trkpt>
      <trkpt lat="40.445933" lon="-5.300550">
        <ele>1674.0</ele>
        <time>2018-07-14T12:15:29Z</time>
      </trkpt>
      <trkpt lat="40.446017" lon="-5.300467">
        <ele>1673.0</ele>
        <time>2018-07-14T12:15:30Z</time>
      </trkpt>
      <trkpt lat="40.446100" lon="-5.300400">
        <ele>1672.0</ele>
        <time>2018-07-14T12:15:31Z</time>
      </trkpt>
      <trkpt lat="40.446183" lon="-5.300367">
        <ele>1672.0</ele>
        <time>2018-07-14T12:15:32Z</time>
      </trkpt>
      <trkpt lat="40.446250" lon="-5.300317">
        <ele>1672.0</ele>
        <time>2018-07-14T12:15:33Z</time>
      </trkpt>
      <trkpt lat="40.446317" lon="-5.300283">
        <ele>1673.0</ele>
        <time>2018-07-14T12:15:34Z</time>
      </trkpt>
      <trkpt lat="40.446383" lon="-5.300233">
        <ele>1674.0</ele>
        <time>2018-07-14T12:15:35Z</time>
      </trkpt>
      <trkpt lat="40.446467" lon="-5.300200">
        <ele>1674.0</ele>
        <time>2018-07-14T12:15:36Z</time>
      </trkpt>
      <trkpt lat="40.446533" lon="-5.300150">
        <ele>1673.0</ele>
        <time>2018-07-14T12:15:37Z</time>
      </trkpt>
      <trkpt lat="40.446600" lon="-5.300100">
        <ele>1673.0</ele>
        <time>2018-07-14T12:15:38Z</time>
      </trkpt>
      <trkpt lat="40.446683" lon="-5.300067">
        <ele>1674.0</ele>
        <time>2018-07-14T12:15:39Z</time>
      </trkpt>
      <trkpt lat="40.446750" lon="-5.300017">
        <ele>1674.0</ele>
        <time>2018-07-14T12:15:40Z</time>
      </trkpt>
      <trkpt lat="40.446833" lon="-5.299983">
        <ele>1675.0</ele>
        <time>2018-07-14T12:15:41Z</time>
      </trkpt>
      <trkpt lat="40.446900" lon="-5.299933">
        <ele>1675.0</ele>
        <time>2018-07-14T12:15:42Z</time>
      </trkpt>
      <trkpt lat="40.446983" lon="-5.299883">
        <ele>1676.0</ele>
        <time>2018-07-14T12:15:43Z</time>
      </trkpt>
      <trkpt lat="40.447067" lon="-5.299833">
        <ele>1676.0</ele>
        <time>2018-07-14T12:15:44Z</time>
      </trkpt>
      <trkpt lat="40.447150" lon="-5.299783">
        <ele>1677.0</ele>
        <time>2018-07-14T12:15:45Z</time>
      </trkpt>
      <trkpt lat="40.447233" lon="-5.299733">
        <ele>1677.0</ele>
        <time>2018-07-14T12:15:46Z</time>
      </trkpt>
      <trkpt lat="40.447317" lon="-5.299667">
        <ele>1678.0</ele>
        <time>2018-07-14T12:15:47Z</time>
      </trkpt>
      <trkpt lat="40.447400" lon="-5.299617">
        <ele>1679.0</ele>
        <time>2018-07-14T12:15:48Z</time>
      </trkpt>
      <trkpt lat="40.447483" lon="-5.299567">
        <ele>1680.0</ele>
        <time>2018-07-14T12:15:49Z</time>
      </trkpt>
      <trkpt lat="40.447567" lon="-5.299500">
        <ele>1681.0</ele>
        <time>2018-07-14T12:15:50Z</time>
      </trkpt>
      <trkpt lat="40.447650" lon="-5.299433">
        <ele>1683.0</ele>
        <time>2018-07-14T12:15:51Z</time>
      </trkpt>
      <trkpt lat="40.447733" lon="-5.299383">
        <ele>1684.0</ele>
        <time>2018-07-14T12:15:52Z</time>
      </trkpt>
      <trkpt lat="40.447900" lon="-5.299233">
        <ele>1687.0</ele>
        <time>2018-07-14T12:15:54Z</time>
      </trkpt>
      <trkpt lat="40.447967" lon="-5.299167">
        <ele>1688.0</ele>
        <time>2018-07-14T12:15:55Z</time>
      </trkpt>
      <trkpt lat="40.448050" lon="-5.299083">
        <ele>1689.0</ele>
        <time>2018-07-14T12:15:56Z</time>
      </trkpt>
      <trkpt lat="40.448133" lon="-5.299017">
        <ele>1690.0</ele>
        <time>2018-07-14T12:15:57Z</time>
      </trkpt>
      <trkpt lat="40.448217" lon="-5.298950">
        <ele>1692.0</ele>
        <time>2018-07-14T12:15:58Z</time>
      </trkpt>
      <trkpt lat="40.448300" lon="-5.298883">
        <ele>1693.0</ele>
        <time>2018-07-14T12:15:59Z</time>
      </trkpt>
      <trkpt lat="40.448367" lon="-5.298817">
        <ele>1694.0</ele>
        <time>2018-07-14T12:16:00Z</time>
      </trkpt>
      <trkpt lat="40.448433" lon="-5.298750">
        <ele>1696.0</ele>
        <time>2018-07-14T12:16:01Z</time>
      </trkpt>
      <trkpt lat="40.448500" lon="-5.298683">
        <ele>1698.0</ele>
        <time>2018-07-14T12:16:02Z</time>
      </trkpt>
      <trkpt lat="40.448567" lon="-5.298617">
        <ele>1699.0</ele>
        <time>2018-07-14T12:16:03Z</time>
      </trkpt>
      <trkpt lat="40.448650" lon="-5.298550">
        <ele>1701.0</ele>
        <time>2018-07-14T12:16:04Z</time>
      </trkpt>
      <trkpt lat="40.448733" lon="-5.298500">
        <ele>1703.0</ele>
        <time>2018-07-14T12:16:05Z</time>
      </trkpt>
      <trkpt lat="40.448817" lon="-5.298500">
        <ele>1704.0</ele>
        <time>2018-07-14T12:16:06Z</time>
      </trkpt>
      <trkpt lat="40.448900" lon="-5.298533">
        <ele>1706.0</ele>
        <time>2018-07-14T12:16:07Z</time>
      </trkpt>
      <trkpt lat="40.448967" lon="-5.298600">
        <ele>1706.0</ele>
        <time>2018-07-14T12:16:08Z</time>
      </trkpt>
      <trkpt lat="40.449000" lon="-5.298700">
        <ele>1707.0</ele>
        <time>2018-07-14T12:16:09Z</time>
      </trkpt>
      <trkpt lat="40.449000" lon="-5.298800">
        <ele>1710.0</ele>
        <time>2018-07-14T12:16:10Z</time>
      </trkpt>
      <trkpt lat="40.448967" lon="-5.298883">
        <ele>1711.0</ele>
        <time>2018-07-14T12:16:11Z</time>
      </trkpt>
      <trkpt lat="40.448883" lon="-5.298933">
        <ele>1712.0</ele>
        <time>2018-07-14T12:16:12Z</time>
      </trkpt>
      <trkpt lat="40.448817" lon="-5.298950">
        <ele>1711.0</ele>
        <time>2018-07-14T12:16:13Z</time>
      </trkpt>
      <trkpt lat="40.448733" lon="-5.298950">
        <ele>1710.0</ele>
        <time>2018-07-14T12:16:14Z</time>
      </trkpt>
      <trkpt lat="40.448650" lon="-5.298900">
        <ele>1709.0</ele>
        <time>2018-07-14T12:16:15Z</time>
      </trkpt>
      <trkpt lat="40.448583" lon="-5.298817">
        <ele>1707.0</ele>
        <time>2018-07-14T12:16:16Z</time>
      </trkpt>
      <trkpt lat="40.448517" lon="-5.298700">
        <ele>1705.0</ele>
        <time>2018-07-14T12:16:17Z</time>
      </trkpt>
      <trkpt lat="40.448500" lon="-5.298550">
        <ele>1703.0</ele>
        <time>2018-07-14T12:16:18Z</time>
      </trkpt>
      <trkpt lat="40.448517" lon="-5.298400">
        <ele>1702.0</ele>
        <time>2018-07-14T12:16:19Z</time>
      </trkpt>
      <trkpt lat="40.448533" lon="-5.298267">
        <ele>1701.0</ele>
        <time>2018-07-14T12:16:20Z</time>
      </trkpt>
      <trkpt lat="40.448583" lon="-5.298150">
        <ele>1700.0</ele>
        <time>2018-07-14T12:16:21Z</time>
      </trkpt>
      <trkpt lat="40.448650" lon="-5.298033">
        <ele>1700.0</ele>
        <time>2018-07-14T12:16:22Z</time>
      </trkpt>
      <trkpt lat="40.448717" lon="-5.297933">
        <ele>1700.0</ele>
        <time>2018-07-14T12:16:23Z</time>
      </trkpt>
      <trkpt lat="40.448783" lon="-5.297833">
        <ele>1700.0</ele>
        <time>2018-07-14T12:16:24Z</time>
      </trkpt>
      <trkpt lat="40.448933" lon="-5.297667">
        <ele>1701.0</ele>
        <time>2018-07-14T12:16:26Z</time>
      </trkpt>
      <trkpt lat="40.449000" lon="-5.297583">
        <ele>1703.0</ele>
        <time>2018-07-14T12:16:27Z</time>
      </trkpt>
      <trkpt lat="40.449067" lon="-5.297500">
        <ele>1704.0</ele>
        <time>2018-07-14T12:16:28Z</time>
      </trkpt>
      <trkpt lat="40.449200" lon="-5.297350">
        <ele>1707.0</ele>
        <time>2018-07-14T12:16:30Z</time>
      </trkpt>
      <trkpt lat="40.449267" lon="-5.297283">
        <ele>1709.0</ele>
        <time>2018-07-14T12:16:31Z</time>
      </trkpt>
      <trkpt lat="40.449350" lon="-5.297233">
        <ele>1712.0</ele>
        <time>2018-07-14T12:16:32Z</time>
      </trkpt>
      <trkpt lat="40.449400" lon="-5.297200">
        <ele>1714.0</ele>
        <time>2018-07-14T12:16:33Z</time>
      </trkpt>
      <trkpt lat="40.449467" lon="-5.297150">
        <ele>1716.0</ele>
        <time>2018-07-14T12:16:34Z</time>
      </trkpt>
      <trkpt lat="40.449517" lon="-5.297117">
        <ele>1718.0</ele>
        <time>2018-07-14T12:16:35Z</time>
      </trkpt>
      <trkpt lat="40.449567" lon="-5.297083">
        <ele>1719.0</ele>
        <time>2018-07-14T12:16:36Z</time>
      </trkpt>
      <trkpt lat="40.449633" lon="-5.297067">
        <ele>1717.0</ele>
        <time>2018-07-14T12:16:37Z</time>
      </trkpt>
      <trkpt lat="40.449700" lon="-5.297050">
        <ele>1716.0</ele>
        <time>2018-07-14T12:16:38Z</time>
      </trkpt>
      <trkpt lat="40.449783" lon="-5.297050">
        <ele>1715.0</ele>
        <time>2018-07-14T12:16:39Z</time>
      </trkpt>
      <trkpt lat="40.449850" lon="-5.297083">
        <ele>1714.0</ele>
        <time>2018-07-14T12:16:40Z</time>
      </trkpt>
      <trkpt lat="40.449900" lon="-5.297133">
        <ele>1715.0</ele>
        <time>2018-07-14T12:16:41Z</time>
      </trkpt>
      <trkpt lat="40.449933" lon="-5.297233">
        <ele>1715.0</ele>
        <time>2018-07-14T12:16:42Z</time>
      </trkpt>
      <trkpt lat="40.449933" lon="-5.297367">
        <ele>1715.0</ele>
        <time>2018-07-14T12:16:43Z</time>
      </trkpt>
      <trkpt lat="40.449900" lon="-5.297467">
        <ele>1715.0</ele>
        <time>2018-07-14T12:16:44Z</time>
      </trkpt>
      <trkpt lat="40.449833" lon="-5.297550">
        <ele>1716.0</ele>
        <time>2018-07-14T12:16:45Z</time>
      </trkpt>
      <trkpt lat="40.449767" lon="-5.297617">
        <ele>1718.0</ele>
        <time>2018-07-14T12:16:46Z</time>
      </trkpt>
      <trkpt lat="40.449683" lon="-5.297650">
        <ele>1718.0</ele>
        <time>2018-07-14T12:16:47Z</time>
      </trkpt>
      <trkpt lat="40.449583" lon="-5.297683">
        <ele>1717.0</ele>
        <time>2018-07-14T12:16:48Z</time>
      </trkpt>
      <trkpt lat="40.449483" lon="-5.297667">
        <ele>1717.0</ele>
        <time>2018-07-14T12:16:49Z</time>
      </trkpt>
      <trkpt lat="40.449383" lon="-5.297617">
        <ele>1716.0</ele>
        <time>2018-07-14T12:16:50Z</time>
      </trkpt>
      <trkpt lat="40.449300" lon="-5.297533">
        <ele>1715.0</ele>
        <time>2018-07-14T12:16:51Z</time>
      </trkpt>
      <trkpt lat="40.449267" lon="-5.297417">
        <ele>1716.0</ele>
        <time>2018-07-14T12:16:52Z</time>
      </trkpt>
      <trkpt lat="40.449233" lon="-5.297317">
        <ele>1715.0</ele>
        <time>2018-07-14T12:16:53Z</time>
      </trkpt>
      <trkpt lat="40.449250" lon="-5.297200">
        <ele>1715.0</ele>
        <time>2018-07-14T12:16:54Z</time>
      </trkpt>
      <trkpt lat="40.449300" lon="-5.297000">
        <ele>1714.0</ele>
        <time>2018-07-14T12:16:56Z</time>
      </trkpt>
      <trkpt lat="40.449333" lon="-5.296917">
        <ele>1713.0</ele>
        <time>2018-07-14T12:16:57Z</time>
      </trkpt>
      <trkpt lat="40.449450" lon="-5.296767">
        <ele>1712.0</ele>
        <time>2018-07-14T12:16:59Z</time>
      </trkpt>
      <trkpt lat="40.449517" lon="-5.296700">
        <ele>1712.0</ele>
        <time>2018-07-14T12:17:00Z</time>
      </trkpt>
      <trkpt lat="40.449683" lon="-5.296567">
        <ele>1711.0</ele>
        <time>2018-07-14T12:17:02Z</time>
      </trkpt>
      <trkpt lat="40.449783" lon="-5.296517">
        <ele>1711.0</ele>
        <time>2018-07-14T12:17:03Z</time>
      </trkpt>
      <trkpt lat="40.449867" lon="-5.296467">
        <ele>1714.0</ele>
        <time>2018-07-14T12:17:04Z</time>
      </trkpt>
      <trkpt lat="40.449950" lon="-5.296433">
        <ele>1715.0</ele>
        <time>2018-07-14T12:17:05Z</time>
      </trkpt>
      <trkpt lat="40.450017" lon="-5.296400">
        <ele>1716.0</ele>
        <time>2018-07-14T12:17:06Z</time>
      </trkpt>
      <trkpt lat="40.450067" lon="-5.296383">
        <ele>1716.0</ele>
        <time>2018-07-14T12:17:07Z</time>
      </trkpt>
      <trkpt lat="40.450233" lon="-5.296317">
        <ele>1714.0</ele>
        <time>2018-07-14T12:17:09Z</time>
      </trkpt>
      <trkpt lat="40.450333" lon="-5.296283">
        <ele>1713.0</ele>
        <time>2018-07-14T12:17:10Z</time>
      </trkpt>
      <trkpt lat="40.450433" lon="-5.296233">
        <ele>1712.0</ele>
        <time>2018-07-14T12:17:11Z</time>
      </trkpt>
      <trkpt lat="40.450517" lon="-5.296167">
        <ele>1714.0</ele>
        <time>2018-07-14T12:17:12Z</time>
      </trkpt>
      <trkpt lat="40.450600" lon="-5.296100">
        <ele>1716.0</ele>
        <time>2018-07-14T12:17:13Z</time>
      </trkpt>
      <trkpt lat="40.450683" lon="-5.296067">
        <ele>1717.0</ele>
        <time>2018-07-14T12:17:14Z</time>
      </trkpt>
      <trkpt lat="40.450767" lon="-5.296033">
        <ele>1718.0</ele>
        <time>2018-07-14T12:17:15Z</time>
      </trkpt>
      <trkpt lat="40.450833" lon="-5.296000">
        <ele>1718.0</ele>
        <time>2018-07-14T12:17:16Z</time>
      </trkpt>
      <trkpt lat="40.450917" lon="-5.295950">
        <ele>1720.0</ele>
        <time>2018-07-14T12:17:17Z</time>
      </trkpt>
      <trkpt lat="40.450967" lon="-5.295867">
        <ele>1721.0</ele>
        <time>2018-07-14T12:17:18Z</time>
      </trkpt>
      <trkpt lat="40.450983" lon="-5.295733">
        <ele>1720.0</ele>
        <time>2018-07-14T12:17:19Z</time>
      </trkpt>
      <trkpt lat="40.451000" lon="-5.295600">
        <ele>1719.0</ele>
        <time>2018-07-14T12:17:20Z</time>
      </trkpt>
      <trkpt lat="40.450967" lon="-5.295467">
        <ele>1719.0</ele>
        <time>2018-07-14T12:17:21Z</time>
      </trkpt>
      <trkpt lat="40.450883" lon="-5.295350">
        <ele>1719.0</ele>
        <time>2018-07-14T12:17:22Z</time>
      </trkpt>
      <trkpt lat="40.450800" lon="-5.295283">
        <ele>1720.0</ele>
        <time>2018-07-14T12:17:23Z</time>
      </trkpt>
      <trkpt lat="40.450700" lon="-5.295267">
        <ele>1721.0</ele>
        <time>2018-07-14T12:17:24Z</time>
      </trkpt>
      <trkpt lat="40.450617" lon="-5.295300">
        <ele>1722.0</ele>
        <time>2018-07-14T12:17:25Z</time>
      </trkpt>
      <trkpt lat="40.450583" lon="-5.295367">
        <ele>1722.0</ele>
        <time>2018-07-14T12:17:26Z</time>
      </trkpt>
      <trkpt lat="40.450600" lon="-5.295450">
        <ele>1722.0</ele>
        <time>2018-07-14T12:17:27Z</time>
      </trkpt>
      <trkpt lat="40.450650" lon="-5.295517">
        <ele>1722.0</ele>
        <time>2018-07-14T12:17:28Z</time>
      </trkpt>
      <trkpt lat="40.450717" lon="-5.295550">
        <ele>1722.0</ele>
        <time>2018-07-14T12:17:29Z</time>
      </trkpt>
      <trkpt lat="40.450800" lon="-5.295550">
        <ele>1722.0</ele>
        <time>2018-07-14T12:17:30Z</time>
      </trkpt>
      <trkpt lat="40.450867" lon="-5.295517">
        <ele>1722.0</ele>
        <time>2018-07-14T12:17:31Z</time>
      </trkpt>
      <trkpt lat="40.450933" lon="-5.295483">
        <ele>1723.0</ele>
        <time>2018-07-14T12:17:32Z</time>
      </trkpt>
      <trkpt lat="40.451000" lon="-5.295450">
        <ele>1724.0</ele>
        <time>2018-07-14T12:17:33Z</time>
      </trkpt>
      <trkpt lat="40.451050" lon="-5.295417">
        <ele>1725.0</ele>
        <time>2018-07-14T12:17:34Z</time>
      </trkpt>
      <trkpt lat="40.451117" lon="-5.295350">
        <ele>1725.0</ele>
        <time>2018-07-14T12:17:35Z</time>
      </trkpt>
      <trkpt lat="40.451167" lon="-5.295283">
        <ele>1725.0</ele>
        <time>2018-07-14T12:17:36Z</time>
      </trkpt>
      <trkpt lat="40.451217" lon="-5.295183">
        <ele>1725.0</ele>
        <time>2018-07-14T12:17:37Z</time>
      </trkpt>
      <trkpt lat="40.451250" lon="-5.295083">
        <ele>1724.0</ele>
        <time>2018-07-14T12:17:38Z</time>
      </trkpt>
      <trkpt lat="40.451250" lon="-5.294950">
        <ele>1724.0</ele>
        <time>2018-07-14T12:17:39Z</time>
      </trkpt>
      <trkpt lat="40.451233" lon="-5.294800">
        <ele>1724.0</ele>
        <time>2018-07-14T12:17:40Z</time>
      </trkpt>
      <trkpt lat="40.451167" lon="-5.294683">
        <ele>1725.0</ele>
        <time>2018-07-14T12:17:41Z</time>
      </trkpt>
      <trkpt lat="40.451083" lon="-5.294600">
        <ele>1726.0</ele>
        <time>2018-07-14T12:17:42Z</time>
      </trkpt>
      <trkpt lat="40.450983" lon="-5.294567">
        <ele>1726.0</ele>
        <time>2018-07-14T12:17:43Z</time>
      </trkpt>
      <trkpt lat="40.450883" lon="-5.294550">
        <ele>1727.0</ele>
        <time>2018-07-14T12:17:44Z</time>
      </trkpt>
      <trkpt lat="40.450783" lon="-5.294583">
        <ele>1728.0</ele>
        <time>2018-07-14T12:17:45Z</time>
      </trkpt>
      <trkpt lat="40.450733" lon="-5.294633">
        <ele>1728.0</ele>
        <time>2018-07-14T12:17:46Z</time>
      </trkpt>
      <trkpt lat="40.450683" lon="-5.294717">
        <ele>1729.0</ele>
        <time>2018-07-14T12:17:47Z</time>
      </trkpt>
      <trkpt lat="40.450650" lon="-5.294783">
        <ele>1729.0</ele>
        <time>2018-07-14T12:17:48Z</time>
      </trkpt>
      <trkpt lat="40.450617" lon="-5.294850">
        <ele>1730.0</ele>
        <time>2018-07-14T12:17:49Z</time>
      </trkpt>
      <trkpt lat="40.450600" lon="-5.294933">
        <ele>1730.0</ele>
        <time>2018-07-14T12:17:50Z</time>
      </trkpt>
      <trkpt lat="40.450583" lon="-5.295083">
        <ele>1730.0</ele>
        <time>2018-07-14T12:17:52Z</time>
      </trkpt>
      <trkpt lat="40.450600" lon="-5.295167">
        <ele>1731.0</ele>
        <time>2018-07-14T12:17:53Z</time>
      </trkpt>
      <trkpt lat="40.450700" lon="-5.295283">
        <ele>1731.0</ele>
        <time>2018-07-14T12:17:55Z</time>
      </trkpt>
      <trkpt lat="40.450783" lon="-5.295267">
        <ele>1730.0</ele>
        <time>2018-07-14T12:17:56Z</time>
      </trkpt>
      <trkpt lat="40.450833" lon="-5.295233">
        <ele>1730.0</ele>
        <time>2018-07-14T12:17:57Z</time>
      </trkpt>
      <trkpt lat="40.450900" lon="-5.295167">
        <ele>1729.0</ele>
        <time>2018-07-14T12:17:58Z</time>
      </trkpt>
      <trkpt lat="40.450950" lon="-5.295100">
        <ele>1728.0</ele>
        <time>2018-07-14T12:17:59Z</time>
      </trkpt>
      <trkpt lat="40.451000" lon="-5.295000">
        <ele>1727.0</ele>
        <time>2018-07-14T12:18:00Z</time>
      </trkpt>
      <trkpt lat="40.451033" lon="-5.294883">
        <ele>1726.0</ele>
        <time>2018-07-14T12:18:01Z</time>
      </trkpt>
      <trkpt lat="40.451067" lon="-5.294767">
        <ele>1724.0</ele>
        <time>2018-07-14T12:18:02Z</time>
      </trkpt>
      <trkpt lat="40.451083" lon="-5.294633">
        <ele>1723.0</ele>
        <time>2018-07-14T12:18:03Z</time>
      </trkpt>
      <trkpt lat="40.451067" lon="-5.294500">
        <ele>1721.0</ele>
        <time>2018-07-14T12:18:04Z</time>
      </trkpt>
      <trkpt lat="40.451067" lon="-5.294367">
        <ele>1720.0</ele>
        <time>2018-07-14T12:18:05Z</time>
      </trkpt>
      <trkpt lat="40.451033" lon="-5.294233">
        <ele>1720.0</ele>
        <time>2018-07-14T12:18:06Z</time>
      </trkpt>
      <trkpt lat="40.451000" lon="-5.294117">
        <ele>1721.0</ele>
        <time>2018-07-14T12:18:07Z</time>
      </trkpt>
      <trkpt lat="40.450983" lon="-5.293983">
        <ele>1722.0</ele>
        <time>2018-07-14T12:18:08Z</time>
      </trkpt>
      <trkpt lat="40.450950" lon="-5.293850">
        <ele>1723.0</ele>
        <time>2018-07-14T12:18:09Z</time>
      </trkpt>
      <trkpt lat="40.450950" lon="-5.293717">
        <ele>1723.0</ele>
        <time>2018-07-14T12:18:10Z</time>
      </trkpt>
      <trkpt lat="40.450950" lon="-5.293567">
        <ele>1724.0</ele>
        <time>2018-07-14T12:18:11Z</time>
      </trkpt>
      <trkpt lat="40.450967" lon="-5.293433">
        <ele>1727.0</ele>
        <time>2018-07-14T12:18:12Z</time>
      </trkpt>
      <trkpt lat="40.450983" lon="-5.293317">
        <ele>1729.0</ele>
        <time>2018-07-14T12:18:13Z</time>
      </trkpt>
      <trkpt lat="40.451067" lon="-5.292933">
        <ele>1735.0</ele>
        <time>2018-07-14T12:18:16Z</time>
      </trkpt>
      <trkpt lat="40.451067" lon="-5.292783">
        <ele>1737.0</ele>
        <time>2018-07-14T12:18:17Z</time>
      </trkpt>
      <trkpt lat="40.451033" lon="-5.292633">
        <ele>1738.0</ele>
        <time>2018-07-14T12:18:18Z</time>
      </trkpt>
      <trkpt lat="40.450983" lon="-5.292483">
        <ele>1740.0</ele>
        <time>2018-07-14T12:18:19Z</time>
      </trkpt>
      <trkpt lat="40.450900" lon="-5.292383">
        <ele>1742.0</ele>
        <time>2018-07-14T12:18:20Z</time>
      </trkpt>
      <trkpt lat="40.450817" lon="-5.292333">
        <ele>1744.0</ele>
        <time>2018-07-14T12:18:21Z</time>
      </trkpt>
      <trkpt lat="40.450717" lon="-5.292317">
        <ele>1745.0</ele>
        <time>2018-07-14T12:18:22Z</time>
      </trkpt>
      <trkpt lat="40.450650" lon="-5.292350">
        <ele>1747.0</ele>
        <time>2018-07-14T12:18:23Z</time>
      </trkpt>
      <trkpt lat="40.450617" lon="-5.292400">
        <ele>1748.0</ele>
        <time>2018-07-14T12:18:24Z</time>
      </trkpt>
      <trkpt lat="40.450633" lon="-5.292450">
        <ele>1749.0</ele>
        <time>2018-07-14T12:18:25Z</time>
      </trkpt>
      <trkpt lat="40.450667" lon="-5.292500">
        <ele>1745.0</ele>
        <time>2018-07-14T12:18:26Z</time>
      </trkpt>
      <trkpt lat="40.450733" lon="-5.292533">
        <ele>1746.0</ele>
        <time>2018-07-14T12:18:27Z</time>
      </trkpt>
      <trkpt lat="40.450817" lon="-5.292517">
        <ele>1746.0</ele>
        <time>2018-07-14T12:18:28Z</time>
      </trkpt>
      <trkpt lat="40.450900" lon="-5.292433">
        <ele>1747.0</ele>
        <time>2018-07-14T12:18:29Z</time>
      </trkpt>
      <trkpt lat="40.450967" lon="-5.292333">
        <ele>1747.0</ele>
        <time>2018-07-14T12:18:30Z</time>
      </trkpt>
      <trkpt lat="40.450983" lon="-5.292183">
        <ele>1748.0</ele>
        <time>2018-07-14T12:18:31Z</time>
      </trkpt>
      <trkpt lat="40.450983" lon="-5.292033">
        <ele>1750.0</ele>
        <time>2018-07-14T12:18:32Z</time>
      </trkpt>
      <trkpt lat="40.450967" lon="-5.291883">
        <ele>1751.0</ele>
        <time>2018-07-14T12:18:33Z</time>
      </trkpt>
      <trkpt lat="40.450917" lon="-5.291750">
        <ele>1753.0</ele>
        <time>2018-07-14T12:18:34Z</time>
      </trkpt>
      <trkpt lat="40.450833" lon="-5.291650">
        <ele>1755.0</ele>
        <time>2018-07-14T12:18:35Z</time>
      </trkpt>
      <trkpt lat="40.450733" lon="-5.291583">
        <ele>1757.0</ele>
        <time>2018-07-14T12:18:36Z</time>
      </trkpt>
      <trkpt lat="40.450650" lon="-5.291533">
        <ele>1759.0</ele>
        <time>2018-07-14T12:18:37Z</time>
      </trkpt>
      <trkpt lat="40.450567" lon="-5.291533">
        <ele>1758.0</ele>
        <time>2018-07-14T12:18:38Z</time>
      </trkpt>
      <trkpt lat="40.450517" lon="-5.291550">
        <ele>1760.0</ele>
        <time>2018-07-14T12:18:39Z</time>
      </trkpt>
      <trkpt lat="40.450483" lon="-5.291600">
        <ele>1761.0</ele>
        <time>2018-07-14T12:18:40Z</time>
      </trkpt>
      <trkpt lat="40.450500" lon="-5.291633">
        <ele>1762.0</ele>
        <time>2018-07-14T12:18:41Z</time>
      </trkpt>
      <trkpt lat="40.450517" lon="-5.291700">
        <ele>1762.0</ele>
        <time>2018-07-14T12:18:42Z</time>
      </trkpt>
      <trkpt lat="40.450567" lon="-5.291733">
        <ele>1763.0</ele>
        <time>2018-07-14T12:18:43Z</time>
      </trkpt>
      <trkpt lat="40.450633" lon="-5.291733">
        <ele>1765.0</ele>
        <time>2018-07-14T12:18:44Z</time>
      </trkpt>
      <trkpt lat="40.450733" lon="-5.291667">
        <ele>1766.0</ele>
        <time>2018-07-14T12:18:45Z</time>
      </trkpt>
      <trkpt lat="40.450833" lon="-5.291433">
        <ele>1769.0</ele>
        <time>2018-07-14T12:18:47Z</time>
      </trkpt>
      <trkpt lat="40.450833" lon="-5.291283">
        <ele>1772.0</ele>
        <time>2018-07-14T12:18:48Z</time>
      </trkpt>
      <trkpt lat="40.450817" lon="-5.291150">
        <ele>1775.0</ele>
        <time>2018-07-14T12:18:49Z</time>
      </trkpt>
      <trkpt lat="40.450783" lon="-5.291017">
        <ele>1778.0</ele>
        <time>2018-07-14T12:18:50Z</time>
      </trkpt>
      <trkpt lat="40.450733" lon="-5.290883">
        <ele>1780.0</ele>
        <time>2018-07-14T12:18:51Z</time>
      </trkpt>
      <trkpt lat="40.450650" lon="-5.290750">
        <ele>1782.0</ele>
        <time>2018-07-14T12:18:52Z</time>
      </trkpt>
      <trkpt lat="40.450567" lon="-5.290650">
        <ele>1783.0</ele>
        <time>2018-07-14T12:18:53Z</time>
      </trkpt>
      <trkpt lat="40.450467" lon="-5.290600">
        <ele>1784.0</ele>
        <time>2018-07-14T12:18:54Z</time>
      </trkpt>
      <trkpt lat="40.450367" lon="-5.290583">
        <ele>1786.0</ele>
        <time>2018-07-14T12:18:55Z</time>
      </trkpt>
      <trkpt lat="40.450317" lon="-5.290617">
        <ele>1787.0</ele>
        <time>2018-07-14T12:18:56Z</time>
      </trkpt>
      <trkpt lat="40.450283" lon="-5.290667">
        <ele>1788.0</ele>
        <time>2018-07-14T12:18:57Z</time>
      </trkpt>
      <trkpt lat="40.450300" lon="-5.290717">
        <ele>1789.0</ele>
        <time>2018-07-14T12:18:58Z</time>
      </trkpt>
      <trkpt lat="40.450333" lon="-5.290767">
        <ele>1790.0</ele>
        <time>2018-07-14T12:18:59Z</time>
      </trkpt>
      <trkpt lat="40.450383" lon="-5.290767">
        <ele>1793.0</ele>
        <time>2018-07-14T12:19:00Z</time>
      </trkpt>
      <trkpt lat="40.450467" lon="-5.290733">
        <ele>1795.0</ele>
        <time>2018-07-14T12:19:01Z</time>
      </trkpt>
      <trkpt lat="40.450533" lon="-5.290650">
        <ele>1798.0</ele>
        <time>2018-07-14T12:19:02Z</time>
      </trkpt>
      <trkpt lat="40.450583" lon="-5.290533">
        <ele>1801.0</ele>
        <time>2018-07-14T12:19:03Z</time>
      </trkpt>
      <trkpt lat="40.450600" lon="-5.290383">
        <ele>1804.0</ele>
        <time>2018-07-14T12:19:04Z</time>
      </trkpt>
      <trkpt lat="40.450583" lon="-5.290250">
        <ele>1806.0</ele>
        <time>2018-07-14T12:19:05Z</time>
      </trkpt>
      <trkpt lat="40.450550" lon="-5.290083">
        <ele>1808.0</ele>
        <time>2018-07-14T12:19:06Z</time>
      </trkpt>
      <trkpt lat="40.450483" lon="-5.289950">
        <ele>1809.0</ele>
        <time>2018-07-14T12:19:07Z</time>
      </trkpt>
      <trkpt lat="40.450417" lon="-5.289833">
        <ele>1810.0</ele>
        <time>2018-07-14T12:19:08Z</time>
      </trkpt>
      <trkpt lat="40.450317" lon="-5.289767">
        <ele>1810.0</ele>
        <time>2018-07-14T12:19:09Z</time>
      </trkpt>
      <trkpt lat="40.450217" lon="-5.289733">
        <ele>1811.0</ele>
        <time>2018-07-14T12:19:10Z</time>
      </trkpt>
      <trkpt lat="40.450117" lon="-5.289733">
        <ele>1811.0</ele>
        <time>2018-07-14T12:19:11Z</time>
      </trkpt>
      <trkpt lat="40.450033" lon="-5.289750">
        <ele>1812.0</ele>
        <time>2018-07-14T12:19:12Z</time>
      </trkpt>
      <trkpt lat="40.449967" lon="-5.289783">
        <ele>1813.0</ele>
        <time>2018-07-14T12:19:13Z</time>
      </trkpt>
      <trkpt lat="40.449917" lon="-5.289850">
        <ele>1814.0</ele>
        <time>2018-07-14T12:19:14Z</time>
      </trkpt>
      <trkpt lat="40.449883" lon="-5.289900">
        <ele>1815.0</ele>
        <time>2018-07-14T12:19:15Z</time>
      </trkpt>
      <trkpt lat="40.449850" lon="-5.289950">
        <ele>1817.0</ele>
        <time>2018-07-14T12:19:16Z</time>
      </trkpt>
      <trkpt lat="40.449833" lon="-5.290067">
        <ele>1823.0</ele>
        <time>2018-07-14T12:19:19Z</time>
      </trkpt>
      <trkpt lat="40.449850" lon="-5.290067">
        <ele>1824.0</ele>
        <time>2018-07-14T12:19:20Z</time>
      </trkpt>
      <trkpt lat="40.449867" lon="-5.290117">
        <ele>1820.0</ele>
        <time>2018-07-14T12:19:21Z</time>
      </trkpt>
      <trkpt lat="40.449900" lon="-5.290167">
        <ele>1821.0</ele>
        <time>2018-07-14T12:19:22Z</time>
      </trkpt>
      <trkpt lat="40.449950" lon="-5.290167">
        <ele>1823.0</ele>
        <time>2018-07-14T12:19:23Z</time>
      </trkpt>
      <trkpt lat="40.450017" lon="-5.290117">
        <ele>1824.0</ele>
        <time>2018-07-14T12:19:24Z</time>
      </trkpt>
      <trkpt lat="40.450083" lon="-5.290017">
        <ele>1825.0</ele>
        <time>2018-07-14T12:19:25Z</time>
      </trkpt>
      <trkpt lat="40.450133" lon="-5.289883">
        <ele>1826.0</ele>
        <time>2018-07-14T12:19:26Z</time>
      </trkpt>
      <trkpt lat="40.450150" lon="-5.289717">
        <ele>1828.0</ele>
        <time>2018-07-14T12:19:27Z</time>
      </trkpt>
      <trkpt lat="40.450150" lon="-5.289567">
        <ele>1831.0</ele>
        <time>2018-07-14T12:19:28Z</time>
      </trkpt>
      <trkpt lat="40.450083" lon="-5.289433">
        <ele>1833.0</ele>
        <time>2018-07-14T12:19:29Z</time>
      </trkpt>
      <trkpt lat="40.450000" lon="-5.289333">
        <ele>1835.0</ele>
        <time>2018-07-14T12:19:30Z</time>
      </trkpt>
      <trkpt lat="40.449900" lon="-5.289233">
        <ele>1836.0</ele>
        <time>2018-07-14T12:19:31Z</time>
      </trkpt>
      <trkpt lat="40.449817" lon="-5.289167">
        <ele>1839.0</ele>
        <time>2018-07-14T12:19:32Z</time>
      </trkpt>
      <trkpt lat="40.449733" lon="-5.289133">
        <ele>1841.0</ele>
        <time>2018-07-14T12:19:33Z</time>
      </trkpt>
      <trkpt lat="40.449650" lon="-5.289133">
        <ele>1843.0</ele>
        <time>2018-07-14T12:19:34Z</time>
      </trkpt>
      <trkpt lat="40.449583" lon="-5.289167">
        <ele>1840.0</ele>
        <time>2018-07-14T12:19:35Z</time>
      </trkpt>
      <trkpt lat="40.449567" lon="-5.289233">
        <ele>1840.0</ele>
        <time>2018-07-14T12:19:36Z</time>
      </trkpt>
      <trkpt lat="40.449583" lon="-5.289283">
        <ele>1840.0</ele>
        <time>2018-07-14T12:19:37Z</time>
      </trkpt>
      <trkpt lat="40.449617" lon="-5.289317">
        <ele>1841.0</ele>
        <time>2018-07-14T12:19:38Z</time>
      </trkpt>
      <trkpt lat="40.449683" lon="-5.289283">
        <ele>1841.0</ele>
        <time>2018-07-14T12:19:39Z</time>
      </trkpt>
      <trkpt lat="40.449750" lon="-5.289183">
        <ele>1842.0</ele>
        <time>2018-07-14T12:19:40Z</time>
      </trkpt>
      <trkpt lat="40.449800" lon="-5.289050">
        <ele>1843.0</ele>
        <time>2018-07-14T12:19:41Z</time>
      </trkpt>
      <trkpt lat="40.449833" lon="-5.288883">
        <ele>1844.0</ele>
        <time>2018-07-14T12:19:42Z</time>
      </trkpt>
      <trkpt lat="40.449800" lon="-5.288733">
        <ele>1846.0</ele>
        <time>2018-07-14T12:19:43Z</time>
      </trkpt>
      <trkpt lat="40.449750" lon="-5.288583">
        <ele>1847.0</ele>
        <time>2018-07-14T12:19:44Z</time>
      </trkpt>
      <trkpt lat="40.449683" lon="-5.288483">
        <ele>1849.0</ele>
        <time>2018-07-14T12:19:45Z</time>
      </trkpt>
      <trkpt lat="40.449583" lon="-5.288400">
        <ele>1850.0</ele>
        <time>2018-07-14T12:19:46Z</time>
      </trkpt>
      <trkpt lat="40.449500" lon="-5.288367">
        <ele>1851.0</ele>
        <time>2018-07-14T12:19:47Z</time>
      </trkpt>
      <trkpt lat="40.449383" lon="-5.288350">
        <ele>1852.0</ele>
        <time>2018-07-14T12:19:48Z</time>
      </trkpt>
      <trkpt lat="40.449283" lon="-5.288400">
        <ele>1853.0</ele>
        <time>2018-07-14T12:19:49Z</time>
      </trkpt>
      <trkpt lat="40.449233" lon="-5.288450">
        <ele>1854.0</ele>
        <time>2018-07-14T12:19:50Z</time>
      </trkpt>
      <trkpt lat="40.449217" lon="-5.288517">
        <ele>1854.0</ele>
        <time>2018-07-14T12:19:51Z</time>
      </trkpt>
      <trkpt lat="40.449250" lon="-5.288567">
        <ele>1855.0</ele>
        <time>2018-07-14T12:19:52Z</time>
      </trkpt>
      <trkpt lat="40.449300" lon="-5.288583">
        <ele>1854.0</ele>
        <time>2018-07-14T12:19:53Z</time>
      </trkpt>
      <trkpt lat="40.449367" lon="-5.288567">
        <ele>1854.0</ele>
        <time>2018-07-14T12:19:54Z</time>
      </trkpt>
      <trkpt lat="40.449417" lon="-5.288500">
        <ele>1854.0</ele>
        <time>2018-07-14T12:19:55Z</time>
      </trkpt>
      <trkpt lat="40.449483" lon="-5.288400">
        <ele>1855.0</ele>
        <time>2018-07-14T12:19:56Z</time>
      </trkpt>
      <trkpt lat="40.449500" lon="-5.288267">
        <ele>1855.0</ele>
        <time>2018-07-14T12:19:57Z</time>
      </trkpt>
      <trkpt lat="40.449467" lon="-5.288117">
        <ele>1853.0</ele>
        <time>2018-07-14T12:19:58Z</time>
      </trkpt>
      <trkpt lat="40.449400" lon="-5.287983">
        <ele>1852.0</ele>
        <time>2018-07-14T12:19:59Z</time>
      </trkpt>
      <trkpt lat="40.449300" lon="-5.287883">
        <ele>1851.0</ele>
        <time>2018-07-14T12:20:00Z</time>
      </trkpt>
      <trkpt lat="40.449183" lon="-5.287833">
        <ele>1850.0</ele>
        <time>2018-07-14T12:20:01Z</time>
      </trkpt>
      <trkpt lat="40.449083" lon="-5.287800">
        <ele>1850.0</ele>
        <time>2018-07-14T12:20:02Z</time>
      </trkpt>
      <trkpt lat="40.448967" lon="-5.287817">
        <ele>1851.0</ele>
        <time>2018-07-14T12:20:03Z</time>
      </trkpt>
      <trkpt lat="40.448883" lon="-5.287817">
        <ele>1855.0</ele>
        <time>2018-07-14T12:20:04Z</time>
      </trkpt>
      <trkpt lat="40.448817" lon="-5.287817">
        <ele>1858.0</ele>
        <time>2018-07-14T12:20:05Z</time>
      </trkpt>
      <trkpt lat="40.448767" lon="-5.287800">
        <ele>1860.0</ele>
        <time>2018-07-14T12:20:06Z</time>
      </trkpt>
      <trkpt lat="40.448700" lon="-5.287833">
        <ele>1858.0</ele>
        <time>2018-07-14T12:20:07Z</time>
      </trkpt>
      <trkpt lat="40.448633" lon="-5.287867">
        <ele>1858.0</ele>
        <time>2018-07-14T12:20:08Z</time>
      </trkpt>
      <trkpt lat="40.448583" lon="-5.287933">
        <ele>1858.0</ele>
        <time>2018-07-14T12:20:09Z</time>
      </trkpt>
      <trkpt lat="40.448567" lon="-5.288017">
        <ele>1857.0</ele>
        <time>2018-07-14T12:20:10Z</time>
      </trkpt>
      <trkpt lat="40.448583" lon="-5.288067">
        <ele>1857.0</ele>
        <time>2018-07-14T12:20:11Z</time>
      </trkpt>
      <trkpt lat="40.448667" lon="-5.288083">
        <ele>1856.0</ele>
        <time>2018-07-14T12:20:12Z</time>
      </trkpt>
      <trkpt lat="40.448750" lon="-5.288083">
        <ele>1854.0</ele>
        <time>2018-07-14T12:20:13Z</time>
      </trkpt>
      <trkpt lat="40.448817" lon="-5.288083">
        <ele>1853.0</ele>
        <time>2018-07-14T12:20:14Z</time>
      </trkpt>
      <trkpt lat="40.448883" lon="-5.288067">
        <ele>1854.0</ele>
        <time>2018-07-14T12:20:15Z</time>
      </trkpt>
      <trkpt lat="40.448967" lon="-5.288050">
        <ele>1854.0</ele>
        <time>2018-07-14T12:20:16Z</time>
      </trkpt>
      <trkpt lat="40.449017" lon="-5.288050">
        <ele>1853.0</ele>
        <time>2018-07-14T12:20:17Z</time>
      </trkpt>
      <trkpt lat="40.449083" lon="-5.288067">
        <ele>1853.0</ele>
        <time>2018-07-14T12:20:18Z</time>
      </trkpt>
      <trkpt lat="40.449133" lon="-5.288083">
        <ele>1853.0</ele>
        <time>2018-07-14T12:20:19Z</time>
      </trkpt>
      <trkpt lat="40.449200" lon="-5.288117">
        <ele>1852.0</ele>
        <time>2018-07-14T12:20:20Z</time>
      </trkpt>
      <trkpt lat="40.449250" lon="-5.288133">
        <ele>1852.0</ele>
        <time>2018-07-14T12:20:21Z</time>
      </trkpt>
      <trkpt lat="40.449300" lon="-5.288167">
        <ele>1853.0</ele>
        <time>2018-07-14T12:20:22Z</time>
      </trkpt>
      <trkpt lat="40.449350" lon="-5.288183">
        <ele>1854.0</ele>
        <time>2018-07-14T12:20:23Z</time>
      </trkpt>
      <trkpt lat="40.449400" lon="-5.288217">
        <ele>1854.0</ele>
        <time>2018-07-14T12:20:24Z</time>
      </trkpt>
      <trkpt lat="40.449483" lon="-5.288217">
        <ele>1854.0</ele>
        <time>2018-07-14T12:20:25Z</time>
      </trkpt>
      <trkpt lat="40.449567" lon="-5.288217">
        <ele>1854.0</ele>
        <time>2018-07-14T12:20:26Z</time>
      </trkpt>
      <trkpt lat="40.449683" lon="-5.288167">
        <ele>1854.0</ele>
        <time>2018-07-14T12:20:27Z</time>
      </trkpt>
      <trkpt lat="40.449783" lon="-5.288083">
        <ele>1854.0</ele>
        <time>2018-07-14T12:20:28Z</time>
      </trkpt>
      <trkpt lat="40.449867" lon="-5.288017">
        <ele>1855.0</ele>
        <time>2018-07-14T12:20:29Z</time>
      </trkpt>
      <trkpt lat="40.449950" lon="-5.287950">
        <ele>1856.0</ele>
        <time>2018-07-14T12:20:30Z</time>
      </trkpt>
      <trkpt lat="40.450017" lon="-5.287900">
        <ele>1859.0</ele>
        <time>2018-07-14T12:20:31Z</time>
      </trkpt>
      <trkpt lat="40.450083" lon="-5.287867">
        <ele>1861.0</ele>
        <time>2018-07-14T12:20:32Z</time>
      </trkpt>
      <trkpt lat="40.450150" lon="-5.287817">
        <ele>1863.0</ele>
        <time>2018-07-14T12:20:33Z</time>
      </trkpt>
      <trkpt lat="40.450217" lon="-5.287700">
        <ele>1865.0</ele>
        <time>2018-07-14T12:20:34Z</time>
      </trkpt>
      <trkpt lat="40.450267" lon="-5.287567">
        <ele>1867.0</ele>
        <time>2018-07-14T12:20:35Z</time>
      </trkpt>
      <trkpt lat="40.450300" lon="-5.287417">
        <ele>1870.0</ele>
        <time>2018-07-14T12:20:36Z</time>
      </trkpt>
      <trkpt lat="40.450300" lon="-5.287267">
        <ele>1875.0</ele>
        <time>2018-07-14T12:20:37Z</time>
      </trkpt>
      <trkpt lat="40.450250" lon="-5.287133">
        <ele>1878.0</ele>
        <time>2018-07-14T12:20:38Z</time>
      </trkpt>
      <trkpt lat="40.450183" lon="-5.287033">
        <ele>1880.0</ele>
        <time>2018-07-14T12:20:39Z</time>
      </trkpt>
      <trkpt lat="40.450083" lon="-5.286983">
        <ele>1881.0</ele>
        <time>2018-07-14T12:20:40Z</time>
      </trkpt>
      <trkpt lat="40.450000" lon="-5.286983">
        <ele>1883.0</ele>
        <time>2018-07-14T12:20:41Z</time>
      </trkpt>
      <trkpt lat="40.449950" lon="-5.287050">
        <ele>1882.0</ele>
        <time>2018-07-14T12:20:42Z</time>
      </trkpt>
      <trkpt lat="40.449950" lon="-5.287133">
        <ele>1882.0</ele>
        <time>2018-07-14T12:20:43Z</time>
      </trkpt>
      <trkpt lat="40.449983" lon="-5.287250">
        <ele>1882.0</ele>
        <time>2018-07-14T12:20:44Z</time>
      </trkpt>
      <trkpt lat="40.450067" lon="-5.287317">
        <ele>1883.0</ele>
        <time>2018-07-14T12:20:45Z</time>
      </trkpt>
      <trkpt lat="40.450133" lon="-5.287317">
        <ele>1884.0</ele>
        <time>2018-07-14T12:20:46Z</time>
      </trkpt>
      <trkpt lat="40.450217" lon="-5.287267">
        <ele>1885.0</ele>
        <time>2018-07-14T12:20:47Z</time>
      </trkpt>
      <trkpt lat="40.450283" lon="-5.287167">
        <ele>1887.0</ele>
        <time>2018-07-14T12:20:48Z</time>
      </trkpt>
      <trkpt lat="40.450333" lon="-5.287050">
        <ele>1889.0</ele>
        <time>2018-07-14T12:20:49Z</time>
      </trkpt>
      <trkpt lat="40.450367" lon="-5.286933">
        <ele>1895.0</ele>
        <time>2018-07-14T12:20:50Z</time>
      </trkpt>
      <trkpt lat="40.450367" lon="-5.286800">
        <ele>1900.0</ele>
        <time>2018-07-14T12:20:51Z</time>
      </trkpt>
      <trkpt lat="40.450333" lon="-5.286667">
        <ele>1903.0</ele>
        <time>2018-07-14T12:20:52Z</time>
      </trkpt>
      <trkpt lat="40.450250" lon="-5.286533">
        <ele>1906.0</ele>
        <time>2018-07-14T12:20:53Z</time>
      </trkpt>
      <trkpt lat="40.450167" lon="-5.286417">
        <ele>1909.0</ele>
        <time>2018-07-14T12:20:54Z</time>
      </trkpt>
      <trkpt lat="40.450050" lon="-5.286367">
        <ele>1912.0</ele>
        <time>2018-07-14T12:20:55Z</time>
      </trkpt>
      <trkpt lat="40.449950" lon="-5.286383">
        <ele>1915.0</ele>
        <time>2018-07-14T12:20:56Z</time>
      </trkpt>
      <trkpt lat="40.449883" lon="-5.286433">
        <ele>1919.0</ele>
        <time>2018-07-14T12:20:57Z</time>
      </trkpt>
      <trkpt lat="40.449850" lon="-5.286483">
        <ele>1924.0</ele>
        <time>2018-07-14T12:20:58Z</time>
      </trkpt>
      <trkpt lat="40.449833" lon="-5.286533">
        <ele>1929.0</ele>
        <time>2018-07-14T12:20:59Z</time>
      </trkpt>
      <trkpt lat="40.449817" lon="-5.286617">
        <ele>1936.0</ele>
        <time>2018-07-14T12:21:01Z</time>
      </trkpt>
      <trkpt lat="40.449867" lon="-5.286633">
        <ele>1939.0</ele>
        <time>2018-07-14T12:21:02Z</time>
      </trkpt>
      <trkpt lat="40.449917" lon="-5.286667">
        <ele>1933.0</ele>
        <time>2018-07-14T12:21:03Z</time>
      </trkpt>
      <trkpt lat="40.449983" lon="-5.286700">
        <ele>1931.0</ele>
        <time>2018-07-14T12:21:04Z</time>
      </trkpt>
      <trkpt lat="40.450067" lon="-5.286667">
        <ele>1932.0</ele>
        <time>2018-07-14T12:21:05Z</time>
      </trkpt>
      <trkpt lat="40.450133" lon="-5.286617">
        <ele>1933.0</ele>
        <time>2018-07-14T12:21:06Z</time>
      </trkpt>
      <trkpt lat="40.450200" lon="-5.286500">
        <ele>1935.0</ele>
        <time>2018-07-14T12:21:07Z</time>
      </trkpt>
      <trkpt lat="40.450233" lon="-5.286383">
        <ele>1938.0</ele>
        <time>2018-07-14T12:21:08Z</time>
      </trkpt>
      <trkpt lat="40.450233" lon="-5.286267">
        <ele>1942.0</ele>
        <time>2018-07-14T12:21:09Z</time>
      </trkpt>
      <trkpt lat="40.450217" lon="-5.286150">
        <ele>1945.0</ele>
        <time>2018-07-14T12:21:10Z</time>
      </trkpt>
      <trkpt lat="40.450167" lon="-5.286017">
        <ele>1948.0</ele>
        <time>2018-07-14T12:21:11Z</time>
      </trkpt>
      <trkpt lat="40.450117" lon="-5.285900">
        <ele>1950.0</ele>
        <time>2018-07-14T12:21:12Z</time>
      </trkpt>
      <trkpt lat="40.450033" lon="-5.285800">
        <ele>1953.0</ele>
        <time>2018-07-14T12:21:13Z</time>
      </trkpt>
      <trkpt lat="40.449983" lon="-5.285733">
        <ele>1955.0</ele>
        <time>2018-07-14T12:21:14Z</time>
      </trkpt>
      <trkpt lat="40.449900" lon="-5.285733">
        <ele>1953.0</ele>
        <time>2018-07-14T12:21:15Z</time>
      </trkpt>
      <trkpt lat="40.449850" lon="-5.285767">
        <ele>1953.0</ele>
        <time>2018-07-14T12:21:16Z</time>
      </trkpt>
      <trkpt lat="40.449850" lon="-5.285817">
        <ele>1954.0</ele>
        <time>2018-07-14T12:21:17Z</time>
      </trkpt>
      <trkpt lat="40.449850" lon="-5.285900">
        <ele>1955.0</ele>
        <time>2018-07-14T12:21:18Z</time>
      </trkpt>
      <trkpt lat="40.449883" lon="-5.285950">
        <ele>1957.0</ele>
        <time>2018-07-14T12:21:19Z</time>
      </trkpt>
      <trkpt lat="40.449933" lon="-5.285967">
        <ele>1959.0</ele>
        <time>2018-07-14T12:21:20Z</time>
      </trkpt>
      <trkpt lat="40.450000" lon="-5.285950">
        <ele>1961.0</ele>
        <time>2018-07-14T12:21:21Z</time>
      </trkpt>
      <trkpt lat="40.450083" lon="-5.285917">
        <ele>1964.0</ele>
        <time>2018-07-14T12:21:22Z</time>
      </trkpt>
      <trkpt lat="40.450183" lon="-5.285867">
        <ele>1966.0</ele>
        <time>2018-07-14T12:21:23Z</time>
      </trkpt>
      <trkpt lat="40.450267" lon="-5.285783">
        <ele>1969.0</ele>
        <time>2018-07-14T12:21:24Z</time>
      </trkpt>
      <trkpt lat="40.450300" lon="-5.285650">
        <ele>1973.0</ele>
        <time>2018-07-14T12:21:25Z</time>
      </trkpt>
      <trkpt lat="40.450300" lon="-5.285500">
        <ele>1976.0</ele>
        <time>2018-07-14T12:21:26Z</time>
      </trkpt>
      <trkpt lat="40.450250" lon="-5.285333">
        <ele>1979.0</ele>
        <time>2018-07-14T12:21:27Z</time>
      </trkpt>
      <trkpt lat="40.450167" lon="-5.285217">
        <ele>1982.0</ele>
        <time>2018-07-14T12:21:28Z</time>
      </trkpt>
      <trkpt lat="40.450083" lon="-5.285150">
        <ele>1986.0</ele>
        <time>2018-07-14T12:21:29Z</time>
      </trkpt>
      <trkpt lat="40.450000" lon="-5.285150">
        <ele>1991.0</ele>
        <time>2018-07-14T12:21:30Z</time>
      </trkpt>
      <trkpt lat="40.449917" lon="-5.285167">
        <ele>1994.0</ele>
        <time>2018-07-14T12:21:31Z</time>
      </trkpt>
      <trkpt lat="40.449850" lon="-5.285200">
        <ele>1997.0</ele>
        <time>2018-07-14T12:21:32Z</time>
      </trkpt>
      <trkpt lat="40.449833" lon="-5.285300">
        <ele>2001.0</ele>
        <time>2018-07-14T12:21:34Z</time>
      </trkpt>
      <trkpt lat="40.449867" lon="-5.285383">
        <ele>1995.0</ele>
        <time>2018-07-14T12:21:35Z</time>
      </trkpt>
      <trkpt lat="40.449917" lon="-5.285467">
        <ele>1996.0</ele>
        <time>2018-07-14T12:21:36Z</time>
      </trkpt>
      <trkpt lat="40.450017" lon="-5.285500">
        <ele>1998.0</ele>
        <time>2018-07-14T12:21:37Z</time>
      </trkpt>
      <trkpt lat="40.450117" lon="-5.285467">
        <ele>1999.0</ele>
        <time>2018-07-14T12:21:38Z</time>
      </trkpt>
      <trkpt lat="40.450183" lon="-5.285383">
        <ele>2000.0</ele>
        <time>2018-07-14T12:21:39Z</time>
      </trkpt>
      <trkpt lat="40.450217" lon="-5.285250">
        <ele>2002.0</ele>
        <time>2018-07-14T12:21:40Z</time>
      </trkpt>
      <trkpt lat="40.450217" lon="-5.285083">
        <ele>2005.0</ele>
        <time>2018-07-14T12:21:41Z</time>
      </trkpt>
      <trkpt lat="40.450183" lon="-5.284933">
        <ele>2007.0</ele>
        <time>2018-07-14T12:21:42Z</time>
      </trkpt>
      <trkpt lat="40.450117" lon="-5.284800">
        <ele>2009.0</ele>
        <time>2018-07-14T12:21:43Z</time>
      </trkpt>
      <trkpt lat="40.450033" lon="-5.284700">
        <ele>2012.0</ele>
        <time>2018-07-14T12:21:44Z</time>
      </trkpt>
      <trkpt lat="40.449950" lon="-5.284650">
        <ele>2015.0</ele>
        <time>2018-07-14T12:21:45Z</time>
      </trkpt>
      <trkpt lat="40.449850" lon="-5.284617">
        <ele>2018.0</ele>
        <time>2018-07-14T12:21:46Z</time>
      </trkpt>
      <trkpt lat="40.449783" lon="-5.284633">
        <ele>2021.0</ele>
        <time>2018-07-14T12:21:47Z</time>
      </trkpt>
      <trkpt lat="40.449733" lon="-5.284650">
        <ele>2022.0</ele>
        <time>2018-07-14T12:21:48Z</time>
      </trkpt>
      <trkpt lat="40.449700" lon="-5.284700">
        <ele>2020.0</ele>
        <time>2018-07-14T12:21:49Z</time>
      </trkpt>
      <trkpt lat="40.449683" lon="-5.284767">
        <ele>2020.0</ele>
        <time>2018-07-14T12:21:50Z</time>
      </trkpt>
      <trkpt lat="40.449683" lon="-5.284850">
        <ele>2021.0</ele>
        <time>2018-07-14T12:21:51Z</time>
      </trkpt>
      <trkpt lat="40.449717" lon="-5.284933">
        <ele>2022.0</ele>
        <time>2018-07-14T12:21:52Z</time>
      </trkpt>
      <trkpt lat="40.449783" lon="-5.284967">
        <ele>2024.0</ele>
        <time>2018-07-14T12:21:53Z</time>
      </trkpt>
      <trkpt lat="40.449867" lon="-5.284950">
        <ele>2025.0</ele>
        <time>2018-07-14T12:21:54Z</time>
      </trkpt>
      <trkpt lat="40.449950" lon="-5.284867">
        <ele>2025.0</ele>
        <time>2018-07-14T12:21:55Z</time>
      </trkpt>
      <trkpt lat="40.450000" lon="-5.284733">
        <ele>2026.0</ele>
        <time>2018-07-14T12:21:56Z</time>
      </trkpt>
      <trkpt lat="40.450017" lon="-5.284567">
        <ele>2027.0</ele>
        <time>2018-07-14T12:21:57Z</time>
      </trkpt>
      <trkpt lat="40.449967" lon="-5.284417">
        <ele>2029.0</ele>
        <time>2018-07-14T12:21:58Z</time>
      </trkpt>
      <trkpt lat="40.449900" lon="-5.284317">
        <ele>2032.0</ele>
        <time>2018-07-14T12:21:59Z</time>
      </trkpt>
      <trkpt lat="40.449817" lon="-5.284233">
        <ele>2035.0</ele>
        <time>2018-07-14T12:22:00Z</time>
      </trkpt>
      <trkpt lat="40.449750" lon="-5.284183">
        <ele>2038.0</ele>
        <time>2018-07-14T12:22:01Z</time>
      </trkpt>
      <trkpt lat="40.449700" lon="-5.284133">
        <ele>2040.0</ele>
        <time>2018-07-14T12:22:02Z</time>
      </trkpt>
      <trkpt lat="40.449617" lon="-5.284083">
        <ele>2039.0</ele>
        <time>2018-07-14T12:22:03Z</time>
      </trkpt>
      <trkpt lat="40.449533" lon="-5.284067">
        <ele>2039.0</ele>
        <time>2018-07-14T12:22:04Z</time>
      </trkpt>
      <trkpt lat="40.449450" lon="-5.284117">
        <ele>2040.0</ele>
        <time>2018-07-14T12:22:06Z</time>
      </trkpt>
      <trkpt lat="40.449467" lon="-5.284167">
        <ele>2040.0</ele>
        <time>2018-07-14T12:22:07Z</time>
      </trkpt>
      <trkpt lat="40.449500" lon="-5.284233">
        <ele>2043.0</ele>
        <time>2018-07-14T12:22:09Z</time>
      </trkpt>
      <trkpt lat="40.449533" lon="-5.284300">
        <ele>2043.0</ele>
        <time>2018-07-14T12:22:10Z</time>
      </trkpt>
      <trkpt lat="40.449550" lon="-5.284383">
        <ele>2044.0</ele>
        <time>2018-07-14T12:22:11Z</time>
      </trkpt>
      <trkpt lat="40.449600" lon="-5.284433">
        <ele>2046.0</ele>
        <time>2018-07-14T12:22:12Z</time>
      </trkpt>
      <trkpt lat="40.449683" lon="-5.284450">
        <ele>2047.0</ele>
        <time>2018-07-14T12:22:13Z</time>
      </trkpt>
      <trkpt lat="40.449767" lon="-5.284400">
        <ele>2047.0</ele>
        <time>2018-07-14T12:22:14Z</time>
      </trkpt>
      <trkpt lat="40.449850" lon="-5.284317">
        <ele>2047.0</ele>
        <time>2018-07-14T12:22:15Z</time>
      </trkpt>
      <trkpt lat="40.449883" lon="-5.284200">
        <ele>2049.0</ele>
        <time>2018-07-14T12:22:16Z</time>
      </trkpt>
      <trkpt lat="40.449850" lon="-5.283950">
        <ele>2052.0</ele>
        <time>2018-07-14T12:22:18Z</time>
      </trkpt>
      <trkpt lat="40.449783" lon="-5.283850">
        <ele>2053.0</ele>
        <time>2018-07-14T12:22:19Z</time>
      </trkpt>
      <trkpt lat="40.449717" lon="-5.283783">
        <ele>2054.0</ele>
        <time>2018-07-14T12:22:20Z</time>
      </trkpt>
      <trkpt lat="40.449633" lon="-5.283767">
        <ele>2055.0</ele>
        <time>2018-07-14T12:22:21Z</time>
      </trkpt>
      <trkpt lat="40.449567" lon="-5.283800">
        <ele>2056.0</ele>
        <time>2018-07-14T12:22:22Z</time>
      </trkpt>
      <trkpt lat="40.449533" lon="-5.283867">
        <ele>2057.0</ele>
        <time>2018-07-14T12:22:23Z</time>
      </trkpt>
      <trkpt lat="40.449550" lon="-5.284000">
        <ele>2057.0</ele>
        <time>2018-07-14T12:22:25Z</time>
      </trkpt>
      <trkpt lat="40.449567" lon="-5.284083">
        <ele>2058.0</ele>
        <time>2018-07-14T12:22:26Z</time>
      </trkpt>
      <trkpt lat="40.449617" lon="-5.284133">
        <ele>2059.0</ele>
        <time>2018-07-14T12:22:27Z</time>
      </trkpt>
      <trkpt lat="40.449967" lon="-5.284067">
        <ele>0.0</ele>
        <time>2018-07-14T12:22:32Z</time>
      </trkpt>
      <trkpt lat="40.450000" lon="-5.283933">
        <ele>2056.0</ele>
        <time>2018-07-14T12:22:33Z</time>
      </trkpt>
      <trkpt lat="40.450033" lon="-5.283700">
        <ele>2066.0</ele>
        <time>2018-07-14T12:22:34Z</time>
      </trkpt>
      <trkpt lat="40.450000" lon="-5.283517">
        <ele>2071.0</ele>
        <time>2018-07-14T12:22:35Z</time>
      </trkpt>
      <trkpt lat="40.449917" lon="-5.283400">
        <ele>2075.0</ele>
        <time>2018-07-14T12:22:36Z</time>
      </trkpt>
      <trkpt lat="40.449817" lon="-5.283317">
        <ele>2077.0</ele>
        <time>2018-07-14T12:22:37Z</time>
      </trkpt>
      <trkpt lat="40.449750" lon="-5.283317">
        <ele>2080.0</ele>
        <time>2018-07-14T12:22:38Z</time>
      </trkpt>
      <trkpt lat="40.449667" lon="-5.283333">
        <ele>2083.0</ele>
        <time>2018-07-14T12:22:39Z</time>
      </trkpt>
      <trkpt lat="40.449600" lon="-5.283383">
        <ele>2086.0</ele>
        <time>2018-07-14T12:22:40Z</time>
      </trkpt>
      <trkpt lat="40.449567" lon="-5.283417">
        <ele>2088.0</ele>
        <time>2018-07-14T12:22:41Z</time>
      </trkpt>
      <trkpt lat="40.449500" lon="-5.283467">
        <ele>2088.0</ele>
        <time>2018-07-14T12:22:42Z</time>
      </trkpt>
      <trkpt lat="40.449417" lon="-5.283600">
        <ele>2084.0</ele>
        <time>2018-07-14T12:22:43Z</time>
      </trkpt>
      <trkpt lat="40.449483" lon="-5.283717">
        <ele>2082.0</ele>
        <time>2018-07-14T12:22:44Z</time>
      </trkpt>
      <trkpt lat="40.449550" lon="-5.283817">
        <ele>2087.0</ele>
        <time>2018-07-14T12:22:45Z</time>
      </trkpt>
      <trkpt lat="40.449650" lon="-5.283850">
        <ele>2092.0</ele>
        <time>2018-07-14T12:22:46Z</time>
      </trkpt>
      <trkpt lat="40.449767" lon="-5.283817">
        <ele>2094.0</ele>
        <time>2018-07-14T12:22:47Z</time>
      </trkpt>
      <trkpt lat="40.449850" lon="-5.283733">
        <ele>2096.0</ele>
        <time>2018-07-14T12:22:48Z</time>
      </trkpt>
      <trkpt lat="40.449917" lon="-5.283617">
        <ele>2099.0</ele>
        <time>2018-07-14T12:22:49Z</time>
      </trkpt>
      <trkpt lat="40.449917" lon="-5.283500">
        <ele>2102.0</ele>
        <time>2018-07-14T12:22:50Z</time>
      </trkpt>
      <trkpt lat="40.449900" lon="-5.283367">
        <ele>2105.0</ele>
        <time>2018-07-14T12:22:51Z</time>
      </trkpt>
      <trkpt lat="40.449850" lon="-5.283217">
        <ele>2107.0</ele>
        <time>2018-07-14T12:22:52Z</time>
      </trkpt>
      <trkpt lat="40.449733" lon="-5.283100">
        <ele>2109.0</ele>
        <time>2018-07-14T12:22:53Z</time>
      </trkpt>
      <trkpt lat="40.449617" lon="-5.283083">
        <ele>2110.0</ele>
        <time>2018-07-14T12:22:54Z</time>
      </trkpt>
      <trkpt lat="40.449533" lon="-5.283133">
        <ele>2111.0</ele>
        <time>2018-07-14T12:22:55Z</time>
      </trkpt>
      <trkpt lat="40.449533" lon="-5.283183">
        <ele>2113.0</ele>
        <time>2018-07-14T12:22:56Z</time>
      </trkpt>
      <trkpt lat="40.449567" lon="-5.283250">
        <ele>2113.0</ele>
        <time>2018-07-14T12:22:57Z</time>
      </trkpt>
      <trkpt lat="40.449600" lon="-5.283317">
        <ele>2113.0</ele>
        <time>2018-07-14T12:22:58Z</time>
      </trkpt>
      <trkpt lat="40.449617" lon="-5.283400">
        <ele>2113.0</ele>
        <time>2018-07-14T12:22:59Z</time>
      </trkpt>
      <trkpt lat="40.449617" lon="-5.283517">
        <ele>2114.0</ele>
        <time>2018-07-14T12:23:00Z</time>
      </trkpt>
      <trkpt lat="40.449633" lon="-5.283600">
        <ele>2115.0</ele>
        <time>2018-07-14T12:23:01Z</time>
      </trkpt>
      <trkpt lat="40.449667" lon="-5.283667">
        <ele>2117.0</ele>
        <time>2018-07-14T12:23:02Z</time>
      </trkpt>
      <trkpt lat="40.449733" lon="-5.283700">
        <ele>2118.0</ele>
        <time>2018-07-14T12:23:03Z</time>
      </trkpt>
      <trkpt lat="40.449817" lon="-5.283683">
        <ele>2119.0</ele>
        <time>2018-07-14T12:23:04Z</time>
      </trkpt>
      <trkpt lat="40.449900" lon="-5.283617">
        <ele>2120.0</ele>
        <time>2018-07-14T12:23:05Z</time>
      </trkpt>
      <trkpt lat="40.449967" lon="-5.283500">
        <ele>2121.0</ele>
        <time>2018-07-14T12:23:06Z</time>
      </trkpt>
      <trkpt lat="40.449983" lon="-5.283367">
        <ele>2122.0</ele>
        <time>2018-07-14T12:23:07Z</time>
      </trkpt>
      <trkpt lat="40.449967" lon="-5.283217">
        <ele>2124.0</ele>
        <time>2018-07-14T12:23:08Z</time>
      </trkpt>
      <trkpt lat="40.449933" lon="-5.283067">
        <ele>2126.0</ele>
        <time>2018-07-14T12:23:09Z</time>
      </trkpt>
      <trkpt lat="40.449867" lon="-5.282917">
        <ele>2129.0</ele>
        <time>2018-07-14T12:23:10Z</time>
      </trkpt>
      <trkpt lat="40.449800" lon="-5.282800">
        <ele>2133.0</ele>
        <time>2018-07-14T12:23:11Z</time>
      </trkpt>
      <trkpt lat="40.449733" lon="-5.282667">
        <ele>2137.0</ele>
        <time>2018-07-14T12:23:12Z</time>
      </trkpt>
      <trkpt lat="40.449667" lon="-5.282567">
        <ele>2141.0</ele>
        <time>2018-07-14T12:23:13Z</time>
      </trkpt>
      <trkpt lat="40.449600" lon="-5.282467">
        <ele>2145.0</ele>
        <time>2018-07-14T12:23:14Z</time>
      </trkpt>
      <trkpt lat="40.449533" lon="-5.282367">
        <ele>2150.0</ele>
        <time>2018-07-14T12:23:15Z</time>
      </trkpt>
      <trkpt lat="40.449467" lon="-5.282300">
        <ele>2154.0</ele>
        <time>2018-07-14T12:23:16Z</time>
      </trkpt>
      <trkpt lat="40.449383" lon="-5.282250">
        <ele>2158.0</ele>
        <time>2018-07-14T12:23:17Z</time>
      </trkpt>
      <trkpt lat="40.449300" lon="-5.282217">
        <ele>2161.0</ele>
        <time>2018-07-14T12:23:18Z</time>
      </trkpt>
      <trkpt lat="40.449217" lon="-5.282200">
        <ele>2164.0</ele>
        <time>2018-07-14T12:23:19Z</time>
      </trkpt>
      <trkpt lat="40.449150" lon="-5.282217">
        <ele>2168.0</ele>
        <time>2018-07-14T12:23:20Z</time>
      </trkpt>
      <trkpt lat="40.449100" lon="-5.282267">
        <ele>2171.0</ele>
        <time>2018-07-14T12:23:21Z</time>
      </trkpt>
      <trkpt lat="40.449100" lon="-5.282333">
        <ele>2175.0</ele>
        <time>2018-07-14T12:23:22Z</time>
      </trkpt>
      <trkpt lat="40.449167" lon="-5.282383">
        <ele>2178.0</ele>
        <time>2018-07-14T12:23:23Z</time>
      </trkpt>
      <trkpt lat="40.449217" lon="-5.282467">
        <ele>2173.0</ele>
        <time>2018-07-14T12:23:24Z</time>
      </trkpt>
      <trkpt lat="40.449283" lon="-5.282517">
        <ele>2173.0</ele>
        <time>2018-07-14T12:23:25Z</time>
      </trkpt>
      <trkpt lat="40.449350" lon="-5.282533">
        <ele>2174.0</ele>
        <time>2018-07-14T12:23:26Z</time>
      </trkpt>
      <trkpt lat="40.449433" lon="-5.282500">
        <ele>2175.0</ele>
        <time>2018-07-14T12:23:27Z</time>
      </trkpt>
      <trkpt lat="40.449500" lon="-5.282400">
        <ele>2176.0</ele>
        <time>2018-07-14T12:23:28Z</time>
      </trkpt>
      <trkpt lat="40.449533" lon="-5.282267">
        <ele>2177.0</ele>
        <time>2018-07-14T12:23:29Z</time>
      </trkpt>
      <trkpt lat="40.449533" lon="-5.282117">
        <ele>2179.0</ele>
        <time>2018-07-14T12:23:30Z</time>
      </trkpt>
      <trkpt lat="40.449483" lon="-5.281983">
        <ele>2181.0</ele>
        <time>2018-07-14T12:23:31Z</time>
      </trkpt>
      <trkpt lat="40.449417" lon="-5.281867">
        <ele>2182.0</ele>
        <time>2018-07-14T12:23:32Z</time>
      </trkpt>
      <trkpt lat="40.449333" lon="-5.281833">
        <ele>2183.0</ele>
        <time>2018-07-14T12:23:33Z</time>
      </trkpt>
      <trkpt lat="40.449267" lon="-5.281817">
        <ele>2183.0</ele>
        <time>2018-07-14T12:23:34Z</time>
      </trkpt>
      <trkpt lat="40.449217" lon="-5.281800">
        <ele>2184.0</ele>
        <time>2018-07-14T12:23:35Z</time>
      </trkpt>
      <trkpt lat="40.449183" lon="-5.281817">
        <ele>2187.0</ele>
        <time>2018-07-14T12:23:36Z</time>
      </trkpt>
      <trkpt lat="40.449183" lon="-5.281850">
        <ele>2189.0</ele>
        <time>2018-07-14T12:23:37Z</time>
      </trkpt>
      <trkpt lat="40.449167" lon="-5.281950">
        <ele>2189.0</ele>
        <time>2018-07-14T12:23:38Z</time>
      </trkpt>
      <trkpt lat="40.449167" lon="-5.282083">
        <ele>2191.0</ele>
        <time>2018-07-14T12:23:39Z</time>
      </trkpt>
      <trkpt lat="40.449217" lon="-5.282183">
        <ele>2193.0</ele>
        <time>2018-07-14T12:23:40Z</time>
      </trkpt>
      <trkpt lat="40.449283" lon="-5.282250">
        <ele>2194.0</ele>
        <time>2018-07-14T12:23:41Z</time>
      </trkpt>
      <trkpt lat="40.449367" lon="-5.282233">
        <ele>2196.0</ele>
        <time>2018-07-14T12:23:42Z</time>
      </trkpt>
      <trkpt lat="40.449433" lon="-5.282167">
        <ele>2197.0</ele>
        <time>2018-07-14T12:23:43Z</time>
      </trkpt>
      <trkpt lat="40.449467" lon="-5.282050">
        <ele>2199.0</ele>
        <time>2018-07-14T12:23:44Z</time>
      </trkpt>
      <trkpt lat="40.449483" lon="-5.281933">
        <ele>2201.0</ele>
        <time>2018-07-14T12:23:45Z</time>
      </trkpt>
      <trkpt lat="40.449483" lon="-5.281800">
        <ele>2203.0</ele>
        <time>2018-07-14T12:23:46Z</time>
      </trkpt>
      <trkpt lat="40.449450" lon="-5.281667">
        <ele>2206.0</ele>
        <time>2018-07-14T12:23:47Z</time>
      </trkpt>
      <trkpt lat="40.449383" lon="-5.281533">
        <ele>2209.0</ele>
        <time>2018-07-14T12:23:48Z</time>
      </trkpt>
      <trkpt lat="40.449317" lon="-5.281433">
        <ele>2211.0</ele>
        <time>2018-07-14T12:23:49Z</time>
      </trkpt>
      <trkpt lat="40.449233" lon="-5.281350">
        <ele>2214.0</ele>
        <time>2018-07-14T12:23:50Z</time>
      </trkpt>
      <trkpt lat="40.449133" lon="-5.281317">
        <ele>2218.0</ele>
        <time>2018-07-14T12:23:51Z</time>
      </trkpt>
      <trkpt lat="40.449050" lon="-5.281283">
        <ele>2221.0</ele>
        <time>2018-07-14T12:23:52Z</time>
      </trkpt>
      <trkpt lat="40.448983" lon="-5.281267">
        <ele>2224.0</ele>
        <time>2018-07-14T12:23:53Z</time>
      </trkpt>
      <trkpt lat="40.448900" lon="-5.281267">
        <ele>2227.0</ele>
        <time>2018-07-14T12:23:54Z</time>
      </trkpt>
      <trkpt lat="40.448833" lon="-5.281283">
        <ele>2230.0</ele>
        <time>2018-07-14T12:23:55Z</time>
      </trkpt>
      <trkpt lat="40.448767" lon="-5.281333">
        <ele>2232.0</ele>
        <time>2018-07-14T12:23:56Z</time>
      </trkpt>
      <trkpt lat="40.448700" lon="-5.281400">
        <ele>2234.0</ele>
        <time>2018-07-14T12:23:57Z</time>
      </trkpt>
      <trkpt lat="40.448683" lon="-5.281483">
        <ele>2236.0</ele>
        <time>2018-07-14T12:23:58Z</time>
      </trkpt>
      <trkpt lat="40.448683" lon="-5.281567">
        <ele>2237.0</ele>
        <time>2018-07-14T12:23:59Z</time>
      </trkpt>
      <trkpt lat="40.448733" lon="-5.281650">
        <ele>2237.0</ele>
        <time>2018-07-14T12:24:00Z</time>
      </trkpt>
      <trkpt lat="40.448800" lon="-5.281700">
        <ele>2238.0</ele>
        <time>2018-07-14T12:24:01Z</time>
      </trkpt>
      <trkpt lat="40.448883" lon="-5.281700">
        <ele>2239.0</ele>
        <time>2018-07-14T12:24:02Z</time>
      </trkpt>
      <trkpt lat="40.448967" lon="-5.281633">
        <ele>2239.0</ele>
        <time>2018-07-14T12:24:03Z</time>
      </trkpt>
      <trkpt lat="40.449033" lon="-5.281517">
        <ele>2239.0</ele>
        <time>2018-07-14T12:24:04Z</time>
      </trkpt>
      <trkpt lat="40.449050" lon="-5.281367">
        <ele>2239.0</ele>
        <time>2018-07-14T12:24:05Z</time>
      </trkpt>
      <trkpt lat="40.449033" lon="-5.281217">
        <ele>2239.0</ele>
        <time>2018-07-14T12:24:06Z</time>
      </trkpt>
      <trkpt lat="40.448983" lon="-5.281067">
        <ele>2240.0</ele>
        <time>2018-07-14T12:24:07Z</time>
      </trkpt>
      <trkpt lat="40.448933" lon="-5.280950">
        <ele>2242.0</ele>
        <time>2018-07-14T12:24:08Z</time>
      </trkpt>
      <trkpt lat="40.448867" lon="-5.280867">
        <ele>2244.0</ele>
        <time>2018-07-14T12:24:09Z</time>
      </trkpt>
      <trkpt lat="40.448783" lon="-5.280800">
        <ele>2246.0</ele>
        <time>2018-07-14T12:24:10Z</time>
      </trkpt>
      <trkpt lat="40.448683" lon="-5.280750">
        <ele>2249.0</ele>
        <time>2018-07-14T12:24:11Z</time>
      </trkpt>
      <trkpt lat="40.448600" lon="-5.280700">
        <ele>2251.0</ele>
        <time>2018-07-14T12:24:12Z</time>
      </trkpt>
      <trkpt lat="40.448517" lon="-5.280667">
        <ele>2252.0</ele>
        <time>2018-07-14T12:24:13Z</time>
      </trkpt>
      <trkpt lat="40.448433" lon="-5.280667">
        <ele>2253.0</ele>
        <time>2018-07-14T12:24:14Z</time>
      </trkpt>
      <trkpt lat="40.448350" lon="-5.280683">
        <ele>2252.0</ele>
        <time>2018-07-14T12:24:15Z</time>
      </trkpt>
      <trkpt lat="40.448233" lon="-5.280667">
        <ele>2249.0</ele>
        <time>2018-07-14T12:24:16Z</time>
      </trkpt>
      <trkpt lat="40.448133" lon="-5.280667">
        <ele>2247.0</ele>
        <time>2018-07-14T12:24:17Z</time>
      </trkpt>
      <trkpt lat="40.448050" lon="-5.280667">
        <ele>2247.0</ele>
        <time>2018-07-14T12:24:18Z</time>
      </trkpt>
      <trkpt lat="40.447983" lon="-5.280700">
        <ele>2248.0</ele>
        <time>2018-07-14T12:24:19Z</time>
      </trkpt>
      <trkpt lat="40.447917" lon="-5.280750">
        <ele>2248.0</ele>
        <time>2018-07-14T12:24:20Z</time>
      </trkpt>
      <trkpt lat="40.447867" lon="-5.280817">
        <ele>2247.0</ele>
        <time>2018-07-14T12:24:21Z</time>
      </trkpt>
      <trkpt lat="40.447800" lon="-5.280883">
        <ele>2247.0</ele>
        <time>2018-07-14T12:24:22Z</time>
      </trkpt>
      <trkpt lat="40.447767" lon="-5.280950">
        <ele>2246.0</ele>
        <time>2018-07-14T12:24:23Z</time>
      </trkpt>
      <trkpt lat="40.447750" lon="-5.281033">
        <ele>2246.0</ele>
        <time>2018-07-14T12:24:24Z</time>
      </trkpt>
      <trkpt lat="40.447783" lon="-5.281117">
        <ele>2245.0</ele>
        <time>2018-07-14T12:24:25Z</time>
      </trkpt>
      <trkpt lat="40.447850" lon="-5.281167">
        <ele>2243.0</ele>
        <time>2018-07-14T12:24:26Z</time>
      </trkpt>
      <trkpt lat="40.447933" lon="-5.281200">
        <ele>2240.0</ele>
        <time>2018-07-14T12:24:27Z</time>
      </trkpt>
      <trkpt lat="40.448000" lon="-5.281200">
        <ele>2240.0</ele>
        <time>2018-07-14T12:24:28Z</time>
      </trkpt>
      <trkpt lat="40.448067" lon="-5.281150">
        <ele>2238.0</ele>
        <time>2018-07-14T12:24:29Z</time>
      </trkpt>
      <trkpt lat="40.448117" lon="-5.281067">
        <ele>2237.0</ele>
        <time>2018-07-14T12:24:30Z</time>
      </trkpt>
      <trkpt lat="40.448167" lon="-5.280983">
        <ele>2236.0</ele>
        <time>2018-07-14T12:24:31Z</time>
      </trkpt>
      <trkpt lat="40.448233" lon="-5.280867">
        <ele>2240.0</ele>
        <time>2018-07-14T12:24:32Z</time>
      </trkpt>
      <trkpt lat="40.448300" lon="-5.280733">
        <ele>2240.0</ele>
        <time>2018-07-14T12:24:33Z</time>
      </trkpt>
      <trkpt lat="40.448367" lon="-5.280633">
        <ele>2239.0</ele>
        <time>2018-07-14T12:24:34Z</time>
      </trkpt>
      <trkpt lat="40.448433" lon="-5.280533">
        <ele>2239.0</ele>
        <time>2018-07-14T12:24:35Z</time>
      </trkpt>
      <trkpt lat="40.448500" lon="-5.280450">
        <ele>2239.0</ele>
        <time>2018-07-14T12:24:36Z</time>
      </trkpt>
      <trkpt lat="40.448567" lon="-5.280333">
        <ele>2238.0</ele>
        <time>2018-07-14T12:24:37Z</time>
      </trkpt>
      <trkpt lat="40.448633" lon="-5.280233">
        <ele>2238.0</ele>
        <time>2018-07-14T12:24:38Z</time>
      </trkpt>
      <trkpt lat="40.448683" lon="-5.280117">
        <ele>2237.0</ele>
        <time>2018-07-14T12:24:39Z</time>
      </trkpt>
      <trkpt lat="40.448750" lon="-5.280000">
        <ele>2236.0</ele>
        <time>2018-07-14T12:24:40Z</time>
      </trkpt>
      <trkpt lat="40.448783" lon="-5.279900">
        <ele>2236.0</ele>
        <time>2018-07-14T12:24:41Z</time>
      </trkpt>
      <trkpt lat="40.448833" lon="-5.279800">
        <ele>2236.0</ele>
        <time>2018-07-14T12:24:42Z</time>
      </trkpt>
      <trkpt lat="40.448883" lon="-5.279700">
        <ele>2236.0</ele>
        <time>2018-07-14T12:24:43Z</time>
      </trkpt>
      <trkpt lat="40.448933" lon="-5.279567">
        <ele>2234.0</ele>
        <time>2018-07-14T12:24:44Z</time>
      </trkpt>
      <trkpt lat="40.448983" lon="-5.279417">
        <ele>2233.0</ele>
        <time>2018-07-14T12:24:45Z</time>
      </trkpt>
      <trkpt lat="40.449033" lon="-5.279267">
        <ele>2232.0</ele>
        <time>2018-07-14T12:24:46Z</time>
      </trkpt>
      <trkpt lat="40.449100" lon="-5.279117">
        <ele>2233.0</ele>
        <time>2018-07-14T12:24:47Z</time>
      </trkpt>
      <trkpt lat="40.449167" lon="-5.279000">
        <ele>2234.0</ele>
        <time>2018-07-14T12:24:48Z</time>
      </trkpt>
      <trkpt lat="40.449233" lon="-5.278917">
        <ele>2234.0</ele>
        <time>2018-07-14T12:24:49Z</time>
      </trkpt>
      <trkpt lat="40.449300" lon="-5.278833">
        <ele>2236.0</ele>
        <time>2018-07-14T12:24:50Z</time>
      </trkpt>
      <trkpt lat="40.449350" lon="-5.278750">
        <ele>2237.0</ele>
        <time>2018-07-14T12:24:51Z</time>
      </trkpt>
      <trkpt lat="40.449417" lon="-5.278650">
        <ele>2236.0</ele>
        <time>2018-07-14T12:24:52Z</time>
      </trkpt>
      <trkpt lat="40.449467" lon="-5.278550">
        <ele>2235.0</ele>
        <time>2018-07-14T12:24:53Z</time>
      </trkpt>
      <trkpt lat="40.449550" lon="-5.278450">
        <ele>2233.0</ele>
        <time>2018-07-14T12:24:54Z</time>
      </trkpt>
      <trkpt lat="40.449633" lon="-5.278367">
        <ele>2230.0</ele>
        <time>2018-07-14T12:24:55Z</time>
      </trkpt>
      <trkpt lat="40.449700" lon="-5.278283">
        <ele>2227.0</ele>
        <time>2018-07-14T12:24:56Z</time>
      </trkpt>
      <trkpt lat="40.449767" lon="-5.278183">
        <ele>2226.0</ele>
        <time>2018-07-14T12:24:57Z</time>
      </trkpt>
      <trkpt lat="40.449833" lon="-5.278100">
        <ele>2224.0</ele>
        <time>2018-07-14T12:24:58Z</time>
      </trkpt>
      <trkpt lat="40.449900" lon="-5.278033">
        <ele>2223.0</ele>
        <time>2018-07-14T12:24:59Z</time>
      </trkpt>
      <trkpt lat="40.449983" lon="-5.277983">
        <ele>2221.0</ele>
        <time>2018-07-14T12:25:00Z</time>
      </trkpt>
      <trkpt lat="40.450167" lon="-5.277883">
        <ele>2219.0</ele>
        <time>2018-07-14T12:25:02Z</time>
      </trkpt>
      <trkpt lat="40.450250" lon="-5.277833">
        <ele>2219.0</ele>
        <time>2018-07-14T12:25:03Z</time>
      </trkpt>
      <trkpt lat="40.450333" lon="-5.277783">
        <ele>2218.0</ele>
        <time>2018-07-14T12:25:04Z</time>
      </trkpt>
      <trkpt lat="40.450417" lon="-5.277717">
        <ele>2217.0</ele>
        <time>2018-07-14T12:25:05Z</time>
      </trkpt>
      <trkpt lat="40.450500" lon="-5.277667">
        <ele>2216.0</ele>
        <time>2018-07-14T12:25:06Z</time>
      </trkpt>
      <trkpt lat="40.450583" lon="-5.277600">
        <ele>2216.0</ele>
        <time>2018-07-14T12:25:07Z</time>
      </trkpt>
      <trkpt lat="40.450650" lon="-5.277517">
        <ele>2218.0</ele>
        <time>2018-07-14T12:25:08Z</time>
      </trkpt>
      <trkpt lat="40.450733" lon="-5.277450">
        <ele>2220.0</ele>
        <time>2018-07-14T12:25:09Z</time>
      </trkpt>
      <trkpt lat="40.450783" lon="-5.277400">
        <ele>2221.0</ele>
        <time>2018-07-14T12:25:10Z</time>
      </trkpt>
      <trkpt lat="40.450833" lon="-5.277350">
        <ele>2223.0</ele>
        <time>2018-07-14T12:25:11Z</time>
      </trkpt>
      <trkpt lat="40.450883" lon="-5.277283">
        <ele>2224.0</ele>
        <time>2018-07-14T12:25:12Z</time>
      </trkpt>
      <trkpt lat="40.450950" lon="-5.277200">
        <ele>2224.0</ele>
        <time>2018-07-14T12:25:13Z</time>
      </trkpt>
      <trkpt lat="40.451017" lon="-5.277100">
        <ele>2224.0</ele>
        <time>2018-07-14T12:25:14Z</time>
      </trkpt>
      <trkpt lat="40.451067" lon="-5.277000">
        <ele>2224.0</ele>
        <time>2018-07-14T12:25:15Z</time>
      </trkpt>
      <trkpt lat="40.451100" lon="-5.276900">
        <ele>2224.0</ele>
        <time>2018-07-14T12:25:16Z</time>
      </trkpt>
      <trkpt lat="40.451133" lon="-5.276817">
        <ele>2225.0</ele>
        <time>2018-07-14T12:25:17Z</time>
      </trkpt>
      <trkpt lat="40.451150" lon="-5.276733">
        <ele>2226.0</ele>
        <time>2018-07-14T12:25:18Z</time>
      </trkpt>
      <trkpt lat="40.451200" lon="-5.276633">
        <ele>2227.0</ele>
        <time>2018-07-14T12:25:19Z</time>
      </trkpt>
      <trkpt lat="40.451250" lon="-5.276550">
        <ele>2227.0</ele>
        <time>2018-07-14T12:25:20Z</time>
      </trkpt>
      <trkpt lat="40.451300" lon="-5.276450">
        <ele>2228.0</ele>
        <time>2018-07-14T12:25:21Z</time>
      </trkpt>
      <trkpt lat="40.451333" lon="-5.276367">
        <ele>2229.0</ele>
        <time>2018-07-14T12:25:22Z</time>
      </trkpt>
      <trkpt lat="40.451367" lon="-5.276283">
        <ele>2229.0</ele>
        <time>2018-07-14T12:25:23Z</time>
      </trkpt>
      <trkpt lat="40.451383" lon="-5.276183">
        <ele>2229.0</ele>
        <time>2018-07-14T12:25:24Z</time>
      </trkpt>
      <trkpt lat="40.451433" lon="-5.276083">
        <ele>2229.0</ele>
        <time>2018-07-14T12:25:25Z</time>
      </trkpt>
      <trkpt lat="40.451483" lon="-5.275967">
        <ele>2227.0</ele>
        <time>2018-07-14T12:25:26Z</time>
      </trkpt>
      <trkpt lat="40.451533" lon="-5.275867">
        <ele>2227.0</ele>
        <time>2018-07-14T12:25:27Z</time>
      </trkpt>
      <trkpt lat="40.451567" lon="-5.275767">
        <ele>2226.0</ele>
        <time>2018-07-14T12:25:28Z</time>
      </trkpt>
      <trkpt lat="40.451617" lon="-5.275667">
        <ele>2227.0</ele>
        <time>2018-07-14T12:25:29Z</time>
      </trkpt>
      <trkpt lat="40.451650" lon="-5.275550">
        <ele>2225.0</ele>
        <time>2018-07-14T12:25:30Z</time>
      </trkpt>
      <trkpt lat="40.451683" lon="-5.275450">
        <ele>2225.0</ele>
        <time>2018-07-14T12:25:31Z</time>
      </trkpt>
      <trkpt lat="40.451733" lon="-5.275333">
        <ele>2224.0</ele>
        <time>2018-07-14T12:25:32Z</time>
      </trkpt>
      <trkpt lat="40.451783" lon="-5.275233">
        <ele>2223.0</ele>
        <time>2018-07-14T12:25:33Z</time>
      </trkpt>
      <trkpt lat="40.451817" lon="-5.275133">
        <ele>2223.0</ele>
        <time>2018-07-14T12:25:34Z</time>
      </trkpt>
      <trkpt lat="40.451850" lon="-5.275033">
        <ele>2222.0</ele>
        <time>2018-07-14T12:25:35Z</time>
      </trkpt>
      <trkpt lat="40.451883" lon="-5.274933">
        <ele>2222.0</ele>
        <time>2018-07-14T12:25:36Z</time>
      </trkpt>
      <trkpt lat="40.451917" lon="-5.274817">
        <ele>2220.0</ele>
        <time>2018-07-14T12:25:37Z</time>
      </trkpt>
      <trkpt lat="40.451950" lon="-5.274700">
        <ele>2219.0</ele>
        <time>2018-07-14T12:25:38Z</time>
      </trkpt>
      <trkpt lat="40.451983" lon="-5.274600">
        <ele>2218.0</ele>
        <time>2018-07-14T12:25:39Z</time>
      </trkpt>
      <trkpt lat="40.452017" lon="-5.274483">
        <ele>2217.0</ele>
        <time>2018-07-14T12:25:40Z</time>
      </trkpt>
      <trkpt lat="40.452033" lon="-5.274367">
        <ele>2216.0</ele>
        <time>2018-07-14T12:25:41Z</time>
      </trkpt>
      <trkpt lat="40.452067" lon="-5.274250">
        <ele>2214.0</ele>
        <time>2018-07-14T12:25:42Z</time>
      </trkpt>
      <trkpt lat="40.452083" lon="-5.274133">
        <ele>2213.0</ele>
        <time>2018-07-14T12:25:43Z</time>
      </trkpt>
      <trkpt lat="40.452100" lon="-5.274000">
        <ele>2212.0</ele>
        <time>2018-07-14T12:25:44Z</time>
      </trkpt>
      <trkpt lat="40.452117" lon="-5.273883">
        <ele>2211.0</ele>
        <time>2018-07-14T12:25:45Z</time>
      </trkpt>
      <trkpt lat="40.452133" lon="-5.273750">
        <ele>2209.0</ele>
        <time>2018-07-14T12:25:46Z</time>
      </trkpt>
      <trkpt lat="40.452133" lon="-5.273617">
        <ele>2208.0</ele>
        <time>2018-07-14T12:25:47Z</time>
      </trkpt>
      <trkpt lat="40.452133" lon="-5.273500">
        <ele>2206.0</ele>
        <time>2018-07-14T12:25:48Z</time>
      </trkpt>
      <trkpt lat="40.452133" lon="-5.273350">
        <ele>2205.0</ele>
        <time>2018-07-14T12:25:49Z</time>
      </trkpt>
      <trkpt lat="40.452133" lon="-5.273233">
        <ele>2203.0</ele>
        <time>2018-07-14T12:25:50Z</time>
      </trkpt>
      <trkpt lat="40.452150" lon="-5.273100">
        <ele>2202.0</ele>
        <time>2018-07-14T12:25:51Z</time>
      </trkpt>
      <trkpt lat="40.452150" lon="-5.272967">
        <ele>2201.0</ele>
        <time>2018-07-14T12:25:52Z</time>
      </trkpt>
      <trkpt lat="40.452150" lon="-5.272850">
        <ele>2200.0</ele>
        <time>2018-07-14T12:25:53Z</time>
      </trkpt>
      <trkpt lat="40.452150" lon="-5.272717">
        <ele>2199.0</ele>
        <time>2018-07-14T12:25:54Z</time>
      </trkpt>
      <trkpt lat="40.452150" lon="-5.272567">
        <ele>2197.0</ele>
        <time>2018-07-14T12:25:55Z</time>
      </trkpt>
      <trkpt lat="40.452150" lon="-5.272433">
        <ele>2196.0</ele>
        <time>2018-07-14T12:25:56Z</time>
      </trkpt>
      <trkpt lat="40.452150" lon="-5.272300">
        <ele>2195.0</ele>
        <time>2018-07-14T12:25:57Z</time>
      </trkpt>
      <trkpt lat="40.452150" lon="-5.272167">
        <ele>2194.0</ele>
        <time>2018-07-14T12:25:58Z</time>
      </trkpt>
      <trkpt lat="40.452150" lon="-5.272050">
        <ele>2192.0</ele>
        <time>2018-07-14T12:25:59Z</time>
      </trkpt>
      <trkpt lat="40.452150" lon="-5.271917">
        <ele>2191.0</ele>
        <time>2018-07-14T12:26:00Z</time>
      </trkpt>
      <trkpt lat="40.452167" lon="-5.271783">
        <ele>2189.0</ele>
        <time>2018-07-14T12:26:01Z</time>
      </trkpt>
      <trkpt lat="40.452167" lon="-5.271650">
        <ele>2188.0</ele>
        <time>2018-07-14T12:26:02Z</time>
      </trkpt>
      <trkpt lat="40.452167" lon="-5.271517">
        <ele>2186.0</ele>
        <time>2018-07-14T12:26:03Z</time>
      </trkpt>
      <trkpt lat="40.452183" lon="-5.271383">
        <ele>2185.0</ele>
        <time>2018-07-14T12:26:04Z</time>
      </trkpt>
      <trkpt lat="40.452200" lon="-5.271250">
        <ele>2183.0</ele>
        <time>2018-07-14T12:26:05Z</time>
      </trkpt>
      <trkpt lat="40.452217" lon="-5.271133">
        <ele>2181.0</ele>
        <time>2018-07-14T12:26:06Z</time>
      </trkpt>
      <trkpt lat="40.452250" lon="-5.271000">
        <ele>2179.0</ele>
        <time>2018-07-14T12:26:07Z</time>
      </trkpt>
      <trkpt lat="40.452267" lon="-5.270883">
        <ele>2177.0</ele>
        <time>2018-07-14T12:26:08Z</time>
      </trkpt>
      <trkpt lat="40.452300" lon="-5.270750">
        <ele>2175.0</ele>
        <time>2018-07-14T12:26:09Z</time>
      </trkpt>
      <trkpt lat="40.452317" lon="-5.270633">
        <ele>2173.0</ele>
        <time>2018-07-14T12:26:10Z</time>
      </trkpt>
      <trkpt lat="40.452350" lon="-5.270517">
        <ele>2171.0</ele>
        <time>2018-07-14T12:26:11Z</time>
      </trkpt>
      <trkpt lat="40.452383" lon="-5.270383">
        <ele>2169.0</ele>
        <time>2018-07-14T12:26:12Z</time>
      </trkpt>
      <trkpt lat="40.452433" lon="-5.270267">
        <ele>2166.0</ele>
        <time>2018-07-14T12:26:13Z</time>
      </trkpt>
      <trkpt lat="40.452483" lon="-5.270150">
        <ele>2164.0</ele>
        <time>2018-07-14T12:26:14Z</time>
      </trkpt>
      <trkpt lat="40.452517" lon="-5.270050">
        <ele>2162.0</ele>
        <time>2018-07-14T12:26:15Z</time>
      </trkpt>
      <trkpt lat="40.452550" lon="-5.269933">
        <ele>2160.0</ele>
        <time>2018-07-14T12:26:16Z</time>
      </trkpt>
      <trkpt lat="40.452600" lon="-5.269833">
        <ele>2158.0</ele>
        <time>2018-07-14T12:26:17Z</time>
      </trkpt>
      <trkpt lat="40.452633" lon="-5.269717">
        <ele>2154.0</ele>
        <time>2018-07-14T12:26:18Z</time>
      </trkpt>
      <trkpt lat="40.452700" lon="-5.269600">
        <ele>2151.0</ele>
        <time>2018-07-14T12:26:19Z</time>
      </trkpt>
      <trkpt lat="40.452750" lon="-5.269467">
        <ele>2148.0</ele>
        <time>2018-07-14T12:26:20Z</time>
      </trkpt>
      <trkpt lat="40.452800" lon="-5.269350">
        <ele>2145.0</ele>
        <time>2018-07-14T12:26:21Z</time>
      </trkpt>
      <trkpt lat="40.452833" lon="-5.269217">
        <ele>2142.0</ele>
        <time>2018-07-14T12:26:22Z</time>
      </trkpt>
      <trkpt lat="40.452867" lon="-5.269100">
        <ele>2140.0</ele>
        <time>2018-07-14T12:26:23Z</time>
      </trkpt>
      <trkpt lat="40.452900" lon="-5.268983">
        <ele>2137.0</ele>
        <time>2018-07-14T12:26:24Z</time>
      </trkpt>
      <trkpt lat="40.452950" lon="-5.268867">
        <ele>2134.0</ele>
        <time>2018-07-14T12:26:25Z</time>
      </trkpt>
      <trkpt lat="40.453000" lon="-5.268750">
        <ele>2131.0</ele>
        <time>2018-07-14T12:26:26Z</time>
      </trkpt>
      <trkpt lat="40.453050" lon="-5.268633">
        <ele>2128.0</ele>
        <time>2018-07-14T12:26:27Z</time>
      </trkpt>
      <trkpt lat="40.453100" lon="-5.268517">
        <ele>2126.0</ele>
        <time>2018-07-14T12:26:28Z</time>
      </trkpt>
      <trkpt lat="40.453150" lon="-5.268417">
        <ele>2123.0</ele>
        <time>2018-07-14T12:26:29Z</time>
      </trkpt>
      <trkpt lat="40.453217" lon="-5.268300">
        <ele>2120.0</ele>
        <time>2018-07-14T12:26:30Z</time>
      </trkpt>
      <trkpt lat="40.453283" lon="-5.268200">
        <ele>2117.0</ele>
        <time>2018-07-14T12:26:31Z</time>
      </trkpt>
      <trkpt lat="40.453350" lon="-5.268100">
        <ele>2114.0</ele>
        <time>2018-07-14T12:26:32Z</time>
      </trkpt>
      <trkpt lat="40.453417" lon="-5.268000">
        <ele>2111.0</ele>
        <time>2018-07-14T12:26:33Z</time>
      </trkpt>
      <trkpt lat="40.453483" lon="-5.267917">
        <ele>2108.0</ele>
        <time>2018-07-14T12:26:34Z</time>
      </trkpt>
      <trkpt lat="40.453550" lon="-5.267833">
        <ele>2105.0</ele>
        <time>2018-07-14T12:26:35Z</time>
      </trkpt>
      <trkpt lat="40.453617" lon="-5.267750">
        <ele>2101.0</ele>
        <time>2018-07-14T12:26:36Z</time>
      </trkpt>
      <trkpt lat="40.453683" lon="-5.267683">
        <ele>2097.0</ele>
        <time>2018-07-14T12:26:37Z</time>
      </trkpt>
      <trkpt lat="40.453783" lon="-5.267633">
        <ele>2093.0</ele>
        <time>2018-07-14T12:26:38Z</time>
      </trkpt>
      <trkpt lat="40.453883" lon="-5.267650">
        <ele>2089.0</ele>
        <time>2018-07-14T12:26:39Z</time>
      </trkpt>
      <trkpt lat="40.453967" lon="-5.267717">
        <ele>2085.0</ele>
        <time>2018-07-14T12:26:40Z</time>
      </trkpt>
      <trkpt lat="40.454017" lon="-5.267817">
        <ele>2081.0</ele>
        <time>2018-07-14T12:26:41Z</time>
      </trkpt>
      <trkpt lat="40.454050" lon="-5.267917">
        <ele>2078.0</ele>
        <time>2018-07-14T12:26:42Z</time>
      </trkpt>
      <trkpt lat="40.454050" lon="-5.268033">
        <ele>2074.0</ele>
        <time>2018-07-14T12:26:43Z</time>
      </trkpt>
      <trkpt lat="40.454050" lon="-5.268133">
        <ele>2071.0</ele>
        <time>2018-07-14T12:26:44Z</time>
      </trkpt>
      <trkpt lat="40.454050" lon="-5.268233">
        <ele>2069.0</ele>
        <time>2018-07-14T12:26:45Z</time>
      </trkpt>
      <trkpt lat="40.454017" lon="-5.268333">
        <ele>2066.0</ele>
        <time>2018-07-14T12:26:46Z</time>
      </trkpt>
      <trkpt lat="40.453933" lon="-5.268467">
        <ele>2062.0</ele>
        <time>2018-07-14T12:26:47Z</time>
      </trkpt>
      <trkpt lat="40.453867" lon="-5.268567">
        <ele>2069.0</ele>
        <time>2018-07-14T12:26:48Z</time>
      </trkpt>
      <trkpt lat="40.453817" lon="-5.268683">
        <ele>2069.0</ele>
        <time>2018-07-14T12:26:49Z</time>
      </trkpt>
      <trkpt lat="40.453783" lon="-5.268783">
        <ele>2068.0</ele>
        <time>2018-07-14T12:26:50Z</time>
      </trkpt>
      <trkpt lat="40.453733" lon="-5.268867">
        <ele>2067.0</ele>
        <time>2018-07-14T12:26:51Z</time>
      </trkpt>
      <trkpt lat="40.453683" lon="-5.268950">
        <ele>2065.0</ele>
        <time>2018-07-14T12:26:52Z</time>
      </trkpt>
      <trkpt lat="40.453633" lon="-5.269033">
        <ele>2064.0</ele>
        <time>2018-07-14T12:26:53Z</time>
      </trkpt>
      <trkpt lat="40.453583" lon="-5.269117">
        <ele>2062.0</ele>
        <time>2018-07-14T12:26:54Z</time>
      </trkpt>
      <trkpt lat="40.453533" lon="-5.269200">
        <ele>2061.0</ele>
        <time>2018-07-14T12:26:55Z</time>
      </trkpt>
      <trkpt lat="40.453500" lon="-5.269300">
        <ele>2059.0</ele>
        <time>2018-07-14T12:26:56Z</time>
      </trkpt>
      <trkpt lat="40.453467" lon="-5.269383">
        <ele>2057.0</ele>
        <time>2018-07-14T12:26:57Z</time>
      </trkpt>
      <trkpt lat="40.453400" lon="-5.269483">
        <ele>2055.0</ele>
        <time>2018-07-14T12:26:58Z</time>
      </trkpt>
      <trkpt lat="40.453367" lon="-5.269583">
        <ele>2058.0</ele>
        <time>2018-07-14T12:26:59Z</time>
      </trkpt>
      <trkpt lat="40.453317" lon="-5.269683">
        <ele>2056.0</ele>
        <time>2018-07-14T12:27:00Z</time>
      </trkpt>
      <trkpt lat="40.453283" lon="-5.269783">
        <ele>2053.0</ele>
        <time>2018-07-14T12:27:01Z</time>
      </trkpt>
      <trkpt lat="40.453250" lon="-5.269883">
        <ele>2050.0</ele>
        <time>2018-07-14T12:27:02Z</time>
      </trkpt>
      <trkpt lat="40.453217" lon="-5.270017">
        <ele>2048.0</ele>
        <time>2018-07-14T12:27:03Z</time>
      </trkpt>
      <trkpt lat="40.453183" lon="-5.270117">
        <ele>2049.0</ele>
        <time>2018-07-14T12:27:04Z</time>
      </trkpt>
      <trkpt lat="40.453150" lon="-5.270233">
        <ele>2049.0</ele>
        <time>2018-07-14T12:27:05Z</time>
      </trkpt>
      <trkpt lat="40.453100" lon="-5.270350">
        <ele>2048.0</ele>
        <time>2018-07-14T12:27:06Z</time>
      </trkpt>
      <trkpt lat="40.453050" lon="-5.270467">
        <ele>2046.0</ele>
        <time>2018-07-14T12:27:07Z</time>
      </trkpt>
      <trkpt lat="40.453033" lon="-5.270583">
        <ele>2045.0</ele>
        <time>2018-07-14T12:27:08Z</time>
      </trkpt>
      <trkpt lat="40.453017" lon="-5.270683">
        <ele>2043.0</ele>
        <time>2018-07-14T12:27:09Z</time>
      </trkpt>
      <trkpt lat="40.453000" lon="-5.270783">
        <ele>2040.0</ele>
        <time>2018-07-14T12:27:10Z</time>
      </trkpt>
      <trkpt lat="40.452983" lon="-5.270867">
        <ele>2038.0</ele>
        <time>2018-07-14T12:27:11Z</time>
      </trkpt>
      <trkpt lat="40.452950" lon="-5.270967">
        <ele>2034.0</ele>
        <time>2018-07-14T12:27:12Z</time>
      </trkpt>
      <trkpt lat="40.452917" lon="-5.271067">
        <ele>2031.0</ele>
        <time>2018-07-14T12:27:13Z</time>
      </trkpt>
      <trkpt lat="40.452883" lon="-5.271167">
        <ele>2028.0</ele>
        <time>2018-07-14T12:27:14Z</time>
      </trkpt>
      <trkpt lat="40.452867" lon="-5.271233">
        <ele>2025.0</ele>
        <time>2018-07-14T12:27:15Z</time>
      </trkpt>
      <trkpt lat="40.452850" lon="-5.271300">
        <ele>2022.0</ele>
        <time>2018-07-14T12:27:16Z</time>
      </trkpt>
      <trkpt lat="40.452833" lon="-5.271350">
        <ele>2019.0</ele>
        <time>2018-07-14T12:27:17Z</time>
      </trkpt>
      <trkpt lat="40.452833" lon="-5.271383">
        <ele>2018.0</ele>
        <time>2018-07-14T12:27:18Z</time>
      </trkpt>
      <trkpt lat="40.452800" lon="-5.271433">
        <ele>2016.0</ele>
        <time>2018-07-14T12:27:19Z</time>
      </trkpt>
      <trkpt lat="40.452783" lon="-5.271517">
        <ele>2014.0</ele>
        <time>2018-07-14T12:27:20Z</time>
      </trkpt>
      <trkpt lat="40.452750" lon="-5.271600">
        <ele>2012.0</ele>
        <time>2018-07-14T12:27:21Z</time>
      </trkpt>
      <trkpt lat="40.452733" lon="-5.271683">
        <ele>2010.0</ele>
        <time>2018-07-14T12:27:22Z</time>
      </trkpt>
      <trkpt lat="40.452700" lon="-5.271750">
        <ele>2009.0</ele>
        <time>2018-07-14T12:27:23Z</time>
      </trkpt>
      <trkpt lat="40.452667" lon="-5.271817">
        <ele>2008.0</ele>
        <time>2018-07-14T12:27:24Z</time>
      </trkpt>
      <trkpt lat="40.452633" lon="-5.271883">
        <ele>2007.0</ele>
        <time>2018-07-14T12:27:25Z</time>
      </trkpt>
      <trkpt lat="40.452617" lon="-5.271950">
        <ele>2006.0</ele>
        <time>2018-07-14T12:27:26Z</time>
      </trkpt>
      <trkpt lat="40.452583" lon="-5.272033">
        <ele>2005.0</ele>
        <time>2018-07-14T12:27:27Z</time>
      </trkpt>
      <trkpt lat="40.452550" lon="-5.272117">
        <ele>2004.0</ele>
        <time>2018-07-14T12:27:28Z</time>
      </trkpt>
      <trkpt lat="40.452517" lon="-5.272200">
        <ele>2004.0</ele>
        <time>2018-07-14T12:27:29Z</time>
      </trkpt>
      <trkpt lat="40.452483" lon="-5.272283">
        <ele>2005.0</ele>
        <time>2018-07-14T12:27:30Z</time>
      </trkpt>
      <trkpt lat="40.452450" lon="-5.272367">
        <ele>2006.0</ele>
        <time>2018-07-14T12:27:31Z</time>
      </trkpt>
      <trkpt lat="40.452417" lon="-5.272433">
        <ele>2007.0</ele>
        <time>2018-07-14T12:27:32Z</time>
      </trkpt>
      <trkpt lat="40.452383" lon="-5.272517">
        <ele>2008.0</ele>
        <time>2018-07-14T12:27:33Z</time>
      </trkpt>
      <trkpt lat="40.452333" lon="-5.272600">
        <ele>2009.0</ele>
        <time>2018-07-14T12:27:34Z</time>
      </trkpt>
      <trkpt lat="40.452283" lon="-5.272683">
        <ele>2009.0</ele>
        <time>2018-07-14T12:27:35Z</time>
      </trkpt>
      <trkpt lat="40.452233" lon="-5.272750">
        <ele>2011.0</ele>
        <time>2018-07-14T12:27:36Z</time>
      </trkpt>
      <trkpt lat="40.452200" lon="-5.272800">
        <ele>2012.0</ele>
        <time>2018-07-14T12:27:37Z</time>
      </trkpt>
      <trkpt lat="40.452167" lon="-5.272850">
        <ele>2012.0</ele>
        <time>2018-07-14T12:27:38Z</time>
      </trkpt>
      <trkpt lat="40.452133" lon="-5.272917">
        <ele>2011.0</ele>
        <time>2018-07-14T12:27:39Z</time>
      </trkpt>
      <trkpt lat="40.452100" lon="-5.272983">
        <ele>2010.0</ele>
        <time>2018-07-14T12:27:40Z</time>
      </trkpt>
      <trkpt lat="40.452067" lon="-5.273083">
        <ele>2008.0</ele>
        <time>2018-07-14T12:27:41Z</time>
      </trkpt>
      <trkpt lat="40.452050" lon="-5.273150">
        <ele>2008.0</ele>
        <time>2018-07-14T12:27:42Z</time>
      </trkpt>
      <trkpt lat="40.452017" lon="-5.273200">
        <ele>2008.0</ele>
        <time>2018-07-14T12:27:43Z</time>
      </trkpt>
      <trkpt lat="40.451983" lon="-5.273267">
        <ele>2008.0</ele>
        <time>2018-07-14T12:27:44Z</time>
      </trkpt>
      <trkpt lat="40.451933" lon="-5.273317">
        <ele>2008.0</ele>
        <time>2018-07-14T12:27:45Z</time>
      </trkpt>
      <trkpt lat="40.451883" lon="-5.273400">
        <ele>2006.0</ele>
        <time>2018-07-14T12:27:46Z</time>
      </trkpt>
      <trkpt lat="40.451833" lon="-5.273500">
        <ele>2005.0</ele>
        <time>2018-07-14T12:27:47Z</time>
      </trkpt>
      <trkpt lat="40.451783" lon="-5.273567">
        <ele>2004.0</ele>
        <time>2018-07-14T12:27:48Z</time>
      </trkpt>
      <trkpt lat="40.451750" lon="-5.273633">
        <ele>2005.0</ele>
        <time>2018-07-14T12:27:49Z</time>
      </trkpt>
      <trkpt lat="40.451717" lon="-5.273683">
        <ele>2004.0</ele>
        <time>2018-07-14T12:27:50Z</time>
      </trkpt>
      <trkpt lat="40.451683" lon="-5.273767">
        <ele>2003.0</ele>
        <time>2018-07-14T12:27:51Z</time>
      </trkpt>
      <trkpt lat="40.451650" lon="-5.273850">
        <ele>2001.0</ele>
        <time>2018-07-14T12:27:52Z</time>
      </trkpt>
      <trkpt lat="40.451600" lon="-5.273933">
        <ele>1999.0</ele>
        <time>2018-07-14T12:27:53Z</time>
      </trkpt>
      <trkpt lat="40.451567" lon="-5.274017">
        <ele>1997.0</ele>
        <time>2018-07-14T12:27:54Z</time>
      </trkpt>
      <trkpt lat="40.451517" lon="-5.274083">
        <ele>1997.0</ele>
        <time>2018-07-14T12:27:55Z</time>
      </trkpt>
      <trkpt lat="40.451467" lon="-5.274150">
        <ele>1996.0</ele>
        <time>2018-07-14T12:27:56Z</time>
      </trkpt>
      <trkpt lat="40.451433" lon="-5.274217">
        <ele>1996.0</ele>
        <time>2018-07-14T12:27:57Z</time>
      </trkpt>
      <trkpt lat="40.451400" lon="-5.274283">
        <ele>1997.0</ele>
        <time>2018-07-14T12:27:58Z</time>
      </trkpt>
      <trkpt lat="40.451367" lon="-5.274350">
        <ele>1997.0</ele>
        <time>2018-07-14T12:27:59Z</time>
      </trkpt>
      <trkpt lat="40.451333" lon="-5.274417">
        <ele>1997.0</ele>
        <time>2018-07-14T12:28:00Z</time>
      </trkpt>
      <trkpt lat="40.451300" lon="-5.274483">
        <ele>1997.0</ele>
        <time>2018-07-14T12:28:01Z</time>
      </trkpt>
      <trkpt lat="40.451267" lon="-5.274550">
        <ele>1996.0</ele>
        <time>2018-07-14T12:28:02Z</time>
      </trkpt>
      <trkpt lat="40.451217" lon="-5.274617">
        <ele>1996.0</ele>
        <time>2018-07-14T12:28:03Z</time>
      </trkpt>
      <trkpt lat="40.451167" lon="-5.274683">
        <ele>1996.0</ele>
        <time>2018-07-14T12:28:04Z</time>
      </trkpt>
      <trkpt lat="40.451117" lon="-5.274750">
        <ele>1996.0</ele>
        <time>2018-07-14T12:28:05Z</time>
      </trkpt>
      <trkpt lat="40.451083" lon="-5.274817">
        <ele>1997.0</ele>
        <time>2018-07-14T12:28:06Z</time>
      </trkpt>
      <trkpt lat="40.451033" lon="-5.274867">
        <ele>1997.0</ele>
        <time>2018-07-14T12:28:07Z</time>
      </trkpt>
      <trkpt lat="40.451000" lon="-5.274933">
        <ele>1997.0</ele>
        <time>2018-07-14T12:28:08Z</time>
      </trkpt>
      <trkpt lat="40.450950" lon="-5.275000">
        <ele>1997.0</ele>
        <time>2018-07-14T12:28:09Z</time>
      </trkpt>
      <trkpt lat="40.450900" lon="-5.275067">
        <ele>1997.0</ele>
        <time>2018-07-14T12:28:10Z</time>
      </trkpt>
      <trkpt lat="40.450850" lon="-5.275133">
        <ele>1997.0</ele>
        <time>2018-07-14T12:28:11Z</time>
      </trkpt>
      <trkpt lat="40.450817" lon="-5.275200">
        <ele>1998.0</ele>
        <time>2018-07-14T12:28:12Z</time>
      </trkpt>
      <trkpt lat="40.450767" lon="-5.275250">
        <ele>1999.0</ele>
        <time>2018-07-14T12:28:13Z</time>
      </trkpt>
      <trkpt lat="40.450733" lon="-5.275317">
        <ele>1999.0</ele>
        <time>2018-07-14T12:28:14Z</time>
      </trkpt>
      <trkpt lat="40.450700" lon="-5.275383">
        <ele>1999.0</ele>
        <time>2018-07-14T12:28:15Z</time>
      </trkpt>
      <trkpt lat="40.450667" lon="-5.275467">
        <ele>2000.0</ele>
        <time>2018-07-14T12:28:16Z</time>
      </trkpt>
      <trkpt lat="40.450633" lon="-5.275533">
        <ele>2002.0</ele>
        <time>2018-07-14T12:28:17Z</time>
      </trkpt>
      <trkpt lat="40.450600" lon="-5.275600">
        <ele>2004.0</ele>
        <time>2018-07-14T12:28:18Z</time>
      </trkpt>
      <trkpt lat="40.450567" lon="-5.275650">
        <ele>2005.0</ele>
        <time>2018-07-14T12:28:19Z</time>
      </trkpt>
      <trkpt lat="40.450517" lon="-5.275683">
        <ele>2006.0</ele>
        <time>2018-07-14T12:28:20Z</time>
      </trkpt>
      <trkpt lat="40.450483" lon="-5.275750">
        <ele>2007.0</ele>
        <time>2018-07-14T12:28:21Z</time>
      </trkpt>
      <trkpt lat="40.450433" lon="-5.275833">
        <ele>2007.0</ele>
        <time>2018-07-14T12:28:22Z</time>
      </trkpt>
      <trkpt lat="40.450400" lon="-5.275900">
        <ele>2007.0</ele>
        <time>2018-07-14T12:28:23Z</time>
      </trkpt>
      <trkpt lat="40.450367" lon="-5.275983">
        <ele>2007.0</ele>
        <time>2018-07-14T12:28:24Z</time>
      </trkpt>
      <trkpt lat="40.450333" lon="-5.276033">
        <ele>2010.0</ele>
        <time>2018-07-14T12:28:25Z</time>
      </trkpt>
      <trkpt lat="40.450300" lon="-5.276083">
        <ele>2012.0</ele>
        <time>2018-07-14T12:28:26Z</time>
      </trkpt>
      <trkpt lat="40.450267" lon="-5.276133">
        <ele>2014.0</ele>
        <time>2018-07-14T12:28:27Z</time>
      </trkpt>
      <trkpt lat="40.450233" lon="-5.276183">
        <ele>2014.0</ele>
        <time>2018-07-14T12:28:28Z</time>
      </trkpt>
      <trkpt lat="40.450200" lon="-5.276267">
        <ele>2015.0</ele>
        <time>2018-07-14T12:28:29Z</time>
      </trkpt>
      <trkpt lat="40.450167" lon="-5.276350">
        <ele>2015.0</ele>
        <time>2018-07-14T12:28:30Z</time>
      </trkpt>
      <trkpt lat="40.450150" lon="-5.276417">
        <ele>2016.0</ele>
        <time>2018-07-14T12:28:31Z</time>
      </trkpt>
      <trkpt lat="40.450150" lon="-5.276483">
        <ele>2018.0</ele>
        <time>2018-07-14T12:28:32Z</time>
      </trkpt>
      <trkpt lat="40.450167" lon="-5.276550">
        <ele>2019.0</ele>
        <time>2018-07-14T12:28:33Z</time>
      </trkpt>
      <trkpt lat="40.450217" lon="-5.276600">
        <ele>2017.0</ele>
        <time>2018-07-14T12:28:34Z</time>
      </trkpt>
      <trkpt lat="40.450267" lon="-5.276617">
        <ele>2017.0</ele>
        <time>2018-07-14T12:28:35Z</time>
      </trkpt>
      <trkpt lat="40.450333" lon="-5.276617">
        <ele>2018.0</ele>
        <time>2018-07-14T12:28:36Z</time>
      </trkpt>
      <trkpt lat="40.450417" lon="-5.276550">
        <ele>2018.0</ele>
        <time>2018-07-14T12:28:37Z</time>
      </trkpt>
      <trkpt lat="40.450483" lon="-5.276450">
        <ele>2019.0</ele>
        <time>2018-07-14T12:28:38Z</time>
      </trkpt>
      <trkpt lat="40.450550" lon="-5.276317">
        <ele>2020.0</ele>
        <time>2018-07-14T12:28:39Z</time>
      </trkpt>
      <trkpt lat="40.450567" lon="-5.276183">
        <ele>2021.0</ele>
        <time>2018-07-14T12:28:40Z</time>
      </trkpt>
      <trkpt lat="40.450567" lon="-5.276033">
        <ele>2022.0</ele>
        <time>2018-07-14T12:28:41Z</time>
      </trkpt>
      <trkpt lat="40.450517" lon="-5.275883">
        <ele>2023.0</ele>
        <time>2018-07-14T12:28:42Z</time>
      </trkpt>
      <trkpt lat="40.450450" lon="-5.275767">
        <ele>2024.0</ele>
        <time>2018-07-14T12:28:43Z</time>
      </trkpt>
      <trkpt lat="40.450350" lon="-5.275650">
        <ele>2026.0</ele>
        <time>2018-07-14T12:28:44Z</time>
      </trkpt>
      <trkpt lat="40.450250" lon="-5.275583">
        <ele>2028.0</ele>
        <time>2018-07-14T12:28:45Z</time>
      </trkpt>
      <trkpt lat="40.450150" lon="-5.275567">
        <ele>2029.0</ele>
        <time>2018-07-14T12:28:46Z</time>
      </trkpt>
      <trkpt lat="40.450067" lon="-5.275567">
        <ele>2030.0</ele>
        <time>2018-07-14T12:28:47Z</time>
      </trkpt>
      <trkpt lat="40.450017" lon="-5.275600">
        <ele>2032.0</ele>
        <time>2018-07-14T12:28:48Z</time>
      </trkpt>
      <trkpt lat="40.449967" lon="-5.275667">
        <ele>2029.0</ele>
        <time>2018-07-14T12:28:49Z</time>
      </trkpt>
      <trkpt lat="40.449917" lon="-5.275717">
        <ele>2030.0</ele>
        <time>2018-07-14T12:28:50Z</time>
      </trkpt>
      <trkpt lat="40.449883" lon="-5.275767">
        <ele>2030.0</ele>
        <time>2018-07-14T12:28:51Z</time>
      </trkpt>
      <trkpt lat="40.449850" lon="-5.275833">
        <ele>2031.0</ele>
        <time>2018-07-14T12:28:52Z</time>
      </trkpt>
      <trkpt lat="40.449817" lon="-5.275883">
        <ele>2033.0</ele>
        <time>2018-07-14T12:28:53Z</time>
      </trkpt>
      <trkpt lat="40.449783" lon="-5.275950">
        <ele>2034.0</ele>
        <time>2018-07-14T12:28:54Z</time>
      </trkpt>
      <trkpt lat="40.449783" lon="-5.276017">
        <ele>2036.0</ele>
        <time>2018-07-14T12:28:55Z</time>
      </trkpt>
      <trkpt lat="40.449800" lon="-5.276133">
        <ele>2039.0</ele>
        <time>2018-07-14T12:28:57Z</time>
      </trkpt>
      <trkpt lat="40.449833" lon="-5.276167">
        <ele>2040.0</ele>
        <time>2018-07-14T12:28:58Z</time>
      </trkpt>
      <trkpt lat="40.449883" lon="-5.276217">
        <ele>2042.0</ele>
        <time>2018-07-14T12:28:59Z</time>
      </trkpt>
      <trkpt lat="40.449933" lon="-5.276250">
        <ele>2043.0</ele>
        <time>2018-07-14T12:29:00Z</time>
      </trkpt>
      <trkpt lat="40.450000" lon="-5.276267">
        <ele>2044.0</ele>
        <time>2018-07-14T12:29:01Z</time>
      </trkpt>
      <trkpt lat="40.450083" lon="-5.276250">
        <ele>2044.0</ele>
        <time>2018-07-14T12:29:02Z</time>
      </trkpt>
      <trkpt lat="40.450150" lon="-5.276183">
        <ele>2045.0</ele>
        <time>2018-07-14T12:29:03Z</time>
      </trkpt>
      <trkpt lat="40.450217" lon="-5.276067">
        <ele>2046.0</ele>
        <time>2018-07-14T12:29:04Z</time>
      </trkpt>
      <trkpt lat="40.450267" lon="-5.275933">
        <ele>2046.0</ele>
        <time>2018-07-14T12:29:05Z</time>
      </trkpt>
      <trkpt lat="40.450267" lon="-5.275767">
        <ele>2046.0</ele>
        <time>2018-07-14T12:29:06Z</time>
      </trkpt>
      <trkpt lat="40.450250" lon="-5.275617">
        <ele>2047.0</ele>
        <time>2018-07-14T12:29:07Z</time>
      </trkpt>
      <trkpt lat="40.450183" lon="-5.275500">
        <ele>2049.0</ele>
        <time>2018-07-14T12:29:08Z</time>
      </trkpt>
      <trkpt lat="40.450100" lon="-5.275400">
        <ele>2050.0</ele>
        <time>2018-07-14T12:29:09Z</time>
      </trkpt>
      <trkpt lat="40.450000" lon="-5.275350">
        <ele>2051.0</ele>
        <time>2018-07-14T12:29:10Z</time>
      </trkpt>
      <trkpt lat="40.449900" lon="-5.275333">
        <ele>2052.0</ele>
        <time>2018-07-14T12:29:11Z</time>
      </trkpt>
      <trkpt lat="40.449800" lon="-5.275350">
        <ele>2053.0</ele>
        <time>2018-07-14T12:29:12Z</time>
      </trkpt>
      <trkpt lat="40.449733" lon="-5.275383">
        <ele>2055.0</ele>
        <time>2018-07-14T12:29:13Z</time>
      </trkpt>
      <trkpt lat="40.449683" lon="-5.275433">
        <ele>2056.0</ele>
        <time>2018-07-14T12:29:14Z</time>
      </trkpt>
      <trkpt lat="40.449617" lon="-5.275483">
        <ele>2058.0</ele>
        <time>2018-07-14T12:29:15Z</time>
      </trkpt>
      <trkpt lat="40.449550" lon="-5.275517">
        <ele>2059.0</ele>
        <time>2018-07-14T12:29:16Z</time>
      </trkpt>
      <trkpt lat="40.449483" lon="-5.275550">
        <ele>2061.0</ele>
        <time>2018-07-14T12:29:17Z</time>
      </trkpt>
      <trkpt lat="40.449417" lon="-5.275600">
        <ele>2062.0</ele>
        <time>2018-07-14T12:29:18Z</time>
      </trkpt>
      <trkpt lat="40.449383" lon="-5.275667">
        <ele>2064.0</ele>
        <time>2018-07-14T12:29:19Z</time>
      </trkpt>
      <trkpt lat="40.449350" lon="-5.275717">
        <ele>2066.0</ele>
        <time>2018-07-14T12:29:20Z</time>
      </trkpt>
      <trkpt lat="40.449300" lon="-5.275833">
        <ele>2066.0</ele>
        <time>2018-07-14T12:29:22Z</time>
      </trkpt>
      <trkpt lat="40.449300" lon="-5.275917">
        <ele>2065.0</ele>
        <time>2018-07-14T12:29:23Z</time>
      </trkpt>
      <trkpt lat="40.449333" lon="-5.276000">
        <ele>2065.0</ele>
        <time>2018-07-14T12:29:24Z</time>
      </trkpt>
      <trkpt lat="40.449400" lon="-5.276050">
        <ele>2064.0</ele>
        <time>2018-07-14T12:29:25Z</time>
      </trkpt>
      <trkpt lat="40.449483" lon="-5.276050">
        <ele>2064.0</ele>
        <time>2018-07-14T12:29:26Z</time>
      </trkpt>
      <trkpt lat="40.449550" lon="-5.275967">
        <ele>2064.0</ele>
        <time>2018-07-14T12:29:27Z</time>
      </trkpt>
      <trkpt lat="40.449600" lon="-5.275850">
        <ele>2063.0</ele>
        <time>2018-07-14T12:29:28Z</time>
      </trkpt>
      <trkpt lat="40.449617" lon="-5.275700">
        <ele>2063.0</ele>
        <time>2018-07-14T12:29:29Z</time>
      </trkpt>
      <trkpt lat="40.449617" lon="-5.275550">
        <ele>2063.0</ele>
        <time>2018-07-14T12:29:30Z</time>
      </trkpt>
      <trkpt lat="40.449500" lon="-5.275300">
        <ele>2063.0</ele>
        <time>2018-07-14T12:29:32Z</time>
      </trkpt>
      <trkpt lat="40.449400" lon="-5.275217">
        <ele>2062.0</ele>
        <time>2018-07-14T12:29:33Z</time>
      </trkpt>
      <trkpt lat="40.449300" lon="-5.275167">
        <ele>2062.0</ele>
        <time>2018-07-14T12:29:34Z</time>
      </trkpt>
      <trkpt lat="40.449217" lon="-5.275150">
        <ele>2062.0</ele>
        <time>2018-07-14T12:29:35Z</time>
      </trkpt>
      <trkpt lat="40.449150" lon="-5.275150">
        <ele>2062.0</ele>
        <time>2018-07-14T12:29:36Z</time>
      </trkpt>
      <trkpt lat="40.449083" lon="-5.275167">
        <ele>2062.0</ele>
        <time>2018-07-14T12:29:37Z</time>
      </trkpt>
      <trkpt lat="40.449017" lon="-5.275200">
        <ele>2063.0</ele>
        <time>2018-07-14T12:29:38Z</time>
      </trkpt>
      <trkpt lat="40.448933" lon="-5.275233">
        <ele>2063.0</ele>
        <time>2018-07-14T12:29:39Z</time>
      </trkpt>
      <trkpt lat="40.448867" lon="-5.275283">
        <ele>2063.0</ele>
        <time>2018-07-14T12:29:40Z</time>
      </trkpt>
      <trkpt lat="40.448817" lon="-5.275350">
        <ele>2063.0</ele>
        <time>2018-07-14T12:29:41Z</time>
      </trkpt>
      <trkpt lat="40.448767" lon="-5.275417">
        <ele>2064.0</ele>
        <time>2018-07-14T12:29:42Z</time>
      </trkpt>
      <trkpt lat="40.448733" lon="-5.275500">
        <ele>2065.0</ele>
        <time>2018-07-14T12:29:43Z</time>
      </trkpt>
      <trkpt lat="40.448683" lon="-5.275567">
        <ele>2068.0</ele>
        <time>2018-07-14T12:29:44Z</time>
      </trkpt>
      <trkpt lat="40.448650" lon="-5.275633">
        <ele>2069.0</ele>
        <time>2018-07-14T12:29:45Z</time>
      </trkpt>
      <trkpt lat="40.448633" lon="-5.275683">
        <ele>2071.0</ele>
        <time>2018-07-14T12:29:46Z</time>
      </trkpt>
      <trkpt lat="40.448617" lon="-5.275750">
        <ele>2072.0</ele>
        <time>2018-07-14T12:29:47Z</time>
      </trkpt>
      <trkpt lat="40.448583" lon="-5.275833">
        <ele>2073.0</ele>
        <time>2018-07-14T12:29:48Z</time>
      </trkpt>
      <trkpt lat="40.448567" lon="-5.275900">
        <ele>2073.0</ele>
        <time>2018-07-14T12:29:49Z</time>
      </trkpt>
      <trkpt lat="40.448550" lon="-5.275967">
        <ele>2074.0</ele>
        <time>2018-07-14T12:29:50Z</time>
      </trkpt>
      <trkpt lat="40.448533" lon="-5.276033">
        <ele>2074.0</ele>
        <time>2018-07-14T12:29:51Z</time>
      </trkpt>
      <trkpt lat="40.448517" lon="-5.276100">
        <ele>2074.0</ele>
        <time>2018-07-14T12:29:52Z</time>
      </trkpt>
      <trkpt lat="40.448500" lon="-5.276183">
        <ele>2074.0</ele>
        <time>2018-07-14T12:29:53Z</time>
      </trkpt>
      <trkpt lat="40.448467" lon="-5.276267">
        <ele>2073.0</ele>
        <time>2018-07-14T12:29:54Z</time>
      </trkpt>
      <trkpt lat="40.448433" lon="-5.276350">
        <ele>2073.0</ele>
        <time>2018-07-14T12:29:55Z</time>
      </trkpt>
      <trkpt lat="40.448400" lon="-5.276417">
        <ele>2075.0</ele>
        <time>2018-07-14T12:29:56Z</time>
      </trkpt>
      <trkpt lat="40.448383" lon="-5.276483">
        <ele>2076.0</ele>
        <time>2018-07-14T12:29:57Z</time>
      </trkpt>
      <trkpt lat="40.448367" lon="-5.276533">
        <ele>2077.0</ele>
        <time>2018-07-14T12:29:58Z</time>
      </trkpt>
      <trkpt lat="40.448333" lon="-5.276583">
        <ele>2077.0</ele>
        <time>2018-07-14T12:29:59Z</time>
      </trkpt>
      <trkpt lat="40.448317" lon="-5.276650">
        <ele>2075.0</ele>
        <time>2018-07-14T12:30:00Z</time>
      </trkpt>
      <trkpt lat="40.448300" lon="-5.276717">
        <ele>2072.0</ele>
        <time>2018-07-14T12:30:01Z</time>
      </trkpt>
      <trkpt lat="40.448283" lon="-5.276817">
        <ele>2070.0</ele>
        <time>2018-07-14T12:30:02Z</time>
      </trkpt>
      <trkpt lat="40.448267" lon="-5.276900">
        <ele>2069.0</ele>
        <time>2018-07-14T12:30:03Z</time>
      </trkpt>
      <trkpt lat="40.448250" lon="-5.276967">
        <ele>2068.0</ele>
        <time>2018-07-14T12:30:04Z</time>
      </trkpt>
      <trkpt lat="40.448233" lon="-5.277033">
        <ele>2068.0</ele>
        <time>2018-07-14T12:30:05Z</time>
      </trkpt>
      <trkpt lat="40.448217" lon="-5.277100">
        <ele>2069.0</ele>
        <time>2018-07-14T12:30:06Z</time>
      </trkpt>
      <trkpt lat="40.448200" lon="-5.277167">
        <ele>2071.0</ele>
        <time>2018-07-14T12:30:07Z</time>
      </trkpt>
      <trkpt lat="40.448183" lon="-5.277217">
        <ele>2073.0</ele>
        <time>2018-07-14T12:30:08Z</time>
      </trkpt>
      <trkpt lat="40.448183" lon="-5.277250">
        <ele>2074.0</ele>
        <time>2018-07-14T12:30:09Z</time>
      </trkpt>
      <trkpt lat="40.448183" lon="-5.277317">
        <ele>2075.0</ele>
        <time>2018-07-14T12:30:10Z</time>
      </trkpt>
      <trkpt lat="40.448167" lon="-5.277383">
        <ele>2074.0</ele>
        <time>2018-07-14T12:30:11Z</time>
      </trkpt>
      <trkpt lat="40.448167" lon="-5.277467">
        <ele>2073.0</ele>
        <time>2018-07-14T12:30:12Z</time>
      </trkpt>
      <trkpt lat="40.448167" lon="-5.277533">
        <ele>2073.0</ele>
        <time>2018-07-14T12:30:13Z</time>
      </trkpt>
      <trkpt lat="40.448183" lon="-5.277567">
        <ele>2074.0</ele>
        <time>2018-07-14T12:30:14Z</time>
      </trkpt>
      <trkpt lat="40.448200" lon="-5.277600">
        <ele>2075.0</ele>
        <time>2018-07-14T12:30:15Z</time>
      </trkpt>
      <trkpt lat="40.448200" lon="-5.277633">
        <ele>2076.0</ele>
        <time>2018-07-14T12:30:16Z</time>
      </trkpt>
      <trkpt lat="40.448217" lon="-5.277683">
        <ele>2075.0</ele>
        <time>2018-07-14T12:30:17Z</time>
      </trkpt>
      <trkpt lat="40.448233" lon="-5.277767">
        <ele>2072.0</ele>
        <time>2018-07-14T12:30:18Z</time>
      </trkpt>
      <trkpt lat="40.448233" lon="-5.277867">
        <ele>2071.0</ele>
        <time>2018-07-14T12:30:19Z</time>
      </trkpt>
      <trkpt lat="40.448200" lon="-5.277933">
        <ele>2072.0</ele>
        <time>2018-07-14T12:30:20Z</time>
      </trkpt>
      <trkpt lat="40.448167" lon="-5.277983">
        <ele>2074.0</ele>
        <time>2018-07-14T12:30:21Z</time>
      </trkpt>
      <trkpt lat="40.448133" lon="-5.277983">
        <ele>2078.0</ele>
        <time>2018-07-14T12:30:22Z</time>
      </trkpt>
      <trkpt lat="40.448117" lon="-5.278000">
        <ele>2080.0</ele>
        <time>2018-07-14T12:30:23Z</time>
      </trkpt>
      <trkpt lat="40.448100" lon="-5.278050">
        <ele>2081.0</ele>
        <time>2018-07-14T12:30:24Z</time>
      </trkpt>
      <trkpt lat="40.448083" lon="-5.278117">
        <ele>2081.0</ele>
        <time>2018-07-14T12:30:25Z</time>
      </trkpt>
      <trkpt lat="40.448050" lon="-5.278200">
        <ele>2080.0</ele>
        <time>2018-07-14T12:30:26Z</time>
      </trkpt>
      <trkpt lat="40.448033" lon="-5.278267">
        <ele>2079.0</ele>
        <time>2018-07-14T12:30:27Z</time>
      </trkpt>
      <trkpt lat="40.448033" lon="-5.278317">
        <ele>2081.0</ele>
        <time>2018-07-14T12:30:28Z</time>
      </trkpt>
      <trkpt lat="40.448033" lon="-5.278367">
        <ele>2082.0</ele>
        <time>2018-07-14T12:30:29Z</time>
      </trkpt>
      <trkpt lat="40.448033" lon="-5.278417">
        <ele>2082.0</ele>
        <time>2018-07-14T12:30:30Z</time>
      </trkpt>
      <trkpt lat="40.448033" lon="-5.278483">
        <ele>2081.0</ele>
        <time>2018-07-14T12:30:31Z</time>
      </trkpt>
      <trkpt lat="40.448033" lon="-5.278533">
        <ele>2080.0</ele>
        <time>2018-07-14T12:30:32Z</time>
      </trkpt>
      <trkpt lat="40.448017" lon="-5.278600">
        <ele>2079.0</ele>
        <time>2018-07-14T12:30:33Z</time>
      </trkpt>
      <trkpt lat="40.448000" lon="-5.278667">
        <ele>2078.0</ele>
        <time>2018-07-14T12:30:34Z</time>
      </trkpt>
      <trkpt lat="40.448000" lon="-5.278733">
        <ele>2077.0</ele>
        <time>2018-07-14T12:30:35Z</time>
      </trkpt>
      <trkpt lat="40.447983" lon="-5.278800">
        <ele>2075.0</ele>
        <time>2018-07-14T12:30:36Z</time>
      </trkpt>
      <trkpt lat="40.447983" lon="-5.278883">
        <ele>2072.0</ele>
        <time>2018-07-14T12:30:37Z</time>
      </trkpt>
      <trkpt lat="40.447983" lon="-5.278950">
        <ele>2070.0</ele>
        <time>2018-07-14T12:30:38Z</time>
      </trkpt>
      <trkpt lat="40.447983" lon="-5.279017">
        <ele>2070.0</ele>
        <time>2018-07-14T12:30:39Z</time>
      </trkpt>
      <trkpt lat="40.447967" lon="-5.279050">
        <ele>2071.0</ele>
        <time>2018-07-14T12:30:40Z</time>
      </trkpt>
      <trkpt lat="40.447933" lon="-5.279167">
        <ele>2071.0</ele>
        <time>2018-07-14T12:30:42Z</time>
      </trkpt>
      <trkpt lat="40.447900" lon="-5.279250">
        <ele>2071.0</ele>
        <time>2018-07-14T12:30:43Z</time>
      </trkpt>
      <trkpt lat="40.447883" lon="-5.279333">
        <ele>2069.0</ele>
        <time>2018-07-14T12:30:44Z</time>
      </trkpt>
      <trkpt lat="40.447867" lon="-5.279400">
        <ele>2067.0</ele>
        <time>2018-07-14T12:30:45Z</time>
      </trkpt>
      <trkpt lat="40.447883" lon="-5.279450">
        <ele>2065.0</ele>
        <time>2018-07-14T12:30:46Z</time>
      </trkpt>
      <trkpt lat="40.447917" lon="-5.279500">
        <ele>2062.0</ele>
        <time>2018-07-14T12:30:47Z</time>
      </trkpt>
      <trkpt lat="40.447967" lon="-5.279567">
        <ele>2059.0</ele>
        <time>2018-07-14T12:30:48Z</time>
      </trkpt>
      <trkpt lat="40.448033" lon="-5.279633">
        <ele>2056.0</ele>
        <time>2018-07-14T12:30:49Z</time>
      </trkpt>
      <trkpt lat="40.448117" lon="-5.279683">
        <ele>2053.0</ele>
        <time>2018-07-14T12:30:50Z</time>
      </trkpt>
      <trkpt lat="40.448200" lon="-5.279733">
        <ele>2052.0</ele>
        <time>2018-07-14T12:30:51Z</time>
      </trkpt>
      <trkpt lat="40.448267" lon="-5.279767">
        <ele>2051.0</ele>
        <time>2018-07-14T12:30:52Z</time>
      </trkpt>
      <trkpt lat="40.448333" lon="-5.279833">
        <ele>2049.0</ele>
        <time>2018-07-14T12:30:53Z</time>
      </trkpt>
      <trkpt lat="40.448417" lon="-5.279900">
        <ele>2049.0</ele>
        <time>2018-07-14T12:30:54Z</time>
      </trkpt>
      <trkpt lat="40.448500" lon="-5.279933">
        <ele>2048.0</ele>
        <time>2018-07-14T12:30:55Z</time>
      </trkpt>
      <trkpt lat="40.448583" lon="-5.279950">
        <ele>2049.0</ele>
        <time>2018-07-14T12:30:56Z</time>
      </trkpt>
      <trkpt lat="40.448683" lon="-5.279967">
        <ele>2049.0</ele>
        <time>2018-07-14T12:30:57Z</time>
      </trkpt>
      <trkpt lat="40.448767" lon="-5.279967">
        <ele>2050.0</ele>
        <time>2018-07-14T12:30:58Z</time>
      </trkpt>
      <trkpt lat="40.448867" lon="-5.279967">
        <ele>2047.0</ele>
        <time>2018-07-14T12:30:59Z</time>
      </trkpt>
      <trkpt lat="40.448983" lon="-5.279983">
        <ele>2045.0</ele>
        <time>2018-07-14T12:31:00Z</time>
      </trkpt>
      <trkpt lat="40.449100" lon="-5.279967">
        <ele>2044.0</ele>
        <time>2018-07-14T12:31:01Z</time>
      </trkpt>
      <trkpt lat="40.449200" lon="-5.279967">
        <ele>2043.0</ele>
        <time>2018-07-14T12:31:02Z</time>
      </trkpt>
      <trkpt lat="40.449283" lon="-5.279950">
        <ele>2043.0</ele>
        <time>2018-07-14T12:31:03Z</time>
      </trkpt>
      <trkpt lat="40.449367" lon="-5.279933">
        <ele>2042.0</ele>
        <time>2018-07-14T12:31:04Z</time>
      </trkpt>
      <trkpt lat="40.449467" lon="-5.279917">
        <ele>2039.0</ele>
        <time>2018-07-14T12:31:05Z</time>
      </trkpt>
      <trkpt lat="40.449583" lon="-5.279900">
        <ele>2037.0</ele>
        <time>2018-07-14T12:31:06Z</time>
      </trkpt>
      <trkpt lat="40.449700" lon="-5.279900">
        <ele>2034.0</ele>
        <time>2018-07-14T12:31:07Z</time>
      </trkpt>
      <trkpt lat="40.449800" lon="-5.279900">
        <ele>2031.0</ele>
        <time>2018-07-14T12:31:08Z</time>
      </trkpt>
      <trkpt lat="40.449883" lon="-5.279917">
        <ele>2030.0</ele>
        <time>2018-07-14T12:31:09Z</time>
      </trkpt>
      <trkpt lat="40.449967" lon="-5.279933">
        <ele>2028.0</ele>
        <time>2018-07-14T12:31:10Z</time>
      </trkpt>
      <trkpt lat="40.450050" lon="-5.279950">
        <ele>2026.0</ele>
        <time>2018-07-14T12:31:11Z</time>
      </trkpt>
      <trkpt lat="40.450133" lon="-5.279950">
        <ele>2023.0</ele>
        <time>2018-07-14T12:31:12Z</time>
      </trkpt>
      <trkpt lat="40.450233" lon="-5.279967">
        <ele>2020.0</ele>
        <time>2018-07-14T12:31:13Z</time>
      </trkpt>
      <trkpt lat="40.450333" lon="-5.279983">
        <ele>2016.0</ele>
        <time>2018-07-14T12:31:14Z</time>
      </trkpt>
      <trkpt lat="40.450433" lon="-5.280017">
        <ele>2012.0</ele>
        <time>2018-07-14T12:31:15Z</time>
      </trkpt>
      <trkpt lat="40.450517" lon="-5.280050">
        <ele>2009.0</ele>
        <time>2018-07-14T12:31:16Z</time>
      </trkpt>
      <trkpt lat="40.450600" lon="-5.280067">
        <ele>2006.0</ele>
        <time>2018-07-14T12:31:17Z</time>
      </trkpt>
      <trkpt lat="40.450667" lon="-5.280083">
        <ele>2004.0</ele>
        <time>2018-07-14T12:31:18Z</time>
      </trkpt>
      <trkpt lat="40.450750" lon="-5.280100">
        <ele>2002.0</ele>
        <time>2018-07-14T12:31:19Z</time>
      </trkpt>
      <trkpt lat="40.450833" lon="-5.280133">
        <ele>1999.0</ele>
        <time>2018-07-14T12:31:20Z</time>
      </trkpt>
      <trkpt lat="40.450917" lon="-5.280167">
        <ele>1996.0</ele>
        <time>2018-07-14T12:31:21Z</time>
      </trkpt>
      <trkpt lat="40.451017" lon="-5.280200">
        <ele>1993.0</ele>
        <time>2018-07-14T12:31:22Z</time>
      </trkpt>
      <trkpt lat="40.451100" lon="-5.280233">
        <ele>1990.0</ele>
        <time>2018-07-14T12:31:23Z</time>
      </trkpt>
      <trkpt lat="40.451183" lon="-5.280267">
        <ele>1989.0</ele>
        <time>2018-07-14T12:31:24Z</time>
      </trkpt>
      <trkpt lat="40.451267" lon="-5.280283">
        <ele>1987.0</ele>
        <time>2018-07-14T12:31:25Z</time>
      </trkpt>
      <trkpt lat="40.451350" lon="-5.280300">
        <ele>1986.0</ele>
        <time>2018-07-14T12:31:26Z</time>
      </trkpt>
      <trkpt lat="40.451433" lon="-5.280317">
        <ele>1983.0</ele>
        <time>2018-07-14T12:31:27Z</time>
      </trkpt>
      <trkpt lat="40.451517" lon="-5.280350">
        <ele>1981.0</ele>
        <time>2018-07-14T12:31:28Z</time>
      </trkpt>
      <trkpt lat="40.451583" lon="-5.280383">
        <ele>1978.0</ele>
        <time>2018-07-14T12:31:29Z</time>
      </trkpt>
      <trkpt lat="40.451683" lon="-5.280400">
        <ele>1976.0</ele>
        <time>2018-07-14T12:31:30Z</time>
      </trkpt>
      <trkpt lat="40.451900" lon="-5.280467">
        <ele>1975.0</ele>
        <time>2018-07-14T12:31:32Z</time>
      </trkpt>
      <trkpt lat="40.452017" lon="-5.280517">
        <ele>1972.0</ele>
        <time>2018-07-14T12:31:33Z</time>
      </trkpt>
      <trkpt lat="40.452117" lon="-5.280567">
        <ele>1972.0</ele>
        <time>2018-07-14T12:31:34Z</time>
      </trkpt>
      <trkpt lat="40.452317" lon="-5.280633">
        <ele>1974.0</ele>
        <time>2018-07-14T12:31:36Z</time>
      </trkpt>
      <trkpt lat="40.452383" lon="-5.280650">
        <ele>1976.0</ele>
        <time>2018-07-14T12:31:37Z</time>
      </trkpt>
      <trkpt lat="40.452467" lon="-5.280700">
        <ele>1977.0</ele>
        <time>2018-07-14T12:31:38Z</time>
      </trkpt>
      <trkpt lat="40.452567" lon="-5.280733">
        <ele>1978.0</ele>
        <time>2018-07-14T12:31:39Z</time>
      </trkpt>
      <trkpt lat="40.452650" lon="-5.280767">
        <ele>1979.0</ele>
        <time>2018-07-14T12:31:40Z</time>
      </trkpt>
      <trkpt lat="40.452767" lon="-5.280783">
        <ele>1980.0</ele>
        <time>2018-07-14T12:31:41Z</time>
      </trkpt>
      <trkpt lat="40.452850" lon="-5.280783">
        <ele>1983.0</ele>
        <time>2018-07-14T12:31:42Z</time>
      </trkpt>
      <trkpt lat="40.452917" lon="-5.280783">
        <ele>1985.0</ele>
        <time>2018-07-14T12:31:43Z</time>
      </trkpt>
      <trkpt lat="40.452967" lon="-5.280800">
        <ele>1987.0</ele>
        <time>2018-07-14T12:31:44Z</time>
      </trkpt>
      <trkpt lat="40.453033" lon="-5.280817">
        <ele>1989.0</ele>
        <time>2018-07-14T12:31:45Z</time>
      </trkpt>
      <trkpt lat="40.453100" lon="-5.280833">
        <ele>1991.0</ele>
        <time>2018-07-14T12:31:46Z</time>
      </trkpt>
      <trkpt lat="40.453167" lon="-5.280833">
        <ele>1992.0</ele>
        <time>2018-07-14T12:31:47Z</time>
      </trkpt>
      <trkpt lat="40.453250" lon="-5.280800">
        <ele>1992.0</ele>
        <time>2018-07-14T12:31:48Z</time>
      </trkpt>
      <trkpt lat="40.453333" lon="-5.280733">
        <ele>1993.0</ele>
        <time>2018-07-14T12:31:49Z</time>
      </trkpt>
      <trkpt lat="40.453417" lon="-5.280633">
        <ele>1993.0</ele>
        <time>2018-07-14T12:31:50Z</time>
      </trkpt>
      <trkpt lat="40.453467" lon="-5.280500">
        <ele>1994.0</ele>
        <time>2018-07-14T12:31:51Z</time>
      </trkpt>
      <trkpt lat="40.453500" lon="-5.280350">
        <ele>1995.0</ele>
        <time>2018-07-14T12:31:52Z</time>
      </trkpt>
      <trkpt lat="40.453500" lon="-5.280200">
        <ele>1995.0</ele>
        <time>2018-07-14T12:31:53Z</time>
      </trkpt>
      <trkpt lat="40.453450" lon="-5.280067">
        <ele>1996.0</ele>
        <time>2018-07-14T12:31:54Z</time>
      </trkpt>
      <trkpt lat="40.453400" lon="-5.279967">
        <ele>1996.0</ele>
        <time>2018-07-14T12:31:55Z</time>
      </trkpt>
      <trkpt lat="40.453317" lon="-5.279917">
        <ele>1996.0</ele>
        <time>2018-07-14T12:31:56Z</time>
      </trkpt>
      <trkpt lat="40.453233" lon="-5.279900">
        <ele>1996.0</ele>
        <time>2018-07-14T12:31:57Z</time>
      </trkpt>
      <trkpt lat="40.453183" lon="-5.279933">
        <ele>1996.0</ele>
        <time>2018-07-14T12:31:58Z</time>
      </trkpt>
      <trkpt lat="40.453133" lon="-5.279983">
        <ele>1996.0</ele>
        <time>2018-07-14T12:31:59Z</time>
      </trkpt>
      <trkpt lat="40.453117" lon="-5.280050">
        <ele>1998.0</ele>
        <time>2018-07-14T12:32:00Z</time>
      </trkpt>
      <trkpt lat="40.453100" lon="-5.280100">
        <ele>2000.0</ele>
        <time>2018-07-14T12:32:01Z</time>
      </trkpt>
      <trkpt lat="40.453083" lon="-5.280150">
        <ele>2002.0</ele>
        <time>2018-07-14T12:32:02Z</time>
      </trkpt>
      <trkpt lat="40.453083" lon="-5.280200">
        <ele>2003.0</ele>
        <time>2018-07-14T12:32:03Z</time>
      </trkpt>
      <trkpt lat="40.453083" lon="-5.280267">
        <ele>2004.0</ele>
        <time>2018-07-14T12:32:04Z</time>
      </trkpt>
      <trkpt lat="40.453100" lon="-5.280333">
        <ele>2005.0</ele>
        <time>2018-07-14T12:32:05Z</time>
      </trkpt>
      <trkpt lat="40.453117" lon="-5.280383">
        <ele>2006.0</ele>
        <time>2018-07-14T12:32:06Z</time>
      </trkpt>
      <trkpt lat="40.453150" lon="-5.280450">
        <ele>2007.0</ele>
        <time>2018-07-14T12:32:07Z</time>
      </trkpt>
      <trkpt lat="40.453183" lon="-5.280533">
        <ele>2007.0</ele>
        <time>2018-07-14T12:32:09Z</time>
      </trkpt>
      <trkpt lat="40.453183" lon="-5.280600">
        <ele>2007.0</ele>
        <time>2018-07-14T12:32:10Z</time>
      </trkpt>
      <trkpt lat="40.453200" lon="-5.280667">
        <ele>2007.0</ele>
        <time>2018-07-14T12:32:11Z</time>
      </trkpt>
      <trkpt lat="40.453200" lon="-5.280733">
        <ele>2008.0</ele>
        <time>2018-07-14T12:32:12Z</time>
      </trkpt>
      <trkpt lat="40.453217" lon="-5.280800">
        <ele>2009.0</ele>
        <time>2018-07-14T12:32:13Z</time>
      </trkpt>
      <trkpt lat="40.453233" lon="-5.280867">
        <ele>2010.0</ele>
        <time>2018-07-14T12:32:14Z</time>
      </trkpt>
      <trkpt lat="40.453233" lon="-5.280933">
        <ele>2012.0</ele>
        <time>2018-07-14T12:32:15Z</time>
      </trkpt>
      <trkpt lat="40.453250" lon="-5.281000">
        <ele>2013.0</ele>
        <time>2018-07-14T12:32:16Z</time>
      </trkpt>
      <trkpt lat="40.453250" lon="-5.281100">
        <ele>2014.0</ele>
        <time>2018-07-14T12:32:17Z</time>
      </trkpt>
      <trkpt lat="40.453267" lon="-5.281200">
        <ele>2015.0</ele>
        <time>2018-07-14T12:32:18Z</time>
      </trkpt>
      <trkpt lat="40.453267" lon="-5.281300">
        <ele>2017.0</ele>
        <time>2018-07-14T12:32:19Z</time>
      </trkpt>
      <trkpt lat="40.453300" lon="-5.281367">
        <ele>2019.0</ele>
        <time>2018-07-14T12:32:20Z</time>
      </trkpt>
      <trkpt lat="40.453333" lon="-5.281433">
        <ele>2020.0</ele>
        <time>2018-07-14T12:32:21Z</time>
      </trkpt>
      <trkpt lat="40.453383" lon="-5.281483">
        <ele>2018.0</ele>
        <time>2018-07-14T12:32:22Z</time>
      </trkpt>
      <trkpt lat="40.453450" lon="-5.281517">
        <ele>2018.0</ele>
        <time>2018-07-14T12:32:23Z</time>
      </trkpt>
      <trkpt lat="40.453533" lon="-5.281533">
        <ele>2018.0</ele>
        <time>2018-07-14T12:32:24Z</time>
      </trkpt>
      <trkpt lat="40.453600" lon="-5.281500">
        <ele>2018.0</ele>
        <time>2018-07-14T12:32:25Z</time>
      </trkpt>
      <trkpt lat="40.453683" lon="-5.281433">
        <ele>2018.0</ele>
        <time>2018-07-14T12:32:26Z</time>
      </trkpt>
      <trkpt lat="40.453750" lon="-5.281333">
        <ele>2018.0</ele>
        <time>2018-07-14T12:32:27Z</time>
      </trkpt>
      <trkpt lat="40.453817" lon="-5.281217">
        <ele>2017.0</ele>
        <time>2018-07-14T12:32:28Z</time>
      </trkpt>
      <trkpt lat="40.453850" lon="-5.281067">
        <ele>2016.0</ele>
        <time>2018-07-14T12:32:29Z</time>
      </trkpt>
      <trkpt lat="40.453850" lon="-5.280933">
        <ele>2016.0</ele>
        <time>2018-07-14T12:32:30Z</time>
      </trkpt>
      <trkpt lat="40.453817" lon="-5.280800">
        <ele>2015.0</ele>
        <time>2018-07-14T12:32:31Z</time>
      </trkpt>
      <trkpt lat="40.453767" lon="-5.280667">
        <ele>2015.0</ele>
        <time>2018-07-14T12:32:32Z</time>
      </trkpt>
      <trkpt lat="40.453683" lon="-5.280567">
        <ele>2015.0</ele>
        <time>2018-07-14T12:32:33Z</time>
      </trkpt>
      <trkpt lat="40.453617" lon="-5.280500">
        <ele>2015.0</ele>
        <time>2018-07-14T12:32:34Z</time>
      </trkpt>
      <trkpt lat="40.453550" lon="-5.280467">
        <ele>2017.0</ele>
        <time>2018-07-14T12:32:35Z</time>
      </trkpt>
      <trkpt lat="40.453467" lon="-5.280467">
        <ele>2019.0</ele>
        <time>2018-07-14T12:32:36Z</time>
      </trkpt>
      <trkpt lat="40.453400" lon="-5.280483">
        <ele>2021.0</ele>
        <time>2018-07-14T12:32:37Z</time>
      </trkpt>
      <trkpt lat="40.453350" lon="-5.280500">
        <ele>2022.0</ele>
        <time>2018-07-14T12:32:38Z</time>
      </trkpt>
      <trkpt lat="40.453300" lon="-5.280550">
        <ele>2024.0</ele>
        <time>2018-07-14T12:32:39Z</time>
      </trkpt>
      <trkpt lat="40.453250" lon="-5.280600">
        <ele>2025.0</ele>
        <time>2018-07-14T12:32:40Z</time>
      </trkpt>
      <trkpt lat="40.453217" lon="-5.280667">
        <ele>2026.0</ele>
        <time>2018-07-14T12:32:41Z</time>
      </trkpt>
      <trkpt lat="40.453183" lon="-5.280717">
        <ele>2028.0</ele>
        <time>2018-07-14T12:32:42Z</time>
      </trkpt>
      <trkpt lat="40.453167" lon="-5.280783">
        <ele>2030.0</ele>
        <time>2018-07-14T12:32:43Z</time>
      </trkpt>
      <trkpt lat="40.453133" lon="-5.280850">
        <ele>2031.0</ele>
        <time>2018-07-14T12:32:44Z</time>
      </trkpt>
      <trkpt lat="40.453117" lon="-5.280917">
        <ele>2032.0</ele>
        <time>2018-07-14T12:32:45Z</time>
      </trkpt>
      <trkpt lat="40.453100" lon="-5.280967">
        <ele>2032.0</ele>
        <time>2018-07-14T12:32:46Z</time>
      </trkpt>
      <trkpt lat="40.453067" lon="-5.281017">
        <ele>2034.0</ele>
        <time>2018-07-14T12:32:47Z</time>
      </trkpt>
      <trkpt lat="40.453067" lon="-5.281083">
        <ele>2035.0</ele>
        <time>2018-07-14T12:32:48Z</time>
      </trkpt>
      <trkpt lat="40.453050" lon="-5.281133">
        <ele>2037.0</ele>
        <time>2018-07-14T12:32:49Z</time>
      </trkpt>
      <trkpt lat="40.453067" lon="-5.281217">
        <ele>2038.0</ele>
        <time>2018-07-14T12:32:50Z</time>
      </trkpt>
      <trkpt lat="40.453067" lon="-5.281283">
        <ele>2038.0</ele>
        <time>2018-07-14T12:32:51Z</time>
      </trkpt>
      <trkpt lat="40.453050" lon="-5.281333">
        <ele>2039.0</ele>
        <time>2018-07-14T12:32:52Z</time>
      </trkpt>
      <trkpt lat="40.453050" lon="-5.281400">
        <ele>2040.0</ele>
        <time>2018-07-14T12:32:53Z</time>
      </trkpt>
      <trkpt lat="40.453050" lon="-5.281467">
        <ele>2041.0</ele>
        <time>2018-07-14T12:32:54Z</time>
      </trkpt>
      <trkpt lat="40.453050" lon="-5.281533">
        <ele>2042.0</ele>
        <time>2018-07-14T12:32:55Z</time>
      </trkpt>
      <trkpt lat="40.453050" lon="-5.281600">
        <ele>2040.0</ele>
        <time>2018-07-14T12:32:56Z</time>
      </trkpt>
      <trkpt lat="40.453050" lon="-5.281667">
        <ele>2040.0</ele>
        <time>2018-07-14T12:32:57Z</time>
      </trkpt>
      <trkpt lat="40.453050" lon="-5.281733">
        <ele>2041.0</ele>
        <time>2018-07-14T12:32:58Z</time>
      </trkpt>
      <trkpt lat="40.453050" lon="-5.281800">
        <ele>2040.0</ele>
        <time>2018-07-14T12:32:59Z</time>
      </trkpt>
      <trkpt lat="40.453033" lon="-5.281867">
        <ele>2040.0</ele>
        <time>2018-07-14T12:33:00Z</time>
      </trkpt>
      <trkpt lat="40.453050" lon="-5.281917">
        <ele>2040.0</ele>
        <time>2018-07-14T12:33:01Z</time>
      </trkpt>
      <trkpt lat="40.453083" lon="-5.281983">
        <ele>2040.0</ele>
        <time>2018-07-14T12:33:02Z</time>
      </trkpt>
      <trkpt lat="40.453133" lon="-5.282033">
        <ele>2039.0</ele>
        <time>2018-07-14T12:33:03Z</time>
      </trkpt>
      <trkpt lat="40.453200" lon="-5.282067">
        <ele>2038.0</ele>
        <time>2018-07-14T12:33:04Z</time>
      </trkpt>
      <trkpt lat="40.453350" lon="-5.282100">
        <ele>2037.0</ele>
        <time>2018-07-14T12:33:06Z</time>
      </trkpt>
      <trkpt lat="40.453433" lon="-5.282083">
        <ele>2037.0</ele>
        <time>2018-07-14T12:33:07Z</time>
      </trkpt>
      <trkpt lat="40.453500" lon="-5.282033">
        <ele>2038.0</ele>
        <time>2018-07-14T12:33:08Z</time>
      </trkpt>
      <trkpt lat="40.453567" lon="-5.281967">
        <ele>2037.0</ele>
        <time>2018-07-14T12:33:09Z</time>
      </trkpt>
      <trkpt lat="40.453633" lon="-5.281883">
        <ele>2037.0</ele>
        <time>2018-07-14T12:33:10Z</time>
      </trkpt>
      <trkpt lat="40.453683" lon="-5.281767">
        <ele>2037.0</ele>
        <time>2018-07-14T12:33:11Z</time>
      </trkpt>
      <trkpt lat="40.453717" lon="-5.281617">
        <ele>2037.0</ele>
        <time>2018-07-14T12:33:12Z</time>
      </trkpt>
      <trkpt lat="40.453750" lon="-5.281467">
        <ele>2036.0</ele>
        <time>2018-07-14T12:33:13Z</time>
      </trkpt>
      <trkpt lat="40.453733" lon="-5.281300">
        <ele>2036.0</ele>
        <time>2018-07-14T12:33:14Z</time>
      </trkpt>
      <trkpt lat="40.453683" lon="-5.281167">
        <ele>2036.0</ele>
        <time>2018-07-14T12:33:15Z</time>
      </trkpt>
      <trkpt lat="40.453633" lon="-5.281050">
        <ele>2036.0</ele>
        <time>2018-07-14T12:33:16Z</time>
      </trkpt>
      <trkpt lat="40.453583" lon="-5.280950">
        <ele>2035.0</ele>
        <time>2018-07-14T12:33:17Z</time>
      </trkpt>
      <trkpt lat="40.453517" lon="-5.280883">
        <ele>2034.0</ele>
        <time>2018-07-14T12:33:18Z</time>
      </trkpt>
      <trkpt lat="40.453433" lon="-5.280833">
        <ele>2032.0</ele>
        <time>2018-07-14T12:33:19Z</time>
      </trkpt>
      <trkpt lat="40.453367" lon="-5.280800">
        <ele>2033.0</ele>
        <time>2018-07-14T12:33:20Z</time>
      </trkpt>
      <trkpt lat="40.453233" lon="-5.280817">
        <ele>2033.0</ele>
        <time>2018-07-14T12:33:22Z</time>
      </trkpt>
      <trkpt lat="40.453167" lon="-5.280867">
        <ele>2032.0</ele>
        <time>2018-07-14T12:33:23Z</time>
      </trkpt>
      <trkpt lat="40.453117" lon="-5.280917">
        <ele>2032.0</ele>
        <time>2018-07-14T12:33:24Z</time>
      </trkpt>
      <trkpt lat="40.453067" lon="-5.280950">
        <ele>2031.0</ele>
        <time>2018-07-14T12:33:25Z</time>
      </trkpt>
      <trkpt lat="40.453017" lon="-5.280983">
        <ele>2030.0</ele>
        <time>2018-07-14T12:33:26Z</time>
      </trkpt>
      <trkpt lat="40.452983" lon="-5.281017">
        <ele>2029.0</ele>
        <time>2018-07-14T12:33:27Z</time>
      </trkpt>
      <trkpt lat="40.452917" lon="-5.281050">
        <ele>2027.0</ele>
        <time>2018-07-14T12:33:28Z</time>
      </trkpt>
      <trkpt lat="40.452867" lon="-5.281100">
        <ele>2026.0</ele>
        <time>2018-07-14T12:33:29Z</time>
      </trkpt>
      <trkpt lat="40.452817" lon="-5.281167">
        <ele>2024.0</ele>
        <time>2018-07-14T12:33:30Z</time>
      </trkpt>
      <trkpt lat="40.452783" lon="-5.281250">
        <ele>2023.0</ele>
        <time>2018-07-14T12:33:31Z</time>
      </trkpt>
      <trkpt lat="40.452733" lon="-5.281350">
        <ele>2025.0</ele>
        <time>2018-07-14T12:33:32Z</time>
      </trkpt>
      <trkpt lat="40.452717" lon="-5.281383">
        <ele>2030.0</ele>
        <time>2018-07-14T12:33:33Z</time>
      </trkpt>
      <trkpt lat="40.452700" lon="-5.281400">
        <ele>2034.0</ele>
        <time>2018-07-14T12:33:34Z</time>
      </trkpt>
      <trkpt lat="40.452683" lon="-5.281417">
        <ele>2037.0</ele>
        <time>2018-07-14T12:33:35Z</time>
      </trkpt>
      <trkpt lat="40.452683" lon="-5.281433">
        <ele>2038.0</ele>
        <time>2018-07-14T12:33:36Z</time>
      </trkpt>
      <trkpt lat="40.452667" lon="-5.281483">
        <ele>2037.0</ele>
        <time>2018-07-14T12:33:37Z</time>
      </trkpt>
      <trkpt lat="40.452650" lon="-5.281567">
        <ele>2036.0</ele>
        <time>2018-07-14T12:33:38Z</time>
      </trkpt>
      <trkpt lat="40.452650" lon="-5.281633">
        <ele>2036.0</ele>
        <time>2018-07-14T12:33:39Z</time>
      </trkpt>
      <trkpt lat="40.452617" lon="-5.281683">
        <ele>2038.0</ele>
        <time>2018-07-14T12:33:40Z</time>
      </trkpt>
      <trkpt lat="40.452600" lon="-5.281733">
        <ele>2041.0</ele>
        <time>2018-07-14T12:33:41Z</time>
      </trkpt>
      <trkpt lat="40.452567" lon="-5.281767">
        <ele>2044.0</ele>
        <time>2018-07-14T12:33:42Z</time>
      </trkpt>
      <trkpt lat="40.452533" lon="-5.281800">
        <ele>2045.0</ele>
        <time>2018-07-14T12:33:43Z</time>
      </trkpt>
      <trkpt lat="40.452517" lon="-5.281833">
        <ele>2046.0</ele>
        <time>2018-07-14T12:33:44Z</time>
      </trkpt>
      <trkpt lat="40.452483" lon="-5.281867">
        <ele>2047.0</ele>
        <time>2018-07-14T12:33:45Z</time>
      </trkpt>
      <trkpt lat="40.452483" lon="-5.281933">
        <ele>2048.0</ele>
        <time>2018-07-14T12:33:46Z</time>
      </trkpt>
      <trkpt lat="40.452517" lon="-5.282000">
        <ele>2049.0</ele>
        <time>2018-07-14T12:33:47Z</time>
      </trkpt>
      <trkpt lat="40.452583" lon="-5.282050">
        <ele>2049.0</ele>
        <time>2018-07-14T12:33:48Z</time>
      </trkpt>
      <trkpt lat="40.452650" lon="-5.282067">
        <ele>2050.0</ele>
        <time>2018-07-14T12:33:49Z</time>
      </trkpt>
      <trkpt lat="40.452733" lon="-5.282000">
        <ele>2050.0</ele>
        <time>2018-07-14T12:33:50Z</time>
      </trkpt>
      <trkpt lat="40.452783" lon="-5.281917">
        <ele>2050.0</ele>
        <time>2018-07-14T12:33:51Z</time>
      </trkpt>
      <trkpt lat="40.452833" lon="-5.281817">
        <ele>2050.0</ele>
        <time>2018-07-14T12:33:52Z</time>
      </trkpt>
      <trkpt lat="40.452883" lon="-5.281717">
        <ele>2053.0</ele>
        <time>2018-07-14T12:33:53Z</time>
      </trkpt>
      <trkpt lat="40.452933" lon="-5.281583">
        <ele>2055.0</ele>
        <time>2018-07-14T12:33:54Z</time>
      </trkpt>
      <trkpt lat="40.452950" lon="-5.281417">
        <ele>2057.0</ele>
        <time>2018-07-14T12:33:55Z</time>
      </trkpt>
      <trkpt lat="40.452933" lon="-5.281250">
        <ele>2059.0</ele>
        <time>2018-07-14T12:33:56Z</time>
      </trkpt>
      <trkpt lat="40.452900" lon="-5.281100">
        <ele>2062.0</ele>
        <time>2018-07-14T12:33:57Z</time>
      </trkpt>
      <trkpt lat="40.452833" lon="-5.280967">
        <ele>2064.0</ele>
        <time>2018-07-14T12:33:58Z</time>
      </trkpt>
      <trkpt lat="40.452750" lon="-5.280883">
        <ele>2066.0</ele>
        <time>2018-07-14T12:33:59Z</time>
      </trkpt>
      <trkpt lat="40.452517" lon="-5.280850">
        <ele>2069.0</ele>
        <time>2018-07-14T12:34:02Z</time>
      </trkpt>
      <trkpt lat="40.452467" lon="-5.280900">
        <ele>2066.0</ele>
        <time>2018-07-14T12:34:03Z</time>
      </trkpt>
      <trkpt lat="40.452450" lon="-5.280950">
        <ele>2066.0</ele>
        <time>2018-07-14T12:34:04Z</time>
      </trkpt>
      <trkpt lat="40.452467" lon="-5.281033">
        <ele>2067.0</ele>
        <time>2018-07-14T12:34:06Z</time>
      </trkpt>
      <trkpt lat="40.452500" lon="-5.281083">
        <ele>2067.0</ele>
        <time>2018-07-14T12:34:07Z</time>
      </trkpt>
      <trkpt lat="40.452533" lon="-5.281133">
        <ele>2067.0</ele>
        <time>2018-07-14T12:34:08Z</time>
      </trkpt>
      <trkpt lat="40.452600" lon="-5.281150">
        <ele>2068.0</ele>
        <time>2018-07-14T12:34:09Z</time>
      </trkpt>
      <trkpt lat="40.452683" lon="-5.281133">
        <ele>2069.0</ele>
        <time>2018-07-14T12:34:10Z</time>
      </trkpt>
      <trkpt lat="40.452767" lon="-5.281083">
        <ele>2071.0</ele>
        <time>2018-07-14T12:34:11Z</time>
      </trkpt>
      <trkpt lat="40.452833" lon="-5.281000">
        <ele>2074.0</ele>
        <time>2018-07-14T12:34:12Z</time>
      </trkpt>
      <trkpt lat="40.452883" lon="-5.280917">
        <ele>2077.0</ele>
        <time>2018-07-14T12:34:13Z</time>
      </trkpt>
      <trkpt lat="40.452917" lon="-5.280833">
        <ele>2076.0</ele>
        <time>2018-07-14T12:34:14Z</time>
      </trkpt>
      <trkpt lat="40.452950" lon="-5.280717">
        <ele>2076.0</ele>
        <time>2018-07-14T12:34:15Z</time>
      </trkpt>
      <trkpt lat="40.452983" lon="-5.280567">
        <ele>2077.0</ele>
        <time>2018-07-14T12:34:16Z</time>
      </trkpt>
      <trkpt lat="40.452983" lon="-5.280433">
        <ele>2077.0</ele>
        <time>2018-07-14T12:34:17Z</time>
      </trkpt>
      <trkpt lat="40.452933" lon="-5.280300">
        <ele>2078.0</ele>
        <time>2018-07-14T12:34:18Z</time>
      </trkpt>
      <trkpt lat="40.452883" lon="-5.280183">
        <ele>2078.0</ele>
        <time>2018-07-14T12:34:19Z</time>
      </trkpt>
      <trkpt lat="40.452817" lon="-5.280083">
        <ele>2080.0</ele>
        <time>2018-07-14T12:34:20Z</time>
      </trkpt>
      <trkpt lat="40.452733" lon="-5.279983">
        <ele>2082.0</ele>
        <time>2018-07-14T12:34:21Z</time>
      </trkpt>
      <trkpt lat="40.452633" lon="-5.279950">
        <ele>2084.0</ele>
        <time>2018-07-14T12:34:22Z</time>
      </trkpt>
      <trkpt lat="40.452567" lon="-5.279933">
        <ele>2088.0</ele>
        <time>2018-07-14T12:34:23Z</time>
      </trkpt>
      <trkpt lat="40.452500" lon="-5.279967">
        <ele>2091.0</ele>
        <time>2018-07-14T12:34:24Z</time>
      </trkpt>
      <trkpt lat="40.452483" lon="-5.280033">
        <ele>2089.0</ele>
        <time>2018-07-14T12:34:25Z</time>
      </trkpt>
      <trkpt lat="40.452517" lon="-5.280067">
        <ele>2091.0</ele>
        <time>2018-07-14T12:34:26Z</time>
      </trkpt>
      <trkpt lat="40.452567" lon="-5.280100">
        <ele>2092.0</ele>
        <time>2018-07-14T12:34:27Z</time>
      </trkpt>
      <trkpt lat="40.452650" lon="-5.280100">
        <ele>2092.0</ele>
        <time>2018-07-14T12:34:28Z</time>
      </trkpt>
      <trkpt lat="40.452750" lon="-5.280033">
        <ele>2092.0</ele>
        <time>2018-07-14T12:34:29Z</time>
      </trkpt>
      <trkpt lat="40.452817" lon="-5.279933">
        <ele>2093.0</ele>
        <time>2018-07-14T12:34:30Z</time>
      </trkpt>
      <trkpt lat="40.452833" lon="-5.279800">
        <ele>2094.0</ele>
        <time>2018-07-14T12:34:31Z</time>
      </trkpt>
      <trkpt lat="40.452833" lon="-5.279650">
        <ele>2095.0</ele>
        <time>2018-07-14T12:34:32Z</time>
      </trkpt>
      <trkpt lat="40.452833" lon="-5.279517">
        <ele>2096.0</ele>
        <time>2018-07-14T12:34:33Z</time>
      </trkpt>
      <trkpt lat="40.452817" lon="-5.279400">
        <ele>2099.0</ele>
        <time>2018-07-14T12:34:34Z</time>
      </trkpt>
      <trkpt lat="40.452800" lon="-5.279300">
        <ele>2101.0</ele>
        <time>2018-07-14T12:34:35Z</time>
      </trkpt>
      <trkpt lat="40.452750" lon="-5.279167">
        <ele>2099.0</ele>
        <time>2018-07-14T12:34:36Z</time>
      </trkpt>
      <trkpt lat="40.452700" lon="-5.279033">
        <ele>2100.0</ele>
        <time>2018-07-14T12:34:37Z</time>
      </trkpt>
      <trkpt lat="40.452633" lon="-5.278917">
        <ele>2101.0</ele>
        <time>2018-07-14T12:34:38Z</time>
      </trkpt>
      <trkpt lat="40.452550" lon="-5.278833">
        <ele>2102.0</ele>
        <time>2018-07-14T12:34:39Z</time>
      </trkpt>
      <trkpt lat="40.452467" lon="-5.278783">
        <ele>2103.0</ele>
        <time>2018-07-14T12:34:40Z</time>
      </trkpt>
      <trkpt lat="40.452383" lon="-5.278767">
        <ele>2104.0</ele>
        <time>2018-07-14T12:34:41Z</time>
      </trkpt>
      <trkpt lat="40.452300" lon="-5.278783">
        <ele>2105.0</ele>
        <time>2018-07-14T12:34:42Z</time>
      </trkpt>
      <trkpt lat="40.452250" lon="-5.278800">
        <ele>2107.0</ele>
        <time>2018-07-14T12:34:43Z</time>
      </trkpt>
      <trkpt lat="40.452233" lon="-5.278850">
        <ele>2109.0</ele>
        <time>2018-07-14T12:34:44Z</time>
      </trkpt>
      <trkpt lat="40.452233" lon="-5.278867">
        <ele>2111.0</ele>
        <time>2018-07-14T12:34:45Z</time>
      </trkpt>
      <trkpt lat="40.452250" lon="-5.278883">
        <ele>2112.0</ele>
        <time>2018-07-14T12:34:46Z</time>
      </trkpt>
      <trkpt lat="40.452283" lon="-5.278900">
        <ele>2113.0</ele>
        <time>2018-07-14T12:34:47Z</time>
      </trkpt>
      <trkpt lat="40.452317" lon="-5.278950">
        <ele>2115.0</ele>
        <time>2018-07-14T12:34:48Z</time>
      </trkpt>
      <trkpt lat="40.452350" lon="-5.278983">
        <ele>2118.0</ele>
        <time>2018-07-14T12:34:49Z</time>
      </trkpt>
      <trkpt lat="40.452400" lon="-5.279017">
        <ele>2121.0</ele>
        <time>2018-07-14T12:34:50Z</time>
      </trkpt>
      <trkpt lat="40.452467" lon="-5.279033">
        <ele>2125.0</ele>
        <time>2018-07-14T12:34:51Z</time>
      </trkpt>
      <trkpt lat="40.452517" lon="-5.279033">
        <ele>2129.0</ele>
        <time>2018-07-14T12:34:52Z</time>
      </trkpt>
      <trkpt lat="40.452567" lon="-5.279033">
        <ele>2133.0</ele>
        <time>2018-07-14T12:34:53Z</time>
      </trkpt>
      <trkpt lat="40.452633" lon="-5.279033">
        <ele>2136.0</ele>
        <time>2018-07-14T12:34:54Z</time>
      </trkpt>
      <trkpt lat="40.452717" lon="-5.279033">
        <ele>2139.0</ele>
        <time>2018-07-14T12:34:55Z</time>
      </trkpt>
      <trkpt lat="40.452800" lon="-5.279000">
        <ele>2141.0</ele>
        <time>2018-07-14T12:34:56Z</time>
      </trkpt>
      <trkpt lat="40.452883" lon="-5.278933">
        <ele>2144.0</ele>
        <time>2018-07-14T12:34:57Z</time>
      </trkpt>
      <trkpt lat="40.452950" lon="-5.278833">
        <ele>2148.0</ele>
        <time>2018-07-14T12:34:58Z</time>
      </trkpt>
      <trkpt lat="40.452967" lon="-5.278700">
        <ele>2151.0</ele>
        <time>2018-07-14T12:34:59Z</time>
      </trkpt>
      <trkpt lat="40.452983" lon="-5.278567">
        <ele>2154.0</ele>
        <time>2018-07-14T12:35:00Z</time>
      </trkpt>
      <trkpt lat="40.452983" lon="-5.278417">
        <ele>2157.0</ele>
        <time>2018-07-14T12:35:01Z</time>
      </trkpt>
      <trkpt lat="40.452967" lon="-5.278267">
        <ele>2160.0</ele>
        <time>2018-07-14T12:35:02Z</time>
      </trkpt>
      <trkpt lat="40.452917" lon="-5.278133">
        <ele>2162.0</ele>
        <time>2018-07-14T12:35:03Z</time>
      </trkpt>
      <trkpt lat="40.452767" lon="-5.278017">
        <ele>2164.0</ele>
        <time>2018-07-14T12:35:05Z</time>
      </trkpt>
      <trkpt lat="40.452700" lon="-5.278000">
        <ele>2160.0</ele>
        <time>2018-07-14T12:35:06Z</time>
      </trkpt>
      <trkpt lat="40.452633" lon="-5.278033">
        <ele>2161.0</ele>
        <time>2018-07-14T12:35:07Z</time>
      </trkpt>
      <trkpt lat="40.452600" lon="-5.278117">
        <ele>2163.0</ele>
        <time>2018-07-14T12:35:09Z</time>
      </trkpt>
      <trkpt lat="40.452600" lon="-5.278167">
        <ele>2165.0</ele>
        <time>2018-07-14T12:35:10Z</time>
      </trkpt>
      <trkpt lat="40.452633" lon="-5.278217">
        <ele>2168.0</ele>
        <time>2018-07-14T12:35:11Z</time>
      </trkpt>
      <trkpt lat="40.452700" lon="-5.278250">
        <ele>2169.0</ele>
        <time>2018-07-14T12:35:12Z</time>
      </trkpt>
      <trkpt lat="40.452767" lon="-5.278283">
        <ele>2171.0</ele>
        <time>2018-07-14T12:35:13Z</time>
      </trkpt>
      <trkpt lat="40.452817" lon="-5.278317">
        <ele>2171.0</ele>
        <time>2018-07-14T12:35:14Z</time>
      </trkpt>
      <trkpt lat="40.452850" lon="-5.278367">
        <ele>2172.0</ele>
        <time>2018-07-14T12:35:15Z</time>
      </trkpt>
      <trkpt lat="40.452917" lon="-5.278350">
        <ele>2173.0</ele>
        <time>2018-07-14T12:35:16Z</time>
      </trkpt>
      <trkpt lat="40.453000" lon="-5.278283">
        <ele>2174.0</ele>
        <time>2018-07-14T12:35:17Z</time>
      </trkpt>
      <trkpt lat="40.453100" lon="-5.278183">
        <ele>2175.0</ele>
        <time>2018-07-14T12:35:18Z</time>
      </trkpt>
      <trkpt lat="40.453150" lon="-5.278067">
        <ele>2176.0</ele>
        <time>2018-07-14T12:35:19Z</time>
      </trkpt>
      <trkpt lat="40.453167" lon="-5.277933">
        <ele>2178.0</ele>
        <time>2018-07-14T12:35:20Z</time>
      </trkpt>
      <trkpt lat="40.453150" lon="-5.277800">
        <ele>2180.0</ele>
        <time>2018-07-14T12:35:21Z</time>
      </trkpt>
      <trkpt lat="40.453100" lon="-5.277683">
        <ele>2181.0</ele>
        <time>2018-07-14T12:35:22Z</time>
      </trkpt>
      <trkpt lat="40.452967" lon="-5.277483">
        <ele>2184.0</ele>
        <time>2018-07-14T12:35:24Z</time>
      </trkpt>
      <trkpt lat="40.452867" lon="-5.277433">
        <ele>2185.0</ele>
        <time>2018-07-14T12:35:25Z</time>
      </trkpt>
      <trkpt lat="40.452783" lon="-5.277450">
        <ele>2189.0</ele>
        <time>2018-07-14T12:35:26Z</time>
      </trkpt>
      <trkpt lat="40.452733" lon="-5.277517">
        <ele>2193.0</ele>
        <time>2018-07-14T12:35:27Z</time>
      </trkpt>
      <trkpt lat="40.452733" lon="-5.277583">
        <ele>2197.0</ele>
        <time>2018-07-14T12:35:28Z</time>
      </trkpt>
      <trkpt lat="40.452767" lon="-5.277633">
        <ele>2200.0</ele>
        <time>2018-07-14T12:35:29Z</time>
      </trkpt>
      <trkpt lat="40.452800" lon="-5.277667">
        <ele>2205.0</ele>
        <time>2018-07-14T12:35:30Z</time>
      </trkpt>
      <trkpt lat="40.452867" lon="-5.277683">
        <ele>2208.0</ele>
        <time>2018-07-14T12:35:31Z</time>
      </trkpt>
      <trkpt lat="40.452933" lon="-5.277700">
        <ele>2211.0</ele>
        <time>2018-07-14T12:35:32Z</time>
      </trkpt>
      <trkpt lat="40.453000" lon="-5.277700">
        <ele>2214.0</ele>
        <time>2018-07-14T12:35:33Z</time>
      </trkpt>
      <trkpt lat="40.453083" lon="-5.277700">
        <ele>2217.0</ele>
        <time>2018-07-14T12:35:34Z</time>
      </trkpt>
      <trkpt lat="40.453133" lon="-5.277683">
        <ele>2219.0</ele>
        <time>2018-07-14T12:35:35Z</time>
      </trkpt>
      <trkpt lat="40.453217" lon="-5.277600">
        <ele>2215.0</ele>
        <time>2018-07-14T12:35:36Z</time>
      </trkpt>
      <trkpt lat="40.453267" lon="-5.277467">
        <ele>2216.0</ele>
        <time>2018-07-14T12:35:37Z</time>
      </trkpt>
      <trkpt lat="40.453283" lon="-5.277317">
        <ele>2217.0</ele>
        <time>2018-07-14T12:35:38Z</time>
      </trkpt>
      <trkpt lat="40.453267" lon="-5.277183">
        <ele>2217.0</ele>
        <time>2018-07-14T12:35:39Z</time>
      </trkpt>
      <trkpt lat="40.453150" lon="-5.276967">
        <ele>2218.0</ele>
        <time>2018-07-14T12:35:41Z</time>
      </trkpt>
      <trkpt lat="40.453067" lon="-5.276917">
        <ele>2218.0</ele>
        <time>2018-07-14T12:35:42Z</time>
      </trkpt>
      <trkpt lat="40.452983" lon="-5.276883">
        <ele>2219.0</ele>
        <time>2018-07-14T12:35:43Z</time>
      </trkpt>
      <trkpt lat="40.452900" lon="-5.276917">
        <ele>2219.0</ele>
        <time>2018-07-14T12:35:44Z</time>
      </trkpt>
      <trkpt lat="40.452850" lon="-5.276983">
        <ele>2220.0</ele>
        <time>2018-07-14T12:35:45Z</time>
      </trkpt>
      <trkpt lat="40.452817" lon="-5.277050">
        <ele>2222.0</ele>
        <time>2018-07-14T12:35:46Z</time>
      </trkpt>
      <trkpt lat="40.452817" lon="-5.277133">
        <ele>2224.0</ele>
        <time>2018-07-14T12:35:47Z</time>
      </trkpt>
      <trkpt lat="40.452817" lon="-5.277217">
        <ele>2226.0</ele>
        <time>2018-07-14T12:35:48Z</time>
      </trkpt>
      <trkpt lat="40.452850" lon="-5.277300">
        <ele>2228.0</ele>
        <time>2018-07-14T12:35:49Z</time>
      </trkpt>
      <trkpt lat="40.452900" lon="-5.277350">
        <ele>2230.0</ele>
        <time>2018-07-14T12:35:50Z</time>
      </trkpt>
      <trkpt lat="40.452950" lon="-5.277400">
        <ele>2233.0</ele>
        <time>2018-07-14T12:35:51Z</time>
      </trkpt>
      <trkpt lat="40.453000" lon="-5.277450">
        <ele>2236.0</ele>
        <time>2018-07-14T12:35:52Z</time>
      </trkpt>
      <trkpt lat="40.453083" lon="-5.277467">
        <ele>2234.0</ele>
        <time>2018-07-14T12:35:53Z</time>
      </trkpt>
      <trkpt lat="40.453183" lon="-5.277450">
        <ele>2235.0</ele>
        <time>2018-07-14T12:35:54Z</time>
      </trkpt>
      <trkpt lat="40.453300" lon="-5.277417">
        <ele>2236.0</ele>
        <time>2018-07-14T12:35:55Z</time>
      </trkpt>
      <trkpt lat="40.453450" lon="-5.277200">
        <ele>2239.0</ele>
        <time>2018-07-14T12:35:57Z</time>
      </trkpt>
      <trkpt lat="40.453500" lon="-5.277083">
        <ele>2242.0</ele>
        <time>2018-07-14T12:35:58Z</time>
      </trkpt>
      <trkpt lat="40.453517" lon="-5.276967">
        <ele>2244.0</ele>
        <time>2018-07-14T12:35:59Z</time>
      </trkpt>
      <trkpt lat="40.453500" lon="-5.276850">
        <ele>2246.0</ele>
        <time>2018-07-14T12:36:00Z</time>
      </trkpt>
      <trkpt lat="40.453483" lon="-5.276767">
        <ele>2247.0</ele>
        <time>2018-07-14T12:36:01Z</time>
      </trkpt>
      <trkpt lat="40.453417" lon="-5.276683">
        <ele>2248.0</ele>
        <time>2018-07-14T12:36:02Z</time>
      </trkpt>
      <trkpt lat="40.453350" lon="-5.276650">
        <ele>2246.0</ele>
        <time>2018-07-14T12:36:03Z</time>
      </trkpt>
      <trkpt lat="40.453283" lon="-5.276667">
        <ele>2246.0</ele>
        <time>2018-07-14T12:36:04Z</time>
      </trkpt>
      <trkpt lat="40.453250" lon="-5.276733">
        <ele>2248.0</ele>
        <time>2018-07-14T12:36:05Z</time>
      </trkpt>
      <trkpt lat="40.453267" lon="-5.276783">
        <ele>2250.0</ele>
        <time>2018-07-14T12:36:06Z</time>
      </trkpt>
      <trkpt lat="40.453300" lon="-5.276850">
        <ele>2252.0</ele>
        <time>2018-07-14T12:36:07Z</time>
      </trkpt>
      <trkpt lat="40.453317" lon="-5.276917">
        <ele>2253.0</ele>
        <time>2018-07-14T12:36:08Z</time>
      </trkpt>
      <trkpt lat="40.453333" lon="-5.276983">
        <ele>2253.0</ele>
        <time>2018-07-14T12:36:09Z</time>
      </trkpt>
      <trkpt lat="40.453350" lon="-5.277033">
        <ele>2253.0</ele>
        <time>2018-07-14T12:36:10Z</time>
      </trkpt>
      <trkpt lat="40.453400" lon="-5.277100">
        <ele>2254.0</ele>
        <time>2018-07-14T12:36:11Z</time>
      </trkpt>
      <trkpt lat="40.453450" lon="-5.277167">
        <ele>2254.0</ele>
        <time>2018-07-14T12:36:12Z</time>
      </trkpt>
      <trkpt lat="40.453533" lon="-5.277217">
        <ele>2255.0</ele>
        <time>2018-07-14T12:36:13Z</time>
      </trkpt>
      <trkpt lat="40.453633" lon="-5.277200">
        <ele>2256.0</ele>
        <time>2018-07-14T12:36:14Z</time>
      </trkpt>
      <trkpt lat="40.453750" lon="-5.277117">
        <ele>2256.0</ele>
        <time>2018-07-14T12:36:15Z</time>
      </trkpt>
      <trkpt lat="40.453833" lon="-5.277000">
        <ele>2257.0</ele>
        <time>2018-07-14T12:36:16Z</time>
      </trkpt>
      <trkpt lat="40.453900" lon="-5.276850">
        <ele>2258.0</ele>
        <time>2018-07-14T12:36:17Z</time>
      </trkpt>
      <trkpt lat="40.453917" lon="-5.276683">
        <ele>2260.0</ele>
        <time>2018-07-14T12:36:18Z</time>
      </trkpt>
      <trkpt lat="40.453933" lon="-5.276550">
        <ele>2262.0</ele>
        <time>2018-07-14T12:36:19Z</time>
      </trkpt>
      <trkpt lat="40.453933" lon="-5.276400">
        <ele>2264.0</ele>
        <time>2018-07-14T12:36:20Z</time>
      </trkpt>
      <trkpt lat="40.453900" lon="-5.276283">
        <ele>2265.0</ele>
        <time>2018-07-14T12:36:21Z</time>
      </trkpt>
      <trkpt lat="40.453867" lon="-5.276183">
        <ele>2266.0</ele>
        <time>2018-07-14T12:36:22Z</time>
      </trkpt>
      <trkpt lat="40.453817" lon="-5.276083">
        <ele>2268.0</ele>
        <time>2018-07-14T12:36:23Z</time>
      </trkpt>
      <trkpt lat="40.453750" lon="-5.276017">
        <ele>2270.0</ele>
        <time>2018-07-14T12:36:24Z</time>
      </trkpt>
      <trkpt lat="40.453683" lon="-5.275983">
        <ele>2272.0</ele>
        <time>2018-07-14T12:36:25Z</time>
      </trkpt>
      <trkpt lat="40.453633" lon="-5.276017">
        <ele>2276.0</ele>
        <time>2018-07-14T12:36:26Z</time>
      </trkpt>
      <trkpt lat="40.453600" lon="-5.276067">
        <ele>2278.0</ele>
        <time>2018-07-14T12:36:27Z</time>
      </trkpt>
      <trkpt lat="40.453617" lon="-5.276150">
        <ele>2280.0</ele>
        <time>2018-07-14T12:36:28Z</time>
      </trkpt>
      <trkpt lat="40.453683" lon="-5.276217">
        <ele>2280.0</ele>
        <time>2018-07-14T12:36:29Z</time>
      </trkpt>
      <trkpt lat="40.453783" lon="-5.276250">
        <ele>2281.0</ele>
        <time>2018-07-14T12:36:30Z</time>
      </trkpt>
      <trkpt lat="40.454017" lon="-5.276100">
        <ele>2283.0</ele>
        <time>2018-07-14T12:36:32Z</time>
      </trkpt>
      <trkpt lat="40.454100" lon="-5.275967">
        <ele>2285.0</ele>
        <time>2018-07-14T12:36:33Z</time>
      </trkpt>
      <trkpt lat="40.454150" lon="-5.275800">
        <ele>2287.0</ele>
        <time>2018-07-14T12:36:34Z</time>
      </trkpt>
      <trkpt lat="40.454150" lon="-5.275667">
        <ele>2288.0</ele>
        <time>2018-07-14T12:36:35Z</time>
      </trkpt>
      <trkpt lat="40.454133" lon="-5.275533">
        <ele>2291.0</ele>
        <time>2018-07-14T12:36:36Z</time>
      </trkpt>
      <trkpt lat="40.454083" lon="-5.275433">
        <ele>2293.0</ele>
        <time>2018-07-14T12:36:37Z</time>
      </trkpt>
      <trkpt lat="40.454033" lon="-5.275350">
        <ele>2294.0</ele>
        <time>2018-07-14T12:36:38Z</time>
      </trkpt>
      <trkpt lat="40.453967" lon="-5.275300">
        <ele>2292.0</ele>
        <time>2018-07-14T12:36:39Z</time>
      </trkpt>
      <trkpt lat="40.453883" lon="-5.275283">
        <ele>2292.0</ele>
        <time>2018-07-14T12:36:40Z</time>
      </trkpt>
      <trkpt lat="40.453817" lon="-5.275333">
        <ele>2294.0</ele>
        <time>2018-07-14T12:36:41Z</time>
      </trkpt>
      <trkpt lat="40.453800" lon="-5.275400">
        <ele>2295.0</ele>
        <time>2018-07-14T12:36:42Z</time>
      </trkpt>
      <trkpt lat="40.453833" lon="-5.275483">
        <ele>2297.0</ele>
        <time>2018-07-14T12:36:43Z</time>
      </trkpt>
      <trkpt lat="40.453900" lon="-5.275550">
        <ele>2297.0</ele>
        <time>2018-07-14T12:36:44Z</time>
      </trkpt>
      <trkpt lat="40.454000" lon="-5.275567">
        <ele>2297.0</ele>
        <time>2018-07-14T12:36:45Z</time>
      </trkpt>
      <trkpt lat="40.454100" lon="-5.275550">
        <ele>2297.0</ele>
        <time>2018-07-14T12:36:46Z</time>
      </trkpt>
      <trkpt lat="40.454200" lon="-5.275483">
        <ele>2298.0</ele>
        <time>2018-07-14T12:36:47Z</time>
      </trkpt>
      <trkpt lat="40.454300" lon="-5.275417">
        <ele>2299.0</ele>
        <time>2018-07-14T12:36:48Z</time>
      </trkpt>
      <trkpt lat="40.454383" lon="-5.275350">
        <ele>2300.0</ele>
        <time>2018-07-14T12:36:49Z</time>
      </trkpt>
      <trkpt lat="40.454467" lon="-5.275267">
        <ele>2303.0</ele>
        <time>2018-07-14T12:36:50Z</time>
      </trkpt>
      <trkpt lat="40.454550" lon="-5.275183">
        <ele>2305.0</ele>
        <time>2018-07-14T12:36:51Z</time>
      </trkpt>
      <trkpt lat="40.454683" lon="-5.274917">
        <ele>2309.0</ele>
        <time>2018-07-14T12:36:53Z</time>
      </trkpt>
      <trkpt lat="40.454700" lon="-5.274767">
        <ele>2310.0</ele>
        <time>2018-07-14T12:36:54Z</time>
      </trkpt>
      <trkpt lat="40.454667" lon="-5.274633">
        <ele>2313.0</ele>
        <time>2018-07-14T12:36:55Z</time>
      </trkpt>
      <trkpt lat="40.454617" lon="-5.274517">
        <ele>2314.0</ele>
        <time>2018-07-14T12:36:56Z</time>
      </trkpt>
      <trkpt lat="40.454550" lon="-5.274433">
        <ele>2316.0</ele>
        <time>2018-07-14T12:36:57Z</time>
      </trkpt>
      <trkpt lat="40.454467" lon="-5.274400">
        <ele>2318.0</ele>
        <time>2018-07-14T12:36:58Z</time>
      </trkpt>
      <trkpt lat="40.454400" lon="-5.274400">
        <ele>2320.0</ele>
        <time>2018-07-14T12:36:59Z</time>
      </trkpt>
      <trkpt lat="40.454350" lon="-5.274433">
        <ele>2317.0</ele>
        <time>2018-07-14T12:37:00Z</time>
      </trkpt>
      <trkpt lat="40.454333" lon="-5.274500">
        <ele>2318.0</ele>
        <time>2018-07-14T12:37:01Z</time>
      </trkpt>
      <trkpt lat="40.454350" lon="-5.274567">
        <ele>2319.0</ele>
        <time>2018-07-14T12:37:02Z</time>
      </trkpt>
      <trkpt lat="40.454383" lon="-5.274650">
        <ele>2321.0</ele>
        <time>2018-07-14T12:37:03Z</time>
      </trkpt>
      <trkpt lat="40.454450" lon="-5.274733">
        <ele>2322.0</ele>
        <time>2018-07-14T12:37:04Z</time>
      </trkpt>
      <trkpt lat="40.454550" lon="-5.274750">
        <ele>2322.0</ele>
        <time>2018-07-14T12:37:05Z</time>
      </trkpt>
      <trkpt lat="40.454650" lon="-5.274700">
        <ele>2322.0</ele>
        <time>2018-07-14T12:37:06Z</time>
      </trkpt>
      <trkpt lat="40.454733" lon="-5.274583">
        <ele>2322.0</ele>
        <time>2018-07-14T12:37:07Z</time>
      </trkpt>
      <trkpt lat="40.454817" lon="-5.274450">
        <ele>2322.0</ele>
        <time>2018-07-14T12:37:08Z</time>
      </trkpt>
      <trkpt lat="40.454833" lon="-5.274300">
        <ele>2323.0</ele>
        <time>2018-07-14T12:37:09Z</time>
      </trkpt>
      <trkpt lat="40.454817" lon="-5.274150">
        <ele>2325.0</ele>
        <time>2018-07-14T12:37:10Z</time>
      </trkpt>
      <trkpt lat="40.454767" lon="-5.274017">
        <ele>2327.0</ele>
        <time>2018-07-14T12:37:11Z</time>
      </trkpt>
      <trkpt lat="40.454700" lon="-5.273950">
        <ele>2328.0</ele>
        <time>2018-07-14T12:37:12Z</time>
      </trkpt>
      <trkpt lat="40.454633" lon="-5.273883">
        <ele>2329.0</ele>
        <time>2018-07-14T12:37:13Z</time>
      </trkpt>
      <trkpt lat="40.454550" lon="-5.273850">
        <ele>2328.0</ele>
        <time>2018-07-14T12:37:14Z</time>
      </trkpt>
      <trkpt lat="40.454483" lon="-5.273833">
        <ele>2330.0</ele>
        <time>2018-07-14T12:37:15Z</time>
      </trkpt>
      <trkpt lat="40.454433" lon="-5.273833">
        <ele>2333.0</ele>
        <time>2018-07-14T12:37:16Z</time>
      </trkpt>
      <trkpt lat="40.454417" lon="-5.273883">
        <ele>2334.0</ele>
        <time>2018-07-14T12:37:17Z</time>
      </trkpt>
      <trkpt lat="40.454400" lon="-5.273983">
        <ele>2335.0</ele>
        <time>2018-07-14T12:37:18Z</time>
      </trkpt>
      <trkpt lat="40.454433" lon="-5.274083">
        <ele>2336.0</ele>
        <time>2018-07-14T12:37:19Z</time>
      </trkpt>
      <trkpt lat="40.454483" lon="-5.274150">
        <ele>2338.0</ele>
        <time>2018-07-14T12:37:20Z</time>
      </trkpt>
      <trkpt lat="40.454583" lon="-5.274167">
        <ele>2340.0</ele>
        <time>2018-07-14T12:37:21Z</time>
      </trkpt>
      <trkpt lat="40.454683" lon="-5.274133">
        <ele>2341.0</ele>
        <time>2018-07-14T12:37:22Z</time>
      </trkpt>
      <trkpt lat="40.454783" lon="-5.274033">
        <ele>2342.0</ele>
        <time>2018-07-14T12:37:23Z</time>
      </trkpt>
      <trkpt lat="40.454850" lon="-5.273883">
        <ele>2344.0</ele>
        <time>2018-07-14T12:37:24Z</time>
      </trkpt>
      <trkpt lat="40.454833" lon="-5.273600">
        <ele>2346.0</ele>
        <time>2018-07-14T12:37:26Z</time>
      </trkpt>
      <trkpt lat="40.454767" lon="-5.273483">
        <ele>2347.0</ele>
        <time>2018-07-14T12:37:27Z</time>
      </trkpt>
      <trkpt lat="40.454700" lon="-5.273383">
        <ele>2348.0</ele>
        <time>2018-07-14T12:37:28Z</time>
      </trkpt>
      <trkpt lat="40.454633" lon="-5.273333">
        <ele>2349.0</ele>
        <time>2018-07-14T12:37:29Z</time>
      </trkpt>
      <trkpt lat="40.454550" lon="-5.273317">
        <ele>2351.0</ele>
        <time>2018-07-14T12:37:30Z</time>
      </trkpt>
      <trkpt lat="40.454483" lon="-5.273350">
        <ele>2351.0</ele>
        <time>2018-07-14T12:37:31Z</time>
      </trkpt>
      <trkpt lat="40.454467" lon="-5.273417">
        <ele>2352.0</ele>
        <time>2018-07-14T12:37:32Z</time>
      </trkpt>
      <trkpt lat="40.454483" lon="-5.273483">
        <ele>2354.0</ele>
        <time>2018-07-14T12:37:33Z</time>
      </trkpt>
      <trkpt lat="40.454517" lon="-5.273567">
        <ele>2356.0</ele>
        <time>2018-07-14T12:37:34Z</time>
      </trkpt>
      <trkpt lat="40.454583" lon="-5.273633">
        <ele>2357.0</ele>
        <time>2018-07-14T12:37:35Z</time>
      </trkpt>
      <trkpt lat="40.454683" lon="-5.273650">
        <ele>2358.0</ele>
        <time>2018-07-14T12:37:36Z</time>
      </trkpt>
      <trkpt lat="40.454783" lon="-5.273633">
        <ele>2360.0</ele>
        <time>2018-07-14T12:37:37Z</time>
      </trkpt>
      <trkpt lat="40.454883" lon="-5.273583">
        <ele>2362.0</ele>
        <time>2018-07-14T12:37:38Z</time>
      </trkpt>
      <trkpt lat="40.454967" lon="-5.273500">
        <ele>2364.0</ele>
        <time>2018-07-14T12:37:39Z</time>
      </trkpt>
      <trkpt lat="40.455033" lon="-5.273433">
        <ele>2367.0</ele>
        <time>2018-07-14T12:37:40Z</time>
      </trkpt>
      <trkpt lat="40.455083" lon="-5.273333">
        <ele>2369.0</ele>
        <time>2018-07-14T12:37:41Z</time>
      </trkpt>
      <trkpt lat="40.455150" lon="-5.273217">
        <ele>2371.0</ele>
        <time>2018-07-14T12:37:42Z</time>
      </trkpt>
      <trkpt lat="40.455183" lon="-5.273067">
        <ele>2372.0</ele>
        <time>2018-07-14T12:37:43Z</time>
      </trkpt>
      <trkpt lat="40.455183" lon="-5.272917">
        <ele>2373.0</ele>
        <time>2018-07-14T12:37:44Z</time>
      </trkpt>
      <trkpt lat="40.455167" lon="-5.272783">
        <ele>2375.0</ele>
        <time>2018-07-14T12:37:45Z</time>
      </trkpt>
      <trkpt lat="40.455100" lon="-5.272683">
        <ele>2376.0</ele>
        <time>2018-07-14T12:37:46Z</time>
      </trkpt>
      <trkpt lat="40.455033" lon="-5.272617">
        <ele>2378.0</ele>
        <time>2018-07-14T12:37:47Z</time>
      </trkpt>
      <trkpt lat="40.454967" lon="-5.272583">
        <ele>2380.0</ele>
        <time>2018-07-14T12:37:48Z</time>
      </trkpt>
      <trkpt lat="40.454917" lon="-5.272600">
        <ele>2382.0</ele>
        <time>2018-07-14T12:37:49Z</time>
      </trkpt>
      <trkpt lat="40.454867" lon="-5.272633">
        <ele>2383.0</ele>
        <time>2018-07-14T12:37:50Z</time>
      </trkpt>
      <trkpt lat="40.454850" lon="-5.272700">
        <ele>2383.0</ele>
        <time>2018-07-14T12:37:51Z</time>
      </trkpt>
      <trkpt lat="40.454850" lon="-5.272767">
        <ele>2385.0</ele>
        <time>2018-07-14T12:37:52Z</time>
      </trkpt>
      <trkpt lat="40.454867" lon="-5.272850">
        <ele>2385.0</ele>
        <time>2018-07-14T12:37:53Z</time>
      </trkpt>
      <trkpt lat="40.454917" lon="-5.272917">
        <ele>2385.0</ele>
        <time>2018-07-14T12:37:54Z</time>
      </trkpt>
      <trkpt lat="40.455017" lon="-5.272933">
        <ele>2385.0</ele>
        <time>2018-07-14T12:37:55Z</time>
      </trkpt>
      <trkpt lat="40.455133" lon="-5.272933">
        <ele>2385.0</ele>
        <time>2018-07-14T12:37:56Z</time>
      </trkpt>
      <trkpt lat="40.455217" lon="-5.272900">
        <ele>2386.0</ele>
        <time>2018-07-14T12:37:57Z</time>
      </trkpt>
      <trkpt lat="40.455317" lon="-5.272850">
        <ele>2387.0</ele>
        <time>2018-07-14T12:37:58Z</time>
      </trkpt>
      <trkpt lat="40.455400" lon="-5.272800">
        <ele>2388.0</ele>
        <time>2018-07-14T12:37:59Z</time>
      </trkpt>
      <trkpt lat="40.455483" lon="-5.272733">
        <ele>2390.0</ele>
        <time>2018-07-14T12:38:00Z</time>
      </trkpt>
      <trkpt lat="40.455567" lon="-5.272650">
        <ele>2391.0</ele>
        <time>2018-07-14T12:38:01Z</time>
      </trkpt>
      <trkpt lat="40.455633" lon="-5.272550">
        <ele>2392.0</ele>
        <time>2018-07-14T12:38:02Z</time>
      </trkpt>
      <trkpt lat="40.455683" lon="-5.272417">
        <ele>2394.0</ele>
        <time>2018-07-14T12:38:03Z</time>
      </trkpt>
      <trkpt lat="40.455717" lon="-5.272283">
        <ele>2395.0</ele>
        <time>2018-07-14T12:38:04Z</time>
      </trkpt>
      <trkpt lat="40.455700" lon="-5.272133">
        <ele>2396.0</ele>
        <time>2018-07-14T12:38:05Z</time>
      </trkpt>
      <trkpt lat="40.455667" lon="-5.271983">
        <ele>2397.0</ele>
        <time>2018-07-14T12:38:06Z</time>
      </trkpt>
      <trkpt lat="40.455600" lon="-5.271867">
        <ele>2397.0</ele>
        <time>2018-07-14T12:38:07Z</time>
      </trkpt>
      <trkpt lat="40.455517" lon="-5.271800">
        <ele>2397.0</ele>
        <time>2018-07-14T12:38:08Z</time>
      </trkpt>
      <trkpt lat="40.455433" lon="-5.271767">
        <ele>2398.0</ele>
        <time>2018-07-14T12:38:09Z</time>
      </trkpt>
      <trkpt lat="40.455367" lon="-5.271800">
        <ele>2399.0</ele>
        <time>2018-07-14T12:38:10Z</time>
      </trkpt>
      <trkpt lat="40.455333" lon="-5.271867">
        <ele>2400.0</ele>
        <time>2018-07-14T12:38:11Z</time>
      </trkpt>
      <trkpt lat="40.455317" lon="-5.271950">
        <ele>2401.0</ele>
        <time>2018-07-14T12:38:12Z</time>
      </trkpt>
      <trkpt lat="40.455333" lon="-5.272033">
        <ele>2403.0</ele>
        <time>2018-07-14T12:38:13Z</time>
      </trkpt>
      <trkpt lat="40.455350" lon="-5.272100">
        <ele>2405.0</ele>
        <time>2018-07-14T12:38:14Z</time>
      </trkpt>
      <trkpt lat="40.455383" lon="-5.272150">
        <ele>2408.0</ele>
        <time>2018-07-14T12:38:15Z</time>
      </trkpt>
      <trkpt lat="40.455417" lon="-5.272200">
        <ele>2411.0</ele>
        <time>2018-07-14T12:38:16Z</time>
      </trkpt>
      <trkpt lat="40.455483" lon="-5.272267">
        <ele>2412.0</ele>
        <time>2018-07-14T12:38:17Z</time>
      </trkpt>
      <trkpt lat="40.455550" lon="-5.272317">
        <ele>2412.0</ele>
        <time>2018-07-14T12:38:18Z</time>
      </trkpt>
      <trkpt lat="40.455617" lon="-5.272333">
        <ele>2413.0</ele>
        <time>2018-07-14T12:38:19Z</time>
      </trkpt>
      <trkpt lat="40.455717" lon="-5.272300">
        <ele>2413.0</ele>
        <time>2018-07-14T12:38:20Z</time>
      </trkpt>
      <trkpt lat="40.455800" lon="-5.272233">
        <ele>2414.0</ele>
        <time>2018-07-14T12:38:21Z</time>
      </trkpt>
      <trkpt lat="40.455883" lon="-5.272150">
        <ele>2416.0</ele>
        <time>2018-07-14T12:38:22Z</time>
      </trkpt>
      <trkpt lat="40.455950" lon="-5.272050">
        <ele>2418.0</ele>
        <time>2018-07-14T12:38:23Z</time>
      </trkpt>
      <trkpt lat="40.456000" lon="-5.271933">
        <ele>2420.0</ele>
        <time>2018-07-14T12:38:24Z</time>
      </trkpt>
      <trkpt lat="40.456033" lon="-5.271817">
        <ele>2423.0</ele>
        <time>2018-07-14T12:38:25Z</time>
      </trkpt>
      <trkpt lat="40.456050" lon="-5.271717">
        <ele>2424.0</ele>
        <time>2018-07-14T12:38:26Z</time>
      </trkpt>
      <trkpt lat="40.456067" lon="-5.271583">
        <ele>2425.0</ele>
        <time>2018-07-14T12:38:27Z</time>
      </trkpt>
      <trkpt lat="40.456033" lon="-5.271467">
        <ele>2426.0</ele>
        <time>2018-07-14T12:38:28Z</time>
      </trkpt>
      <trkpt lat="40.455983" lon="-5.271350">
        <ele>2425.0</ele>
        <time>2018-07-14T12:38:29Z</time>
      </trkpt>
      <trkpt lat="40.455900" lon="-5.271283">
        <ele>2424.0</ele>
        <time>2018-07-14T12:38:30Z</time>
      </trkpt>
      <trkpt lat="40.455817" lon="-5.271267">
        <ele>2424.0</ele>
        <time>2018-07-14T12:38:31Z</time>
      </trkpt>
      <trkpt lat="40.455750" lon="-5.271267">
        <ele>2424.0</ele>
        <time>2018-07-14T12:38:32Z</time>
      </trkpt>
      <trkpt lat="40.455700" lon="-5.271317">
        <ele>2425.0</ele>
        <time>2018-07-14T12:38:33Z</time>
      </trkpt>
      <trkpt lat="40.455700" lon="-5.271383">
        <ele>2426.0</ele>
        <time>2018-07-14T12:38:34Z</time>
      </trkpt>
      <trkpt lat="40.455733" lon="-5.271467">
        <ele>2427.0</ele>
        <time>2018-07-14T12:38:35Z</time>
      </trkpt>
      <trkpt lat="40.455800" lon="-5.271517">
        <ele>2427.0</ele>
        <time>2018-07-14T12:38:36Z</time>
      </trkpt>
      <trkpt lat="40.455967" lon="-5.271517">
        <ele>2431.0</ele>
        <time>2018-07-14T12:38:38Z</time>
      </trkpt>
      <trkpt lat="40.456067" lon="-5.271467">
        <ele>2433.0</ele>
        <time>2018-07-14T12:38:39Z</time>
      </trkpt>
      <trkpt lat="40.456133" lon="-5.271400">
        <ele>2436.0</ele>
        <time>2018-07-14T12:38:40Z</time>
      </trkpt>
      <trkpt lat="40.456183" lon="-5.271317">
        <ele>2438.0</ele>
        <time>2018-07-14T12:38:41Z</time>
      </trkpt>
      <trkpt lat="40.456233" lon="-5.271233">
        <ele>2439.0</ele>
        <time>2018-07-14T12:38:42Z</time>
      </trkpt>
      <trkpt lat="40.456267" lon="-5.271117">
        <ele>2440.0</ele>
        <time>2018-07-14T12:38:43Z</time>
      </trkpt>
      <trkpt lat="40.456317" lon="-5.271000">
        <ele>2439.0</ele>
        <time>2018-07-14T12:38:44Z</time>
      </trkpt>
      <trkpt lat="40.456317" lon="-5.270833">
        <ele>2438.0</ele>
        <time>2018-07-14T12:38:45Z</time>
      </trkpt>
      <trkpt lat="40.456283" lon="-5.270700">
        <ele>2439.0</ele>
        <time>2018-07-14T12:38:46Z</time>
      </trkpt>
      <trkpt lat="40.456217" lon="-5.270583">
        <ele>2438.0</ele>
        <time>2018-07-14T12:38:47Z</time>
      </trkpt>
      <trkpt lat="40.456133" lon="-5.270533">
        <ele>2438.0</ele>
        <time>2018-07-14T12:38:48Z</time>
      </trkpt>
      <trkpt lat="40.456050" lon="-5.270517">
        <ele>2438.0</ele>
        <time>2018-07-14T12:38:49Z</time>
      </trkpt>
      <trkpt lat="40.455983" lon="-5.270517">
        <ele>2439.0</ele>
        <time>2018-07-14T12:38:50Z</time>
      </trkpt>
      <trkpt lat="40.455917" lon="-5.270500">
        <ele>2443.0</ele>
        <time>2018-07-14T12:38:51Z</time>
      </trkpt>
      <trkpt lat="40.455867" lon="-5.270483">
        <ele>2446.0</ele>
        <time>2018-07-14T12:38:52Z</time>
      </trkpt>
      <trkpt lat="40.455817" lon="-5.270483">
        <ele>2447.0</ele>
        <time>2018-07-14T12:38:53Z</time>
      </trkpt>
      <trkpt lat="40.455767" lon="-5.270500">
        <ele>2446.0</ele>
        <time>2018-07-14T12:38:54Z</time>
      </trkpt>
      <trkpt lat="40.455733" lon="-5.270550">
        <ele>2446.0</ele>
        <time>2018-07-14T12:38:55Z</time>
      </trkpt>
      <trkpt lat="40.455717" lon="-5.270633">
        <ele>2446.0</ele>
        <time>2018-07-14T12:38:56Z</time>
      </trkpt>
      <trkpt lat="40.455700" lon="-5.270733">
        <ele>2446.0</ele>
        <time>2018-07-14T12:38:57Z</time>
      </trkpt>
      <trkpt lat="40.455733" lon="-5.270817">
        <ele>2446.0</ele>
        <time>2018-07-14T12:38:58Z</time>
      </trkpt>
      <trkpt lat="40.455767" lon="-5.270883">
        <ele>2447.0</ele>
        <time>2018-07-14T12:38:59Z</time>
      </trkpt>
      <trkpt lat="40.455850" lon="-5.270933">
        <ele>2448.0</ele>
        <time>2018-07-14T12:39:00Z</time>
      </trkpt>
      <trkpt lat="40.455917" lon="-5.270950">
        <ele>2449.0</ele>
        <time>2018-07-14T12:39:01Z</time>
      </trkpt>
      <trkpt lat="40.456000" lon="-5.270950">
        <ele>2450.0</ele>
        <time>2018-07-14T12:39:02Z</time>
      </trkpt>
      <trkpt lat="40.456100" lon="-5.270933">
        <ele>2452.0</ele>
        <time>2018-07-14T12:39:03Z</time>
      </trkpt>
      <trkpt lat="40.456183" lon="-5.270933">
        <ele>2454.0</ele>
        <time>2018-07-14T12:39:04Z</time>
      </trkpt>
      <trkpt lat="40.456283" lon="-5.270900">
        <ele>2456.0</ele>
        <time>2018-07-14T12:39:05Z</time>
      </trkpt>
      <trkpt lat="40.456367" lon="-5.270850">
        <ele>2457.0</ele>
        <time>2018-07-14T12:39:06Z</time>
      </trkpt>
      <trkpt lat="40.456433" lon="-5.270783">
        <ele>2459.0</ele>
        <time>2018-07-14T12:39:07Z</time>
      </trkpt>
      <trkpt lat="40.456483" lon="-5.270683">
        <ele>2460.0</ele>
        <time>2018-07-14T12:39:08Z</time>
      </trkpt>
      <trkpt lat="40.456533" lon="-5.270583">
        <ele>2461.0</ele>
        <time>2018-07-14T12:39:09Z</time>
      </trkpt>
      <trkpt lat="40.456550" lon="-5.270450">
        <ele>2461.0</ele>
        <time>2018-07-14T12:39:10Z</time>
      </trkpt>
      <trkpt lat="40.456567" lon="-5.270317">
        <ele>2462.0</ele>
        <time>2018-07-14T12:39:11Z</time>
      </trkpt>
      <trkpt lat="40.456533" lon="-5.270183">
        <ele>2461.0</ele>
        <time>2018-07-14T12:39:12Z</time>
      </trkpt>
      <trkpt lat="40.456500" lon="-5.270067">
        <ele>2461.0</ele>
        <time>2018-07-14T12:39:13Z</time>
      </trkpt>
      <trkpt lat="40.456433" lon="-5.269967">
        <ele>2462.0</ele>
        <time>2018-07-14T12:39:14Z</time>
      </trkpt>
      <trkpt lat="40.456350" lon="-5.269917">
        <ele>2462.0</ele>
        <time>2018-07-14T12:39:15Z</time>
      </trkpt>
      <trkpt lat="40.456283" lon="-5.269900">
        <ele>2461.0</ele>
        <time>2018-07-14T12:39:16Z</time>
      </trkpt>
      <trkpt lat="40.456200" lon="-5.269917">
        <ele>2461.0</ele>
        <time>2018-07-14T12:39:17Z</time>
      </trkpt>
      <trkpt lat="40.456167" lon="-5.269967">
        <ele>2461.0</ele>
        <time>2018-07-14T12:39:18Z</time>
      </trkpt>
      <trkpt lat="40.456133" lon="-5.270033">
        <ele>2461.0</ele>
        <time>2018-07-14T12:39:19Z</time>
      </trkpt>
      <trkpt lat="40.456117" lon="-5.270100">
        <ele>2461.0</ele>
        <time>2018-07-14T12:39:20Z</time>
      </trkpt>
      <trkpt lat="40.456117" lon="-5.270150">
        <ele>2462.0</ele>
        <time>2018-07-14T12:39:21Z</time>
      </trkpt>
      <trkpt lat="40.456133" lon="-5.270217">
        <ele>2462.0</ele>
        <time>2018-07-14T12:39:22Z</time>
      </trkpt>
      <trkpt lat="40.456167" lon="-5.270250">
        <ele>2463.0</ele>
        <time>2018-07-14T12:39:23Z</time>
      </trkpt>
      <trkpt lat="40.456217" lon="-5.270300">
        <ele>2464.0</ele>
        <time>2018-07-14T12:39:24Z</time>
      </trkpt>
      <trkpt lat="40.456250" lon="-5.270350">
        <ele>2464.0</ele>
        <time>2018-07-14T12:39:25Z</time>
      </trkpt>
      <trkpt lat="40.456300" lon="-5.270400">
        <ele>2466.0</ele>
        <time>2018-07-14T12:39:26Z</time>
      </trkpt>
      <trkpt lat="40.456367" lon="-5.270417">
        <ele>2468.0</ele>
        <time>2018-07-14T12:39:27Z</time>
      </trkpt>
      <trkpt lat="40.456450" lon="-5.270417">
        <ele>2469.0</ele>
        <time>2018-07-14T12:39:28Z</time>
      </trkpt>
      <trkpt lat="40.456533" lon="-5.270400">
        <ele>2469.0</ele>
        <time>2018-07-14T12:39:29Z</time>
      </trkpt>
      <trkpt lat="40.456617" lon="-5.270367">
        <ele>2469.0</ele>
        <time>2018-07-14T12:39:30Z</time>
      </trkpt>
      <trkpt lat="40.456683" lon="-5.270317">
        <ele>2469.0</ele>
        <time>2018-07-14T12:39:31Z</time>
      </trkpt>
      <trkpt lat="40.456750" lon="-5.270217">
        <ele>2468.0</ele>
        <time>2018-07-14T12:39:32Z</time>
      </trkpt>
      <trkpt lat="40.456783" lon="-5.270100">
        <ele>2469.0</ele>
        <time>2018-07-14T12:39:33Z</time>
      </trkpt>
      <trkpt lat="40.456800" lon="-5.269967">
        <ele>2468.0</ele>
        <time>2018-07-14T12:39:34Z</time>
      </trkpt>
      <trkpt lat="40.456817" lon="-5.269833">
        <ele>2468.0</ele>
        <time>2018-07-14T12:39:35Z</time>
      </trkpt>
      <trkpt lat="40.456783" lon="-5.269700">
        <ele>2467.0</ele>
        <time>2018-07-14T12:39:36Z</time>
      </trkpt>
      <trkpt lat="40.456733" lon="-5.269600">
        <ele>2467.0</ele>
        <time>2018-07-14T12:39:37Z</time>
      </trkpt>
      <trkpt lat="40.456667" lon="-5.269517">
        <ele>2466.0</ele>
        <time>2018-07-14T12:39:38Z</time>
      </trkpt>
      <trkpt lat="40.456583" lon="-5.269467">
        <ele>2466.0</ele>
        <time>2018-07-14T12:39:39Z</time>
      </trkpt>
      <trkpt lat="40.456483" lon="-5.269450">
        <ele>2465.0</ele>
        <time>2018-07-14T12:39:40Z</time>
      </trkpt>
      <trkpt lat="40.456417" lon="-5.269467">
        <ele>2465.0</ele>
        <time>2018-07-14T12:39:41Z</time>
      </trkpt>
      <trkpt lat="40.456350" lon="-5.269483">
        <ele>2466.0</ele>
        <time>2018-07-14T12:39:42Z</time>
      </trkpt>
      <trkpt lat="40.456283" lon="-5.269517">
        <ele>2468.0</ele>
        <time>2018-07-14T12:39:43Z</time>
      </trkpt>
      <trkpt lat="40.456233" lon="-5.269567">
        <ele>2469.0</ele>
        <time>2018-07-14T12:39:44Z</time>
      </trkpt>
      <trkpt lat="40.456200" lon="-5.269617">
        <ele>2470.0</ele>
        <time>2018-07-14T12:39:45Z</time>
      </trkpt>
      <trkpt lat="40.456167" lon="-5.269683">
        <ele>2471.0</ele>
        <time>2018-07-14T12:39:46Z</time>
      </trkpt>
      <trkpt lat="40.456150" lon="-5.269750">
        <ele>2470.0</ele>
        <time>2018-07-14T12:39:47Z</time>
      </trkpt>
      <trkpt lat="40.456150" lon="-5.269833">
        <ele>2470.0</ele>
        <time>2018-07-14T12:39:48Z</time>
      </trkpt>
      <trkpt lat="40.456150" lon="-5.269917">
        <ele>2470.0</ele>
        <time>2018-07-14T12:39:49Z</time>
      </trkpt>
      <trkpt lat="40.456167" lon="-5.270033">
        <ele>2470.0</ele>
        <time>2018-07-14T12:39:50Z</time>
      </trkpt>
      <trkpt lat="40.456233" lon="-5.270183">
        <ele>2473.0</ele>
        <time>2018-07-14T12:39:52Z</time>
      </trkpt>
      <trkpt lat="40.456283" lon="-5.270233">
        <ele>2475.0</ele>
        <time>2018-07-14T12:39:53Z</time>
      </trkpt>
      <trkpt lat="40.456333" lon="-5.270267">
        <ele>2477.0</ele>
        <time>2018-07-14T12:39:54Z</time>
      </trkpt>
      <trkpt lat="40.456400" lon="-5.270300">
        <ele>2477.0</ele>
        <time>2018-07-14T12:39:55Z</time>
      </trkpt>
      <trkpt lat="40.456483" lon="-5.270350">
        <ele>2476.0</ele>
        <time>2018-07-14T12:39:56Z</time>
      </trkpt>
      <trkpt lat="40.456567" lon="-5.270383">
        <ele>2476.0</ele>
        <time>2018-07-14T12:39:57Z</time>
      </trkpt>
      <trkpt lat="40.456667" lon="-5.270417">
        <ele>2476.0</ele>
        <time>2018-07-14T12:39:58Z</time>
      </trkpt>
      <trkpt lat="40.456750" lon="-5.270417">
        <ele>2477.0</ele>
        <time>2018-07-14T12:39:59Z</time>
      </trkpt>
      <trkpt lat="40.456817" lon="-5.270433">
        <ele>2478.0</ele>
        <time>2018-07-14T12:40:00Z</time>
      </trkpt>
      <trkpt lat="40.456883" lon="-5.270433">
        <ele>2479.0</ele>
        <time>2018-07-14T12:40:01Z</time>
      </trkpt>
      <trkpt lat="40.456967" lon="-5.270417">
        <ele>2479.0</ele>
        <time>2018-07-14T12:40:02Z</time>
      </trkpt>
      <trkpt lat="40.457050" lon="-5.270400">
        <ele>2479.0</ele>
        <time>2018-07-14T12:40:03Z</time>
      </trkpt>
      <trkpt lat="40.457150" lon="-5.270400">
        <ele>2477.0</ele>
        <time>2018-07-14T12:40:04Z</time>
      </trkpt>
      <trkpt lat="40.457250" lon="-5.270400">
        <ele>2476.0</ele>
        <time>2018-07-14T12:40:05Z</time>
      </trkpt>
      <trkpt lat="40.457333" lon="-5.270400">
        <ele>2477.0</ele>
        <time>2018-07-14T12:40:06Z</time>
      </trkpt>
      <trkpt lat="40.457417" lon="-5.270400">
        <ele>2477.0</ele>
        <time>2018-07-14T12:40:07Z</time>
      </trkpt>
      <trkpt lat="40.457500" lon="-5.270400">
        <ele>2477.0</ele>
        <time>2018-07-14T12:40:08Z</time>
      </trkpt>
      <trkpt lat="40.457667" lon="-5.270400">
        <ele>2476.0</ele>
        <time>2018-07-14T12:40:10Z</time>
      </trkpt>
      <trkpt lat="40.457750" lon="-5.270383">
        <ele>2475.0</ele>
        <time>2018-07-14T12:40:11Z</time>
      </trkpt>
      <trkpt lat="40.457850" lon="-5.270383">
        <ele>2474.0</ele>
        <time>2018-07-14T12:40:12Z</time>
      </trkpt>
      <trkpt lat="40.457933" lon="-5.270383">
        <ele>2473.0</ele>
        <time>2018-07-14T12:40:13Z</time>
      </trkpt>
      <trkpt lat="40.458017" lon="-5.270383">
        <ele>2472.0</ele>
        <time>2018-07-14T12:40:14Z</time>
      </trkpt>
      <trkpt lat="40.458117" lon="-5.270383">
        <ele>2470.0</ele>
        <time>2018-07-14T12:40:15Z</time>
      </trkpt>
      <trkpt lat="40.458200" lon="-5.270383">
        <ele>2468.0</ele>
        <time>2018-07-14T12:40:16Z</time>
      </trkpt>
      <trkpt lat="40.458300" lon="-5.270367">
        <ele>2466.0</ele>
        <time>2018-07-14T12:40:17Z</time>
      </trkpt>
      <trkpt lat="40.458400" lon="-5.270367">
        <ele>2464.0</ele>
        <time>2018-07-14T12:40:18Z</time>
      </trkpt>
      <trkpt lat="40.458500" lon="-5.270367">
        <ele>2463.0</ele>
        <time>2018-07-14T12:40:19Z</time>
      </trkpt>
      <trkpt lat="40.458683" lon="-5.270350">
        <ele>2460.0</ele>
        <time>2018-07-14T12:40:21Z</time>
      </trkpt>
      <trkpt lat="40.458783" lon="-5.270333">
        <ele>2458.0</ele>
        <time>2018-07-14T12:40:22Z</time>
      </trkpt>
      <trkpt lat="40.458867" lon="-5.270317">
        <ele>2457.0</ele>
        <time>2018-07-14T12:40:23Z</time>
      </trkpt>
      <trkpt lat="40.458967" lon="-5.270317">
        <ele>2455.0</ele>
        <time>2018-07-14T12:40:24Z</time>
      </trkpt>
      <trkpt lat="40.459050" lon="-5.270300">
        <ele>2454.0</ele>
        <time>2018-07-14T12:40:25Z</time>
      </trkpt>
      <trkpt lat="40.459150" lon="-5.270300">
        <ele>2452.0</ele>
        <time>2018-07-14T12:40:26Z</time>
      </trkpt>
      <trkpt lat="40.459233" lon="-5.270283">
        <ele>2450.0</ele>
        <time>2018-07-14T12:40:27Z</time>
      </trkpt>
      <trkpt lat="40.459333" lon="-5.270283">
        <ele>2448.0</ele>
        <time>2018-07-14T12:40:28Z</time>
      </trkpt>
      <trkpt lat="40.459517" lon="-5.270267">
        <ele>2444.0</ele>
        <time>2018-07-14T12:40:30Z</time>
      </trkpt>
      <trkpt lat="40.459617" lon="-5.270250">
        <ele>2442.0</ele>
        <time>2018-07-14T12:40:31Z</time>
      </trkpt>
      <trkpt lat="40.459700" lon="-5.270233">
        <ele>2440.0</ele>
        <time>2018-07-14T12:40:32Z</time>
      </trkpt>
      <trkpt lat="40.459800" lon="-5.270217">
        <ele>2437.0</ele>
        <time>2018-07-14T12:40:33Z</time>
      </trkpt>
      <trkpt lat="40.459900" lon="-5.270200">
        <ele>2434.0</ele>
        <time>2018-07-14T12:40:34Z</time>
      </trkpt>
      <trkpt lat="40.460000" lon="-5.270183">
        <ele>2431.0</ele>
        <time>2018-07-14T12:40:35Z</time>
      </trkpt>
      <trkpt lat="40.460100" lon="-5.270167">
        <ele>2428.0</ele>
        <time>2018-07-14T12:40:36Z</time>
      </trkpt>
      <trkpt lat="40.460200" lon="-5.270150">
        <ele>2426.0</ele>
        <time>2018-07-14T12:40:37Z</time>
      </trkpt>
      <trkpt lat="40.460283" lon="-5.270133">
        <ele>2425.0</ele>
        <time>2018-07-14T12:40:38Z</time>
      </trkpt>
      <trkpt lat="40.460383" lon="-5.270133">
        <ele>2423.0</ele>
        <time>2018-07-14T12:40:39Z</time>
      </trkpt>
      <trkpt lat="40.460467" lon="-5.270133">
        <ele>2421.0</ele>
        <time>2018-07-14T12:40:40Z</time>
      </trkpt>
      <trkpt lat="40.460550" lon="-5.270117">
        <ele>2419.0</ele>
        <time>2018-07-14T12:40:41Z</time>
      </trkpt>
      <trkpt lat="40.460733" lon="-5.270100">
        <ele>2414.0</ele>
        <time>2018-07-14T12:40:43Z</time>
      </trkpt>
      <trkpt lat="40.460833" lon="-5.270083">
        <ele>2411.0</ele>
        <time>2018-07-14T12:40:44Z</time>
      </trkpt>
      <trkpt lat="40.460933" lon="-5.270050">
        <ele>2409.0</ele>
        <time>2018-07-14T12:40:45Z</time>
      </trkpt>
      <trkpt lat="40.461017" lon="-5.270033">
        <ele>2406.0</ele>
        <time>2018-07-14T12:40:46Z</time>
      </trkpt>
      <trkpt lat="40.461117" lon="-5.269983">
        <ele>2403.0</ele>
        <time>2018-07-14T12:40:47Z</time>
      </trkpt>
      <trkpt lat="40.461200" lon="-5.269950">
        <ele>2400.0</ele>
        <time>2018-07-14T12:40:48Z</time>
      </trkpt>
      <trkpt lat="40.461300" lon="-5.269917">
        <ele>2397.0</ele>
        <time>2018-07-14T12:40:49Z</time>
      </trkpt>
      <trkpt lat="40.461383" lon="-5.269883">
        <ele>2394.0</ele>
        <time>2018-07-14T12:40:50Z</time>
      </trkpt>
      <trkpt lat="40.461483" lon="-5.269850">
        <ele>2392.0</ele>
        <time>2018-07-14T12:40:51Z</time>
      </trkpt>
      <trkpt lat="40.461583" lon="-5.269817">
        <ele>2389.0</ele>
        <time>2018-07-14T12:40:52Z</time>
      </trkpt>
      <trkpt lat="40.461683" lon="-5.269800">
        <ele>2386.0</ele>
        <time>2018-07-14T12:40:53Z</time>
      </trkpt>
      <trkpt lat="40.461767" lon="-5.269767">
        <ele>2384.0</ele>
        <time>2018-07-14T12:40:54Z</time>
      </trkpt>
      <trkpt lat="40.461867" lon="-5.269733">
        <ele>2381.0</ele>
        <time>2018-07-14T12:40:55Z</time>
      </trkpt>
      <trkpt lat="40.461950" lon="-5.269717">
        <ele>2378.0</ele>
        <time>2018-07-14T12:40:56Z</time>
      </trkpt>
      <trkpt lat="40.462033" lon="-5.269683">
        <ele>2376.0</ele>
        <time>2018-07-14T12:40:57Z</time>
      </trkpt>
      <trkpt lat="40.462117" lon="-5.269650">
        <ele>2373.0</ele>
        <time>2018-07-14T12:40:58Z</time>
      </trkpt>
      <trkpt lat="40.462217" lon="-5.269617">
        <ele>2370.0</ele>
        <time>2018-07-14T12:40:59Z</time>
      </trkpt>
      <trkpt lat="40.462317" lon="-5.269567">
        <ele>2367.0</ele>
        <time>2018-07-14T12:41:00Z</time>
      </trkpt>
      <trkpt lat="40.462417" lon="-5.269533">
        <ele>2364.0</ele>
        <time>2018-07-14T12:41:01Z</time>
      </trkpt>
      <trkpt lat="40.462500" lon="-5.269483">
        <ele>2361.0</ele>
        <time>2018-07-14T12:41:02Z</time>
      </trkpt>
      <trkpt lat="40.462600" lon="-5.269433">
        <ele>2358.0</ele>
        <time>2018-07-14T12:41:03Z</time>
      </trkpt>
      <trkpt lat="40.462683" lon="-5.269400">
        <ele>2355.0</ele>
        <time>2018-07-14T12:41:04Z</time>
      </trkpt>
      <trkpt lat="40.462783" lon="-5.269350">
        <ele>2352.0</ele>
        <time>2018-07-14T12:41:05Z</time>
      </trkpt>
      <trkpt lat="40.462900" lon="-5.269300">
        <ele>2349.0</ele>
        <time>2018-07-14T12:41:06Z</time>
      </trkpt>
      <trkpt lat="40.463000" lon="-5.269250">
        <ele>2347.0</ele>
        <time>2018-07-14T12:41:07Z</time>
      </trkpt>
      <trkpt lat="40.463083" lon="-5.269183">
        <ele>2344.0</ele>
        <time>2018-07-14T12:41:08Z</time>
      </trkpt>
      <trkpt lat="40.463183" lon="-5.269117">
        <ele>2342.0</ele>
        <time>2018-07-14T12:41:09Z</time>
      </trkpt>
      <trkpt lat="40.463267" lon="-5.269067">
        <ele>2340.0</ele>
        <time>2018-07-14T12:41:10Z</time>
      </trkpt>
      <trkpt lat="40.463367" lon="-5.269017">
        <ele>2338.0</ele>
        <time>2018-07-14T12:41:11Z</time>
      </trkpt>
      <trkpt lat="40.463467" lon="-5.268950">
        <ele>2335.0</ele>
        <time>2018-07-14T12:41:12Z</time>
      </trkpt>
      <trkpt lat="40.463550" lon="-5.268883">
        <ele>2332.0</ele>
        <time>2018-07-14T12:41:13Z</time>
      </trkpt>
      <trkpt lat="40.463650" lon="-5.268817">
        <ele>2330.0</ele>
        <time>2018-07-14T12:41:14Z</time>
      </trkpt>
      <trkpt lat="40.463733" lon="-5.268750">
        <ele>2328.0</ele>
        <time>2018-07-14T12:41:15Z</time>
      </trkpt>
      <trkpt lat="40.463800" lon="-5.268700">
        <ele>2327.0</ele>
        <time>2018-07-14T12:41:16Z</time>
      </trkpt>
      <trkpt lat="40.463883" lon="-5.268633">
        <ele>2325.0</ele>
        <time>2018-07-14T12:41:17Z</time>
      </trkpt>
      <trkpt lat="40.463967" lon="-5.268550">
        <ele>2322.0</ele>
        <time>2018-07-14T12:41:18Z</time>
      </trkpt>
      <trkpt lat="40.464050" lon="-5.268467">
        <ele>2319.0</ele>
        <time>2018-07-14T12:41:19Z</time>
      </trkpt>
      <trkpt lat="40.464150" lon="-5.268400">
        <ele>2316.0</ele>
        <time>2018-07-14T12:41:20Z</time>
      </trkpt>
      <trkpt lat="40.464233" lon="-5.268317">
        <ele>2313.0</ele>
        <time>2018-07-14T12:41:21Z</time>
      </trkpt>
      <trkpt lat="40.464317" lon="-5.268250">
        <ele>2310.0</ele>
        <time>2018-07-14T12:41:22Z</time>
      </trkpt>
      <trkpt lat="40.464417" lon="-5.268167">
        <ele>2308.0</ele>
        <time>2018-07-14T12:41:23Z</time>
      </trkpt>
      <trkpt lat="40.464500" lon="-5.268100">
        <ele>2305.0</ele>
        <time>2018-07-14T12:41:24Z</time>
      </trkpt>
      <trkpt lat="40.464600" lon="-5.268000">
        <ele>2302.0</ele>
        <time>2018-07-14T12:41:25Z</time>
      </trkpt>
      <trkpt lat="40.464683" lon="-5.267917">
        <ele>2299.0</ele>
        <time>2018-07-14T12:41:26Z</time>
      </trkpt>
      <trkpt lat="40.464783" lon="-5.267833">
        <ele>2297.0</ele>
        <time>2018-07-14T12:41:27Z</time>
      </trkpt>
      <trkpt lat="40.464883" lon="-5.267750">
        <ele>2294.0</ele>
        <time>2018-07-14T12:41:28Z</time>
      </trkpt>
      <trkpt lat="40.464983" lon="-5.267667">
        <ele>2292.0</ele>
        <time>2018-07-14T12:41:29Z</time>
      </trkpt>
      <trkpt lat="40.465100" lon="-5.267600">
        <ele>2289.0</ele>
        <time>2018-07-14T12:41:30Z</time>
      </trkpt>
      <trkpt lat="40.465200" lon="-5.267517">
        <ele>2286.0</ele>
        <time>2018-07-14T12:41:31Z</time>
      </trkpt>
      <trkpt lat="40.465317" lon="-5.267433">
        <ele>2283.0</ele>
        <time>2018-07-14T12:41:32Z</time>
      </trkpt>
      <trkpt lat="40.465417" lon="-5.267350">
        <ele>2281.0</ele>
        <time>2018-07-14T12:41:33Z</time>
      </trkpt>
      <trkpt lat="40.465500" lon="-5.267283">
        <ele>2282.0</ele>
        <time>2018-07-14T12:41:34Z</time>
      </trkpt>
      <trkpt lat="40.465583" lon="-5.267217">
        <ele>2281.0</ele>
        <time>2018-07-14T12:41:35Z</time>
      </trkpt>
      <trkpt lat="40.465683" lon="-5.267133">
        <ele>2279.0</ele>
        <time>2018-07-14T12:41:36Z</time>
      </trkpt>
      <trkpt lat="40.465783" lon="-5.267050">
        <ele>2277.0</ele>
        <time>2018-07-14T12:41:37Z</time>
      </trkpt>
      <trkpt lat="40.465883" lon="-5.266967">
        <ele>2275.0</ele>
        <time>2018-07-14T12:41:38Z</time>
      </trkpt>
      <trkpt lat="40.466000" lon="-5.266900">
        <ele>2274.0</ele>
        <time>2018-07-14T12:41:39Z</time>
      </trkpt>
      <trkpt lat="40.466100" lon="-5.266817">
        <ele>2274.0</ele>
        <time>2018-07-14T12:41:40Z</time>
      </trkpt>
      <trkpt lat="40.466183" lon="-5.266750">
        <ele>2274.0</ele>
        <time>2018-07-14T12:41:41Z</time>
      </trkpt>
      <trkpt lat="40.466267" lon="-5.266667">
        <ele>2274.0</ele>
        <time>2018-07-14T12:41:42Z</time>
      </trkpt>
      <trkpt lat="40.466367" lon="-5.266583">
        <ele>2275.0</ele>
        <time>2018-07-14T12:41:43Z</time>
      </trkpt>
      <trkpt lat="40.466467" lon="-5.266500">
        <ele>2275.0</ele>
        <time>2018-07-14T12:41:44Z</time>
      </trkpt>
      <trkpt lat="40.466550" lon="-5.266400">
        <ele>2275.0</ele>
        <time>2018-07-14T12:41:45Z</time>
      </trkpt>
      <trkpt lat="40.466650" lon="-5.266283">
        <ele>2275.0</ele>
        <time>2018-07-14T12:41:46Z</time>
      </trkpt>
      <trkpt lat="40.466717" lon="-5.266150">
        <ele>2276.0</ele>
        <time>2018-07-14T12:41:47Z</time>
      </trkpt>
      <trkpt lat="40.466783" lon="-5.266050">
        <ele>2278.0</ele>
        <time>2018-07-14T12:41:48Z</time>
      </trkpt>
      <trkpt lat="40.466850" lon="-5.265933">
        <ele>2279.0</ele>
        <time>2018-07-14T12:41:49Z</time>
      </trkpt>
      <trkpt lat="40.466917" lon="-5.265800">
        <ele>2280.0</ele>
        <time>2018-07-14T12:41:50Z</time>
      </trkpt>
      <trkpt lat="40.466983" lon="-5.265667">
        <ele>2280.0</ele>
        <time>2018-07-14T12:41:51Z</time>
      </trkpt>
      <trkpt lat="40.467067" lon="-5.265533">
        <ele>2279.0</ele>
        <time>2018-07-14T12:41:52Z</time>
      </trkpt>
      <trkpt lat="40.467133" lon="-5.265400">
        <ele>2279.0</ele>
        <time>2018-07-14T12:41:53Z</time>
      </trkpt>
      <trkpt lat="40.467200" lon="-5.265283">
        <ele>2280.0</ele>
        <time>2018-07-14T12:41:54Z</time>
      </trkpt>
      <trkpt lat="40.467267" lon="-5.265167">
        <ele>2280.0</ele>
        <time>2018-07-14T12:41:55Z</time>
      </trkpt>
      <trkpt lat="40.467317" lon="-5.265050">
        <ele>2280.0</ele>
        <time>2018-07-14T12:41:56Z</time>
      </trkpt>
      <trkpt lat="40.467383" lon="-5.264933">
        <ele>2280.0</ele>
        <time>2018-07-14T12:41:57Z</time>
      </trkpt>
      <trkpt lat="40.467433" lon="-5.264800">
        <ele>2280.0</ele>
        <time>2018-07-14T12:41:58Z</time>
      </trkpt>
      <trkpt lat="40.467500" lon="-5.264667">
        <ele>2279.0</ele>
        <time>2018-07-14T12:41:59Z</time>
      </trkpt>
      <trkpt lat="40.467567" lon="-5.264550">
        <ele>2279.0</ele>
        <time>2018-07-14T12:42:00Z</time>
      </trkpt>
      <trkpt lat="40.467617" lon="-5.264433">
        <ele>2278.0</ele>
        <time>2018-07-14T12:42:01Z</time>
      </trkpt>
      <trkpt lat="40.467683" lon="-5.264317">
        <ele>2277.0</ele>
        <time>2018-07-14T12:42:02Z</time>
      </trkpt>
      <trkpt lat="40.467750" lon="-5.264200">
        <ele>2276.0</ele>
        <time>2018-07-14T12:42:03Z</time>
      </trkpt>
      <trkpt lat="40.467800" lon="-5.264067">
        <ele>2274.0</ele>
        <time>2018-07-14T12:42:04Z</time>
      </trkpt>
      <trkpt lat="40.467867" lon="-5.263933">
        <ele>2273.0</ele>
        <time>2018-07-14T12:42:05Z</time>
      </trkpt>
      <trkpt lat="40.467933" lon="-5.263783">
        <ele>2271.0</ele>
        <time>2018-07-14T12:42:06Z</time>
      </trkpt>
      <trkpt lat="40.467983" lon="-5.263650">
        <ele>2270.0</ele>
        <time>2018-07-14T12:42:07Z</time>
      </trkpt>
      <trkpt lat="40.468033" lon="-5.263517">
        <ele>2269.0</ele>
        <time>2018-07-14T12:42:08Z</time>
      </trkpt>
      <trkpt lat="40.468100" lon="-5.263383">
        <ele>2267.0</ele>
        <time>2018-07-14T12:42:09Z</time>
      </trkpt>
      <trkpt lat="40.468167" lon="-5.263250">
        <ele>2266.0</ele>
        <time>2018-07-14T12:42:10Z</time>
      </trkpt>
      <trkpt lat="40.468233" lon="-5.263100">
        <ele>2264.0</ele>
        <time>2018-07-14T12:42:11Z</time>
      </trkpt>
      <trkpt lat="40.468283" lon="-5.262950">
        <ele>2263.0</ele>
        <time>2018-07-14T12:42:12Z</time>
      </trkpt>
      <trkpt lat="40.468333" lon="-5.262817">
        <ele>2264.0</ele>
        <time>2018-07-14T12:42:13Z</time>
      </trkpt>
      <trkpt lat="40.468383" lon="-5.262700">
        <ele>2264.0</ele>
        <time>2018-07-14T12:42:14Z</time>
      </trkpt>
      <trkpt lat="40.468417" lon="-5.262583">
        <ele>2263.0</ele>
        <time>2018-07-14T12:42:15Z</time>
      </trkpt>
      <trkpt lat="40.468467" lon="-5.262450">
        <ele>2262.0</ele>
        <time>2018-07-14T12:42:16Z</time>
      </trkpt>
      <trkpt lat="40.468500" lon="-5.262317">
        <ele>2261.0</ele>
        <time>2018-07-14T12:42:17Z</time>
      </trkpt>
      <trkpt lat="40.468550" lon="-5.262167">
        <ele>2260.0</ele>
        <time>2018-07-14T12:42:18Z</time>
      </trkpt>
      <trkpt lat="40.468600" lon="-5.262033">
        <ele>2260.0</ele>
        <time>2018-07-14T12:42:19Z</time>
      </trkpt>
      <trkpt lat="40.468650" lon="-5.261900">
        <ele>2260.0</ele>
        <time>2018-07-14T12:42:20Z</time>
      </trkpt>
      <trkpt lat="40.468683" lon="-5.261783">
        <ele>2259.0</ele>
        <time>2018-07-14T12:42:21Z</time>
      </trkpt>
      <trkpt lat="40.468733" lon="-5.261650">
        <ele>2258.0</ele>
        <time>2018-07-14T12:42:22Z</time>
      </trkpt>
      <trkpt lat="40.468767" lon="-5.261517">
        <ele>2257.0</ele>
        <time>2018-07-14T12:42:23Z</time>
      </trkpt>
      <trkpt lat="40.468800" lon="-5.261367">
        <ele>2255.0</ele>
        <time>2018-07-14T12:42:24Z</time>
      </trkpt>
      <trkpt lat="40.468850" lon="-5.261233">
        <ele>2254.0</ele>
        <time>2018-07-14T12:42:25Z</time>
      </trkpt>
      <trkpt lat="40.468883" lon="-5.261100">
        <ele>2253.0</ele>
        <time>2018-07-14T12:42:26Z</time>
      </trkpt>
      <trkpt lat="40.468933" lon="-5.260983">
        <ele>2252.0</ele>
        <time>2018-07-14T12:42:27Z</time>
      </trkpt>
      <trkpt lat="40.468967" lon="-5.260867">
        <ele>2251.0</ele>
        <time>2018-07-14T12:42:28Z</time>
      </trkpt>
      <trkpt lat="40.468983" lon="-5.260733">
        <ele>2250.0</ele>
        <time>2018-07-14T12:42:29Z</time>
      </trkpt>
      <trkpt lat="40.469017" lon="-5.260617">
        <ele>2249.0</ele>
        <time>2018-07-14T12:42:30Z</time>
      </trkpt>
      <trkpt lat="40.469050" lon="-5.260500">
        <ele>2249.0</ele>
        <time>2018-07-14T12:42:31Z</time>
      </trkpt>
      <trkpt lat="40.469100" lon="-5.260383">
        <ele>2248.0</ele>
        <time>2018-07-14T12:42:32Z</time>
      </trkpt>
      <trkpt lat="40.469133" lon="-5.260250">
        <ele>2247.0</ele>
        <time>2018-07-14T12:42:33Z</time>
      </trkpt>
      <trkpt lat="40.469167" lon="-5.260117">
        <ele>2246.0</ele>
        <time>2018-07-14T12:42:34Z</time>
      </trkpt>
      <trkpt lat="40.469200" lon="-5.259983">
        <ele>2246.0</ele>
        <time>2018-07-14T12:42:35Z</time>
      </trkpt>
      <trkpt lat="40.469233" lon="-5.259833">
        <ele>2246.0</ele>
        <time>2018-07-14T12:42:36Z</time>
      </trkpt>
      <trkpt lat="40.469267" lon="-5.259700">
        <ele>2246.0</ele>
        <time>2018-07-14T12:42:37Z</time>
      </trkpt>
      <trkpt lat="40.469300" lon="-5.259567">
        <ele>2246.0</ele>
        <time>2018-07-14T12:42:38Z</time>
      </trkpt>
      <trkpt lat="40.469333" lon="-5.259450">
        <ele>2246.0</ele>
        <time>2018-07-14T12:42:39Z</time>
      </trkpt>
      <trkpt lat="40.469383" lon="-5.259317">
        <ele>2245.0</ele>
        <time>2018-07-14T12:42:40Z</time>
      </trkpt>
      <trkpt lat="40.469433" lon="-5.259200">
        <ele>2245.0</ele>
        <time>2018-07-14T12:42:41Z</time>
      </trkpt>
      <trkpt lat="40.469467" lon="-5.259083">
        <ele>2245.0</ele>
        <time>2018-07-14T12:42:42Z</time>
      </trkpt>
      <trkpt lat="40.469517" lon="-5.258967">
        <ele>2244.0</ele>
        <time>2018-07-14T12:42:43Z</time>
      </trkpt>
      <trkpt lat="40.469550" lon="-5.258850">
        <ele>2244.0</ele>
        <time>2018-07-14T12:42:44Z</time>
      </trkpt>
      <trkpt lat="40.469617" lon="-5.258733">
        <ele>2243.0</ele>
        <time>2018-07-14T12:42:45Z</time>
      </trkpt>
      <trkpt lat="40.469683" lon="-5.258617">
        <ele>2242.0</ele>
        <time>2018-07-14T12:42:46Z</time>
      </trkpt>
      <trkpt lat="40.469767" lon="-5.258517">
        <ele>2240.0</ele>
        <time>2018-07-14T12:42:47Z</time>
      </trkpt>
      <trkpt lat="40.469833" lon="-5.258433">
        <ele>2240.0</ele>
        <time>2018-07-14T12:42:48Z</time>
      </trkpt>
      <trkpt lat="40.469900" lon="-5.258350">
        <ele>2241.0</ele>
        <time>2018-07-14T12:42:49Z</time>
      </trkpt>
      <trkpt lat="40.469967" lon="-5.258267">
        <ele>2242.0</ele>
        <time>2018-07-14T12:42:50Z</time>
      </trkpt>
      <trkpt lat="40.470033" lon="-5.258183">
        <ele>2242.0</ele>
        <time>2018-07-14T12:42:51Z</time>
      </trkpt>
      <trkpt lat="40.470100" lon="-5.258083">
        <ele>2241.0</ele>
        <time>2018-07-14T12:42:52Z</time>
      </trkpt>
      <trkpt lat="40.470150" lon="-5.257967">
        <ele>2240.0</ele>
        <time>2018-07-14T12:42:53Z</time>
      </trkpt>
      <trkpt lat="40.470200" lon="-5.257867">
        <ele>2240.0</ele>
        <time>2018-07-14T12:42:54Z</time>
      </trkpt>
      <trkpt lat="40.470267" lon="-5.257750">
        <ele>2239.0</ele>
        <time>2018-07-14T12:42:55Z</time>
      </trkpt>
      <trkpt lat="40.470317" lon="-5.257650">
        <ele>2239.0</ele>
        <time>2018-07-14T12:42:56Z</time>
      </trkpt>
      <trkpt lat="40.470367" lon="-5.257567">
        <ele>2239.0</ele>
        <time>2018-07-14T12:42:57Z</time>
      </trkpt>
      <trkpt lat="40.470433" lon="-5.257500">
        <ele>2239.0</ele>
        <time>2018-07-14T12:42:58Z</time>
      </trkpt>
      <trkpt lat="40.470483" lon="-5.257433">
        <ele>2238.0</ele>
        <time>2018-07-14T12:42:59Z</time>
      </trkpt>
      <trkpt lat="40.470533" lon="-5.257350">
        <ele>2237.0</ele>
        <time>2018-07-14T12:43:00Z</time>
      </trkpt>
      <trkpt lat="40.470583" lon="-5.257267">
        <ele>2236.0</ele>
        <time>2018-07-14T12:43:01Z</time>
      </trkpt>
      <trkpt lat="40.470633" lon="-5.257167">
        <ele>2234.0</ele>
        <time>2018-07-14T12:43:02Z</time>
      </trkpt>
      <trkpt lat="40.470683" lon="-5.257083">
        <ele>2232.0</ele>
        <time>2018-07-14T12:43:03Z</time>
      </trkpt>
      <trkpt lat="40.470733" lon="-5.257000">
        <ele>2231.0</ele>
        <time>2018-07-14T12:43:04Z</time>
      </trkpt>
      <trkpt lat="40.470783" lon="-5.256917">
        <ele>2229.0</ele>
        <time>2018-07-14T12:43:05Z</time>
      </trkpt>
      <trkpt lat="40.470833" lon="-5.256833">
        <ele>2226.0</ele>
        <time>2018-07-14T12:43:06Z</time>
      </trkpt>
      <trkpt lat="40.470900" lon="-5.256750">
        <ele>2224.0</ele>
        <time>2018-07-14T12:43:07Z</time>
      </trkpt>
      <trkpt lat="40.470967" lon="-5.256683">
        <ele>2222.0</ele>
        <time>2018-07-14T12:43:08Z</time>
      </trkpt>
      <trkpt lat="40.471017" lon="-5.256600">
        <ele>2220.0</ele>
        <time>2018-07-14T12:43:09Z</time>
      </trkpt>
      <trkpt lat="40.471050" lon="-5.256517">
        <ele>2218.0</ele>
        <time>2018-07-14T12:43:10Z</time>
      </trkpt>
      <trkpt lat="40.471100" lon="-5.256417">
        <ele>2215.0</ele>
        <time>2018-07-14T12:43:11Z</time>
      </trkpt>
      <trkpt lat="40.471150" lon="-5.256300">
        <ele>2211.0</ele>
        <time>2018-07-14T12:43:12Z</time>
      </trkpt>
      <trkpt lat="40.471217" lon="-5.256217">
        <ele>2209.0</ele>
        <time>2018-07-14T12:43:13Z</time>
      </trkpt>
      <trkpt lat="40.471283" lon="-5.256167">
        <ele>2208.0</ele>
        <time>2018-07-14T12:43:14Z</time>
      </trkpt>
      <trkpt lat="40.471333" lon="-5.256117">
        <ele>2205.0</ele>
        <time>2018-07-14T12:43:15Z</time>
      </trkpt>
      <trkpt lat="40.471400" lon="-5.256067">
        <ele>2202.0</ele>
        <time>2018-07-14T12:43:16Z</time>
      </trkpt>
      <trkpt lat="40.471467" lon="-5.256017">
        <ele>2197.0</ele>
        <time>2018-07-14T12:43:17Z</time>
      </trkpt>
      <trkpt lat="40.471550" lon="-5.255933">
        <ele>2193.0</ele>
        <time>2018-07-14T12:43:18Z</time>
      </trkpt>
      <trkpt lat="40.471633" lon="-5.255867">
        <ele>2189.0</ele>
        <time>2018-07-14T12:43:19Z</time>
      </trkpt>
      <trkpt lat="40.471717" lon="-5.255817">
        <ele>2185.0</ele>
        <time>2018-07-14T12:43:20Z</time>
      </trkpt>
      <trkpt lat="40.471800" lon="-5.255783">
        <ele>2183.0</ele>
        <time>2018-07-14T12:43:21Z</time>
      </trkpt>
      <trkpt lat="40.471883" lon="-5.255750">
        <ele>2180.0</ele>
        <time>2018-07-14T12:43:22Z</time>
      </trkpt>
      <trkpt lat="40.471950" lon="-5.255717">
        <ele>2177.0</ele>
        <time>2018-07-14T12:43:23Z</time>
      </trkpt>
      <trkpt lat="40.472133" lon="-5.255633">
        <ele>2171.0</ele>
        <time>2018-07-14T12:43:25Z</time>
      </trkpt>
      <trkpt lat="40.472217" lon="-5.255600">
        <ele>2167.0</ele>
        <time>2018-07-14T12:43:26Z</time>
      </trkpt>
      <trkpt lat="40.472300" lon="-5.255567">
        <ele>2164.0</ele>
        <time>2018-07-14T12:43:27Z</time>
      </trkpt>
      <trkpt lat="40.472400" lon="-5.255533">
        <ele>2160.0</ele>
        <time>2018-07-14T12:43:28Z</time>
      </trkpt>
      <trkpt lat="40.472483" lon="-5.255517">
        <ele>2156.0</ele>
        <time>2018-07-14T12:43:29Z</time>
      </trkpt>
      <trkpt lat="40.472567" lon="-5.255483">
        <ele>2152.0</ele>
        <time>2018-07-14T12:43:30Z</time>
      </trkpt>
      <trkpt lat="40.472667" lon="-5.255433">
        <ele>2148.0</ele>
        <time>2018-07-14T12:43:31Z</time>
      </trkpt>
      <trkpt lat="40.472767" lon="-5.255400">
        <ele>2145.0</ele>
        <time>2018-07-14T12:43:32Z</time>
      </trkpt>
      <trkpt lat="40.472867" lon="-5.255367">
        <ele>2142.0</ele>
        <time>2018-07-14T12:43:33Z</time>
      </trkpt>
      <trkpt lat="40.472967" lon="-5.255333">
        <ele>2140.0</ele>
        <time>2018-07-14T12:43:34Z</time>
      </trkpt>
      <trkpt lat="40.473067" lon="-5.255300">
        <ele>2138.0</ele>
        <time>2018-07-14T12:43:35Z</time>
      </trkpt>
      <trkpt lat="40.473150" lon="-5.255267">
        <ele>2136.0</ele>
        <time>2018-07-14T12:43:36Z</time>
      </trkpt>
      <trkpt lat="40.473250" lon="-5.255217">
        <ele>2134.0</ele>
        <time>2018-07-14T12:43:37Z</time>
      </trkpt>
      <trkpt lat="40.473350" lon="-5.255167">
        <ele>2133.0</ele>
        <time>2018-07-14T12:43:38Z</time>
      </trkpt>
      <trkpt lat="40.473450" lon="-5.255133">
        <ele>2131.0</ele>
        <time>2018-07-14T12:43:39Z</time>
      </trkpt>
      <trkpt lat="40.473533" lon="-5.255083">
        <ele>2130.0</ele>
        <time>2018-07-14T12:43:40Z</time>
      </trkpt>
      <trkpt lat="40.473633" lon="-5.255050">
        <ele>2129.0</ele>
        <time>2018-07-14T12:43:41Z</time>
      </trkpt>
      <trkpt lat="40.473733" lon="-5.255000">
        <ele>2127.0</ele>
        <time>2018-07-14T12:43:42Z</time>
      </trkpt>
      <trkpt lat="40.473833" lon="-5.254950">
        <ele>2126.0</ele>
        <time>2018-07-14T12:43:43Z</time>
      </trkpt>
      <trkpt lat="40.473933" lon="-5.254917">
        <ele>2124.0</ele>
        <time>2018-07-14T12:43:44Z</time>
      </trkpt>
      <trkpt lat="40.474033" lon="-5.254867">
        <ele>2122.0</ele>
        <time>2018-07-14T12:43:45Z</time>
      </trkpt>
      <trkpt lat="40.474117" lon="-5.254817">
        <ele>2120.0</ele>
        <time>2018-07-14T12:43:46Z</time>
      </trkpt>
      <trkpt lat="40.474217" lon="-5.254783">
        <ele>2118.0</ele>
        <time>2018-07-14T12:43:47Z</time>
      </trkpt>
      <trkpt lat="40.474300" lon="-5.254733">
        <ele>2116.0</ele>
        <time>2018-07-14T12:43:48Z</time>
      </trkpt>
      <trkpt lat="40.474400" lon="-5.254700">
        <ele>2114.0</ele>
        <time>2018-07-14T12:43:49Z</time>
      </trkpt>
      <trkpt lat="40.474483" lon="-5.254683">
        <ele>2112.0</ele>
        <time>2018-07-14T12:43:50Z</time>
      </trkpt>
      <trkpt lat="40.474583" lon="-5.254633">
        <ele>2109.0</ele>
        <time>2018-07-14T12:43:51Z</time>
      </trkpt>
      <trkpt lat="40.474683" lon="-5.254600">
        <ele>2105.0</ele>
        <time>2018-07-14T12:43:52Z</time>
      </trkpt>
      <trkpt lat="40.474783" lon="-5.254567">
        <ele>2102.0</ele>
        <time>2018-07-14T12:43:53Z</time>
      </trkpt>
      <trkpt lat="40.474883" lon="-5.254533">
        <ele>2100.0</ele>
        <time>2018-07-14T12:43:54Z</time>
      </trkpt>
      <trkpt lat="40.474983" lon="-5.254500">
        <ele>2097.0</ele>
        <time>2018-07-14T12:43:55Z</time>
      </trkpt>
      <trkpt lat="40.475083" lon="-5.254467">
        <ele>2095.0</ele>
        <time>2018-07-14T12:43:56Z</time>
      </trkpt>
      <trkpt lat="40.475183" lon="-5.254417">
        <ele>2093.0</ele>
        <time>2018-07-14T12:43:57Z</time>
      </trkpt>
      <trkpt lat="40.475283" lon="-5.254367">
        <ele>2091.0</ele>
        <time>2018-07-14T12:43:58Z</time>
      </trkpt>
      <trkpt lat="40.475367" lon="-5.254317">
        <ele>2089.0</ele>
        <time>2018-07-14T12:43:59Z</time>
      </trkpt>
      <trkpt lat="40.475467" lon="-5.254283">
        <ele>2088.0</ele>
        <time>2018-07-14T12:44:00Z</time>
      </trkpt>
      <trkpt lat="40.475550" lon="-5.254233">
        <ele>2087.0</ele>
        <time>2018-07-14T12:44:01Z</time>
      </trkpt>
      <trkpt lat="40.475650" lon="-5.254183">
        <ele>2086.0</ele>
        <time>2018-07-14T12:44:02Z</time>
      </trkpt>
      <trkpt lat="40.475733" lon="-5.254150">
        <ele>2084.0</ele>
        <time>2018-07-14T12:44:03Z</time>
      </trkpt>
      <trkpt lat="40.475833" lon="-5.254100">
        <ele>2084.0</ele>
        <time>2018-07-14T12:44:04Z</time>
      </trkpt>
      <trkpt lat="40.475917" lon="-5.254067">
        <ele>2083.0</ele>
        <time>2018-07-14T12:44:05Z</time>
      </trkpt>
      <trkpt lat="40.476000" lon="-5.254033">
        <ele>2082.0</ele>
        <time>2018-07-14T12:44:06Z</time>
      </trkpt>
      <trkpt lat="40.476083" lon="-5.254000">
        <ele>2081.0</ele>
        <time>2018-07-14T12:44:07Z</time>
      </trkpt>
      <trkpt lat="40.476167" lon="-5.253950">
        <ele>2081.0</ele>
        <time>2018-07-14T12:44:08Z</time>
      </trkpt>
      <trkpt lat="40.476267" lon="-5.253917">
        <ele>2081.0</ele>
        <time>2018-07-14T12:44:09Z</time>
      </trkpt>
      <trkpt lat="40.476333" lon="-5.253883">
        <ele>2081.0</ele>
        <time>2018-07-14T12:44:10Z</time>
      </trkpt>
      <trkpt lat="40.476417" lon="-5.253850">
        <ele>2082.0</ele>
        <time>2018-07-14T12:44:11Z</time>
      </trkpt>
      <trkpt lat="40.476500" lon="-5.253817">
        <ele>2082.0</ele>
        <time>2018-07-14T12:44:12Z</time>
      </trkpt>
      <trkpt lat="40.476583" lon="-5.253783">
        <ele>2082.0</ele>
        <time>2018-07-14T12:44:13Z</time>
      </trkpt>
      <trkpt lat="40.476667" lon="-5.253733">
        <ele>2082.0</ele>
        <time>2018-07-14T12:44:14Z</time>
      </trkpt>
      <trkpt lat="40.476733" lon="-5.253700">
        <ele>2082.0</ele>
        <time>2018-07-14T12:44:15Z</time>
      </trkpt>
      <trkpt lat="40.476817" lon="-5.253650">
        <ele>2081.0</ele>
        <time>2018-07-14T12:44:16Z</time>
      </trkpt>
      <trkpt lat="40.476900" lon="-5.253617">
        <ele>2081.0</ele>
        <time>2018-07-14T12:44:17Z</time>
      </trkpt>
      <trkpt lat="40.477000" lon="-5.253567">
        <ele>2080.0</ele>
        <time>2018-07-14T12:44:18Z</time>
      </trkpt>
      <trkpt lat="40.477083" lon="-5.253517">
        <ele>2080.0</ele>
        <time>2018-07-14T12:44:19Z</time>
      </trkpt>
      <trkpt lat="40.477167" lon="-5.253450">
        <ele>2080.0</ele>
        <time>2018-07-14T12:44:20Z</time>
      </trkpt>
      <trkpt lat="40.477250" lon="-5.253400">
        <ele>2080.0</ele>
        <time>2018-07-14T12:44:21Z</time>
      </trkpt>
      <trkpt lat="40.477317" lon="-5.253350">
        <ele>2081.0</ele>
        <time>2018-07-14T12:44:22Z</time>
      </trkpt>
      <trkpt lat="40.477400" lon="-5.253317">
        <ele>2081.0</ele>
        <time>2018-07-14T12:44:23Z</time>
      </trkpt>
      <trkpt lat="40.477483" lon="-5.253267">
        <ele>2081.0</ele>
        <time>2018-07-14T12:44:24Z</time>
      </trkpt>
      <trkpt lat="40.477567" lon="-5.253217">
        <ele>2081.0</ele>
        <time>2018-07-14T12:44:25Z</time>
      </trkpt>
      <trkpt lat="40.477667" lon="-5.253167">
        <ele>2080.0</ele>
        <time>2018-07-14T12:44:26Z</time>
      </trkpt>
      <trkpt lat="40.477767" lon="-5.253100">
        <ele>2081.0</ele>
        <time>2018-07-14T12:44:27Z</time>
      </trkpt>
      <trkpt lat="40.477850" lon="-5.253050">
        <ele>2083.0</ele>
        <time>2018-07-14T12:44:28Z</time>
      </trkpt>
      <trkpt lat="40.477917" lon="-5.253017">
        <ele>2085.0</ele>
        <time>2018-07-14T12:44:29Z</time>
      </trkpt>
      <trkpt lat="40.477967" lon="-5.252967">
        <ele>2087.0</ele>
        <time>2018-07-14T12:44:30Z</time>
      </trkpt>
      <trkpt lat="40.478033" lon="-5.252933">
        <ele>2088.0</ele>
        <time>2018-07-14T12:44:31Z</time>
      </trkpt>
      <trkpt lat="40.478100" lon="-5.252867">
        <ele>2088.0</ele>
        <time>2018-07-14T12:44:32Z</time>
      </trkpt>
      <trkpt lat="40.478183" lon="-5.252817">
        <ele>2086.0</ele>
        <time>2018-07-14T12:44:33Z</time>
      </trkpt>
      <trkpt lat="40.478283" lon="-5.252767">
        <ele>2084.0</ele>
        <time>2018-07-14T12:44:34Z</time>
      </trkpt>
      <trkpt lat="40.478383" lon="-5.252733">
        <ele>2082.0</ele>
        <time>2018-07-14T12:44:35Z</time>
      </trkpt>
      <trkpt lat="40.478467" lon="-5.252700">
        <ele>2080.0</ele>
        <time>2018-07-14T12:44:36Z</time>
      </trkpt>
      <trkpt lat="40.478550" lon="-5.252650">
        <ele>2079.0</ele>
        <time>2018-07-14T12:44:37Z</time>
      </trkpt>
      <trkpt lat="40.478633" lon="-5.252617">
        <ele>2078.0</ele>
        <time>2018-07-14T12:44:38Z</time>
      </trkpt>
      <trkpt lat="40.478717" lon="-5.252567">
        <ele>2076.0</ele>
        <time>2018-07-14T12:44:39Z</time>
      </trkpt>
      <trkpt lat="40.478817" lon="-5.252517">
        <ele>2073.0</ele>
        <time>2018-07-14T12:44:40Z</time>
      </trkpt>
      <trkpt lat="40.478917" lon="-5.252483">
        <ele>2070.0</ele>
        <time>2018-07-14T12:44:41Z</time>
      </trkpt>
      <trkpt lat="40.479017" lon="-5.252433">
        <ele>2067.0</ele>
        <time>2018-07-14T12:44:42Z</time>
      </trkpt>
      <trkpt lat="40.479117" lon="-5.252400">
        <ele>2064.0</ele>
        <time>2018-07-14T12:44:43Z</time>
      </trkpt>
      <trkpt lat="40.479200" lon="-5.252367">
        <ele>2062.0</ele>
        <time>2018-07-14T12:44:44Z</time>
      </trkpt>
      <trkpt lat="40.479283" lon="-5.252333">
        <ele>2060.0</ele>
        <time>2018-07-14T12:44:45Z</time>
      </trkpt>
      <trkpt lat="40.479383" lon="-5.252317">
        <ele>2058.0</ele>
        <time>2018-07-14T12:44:46Z</time>
      </trkpt>
      <trkpt lat="40.479467" lon="-5.252283">
        <ele>2056.0</ele>
        <time>2018-07-14T12:44:47Z</time>
      </trkpt>
      <trkpt lat="40.479550" lon="-5.252250">
        <ele>2054.0</ele>
        <time>2018-07-14T12:44:48Z</time>
      </trkpt>
      <trkpt lat="40.479633" lon="-5.252217">
        <ele>2052.0</ele>
        <time>2018-07-14T12:44:49Z</time>
      </trkpt>
      <trkpt lat="40.479733" lon="-5.252167">
        <ele>2050.0</ele>
        <time>2018-07-14T12:44:50Z</time>
      </trkpt>
      <trkpt lat="40.479817" lon="-5.252117">
        <ele>2048.0</ele>
        <time>2018-07-14T12:44:51Z</time>
      </trkpt>
      <trkpt lat="40.479917" lon="-5.252083">
        <ele>2046.0</ele>
        <time>2018-07-14T12:44:52Z</time>
      </trkpt>
      <trkpt lat="40.480000" lon="-5.252050">
        <ele>2045.0</ele>
        <time>2018-07-14T12:44:53Z</time>
      </trkpt>
      <trkpt lat="40.480250" lon="-5.251950">
        <ele>2040.0</ele>
        <time>2018-07-14T12:44:56Z</time>
      </trkpt>
      <trkpt lat="40.480350" lon="-5.251900">
        <ele>2037.0</ele>
        <time>2018-07-14T12:44:57Z</time>
      </trkpt>
      <trkpt lat="40.480433" lon="-5.251850">
        <ele>2034.0</ele>
        <time>2018-07-14T12:44:58Z</time>
      </trkpt>
      <trkpt lat="40.480533" lon="-5.251800">
        <ele>2032.0</ele>
        <time>2018-07-14T12:44:59Z</time>
      </trkpt>
      <trkpt lat="40.480617" lon="-5.251750">
        <ele>2032.0</ele>
        <time>2018-07-14T12:45:00Z</time>
      </trkpt>
      <trkpt lat="40.480717" lon="-5.251717">
        <ele>2030.0</ele>
        <time>2018-07-14T12:45:01Z</time>
      </trkpt>
      <trkpt lat="40.480817" lon="-5.251667">
        <ele>2029.0</ele>
        <time>2018-07-14T12:45:02Z</time>
      </trkpt>
      <trkpt lat="40.480917" lon="-5.251600">
        <ele>2027.0</ele>
        <time>2018-07-14T12:45:03Z</time>
      </trkpt>
      <trkpt lat="40.481017" lon="-5.251550">
        <ele>2027.0</ele>
        <time>2018-07-14T12:45:04Z</time>
      </trkpt>
      <trkpt lat="40.481117" lon="-5.251500">
        <ele>2028.0</ele>
        <time>2018-07-14T12:45:05Z</time>
      </trkpt>
      <trkpt lat="40.481200" lon="-5.251467">
        <ele>2028.0</ele>
        <time>2018-07-14T12:45:06Z</time>
      </trkpt>
      <trkpt lat="40.481300" lon="-5.251450">
        <ele>2027.0</ele>
        <time>2018-07-14T12:45:07Z</time>
      </trkpt>
      <trkpt lat="40.481400" lon="-5.251417">
        <ele>2027.0</ele>
        <time>2018-07-14T12:45:08Z</time>
      </trkpt>
      <trkpt lat="40.481483" lon="-5.251367">
        <ele>2025.0</ele>
        <time>2018-07-14T12:45:09Z</time>
      </trkpt>
      <trkpt lat="40.481583" lon="-5.251317">
        <ele>2024.0</ele>
        <time>2018-07-14T12:45:10Z</time>
      </trkpt>
      <trkpt lat="40.481683" lon="-5.251267">
        <ele>2023.0</ele>
        <time>2018-07-14T12:45:11Z</time>
      </trkpt>
      <trkpt lat="40.481783" lon="-5.251217">
        <ele>2023.0</ele>
        <time>2018-07-14T12:45:12Z</time>
      </trkpt>
      <trkpt lat="40.481883" lon="-5.251183">
        <ele>2023.0</ele>
        <time>2018-07-14T12:45:13Z</time>
      </trkpt>
      <trkpt lat="40.481983" lon="-5.251133">
        <ele>2023.0</ele>
        <time>2018-07-14T12:45:14Z</time>
      </trkpt>
      <trkpt lat="40.482083" lon="-5.251083">
        <ele>2025.0</ele>
        <time>2018-07-14T12:45:15Z</time>
      </trkpt>
      <trkpt lat="40.482150" lon="-5.251033">
        <ele>2027.0</ele>
        <time>2018-07-14T12:45:16Z</time>
      </trkpt>
      <trkpt lat="40.482233" lon="-5.250967">
        <ele>2029.0</ele>
        <time>2018-07-14T12:45:17Z</time>
      </trkpt>
      <trkpt lat="40.482317" lon="-5.250933">
        <ele>2031.0</ele>
        <time>2018-07-14T12:45:18Z</time>
      </trkpt>
      <trkpt lat="40.482400" lon="-5.250883">
        <ele>2032.0</ele>
        <time>2018-07-14T12:45:19Z</time>
      </trkpt>
      <trkpt lat="40.482500" lon="-5.250833">
        <ele>2033.0</ele>
        <time>2018-07-14T12:45:20Z</time>
      </trkpt>
      <trkpt lat="40.482583" lon="-5.250783">
        <ele>2035.0</ele>
        <time>2018-07-14T12:45:21Z</time>
      </trkpt>
      <trkpt lat="40.482667" lon="-5.250767">
        <ele>2036.0</ele>
        <time>2018-07-14T12:45:22Z</time>
      </trkpt>
      <trkpt lat="40.482750" lon="-5.250783">
        <ele>2036.0</ele>
        <time>2018-07-14T12:45:23Z</time>
      </trkpt>
      <trkpt lat="40.482817" lon="-5.250833">
        <ele>2036.0</ele>
        <time>2018-07-14T12:45:24Z</time>
      </trkpt>
      <trkpt lat="40.482867" lon="-5.250900">
        <ele>2036.0</ele>
        <time>2018-07-14T12:45:25Z</time>
      </trkpt>
      <trkpt lat="40.482900" lon="-5.250967">
        <ele>2036.0</ele>
        <time>2018-07-14T12:45:26Z</time>
      </trkpt>
      <trkpt lat="40.482883" lon="-5.251033">
        <ele>2036.0</ele>
        <time>2018-07-14T12:45:27Z</time>
      </trkpt>
      <trkpt lat="40.482833" lon="-5.251100">
        <ele>2036.0</ele>
        <time>2018-07-14T12:45:28Z</time>
      </trkpt>
      <trkpt lat="40.482767" lon="-5.251117">
        <ele>2035.0</ele>
        <time>2018-07-14T12:45:29Z</time>
      </trkpt>
      <trkpt lat="40.482700" lon="-5.251117">
        <ele>2035.0</ele>
        <time>2018-07-14T12:45:30Z</time>
      </trkpt>
      <trkpt lat="40.482617" lon="-5.251083">
        <ele>2036.0</ele>
        <time>2018-07-14T12:45:31Z</time>
      </trkpt>
      <trkpt lat="40.482533" lon="-5.251000">
        <ele>2036.0</ele>
        <time>2018-07-14T12:45:32Z</time>
      </trkpt>
      <trkpt lat="40.482467" lon="-5.250900">
        <ele>2036.0</ele>
        <time>2018-07-14T12:45:33Z</time>
      </trkpt>
      <trkpt lat="40.482433" lon="-5.250767">
        <ele>2037.0</ele>
        <time>2018-07-14T12:45:34Z</time>
      </trkpt>
      <trkpt lat="40.482417" lon="-5.250633">
        <ele>2038.0</ele>
        <time>2018-07-14T12:45:35Z</time>
      </trkpt>
      <trkpt lat="40.482433" lon="-5.250483">
        <ele>2038.0</ele>
        <time>2018-07-14T12:45:36Z</time>
      </trkpt>
      <trkpt lat="40.482483" lon="-5.250350">
        <ele>2039.0</ele>
        <time>2018-07-14T12:45:37Z</time>
      </trkpt>
      <trkpt lat="40.482550" lon="-5.250233">
        <ele>2040.0</ele>
        <time>2018-07-14T12:45:38Z</time>
      </trkpt>
      <trkpt lat="40.482617" lon="-5.250167">
        <ele>2042.0</ele>
        <time>2018-07-14T12:45:39Z</time>
      </trkpt>
      <trkpt lat="40.482700" lon="-5.250117">
        <ele>2043.0</ele>
        <time>2018-07-14T12:45:40Z</time>
      </trkpt>
      <trkpt lat="40.482867" lon="-5.250117">
        <ele>2044.0</ele>
        <time>2018-07-14T12:45:42Z</time>
      </trkpt>
      <trkpt lat="40.482933" lon="-5.250167">
        <ele>2043.0</ele>
        <time>2018-07-14T12:45:43Z</time>
      </trkpt>
      <trkpt lat="40.482983" lon="-5.250217">
        <ele>2043.0</ele>
        <time>2018-07-14T12:45:44Z</time>
      </trkpt>
      <trkpt lat="40.483017" lon="-5.250300">
        <ele>2043.0</ele>
        <time>2018-07-14T12:45:45Z</time>
      </trkpt>
      <trkpt lat="40.483000" lon="-5.250383">
        <ele>2043.0</ele>
        <time>2018-07-14T12:45:46Z</time>
      </trkpt>
      <trkpt lat="40.482967" lon="-5.250467">
        <ele>2042.0</ele>
        <time>2018-07-14T12:45:47Z</time>
      </trkpt>
      <trkpt lat="40.482900" lon="-5.250500">
        <ele>2042.0</ele>
        <time>2018-07-14T12:45:48Z</time>
      </trkpt>
      <trkpt lat="40.482817" lon="-5.250500">
        <ele>2041.0</ele>
        <time>2018-07-14T12:45:49Z</time>
      </trkpt>
      <trkpt lat="40.482733" lon="-5.250483">
        <ele>2042.0</ele>
        <time>2018-07-14T12:45:50Z</time>
      </trkpt>
      <trkpt lat="40.482650" lon="-5.250450">
        <ele>2042.0</ele>
        <time>2018-07-14T12:45:51Z</time>
      </trkpt>
      <trkpt lat="40.482583" lon="-5.250367">
        <ele>2043.0</ele>
        <time>2018-07-14T12:45:52Z</time>
      </trkpt>
      <trkpt lat="40.482533" lon="-5.250283">
        <ele>2043.0</ele>
        <time>2018-07-14T12:45:53Z</time>
      </trkpt>
      <trkpt lat="40.482483" lon="-5.250150">
        <ele>2043.0</ele>
        <time>2018-07-14T12:45:54Z</time>
      </trkpt>
      <trkpt lat="40.482467" lon="-5.250017">
        <ele>2043.0</ele>
        <time>2018-07-14T12:45:55Z</time>
      </trkpt>
      <trkpt lat="40.482483" lon="-5.249867">
        <ele>2043.0</ele>
        <time>2018-07-14T12:45:56Z</time>
      </trkpt>
      <trkpt lat="40.482583" lon="-5.249633">
        <ele>2044.0</ele>
        <time>2018-07-14T12:45:58Z</time>
      </trkpt>
      <trkpt lat="40.482650" lon="-5.249550">
        <ele>2045.0</ele>
        <time>2018-07-14T12:45:59Z</time>
      </trkpt>
      <trkpt lat="40.482733" lon="-5.249467">
        <ele>2045.0</ele>
        <time>2018-07-14T12:46:00Z</time>
      </trkpt>
      <trkpt lat="40.482800" lon="-5.249367">
        <ele>2045.0</ele>
        <time>2018-07-14T12:46:01Z</time>
      </trkpt>
      <trkpt lat="40.482883" lon="-5.249283">
        <ele>2045.0</ele>
        <time>2018-07-14T12:46:02Z</time>
      </trkpt>
      <trkpt lat="40.482983" lon="-5.249183">
        <ele>2044.0</ele>
        <time>2018-07-14T12:46:03Z</time>
      </trkpt>
      <trkpt lat="40.483067" lon="-5.249100">
        <ele>2044.0</ele>
        <time>2018-07-14T12:46:04Z</time>
      </trkpt>
      <trkpt lat="40.483167" lon="-5.249017">
        <ele>2045.0</ele>
        <time>2018-07-14T12:46:05Z</time>
      </trkpt>
      <trkpt lat="40.483250" lon="-5.248950">
        <ele>2046.0</ele>
        <time>2018-07-14T12:46:06Z</time>
      </trkpt>
      <trkpt lat="40.483333" lon="-5.248883">
        <ele>2048.0</ele>
        <time>2018-07-14T12:46:07Z</time>
      </trkpt>
      <trkpt lat="40.483517" lon="-5.248767">
        <ele>2048.0</ele>
        <time>2018-07-14T12:46:09Z</time>
      </trkpt>
      <trkpt lat="40.483600" lon="-5.248700">
        <ele>2048.0</ele>
        <time>2018-07-14T12:46:10Z</time>
      </trkpt>
      <trkpt lat="40.483683" lon="-5.248667">
        <ele>2049.0</ele>
        <time>2018-07-14T12:46:11Z</time>
      </trkpt>
      <trkpt lat="40.483750" lon="-5.248617">
        <ele>2049.0</ele>
        <time>2018-07-14T12:46:12Z</time>
      </trkpt>
      <trkpt lat="40.483833" lon="-5.248583">
        <ele>2049.0</ele>
        <time>2018-07-14T12:46:13Z</time>
      </trkpt>
      <trkpt lat="40.483933" lon="-5.248533">
        <ele>2047.0</ele>
        <time>2018-07-14T12:46:14Z</time>
      </trkpt>
      <trkpt lat="40.484050" lon="-5.248483">
        <ele>2046.0</ele>
        <time>2018-07-14T12:46:15Z</time>
      </trkpt>
      <trkpt lat="40.484167" lon="-5.248433">
        <ele>2047.0</ele>
        <time>2018-07-14T12:46:16Z</time>
      </trkpt>
      <trkpt lat="40.484250" lon="-5.248383">
        <ele>2050.0</ele>
        <time>2018-07-14T12:46:17Z</time>
      </trkpt>
      <trkpt lat="40.484317" lon="-5.248333">
        <ele>2052.0</ele>
        <time>2018-07-14T12:46:18Z</time>
      </trkpt>
      <trkpt lat="40.484483" lon="-5.248250">
        <ele>2056.0</ele>
        <time>2018-07-14T12:46:20Z</time>
      </trkpt>
      <trkpt lat="40.484567" lon="-5.248200">
        <ele>2057.0</ele>
        <time>2018-07-14T12:46:21Z</time>
      </trkpt>
      <trkpt lat="40.484667" lon="-5.248150">
        <ele>2058.0</ele>
        <time>2018-07-14T12:46:22Z</time>
      </trkpt>
      <trkpt lat="40.484750" lon="-5.248100">
        <ele>2060.0</ele>
        <time>2018-07-14T12:46:23Z</time>
      </trkpt>
      <trkpt lat="40.484833" lon="-5.248033">
        <ele>2062.0</ele>
        <time>2018-07-14T12:46:24Z</time>
      </trkpt>
      <trkpt lat="40.484917" lon="-5.247983">
        <ele>2064.0</ele>
        <time>2018-07-14T12:46:25Z</time>
      </trkpt>
      <trkpt lat="40.485000" lon="-5.247917">
        <ele>2066.0</ele>
        <time>2018-07-14T12:46:26Z</time>
      </trkpt>
      <trkpt lat="40.485083" lon="-5.247850">
        <ele>2068.0</ele>
        <time>2018-07-14T12:46:27Z</time>
      </trkpt>
      <trkpt lat="40.485150" lon="-5.247767">
        <ele>2069.0</ele>
        <time>2018-07-14T12:46:28Z</time>
      </trkpt>
      <trkpt lat="40.485217" lon="-5.247650">
        <ele>2070.0</ele>
        <time>2018-07-14T12:46:29Z</time>
      </trkpt>
      <trkpt lat="40.485283" lon="-5.247500">
        <ele>2070.0</ele>
        <time>2018-07-14T12:46:30Z</time>
      </trkpt>
      <trkpt lat="40.485317" lon="-5.247333">
        <ele>2070.0</ele>
        <time>2018-07-14T12:46:31Z</time>
      </trkpt>
      <trkpt lat="40.485350" lon="-5.247150">
        <ele>2071.0</ele>
        <time>2018-07-14T12:46:32Z</time>
      </trkpt>
      <trkpt lat="40.485333" lon="-5.246983">
        <ele>2071.0</ele>
        <time>2018-07-14T12:46:33Z</time>
      </trkpt>
      <trkpt lat="40.485283" lon="-5.246867">
        <ele>2071.0</ele>
        <time>2018-07-14T12:46:34Z</time>
      </trkpt>
      <trkpt lat="40.485217" lon="-5.246767">
        <ele>2071.0</ele>
        <time>2018-07-14T12:46:35Z</time>
      </trkpt>
      <trkpt lat="40.485150" lon="-5.246700">
        <ele>2070.0</ele>
        <time>2018-07-14T12:46:36Z</time>
      </trkpt>
      <trkpt lat="40.485083" lon="-5.246683">
        <ele>2070.0</ele>
        <time>2018-07-14T12:46:37Z</time>
      </trkpt>
      <trkpt lat="40.485033" lon="-5.246683">
        <ele>2069.0</ele>
        <time>2018-07-14T12:46:38Z</time>
      </trkpt>
      <trkpt lat="40.484983" lon="-5.246700">
        <ele>2069.0</ele>
        <time>2018-07-14T12:46:39Z</time>
      </trkpt>
      <trkpt lat="40.484950" lon="-5.246733">
        <ele>2069.0</ele>
        <time>2018-07-14T12:46:40Z</time>
      </trkpt>
      <trkpt lat="40.484917" lon="-5.246767">
        <ele>2068.0</ele>
        <time>2018-07-14T12:46:41Z</time>
      </trkpt>
      <trkpt lat="40.484900" lon="-5.246817">
        <ele>2068.0</ele>
        <time>2018-07-14T12:46:42Z</time>
      </trkpt>
      <trkpt lat="40.484883" lon="-5.246883">
        <ele>2069.0</ele>
        <time>2018-07-14T12:46:43Z</time>
      </trkpt>
      <trkpt lat="40.484883" lon="-5.246933">
        <ele>2069.0</ele>
        <time>2018-07-14T12:46:44Z</time>
      </trkpt>
      <trkpt lat="40.484900" lon="-5.247000">
        <ele>2070.0</ele>
        <time>2018-07-14T12:46:45Z</time>
      </trkpt>
      <trkpt lat="40.484917" lon="-5.247050">
        <ele>2071.0</ele>
        <time>2018-07-14T12:46:46Z</time>
      </trkpt>
      <trkpt lat="40.484933" lon="-5.247117">
        <ele>2073.0</ele>
        <time>2018-07-14T12:46:47Z</time>
      </trkpt>
      <trkpt lat="40.484967" lon="-5.247167">
        <ele>2075.0</ele>
        <time>2018-07-14T12:46:48Z</time>
      </trkpt>
      <trkpt lat="40.484983" lon="-5.247200">
        <ele>2077.0</ele>
        <time>2018-07-14T12:46:49Z</time>
      </trkpt>
      <trkpt lat="40.485017" lon="-5.247250">
        <ele>2079.0</ele>
        <time>2018-07-14T12:46:50Z</time>
      </trkpt>
      <trkpt lat="40.485050" lon="-5.247300">
        <ele>2080.0</ele>
        <time>2018-07-14T12:46:51Z</time>
      </trkpt>
      <trkpt lat="40.485100" lon="-5.247350">
        <ele>2081.0</ele>
        <time>2018-07-14T12:46:52Z</time>
      </trkpt>
      <trkpt lat="40.485150" lon="-5.247400">
        <ele>2083.0</ele>
        <time>2018-07-14T12:46:53Z</time>
      </trkpt>
      <trkpt lat="40.485217" lon="-5.247450">
        <ele>2085.0</ele>
        <time>2018-07-14T12:46:54Z</time>
      </trkpt>
      <trkpt lat="40.485250" lon="-5.247483">
        <ele>2087.0</ele>
        <time>2018-07-14T12:46:55Z</time>
      </trkpt>
      <trkpt lat="40.485333" lon="-5.247550">
        <ele>2092.0</ele>
        <time>2018-07-14T12:46:57Z</time>
      </trkpt>
      <trkpt lat="40.485383" lon="-5.247600">
        <ele>2093.0</ele>
        <time>2018-07-14T12:46:58Z</time>
      </trkpt>
      <trkpt lat="40.485483" lon="-5.247700">
        <ele>2095.0</ele>
        <time>2018-07-14T12:47:00Z</time>
      </trkpt>
      <trkpt lat="40.485550" lon="-5.247733">
        <ele>2097.0</ele>
        <time>2018-07-14T12:47:01Z</time>
      </trkpt>
      <trkpt lat="40.485617" lon="-5.247750">
        <ele>2100.0</ele>
        <time>2018-07-14T12:47:02Z</time>
      </trkpt>
      <trkpt lat="40.485683" lon="-5.247750">
        <ele>2101.0</ele>
        <time>2018-07-14T12:47:03Z</time>
      </trkpt>
      <trkpt lat="40.485767" lon="-5.247733">
        <ele>2103.0</ele>
        <time>2018-07-14T12:47:04Z</time>
      </trkpt>
      <trkpt lat="40.485867" lon="-5.247700">
        <ele>2104.0</ele>
        <time>2018-07-14T12:47:05Z</time>
      </trkpt>
      <trkpt lat="40.485950" lon="-5.247650">
        <ele>2106.0</ele>
        <time>2018-07-14T12:47:06Z</time>
      </trkpt>
      <trkpt lat="40.486033" lon="-5.247550">
        <ele>2108.0</ele>
        <time>2018-07-14T12:47:07Z</time>
      </trkpt>
      <trkpt lat="40.486150" lon="-5.247333">
        <ele>2112.0</ele>
        <time>2018-07-14T12:47:09Z</time>
      </trkpt>
      <trkpt lat="40.486200" lon="-5.247200">
        <ele>2114.0</ele>
        <time>2018-07-14T12:47:10Z</time>
      </trkpt>
      <trkpt lat="40.486250" lon="-5.247067">
        <ele>2115.0</ele>
        <time>2018-07-14T12:47:11Z</time>
      </trkpt>
      <trkpt lat="40.486267" lon="-5.246917">
        <ele>2116.0</ele>
        <time>2018-07-14T12:47:12Z</time>
      </trkpt>
      <trkpt lat="40.486250" lon="-5.246767">
        <ele>2116.0</ele>
        <time>2018-07-14T12:47:13Z</time>
      </trkpt>
      <trkpt lat="40.486200" lon="-5.246617">
        <ele>2114.0</ele>
        <time>2018-07-14T12:47:14Z</time>
      </trkpt>
      <trkpt lat="40.486133" lon="-5.246483">
        <ele>2114.0</ele>
        <time>2018-07-14T12:47:15Z</time>
      </trkpt>
      <trkpt lat="40.486050" lon="-5.246383">
        <ele>2115.0</ele>
        <time>2018-07-14T12:47:16Z</time>
      </trkpt>
      <trkpt lat="40.485967" lon="-5.246350">
        <ele>2116.0</ele>
        <time>2018-07-14T12:47:17Z</time>
      </trkpt>
      <trkpt lat="40.485900" lon="-5.246350">
        <ele>2117.0</ele>
        <time>2018-07-14T12:47:18Z</time>
      </trkpt>
      <trkpt lat="40.485833" lon="-5.246383">
        <ele>2118.0</ele>
        <time>2018-07-14T12:47:19Z</time>
      </trkpt>
      <trkpt lat="40.485783" lon="-5.246433">
        <ele>2119.0</ele>
        <time>2018-07-14T12:47:20Z</time>
      </trkpt>
      <trkpt lat="40.485767" lon="-5.246500">
        <ele>2121.0</ele>
        <time>2018-07-14T12:47:21Z</time>
      </trkpt>
      <trkpt lat="40.485750" lon="-5.246567">
        <ele>2123.0</ele>
        <time>2018-07-14T12:47:22Z</time>
      </trkpt>
      <trkpt lat="40.485733" lon="-5.246633">
        <ele>2124.0</ele>
        <time>2018-07-14T12:47:23Z</time>
      </trkpt>
      <trkpt lat="40.485717" lon="-5.246700">
        <ele>2127.0</ele>
        <time>2018-07-14T12:47:24Z</time>
      </trkpt>
      <trkpt lat="40.485700" lon="-5.246750">
        <ele>2129.0</ele>
        <time>2018-07-14T12:47:25Z</time>
      </trkpt>
      <trkpt lat="40.485717" lon="-5.246817">
        <ele>2131.0</ele>
        <time>2018-07-14T12:47:26Z</time>
      </trkpt>
      <trkpt lat="40.485733" lon="-5.246883">
        <ele>2133.0</ele>
        <time>2018-07-14T12:47:27Z</time>
      </trkpt>
      <trkpt lat="40.485750" lon="-5.246950">
        <ele>2134.0</ele>
        <time>2018-07-14T12:47:28Z</time>
      </trkpt>
      <trkpt lat="40.485783" lon="-5.247000">
        <ele>2136.0</ele>
        <time>2018-07-14T12:47:29Z</time>
      </trkpt>
      <trkpt lat="40.485817" lon="-5.247083">
        <ele>2137.0</ele>
        <time>2018-07-14T12:47:30Z</time>
      </trkpt>
      <trkpt lat="40.485850" lon="-5.247150">
        <ele>2138.0</ele>
        <time>2018-07-14T12:47:31Z</time>
      </trkpt>
      <trkpt lat="40.485900" lon="-5.247200">
        <ele>2141.0</ele>
        <time>2018-07-14T12:47:32Z</time>
      </trkpt>
      <trkpt lat="40.485967" lon="-5.247250">
        <ele>2145.0</ele>
        <time>2018-07-14T12:47:33Z</time>
      </trkpt>
      <trkpt lat="40.486033" lon="-5.247283">
        <ele>2148.0</ele>
        <time>2018-07-14T12:47:34Z</time>
      </trkpt>
      <trkpt lat="40.486083" lon="-5.247317">
        <ele>2151.0</ele>
        <time>2018-07-14T12:47:35Z</time>
      </trkpt>
      <trkpt lat="40.486150" lon="-5.247367">
        <ele>2154.0</ele>
        <time>2018-07-14T12:47:36Z</time>
      </trkpt>
      <trkpt lat="40.486217" lon="-5.247400">
        <ele>2156.0</ele>
        <time>2018-07-14T12:47:37Z</time>
      </trkpt>
      <trkpt lat="40.486300" lon="-5.247450">
        <ele>2158.0</ele>
        <time>2018-07-14T12:47:38Z</time>
      </trkpt>
      <trkpt lat="40.486383" lon="-5.247450">
        <ele>2160.0</ele>
        <time>2018-07-14T12:47:39Z</time>
      </trkpt>
      <trkpt lat="40.486483" lon="-5.247433">
        <ele>2162.0</ele>
        <time>2018-07-14T12:47:40Z</time>
      </trkpt>
      <trkpt lat="40.486567" lon="-5.247383">
        <ele>2164.0</ele>
        <time>2018-07-14T12:47:41Z</time>
      </trkpt>
      <trkpt lat="40.486650" lon="-5.247300">
        <ele>2166.0</ele>
        <time>2018-07-14T12:47:42Z</time>
      </trkpt>
      <trkpt lat="40.486700" lon="-5.247200">
        <ele>2168.0</ele>
        <time>2018-07-14T12:47:43Z</time>
      </trkpt>
      <trkpt lat="40.486750" lon="-5.247067">
        <ele>2169.0</ele>
        <time>2018-07-14T12:47:44Z</time>
      </trkpt>
      <trkpt lat="40.486750" lon="-5.246933">
        <ele>2170.0</ele>
        <time>2018-07-14T12:47:45Z</time>
      </trkpt>
      <trkpt lat="40.486683" lon="-5.246667">
        <ele>2172.0</ele>
        <time>2018-07-14T12:47:47Z</time>
      </trkpt>
      <trkpt lat="40.486617" lon="-5.246583">
        <ele>2173.0</ele>
        <time>2018-07-14T12:47:48Z</time>
      </trkpt>
      <trkpt lat="40.486550" lon="-5.246533">
        <ele>2175.0</ele>
        <time>2018-07-14T12:47:49Z</time>
      </trkpt>
      <trkpt lat="40.486467" lon="-5.246533">
        <ele>2177.0</ele>
        <time>2018-07-14T12:47:50Z</time>
      </trkpt>
      <trkpt lat="40.486417" lon="-5.246533">
        <ele>2180.0</ele>
        <time>2018-07-14T12:47:51Z</time>
      </trkpt>
      <trkpt lat="40.486350" lon="-5.246567">
        <ele>2181.0</ele>
        <time>2018-07-14T12:47:52Z</time>
      </trkpt>
      <trkpt lat="40.486300" lon="-5.246600">
        <ele>2183.0</ele>
        <time>2018-07-14T12:47:53Z</time>
      </trkpt>
      <trkpt lat="40.486233" lon="-5.246650">
        <ele>2184.0</ele>
        <time>2018-07-14T12:47:54Z</time>
      </trkpt>
      <trkpt lat="40.486200" lon="-5.246717">
        <ele>2186.0</ele>
        <time>2018-07-14T12:47:55Z</time>
      </trkpt>
      <trkpt lat="40.486167" lon="-5.246800">
        <ele>2187.0</ele>
        <time>2018-07-14T12:47:56Z</time>
      </trkpt>
      <trkpt lat="40.486133" lon="-5.246867">
        <ele>2189.0</ele>
        <time>2018-07-14T12:47:57Z</time>
      </trkpt>
      <trkpt lat="40.486133" lon="-5.246950">
        <ele>2192.0</ele>
        <time>2018-07-14T12:47:58Z</time>
      </trkpt>
      <trkpt lat="40.486133" lon="-5.247017">
        <ele>2195.0</ele>
        <time>2018-07-14T12:47:59Z</time>
      </trkpt>
      <trkpt lat="40.486133" lon="-5.247083">
        <ele>2199.0</ele>
        <time>2018-07-14T12:48:00Z</time>
      </trkpt>
      <trkpt lat="40.486150" lon="-5.247167">
        <ele>2202.0</ele>
        <time>2018-07-14T12:48:01Z</time>
      </trkpt>
      <trkpt lat="40.486183" lon="-5.247233">
        <ele>2205.0</ele>
        <time>2018-07-14T12:48:02Z</time>
      </trkpt>
      <trkpt lat="40.486200" lon="-5.247317">
        <ele>2208.0</ele>
        <time>2018-07-14T12:48:03Z</time>
      </trkpt>
      <trkpt lat="40.486233" lon="-5.247383">
        <ele>2211.0</ele>
        <time>2018-07-14T12:48:04Z</time>
      </trkpt>
      <trkpt lat="40.486283" lon="-5.247450">
        <ele>2215.0</ele>
        <time>2018-07-14T12:48:05Z</time>
      </trkpt>
      <trkpt lat="40.486333" lon="-5.247500">
        <ele>2219.0</ele>
        <time>2018-07-14T12:48:06Z</time>
      </trkpt>
      <trkpt lat="40.486383" lon="-5.247550">
        <ele>2222.0</ele>
        <time>2018-07-14T12:48:07Z</time>
      </trkpt>
      <trkpt lat="40.486450" lon="-5.247600">
        <ele>2225.0</ele>
        <time>2018-07-14T12:48:08Z</time>
      </trkpt>
      <trkpt lat="40.486517" lon="-5.247650">
        <ele>2228.0</ele>
        <time>2018-07-14T12:48:09Z</time>
      </trkpt>
      <trkpt lat="40.486600" lon="-5.247700">
        <ele>2232.0</ele>
        <time>2018-07-14T12:48:10Z</time>
      </trkpt>
      <trkpt lat="40.486683" lon="-5.247717">
        <ele>2236.0</ele>
        <time>2018-07-14T12:48:11Z</time>
      </trkpt>
      <trkpt lat="40.486767" lon="-5.247733">
        <ele>2239.0</ele>
        <time>2018-07-14T12:48:12Z</time>
      </trkpt>
      <trkpt lat="40.486867" lon="-5.247717">
        <ele>2242.0</ele>
        <time>2018-07-14T12:48:13Z</time>
      </trkpt>
      <trkpt lat="40.486950" lon="-5.247700">
        <ele>2245.0</ele>
        <time>2018-07-14T12:48:14Z</time>
      </trkpt>
      <trkpt lat="40.487050" lon="-5.247667">
        <ele>2247.0</ele>
        <time>2018-07-14T12:48:15Z</time>
      </trkpt>
      <trkpt lat="40.487150" lon="-5.247600">
        <ele>2250.0</ele>
        <time>2018-07-14T12:48:16Z</time>
      </trkpt>
      <trkpt lat="40.487250" lon="-5.247500">
        <ele>2252.0</ele>
        <time>2018-07-14T12:48:17Z</time>
      </trkpt>
      <trkpt lat="40.487300" lon="-5.247383">
        <ele>2254.0</ele>
        <time>2018-07-14T12:48:18Z</time>
      </trkpt>
      <trkpt lat="40.487333" lon="-5.247267">
        <ele>2256.0</ele>
        <time>2018-07-14T12:48:19Z</time>
      </trkpt>
      <trkpt lat="40.487317" lon="-5.247133">
        <ele>2258.0</ele>
        <time>2018-07-14T12:48:20Z</time>
      </trkpt>
      <trkpt lat="40.487283" lon="-5.247017">
        <ele>2259.0</ele>
        <time>2018-07-14T12:48:21Z</time>
      </trkpt>
      <trkpt lat="40.487250" lon="-5.246933">
        <ele>2261.0</ele>
        <time>2018-07-14T12:48:22Z</time>
      </trkpt>
      <trkpt lat="40.487217" lon="-5.246850">
        <ele>2263.0</ele>
        <time>2018-07-14T12:48:23Z</time>
      </trkpt>
      <trkpt lat="40.487183" lon="-5.246783">
        <ele>2265.0</ele>
        <time>2018-07-14T12:48:24Z</time>
      </trkpt>
      <trkpt lat="40.487150" lon="-5.246717">
        <ele>2266.0</ele>
        <time>2018-07-14T12:48:25Z</time>
      </trkpt>
      <trkpt lat="40.487033" lon="-5.246617">
        <ele>2266.0</ele>
        <time>2018-07-14T12:48:27Z</time>
      </trkpt>
      <trkpt lat="40.486950" lon="-5.246583">
        <ele>2267.0</ele>
        <time>2018-07-14T12:48:28Z</time>
      </trkpt>
      <trkpt lat="40.486883" lon="-5.246583">
        <ele>2269.0</ele>
        <time>2018-07-14T12:48:29Z</time>
      </trkpt>
      <trkpt lat="40.486833" lon="-5.246600">
        <ele>2272.0</ele>
        <time>2018-07-14T12:48:30Z</time>
      </trkpt>
      <trkpt lat="40.486783" lon="-5.246633">
        <ele>2275.0</ele>
        <time>2018-07-14T12:48:31Z</time>
      </trkpt>
      <trkpt lat="40.486717" lon="-5.246650">
        <ele>2277.0</ele>
        <time>2018-07-14T12:48:32Z</time>
      </trkpt>
      <trkpt lat="40.486650" lon="-5.246683">
        <ele>2279.0</ele>
        <time>2018-07-14T12:48:33Z</time>
      </trkpt>
      <trkpt lat="40.486617" lon="-5.246750">
        <ele>2281.0</ele>
        <time>2018-07-14T12:48:34Z</time>
      </trkpt>
      <trkpt lat="40.486583" lon="-5.246817">
        <ele>2284.0</ele>
        <time>2018-07-14T12:48:35Z</time>
      </trkpt>
      <trkpt lat="40.486567" lon="-5.246900">
        <ele>2286.0</ele>
        <time>2018-07-14T12:48:36Z</time>
      </trkpt>
      <trkpt lat="40.486550" lon="-5.246983">
        <ele>2289.0</ele>
        <time>2018-07-14T12:48:37Z</time>
      </trkpt>
      <trkpt lat="40.486533" lon="-5.247050">
        <ele>2293.0</ele>
        <time>2018-07-14T12:48:38Z</time>
      </trkpt>
      <trkpt lat="40.486550" lon="-5.247133">
        <ele>2295.0</ele>
        <time>2018-07-14T12:48:39Z</time>
      </trkpt>
      <trkpt lat="40.486550" lon="-5.247233">
        <ele>2298.0</ele>
        <time>2018-07-14T12:48:40Z</time>
      </trkpt>
      <trkpt lat="40.486567" lon="-5.247317">
        <ele>2300.0</ele>
        <time>2018-07-14T12:48:41Z</time>
      </trkpt>
      <trkpt lat="40.486600" lon="-5.247383">
        <ele>2302.0</ele>
        <time>2018-07-14T12:48:42Z</time>
      </trkpt>
      <trkpt lat="40.486633" lon="-5.247450">
        <ele>2305.0</ele>
        <time>2018-07-14T12:48:43Z</time>
      </trkpt>
      <trkpt lat="40.486667" lon="-5.247517">
        <ele>2306.0</ele>
        <time>2018-07-14T12:48:44Z</time>
      </trkpt>
      <trkpt lat="40.486700" lon="-5.247600">
        <ele>2308.0</ele>
        <time>2018-07-14T12:48:45Z</time>
      </trkpt>
      <trkpt lat="40.486750" lon="-5.247667">
        <ele>2309.0</ele>
        <time>2018-07-14T12:48:46Z</time>
      </trkpt>
      <trkpt lat="40.486833" lon="-5.247733">
        <ele>2310.0</ele>
        <time>2018-07-14T12:48:47Z</time>
      </trkpt>
      <trkpt lat="40.486917" lon="-5.247783">
        <ele>2311.0</ele>
        <time>2018-07-14T12:48:48Z</time>
      </trkpt>
      <trkpt lat="40.487033" lon="-5.247800">
        <ele>2312.0</ele>
        <time>2018-07-14T12:48:49Z</time>
      </trkpt>
      <trkpt lat="40.487150" lon="-5.247767">
        <ele>2314.0</ele>
        <time>2018-07-14T12:48:50Z</time>
      </trkpt>
      <trkpt lat="40.487233" lon="-5.247717">
        <ele>2315.0</ele>
        <time>2018-07-14T12:48:51Z</time>
      </trkpt>
      <trkpt lat="40.487317" lon="-5.247633">
        <ele>2317.0</ele>
        <time>2018-07-14T12:48:52Z</time>
      </trkpt>
      <trkpt lat="40.487367" lon="-5.247417">
        <ele>2321.0</ele>
        <time>2018-07-14T12:48:54Z</time>
      </trkpt>
      <trkpt lat="40.487367" lon="-5.247317">
        <ele>2324.0</ele>
        <time>2018-07-14T12:48:55Z</time>
      </trkpt>
      <trkpt lat="40.487333" lon="-5.247217">
        <ele>2326.0</ele>
        <time>2018-07-14T12:48:56Z</time>
      </trkpt>
      <trkpt lat="40.487300" lon="-5.247133">
        <ele>2329.0</ele>
        <time>2018-07-14T12:48:57Z</time>
      </trkpt>
      <trkpt lat="40.487233" lon="-5.247083">
        <ele>2333.0</ele>
        <time>2018-07-14T12:48:58Z</time>
      </trkpt>
      <trkpt lat="40.487167" lon="-5.247067">
        <ele>2336.0</ele>
        <time>2018-07-14T12:48:59Z</time>
      </trkpt>
      <trkpt lat="40.487100" lon="-5.247100">
        <ele>2338.0</ele>
        <time>2018-07-14T12:49:00Z</time>
      </trkpt>
      <trkpt lat="40.487033" lon="-5.247183">
        <ele>2341.0</ele>
        <time>2018-07-14T12:49:01Z</time>
      </trkpt>
      <trkpt lat="40.487017" lon="-5.247267">
        <ele>2344.0</ele>
        <time>2018-07-14T12:49:02Z</time>
      </trkpt>
      <trkpt lat="40.487000" lon="-5.247383">
        <ele>2347.0</ele>
        <time>2018-07-14T12:49:03Z</time>
      </trkpt>
      <trkpt lat="40.487033" lon="-5.247483">
        <ele>2350.0</ele>
        <time>2018-07-14T12:49:04Z</time>
      </trkpt>
      <trkpt lat="40.487083" lon="-5.247583">
        <ele>2352.0</ele>
        <time>2018-07-14T12:49:05Z</time>
      </trkpt>
      <trkpt lat="40.487150" lon="-5.247650">
        <ele>2354.0</ele>
        <time>2018-07-14T12:49:06Z</time>
      </trkpt>
      <trkpt lat="40.487250" lon="-5.247717">
        <ele>2356.0</ele>
        <time>2018-07-14T12:49:07Z</time>
      </trkpt>
      <trkpt lat="40.487350" lon="-5.247733">
        <ele>2357.0</ele>
        <time>2018-07-14T12:49:08Z</time>
      </trkpt>
      <trkpt lat="40.487450" lon="-5.247717">
        <ele>2359.0</ele>
        <time>2018-07-14T12:49:09Z</time>
      </trkpt>
      <trkpt lat="40.487533" lon="-5.247650">
        <ele>2360.0</ele>
        <time>2018-07-14T12:49:10Z</time>
      </trkpt>
      <trkpt lat="40.487583" lon="-5.247550">
        <ele>2362.0</ele>
        <time>2018-07-14T12:49:11Z</time>
      </trkpt>
      <trkpt lat="40.487600" lon="-5.247450">
        <ele>2365.0</ele>
        <time>2018-07-14T12:49:12Z</time>
      </trkpt>
      <trkpt lat="40.487583" lon="-5.247367">
        <ele>2368.0</ele>
        <time>2018-07-14T12:49:13Z</time>
      </trkpt>
      <trkpt lat="40.487550" lon="-5.247283">
        <ele>2370.0</ele>
        <time>2018-07-14T12:49:14Z</time>
      </trkpt>
      <trkpt lat="40.487517" lon="-5.247233">
        <ele>2372.0</ele>
        <time>2018-07-14T12:49:15Z</time>
      </trkpt>
      <trkpt lat="40.487467" lon="-5.247167">
        <ele>2373.0</ele>
        <time>2018-07-14T12:49:16Z</time>
      </trkpt>
      <trkpt lat="40.487417" lon="-5.247100">
        <ele>2375.0</ele>
        <time>2018-07-14T12:49:17Z</time>
      </trkpt>
      <trkpt lat="40.487333" lon="-5.247083">
        <ele>2377.0</ele>
        <time>2018-07-14T12:49:18Z</time>
      </trkpt>
      <trkpt lat="40.487267" lon="-5.247083">
        <ele>2379.0</ele>
        <time>2018-07-14T12:49:19Z</time>
      </trkpt>
      <trkpt lat="40.487200" lon="-5.247150">
        <ele>2380.0</ele>
        <time>2018-07-14T12:49:20Z</time>
      </trkpt>
      <trkpt lat="40.487133" lon="-5.247233">
        <ele>2382.0</ele>
        <time>2018-07-14T12:49:21Z</time>
      </trkpt>
      <trkpt lat="40.487100" lon="-5.247333">
        <ele>2384.0</ele>
        <time>2018-07-14T12:49:22Z</time>
      </trkpt>
      <trkpt lat="40.487083" lon="-5.247433">
        <ele>2386.0</ele>
        <time>2018-07-14T12:49:23Z</time>
      </trkpt>
      <trkpt lat="40.487083" lon="-5.247550">
        <ele>2387.0</ele>
        <time>2018-07-14T12:49:24Z</time>
      </trkpt>
      <trkpt lat="40.487117" lon="-5.247650">
        <ele>2388.0</ele>
        <time>2018-07-14T12:49:25Z</time>
      </trkpt>
      <trkpt lat="40.487183" lon="-5.247750">
        <ele>2388.0</ele>
        <time>2018-07-14T12:49:26Z</time>
      </trkpt>
      <trkpt lat="40.487250" lon="-5.247867">
        <ele>2386.0</ele>
        <time>2018-07-14T12:49:27Z</time>
      </trkpt>
      <trkpt lat="40.487333" lon="-5.247950">
        <ele>2386.0</ele>
        <time>2018-07-14T12:49:28Z</time>
      </trkpt>
      <trkpt lat="40.487417" lon="-5.248033">
        <ele>2387.0</ele>
        <time>2018-07-14T12:49:29Z</time>
      </trkpt>
      <trkpt lat="40.487500" lon="-5.248100">
        <ele>2388.0</ele>
        <time>2018-07-14T12:49:30Z</time>
      </trkpt>
      <trkpt lat="40.487567" lon="-5.248133">
        <ele>2389.0</ele>
        <time>2018-07-14T12:49:31Z</time>
      </trkpt>
      <trkpt lat="40.487667" lon="-5.248133">
        <ele>2390.0</ele>
        <time>2018-07-14T12:49:32Z</time>
      </trkpt>
      <trkpt lat="40.487767" lon="-5.248117">
        <ele>2389.0</ele>
        <time>2018-07-14T12:49:33Z</time>
      </trkpt>
      <trkpt lat="40.487917" lon="-5.248033">
        <ele>2389.0</ele>
        <time>2018-07-14T12:49:35Z</time>
      </trkpt>
      <trkpt lat="40.487950" lon="-5.247950">
        <ele>2390.0</ele>
        <time>2018-07-14T12:49:36Z</time>
      </trkpt>
      <trkpt lat="40.487967" lon="-5.247850">
        <ele>2390.0</ele>
        <time>2018-07-14T12:49:37Z</time>
      </trkpt>
      <trkpt lat="40.487983" lon="-5.247750">
        <ele>2390.0</ele>
        <time>2018-07-14T12:49:38Z</time>
      </trkpt>
      <trkpt lat="40.487983" lon="-5.247650">
        <ele>2391.0</ele>
        <time>2018-07-14T12:49:39Z</time>
      </trkpt>
      <trkpt lat="40.487950" lon="-5.247550">
        <ele>2392.0</ele>
        <time>2018-07-14T12:49:40Z</time>
      </trkpt>
      <trkpt lat="40.487917" lon="-5.247483">
        <ele>2393.0</ele>
        <time>2018-07-14T12:49:41Z</time>
      </trkpt>
      <trkpt lat="40.487850" lon="-5.247417">
        <ele>2393.0</ele>
        <time>2018-07-14T12:49:42Z</time>
      </trkpt>
      <trkpt lat="40.487767" lon="-5.247367">
        <ele>2392.0</ele>
        <time>2018-07-14T12:49:43Z</time>
      </trkpt>
      <trkpt lat="40.487683" lon="-5.247350">
        <ele>2393.0</ele>
        <time>2018-07-14T12:49:44Z</time>
      </trkpt>
      <trkpt lat="40.487617" lon="-5.247367">
        <ele>2394.0</ele>
        <time>2018-07-14T12:49:45Z</time>
      </trkpt>
      <trkpt lat="40.487550" lon="-5.247400">
        <ele>2396.0</ele>
        <time>2018-07-14T12:49:46Z</time>
      </trkpt>
      <trkpt lat="40.487483" lon="-5.247467">
        <ele>2397.0</ele>
        <time>2018-07-14T12:49:47Z</time>
      </trkpt>
      <trkpt lat="40.487417" lon="-5.247533">
        <ele>2396.0</ele>
        <time>2018-07-14T12:49:48Z</time>
      </trkpt>
      <trkpt lat="40.487350" lon="-5.247617">
        <ele>2396.0</ele>
        <time>2018-07-14T12:49:49Z</time>
      </trkpt>
      <trkpt lat="40.487300" lon="-5.247717">
        <ele>2396.0</ele>
        <time>2018-07-14T12:49:50Z</time>
      </trkpt>
      <trkpt lat="40.487267" lon="-5.247817">
        <ele>2395.0</ele>
        <time>2018-07-14T12:49:51Z</time>
      </trkpt>
      <trkpt lat="40.487250" lon="-5.247933">
        <ele>2394.0</ele>
        <time>2018-07-14T12:49:52Z</time>
      </trkpt>
      <trkpt lat="40.487267" lon="-5.248050">
        <ele>2394.0</ele>
        <time>2018-07-14T12:49:53Z</time>
      </trkpt>
      <trkpt lat="40.487283" lon="-5.248183">
        <ele>2393.0</ele>
        <time>2018-07-14T12:49:54Z</time>
      </trkpt>
      <trkpt lat="40.487300" lon="-5.248317">
        <ele>2393.0</ele>
        <time>2018-07-14T12:49:55Z</time>
      </trkpt>
      <trkpt lat="40.487317" lon="-5.248417">
        <ele>2393.0</ele>
        <time>2018-07-14T12:49:56Z</time>
      </trkpt>
      <trkpt lat="40.487350" lon="-5.248517">
        <ele>2393.0</ele>
        <time>2018-07-14T12:49:57Z</time>
      </trkpt>
      <trkpt lat="40.487400" lon="-5.248617">
        <ele>2393.0</ele>
        <time>2018-07-14T12:49:58Z</time>
      </trkpt>
      <trkpt lat="40.487467" lon="-5.248717">
        <ele>2392.0</ele>
        <time>2018-07-14T12:49:59Z</time>
      </trkpt>
      <trkpt lat="40.487550" lon="-5.248800">
        <ele>2391.0</ele>
        <time>2018-07-14T12:50:00Z</time>
      </trkpt>
      <trkpt lat="40.487617" lon="-5.248850">
        <ele>2390.0</ele>
        <time>2018-07-14T12:50:01Z</time>
      </trkpt>
      <trkpt lat="40.487667" lon="-5.248867">
        <ele>2390.0</ele>
        <time>2018-07-14T12:50:02Z</time>
      </trkpt>
      <trkpt lat="40.487733" lon="-5.248883">
        <ele>2389.0</ele>
        <time>2018-07-14T12:50:03Z</time>
      </trkpt>
      <trkpt lat="40.487783" lon="-5.248883">
        <ele>2388.0</ele>
        <time>2018-07-14T12:50:04Z</time>
      </trkpt>
      <trkpt lat="40.488017" lon="-5.248867">
        <ele>2379.0</ele>
        <time>2018-07-14T12:50:07Z</time>
      </trkpt>
      <trkpt lat="40.488100" lon="-5.248867">
        <ele>2375.0</ele>
        <time>2018-07-14T12:50:08Z</time>
      </trkpt>
      <trkpt lat="40.488200" lon="-5.248883">
        <ele>2373.0</ele>
        <time>2018-07-14T12:50:09Z</time>
      </trkpt>
      <trkpt lat="40.488267" lon="-5.248883">
        <ele>2372.0</ele>
        <time>2018-07-14T12:50:10Z</time>
      </trkpt>
      <trkpt lat="40.488333" lon="-5.248883">
        <ele>2370.0</ele>
        <time>2018-07-14T12:50:11Z</time>
      </trkpt>
      <trkpt lat="40.488417" lon="-5.248900">
        <ele>2369.0</ele>
        <time>2018-07-14T12:50:12Z</time>
      </trkpt>
      <trkpt lat="40.488500" lon="-5.248900">
        <ele>2366.0</ele>
        <time>2018-07-14T12:50:13Z</time>
      </trkpt>
      <trkpt lat="40.488583" lon="-5.248917">
        <ele>2363.0</ele>
        <time>2018-07-14T12:50:14Z</time>
      </trkpt>
      <trkpt lat="40.488683" lon="-5.248917">
        <ele>2360.0</ele>
        <time>2018-07-14T12:50:15Z</time>
      </trkpt>
      <trkpt lat="40.488750" lon="-5.248900">
        <ele>2359.0</ele>
        <time>2018-07-14T12:50:16Z</time>
      </trkpt>
      <trkpt lat="40.488833" lon="-5.248900">
        <ele>2357.0</ele>
        <time>2018-07-14T12:50:17Z</time>
      </trkpt>
      <trkpt lat="40.488917" lon="-5.248883">
        <ele>2354.0</ele>
        <time>2018-07-14T12:50:18Z</time>
      </trkpt>
      <trkpt lat="40.489000" lon="-5.248850">
        <ele>2352.0</ele>
        <time>2018-07-14T12:50:19Z</time>
      </trkpt>
      <trkpt lat="40.489083" lon="-5.248833">
        <ele>2349.0</ele>
        <time>2018-07-14T12:50:20Z</time>
      </trkpt>
      <trkpt lat="40.489167" lon="-5.248817">
        <ele>2346.0</ele>
        <time>2018-07-14T12:50:21Z</time>
      </trkpt>
      <trkpt lat="40.489450" lon="-5.248783">
        <ele>2343.0</ele>
        <time>2018-07-14T12:50:24Z</time>
      </trkpt>
      <trkpt lat="40.489567" lon="-5.248767">
        <ele>2341.0</ele>
        <time>2018-07-14T12:50:25Z</time>
      </trkpt>
      <trkpt lat="40.489667" lon="-5.248750">
        <ele>2340.0</ele>
        <time>2018-07-14T12:50:26Z</time>
      </trkpt>
      <trkpt lat="40.489867" lon="-5.248667">
        <ele>2338.0</ele>
        <time>2018-07-14T12:50:28Z</time>
      </trkpt>
      <trkpt lat="40.489983" lon="-5.248617">
        <ele>2336.0</ele>
        <time>2018-07-14T12:50:29Z</time>
      </trkpt>
      <trkpt lat="40.490100" lon="-5.248583">
        <ele>2336.0</ele>
        <time>2018-07-14T12:50:30Z</time>
      </trkpt>
      <trkpt lat="40.490217" lon="-5.248550">
        <ele>2335.0</ele>
        <time>2018-07-14T12:50:31Z</time>
      </trkpt>
      <trkpt lat="40.490317" lon="-5.248533">
        <ele>2334.0</ele>
        <time>2018-07-14T12:50:32Z</time>
      </trkpt>
      <trkpt lat="40.490417" lon="-5.248500">
        <ele>2334.0</ele>
        <time>2018-07-14T12:50:33Z</time>
      </trkpt>
      <trkpt lat="40.490517" lon="-5.248483">
        <ele>2333.0</ele>
        <time>2018-07-14T12:50:34Z</time>
      </trkpt>
      <trkpt lat="40.490617" lon="-5.248467">
        <ele>2332.0</ele>
        <time>2018-07-14T12:50:35Z</time>
      </trkpt>
      <trkpt lat="40.490717" lon="-5.248433">
        <ele>2331.0</ele>
        <time>2018-07-14T12:50:36Z</time>
      </trkpt>
      <trkpt lat="40.490833" lon="-5.248400">
        <ele>2330.0</ele>
        <time>2018-07-14T12:50:37Z</time>
      </trkpt>
      <trkpt lat="40.490933" lon="-5.248350">
        <ele>2329.0</ele>
        <time>2018-07-14T12:50:38Z</time>
      </trkpt>
      <trkpt lat="40.491033" lon="-5.248333">
        <ele>2328.0</ele>
        <time>2018-07-14T12:50:39Z</time>
      </trkpt>
      <trkpt lat="40.491117" lon="-5.248317">
        <ele>2327.0</ele>
        <time>2018-07-14T12:50:40Z</time>
      </trkpt>
      <trkpt lat="40.491217" lon="-5.248300">
        <ele>2325.0</ele>
        <time>2018-07-14T12:50:41Z</time>
      </trkpt>
      <trkpt lat="40.491317" lon="-5.248283">
        <ele>2323.0</ele>
        <time>2018-07-14T12:50:42Z</time>
      </trkpt>
      <trkpt lat="40.491400" lon="-5.248267">
        <ele>2322.0</ele>
        <time>2018-07-14T12:50:43Z</time>
      </trkpt>
      <trkpt lat="40.491500" lon="-5.248250">
        <ele>2320.0</ele>
        <time>2018-07-14T12:50:44Z</time>
      </trkpt>
      <trkpt lat="40.491600" lon="-5.248217">
        <ele>2318.0</ele>
        <time>2018-07-14T12:50:45Z</time>
      </trkpt>
      <trkpt lat="40.491683" lon="-5.248200">
        <ele>2321.0</ele>
        <time>2018-07-14T12:50:46Z</time>
      </trkpt>
      <trkpt lat="40.491783" lon="-5.248183">
        <ele>2321.0</ele>
        <time>2018-07-14T12:50:47Z</time>
      </trkpt>
      <trkpt lat="40.491867" lon="-5.248150">
        <ele>2319.0</ele>
        <time>2018-07-14T12:50:48Z</time>
      </trkpt>
      <trkpt lat="40.491950" lon="-5.248133">
        <ele>2319.0</ele>
        <time>2018-07-14T12:50:49Z</time>
      </trkpt>
      <trkpt lat="40.492033" lon="-5.248117">
        <ele>2319.0</ele>
        <time>2018-07-14T12:50:50Z</time>
      </trkpt>
      <trkpt lat="40.492133" lon="-5.248083">
        <ele>2318.0</ele>
        <time>2018-07-14T12:50:51Z</time>
      </trkpt>
      <trkpt lat="40.492217" lon="-5.248050">
        <ele>2318.0</ele>
        <time>2018-07-14T12:50:52Z</time>
      </trkpt>
      <trkpt lat="40.492317" lon="-5.248017">
        <ele>2317.0</ele>
        <time>2018-07-14T12:50:53Z</time>
      </trkpt>
      <trkpt lat="40.492417" lon="-5.247967">
        <ele>2316.0</ele>
        <time>2018-07-14T12:50:54Z</time>
      </trkpt>
      <trkpt lat="40.492500" lon="-5.247917">
        <ele>2313.0</ele>
        <time>2018-07-14T12:50:55Z</time>
      </trkpt>
      <trkpt lat="40.492567" lon="-5.247867">
        <ele>2309.0</ele>
        <time>2018-07-14T12:50:56Z</time>
      </trkpt>
      <trkpt lat="40.492650" lon="-5.247817">
        <ele>2307.0</ele>
        <time>2018-07-14T12:50:57Z</time>
      </trkpt>
      <trkpt lat="40.492733" lon="-5.247767">
        <ele>2303.0</ele>
        <time>2018-07-14T12:50:58Z</time>
      </trkpt>
      <trkpt lat="40.492833" lon="-5.247733">
        <ele>2300.0</ele>
        <time>2018-07-14T12:50:59Z</time>
      </trkpt>
      <trkpt lat="40.492917" lon="-5.247683">
        <ele>2296.0</ele>
        <time>2018-07-14T12:51:00Z</time>
      </trkpt>
      <trkpt lat="40.493017" lon="-5.247650">
        <ele>2292.0</ele>
        <time>2018-07-14T12:51:01Z</time>
      </trkpt>
      <trkpt lat="40.493117" lon="-5.247617">
        <ele>2288.0</ele>
        <time>2018-07-14T12:51:02Z</time>
      </trkpt>
      <trkpt lat="40.493200" lon="-5.247567">
        <ele>2283.0</ele>
        <time>2018-07-14T12:51:03Z</time>
      </trkpt>
      <trkpt lat="40.493300" lon="-5.247533">
        <ele>2279.0</ele>
        <time>2018-07-14T12:51:04Z</time>
      </trkpt>
      <trkpt lat="40.493400" lon="-5.247483">
        <ele>2275.0</ele>
        <time>2018-07-14T12:51:05Z</time>
      </trkpt>
      <trkpt lat="40.493483" lon="-5.247450">
        <ele>2271.0</ele>
        <time>2018-07-14T12:51:06Z</time>
      </trkpt>
      <trkpt lat="40.493583" lon="-5.247417">
        <ele>2267.0</ele>
        <time>2018-07-14T12:51:07Z</time>
      </trkpt>
      <trkpt lat="40.493683" lon="-5.247383">
        <ele>2263.0</ele>
        <time>2018-07-14T12:51:08Z</time>
      </trkpt>
      <trkpt lat="40.493783" lon="-5.247350">
        <ele>2259.0</ele>
        <time>2018-07-14T12:51:09Z</time>
      </trkpt>
      <trkpt lat="40.493883" lon="-5.247317">
        <ele>2255.0</ele>
        <time>2018-07-14T12:51:10Z</time>
      </trkpt>
      <trkpt lat="40.493983" lon="-5.247283">
        <ele>2252.0</ele>
        <time>2018-07-14T12:51:11Z</time>
      </trkpt>
      <trkpt lat="40.494067" lon="-5.247250">
        <ele>2249.0</ele>
        <time>2018-07-14T12:51:12Z</time>
      </trkpt>
      <trkpt lat="40.494167" lon="-5.247217">
        <ele>2246.0</ele>
        <time>2018-07-14T12:51:13Z</time>
      </trkpt>
      <trkpt lat="40.494250" lon="-5.247183">
        <ele>2243.0</ele>
        <time>2018-07-14T12:51:14Z</time>
      </trkpt>
      <trkpt lat="40.494367" lon="-5.247150">
        <ele>2240.0</ele>
        <time>2018-07-14T12:51:15Z</time>
      </trkpt>
      <trkpt lat="40.494467" lon="-5.247117">
        <ele>2237.0</ele>
        <time>2018-07-14T12:51:16Z</time>
      </trkpt>
      <trkpt lat="40.494567" lon="-5.247083">
        <ele>2235.0</ele>
        <time>2018-07-14T12:51:17Z</time>
      </trkpt>
      <trkpt lat="40.494667" lon="-5.247033">
        <ele>2233.0</ele>
        <time>2018-07-14T12:51:18Z</time>
      </trkpt>
      <trkpt lat="40.494750" lon="-5.247000">
        <ele>2230.0</ele>
        <time>2018-07-14T12:51:19Z</time>
      </trkpt>
      <trkpt lat="40.494833" lon="-5.246967">
        <ele>2228.0</ele>
        <time>2018-07-14T12:51:20Z</time>
      </trkpt>
      <trkpt lat="40.494933" lon="-5.246933">
        <ele>2225.0</ele>
        <time>2018-07-14T12:51:21Z</time>
      </trkpt>
      <trkpt lat="40.495050" lon="-5.246883">
        <ele>2223.0</ele>
        <time>2018-07-14T12:51:22Z</time>
      </trkpt>
      <trkpt lat="40.495150" lon="-5.246850">
        <ele>2220.0</ele>
        <time>2018-07-14T12:51:23Z</time>
      </trkpt>
      <trkpt lat="40.495233" lon="-5.246800">
        <ele>2218.0</ele>
        <time>2018-07-14T12:51:24Z</time>
      </trkpt>
      <trkpt lat="40.495333" lon="-5.246767">
        <ele>2216.0</ele>
        <time>2018-07-14T12:51:25Z</time>
      </trkpt>
      <trkpt lat="40.495417" lon="-5.246717">
        <ele>2214.0</ele>
        <time>2018-07-14T12:51:26Z</time>
      </trkpt>
      <trkpt lat="40.495517" lon="-5.246683">
        <ele>2212.0</ele>
        <time>2018-07-14T12:51:27Z</time>
      </trkpt>
      <trkpt lat="40.495617" lon="-5.246650">
        <ele>2210.0</ele>
        <time>2018-07-14T12:51:28Z</time>
      </trkpt>
      <trkpt lat="40.495717" lon="-5.246633">
        <ele>2208.0</ele>
        <time>2018-07-14T12:51:29Z</time>
      </trkpt>
      <trkpt lat="40.495800" lon="-5.246583">
        <ele>2206.0</ele>
        <time>2018-07-14T12:51:30Z</time>
      </trkpt>
      <trkpt lat="40.495883" lon="-5.246550">
        <ele>2204.0</ele>
        <time>2018-07-14T12:51:31Z</time>
      </trkpt>
      <trkpt lat="40.495967" lon="-5.246517">
        <ele>2203.0</ele>
        <time>2018-07-14T12:51:32Z</time>
      </trkpt>
      <trkpt lat="40.496050" lon="-5.246467">
        <ele>2201.0</ele>
        <time>2018-07-14T12:51:33Z</time>
      </trkpt>
      <trkpt lat="40.496233" lon="-5.246400">
        <ele>2197.0</ele>
        <time>2018-07-14T12:51:35Z</time>
      </trkpt>
      <trkpt lat="40.496333" lon="-5.246367">
        <ele>2194.0</ele>
        <time>2018-07-14T12:51:36Z</time>
      </trkpt>
      <trkpt lat="40.496417" lon="-5.246317">
        <ele>2193.0</ele>
        <time>2018-07-14T12:51:37Z</time>
      </trkpt>
      <trkpt lat="40.496500" lon="-5.246267">
        <ele>2192.0</ele>
        <time>2018-07-14T12:51:38Z</time>
      </trkpt>
      <trkpt lat="40.496667" lon="-5.246183">
        <ele>2189.0</ele>
        <time>2018-07-14T12:51:40Z</time>
      </trkpt>
      <trkpt lat="40.496750" lon="-5.246133">
        <ele>2187.0</ele>
        <time>2018-07-14T12:51:41Z</time>
      </trkpt>
      <trkpt lat="40.496850" lon="-5.246083">
        <ele>2184.0</ele>
        <time>2018-07-14T12:51:42Z</time>
      </trkpt>
      <trkpt lat="40.496950" lon="-5.246033">
        <ele>2182.0</ele>
        <time>2018-07-14T12:51:43Z</time>
      </trkpt>
      <trkpt lat="40.497117" lon="-5.245950">
        <ele>2179.0</ele>
        <time>2018-07-14T12:51:45Z</time>
      </trkpt>
      <trkpt lat="40.497200" lon="-5.245900">
        <ele>2178.0</ele>
        <time>2018-07-14T12:51:46Z</time>
      </trkpt>
      <trkpt lat="40.497283" lon="-5.245867">
        <ele>2176.0</ele>
        <time>2018-07-14T12:51:47Z</time>
      </trkpt>
      <trkpt lat="40.497383" lon="-5.245817">
        <ele>2174.0</ele>
        <time>2018-07-14T12:51:48Z</time>
      </trkpt>
      <trkpt lat="40.497483" lon="-5.245767">
        <ele>2172.0</ele>
        <time>2018-07-14T12:51:49Z</time>
      </trkpt>
      <trkpt lat="40.497567" lon="-5.245717">
        <ele>2170.0</ele>
        <time>2018-07-14T12:51:50Z</time>
      </trkpt>
      <trkpt lat="40.497667" lon="-5.245667">
        <ele>2169.0</ele>
        <time>2018-07-14T12:51:51Z</time>
      </trkpt>
      <trkpt lat="40.497750" lon="-5.245617">
        <ele>2169.0</ele>
        <time>2018-07-14T12:51:52Z</time>
      </trkpt>
      <trkpt lat="40.497833" lon="-5.245583">
        <ele>2168.0</ele>
        <time>2018-07-14T12:51:53Z</time>
      </trkpt>
      <trkpt lat="40.497917" lon="-5.245533">
        <ele>2166.0</ele>
        <time>2018-07-14T12:51:54Z</time>
      </trkpt>
      <trkpt lat="40.498017" lon="-5.245483">
        <ele>2165.0</ele>
        <time>2018-07-14T12:51:55Z</time>
      </trkpt>
      <trkpt lat="40.498100" lon="-5.245433">
        <ele>2164.0</ele>
        <time>2018-07-14T12:51:56Z</time>
      </trkpt>
      <trkpt lat="40.498183" lon="-5.245383">
        <ele>2163.0</ele>
        <time>2018-07-14T12:51:57Z</time>
      </trkpt>
      <trkpt lat="40.498267" lon="-5.245333">
        <ele>2162.0</ele>
        <time>2018-07-14T12:51:58Z</time>
      </trkpt>
      <trkpt lat="40.498367" lon="-5.245300">
        <ele>2161.0</ele>
        <time>2018-07-14T12:51:59Z</time>
      </trkpt>
      <trkpt lat="40.498467" lon="-5.245250">
        <ele>2160.0</ele>
        <time>2018-07-14T12:52:00Z</time>
      </trkpt>
      <trkpt lat="40.498567" lon="-5.245217">
        <ele>2158.0</ele>
        <time>2018-07-14T12:52:01Z</time>
      </trkpt>
      <trkpt lat="40.498650" lon="-5.245167">
        <ele>2157.0</ele>
        <time>2018-07-14T12:52:02Z</time>
      </trkpt>
      <trkpt lat="40.498750" lon="-5.245100">
        <ele>2157.0</ele>
        <time>2018-07-14T12:52:03Z</time>
      </trkpt>
      <trkpt lat="40.498833" lon="-5.245050">
        <ele>2156.0</ele>
        <time>2018-07-14T12:52:04Z</time>
      </trkpt>
      <trkpt lat="40.498933" lon="-5.244983">
        <ele>2156.0</ele>
        <time>2018-07-14T12:52:05Z</time>
      </trkpt>
      <trkpt lat="40.499017" lon="-5.244933">
        <ele>2155.0</ele>
        <time>2018-07-14T12:52:06Z</time>
      </trkpt>
      <trkpt lat="40.499117" lon="-5.244883">
        <ele>2154.0</ele>
        <time>2018-07-14T12:52:07Z</time>
      </trkpt>
      <trkpt lat="40.499217" lon="-5.244833">
        <ele>2153.0</ele>
        <time>2018-07-14T12:52:08Z</time>
      </trkpt>
      <trkpt lat="40.499317" lon="-5.244767">
        <ele>2151.0</ele>
        <time>2018-07-14T12:52:09Z</time>
      </trkpt>
      <trkpt lat="40.499417" lon="-5.244700">
        <ele>2149.0</ele>
        <time>2018-07-14T12:52:10Z</time>
      </trkpt>
      <trkpt lat="40.499500" lon="-5.244633">
        <ele>2148.0</ele>
        <time>2018-07-14T12:52:11Z</time>
      </trkpt>
      <trkpt lat="40.499583" lon="-5.244583">
        <ele>2147.0</ele>
        <time>2018-07-14T12:52:12Z</time>
      </trkpt>
      <trkpt lat="40.499650" lon="-5.244533">
        <ele>2147.0</ele>
        <time>2018-07-14T12:52:13Z</time>
      </trkpt>
      <trkpt lat="40.499733" lon="-5.244483">
        <ele>2146.0</ele>
        <time>2018-07-14T12:52:14Z</time>
      </trkpt>
      <trkpt lat="40.499817" lon="-5.244433">
        <ele>2144.0</ele>
        <time>2018-07-14T12:52:15Z</time>
      </trkpt>
      <trkpt lat="40.499900" lon="-5.244367">
        <ele>2142.0</ele>
        <time>2018-07-14T12:52:16Z</time>
      </trkpt>
      <trkpt lat="40.500017" lon="-5.244283">
        <ele>2140.0</ele>
        <time>2018-07-14T12:52:17Z</time>
      </trkpt>
      <trkpt lat="40.500117" lon="-5.244217">
        <ele>2139.0</ele>
        <time>2018-07-14T12:52:18Z</time>
      </trkpt>
      <trkpt lat="40.500217" lon="-5.244167">
        <ele>2139.0</ele>
        <time>2018-07-14T12:52:19Z</time>
      </trkpt>
      <trkpt lat="40.500283" lon="-5.244117">
        <ele>2139.0</ele>
        <time>2018-07-14T12:52:20Z</time>
      </trkpt>
      <trkpt lat="40.500367" lon="-5.244083">
        <ele>2139.0</ele>
        <time>2018-07-14T12:52:21Z</time>
      </trkpt>
      <trkpt lat="40.500450" lon="-5.244033">
        <ele>2138.0</ele>
        <time>2018-07-14T12:52:22Z</time>
      </trkpt>
      <trkpt lat="40.500550" lon="-5.243967">
        <ele>2136.0</ele>
        <time>2018-07-14T12:52:23Z</time>
      </trkpt>
      <trkpt lat="40.500650" lon="-5.243917">
        <ele>2134.0</ele>
        <time>2018-07-14T12:52:24Z</time>
      </trkpt>
      <trkpt lat="40.500750" lon="-5.243850">
        <ele>2133.0</ele>
        <time>2018-07-14T12:52:25Z</time>
      </trkpt>
      <trkpt lat="40.500833" lon="-5.243800">
        <ele>2131.0</ele>
        <time>2018-07-14T12:52:26Z</time>
      </trkpt>
      <trkpt lat="40.500933" lon="-5.243750">
        <ele>2129.0</ele>
        <time>2018-07-14T12:52:27Z</time>
      </trkpt>
      <trkpt lat="40.501017" lon="-5.243700">
        <ele>2127.0</ele>
        <time>2018-07-14T12:52:28Z</time>
      </trkpt>
      <trkpt lat="40.501117" lon="-5.243633">
        <ele>2123.0</ele>
        <time>2018-07-14T12:52:29Z</time>
      </trkpt>
      <trkpt lat="40.501233" lon="-5.243583">
        <ele>2120.0</ele>
        <time>2018-07-14T12:52:30Z</time>
      </trkpt>
      <trkpt lat="40.501333" lon="-5.243517">
        <ele>2118.0</ele>
        <time>2018-07-14T12:52:31Z</time>
      </trkpt>
      <trkpt lat="40.501433" lon="-5.243450">
        <ele>2118.0</ele>
        <time>2018-07-14T12:52:32Z</time>
      </trkpt>
      <trkpt lat="40.501533" lon="-5.243400">
        <ele>2119.0</ele>
        <time>2018-07-14T12:52:33Z</time>
      </trkpt>
      <trkpt lat="40.501617" lon="-5.243350">
        <ele>2119.0</ele>
        <time>2018-07-14T12:52:34Z</time>
      </trkpt>
      <trkpt lat="40.501717" lon="-5.243300">
        <ele>2118.0</ele>
        <time>2018-07-14T12:52:35Z</time>
      </trkpt>
      <trkpt lat="40.501833" lon="-5.243250">
        <ele>2117.0</ele>
        <time>2018-07-14T12:52:36Z</time>
      </trkpt>
      <trkpt lat="40.501933" lon="-5.243183">
        <ele>2116.0</ele>
        <time>2018-07-14T12:52:37Z</time>
      </trkpt>
      <trkpt lat="40.502050" lon="-5.243133">
        <ele>2115.0</ele>
        <time>2018-07-14T12:52:38Z</time>
      </trkpt>
      <trkpt lat="40.502150" lon="-5.243083">
        <ele>2114.0</ele>
        <time>2018-07-14T12:52:39Z</time>
      </trkpt>
      <trkpt lat="40.502250" lon="-5.243033">
        <ele>2114.0</ele>
        <time>2018-07-14T12:52:40Z</time>
      </trkpt>
      <trkpt lat="40.502350" lon="-5.242983">
        <ele>2113.0</ele>
        <time>2018-07-14T12:52:41Z</time>
      </trkpt>
      <trkpt lat="40.502467" lon="-5.242933">
        <ele>2112.0</ele>
        <time>2018-07-14T12:52:42Z</time>
      </trkpt>
      <trkpt lat="40.502583" lon="-5.242883">
        <ele>2111.0</ele>
        <time>2018-07-14T12:52:43Z</time>
      </trkpt>
      <trkpt lat="40.502683" lon="-5.242817">
        <ele>2110.0</ele>
        <time>2018-07-14T12:52:44Z</time>
      </trkpt>
      <trkpt lat="40.502783" lon="-5.242767">
        <ele>2110.0</ele>
        <time>2018-07-14T12:52:45Z</time>
      </trkpt>
      <trkpt lat="40.502883" lon="-5.242700">
        <ele>2109.0</ele>
        <time>2018-07-14T12:52:46Z</time>
      </trkpt>
      <trkpt lat="40.503000" lon="-5.242650">
        <ele>2109.0</ele>
        <time>2018-07-14T12:52:47Z</time>
      </trkpt>
      <trkpt lat="40.503100" lon="-5.242583">
        <ele>2108.0</ele>
        <time>2018-07-14T12:52:48Z</time>
      </trkpt>
      <trkpt lat="40.503200" lon="-5.242533">
        <ele>2107.0</ele>
        <time>2018-07-14T12:52:49Z</time>
      </trkpt>
      <trkpt lat="40.503300" lon="-5.242467">
        <ele>2107.0</ele>
        <time>2018-07-14T12:52:50Z</time>
      </trkpt>
      <trkpt lat="40.503400" lon="-5.242400">
        <ele>2105.0</ele>
        <time>2018-07-14T12:52:51Z</time>
      </trkpt>
      <trkpt lat="40.503500" lon="-5.242317">
        <ele>2105.0</ele>
        <time>2018-07-14T12:52:52Z</time>
      </trkpt>
      <trkpt lat="40.503583" lon="-5.242267">
        <ele>2104.0</ele>
        <time>2018-07-14T12:52:53Z</time>
      </trkpt>
      <trkpt lat="40.503667" lon="-5.242200">
        <ele>2104.0</ele>
        <time>2018-07-14T12:52:54Z</time>
      </trkpt>
      <trkpt lat="40.503750" lon="-5.242150">
        <ele>2104.0</ele>
        <time>2018-07-14T12:52:55Z</time>
      </trkpt>
      <trkpt lat="40.503833" lon="-5.242100">
        <ele>2102.0</ele>
        <time>2018-07-14T12:52:56Z</time>
      </trkpt>
      <trkpt lat="40.503917" lon="-5.242033">
        <ele>2100.0</ele>
        <time>2018-07-14T12:52:57Z</time>
      </trkpt>
      <trkpt lat="40.504017" lon="-5.241983">
        <ele>2098.0</ele>
        <time>2018-07-14T12:52:58Z</time>
      </trkpt>
      <trkpt lat="40.504117" lon="-5.241917">
        <ele>2096.0</ele>
        <time>2018-07-14T12:52:59Z</time>
      </trkpt>
      <trkpt lat="40.504200" lon="-5.241850">
        <ele>2095.0</ele>
        <time>2018-07-14T12:53:00Z</time>
      </trkpt>
      <trkpt lat="40.504283" lon="-5.241783">
        <ele>2094.0</ele>
        <time>2018-07-14T12:53:01Z</time>
      </trkpt>
      <trkpt lat="40.504367" lon="-5.241717">
        <ele>2093.0</ele>
        <time>2018-07-14T12:53:02Z</time>
      </trkpt>
      <trkpt lat="40.504467" lon="-5.241650">
        <ele>2091.0</ele>
        <time>2018-07-14T12:53:03Z</time>
      </trkpt>
      <trkpt lat="40.504567" lon="-5.241583">
        <ele>2090.0</ele>
        <time>2018-07-14T12:53:04Z</time>
      </trkpt>
      <trkpt lat="40.504650" lon="-5.241517">
        <ele>2088.0</ele>
        <time>2018-07-14T12:53:05Z</time>
      </trkpt>
      <trkpt lat="40.504733" lon="-5.241450">
        <ele>2088.0</ele>
        <time>2018-07-14T12:53:06Z</time>
      </trkpt>
      <trkpt lat="40.504800" lon="-5.241400">
        <ele>2088.0</ele>
        <time>2018-07-14T12:53:07Z</time>
      </trkpt>
      <trkpt lat="40.504883" lon="-5.241333">
        <ele>2087.0</ele>
        <time>2018-07-14T12:53:08Z</time>
      </trkpt>
      <trkpt lat="40.504983" lon="-5.241250">
        <ele>2085.0</ele>
        <time>2018-07-14T12:53:09Z</time>
      </trkpt>
      <trkpt lat="40.505083" lon="-5.241183">
        <ele>2083.0</ele>
        <time>2018-07-14T12:53:10Z</time>
      </trkpt>
      <trkpt lat="40.505183" lon="-5.241100">
        <ele>2083.0</ele>
        <time>2018-07-14T12:53:11Z</time>
      </trkpt>
      <trkpt lat="40.505283" lon="-5.241050">
        <ele>2084.0</ele>
        <time>2018-07-14T12:53:12Z</time>
      </trkpt>
      <trkpt lat="40.505383" lon="-5.241017">
        <ele>2086.0</ele>
        <time>2018-07-14T12:53:13Z</time>
      </trkpt>
      <trkpt lat="40.505467" lon="-5.240983">
        <ele>2087.0</ele>
        <time>2018-07-14T12:53:14Z</time>
      </trkpt>
      <trkpt lat="40.505550" lon="-5.240933">
        <ele>2088.0</ele>
        <time>2018-07-14T12:53:15Z</time>
      </trkpt>
      <trkpt lat="40.505633" lon="-5.240867">
        <ele>2089.0</ele>
        <time>2018-07-14T12:53:16Z</time>
      </trkpt>
      <trkpt lat="40.505700" lon="-5.240800">
        <ele>2088.0</ele>
        <time>2018-07-14T12:53:17Z</time>
      </trkpt>
      <trkpt lat="40.505783" lon="-5.240750">
        <ele>2089.0</ele>
        <time>2018-07-14T12:53:18Z</time>
      </trkpt>
      <trkpt lat="40.505867" lon="-5.240683">
        <ele>2088.0</ele>
        <time>2018-07-14T12:53:19Z</time>
      </trkpt>
      <trkpt lat="40.505967" lon="-5.240633">
        <ele>2087.0</ele>
        <time>2018-07-14T12:53:20Z</time>
      </trkpt>
      <trkpt lat="40.506067" lon="-5.240567">
        <ele>2087.0</ele>
        <time>2018-07-14T12:53:21Z</time>
      </trkpt>
      <trkpt lat="40.506167" lon="-5.240500">
        <ele>2088.0</ele>
        <time>2018-07-14T12:53:22Z</time>
      </trkpt>
      <trkpt lat="40.506267" lon="-5.240450">
        <ele>2088.0</ele>
        <time>2018-07-14T12:53:23Z</time>
      </trkpt>
      <trkpt lat="40.506350" lon="-5.240383">
        <ele>2089.0</ele>
        <time>2018-07-14T12:53:24Z</time>
      </trkpt>
      <trkpt lat="40.506450" lon="-5.240333">
        <ele>2090.0</ele>
        <time>2018-07-14T12:53:25Z</time>
      </trkpt>
      <trkpt lat="40.506533" lon="-5.240283">
        <ele>2090.0</ele>
        <time>2018-07-14T12:53:26Z</time>
      </trkpt>
      <trkpt lat="40.506633" lon="-5.240233">
        <ele>2090.0</ele>
        <time>2018-07-14T12:53:27Z</time>
      </trkpt>
      <trkpt lat="40.506733" lon="-5.240167">
        <ele>2090.0</ele>
        <time>2018-07-14T12:53:28Z</time>
      </trkpt>
      <trkpt lat="40.506833" lon="-5.240117">
        <ele>2089.0</ele>
        <time>2018-07-14T12:53:29Z</time>
      </trkpt>
      <trkpt lat="40.507033" lon="-5.240000">
        <ele>2088.0</ele>
        <time>2018-07-14T12:53:31Z</time>
      </trkpt>
      <trkpt lat="40.507150" lon="-5.239933">
        <ele>2087.0</ele>
        <time>2018-07-14T12:53:32Z</time>
      </trkpt>
      <trkpt lat="40.507250" lon="-5.239867">
        <ele>2085.0</ele>
        <time>2018-07-14T12:53:33Z</time>
      </trkpt>
      <trkpt lat="40.507350" lon="-5.239783">
        <ele>2084.0</ele>
        <time>2018-07-14T12:53:34Z</time>
      </trkpt>
      <trkpt lat="40.507433" lon="-5.239717">
        <ele>2083.0</ele>
        <time>2018-07-14T12:53:35Z</time>
      </trkpt>
      <trkpt lat="40.507517" lon="-5.239667">
        <ele>2083.0</ele>
        <time>2018-07-14T12:53:36Z</time>
      </trkpt>
      <trkpt lat="40.507617" lon="-5.239617">
        <ele>2084.0</ele>
        <time>2018-07-14T12:53:37Z</time>
      </trkpt>
      <trkpt lat="40.507700" lon="-5.239567">
        <ele>2084.0</ele>
        <time>2018-07-14T12:53:38Z</time>
      </trkpt>
      <trkpt lat="40.507783" lon="-5.239500">
        <ele>2083.0</ele>
        <time>2018-07-14T12:53:39Z</time>
      </trkpt>
      <trkpt lat="40.507867" lon="-5.239417">
        <ele>2082.0</ele>
        <time>2018-07-14T12:53:40Z</time>
      </trkpt>
      <trkpt lat="40.507950" lon="-5.239333">
        <ele>2082.0</ele>
        <time>2018-07-14T12:53:41Z</time>
      </trkpt>
      <trkpt lat="40.508033" lon="-5.239250">
        <ele>2081.0</ele>
        <time>2018-07-14T12:53:42Z</time>
      </trkpt>
      <trkpt lat="40.508117" lon="-5.239167">
        <ele>2081.0</ele>
        <time>2018-07-14T12:53:43Z</time>
      </trkpt>
      <trkpt lat="40.508183" lon="-5.239067">
        <ele>2080.0</ele>
        <time>2018-07-14T12:53:44Z</time>
      </trkpt>
      <trkpt lat="40.508267" lon="-5.238967">
        <ele>2079.0</ele>
        <time>2018-07-14T12:53:45Z</time>
      </trkpt>
      <trkpt lat="40.508367" lon="-5.238850">
        <ele>2078.0</ele>
        <time>2018-07-14T12:53:46Z</time>
      </trkpt>
      <trkpt lat="40.508467" lon="-5.238767">
        <ele>2076.0</ele>
        <time>2018-07-14T12:53:47Z</time>
      </trkpt>
      <trkpt lat="40.508567" lon="-5.238683">
        <ele>2076.0</ele>
        <time>2018-07-14T12:53:48Z</time>
      </trkpt>
      <trkpt lat="40.508667" lon="-5.238617">
        <ele>2075.0</ele>
        <time>2018-07-14T12:53:49Z</time>
      </trkpt>
      <trkpt lat="40.508767" lon="-5.238550">
        <ele>2074.0</ele>
        <time>2018-07-14T12:53:50Z</time>
      </trkpt>
      <trkpt lat="40.508850" lon="-5.238483">
        <ele>2072.0</ele>
        <time>2018-07-14T12:53:51Z</time>
      </trkpt>
      <trkpt lat="40.508950" lon="-5.238400">
        <ele>2069.0</ele>
        <time>2018-07-14T12:53:52Z</time>
      </trkpt>
      <trkpt lat="40.509050" lon="-5.238317">
        <ele>2067.0</ele>
        <time>2018-07-14T12:53:53Z</time>
      </trkpt>
      <trkpt lat="40.509150" lon="-5.238233">
        <ele>2065.0</ele>
        <time>2018-07-14T12:53:54Z</time>
      </trkpt>
      <trkpt lat="40.509233" lon="-5.238150">
        <ele>2064.0</ele>
        <time>2018-07-14T12:53:55Z</time>
      </trkpt>
      <trkpt lat="40.509333" lon="-5.238083">
        <ele>2063.0</ele>
        <time>2018-07-14T12:53:56Z</time>
      </trkpt>
      <trkpt lat="40.509417" lon="-5.238017">
        <ele>2063.0</ele>
        <time>2018-07-14T12:53:57Z</time>
      </trkpt>
      <trkpt lat="40.509600" lon="-5.237867">
        <ele>2059.0</ele>
        <time>2018-07-14T12:53:59Z</time>
      </trkpt>
      <trkpt lat="40.509700" lon="-5.237783">
        <ele>2058.0</ele>
        <time>2018-07-14T12:54:00Z</time>
      </trkpt>
      <trkpt lat="40.509817" lon="-5.237717">
        <ele>2056.0</ele>
        <time>2018-07-14T12:54:01Z</time>
      </trkpt>
      <trkpt lat="40.509917" lon="-5.237650">
        <ele>2055.0</ele>
        <time>2018-07-14T12:54:02Z</time>
      </trkpt>
      <trkpt lat="40.510017" lon="-5.237583">
        <ele>2053.0</ele>
        <time>2018-07-14T12:54:03Z</time>
      </trkpt>
      <trkpt lat="40.510300" lon="-5.237350">
        <ele>2048.0</ele>
        <time>2018-07-14T12:54:06Z</time>
      </trkpt>
      <trkpt lat="40.510383" lon="-5.237267">
        <ele>2046.0</ele>
        <time>2018-07-14T12:54:07Z</time>
      </trkpt>
      <trkpt lat="40.510483" lon="-5.237183">
        <ele>2045.0</ele>
        <time>2018-07-14T12:54:08Z</time>
      </trkpt>
      <trkpt lat="40.510567" lon="-5.237083">
        <ele>2043.0</ele>
        <time>2018-07-14T12:54:09Z</time>
      </trkpt>
      <trkpt lat="40.510667" lon="-5.236983">
        <ele>2041.0</ele>
        <time>2018-07-14T12:54:10Z</time>
      </trkpt>
      <trkpt lat="40.510750" lon="-5.236900">
        <ele>2040.0</ele>
        <time>2018-07-14T12:54:11Z</time>
      </trkpt>
      <trkpt lat="40.510850" lon="-5.236800">
        <ele>2038.0</ele>
        <time>2018-07-14T12:54:12Z</time>
      </trkpt>
      <trkpt lat="40.510950" lon="-5.236700">
        <ele>2036.0</ele>
        <time>2018-07-14T12:54:13Z</time>
      </trkpt>
      <trkpt lat="40.511033" lon="-5.236600">
        <ele>2034.0</ele>
        <time>2018-07-14T12:54:14Z</time>
      </trkpt>
      <trkpt lat="40.511117" lon="-5.236500">
        <ele>2032.0</ele>
        <time>2018-07-14T12:54:15Z</time>
      </trkpt>
      <trkpt lat="40.511200" lon="-5.236400">
        <ele>2031.0</ele>
        <time>2018-07-14T12:54:16Z</time>
      </trkpt>
      <trkpt lat="40.511283" lon="-5.236300">
        <ele>2029.0</ele>
        <time>2018-07-14T12:54:17Z</time>
      </trkpt>
      <trkpt lat="40.511367" lon="-5.236200">
        <ele>2028.0</ele>
        <time>2018-07-14T12:54:18Z</time>
      </trkpt>
      <trkpt lat="40.511467" lon="-5.236100">
        <ele>2026.0</ele>
        <time>2018-07-14T12:54:19Z</time>
      </trkpt>
      <trkpt lat="40.511567" lon="-5.236000">
        <ele>2024.0</ele>
        <time>2018-07-14T12:54:20Z</time>
      </trkpt>
      <trkpt lat="40.511650" lon="-5.235917">
        <ele>2023.0</ele>
        <time>2018-07-14T12:54:21Z</time>
      </trkpt>
      <trkpt lat="40.511750" lon="-5.235833">
        <ele>2022.0</ele>
        <time>2018-07-14T12:54:22Z</time>
      </trkpt>
      <trkpt lat="40.511850" lon="-5.235750">
        <ele>2021.0</ele>
        <time>2018-07-14T12:54:23Z</time>
      </trkpt>
      <trkpt lat="40.511950" lon="-5.235683">
        <ele>2021.0</ele>
        <time>2018-07-14T12:54:24Z</time>
      </trkpt>
      <trkpt lat="40.512050" lon="-5.235600">
        <ele>2020.0</ele>
        <time>2018-07-14T12:54:25Z</time>
      </trkpt>
      <trkpt lat="40.512150" lon="-5.235533">
        <ele>2019.0</ele>
        <time>2018-07-14T12:54:26Z</time>
      </trkpt>
      <trkpt lat="40.512250" lon="-5.235450">
        <ele>2018.0</ele>
        <time>2018-07-14T12:54:27Z</time>
      </trkpt>
      <trkpt lat="40.512350" lon="-5.235367">
        <ele>2018.0</ele>
        <time>2018-07-14T12:54:28Z</time>
      </trkpt>
      <trkpt lat="40.512433" lon="-5.235283">
        <ele>2017.0</ele>
        <time>2018-07-14T12:54:29Z</time>
      </trkpt>
      <trkpt lat="40.512533" lon="-5.235200">
        <ele>2016.0</ele>
        <time>2018-07-14T12:54:30Z</time>
      </trkpt>
      <trkpt lat="40.512617" lon="-5.235117">
        <ele>2016.0</ele>
        <time>2018-07-14T12:54:31Z</time>
      </trkpt>
      <trkpt lat="40.512700" lon="-5.235033">
        <ele>2014.0</ele>
        <time>2018-07-14T12:54:32Z</time>
      </trkpt>
      <trkpt lat="40.512783" lon="-5.234933">
        <ele>2012.0</ele>
        <time>2018-07-14T12:54:33Z</time>
      </trkpt>
      <trkpt lat="40.512867" lon="-5.234833">
        <ele>2010.0</ele>
        <time>2018-07-14T12:54:34Z</time>
      </trkpt>
      <trkpt lat="40.512950" lon="-5.234733">
        <ele>2008.0</ele>
        <time>2018-07-14T12:54:35Z</time>
      </trkpt>
      <trkpt lat="40.513017" lon="-5.234650">
        <ele>2007.0</ele>
        <time>2018-07-14T12:54:36Z</time>
      </trkpt>
      <trkpt lat="40.513100" lon="-5.234567">
        <ele>2006.0</ele>
        <time>2018-07-14T12:54:37Z</time>
      </trkpt>
      <trkpt lat="40.513183" lon="-5.234483">
        <ele>2005.0</ele>
        <time>2018-07-14T12:54:38Z</time>
      </trkpt>
      <trkpt lat="40.513250" lon="-5.234383">
        <ele>2003.0</ele>
        <time>2018-07-14T12:54:39Z</time>
      </trkpt>
      <trkpt lat="40.513333" lon="-5.234300">
        <ele>2001.0</ele>
        <time>2018-07-14T12:54:40Z</time>
      </trkpt>
      <trkpt lat="40.513417" lon="-5.234200">
        <ele>2000.0</ele>
        <time>2018-07-14T12:54:41Z</time>
      </trkpt>
      <trkpt lat="40.513517" lon="-5.234117">
        <ele>1999.0</ele>
        <time>2018-07-14T12:54:42Z</time>
      </trkpt>
      <trkpt lat="40.513617" lon="-5.234017">
        <ele>1997.0</ele>
        <time>2018-07-14T12:54:43Z</time>
      </trkpt>
      <trkpt lat="40.513717" lon="-5.233933">
        <ele>1996.0</ele>
        <time>2018-07-14T12:54:44Z</time>
      </trkpt>
      <trkpt lat="40.513833" lon="-5.233867">
        <ele>1996.0</ele>
        <time>2018-07-14T12:54:45Z</time>
      </trkpt>
      <trkpt lat="40.513950" lon="-5.233800">
        <ele>1996.0</ele>
        <time>2018-07-14T12:54:46Z</time>
      </trkpt>
      <trkpt lat="40.514050" lon="-5.233733">
        <ele>1997.0</ele>
        <time>2018-07-14T12:54:47Z</time>
      </trkpt>
      <trkpt lat="40.514167" lon="-5.233667">
        <ele>1997.0</ele>
        <time>2018-07-14T12:54:48Z</time>
      </trkpt>
      <trkpt lat="40.514283" lon="-5.233567">
        <ele>1998.0</ele>
        <time>2018-07-14T12:54:49Z</time>
      </trkpt>
      <trkpt lat="40.514383" lon="-5.233450">
        <ele>1999.0</ele>
        <time>2018-07-14T12:54:50Z</time>
      </trkpt>
      <trkpt lat="40.514500" lon="-5.233333">
        <ele>2000.0</ele>
        <time>2018-07-14T12:54:51Z</time>
      </trkpt>
      <trkpt lat="40.514600" lon="-5.233250">
        <ele>2002.0</ele>
        <time>2018-07-14T12:54:52Z</time>
      </trkpt>
      <trkpt lat="40.514700" lon="-5.233167">
        <ele>2004.0</ele>
        <time>2018-07-14T12:54:53Z</time>
      </trkpt>
      <trkpt lat="40.514800" lon="-5.233100">
        <ele>2006.0</ele>
        <time>2018-07-14T12:54:54Z</time>
      </trkpt>
      <trkpt lat="40.514883" lon="-5.233017">
        <ele>2005.0</ele>
        <time>2018-07-14T12:54:55Z</time>
      </trkpt>
      <trkpt lat="40.515000" lon="-5.232933">
        <ele>2004.0</ele>
        <time>2018-07-14T12:54:56Z</time>
      </trkpt>
      <trkpt lat="40.515100" lon="-5.232833">
        <ele>2001.0</ele>
        <time>2018-07-14T12:54:57Z</time>
      </trkpt>
      <trkpt lat="40.515200" lon="-5.232750">
        <ele>1997.0</ele>
        <time>2018-07-14T12:54:58Z</time>
      </trkpt>
      <trkpt lat="40.515300" lon="-5.232650">
        <ele>1995.0</ele>
        <time>2018-07-14T12:54:59Z</time>
      </trkpt>
      <trkpt lat="40.515383" lon="-5.232550">
        <ele>1992.0</ele>
        <time>2018-07-14T12:55:00Z</time>
      </trkpt>
      <trkpt lat="40.515483" lon="-5.232433">
        <ele>1989.0</ele>
        <time>2018-07-14T12:55:01Z</time>
      </trkpt>
      <trkpt lat="40.515567" lon="-5.232300">
        <ele>1986.0</ele>
        <time>2018-07-14T12:55:02Z</time>
      </trkpt>
      <trkpt lat="40.515650" lon="-5.232167">
        <ele>1984.0</ele>
        <time>2018-07-14T12:55:03Z</time>
      </trkpt>
      <trkpt lat="40.515733" lon="-5.232033">
        <ele>1983.0</ele>
        <time>2018-07-14T12:55:04Z</time>
      </trkpt>
      <trkpt lat="40.515817" lon="-5.231933">
        <ele>1982.0</ele>
        <time>2018-07-14T12:55:05Z</time>
      </trkpt>
      <trkpt lat="40.515900" lon="-5.231817">
        <ele>1981.0</ele>
        <time>2018-07-14T12:55:06Z</time>
      </trkpt>
      <trkpt lat="40.515983" lon="-5.231733">
        <ele>1981.0</ele>
        <time>2018-07-14T12:55:07Z</time>
      </trkpt>
      <trkpt lat="40.516050" lon="-5.231633">
        <ele>1980.0</ele>
        <time>2018-07-14T12:55:08Z</time>
      </trkpt>
      <trkpt lat="40.516133" lon="-5.231550">
        <ele>1979.0</ele>
        <time>2018-07-14T12:55:09Z</time>
      </trkpt>
      <trkpt lat="40.516233" lon="-5.231450">
        <ele>1978.0</ele>
        <time>2018-07-14T12:55:10Z</time>
      </trkpt>
      <trkpt lat="40.516300" lon="-5.231367">
        <ele>1978.0</ele>
        <time>2018-07-14T12:55:11Z</time>
      </trkpt>
      <trkpt lat="40.516383" lon="-5.231283">
        <ele>1978.0</ele>
        <time>2018-07-14T12:55:12Z</time>
      </trkpt>
      <trkpt lat="40.516467" lon="-5.231217">
        <ele>1977.0</ele>
        <time>2018-07-14T12:55:13Z</time>
      </trkpt>
      <trkpt lat="40.516533" lon="-5.231117">
        <ele>1977.0</ele>
        <time>2018-07-14T12:55:14Z</time>
      </trkpt>
      <trkpt lat="40.516617" lon="-5.231017">
        <ele>1976.0</ele>
        <time>2018-07-14T12:55:15Z</time>
      </trkpt>
      <trkpt lat="40.516683" lon="-5.230900">
        <ele>1975.0</ele>
        <time>2018-07-14T12:55:16Z</time>
      </trkpt>
      <trkpt lat="40.516783" lon="-5.230800">
        <ele>1974.0</ele>
        <time>2018-07-14T12:55:17Z</time>
      </trkpt>
      <trkpt lat="40.516883" lon="-5.230717">
        <ele>1974.0</ele>
        <time>2018-07-14T12:55:18Z</time>
      </trkpt>
      <trkpt lat="40.516983" lon="-5.230633">
        <ele>1975.0</ele>
        <time>2018-07-14T12:55:19Z</time>
      </trkpt>
      <trkpt lat="40.517050" lon="-5.230533">
        <ele>1976.0</ele>
        <time>2018-07-14T12:55:20Z</time>
      </trkpt>
      <trkpt lat="40.517100" lon="-5.230417">
        <ele>1976.0</ele>
        <time>2018-07-14T12:55:21Z</time>
      </trkpt>
      <trkpt lat="40.517167" lon="-5.230300">
        <ele>1976.0</ele>
        <time>2018-07-14T12:55:22Z</time>
      </trkpt>
      <trkpt lat="40.517233" lon="-5.230183">
        <ele>1975.0</ele>
        <time>2018-07-14T12:55:23Z</time>
      </trkpt>
      <trkpt lat="40.517317" lon="-5.230100">
        <ele>1975.0</ele>
        <time>2018-07-14T12:55:24Z</time>
      </trkpt>
      <trkpt lat="40.517400" lon="-5.230017">
        <ele>1974.0</ele>
        <time>2018-07-14T12:55:25Z</time>
      </trkpt>
      <trkpt lat="40.517483" lon="-5.229933">
        <ele>1974.0</ele>
        <time>2018-07-14T12:55:26Z</time>
      </trkpt>
      <trkpt lat="40.517567" lon="-5.229833">
        <ele>1974.0</ele>
        <time>2018-07-14T12:55:27Z</time>
      </trkpt>
      <trkpt lat="40.517650" lon="-5.229733">
        <ele>1973.0</ele>
        <time>2018-07-14T12:55:28Z</time>
      </trkpt>
      <trkpt lat="40.517733" lon="-5.229633">
        <ele>1972.0</ele>
        <time>2018-07-14T12:55:29Z</time>
      </trkpt>
      <trkpt lat="40.517833" lon="-5.229533">
        <ele>1971.0</ele>
        <time>2018-07-14T12:55:30Z</time>
      </trkpt>
      <trkpt lat="40.517917" lon="-5.229450">
        <ele>1970.0</ele>
        <time>2018-07-14T12:55:31Z</time>
      </trkpt>
      <trkpt lat="40.518017" lon="-5.229367">
        <ele>1969.0</ele>
        <time>2018-07-14T12:55:32Z</time>
      </trkpt>
      <trkpt lat="40.518117" lon="-5.229283">
        <ele>1969.0</ele>
        <time>2018-07-14T12:55:33Z</time>
      </trkpt>
      <trkpt lat="40.518217" lon="-5.229183">
        <ele>1968.0</ele>
        <time>2018-07-14T12:55:34Z</time>
      </trkpt>
      <trkpt lat="40.518300" lon="-5.229100">
        <ele>1968.0</ele>
        <time>2018-07-14T12:55:35Z</time>
      </trkpt>
      <trkpt lat="40.518400" lon="-5.229017">
        <ele>1968.0</ele>
        <time>2018-07-14T12:55:36Z</time>
      </trkpt>
      <trkpt lat="40.518483" lon="-5.228933">
        <ele>1968.0</ele>
        <time>2018-07-14T12:55:37Z</time>
      </trkpt>
      <trkpt lat="40.518583" lon="-5.228850">
        <ele>1969.0</ele>
        <time>2018-07-14T12:55:38Z</time>
      </trkpt>
      <trkpt lat="40.518683" lon="-5.228767">
        <ele>1970.0</ele>
        <time>2018-07-14T12:55:39Z</time>
      </trkpt>
      <trkpt lat="40.518783" lon="-5.228700">
        <ele>1973.0</ele>
        <time>2018-07-14T12:55:40Z</time>
      </trkpt>
      <trkpt lat="40.518867" lon="-5.228633">
        <ele>1975.0</ele>
        <time>2018-07-14T12:55:41Z</time>
      </trkpt>
      <trkpt lat="40.518967" lon="-5.228567">
        <ele>1978.0</ele>
        <time>2018-07-14T12:55:42Z</time>
      </trkpt>
      <trkpt lat="40.519050" lon="-5.228500">
        <ele>1980.0</ele>
        <time>2018-07-14T12:55:43Z</time>
      </trkpt>
      <trkpt lat="40.519233" lon="-5.228183">
        <ele>1985.0</ele>
        <time>2018-07-14T12:55:46Z</time>
      </trkpt>
      <trkpt lat="40.519250" lon="-5.228067">
        <ele>1986.0</ele>
        <time>2018-07-14T12:55:47Z</time>
      </trkpt>
      <trkpt lat="40.519217" lon="-5.227967">
        <ele>1988.0</ele>
        <time>2018-07-14T12:55:48Z</time>
      </trkpt>
      <trkpt lat="40.519167" lon="-5.227883">
        <ele>1989.0</ele>
        <time>2018-07-14T12:55:49Z</time>
      </trkpt>
      <trkpt lat="40.519117" lon="-5.227850">
        <ele>1991.0</ele>
        <time>2018-07-14T12:55:50Z</time>
      </trkpt>
      <trkpt lat="40.519033" lon="-5.227833">
        <ele>1993.0</ele>
        <time>2018-07-14T12:55:51Z</time>
      </trkpt>
      <trkpt lat="40.518983" lon="-5.227867">
        <ele>1994.0</ele>
        <time>2018-07-14T12:55:52Z</time>
      </trkpt>
      <trkpt lat="40.518933" lon="-5.227933">
        <ele>1997.0</ele>
        <time>2018-07-14T12:55:53Z</time>
      </trkpt>
      <trkpt lat="40.518917" lon="-5.228017">
        <ele>1999.0</ele>
        <time>2018-07-14T12:55:54Z</time>
      </trkpt>
      <trkpt lat="40.518933" lon="-5.228117">
        <ele>2001.0</ele>
        <time>2018-07-14T12:55:55Z</time>
      </trkpt>
      <trkpt lat="40.519000" lon="-5.228217">
        <ele>2004.0</ele>
        <time>2018-07-14T12:55:56Z</time>
      </trkpt>
      <trkpt lat="40.519083" lon="-5.228283">
        <ele>2006.0</ele>
        <time>2018-07-14T12:55:57Z</time>
      </trkpt>
      <trkpt lat="40.519183" lon="-5.228300">
        <ele>2008.0</ele>
        <time>2018-07-14T12:55:58Z</time>
      </trkpt>
      <trkpt lat="40.519283" lon="-5.228250">
        <ele>2010.0</ele>
        <time>2018-07-14T12:55:59Z</time>
      </trkpt>
      <trkpt lat="40.519367" lon="-5.228133">
        <ele>2011.0</ele>
        <time>2018-07-14T12:56:00Z</time>
      </trkpt>
      <trkpt lat="40.519417" lon="-5.228017">
        <ele>2013.0</ele>
        <time>2018-07-14T12:56:01Z</time>
      </trkpt>
      <trkpt lat="40.519433" lon="-5.227900">
        <ele>2014.0</ele>
        <time>2018-07-14T12:56:02Z</time>
      </trkpt>
      <trkpt lat="40.519417" lon="-5.227783">
        <ele>2016.0</ele>
        <time>2018-07-14T12:56:03Z</time>
      </trkpt>
      <trkpt lat="40.519383" lon="-5.227683">
        <ele>2018.0</ele>
        <time>2018-07-14T12:56:04Z</time>
      </trkpt>
      <trkpt lat="40.519333" lon="-5.227600">
        <ele>2020.0</ele>
        <time>2018-07-14T12:56:05Z</time>
      </trkpt>
      <trkpt lat="40.519267" lon="-5.227550">
        <ele>2021.0</ele>
        <time>2018-07-14T12:56:06Z</time>
      </trkpt>
      <trkpt lat="40.519200" lon="-5.227533">
        <ele>2024.0</ele>
        <time>2018-07-14T12:56:07Z</time>
      </trkpt>
      <trkpt lat="40.519133" lon="-5.227550">
        <ele>2026.0</ele>
        <time>2018-07-14T12:56:08Z</time>
      </trkpt>
      <trkpt lat="40.519083" lon="-5.227617">
        <ele>2028.0</ele>
        <time>2018-07-14T12:56:09Z</time>
      </trkpt>
      <trkpt lat="40.519067" lon="-5.227717">
        <ele>2029.0</ele>
        <time>2018-07-14T12:56:10Z</time>
      </trkpt>
      <trkpt lat="40.519083" lon="-5.227817">
        <ele>2030.0</ele>
        <time>2018-07-14T12:56:11Z</time>
      </trkpt>
      <trkpt lat="40.519150" lon="-5.227917">
        <ele>2031.0</ele>
        <time>2018-07-14T12:56:12Z</time>
      </trkpt>
      <trkpt lat="40.519233" lon="-5.227983">
        <ele>2031.0</ele>
        <time>2018-07-14T12:56:13Z</time>
      </trkpt>
      <trkpt lat="40.519350" lon="-5.228033">
        <ele>2032.0</ele>
        <time>2018-07-14T12:56:14Z</time>
      </trkpt>
      <trkpt lat="40.519450" lon="-5.228033">
        <ele>2033.0</ele>
        <time>2018-07-14T12:56:15Z</time>
      </trkpt>
      <trkpt lat="40.519567" lon="-5.228000">
        <ele>2034.0</ele>
        <time>2018-07-14T12:56:16Z</time>
      </trkpt>
      <trkpt lat="40.519650" lon="-5.227950">
        <ele>2036.0</ele>
        <time>2018-07-14T12:56:17Z</time>
      </trkpt>
      <trkpt lat="40.519717" lon="-5.227867">
        <ele>2039.0</ele>
        <time>2018-07-14T12:56:18Z</time>
      </trkpt>
      <trkpt lat="40.519767" lon="-5.227767">
        <ele>2041.0</ele>
        <time>2018-07-14T12:56:19Z</time>
      </trkpt>
      <trkpt lat="40.519800" lon="-5.227650">
        <ele>2042.0</ele>
        <time>2018-07-14T12:56:20Z</time>
      </trkpt>
      <trkpt lat="40.519817" lon="-5.227517">
        <ele>2044.0</ele>
        <time>2018-07-14T12:56:21Z</time>
      </trkpt>
      <trkpt lat="40.519800" lon="-5.227400">
        <ele>2046.0</ele>
        <time>2018-07-14T12:56:22Z</time>
      </trkpt>
      <trkpt lat="40.519750" lon="-5.227300">
        <ele>2048.0</ele>
        <time>2018-07-14T12:56:23Z</time>
      </trkpt>
      <trkpt lat="40.519700" lon="-5.227233">
        <ele>2051.0</ele>
        <time>2018-07-14T12:56:24Z</time>
      </trkpt>
      <trkpt lat="40.519633" lon="-5.227233">
        <ele>2053.0</ele>
        <time>2018-07-14T12:56:25Z</time>
      </trkpt>
      <trkpt lat="40.519567" lon="-5.227250">
        <ele>2055.0</ele>
        <time>2018-07-14T12:56:26Z</time>
      </trkpt>
      <trkpt lat="40.519517" lon="-5.227300">
        <ele>2057.0</ele>
        <time>2018-07-14T12:56:27Z</time>
      </trkpt>
      <trkpt lat="40.519483" lon="-5.227350">
        <ele>2059.0</ele>
        <time>2018-07-14T12:56:28Z</time>
      </trkpt>
      <trkpt lat="40.519467" lon="-5.227417">
        <ele>2054.0</ele>
        <time>2018-07-14T12:56:29Z</time>
      </trkpt>
      <trkpt lat="40.519467" lon="-5.227517">
        <ele>2054.0</ele>
        <time>2018-07-14T12:56:30Z</time>
      </trkpt>
      <trkpt lat="40.519500" lon="-5.227633">
        <ele>2055.0</ele>
        <time>2018-07-14T12:56:31Z</time>
      </trkpt>
      <trkpt lat="40.519567" lon="-5.227717">
        <ele>2057.0</ele>
        <time>2018-07-14T12:56:32Z</time>
      </trkpt>
      <trkpt lat="40.519650" lon="-5.227783">
        <ele>2059.0</ele>
        <time>2018-07-14T12:56:33Z</time>
      </trkpt>
      <trkpt lat="40.519767" lon="-5.227800">
        <ele>2060.0</ele>
        <time>2018-07-14T12:56:34Z</time>
      </trkpt>
      <trkpt lat="40.519867" lon="-5.227750">
        <ele>2061.0</ele>
        <time>2018-07-14T12:56:35Z</time>
      </trkpt>
      <trkpt lat="40.519950" lon="-5.227667">
        <ele>2062.0</ele>
        <time>2018-07-14T12:56:36Z</time>
      </trkpt>
      <trkpt lat="40.520000" lon="-5.227533">
        <ele>2063.0</ele>
        <time>2018-07-14T12:56:37Z</time>
      </trkpt>
      <trkpt lat="40.520017" lon="-5.227417">
        <ele>2065.0</ele>
        <time>2018-07-14T12:56:38Z</time>
      </trkpt>
      <trkpt lat="40.520017" lon="-5.227317">
        <ele>2067.0</ele>
        <time>2018-07-14T12:56:39Z</time>
      </trkpt>
      <trkpt lat="40.520000" lon="-5.227217">
        <ele>2069.0</ele>
        <time>2018-07-14T12:56:40Z</time>
      </trkpt>
      <trkpt lat="40.519967" lon="-5.227117">
        <ele>2071.0</ele>
        <time>2018-07-14T12:56:41Z</time>
      </trkpt>
      <trkpt lat="40.519950" lon="-5.227033">
        <ele>2074.0</ele>
        <time>2018-07-14T12:56:42Z</time>
      </trkpt>
      <trkpt lat="40.519900" lon="-5.226950">
        <ele>2076.0</ele>
        <time>2018-07-14T12:56:43Z</time>
      </trkpt>
      <trkpt lat="40.519833" lon="-5.226900">
        <ele>2078.0</ele>
        <time>2018-07-14T12:56:44Z</time>
      </trkpt>
      <trkpt lat="40.519767" lon="-5.226883">
        <ele>2080.0</ele>
        <time>2018-07-14T12:56:45Z</time>
      </trkpt>
      <trkpt lat="40.519700" lon="-5.226900">
        <ele>2081.0</ele>
        <time>2018-07-14T12:56:46Z</time>
      </trkpt>
      <trkpt lat="40.519650" lon="-5.226950">
        <ele>2083.0</ele>
        <time>2018-07-14T12:56:47Z</time>
      </trkpt>
      <trkpt lat="40.519600" lon="-5.227017">
        <ele>2086.0</ele>
        <time>2018-07-14T12:56:48Z</time>
      </trkpt>
      <trkpt lat="40.519600" lon="-5.227117">
        <ele>2089.0</ele>
        <time>2018-07-14T12:56:49Z</time>
      </trkpt>
      <trkpt lat="40.519617" lon="-5.227217">
        <ele>2090.0</ele>
        <time>2018-07-14T12:56:50Z</time>
      </trkpt>
      <trkpt lat="40.519667" lon="-5.227300">
        <ele>2092.0</ele>
        <time>2018-07-14T12:56:51Z</time>
      </trkpt>
      <trkpt lat="40.519750" lon="-5.227383">
        <ele>2093.0</ele>
        <time>2018-07-14T12:56:52Z</time>
      </trkpt>
      <trkpt lat="40.519833" lon="-5.227417">
        <ele>2094.0</ele>
        <time>2018-07-14T12:56:53Z</time>
      </trkpt>
      <trkpt lat="40.519933" lon="-5.227417">
        <ele>2095.0</ele>
        <time>2018-07-14T12:56:54Z</time>
      </trkpt>
      <trkpt lat="40.520033" lon="-5.227383">
        <ele>2096.0</ele>
        <time>2018-07-14T12:56:55Z</time>
      </trkpt>
      <trkpt lat="40.520117" lon="-5.227317">
        <ele>2097.0</ele>
        <time>2018-07-14T12:56:56Z</time>
      </trkpt>
      <trkpt lat="40.520200" lon="-5.227217">
        <ele>2098.0</ele>
        <time>2018-07-14T12:56:57Z</time>
      </trkpt>
      <trkpt lat="40.520250" lon="-5.226983">
        <ele>2100.0</ele>
        <time>2018-07-14T12:56:59Z</time>
      </trkpt>
      <trkpt lat="40.520233" lon="-5.226883">
        <ele>2102.0</ele>
        <time>2018-07-14T12:57:00Z</time>
      </trkpt>
      <trkpt lat="40.520200" lon="-5.226783">
        <ele>2103.0</ele>
        <time>2018-07-14T12:57:01Z</time>
      </trkpt>
      <trkpt lat="40.520150" lon="-5.226717">
        <ele>2104.0</ele>
        <time>2018-07-14T12:57:02Z</time>
      </trkpt>
      <trkpt lat="40.520017" lon="-5.226667">
        <ele>2107.0</ele>
        <time>2018-07-14T12:57:04Z</time>
      </trkpt>
      <trkpt lat="40.519967" lon="-5.226700">
        <ele>2109.0</ele>
        <time>2018-07-14T12:57:05Z</time>
      </trkpt>
      <trkpt lat="40.519917" lon="-5.226750">
        <ele>2110.0</ele>
        <time>2018-07-14T12:57:06Z</time>
      </trkpt>
      <trkpt lat="40.519883" lon="-5.226833">
        <ele>2111.0</ele>
        <time>2018-07-14T12:57:07Z</time>
      </trkpt>
      <trkpt lat="40.519867" lon="-5.226917">
        <ele>2112.0</ele>
        <time>2018-07-14T12:57:08Z</time>
      </trkpt>
      <trkpt lat="40.519867" lon="-5.227017">
        <ele>2112.0</ele>
        <time>2018-07-14T12:57:09Z</time>
      </trkpt>
      <trkpt lat="40.519900" lon="-5.227117">
        <ele>2113.0</ele>
        <time>2018-07-14T12:57:10Z</time>
      </trkpt>
      <trkpt lat="40.519967" lon="-5.227200">
        <ele>2112.0</ele>
        <time>2018-07-14T12:57:11Z</time>
      </trkpt>
      <trkpt lat="40.520050" lon="-5.227283">
        <ele>2112.0</ele>
        <time>2018-07-14T12:57:12Z</time>
      </trkpt>
      <trkpt lat="40.520150" lon="-5.227300">
        <ele>2113.0</ele>
        <time>2018-07-14T12:57:13Z</time>
      </trkpt>
      <trkpt lat="40.520250" lon="-5.227317">
        <ele>2115.0</ele>
        <time>2018-07-14T12:57:14Z</time>
      </trkpt>
      <trkpt lat="40.520333" lon="-5.227317">
        <ele>2116.0</ele>
        <time>2018-07-14T12:57:15Z</time>
      </trkpt>
      <trkpt lat="40.520417" lon="-5.227317">
        <ele>2118.0</ele>
        <time>2018-07-14T12:57:16Z</time>
      </trkpt>
      <trkpt lat="40.520517" lon="-5.227317">
        <ele>2119.0</ele>
        <time>2018-07-14T12:57:17Z</time>
      </trkpt>
      <trkpt lat="40.520617" lon="-5.227283">
        <ele>2119.0</ele>
        <time>2018-07-14T12:57:18Z</time>
      </trkpt>
      <trkpt lat="40.520717" lon="-5.227217">
        <ele>2120.0</ele>
        <time>2018-07-14T12:57:19Z</time>
      </trkpt>
      <trkpt lat="40.520800" lon="-5.227117">
        <ele>2121.0</ele>
        <time>2018-07-14T12:57:20Z</time>
      </trkpt>
      <trkpt lat="40.520850" lon="-5.227017">
        <ele>2122.0</ele>
        <time>2018-07-14T12:57:21Z</time>
      </trkpt>
      <trkpt lat="40.520883" lon="-5.226900">
        <ele>2122.0</ele>
        <time>2018-07-14T12:57:22Z</time>
      </trkpt>
      <trkpt lat="40.520883" lon="-5.226783">
        <ele>2122.0</ele>
        <time>2018-07-14T12:57:23Z</time>
      </trkpt>
      <trkpt lat="40.520850" lon="-5.226683">
        <ele>2123.0</ele>
        <time>2018-07-14T12:57:24Z</time>
      </trkpt>
      <trkpt lat="40.520800" lon="-5.226600">
        <ele>2124.0</ele>
        <time>2018-07-14T12:57:25Z</time>
      </trkpt>
      <trkpt lat="40.520750" lon="-5.226567">
        <ele>2124.0</ele>
        <time>2018-07-14T12:57:26Z</time>
      </trkpt>
      <trkpt lat="40.520700" lon="-5.226567">
        <ele>2125.0</ele>
        <time>2018-07-14T12:57:27Z</time>
      </trkpt>
      <trkpt lat="40.520650" lon="-5.226617">
        <ele>2127.0</ele>
        <time>2018-07-14T12:57:28Z</time>
      </trkpt>
      <trkpt lat="40.520600" lon="-5.226683">
        <ele>2128.0</ele>
        <time>2018-07-14T12:57:29Z</time>
      </trkpt>
      <trkpt lat="40.520600" lon="-5.226783">
        <ele>2131.0</ele>
        <time>2018-07-14T12:57:30Z</time>
      </trkpt>
      <trkpt lat="40.520600" lon="-5.226883">
        <ele>2134.0</ele>
        <time>2018-07-14T12:57:31Z</time>
      </trkpt>
      <trkpt lat="40.520633" lon="-5.226983">
        <ele>2136.0</ele>
        <time>2018-07-14T12:57:32Z</time>
      </trkpt>
      <trkpt lat="40.520667" lon="-5.227100">
        <ele>2138.0</ele>
        <time>2018-07-14T12:57:33Z</time>
      </trkpt>
      <trkpt lat="40.520733" lon="-5.227200">
        <ele>2139.0</ele>
        <time>2018-07-14T12:57:34Z</time>
      </trkpt>
      <trkpt lat="40.520817" lon="-5.227267">
        <ele>2140.0</ele>
        <time>2018-07-14T12:57:35Z</time>
      </trkpt>
      <trkpt lat="40.520900" lon="-5.227333">
        <ele>2141.0</ele>
        <time>2018-07-14T12:57:36Z</time>
      </trkpt>
      <trkpt lat="40.521000" lon="-5.227350">
        <ele>2142.0</ele>
        <time>2018-07-14T12:57:37Z</time>
      </trkpt>
      <trkpt lat="40.521183" lon="-5.227300">
        <ele>2144.0</ele>
        <time>2018-07-14T12:57:39Z</time>
      </trkpt>
      <trkpt lat="40.521283" lon="-5.227233">
        <ele>2145.0</ele>
        <time>2018-07-14T12:57:40Z</time>
      </trkpt>
      <trkpt lat="40.521367" lon="-5.227133">
        <ele>2145.0</ele>
        <time>2018-07-14T12:57:41Z</time>
      </trkpt>
      <trkpt lat="40.521417" lon="-5.227017">
        <ele>2145.0</ele>
        <time>2018-07-14T12:57:42Z</time>
      </trkpt>
      <trkpt lat="40.521433" lon="-5.226900">
        <ele>2146.0</ele>
        <time>2018-07-14T12:57:43Z</time>
      </trkpt>
      <trkpt lat="40.521433" lon="-5.226783">
        <ele>2147.0</ele>
        <time>2018-07-14T12:57:44Z</time>
      </trkpt>
      <trkpt lat="40.521417" lon="-5.226700">
        <ele>2147.0</ele>
        <time>2018-07-14T12:57:45Z</time>
      </trkpt>
      <trkpt lat="40.521383" lon="-5.226633">
        <ele>2148.0</ele>
        <time>2018-07-14T12:57:46Z</time>
      </trkpt>
      <trkpt lat="40.521350" lon="-5.226583">
        <ele>2148.0</ele>
        <time>2018-07-14T12:57:47Z</time>
      </trkpt>
      <trkpt lat="40.521283" lon="-5.226550">
        <ele>2148.0</ele>
        <time>2018-07-14T12:57:48Z</time>
      </trkpt>
      <trkpt lat="40.521233" lon="-5.226550">
        <ele>2149.0</ele>
        <time>2018-07-14T12:57:49Z</time>
      </trkpt>
      <trkpt lat="40.521183" lon="-5.226567">
        <ele>2149.0</ele>
        <time>2018-07-14T12:57:50Z</time>
      </trkpt>
      <trkpt lat="40.521133" lon="-5.226617">
        <ele>2150.0</ele>
        <time>2018-07-14T12:57:51Z</time>
      </trkpt>
      <trkpt lat="40.521100" lon="-5.226717">
        <ele>2151.0</ele>
        <time>2018-07-14T12:57:52Z</time>
      </trkpt>
      <trkpt lat="40.521083" lon="-5.226817">
        <ele>2152.0</ele>
        <time>2018-07-14T12:57:53Z</time>
      </trkpt>
      <trkpt lat="40.521083" lon="-5.226917">
        <ele>2154.0</ele>
        <time>2018-07-14T12:57:54Z</time>
      </trkpt>
      <trkpt lat="40.521067" lon="-5.227017">
        <ele>2156.0</ele>
        <time>2018-07-14T12:57:55Z</time>
      </trkpt>
      <trkpt lat="40.521067" lon="-5.227083">
        <ele>2158.0</ele>
        <time>2018-07-14T12:57:56Z</time>
      </trkpt>
      <trkpt lat="40.521083" lon="-5.227167">
        <ele>2159.0</ele>
        <time>2018-07-14T12:57:57Z</time>
      </trkpt>
      <trkpt lat="40.521100" lon="-5.227267">
        <ele>2159.0</ele>
        <time>2018-07-14T12:57:58Z</time>
      </trkpt>
      <trkpt lat="40.521117" lon="-5.227383">
        <ele>2159.0</ele>
        <time>2018-07-14T12:57:59Z</time>
      </trkpt>
      <trkpt lat="40.521133" lon="-5.227500">
        <ele>2159.0</ele>
        <time>2018-07-14T12:58:00Z</time>
      </trkpt>
      <trkpt lat="40.521183" lon="-5.227600">
        <ele>2159.0</ele>
        <time>2018-07-14T12:58:01Z</time>
      </trkpt>
      <trkpt lat="40.521250" lon="-5.227667">
        <ele>2159.0</ele>
        <time>2018-07-14T12:58:02Z</time>
      </trkpt>
      <trkpt lat="40.521333" lon="-5.227733">
        <ele>2158.0</ele>
        <time>2018-07-14T12:58:03Z</time>
      </trkpt>
      <trkpt lat="40.521433" lon="-5.227750">
        <ele>2156.0</ele>
        <time>2018-07-14T12:58:04Z</time>
      </trkpt>
      <trkpt lat="40.521533" lon="-5.227767">
        <ele>2154.0</ele>
        <time>2018-07-14T12:58:05Z</time>
      </trkpt>
      <trkpt lat="40.521633" lon="-5.227733">
        <ele>2153.0</ele>
        <time>2018-07-14T12:58:06Z</time>
      </trkpt>
      <trkpt lat="40.521733" lon="-5.227683">
        <ele>2151.0</ele>
        <time>2018-07-14T12:58:07Z</time>
      </trkpt>
      <trkpt lat="40.521900" lon="-5.227233">
        <ele>2144.0</ele>
        <time>2018-07-14T12:58:11Z</time>
      </trkpt>
      <trkpt lat="40.521883" lon="-5.227117">
        <ele>2143.0</ele>
        <time>2018-07-14T12:58:12Z</time>
      </trkpt>
      <trkpt lat="40.521850" lon="-5.227017">
        <ele>2142.0</ele>
        <time>2018-07-14T12:58:13Z</time>
      </trkpt>
      <trkpt lat="40.521800" lon="-5.226933">
        <ele>2142.0</ele>
        <time>2018-07-14T12:58:14Z</time>
      </trkpt>
      <trkpt lat="40.521750" lon="-5.226867">
        <ele>2143.0</ele>
        <time>2018-07-14T12:58:15Z</time>
      </trkpt>
      <trkpt lat="40.521717" lon="-5.226800">
        <ele>2143.0</ele>
        <time>2018-07-14T12:58:16Z</time>
      </trkpt>
      <trkpt lat="40.521667" lon="-5.226733">
        <ele>2143.0</ele>
        <time>2018-07-14T12:58:17Z</time>
      </trkpt>
      <trkpt lat="40.521617" lon="-5.226667">
        <ele>2143.0</ele>
        <time>2018-07-14T12:58:18Z</time>
      </trkpt>
      <trkpt lat="40.521550" lon="-5.226617">
        <ele>2143.0</ele>
        <time>2018-07-14T12:58:19Z</time>
      </trkpt>
      <trkpt lat="40.521483" lon="-5.226567">
        <ele>2144.0</ele>
        <time>2018-07-14T12:58:20Z</time>
      </trkpt>
      <trkpt lat="40.521417" lon="-5.226517">
        <ele>2146.0</ele>
        <time>2018-07-14T12:58:21Z</time>
      </trkpt>
      <trkpt lat="40.521367" lon="-5.226500">
        <ele>2147.0</ele>
        <time>2018-07-14T12:58:22Z</time>
      </trkpt>
      <trkpt lat="40.521300" lon="-5.226483">
        <ele>2149.0</ele>
        <time>2018-07-14T12:58:23Z</time>
      </trkpt>
      <trkpt lat="40.521217" lon="-5.226467">
        <ele>2150.0</ele>
        <time>2018-07-14T12:58:24Z</time>
      </trkpt>
      <trkpt lat="40.521150" lon="-5.226450">
        <ele>2151.0</ele>
        <time>2018-07-14T12:58:25Z</time>
      </trkpt>
      <trkpt lat="40.521083" lon="-5.226450">
        <ele>2152.0</ele>
        <time>2018-07-14T12:58:26Z</time>
      </trkpt>
      <trkpt lat="40.521017" lon="-5.226450">
        <ele>2153.0</ele>
        <time>2018-07-14T12:58:27Z</time>
      </trkpt>
      <trkpt lat="40.520950" lon="-5.226467">
        <ele>2154.0</ele>
        <time>2018-07-14T12:58:28Z</time>
      </trkpt>
      <trkpt lat="40.520883" lon="-5.226483">
        <ele>2155.0</ele>
        <time>2018-07-14T12:58:29Z</time>
      </trkpt>
      <trkpt lat="40.520833" lon="-5.226500">
        <ele>2155.0</ele>
        <time>2018-07-14T12:58:30Z</time>
      </trkpt>
      <trkpt lat="40.520767" lon="-5.226533">
        <ele>2155.0</ele>
        <time>2018-07-14T12:58:31Z</time>
      </trkpt>
      <trkpt lat="40.520717" lon="-5.226567">
        <ele>2155.0</ele>
        <time>2018-07-14T12:58:32Z</time>
      </trkpt>
      <trkpt lat="40.520650" lon="-5.226633">
        <ele>2153.0</ele>
        <time>2018-07-14T12:58:33Z</time>
      </trkpt>
      <trkpt lat="40.520600" lon="-5.226717">
        <ele>2152.0</ele>
        <time>2018-07-14T12:58:34Z</time>
      </trkpt>
      <trkpt lat="40.520567" lon="-5.226833">
        <ele>2151.0</ele>
        <time>2018-07-14T12:58:35Z</time>
      </trkpt>
      <trkpt lat="40.520550" lon="-5.226933">
        <ele>2151.0</ele>
        <time>2018-07-14T12:58:36Z</time>
      </trkpt>
      <trkpt lat="40.520550" lon="-5.227050">
        <ele>2151.0</ele>
        <time>2018-07-14T12:58:37Z</time>
      </trkpt>
      <trkpt lat="40.520567" lon="-5.227167">
        <ele>2151.0</ele>
        <time>2018-07-14T12:58:38Z</time>
      </trkpt>
      <trkpt lat="40.520617" lon="-5.227283">
        <ele>2150.0</ele>
        <time>2018-07-14T12:58:39Z</time>
      </trkpt>
      <trkpt lat="40.520683" lon="-5.227383">
        <ele>2151.0</ele>
        <time>2018-07-14T12:58:40Z</time>
      </trkpt>
      <trkpt lat="40.520750" lon="-5.227467">
        <ele>2152.0</ele>
        <time>2018-07-14T12:58:41Z</time>
      </trkpt>
      <trkpt lat="40.520817" lon="-5.227517">
        <ele>2152.0</ele>
        <time>2018-07-14T12:58:42Z</time>
      </trkpt>
      <trkpt lat="40.520900" lon="-5.227567">
        <ele>2153.0</ele>
        <time>2018-07-14T12:58:43Z</time>
      </trkpt>
      <trkpt lat="40.521000" lon="-5.227600">
        <ele>2152.0</ele>
        <time>2018-07-14T12:58:44Z</time>
      </trkpt>
      <trkpt lat="40.521100" lon="-5.227617">
        <ele>2152.0</ele>
        <time>2018-07-14T12:58:45Z</time>
      </trkpt>
      <trkpt lat="40.521200" lon="-5.227600">
        <ele>2152.0</ele>
        <time>2018-07-14T12:58:46Z</time>
      </trkpt>
      <trkpt lat="40.521283" lon="-5.227567">
        <ele>2152.0</ele>
        <time>2018-07-14T12:58:47Z</time>
      </trkpt>
      <trkpt lat="40.521433" lon="-5.227433">
        <ele>2151.0</ele>
        <time>2018-07-14T12:58:49Z</time>
      </trkpt>
      <trkpt lat="40.521483" lon="-5.227333">
        <ele>2151.0</ele>
        <time>2018-07-14T12:58:50Z</time>
      </trkpt>
      <trkpt lat="40.521517" lon="-5.227233">
        <ele>2151.0</ele>
        <time>2018-07-14T12:58:51Z</time>
      </trkpt>
      <trkpt lat="40.521533" lon="-5.227133">
        <ele>2151.0</ele>
        <time>2018-07-14T12:58:52Z</time>
      </trkpt>
      <trkpt lat="40.521533" lon="-5.227050">
        <ele>2152.0</ele>
        <time>2018-07-14T12:58:53Z</time>
      </trkpt>
      <trkpt lat="40.521550" lon="-5.226967">
        <ele>2152.0</ele>
        <time>2018-07-14T12:58:54Z</time>
      </trkpt>
      <trkpt lat="40.521550" lon="-5.226883">
        <ele>2152.0</ele>
        <time>2018-07-14T12:58:55Z</time>
      </trkpt>
      <trkpt lat="40.521550" lon="-5.226800">
        <ele>2153.0</ele>
        <time>2018-07-14T12:58:56Z</time>
      </trkpt>
      <trkpt lat="40.521533" lon="-5.226717">
        <ele>2152.0</ele>
        <time>2018-07-14T12:58:57Z</time>
      </trkpt>
      <trkpt lat="40.521517" lon="-5.226633">
        <ele>2151.0</ele>
        <time>2018-07-14T12:58:58Z</time>
      </trkpt>
      <trkpt lat="40.521483" lon="-5.226567">
        <ele>2151.0</ele>
        <time>2018-07-14T12:58:59Z</time>
      </trkpt>
      <trkpt lat="40.521433" lon="-5.226500">
        <ele>2152.0</ele>
        <time>2018-07-14T12:59:00Z</time>
      </trkpt>
      <trkpt lat="40.521383" lon="-5.226450">
        <ele>2151.0</ele>
        <time>2018-07-14T12:59:01Z</time>
      </trkpt>
      <trkpt lat="40.521317" lon="-5.226417">
        <ele>2152.0</ele>
        <time>2018-07-14T12:59:02Z</time>
      </trkpt>
      <trkpt lat="40.521250" lon="-5.226383">
        <ele>2152.0</ele>
        <time>2018-07-14T12:59:03Z</time>
      </trkpt>
      <trkpt lat="40.521200" lon="-5.226350">
        <ele>2153.0</ele>
        <time>2018-07-14T12:59:04Z</time>
      </trkpt>
      <trkpt lat="40.521133" lon="-5.226333">
        <ele>2153.0</ele>
        <time>2018-07-14T12:59:05Z</time>
      </trkpt>
      <trkpt lat="40.521067" lon="-5.226350">
        <ele>2153.0</ele>
        <time>2018-07-14T12:59:06Z</time>
      </trkpt>
      <trkpt lat="40.521000" lon="-5.226383">
        <ele>2153.0</ele>
        <time>2018-07-14T12:59:07Z</time>
      </trkpt>
      <trkpt lat="40.520933" lon="-5.226433">
        <ele>2153.0</ele>
        <time>2018-07-14T12:59:08Z</time>
      </trkpt>
      <trkpt lat="40.520867" lon="-5.226500">
        <ele>2153.0</ele>
        <time>2018-07-14T12:59:09Z</time>
      </trkpt>
      <trkpt lat="40.520817" lon="-5.226567">
        <ele>2153.0</ele>
        <time>2018-07-14T12:59:10Z</time>
      </trkpt>
      <trkpt lat="40.520783" lon="-5.226650">
        <ele>2153.0</ele>
        <time>2018-07-14T12:59:11Z</time>
      </trkpt>
      <trkpt lat="40.520767" lon="-5.226750">
        <ele>2152.0</ele>
        <time>2018-07-14T12:59:12Z</time>
      </trkpt>
      <trkpt lat="40.520767" lon="-5.226867">
        <ele>2150.0</ele>
        <time>2018-07-14T12:59:13Z</time>
      </trkpt>
      <trkpt lat="40.520783" lon="-5.226983">
        <ele>2149.0</ele>
        <time>2018-07-14T12:59:14Z</time>
      </trkpt>
      <trkpt lat="40.520833" lon="-5.227083">
        <ele>2149.0</ele>
        <time>2018-07-14T12:59:15Z</time>
      </trkpt>
      <trkpt lat="40.520917" lon="-5.227167">
        <ele>2148.0</ele>
        <time>2018-07-14T12:59:16Z</time>
      </trkpt>
      <trkpt lat="40.521000" lon="-5.227217">
        <ele>2148.0</ele>
        <time>2018-07-14T12:59:17Z</time>
      </trkpt>
      <trkpt lat="40.521183" lon="-5.227217">
        <ele>2146.0</ele>
        <time>2018-07-14T12:59:19Z</time>
      </trkpt>
      <trkpt lat="40.521367" lon="-5.227100">
        <ele>2144.0</ele>
        <time>2018-07-14T12:59:21Z</time>
      </trkpt>
      <trkpt lat="40.521450" lon="-5.227050">
        <ele>2145.0</ele>
        <time>2018-07-14T12:59:22Z</time>
      </trkpt>
      <trkpt lat="40.521533" lon="-5.227000">
        <ele>2145.0</ele>
        <time>2018-07-14T12:59:23Z</time>
      </trkpt>
      <trkpt lat="40.521617" lon="-5.226933">
        <ele>2145.0</ele>
        <time>2018-07-14T12:59:24Z</time>
      </trkpt>
      <trkpt lat="40.521700" lon="-5.226883">
        <ele>2144.0</ele>
        <time>2018-07-14T12:59:25Z</time>
      </trkpt>
      <trkpt lat="40.521783" lon="-5.226817">
        <ele>2144.0</ele>
        <time>2018-07-14T12:59:26Z</time>
      </trkpt>
      <trkpt lat="40.521867" lon="-5.226750">
        <ele>2144.0</ele>
        <time>2018-07-14T12:59:27Z</time>
      </trkpt>
      <trkpt lat="40.521950" lon="-5.226700">
        <ele>2144.0</ele>
        <time>2018-07-14T12:59:28Z</time>
      </trkpt>
      <trkpt lat="40.522017" lon="-5.226650">
        <ele>2147.0</ele>
        <time>2018-07-14T12:59:29Z</time>
      </trkpt>
      <trkpt lat="40.522083" lon="-5.226633">
        <ele>2149.0</ele>
        <time>2018-07-14T12:59:30Z</time>
      </trkpt>
      <trkpt lat="40.522150" lon="-5.226600">
        <ele>2150.0</ele>
        <time>2018-07-14T12:59:31Z</time>
      </trkpt>
      <trkpt lat="40.522233" lon="-5.226567">
        <ele>2151.0</ele>
        <time>2018-07-14T12:59:32Z</time>
      </trkpt>
      <trkpt lat="40.522317" lon="-5.226500">
        <ele>2152.0</ele>
        <time>2018-07-14T12:59:33Z</time>
      </trkpt>
      <trkpt lat="40.522383" lon="-5.226433">
        <ele>2153.0</ele>
        <time>2018-07-14T12:59:34Z</time>
      </trkpt>
      <trkpt lat="40.522417" lon="-5.226333">
        <ele>2154.0</ele>
        <time>2018-07-14T12:59:35Z</time>
      </trkpt>
      <trkpt lat="40.522433" lon="-5.226250">
        <ele>2155.0</ele>
        <time>2018-07-14T12:59:36Z</time>
      </trkpt>
      <trkpt lat="40.522433" lon="-5.226167">
        <ele>2156.0</ele>
        <time>2018-07-14T12:59:37Z</time>
      </trkpt>
      <trkpt lat="40.522400" lon="-5.226100">
        <ele>2156.0</ele>
        <time>2018-07-14T12:59:38Z</time>
      </trkpt>
      <trkpt lat="40.522367" lon="-5.226033">
        <ele>2157.0</ele>
        <time>2018-07-14T12:59:39Z</time>
      </trkpt>
      <trkpt lat="40.522300" lon="-5.225967">
        <ele>2157.0</ele>
        <time>2018-07-14T12:59:40Z</time>
      </trkpt>
      <trkpt lat="40.522233" lon="-5.225917">
        <ele>2158.0</ele>
        <time>2018-07-14T12:59:41Z</time>
      </trkpt>
      <trkpt lat="40.522183" lon="-5.225900">
        <ele>2160.0</ele>
        <time>2018-07-14T12:59:42Z</time>
      </trkpt>
      <trkpt lat="40.522117" lon="-5.225883">
        <ele>2162.0</ele>
        <time>2018-07-14T12:59:43Z</time>
      </trkpt>
      <trkpt lat="40.522050" lon="-5.225883">
        <ele>2163.0</ele>
        <time>2018-07-14T12:59:44Z</time>
      </trkpt>
      <trkpt lat="40.521983" lon="-5.225883">
        <ele>2163.0</ele>
        <time>2018-07-14T12:59:45Z</time>
      </trkpt>
      <trkpt lat="40.521933" lon="-5.225900">
        <ele>2164.0</ele>
        <time>2018-07-14T12:59:46Z</time>
      </trkpt>
      <trkpt lat="40.521867" lon="-5.225933">
        <ele>2164.0</ele>
        <time>2018-07-14T12:59:47Z</time>
      </trkpt>
      <trkpt lat="40.521817" lon="-5.226000">
        <ele>2164.0</ele>
        <time>2018-07-14T12:59:48Z</time>
      </trkpt>
      <trkpt lat="40.521767" lon="-5.226083">
        <ele>2164.0</ele>
        <time>2018-07-14T12:59:49Z</time>
      </trkpt>
      <trkpt lat="40.521733" lon="-5.226183">
        <ele>2164.0</ele>
        <time>2018-07-14T12:59:50Z</time>
      </trkpt>
      <trkpt lat="40.521717" lon="-5.226283">
        <ele>2164.0</ele>
        <time>2018-07-14T12:59:51Z</time>
      </trkpt>
      <trkpt lat="40.521717" lon="-5.226400">
        <ele>2164.0</ele>
        <time>2018-07-14T12:59:52Z</time>
      </trkpt>
      <trkpt lat="40.521750" lon="-5.226517">
        <ele>2163.0</ele>
        <time>2018-07-14T12:59:53Z</time>
      </trkpt>
      <trkpt lat="40.521800" lon="-5.226617">
        <ele>2162.0</ele>
        <time>2018-07-14T12:59:54Z</time>
      </trkpt>
      <trkpt lat="40.521867" lon="-5.226700">
        <ele>2162.0</ele>
        <time>2018-07-14T12:59:55Z</time>
      </trkpt>
      <trkpt lat="40.521933" lon="-5.226750">
        <ele>2163.0</ele>
        <time>2018-07-14T12:59:56Z</time>
      </trkpt>
      <trkpt lat="40.522017" lon="-5.226783">
        <ele>2162.0</ele>
        <time>2018-07-14T12:59:57Z</time>
      </trkpt>
      <trkpt lat="40.522117" lon="-5.226800">
        <ele>2162.0</ele>
        <time>2018-07-14T12:59:58Z</time>
      </trkpt>
      <trkpt lat="40.522200" lon="-5.226783">
        <ele>2161.0</ele>
        <time>2018-07-14T12:59:59Z</time>
      </trkpt>
      <trkpt lat="40.522283" lon="-5.226750">
        <ele>2161.0</ele>
        <time>2018-07-14T13:00:00Z</time>
      </trkpt>
      <trkpt lat="40.522367" lon="-5.226733">
        <ele>2161.0</ele>
        <time>2018-07-14T13:00:01Z</time>
      </trkpt>
      <trkpt lat="40.522517" lon="-5.226700">
        <ele>2164.0</ele>
        <time>2018-07-14T13:00:03Z</time>
      </trkpt>
      <trkpt lat="40.522600" lon="-5.226683">
        <ele>2164.0</ele>
        <time>2018-07-14T13:00:04Z</time>
      </trkpt>
      <trkpt lat="40.522683" lon="-5.226667">
        <ele>2164.0</ele>
        <time>2018-07-14T13:00:05Z</time>
      </trkpt>
      <trkpt lat="40.522750" lon="-5.226617">
        <ele>2165.0</ele>
        <time>2018-07-14T13:00:06Z</time>
      </trkpt>
      <trkpt lat="40.522817" lon="-5.226550">
        <ele>2165.0</ele>
        <time>2018-07-14T13:00:07Z</time>
      </trkpt>
      <trkpt lat="40.522867" lon="-5.226467">
        <ele>2165.0</ele>
        <time>2018-07-14T13:00:08Z</time>
      </trkpt>
      <trkpt lat="40.522900" lon="-5.226383">
        <ele>2165.0</ele>
        <time>2018-07-14T13:00:09Z</time>
      </trkpt>
      <trkpt lat="40.522917" lon="-5.226300">
        <ele>2165.0</ele>
        <time>2018-07-14T13:00:10Z</time>
      </trkpt>
      <trkpt lat="40.522933" lon="-5.226200">
        <ele>2165.0</ele>
        <time>2018-07-14T13:00:11Z</time>
      </trkpt>
      <trkpt lat="40.522917" lon="-5.226100">
        <ele>2164.0</ele>
        <time>2018-07-14T13:00:12Z</time>
      </trkpt>
      <trkpt lat="40.522883" lon="-5.226000">
        <ele>2164.0</ele>
        <time>2018-07-14T13:00:13Z</time>
      </trkpt>
      <trkpt lat="40.522833" lon="-5.225917">
        <ele>2165.0</ele>
        <time>2018-07-14T13:00:14Z</time>
      </trkpt>
      <trkpt lat="40.522783" lon="-5.225850">
        <ele>2165.0</ele>
        <time>2018-07-14T13:00:15Z</time>
      </trkpt>
      <trkpt lat="40.522717" lon="-5.225800">
        <ele>2166.0</ele>
        <time>2018-07-14T13:00:16Z</time>
      </trkpt>
      <trkpt lat="40.522650" lon="-5.225767">
        <ele>2166.0</ele>
        <time>2018-07-14T13:00:17Z</time>
      </trkpt>
      <trkpt lat="40.522583" lon="-5.225750">
        <ele>2165.0</ele>
        <time>2018-07-14T13:00:18Z</time>
      </trkpt>
      <trkpt lat="40.522500" lon="-5.225750">
        <ele>2165.0</ele>
        <time>2018-07-14T13:00:19Z</time>
      </trkpt>
      <trkpt lat="40.522417" lon="-5.225767">
        <ele>2166.0</ele>
        <time>2018-07-14T13:00:20Z</time>
      </trkpt>
      <trkpt lat="40.522367" lon="-5.225817">
        <ele>2166.0</ele>
        <time>2018-07-14T13:00:21Z</time>
      </trkpt>
      <trkpt lat="40.522300" lon="-5.225850">
        <ele>2167.0</ele>
        <time>2018-07-14T13:00:22Z</time>
      </trkpt>
      <trkpt lat="40.522250" lon="-5.225883">
        <ele>2168.0</ele>
        <time>2018-07-14T13:00:23Z</time>
      </trkpt>
      <trkpt lat="40.522183" lon="-5.225933">
        <ele>2168.0</ele>
        <time>2018-07-14T13:00:24Z</time>
      </trkpt>
      <trkpt lat="40.522133" lon="-5.226000">
        <ele>2168.0</ele>
        <time>2018-07-14T13:00:25Z</time>
      </trkpt>
      <trkpt lat="40.522067" lon="-5.226083">
        <ele>2168.0</ele>
        <time>2018-07-14T13:00:26Z</time>
      </trkpt>
      <trkpt lat="40.522033" lon="-5.226200">
        <ele>2169.0</ele>
        <time>2018-07-14T13:00:27Z</time>
      </trkpt>
      <trkpt lat="40.522000" lon="-5.226300">
        <ele>2170.0</ele>
        <time>2018-07-14T13:00:28Z</time>
      </trkpt>
      <trkpt lat="40.522000" lon="-5.226400">
        <ele>2171.0</ele>
        <time>2018-07-14T13:00:29Z</time>
      </trkpt>
      <trkpt lat="40.522033" lon="-5.226500">
        <ele>2171.0</ele>
        <time>2018-07-14T13:00:30Z</time>
      </trkpt>
      <trkpt lat="40.522067" lon="-5.226583">
        <ele>2171.0</ele>
        <time>2018-07-14T13:00:31Z</time>
      </trkpt>
      <trkpt lat="40.522133" lon="-5.226683">
        <ele>2170.0</ele>
        <time>2018-07-14T13:00:32Z</time>
      </trkpt>
      <trkpt lat="40.522200" lon="-5.226767">
        <ele>2169.0</ele>
        <time>2018-07-14T13:00:33Z</time>
      </trkpt>
      <trkpt lat="40.522300" lon="-5.226817">
        <ele>2169.0</ele>
        <time>2018-07-14T13:00:34Z</time>
      </trkpt>
      <trkpt lat="40.522383" lon="-5.226850">
        <ele>2169.0</ele>
        <time>2018-07-14T13:00:35Z</time>
      </trkpt>
      <trkpt lat="40.522467" lon="-5.226850">
        <ele>2169.0</ele>
        <time>2018-07-14T13:00:36Z</time>
      </trkpt>
      <trkpt lat="40.522567" lon="-5.226850">
        <ele>2169.0</ele>
        <time>2018-07-14T13:00:37Z</time>
      </trkpt>
      <trkpt lat="40.522650" lon="-5.226850">
        <ele>2169.0</ele>
        <time>2018-07-14T13:00:38Z</time>
      </trkpt>
      <trkpt lat="40.522750" lon="-5.226833">
        <ele>2169.0</ele>
        <time>2018-07-14T13:00:39Z</time>
      </trkpt>
      <trkpt lat="40.522833" lon="-5.226783">
        <ele>2169.0</ele>
        <time>2018-07-14T13:00:40Z</time>
      </trkpt>
      <trkpt lat="40.522900" lon="-5.226717">
        <ele>2169.0</ele>
        <time>2018-07-14T13:00:41Z</time>
      </trkpt>
      <trkpt lat="40.522967" lon="-5.226650">
        <ele>2169.0</ele>
        <time>2018-07-14T13:00:42Z</time>
      </trkpt>
      <trkpt lat="40.523033" lon="-5.226567">
        <ele>2169.0</ele>
        <time>2018-07-14T13:00:43Z</time>
      </trkpt>
      <trkpt lat="40.523100" lon="-5.226500">
        <ele>2169.0</ele>
        <time>2018-07-14T13:00:44Z</time>
      </trkpt>
      <trkpt lat="40.523183" lon="-5.226433">
        <ele>2169.0</ele>
        <time>2018-07-14T13:00:45Z</time>
      </trkpt>
      <trkpt lat="40.523250" lon="-5.226367">
        <ele>2169.0</ele>
        <time>2018-07-14T13:00:46Z</time>
      </trkpt>
      <trkpt lat="40.523333" lon="-5.226300">
        <ele>2170.0</ele>
        <time>2018-07-14T13:00:47Z</time>
      </trkpt>
      <trkpt lat="40.523417" lon="-5.226233">
        <ele>2171.0</ele>
        <time>2018-07-14T13:00:48Z</time>
      </trkpt>
      <trkpt lat="40.523483" lon="-5.226183">
        <ele>2172.0</ele>
        <time>2018-07-14T13:00:49Z</time>
      </trkpt>
      <trkpt lat="40.523550" lon="-5.226117">
        <ele>2173.0</ele>
        <time>2018-07-14T13:00:50Z</time>
      </trkpt>
      <trkpt lat="40.523633" lon="-5.226067">
        <ele>2173.0</ele>
        <time>2018-07-14T13:00:51Z</time>
      </trkpt>
      <trkpt lat="40.523700" lon="-5.226000">
        <ele>2173.0</ele>
        <time>2018-07-14T13:00:52Z</time>
      </trkpt>
      <trkpt lat="40.523783" lon="-5.225933">
        <ele>2172.0</ele>
        <time>2018-07-14T13:00:53Z</time>
      </trkpt>
      <trkpt lat="40.523850" lon="-5.225867">
        <ele>2172.0</ele>
        <time>2018-07-14T13:00:54Z</time>
      </trkpt>
      <trkpt lat="40.523933" lon="-5.225800">
        <ele>2172.0</ele>
        <time>2018-07-14T13:00:55Z</time>
      </trkpt>
      <trkpt lat="40.524017" lon="-5.225733">
        <ele>2171.0</ele>
        <time>2018-07-14T13:00:56Z</time>
      </trkpt>
      <trkpt lat="40.524100" lon="-5.225667">
        <ele>2171.0</ele>
        <time>2018-07-14T13:00:57Z</time>
      </trkpt>
      <trkpt lat="40.524183" lon="-5.225600">
        <ele>2171.0</ele>
        <time>2018-07-14T13:00:58Z</time>
      </trkpt>
      <trkpt lat="40.524250" lon="-5.225533">
        <ele>2171.0</ele>
        <time>2018-07-14T13:00:59Z</time>
      </trkpt>
      <trkpt lat="40.524317" lon="-5.225483">
        <ele>2172.0</ele>
        <time>2018-07-14T13:01:00Z</time>
      </trkpt>
      <trkpt lat="40.524367" lon="-5.225417">
        <ele>2173.0</ele>
        <time>2018-07-14T13:01:01Z</time>
      </trkpt>
      <trkpt lat="40.524417" lon="-5.225350">
        <ele>2174.0</ele>
        <time>2018-07-14T13:01:02Z</time>
      </trkpt>
      <trkpt lat="40.524467" lon="-5.225300">
        <ele>2175.0</ele>
        <time>2018-07-14T13:01:03Z</time>
      </trkpt>
      <trkpt lat="40.524533" lon="-5.225233">
        <ele>2175.0</ele>
        <time>2018-07-14T13:01:04Z</time>
      </trkpt>
      <trkpt lat="40.524583" lon="-5.225150">
        <ele>2175.0</ele>
        <time>2018-07-14T13:01:05Z</time>
      </trkpt>
      <trkpt lat="40.524617" lon="-5.225067">
        <ele>2174.0</ele>
        <time>2018-07-14T13:01:06Z</time>
      </trkpt>
      <trkpt lat="40.524650" lon="-5.224983">
        <ele>2174.0</ele>
        <time>2018-07-14T13:01:07Z</time>
      </trkpt>
      <trkpt lat="40.524700" lon="-5.224900">
        <ele>2173.0</ele>
        <time>2018-07-14T13:01:08Z</time>
      </trkpt>
      <trkpt lat="40.524733" lon="-5.224833">
        <ele>2172.0</ele>
        <time>2018-07-14T13:01:09Z</time>
      </trkpt>
      <trkpt lat="40.524783" lon="-5.224750">
        <ele>2171.0</ele>
        <time>2018-07-14T13:01:10Z</time>
      </trkpt>
      <trkpt lat="40.524833" lon="-5.224667">
        <ele>2170.0</ele>
        <time>2018-07-14T13:01:11Z</time>
      </trkpt>
      <trkpt lat="40.524883" lon="-5.224600">
        <ele>2168.0</ele>
        <time>2018-07-14T13:01:12Z</time>
      </trkpt>
      <trkpt lat="40.524933" lon="-5.224533">
        <ele>2167.0</ele>
        <time>2018-07-14T13:01:13Z</time>
      </trkpt>
      <trkpt lat="40.524983" lon="-5.224467">
        <ele>2165.0</ele>
        <time>2018-07-14T13:01:14Z</time>
      </trkpt>
      <trkpt lat="40.525033" lon="-5.224383">
        <ele>2164.0</ele>
        <time>2018-07-14T13:01:15Z</time>
      </trkpt>
      <trkpt lat="40.525100" lon="-5.224317">
        <ele>2162.0</ele>
        <time>2018-07-14T13:01:16Z</time>
      </trkpt>
      <trkpt lat="40.525167" lon="-5.224250">
        <ele>2160.0</ele>
        <time>2018-07-14T13:01:17Z</time>
      </trkpt>
      <trkpt lat="40.525217" lon="-5.224167">
        <ele>2159.0</ele>
        <time>2018-07-14T13:01:18Z</time>
      </trkpt>
      <trkpt lat="40.525283" lon="-5.224100">
        <ele>2157.0</ele>
        <time>2018-07-14T13:01:19Z</time>
      </trkpt>
      <trkpt lat="40.525333" lon="-5.224017">
        <ele>2156.0</ele>
        <time>2018-07-14T13:01:20Z</time>
      </trkpt>
      <trkpt lat="40.525383" lon="-5.223933">
        <ele>2155.0</ele>
        <time>2018-07-14T13:01:21Z</time>
      </trkpt>
      <trkpt lat="40.525450" lon="-5.223867">
        <ele>2153.0</ele>
        <time>2018-07-14T13:01:22Z</time>
      </trkpt>
      <trkpt lat="40.525517" lon="-5.223800">
        <ele>2151.0</ele>
        <time>2018-07-14T13:01:23Z</time>
      </trkpt>
      <trkpt lat="40.525583" lon="-5.223733">
        <ele>2149.0</ele>
        <time>2018-07-14T13:01:24Z</time>
      </trkpt>
      <trkpt lat="40.525667" lon="-5.223650">
        <ele>2147.0</ele>
        <time>2018-07-14T13:01:25Z</time>
      </trkpt>
      <trkpt lat="40.525750" lon="-5.223550">
        <ele>2144.0</ele>
        <time>2018-07-14T13:01:26Z</time>
      </trkpt>
      <trkpt lat="40.525917" lon="-5.223433">
        <ele>2143.0</ele>
        <time>2018-07-14T13:01:28Z</time>
      </trkpt>
      <trkpt lat="40.526000" lon="-5.223383">
        <ele>2143.0</ele>
        <time>2018-07-14T13:01:29Z</time>
      </trkpt>
      <trkpt lat="40.526083" lon="-5.223317">
        <ele>2142.0</ele>
        <time>2018-07-14T13:01:30Z</time>
      </trkpt>
      <trkpt lat="40.526167" lon="-5.223250">
        <ele>2141.0</ele>
        <time>2018-07-14T13:01:31Z</time>
      </trkpt>
      <trkpt lat="40.526233" lon="-5.223183">
        <ele>2140.0</ele>
        <time>2018-07-14T13:01:32Z</time>
      </trkpt>
      <trkpt lat="40.526317" lon="-5.223133">
        <ele>2140.0</ele>
        <time>2018-07-14T13:01:33Z</time>
      </trkpt>
      <trkpt lat="40.526400" lon="-5.223067">
        <ele>2139.0</ele>
        <time>2018-07-14T13:01:34Z</time>
      </trkpt>
      <trkpt lat="40.526500" lon="-5.223000">
        <ele>2138.0</ele>
        <time>2018-07-14T13:01:35Z</time>
      </trkpt>
      <trkpt lat="40.526583" lon="-5.222933">
        <ele>2137.0</ele>
        <time>2018-07-14T13:01:36Z</time>
      </trkpt>
      <trkpt lat="40.526683" lon="-5.222867">
        <ele>2137.0</ele>
        <time>2018-07-14T13:01:37Z</time>
      </trkpt>
      <trkpt lat="40.526767" lon="-5.222783">
        <ele>2138.0</ele>
        <time>2018-07-14T13:01:38Z</time>
      </trkpt>
      <trkpt lat="40.526850" lon="-5.222717">
        <ele>2139.0</ele>
        <time>2018-07-14T13:01:39Z</time>
      </trkpt>
      <trkpt lat="40.526933" lon="-5.222667">
        <ele>2141.0</ele>
        <time>2018-07-14T13:01:40Z</time>
      </trkpt>
      <trkpt lat="40.527000" lon="-5.222617">
        <ele>2143.0</ele>
        <time>2018-07-14T13:01:41Z</time>
      </trkpt>
      <trkpt lat="40.527150" lon="-5.222450">
        <ele>2143.0</ele>
        <time>2018-07-14T13:01:43Z</time>
      </trkpt>
      <trkpt lat="40.527200" lon="-5.222350">
        <ele>2143.0</ele>
        <time>2018-07-14T13:01:44Z</time>
      </trkpt>
      <trkpt lat="40.527250" lon="-5.222150">
        <ele>2144.0</ele>
        <time>2018-07-14T13:01:46Z</time>
      </trkpt>
      <trkpt lat="40.527233" lon="-5.222033">
        <ele>2144.0</ele>
        <time>2018-07-14T13:01:47Z</time>
      </trkpt>
      <trkpt lat="40.527200" lon="-5.221933">
        <ele>2143.0</ele>
        <time>2018-07-14T13:01:48Z</time>
      </trkpt>
      <trkpt lat="40.527133" lon="-5.221867">
        <ele>2143.0</ele>
        <time>2018-07-14T13:01:49Z</time>
      </trkpt>
      <trkpt lat="40.527067" lon="-5.221867">
        <ele>2143.0</ele>
        <time>2018-07-14T13:01:50Z</time>
      </trkpt>
      <trkpt lat="40.527000" lon="-5.221917">
        <ele>2143.0</ele>
        <time>2018-07-14T13:01:51Z</time>
      </trkpt>
      <trkpt lat="40.526967" lon="-5.222000">
        <ele>2143.0</ele>
        <time>2018-07-14T13:01:52Z</time>
      </trkpt>
      <trkpt lat="40.526950" lon="-5.222100">
        <ele>2143.0</ele>
        <time>2018-07-14T13:01:53Z</time>
      </trkpt>
      <trkpt lat="40.526967" lon="-5.222183">
        <ele>2145.0</ele>
        <time>2018-07-14T13:01:54Z</time>
      </trkpt>
      <trkpt lat="40.526983" lon="-5.222267">
        <ele>2147.0</ele>
        <time>2018-07-14T13:01:55Z</time>
      </trkpt>
      <trkpt lat="40.527017" lon="-5.222317">
        <ele>2148.0</ele>
        <time>2018-07-14T13:01:56Z</time>
      </trkpt>
      <trkpt lat="40.527083" lon="-5.222383">
        <ele>2149.0</ele>
        <time>2018-07-14T13:01:57Z</time>
      </trkpt>
      <trkpt lat="40.527150" lon="-5.222450">
        <ele>2149.0</ele>
        <time>2018-07-14T13:01:58Z</time>
      </trkpt>
      <trkpt lat="40.527233" lon="-5.222483">
        <ele>2150.0</ele>
        <time>2018-07-14T13:01:59Z</time>
      </trkpt>
      <trkpt lat="40.527317" lon="-5.222500">
        <ele>2150.0</ele>
        <time>2018-07-14T13:02:00Z</time>
      </trkpt>
      <trkpt lat="40.527417" lon="-5.222483">
        <ele>2151.0</ele>
        <time>2018-07-14T13:02:01Z</time>
      </trkpt>
      <trkpt lat="40.527500" lon="-5.222417">
        <ele>2151.0</ele>
        <time>2018-07-14T13:02:02Z</time>
      </trkpt>
      <trkpt lat="40.527583" lon="-5.222333">
        <ele>2151.0</ele>
        <time>2018-07-14T13:02:03Z</time>
      </trkpt>
      <trkpt lat="40.527633" lon="-5.222233">
        <ele>2151.0</ele>
        <time>2018-07-14T13:02:04Z</time>
      </trkpt>
      <trkpt lat="40.527683" lon="-5.222133">
        <ele>2152.0</ele>
        <time>2018-07-14T13:02:05Z</time>
      </trkpt>
      <trkpt lat="40.527700" lon="-5.222017">
        <ele>2152.0</ele>
        <time>2018-07-14T13:02:06Z</time>
      </trkpt>
      <trkpt lat="40.527683" lon="-5.221900">
        <ele>2152.0</ele>
        <time>2018-07-14T13:02:07Z</time>
      </trkpt>
      <trkpt lat="40.527650" lon="-5.221767">
        <ele>2153.0</ele>
        <time>2018-07-14T13:02:08Z</time>
      </trkpt>
      <trkpt lat="40.527617" lon="-5.221667">
        <ele>2153.0</ele>
        <time>2018-07-14T13:02:09Z</time>
      </trkpt>
      <trkpt lat="40.527550" lon="-5.221567">
        <ele>2154.0</ele>
        <time>2018-07-14T13:02:10Z</time>
      </trkpt>
      <trkpt lat="40.527500" lon="-5.221500">
        <ele>2155.0</ele>
        <time>2018-07-14T13:02:11Z</time>
      </trkpt>
      <trkpt lat="40.527417" lon="-5.221433">
        <ele>2157.0</ele>
        <time>2018-07-14T13:02:12Z</time>
      </trkpt>
      <trkpt lat="40.527350" lon="-5.221400">
        <ele>2159.0</ele>
        <time>2018-07-14T13:02:13Z</time>
      </trkpt>
      <trkpt lat="40.527283" lon="-5.221383">
        <ele>2162.0</ele>
        <time>2018-07-14T13:02:14Z</time>
      </trkpt>
      <trkpt lat="40.527217" lon="-5.221367">
        <ele>2164.0</ele>
        <time>2018-07-14T13:02:15Z</time>
      </trkpt>
      <trkpt lat="40.527150" lon="-5.221383">
        <ele>2166.0</ele>
        <time>2018-07-14T13:02:16Z</time>
      </trkpt>
      <trkpt lat="40.527083" lon="-5.221417">
        <ele>2169.0</ele>
        <time>2018-07-14T13:02:17Z</time>
      </trkpt>
      <trkpt lat="40.527050" lon="-5.221483">
        <ele>2172.0</ele>
        <time>2018-07-14T13:02:18Z</time>
      </trkpt>
      <trkpt lat="40.527050" lon="-5.221567">
        <ele>2173.0</ele>
        <time>2018-07-14T13:02:19Z</time>
      </trkpt>
      <trkpt lat="40.527067" lon="-5.221650">
        <ele>2173.0</ele>
        <time>2018-07-14T13:02:20Z</time>
      </trkpt>
      <trkpt lat="40.527133" lon="-5.221717">
        <ele>2174.0</ele>
        <time>2018-07-14T13:02:21Z</time>
      </trkpt>
      <trkpt lat="40.527217" lon="-5.221750">
        <ele>2175.0</ele>
        <time>2018-07-14T13:02:22Z</time>
      </trkpt>
      <trkpt lat="40.527300" lon="-5.221733">
        <ele>2177.0</ele>
        <time>2018-07-14T13:02:23Z</time>
      </trkpt>
      <trkpt lat="40.527383" lon="-5.221667">
        <ele>2178.0</ele>
        <time>2018-07-14T13:02:24Z</time>
      </trkpt>
      <trkpt lat="40.527467" lon="-5.221567">
        <ele>2179.0</ele>
        <time>2018-07-14T13:02:25Z</time>
      </trkpt>
      <trkpt lat="40.527517" lon="-5.221433">
        <ele>2179.0</ele>
        <time>2018-07-14T13:02:26Z</time>
      </trkpt>
      <trkpt lat="40.527533" lon="-5.221283">
        <ele>2180.0</ele>
        <time>2018-07-14T13:02:27Z</time>
      </trkpt>
      <trkpt lat="40.527517" lon="-5.221150">
        <ele>2181.0</ele>
        <time>2018-07-14T13:02:28Z</time>
      </trkpt>
      <trkpt lat="40.527483" lon="-5.221017">
        <ele>2182.0</ele>
        <time>2018-07-14T13:02:29Z</time>
      </trkpt>
      <trkpt lat="40.527417" lon="-5.220900">
        <ele>2184.0</ele>
        <time>2018-07-14T13:02:30Z</time>
      </trkpt>
      <trkpt lat="40.527367" lon="-5.220817">
        <ele>2189.0</ele>
        <time>2018-07-14T13:02:31Z</time>
      </trkpt>
      <trkpt lat="40.527300" lon="-5.220800">
        <ele>2193.0</ele>
        <time>2018-07-14T13:02:32Z</time>
      </trkpt>
      <trkpt lat="40.527250" lon="-5.220783">
        <ele>2197.0</ele>
        <time>2018-07-14T13:02:33Z</time>
      </trkpt>
      <trkpt lat="40.527183" lon="-5.220800">
        <ele>2200.0</ele>
        <time>2018-07-14T13:02:34Z</time>
      </trkpt>
      <trkpt lat="40.527100" lon="-5.220817">
        <ele>2203.0</ele>
        <time>2018-07-14T13:02:35Z</time>
      </trkpt>
      <trkpt lat="40.527033" lon="-5.220833">
        <ele>2206.0</ele>
        <time>2018-07-14T13:02:36Z</time>
      </trkpt>
      <trkpt lat="40.526983" lon="-5.220900">
        <ele>2209.0</ele>
        <time>2018-07-14T13:02:37Z</time>
      </trkpt>
      <trkpt lat="40.526950" lon="-5.220967">
        <ele>2212.0</ele>
        <time>2018-07-14T13:02:38Z</time>
      </trkpt>
      <trkpt lat="40.526950" lon="-5.221067">
        <ele>2214.0</ele>
        <time>2018-07-14T13:02:39Z</time>
      </trkpt>
      <trkpt lat="40.526983" lon="-5.221150">
        <ele>2214.0</ele>
        <time>2018-07-14T13:02:40Z</time>
      </trkpt>
      <trkpt lat="40.527050" lon="-5.221233">
        <ele>2216.0</ele>
        <time>2018-07-14T13:02:41Z</time>
      </trkpt>
      <trkpt lat="40.527150" lon="-5.221250">
        <ele>2218.0</ele>
        <time>2018-07-14T13:02:42Z</time>
      </trkpt>
      <trkpt lat="40.527233" lon="-5.221217">
        <ele>2219.0</ele>
        <time>2018-07-14T13:02:43Z</time>
      </trkpt>
      <trkpt lat="40.527300" lon="-5.221133">
        <ele>2221.0</ele>
        <time>2018-07-14T13:02:44Z</time>
      </trkpt>
      <trkpt lat="40.527350" lon="-5.221000">
        <ele>2221.0</ele>
        <time>2018-07-14T13:02:45Z</time>
      </trkpt>
      <trkpt lat="40.527367" lon="-5.220867">
        <ele>2222.0</ele>
        <time>2018-07-14T13:02:46Z</time>
      </trkpt>
      <trkpt lat="40.527367" lon="-5.220717">
        <ele>2223.0</ele>
        <time>2018-07-14T13:02:47Z</time>
      </trkpt>
      <trkpt lat="40.527317" lon="-5.220600">
        <ele>2224.0</ele>
        <time>2018-07-14T13:02:48Z</time>
      </trkpt>
      <trkpt lat="40.527250" lon="-5.220517">
        <ele>2227.0</ele>
        <time>2018-07-14T13:02:49Z</time>
      </trkpt>
      <trkpt lat="40.527183" lon="-5.220467">
        <ele>2231.0</ele>
        <time>2018-07-14T13:02:50Z</time>
      </trkpt>
      <trkpt lat="40.527133" lon="-5.220400">
        <ele>2236.0</ele>
        <time>2018-07-14T13:02:51Z</time>
      </trkpt>
      <trkpt lat="40.527083" lon="-5.220367">
        <ele>2240.0</ele>
        <time>2018-07-14T13:02:52Z</time>
      </trkpt>
      <trkpt lat="40.527017" lon="-5.220317">
        <ele>2243.0</ele>
        <time>2018-07-14T13:02:53Z</time>
      </trkpt>
      <trkpt lat="40.526933" lon="-5.220300">
        <ele>2245.0</ele>
        <time>2018-07-14T13:02:54Z</time>
      </trkpt>
      <trkpt lat="40.526850" lon="-5.220317">
        <ele>2247.0</ele>
        <time>2018-07-14T13:02:55Z</time>
      </trkpt>
      <trkpt lat="40.526767" lon="-5.220383">
        <ele>2250.0</ele>
        <time>2018-07-14T13:02:56Z</time>
      </trkpt>
      <trkpt lat="40.526733" lon="-5.220483">
        <ele>2252.0</ele>
        <time>2018-07-14T13:02:57Z</time>
      </trkpt>
      <trkpt lat="40.526733" lon="-5.220583">
        <ele>2255.0</ele>
        <time>2018-07-14T13:02:58Z</time>
      </trkpt>
      <trkpt lat="40.526750" lon="-5.220700">
        <ele>2257.0</ele>
        <time>2018-07-14T13:02:59Z</time>
      </trkpt>
      <trkpt lat="40.526800" lon="-5.220783">
        <ele>2261.0</ele>
        <time>2018-07-14T13:03:00Z</time>
      </trkpt>
      <trkpt lat="40.526850" lon="-5.220833">
        <ele>2265.0</ele>
        <time>2018-07-14T13:03:01Z</time>
      </trkpt>
      <trkpt lat="40.526917" lon="-5.220867">
        <ele>2267.0</ele>
        <time>2018-07-14T13:03:02Z</time>
      </trkpt>
      <trkpt lat="40.527000" lon="-5.220867">
        <ele>2268.0</ele>
        <time>2018-07-14T13:03:03Z</time>
      </trkpt>
      <trkpt lat="40.527083" lon="-5.220817">
        <ele>2270.0</ele>
        <time>2018-07-14T13:03:04Z</time>
      </trkpt>
      <trkpt lat="40.527150" lon="-5.220733">
        <ele>2272.0</ele>
        <time>2018-07-14T13:03:05Z</time>
      </trkpt>
      <trkpt lat="40.527217" lon="-5.220617">
        <ele>2273.0</ele>
        <time>2018-07-14T13:03:06Z</time>
      </trkpt>
      <trkpt lat="40.527233" lon="-5.220467">
        <ele>2275.0</ele>
        <time>2018-07-14T13:03:07Z</time>
      </trkpt>
      <trkpt lat="40.527217" lon="-5.220333">
        <ele>2277.0</ele>
        <time>2018-07-14T13:03:08Z</time>
      </trkpt>
      <trkpt lat="40.527167" lon="-5.220233">
        <ele>2279.0</ele>
        <time>2018-07-14T13:03:09Z</time>
      </trkpt>
      <trkpt lat="40.527117" lon="-5.220150">
        <ele>2282.0</ele>
        <time>2018-07-14T13:03:10Z</time>
      </trkpt>
      <trkpt lat="40.527033" lon="-5.220100">
        <ele>2285.0</ele>
        <time>2018-07-14T13:03:11Z</time>
      </trkpt>
      <trkpt lat="40.526950" lon="-5.220083">
        <ele>2288.0</ele>
        <time>2018-07-14T13:03:12Z</time>
      </trkpt>
      <trkpt lat="40.526867" lon="-5.220117">
        <ele>2292.0</ele>
        <time>2018-07-14T13:03:13Z</time>
      </trkpt>
      <trkpt lat="40.526800" lon="-5.220150">
        <ele>2295.0</ele>
        <time>2018-07-14T13:03:14Z</time>
      </trkpt>
      <trkpt lat="40.526750" lon="-5.220200">
        <ele>2294.0</ele>
        <time>2018-07-14T13:03:15Z</time>
      </trkpt>
      <trkpt lat="40.526750" lon="-5.220300">
        <ele>2294.0</ele>
        <time>2018-07-14T13:03:16Z</time>
      </trkpt>
      <trkpt lat="40.526767" lon="-5.220433">
        <ele>2295.0</ele>
        <time>2018-07-14T13:03:17Z</time>
      </trkpt>
      <trkpt lat="40.526833" lon="-5.220517">
        <ele>2297.0</ele>
        <time>2018-07-14T13:03:18Z</time>
      </trkpt>
      <trkpt lat="40.527033" lon="-5.220467">
        <ele>2300.0</ele>
        <time>2018-07-14T13:03:20Z</time>
      </trkpt>
      <trkpt lat="40.527083" lon="-5.220350">
        <ele>2301.0</ele>
        <time>2018-07-14T13:03:21Z</time>
      </trkpt>
      <trkpt lat="40.527117" lon="-5.220233">
        <ele>2304.0</ele>
        <time>2018-07-14T13:03:22Z</time>
      </trkpt>
      <trkpt lat="40.527117" lon="-5.220100">
        <ele>2307.0</ele>
        <time>2018-07-14T13:03:23Z</time>
      </trkpt>
      <trkpt lat="40.527083" lon="-5.219967">
        <ele>2310.0</ele>
        <time>2018-07-14T13:03:24Z</time>
      </trkpt>
      <trkpt lat="40.527033" lon="-5.219867">
        <ele>2313.0</ele>
        <time>2018-07-14T13:03:25Z</time>
      </trkpt>
      <trkpt lat="40.526950" lon="-5.219783">
        <ele>2317.0</ele>
        <time>2018-07-14T13:03:26Z</time>
      </trkpt>
      <trkpt lat="40.526867" lon="-5.219750">
        <ele>2320.0</ele>
        <time>2018-07-14T13:03:27Z</time>
      </trkpt>
      <trkpt lat="40.526783" lon="-5.219750">
        <ele>2324.0</ele>
        <time>2018-07-14T13:03:28Z</time>
      </trkpt>
      <trkpt lat="40.526717" lon="-5.219800">
        <ele>2327.0</ele>
        <time>2018-07-14T13:03:29Z</time>
      </trkpt>
      <trkpt lat="40.526683" lon="-5.219867">
        <ele>2330.0</ele>
        <time>2018-07-14T13:03:30Z</time>
      </trkpt>
      <trkpt lat="40.526683" lon="-5.219967">
        <ele>2334.0</ele>
        <time>2018-07-14T13:03:31Z</time>
      </trkpt>
      <trkpt lat="40.526700" lon="-5.220067">
        <ele>2337.0</ele>
        <time>2018-07-14T13:03:32Z</time>
      </trkpt>
      <trkpt lat="40.526767" lon="-5.220167">
        <ele>2340.0</ele>
        <time>2018-07-14T13:03:33Z</time>
      </trkpt>
      <trkpt lat="40.526850" lon="-5.220233">
        <ele>2342.0</ele>
        <time>2018-07-14T13:03:34Z</time>
      </trkpt>
      <trkpt lat="40.527050" lon="-5.220150">
        <ele>2347.0</ele>
        <time>2018-07-14T13:03:36Z</time>
      </trkpt>
      <trkpt lat="40.527117" lon="-5.220017">
        <ele>2349.0</ele>
        <time>2018-07-14T13:03:37Z</time>
      </trkpt>
      <trkpt lat="40.527133" lon="-5.219750">
        <ele>2354.0</ele>
        <time>2018-07-14T13:03:39Z</time>
      </trkpt>
      <trkpt lat="40.527100" lon="-5.219617">
        <ele>2357.0</ele>
        <time>2018-07-14T13:03:40Z</time>
      </trkpt>
      <trkpt lat="40.527033" lon="-5.219550">
        <ele>2360.0</ele>
        <time>2018-07-14T13:03:41Z</time>
      </trkpt>
      <trkpt lat="40.526933" lon="-5.219517">
        <ele>2362.0</ele>
        <time>2018-07-14T13:03:42Z</time>
      </trkpt>
      <trkpt lat="40.526867" lon="-5.219550">
        <ele>2364.0</ele>
        <time>2018-07-14T13:03:43Z</time>
      </trkpt>
      <trkpt lat="40.526817" lon="-5.219617">
        <ele>2367.0</ele>
        <time>2018-07-14T13:03:44Z</time>
      </trkpt>
      <trkpt lat="40.526800" lon="-5.219700">
        <ele>2370.0</ele>
        <time>2018-07-14T13:03:45Z</time>
      </trkpt>
      <trkpt lat="40.526783" lon="-5.219783">
        <ele>2376.0</ele>
        <time>2018-07-14T13:03:46Z</time>
      </trkpt>
      <trkpt lat="40.526800" lon="-5.219883">
        <ele>2379.0</ele>
        <time>2018-07-14T13:03:47Z</time>
      </trkpt>
      <trkpt lat="40.526850" lon="-5.219983">
        <ele>2382.0</ele>
        <time>2018-07-14T13:03:48Z</time>
      </trkpt>
      <trkpt lat="40.526933" lon="-5.220050">
        <ele>2385.0</ele>
        <time>2018-07-14T13:03:49Z</time>
      </trkpt>
      <trkpt lat="40.527033" lon="-5.220050">
        <ele>2388.0</ele>
        <time>2018-07-14T13:03:50Z</time>
      </trkpt>
      <trkpt lat="40.527200" lon="-5.219900">
        <ele>2393.0</ele>
        <time>2018-07-14T13:03:52Z</time>
      </trkpt>
      <trkpt lat="40.527250" lon="-5.219767">
        <ele>2396.0</ele>
        <time>2018-07-14T13:03:53Z</time>
      </trkpt>
      <trkpt lat="40.527250" lon="-5.219633">
        <ele>2400.0</ele>
        <time>2018-07-14T13:03:54Z</time>
      </trkpt>
      <trkpt lat="40.527233" lon="-5.219517">
        <ele>2404.0</ele>
        <time>2018-07-14T13:03:55Z</time>
      </trkpt>
      <trkpt lat="40.527183" lon="-5.219433">
        <ele>2407.0</ele>
        <time>2018-07-14T13:03:56Z</time>
      </trkpt>
      <trkpt lat="40.527133" lon="-5.219350">
        <ele>2410.0</ele>
        <time>2018-07-14T13:03:57Z</time>
      </trkpt>
      <trkpt lat="40.527067" lon="-5.219283">
        <ele>2413.0</ele>
        <time>2018-07-14T13:03:58Z</time>
      </trkpt>
      <trkpt lat="40.527000" lon="-5.219250">
        <ele>2416.0</ele>
        <time>2018-07-14T13:03:59Z</time>
      </trkpt>
      <trkpt lat="40.526933" lon="-5.219267">
        <ele>2418.0</ele>
        <time>2018-07-14T13:04:00Z</time>
      </trkpt>
      <trkpt lat="40.526900" lon="-5.219317">
        <ele>2420.0</ele>
        <time>2018-07-14T13:04:01Z</time>
      </trkpt>
      <trkpt lat="40.526867" lon="-5.219400">
        <ele>2421.0</ele>
        <time>2018-07-14T13:04:02Z</time>
      </trkpt>
      <trkpt lat="40.526883" lon="-5.219500">
        <ele>2423.0</ele>
        <time>2018-07-14T13:04:03Z</time>
      </trkpt>
      <trkpt lat="40.526917" lon="-5.219583">
        <ele>2425.0</ele>
        <time>2018-07-14T13:04:04Z</time>
      </trkpt>
      <trkpt lat="40.526983" lon="-5.219683">
        <ele>2427.0</ele>
        <time>2018-07-14T13:04:05Z</time>
      </trkpt>
      <trkpt lat="40.527067" lon="-5.219750">
        <ele>2429.0</ele>
        <time>2018-07-14T13:04:06Z</time>
      </trkpt>
      <trkpt lat="40.527167" lon="-5.219817">
        <ele>2430.0</ele>
        <time>2018-07-14T13:04:07Z</time>
      </trkpt>
      <trkpt lat="40.527267" lon="-5.219850">
        <ele>2432.0</ele>
        <time>2018-07-14T13:04:08Z</time>
      </trkpt>
      <trkpt lat="40.527383" lon="-5.219850">
        <ele>2434.0</ele>
        <time>2018-07-14T13:04:09Z</time>
      </trkpt>
      <trkpt lat="40.527467" lon="-5.219817">
        <ele>2436.0</ele>
        <time>2018-07-14T13:04:10Z</time>
      </trkpt>
      <trkpt lat="40.527550" lon="-5.219750">
        <ele>2439.0</ele>
        <time>2018-07-14T13:04:11Z</time>
      </trkpt>
      <trkpt lat="40.527617" lon="-5.219667">
        <ele>2442.0</ele>
        <time>2018-07-14T13:04:12Z</time>
      </trkpt>
      <trkpt lat="40.527650" lon="-5.219550">
        <ele>2445.0</ele>
        <time>2018-07-14T13:04:13Z</time>
      </trkpt>
      <trkpt lat="40.527650" lon="-5.219450">
        <ele>2448.0</ele>
        <time>2018-07-14T13:04:14Z</time>
      </trkpt>
      <trkpt lat="40.527617" lon="-5.219350">
        <ele>2451.0</ele>
        <time>2018-07-14T13:04:15Z</time>
      </trkpt>
      <trkpt lat="40.527583" lon="-5.219283">
        <ele>2454.0</ele>
        <time>2018-07-14T13:04:16Z</time>
      </trkpt>
      <trkpt lat="40.527533" lon="-5.219250">
        <ele>2458.0</ele>
        <time>2018-07-14T13:04:17Z</time>
      </trkpt>
      <trkpt lat="40.527517" lon="-5.219283">
        <ele>2462.0</ele>
        <time>2018-07-14T13:04:18Z</time>
      </trkpt>
      <trkpt lat="40.527500" lon="-5.219333">
        <ele>2465.0</ele>
        <time>2018-07-14T13:04:19Z</time>
      </trkpt>
      <trkpt lat="40.527483" lon="-5.219400">
        <ele>2468.0</ele>
        <time>2018-07-14T13:04:20Z</time>
      </trkpt>
      <trkpt lat="40.527483" lon="-5.219500">
        <ele>2471.0</ele>
        <time>2018-07-14T13:04:21Z</time>
      </trkpt>
      <trkpt lat="40.527483" lon="-5.219600">
        <ele>2475.0</ele>
        <time>2018-07-14T13:04:22Z</time>
      </trkpt>
      <trkpt lat="40.527533" lon="-5.219700">
        <ele>2477.0</ele>
        <time>2018-07-14T13:04:23Z</time>
      </trkpt>
      <trkpt lat="40.527583" lon="-5.219817">
        <ele>2480.0</ele>
        <time>2018-07-14T13:04:24Z</time>
      </trkpt>
      <trkpt lat="40.527667" lon="-5.219917">
        <ele>2482.0</ele>
        <time>2018-07-14T13:04:25Z</time>
      </trkpt>
      <trkpt lat="40.527767" lon="-5.220000">
        <ele>2485.0</ele>
        <time>2018-07-14T13:04:26Z</time>
      </trkpt>
      <trkpt lat="40.527883" lon="-5.220017">
        <ele>2489.0</ele>
        <time>2018-07-14T13:04:27Z</time>
      </trkpt>
      <trkpt lat="40.527983" lon="-5.219967">
        <ele>2493.0</ele>
        <time>2018-07-14T13:04:28Z</time>
      </trkpt>
      <trkpt lat="40.528083" lon="-5.219900">
        <ele>2495.0</ele>
        <time>2018-07-14T13:04:29Z</time>
      </trkpt>
      <trkpt lat="40.528150" lon="-5.219800">
        <ele>2498.0</ele>
        <time>2018-07-14T13:04:30Z</time>
      </trkpt>
      <trkpt lat="40.528200" lon="-5.219700">
        <ele>2501.0</ele>
        <time>2018-07-14T13:04:31Z</time>
      </trkpt>
      <trkpt lat="40.528217" lon="-5.219600">
        <ele>2505.0</ele>
        <time>2018-07-14T13:04:32Z</time>
      </trkpt>
      <trkpt lat="40.528200" lon="-5.219500">
        <ele>2507.0</ele>
        <time>2018-07-14T13:04:33Z</time>
      </trkpt>
      <trkpt lat="40.528167" lon="-5.219433">
        <ele>2509.0</ele>
        <time>2018-07-14T13:04:34Z</time>
      </trkpt>
      <trkpt lat="40.528100" lon="-5.219417">
        <ele>2511.0</ele>
        <time>2018-07-14T13:04:35Z</time>
      </trkpt>
      <trkpt lat="40.528067" lon="-5.219483">
        <ele>2514.0</ele>
        <time>2018-07-14T13:04:36Z</time>
      </trkpt>
      <trkpt lat="40.528067" lon="-5.219567">
        <ele>2517.0</ele>
        <time>2018-07-14T13:04:37Z</time>
      </trkpt>
      <trkpt lat="40.528100" lon="-5.219683">
        <ele>2520.0</ele>
        <time>2018-07-14T13:04:38Z</time>
      </trkpt>
      <trkpt lat="40.528150" lon="-5.219800">
        <ele>2524.0</ele>
        <time>2018-07-14T13:04:39Z</time>
      </trkpt>
      <trkpt lat="40.528250" lon="-5.219883">
        <ele>2528.0</ele>
        <time>2018-07-14T13:04:40Z</time>
      </trkpt>
      <trkpt lat="40.528367" lon="-5.219917">
        <ele>2531.0</ele>
        <time>2018-07-14T13:04:41Z</time>
      </trkpt>
      <trkpt lat="40.528467" lon="-5.219900">
        <ele>2534.0</ele>
        <time>2018-07-14T13:04:42Z</time>
      </trkpt>
      <trkpt lat="40.528567" lon="-5.219800">
        <ele>2537.0</ele>
        <time>2018-07-14T13:04:43Z</time>
      </trkpt>
      <trkpt lat="40.528617" lon="-5.219683">
        <ele>2539.0</ele>
        <time>2018-07-14T13:04:44Z</time>
      </trkpt>
      <trkpt lat="40.528650" lon="-5.219550">
        <ele>2540.0</ele>
        <time>2018-07-14T13:04:45Z</time>
      </trkpt>
      <trkpt lat="40.528650" lon="-5.219433">
        <ele>2542.0</ele>
        <time>2018-07-14T13:04:46Z</time>
      </trkpt>
      <trkpt lat="40.528633" lon="-5.219317">
        <ele>2544.0</ele>
        <time>2018-07-14T13:04:47Z</time>
      </trkpt>
      <trkpt lat="40.528617" lon="-5.219233">
        <ele>2546.0</ele>
        <time>2018-07-14T13:04:48Z</time>
      </trkpt>
      <trkpt lat="40.528583" lon="-5.219150">
        <ele>2548.0</ele>
        <time>2018-07-14T13:04:49Z</time>
      </trkpt>
      <trkpt lat="40.528550" lon="-5.219083">
        <ele>2551.0</ele>
        <time>2018-07-14T13:04:50Z</time>
      </trkpt>
      <trkpt lat="40.528500" lon="-5.219050">
        <ele>2553.0</ele>
        <time>2018-07-14T13:04:51Z</time>
      </trkpt>
      <trkpt lat="40.528433" lon="-5.219067">
        <ele>2555.0</ele>
        <time>2018-07-14T13:04:52Z</time>
      </trkpt>
      <trkpt lat="40.528383" lon="-5.219117">
        <ele>2557.0</ele>
        <time>2018-07-14T13:04:53Z</time>
      </trkpt>
      <trkpt lat="40.528383" lon="-5.219200">
        <ele>2562.0</ele>
        <time>2018-07-14T13:04:54Z</time>
      </trkpt>
      <trkpt lat="40.528400" lon="-5.219300">
        <ele>2565.0</ele>
        <time>2018-07-14T13:04:55Z</time>
      </trkpt>
      <trkpt lat="40.528450" lon="-5.219400">
        <ele>2568.0</ele>
        <time>2018-07-14T13:04:56Z</time>
      </trkpt>
      <trkpt lat="40.528533" lon="-5.219500">
        <ele>2571.0</ele>
        <time>2018-07-14T13:04:57Z</time>
      </trkpt>
      <trkpt lat="40.528650" lon="-5.219567">
        <ele>2575.0</ele>
        <time>2018-07-14T13:04:58Z</time>
      </trkpt>
      <trkpt lat="40.528900" lon="-5.219500">
        <ele>2580.0</ele>
        <time>2018-07-14T13:05:00Z</time>
      </trkpt>
      <trkpt lat="40.528967" lon="-5.219400">
        <ele>2583.0</ele>
        <time>2018-07-14T13:05:01Z</time>
      </trkpt>
      <trkpt lat="40.529017" lon="-5.219267">
        <ele>2585.0</ele>
        <time>2018-07-14T13:05:02Z</time>
      </trkpt>
      <trkpt lat="40.529017" lon="-5.219150">
        <ele>2587.0</ele>
        <time>2018-07-14T13:05:03Z</time>
      </trkpt>
      <trkpt lat="40.528983" lon="-5.219050">
        <ele>2588.0</ele>
        <time>2018-07-14T13:05:04Z</time>
      </trkpt>
      <trkpt lat="40.528950" lon="-5.218950">
        <ele>2590.0</ele>
        <time>2018-07-14T13:05:05Z</time>
      </trkpt>
      <trkpt lat="40.528900" lon="-5.218883">
        <ele>2592.0</ele>
        <time>2018-07-14T13:05:06Z</time>
      </trkpt>
      <trkpt lat="40.528833" lon="-5.218867">
        <ele>2593.0</ele>
        <time>2018-07-14T13:05:07Z</time>
      </trkpt>
      <trkpt lat="40.528767" lon="-5.218900">
        <ele>2594.0</ele>
        <time>2018-07-14T13:05:08Z</time>
      </trkpt>
      <trkpt lat="40.528717" lon="-5.218967">
        <ele>2595.0</ele>
        <time>2018-07-14T13:05:09Z</time>
      </trkpt>
      <trkpt lat="40.528700" lon="-5.219083">
        <ele>2599.0</ele>
        <time>2018-07-14T13:05:10Z</time>
      </trkpt>
      <trkpt lat="40.528717" lon="-5.219183">
        <ele>2602.0</ele>
        <time>2018-07-14T13:05:11Z</time>
      </trkpt>
      <trkpt lat="40.528783" lon="-5.219300">
        <ele>2606.0</ele>
        <time>2018-07-14T13:05:12Z</time>
      </trkpt>
      <trkpt lat="40.528850" lon="-5.219400">
        <ele>2610.0</ele>
        <time>2018-07-14T13:05:13Z</time>
      </trkpt>
      <trkpt lat="40.528933" lon="-5.219500">
        <ele>2614.0</ele>
        <time>2018-07-14T13:05:14Z</time>
      </trkpt>
      <trkpt lat="40.529017" lon="-5.219567">
        <ele>2617.0</ele>
        <time>2018-07-14T13:05:15Z</time>
      </trkpt>
      <trkpt lat="40.529117" lon="-5.219633">
        <ele>2619.0</ele>
        <time>2018-07-14T13:05:16Z</time>
      </trkpt>
      <trkpt lat="40.529233" lon="-5.219667">
        <ele>2621.0</ele>
        <time>2018-07-14T13:05:17Z</time>
      </trkpt>
      <trkpt lat="40.529467" lon="-5.219600">
        <ele>2624.0</ele>
        <time>2018-07-14T13:05:19Z</time>
      </trkpt>
      <trkpt lat="40.529550" lon="-5.219517">
        <ele>2625.0</ele>
        <time>2018-07-14T13:05:20Z</time>
      </trkpt>
      <trkpt lat="40.529600" lon="-5.219417">
        <ele>2625.0</ele>
        <time>2018-07-14T13:05:21Z</time>
      </trkpt>
      <trkpt lat="40.529650" lon="-5.219317">
        <ele>2626.0</ele>
        <time>2018-07-14T13:05:22Z</time>
      </trkpt>
      <trkpt lat="40.529667" lon="-5.219233">
        <ele>2626.0</ele>
        <time>2018-07-14T13:05:23Z</time>
      </trkpt>
      <trkpt lat="40.529667" lon="-5.219133">
        <ele>2626.0</ele>
        <time>2018-07-14T13:05:24Z</time>
      </trkpt>
      <trkpt lat="40.529633" lon="-5.219050">
        <ele>2625.0</ele>
        <time>2018-07-14T13:05:25Z</time>
      </trkpt>
      <trkpt lat="40.529583" lon="-5.218967">
        <ele>2624.0</ele>
        <time>2018-07-14T13:05:26Z</time>
      </trkpt>
      <trkpt lat="40.529500" lon="-5.218933">
        <ele>2624.0</ele>
        <time>2018-07-14T13:05:27Z</time>
      </trkpt>
      <trkpt lat="40.529433" lon="-5.218933">
        <ele>2624.0</ele>
        <time>2018-07-14T13:05:28Z</time>
      </trkpt>
      <trkpt lat="40.529383" lon="-5.218950">
        <ele>2624.0</ele>
        <time>2018-07-14T13:05:29Z</time>
      </trkpt>
      <trkpt lat="40.529350" lon="-5.218983">
        <ele>2626.0</ele>
        <time>2018-07-14T13:05:30Z</time>
      </trkpt>
      <trkpt lat="40.529317" lon="-5.219033">
        <ele>2628.0</ele>
        <time>2018-07-14T13:05:31Z</time>
      </trkpt>
      <trkpt lat="40.529300" lon="-5.219100">
        <ele>2630.0</ele>
        <time>2018-07-14T13:05:32Z</time>
      </trkpt>
      <trkpt lat="40.529283" lon="-5.219167">
        <ele>2632.0</ele>
        <time>2018-07-14T13:05:33Z</time>
      </trkpt>
      <trkpt lat="40.529283" lon="-5.219267">
        <ele>2634.0</ele>
        <time>2018-07-14T13:05:34Z</time>
      </trkpt>
      <trkpt lat="40.529283" lon="-5.219367">
        <ele>2637.0</ele>
        <time>2018-07-14T13:05:35Z</time>
      </trkpt>
      <trkpt lat="40.529317" lon="-5.219467">
        <ele>2640.0</ele>
        <time>2018-07-14T13:05:36Z</time>
      </trkpt>
      <trkpt lat="40.529350" lon="-5.219567">
        <ele>2643.0</ele>
        <time>2018-07-14T13:05:37Z</time>
      </trkpt>
      <trkpt lat="40.529400" lon="-5.219650">
        <ele>2647.0</ele>
        <time>2018-07-14T13:05:38Z</time>
      </trkpt>
      <trkpt lat="40.529433" lon="-5.219717">
        <ele>2650.0</ele>
        <time>2018-07-14T13:05:39Z</time>
      </trkpt>
      <trkpt lat="40.529483" lon="-5.219800">
        <ele>2652.0</ele>
        <time>2018-07-14T13:05:40Z</time>
      </trkpt>
      <trkpt lat="40.529550" lon="-5.219850">
        <ele>2653.0</ele>
        <time>2018-07-14T13:05:41Z</time>
      </trkpt>
      <trkpt lat="40.529650" lon="-5.219900">
        <ele>2654.0</ele>
        <time>2018-07-14T13:05:42Z</time>
      </trkpt>
      <trkpt lat="40.529750" lon="-5.219933">
        <ele>2655.0</ele>
        <time>2018-07-14T13:05:43Z</time>
      </trkpt>
      <trkpt lat="40.529850" lon="-5.219933">
        <ele>2656.0</ele>
        <time>2018-07-14T13:05:44Z</time>
      </trkpt>
      <trkpt lat="40.529950" lon="-5.219900">
        <ele>2657.0</ele>
        <time>2018-07-14T13:05:45Z</time>
      </trkpt>
      <trkpt lat="40.530033" lon="-5.219833">
        <ele>2658.0</ele>
        <time>2018-07-14T13:05:46Z</time>
      </trkpt>
      <trkpt lat="40.530100" lon="-5.219733">
        <ele>2659.0</ele>
        <time>2018-07-14T13:05:47Z</time>
      </trkpt>
      <trkpt lat="40.530133" lon="-5.219633">
        <ele>2659.0</ele>
        <time>2018-07-14T13:05:48Z</time>
      </trkpt>
      <trkpt lat="40.530150" lon="-5.219517">
        <ele>2660.0</ele>
        <time>2018-07-14T13:05:49Z</time>
      </trkpt>
      <trkpt lat="40.530150" lon="-5.219317">
        <ele>2659.0</ele>
        <time>2018-07-14T13:05:51Z</time>
      </trkpt>
      <trkpt lat="40.530117" lon="-5.219233">
        <ele>2659.0</ele>
        <time>2018-07-14T13:05:52Z</time>
      </trkpt>
      <trkpt lat="40.530067" lon="-5.219183">
        <ele>2659.0</ele>
        <time>2018-07-14T13:05:53Z</time>
      </trkpt>
      <trkpt lat="40.529983" lon="-5.219150">
        <ele>2658.0</ele>
        <time>2018-07-14T13:05:54Z</time>
      </trkpt>
      <trkpt lat="40.529917" lon="-5.219133">
        <ele>2659.0</ele>
        <time>2018-07-14T13:05:55Z</time>
      </trkpt>
      <trkpt lat="40.529850" lon="-5.219150">
        <ele>2660.0</ele>
        <time>2018-07-14T13:05:56Z</time>
      </trkpt>
      <trkpt lat="40.529800" lon="-5.219167">
        <ele>2662.0</ele>
        <time>2018-07-14T13:05:57Z</time>
      </trkpt>
      <trkpt lat="40.529767" lon="-5.219200">
        <ele>2664.0</ele>
        <time>2018-07-14T13:05:58Z</time>
      </trkpt>
      <trkpt lat="40.529733" lon="-5.219233">
        <ele>2666.0</ele>
        <time>2018-07-14T13:05:59Z</time>
      </trkpt>
      <trkpt lat="40.529700" lon="-5.219267">
        <ele>2668.0</ele>
        <time>2018-07-14T13:06:00Z</time>
      </trkpt>
      <trkpt lat="40.529667" lon="-5.219317">
        <ele>2669.0</ele>
        <time>2018-07-14T13:06:01Z</time>
      </trkpt>
      <trkpt lat="40.529633" lon="-5.219367">
        <ele>2670.0</ele>
        <time>2018-07-14T13:06:02Z</time>
      </trkpt>
      <trkpt lat="40.529600" lon="-5.219433">
        <ele>2672.0</ele>
        <time>2018-07-14T13:06:03Z</time>
      </trkpt>
      <trkpt lat="40.529600" lon="-5.219517">
        <ele>2674.0</ele>
        <time>2018-07-14T13:06:04Z</time>
      </trkpt>
      <trkpt lat="40.529600" lon="-5.219617">
        <ele>2675.0</ele>
        <time>2018-07-14T13:06:05Z</time>
      </trkpt>
      <trkpt lat="40.529617" lon="-5.219717">
        <ele>2676.0</ele>
        <time>2018-07-14T13:06:06Z</time>
      </trkpt>
      <trkpt lat="40.529650" lon="-5.219833">
        <ele>2679.0</ele>
        <time>2018-07-14T13:06:07Z</time>
      </trkpt>
      <trkpt lat="40.529700" lon="-5.219950">
        <ele>2682.0</ele>
        <time>2018-07-14T13:06:08Z</time>
      </trkpt>
      <trkpt lat="40.529767" lon="-5.220033">
        <ele>2685.0</ele>
        <time>2018-07-14T13:06:09Z</time>
      </trkpt>
      <trkpt lat="40.529850" lon="-5.220117">
        <ele>2687.0</ele>
        <time>2018-07-14T13:06:10Z</time>
      </trkpt>
      <trkpt lat="40.529950" lon="-5.220183">
        <ele>2689.0</ele>
        <time>2018-07-14T13:06:11Z</time>
      </trkpt>
      <trkpt lat="40.530033" lon="-5.220233">
        <ele>2691.0</ele>
        <time>2018-07-14T13:06:12Z</time>
      </trkpt>
      <trkpt lat="40.530100" lon="-5.220267">
        <ele>2693.0</ele>
        <time>2018-07-14T13:06:13Z</time>
      </trkpt>
      <trkpt lat="40.530200" lon="-5.220267">
        <ele>2694.0</ele>
        <time>2018-07-14T13:06:14Z</time>
      </trkpt>
      <trkpt lat="40.530300" lon="-5.220233">
        <ele>2693.0</ele>
        <time>2018-07-14T13:06:15Z</time>
      </trkpt>
      <trkpt lat="40.530400" lon="-5.220183">
        <ele>2692.0</ele>
        <time>2018-07-14T13:06:16Z</time>
      </trkpt>
      <trkpt lat="40.530500" lon="-5.220100">
        <ele>2691.0</ele>
        <time>2018-07-14T13:06:17Z</time>
      </trkpt>
      <trkpt lat="40.530567" lon="-5.220000">
        <ele>2692.0</ele>
        <time>2018-07-14T13:06:18Z</time>
      </trkpt>
      <trkpt lat="40.530600" lon="-5.219883">
        <ele>2692.0</ele>
        <time>2018-07-14T13:06:19Z</time>
      </trkpt>
      <trkpt lat="40.530600" lon="-5.219767">
        <ele>2692.0</ele>
        <time>2018-07-14T13:06:20Z</time>
      </trkpt>
      <trkpt lat="40.530567" lon="-5.219633">
        <ele>2691.0</ele>
        <time>2018-07-14T13:06:21Z</time>
      </trkpt>
      <trkpt lat="40.530517" lon="-5.219533">
        <ele>2690.0</ele>
        <time>2018-07-14T13:06:22Z</time>
      </trkpt>
      <trkpt lat="40.530450" lon="-5.219467">
        <ele>2690.0</ele>
        <time>2018-07-14T13:06:23Z</time>
      </trkpt>
      <trkpt lat="40.530383" lon="-5.219433">
        <ele>2690.0</ele>
        <time>2018-07-14T13:06:24Z</time>
      </trkpt>
      <trkpt lat="40.530317" lon="-5.219450">
        <ele>2690.0</ele>
        <time>2018-07-14T13:06:25Z</time>
      </trkpt>
      <trkpt lat="40.530250" lon="-5.219500">
        <ele>2691.0</ele>
        <time>2018-07-14T13:06:26Z</time>
      </trkpt>
      <trkpt lat="40.530217" lon="-5.219567">
        <ele>2693.0</ele>
        <time>2018-07-14T13:06:27Z</time>
      </trkpt>
      <trkpt lat="40.530183" lon="-5.219667">
        <ele>2696.0</ele>
        <time>2018-07-14T13:06:28Z</time>
      </trkpt>
      <trkpt lat="40.530167" lon="-5.219750">
        <ele>2699.0</ele>
        <time>2018-07-14T13:06:29Z</time>
      </trkpt>
      <trkpt lat="40.530150" lon="-5.219850">
        <ele>2703.0</ele>
        <time>2018-07-14T13:06:30Z</time>
      </trkpt>
      <trkpt lat="40.530117" lon="-5.219917">
        <ele>2707.0</ele>
        <time>2018-07-14T13:06:31Z</time>
      </trkpt>
      <trkpt lat="40.530100" lon="-5.220000">
        <ele>2709.0</ele>
        <time>2018-07-14T13:06:32Z</time>
      </trkpt>
      <trkpt lat="40.530067" lon="-5.220117">
        <ele>2711.0</ele>
        <time>2018-07-14T13:06:33Z</time>
      </trkpt>
      <trkpt lat="40.530083" lon="-5.220250">
        <ele>2712.0</ele>
        <time>2018-07-14T13:06:34Z</time>
      </trkpt>
      <trkpt lat="40.530117" lon="-5.220367">
        <ele>2714.0</ele>
        <time>2018-07-14T13:06:35Z</time>
      </trkpt>
      <trkpt lat="40.530167" lon="-5.220483">
        <ele>2716.0</ele>
        <time>2018-07-14T13:06:36Z</time>
      </trkpt>
      <trkpt lat="40.530250" lon="-5.220583">
        <ele>2717.0</ele>
        <time>2018-07-14T13:06:37Z</time>
      </trkpt>
      <trkpt lat="40.530350" lon="-5.220650">
        <ele>2718.0</ele>
        <time>2018-07-14T13:06:38Z</time>
      </trkpt>
      <trkpt lat="40.530467" lon="-5.220683">
        <ele>2720.0</ele>
        <time>2018-07-14T13:06:39Z</time>
      </trkpt>
      <trkpt lat="40.530583" lon="-5.220700">
        <ele>2721.0</ele>
        <time>2018-07-14T13:06:40Z</time>
      </trkpt>
      <trkpt lat="40.530683" lon="-5.220650">
        <ele>2721.0</ele>
        <time>2018-07-14T13:06:41Z</time>
      </trkpt>
      <trkpt lat="40.530767" lon="-5.220583">
        <ele>2722.0</ele>
        <time>2018-07-14T13:06:42Z</time>
      </trkpt>
      <trkpt lat="40.530817" lon="-5.220483">
        <ele>2723.0</ele>
        <time>2018-07-14T13:06:43Z</time>
      </trkpt>
      <trkpt lat="40.530817" lon="-5.220383">
        <ele>2724.0</ele>
        <time>2018-07-14T13:06:44Z</time>
      </trkpt>
      <trkpt lat="40.530800" lon="-5.220300">
        <ele>2724.0</ele>
        <time>2018-07-14T13:06:45Z</time>
      </trkpt>
      <trkpt lat="40.530767" lon="-5.220233">
        <ele>2725.0</ele>
        <time>2018-07-14T13:06:46Z</time>
      </trkpt>
      <trkpt lat="40.530717" lon="-5.220217">
        <ele>2726.0</ele>
        <time>2018-07-14T13:06:47Z</time>
      </trkpt>
      <trkpt lat="40.530650" lon="-5.220217">
        <ele>2728.0</ele>
        <time>2018-07-14T13:06:48Z</time>
      </trkpt>
      <trkpt lat="40.530617" lon="-5.220233">
        <ele>2729.0</ele>
        <time>2018-07-14T13:06:49Z</time>
      </trkpt>
      <trkpt lat="40.530583" lon="-5.220250">
        <ele>2732.0</ele>
        <time>2018-07-14T13:06:50Z</time>
      </trkpt>
      <trkpt lat="40.530533" lon="-5.220300">
        <ele>2734.0</ele>
        <time>2018-07-14T13:06:51Z</time>
      </trkpt>
      <trkpt lat="40.530500" lon="-5.220367">
        <ele>2735.0</ele>
        <time>2018-07-14T13:06:52Z</time>
      </trkpt>
      <trkpt lat="40.530450" lon="-5.220450">
        <ele>2735.0</ele>
        <time>2018-07-14T13:06:53Z</time>
      </trkpt>
      <trkpt lat="40.530433" lon="-5.220550">
        <ele>2736.0</ele>
        <time>2018-07-14T13:06:54Z</time>
      </trkpt>
      <trkpt lat="40.530450" lon="-5.220667">
        <ele>2737.0</ele>
        <time>2018-07-14T13:06:55Z</time>
      </trkpt>
      <trkpt lat="40.530467" lon="-5.220783">
        <ele>2737.0</ele>
        <time>2018-07-14T13:06:56Z</time>
      </trkpt>
      <trkpt lat="40.530517" lon="-5.220917">
        <ele>2737.0</ele>
        <time>2018-07-14T13:06:57Z</time>
      </trkpt>
      <trkpt lat="40.530583" lon="-5.221033">
        <ele>2737.0</ele>
        <time>2018-07-14T13:06:58Z</time>
      </trkpt>
      <trkpt lat="40.530667" lon="-5.221150">
        <ele>2737.0</ele>
        <time>2018-07-14T13:06:59Z</time>
      </trkpt>
      <trkpt lat="40.530767" lon="-5.221233">
        <ele>2737.0</ele>
        <time>2018-07-14T13:07:00Z</time>
      </trkpt>
      <trkpt lat="40.530883" lon="-5.221283">
        <ele>2738.0</ele>
        <time>2018-07-14T13:07:01Z</time>
      </trkpt>
      <trkpt lat="40.531000" lon="-5.221300">
        <ele>2739.0</ele>
        <time>2018-07-14T13:07:02Z</time>
      </trkpt>
      <trkpt lat="40.531117" lon="-5.221317">
        <ele>2740.0</ele>
        <time>2018-07-14T13:07:03Z</time>
      </trkpt>
      <trkpt lat="40.531317" lon="-5.221250">
        <ele>2742.0</ele>
        <time>2018-07-14T13:07:05Z</time>
      </trkpt>
      <trkpt lat="40.531400" lon="-5.221183">
        <ele>2742.0</ele>
        <time>2018-07-14T13:07:06Z</time>
      </trkpt>
      <trkpt lat="40.531467" lon="-5.221083">
        <ele>2743.0</ele>
        <time>2018-07-14T13:07:07Z</time>
      </trkpt>
      <trkpt lat="40.531483" lon="-5.220983">
        <ele>2743.0</ele>
        <time>2018-07-14T13:07:08Z</time>
      </trkpt>
      <trkpt lat="40.531483" lon="-5.220867">
        <ele>2742.0</ele>
        <time>2018-07-14T13:07:09Z</time>
      </trkpt>
      <trkpt lat="40.531433" lon="-5.220767">
        <ele>2741.0</ele>
        <time>2018-07-14T13:07:10Z</time>
      </trkpt>
      <trkpt lat="40.531383" lon="-5.220700">
        <ele>2742.0</ele>
        <time>2018-07-14T13:07:11Z</time>
      </trkpt>
      <trkpt lat="40.531333" lon="-5.220700">
        <ele>2743.0</ele>
        <time>2018-07-14T13:07:12Z</time>
      </trkpt>
      <trkpt lat="40.531267" lon="-5.220717">
        <ele>2744.0</ele>
        <time>2018-07-14T13:07:13Z</time>
      </trkpt>
      <trkpt lat="40.531233" lon="-5.220800">
        <ele>2745.0</ele>
        <time>2018-07-14T13:07:14Z</time>
      </trkpt>
      <trkpt lat="40.531233" lon="-5.220900">
        <ele>2746.0</ele>
        <time>2018-07-14T13:07:15Z</time>
      </trkpt>
      <trkpt lat="40.531233" lon="-5.221017">
        <ele>2747.0</ele>
        <time>2018-07-14T13:07:16Z</time>
      </trkpt>
      <trkpt lat="40.531283" lon="-5.221150">
        <ele>2748.0</ele>
        <time>2018-07-14T13:07:17Z</time>
      </trkpt>
      <trkpt lat="40.531350" lon="-5.221267">
        <ele>2750.0</ele>
        <time>2018-07-14T13:07:18Z</time>
      </trkpt>
      <trkpt lat="40.531433" lon="-5.221367">
        <ele>2751.0</ele>
        <time>2018-07-14T13:07:19Z</time>
      </trkpt>
      <trkpt lat="40.531533" lon="-5.221450">
        <ele>2753.0</ele>
        <time>2018-07-14T13:07:20Z</time>
      </trkpt>
      <trkpt lat="40.531633" lon="-5.221533">
        <ele>2754.0</ele>
        <time>2018-07-14T13:07:21Z</time>
      </trkpt>
      <trkpt lat="40.531733" lon="-5.221583">
        <ele>2755.0</ele>
        <time>2018-07-14T13:07:22Z</time>
      </trkpt>
      <trkpt lat="40.531833" lon="-5.221600">
        <ele>2755.0</ele>
        <time>2018-07-14T13:07:23Z</time>
      </trkpt>
      <trkpt lat="40.531933" lon="-5.221583">
        <ele>2756.0</ele>
        <time>2018-07-14T13:07:24Z</time>
      </trkpt>
      <trkpt lat="40.532050" lon="-5.221533">
        <ele>2756.0</ele>
        <time>2018-07-14T13:07:25Z</time>
      </trkpt>
      <trkpt lat="40.532133" lon="-5.221467">
        <ele>2755.0</ele>
        <time>2018-07-14T13:07:26Z</time>
      </trkpt>
      <trkpt lat="40.532200" lon="-5.221367">
        <ele>2756.0</ele>
        <time>2018-07-14T13:07:27Z</time>
      </trkpt>
      <trkpt lat="40.532233" lon="-5.221267">
        <ele>2757.0</ele>
        <time>2018-07-14T13:07:28Z</time>
      </trkpt>
      <trkpt lat="40.532233" lon="-5.221167">
        <ele>2757.0</ele>
        <time>2018-07-14T13:07:29Z</time>
      </trkpt>
      <trkpt lat="40.532217" lon="-5.221067">
        <ele>2756.0</ele>
        <time>2018-07-14T13:07:30Z</time>
      </trkpt>
      <trkpt lat="40.532183" lon="-5.221000">
        <ele>2756.0</ele>
        <time>2018-07-14T13:07:31Z</time>
      </trkpt>
      <trkpt lat="40.532133" lon="-5.220950">
        <ele>2756.0</ele>
        <time>2018-07-14T13:07:32Z</time>
      </trkpt>
      <trkpt lat="40.532017" lon="-5.220967">
        <ele>2755.0</ele>
        <time>2018-07-14T13:07:34Z</time>
      </trkpt>
      <trkpt lat="40.531950" lon="-5.221033">
        <ele>2756.0</ele>
        <time>2018-07-14T13:07:35Z</time>
      </trkpt>
      <trkpt lat="40.531900" lon="-5.221133">
        <ele>2756.0</ele>
        <time>2018-07-14T13:07:36Z</time>
      </trkpt>
      <trkpt lat="40.531867" lon="-5.221217">
        <ele>2756.0</ele>
        <time>2018-07-14T13:07:37Z</time>
      </trkpt>
      <trkpt lat="40.531833" lon="-5.221317">
        <ele>2756.0</ele>
        <time>2018-07-14T13:07:38Z</time>
      </trkpt>
      <trkpt lat="40.531800" lon="-5.221417">
        <ele>2756.0</ele>
        <time>2018-07-14T13:07:39Z</time>
      </trkpt>
      <trkpt lat="40.531800" lon="-5.221517">
        <ele>2757.0</ele>
        <time>2018-07-14T13:07:40Z</time>
      </trkpt>
      <trkpt lat="40.531800" lon="-5.221633">
        <ele>2758.0</ele>
        <time>2018-07-14T13:07:41Z</time>
      </trkpt>
      <trkpt lat="40.531817" lon="-5.221750">
        <ele>2759.0</ele>
        <time>2018-07-14T13:07:42Z</time>
      </trkpt>
      <trkpt lat="40.531850" lon="-5.221867">
        <ele>2760.0</ele>
        <time>2018-07-14T13:07:43Z</time>
      </trkpt>
      <trkpt lat="40.531900" lon="-5.221983">
        <ele>2761.0</ele>
        <time>2018-07-14T13:07:44Z</time>
      </trkpt>
      <trkpt lat="40.531967" lon="-5.222100">
        <ele>2762.0</ele>
        <time>2018-07-14T13:07:45Z</time>
      </trkpt>
      <trkpt lat="40.532050" lon="-5.222167">
        <ele>2763.0</ele>
        <time>2018-07-14T13:07:46Z</time>
      </trkpt>
      <trkpt lat="40.532150" lon="-5.222217">
        <ele>2763.0</ele>
        <time>2018-07-14T13:07:47Z</time>
      </trkpt>
      <trkpt lat="40.532250" lon="-5.222250">
        <ele>2764.0</ele>
        <time>2018-07-14T13:07:48Z</time>
      </trkpt>
      <trkpt lat="40.532350" lon="-5.222283">
        <ele>2765.0</ele>
        <time>2018-07-14T13:07:49Z</time>
      </trkpt>
      <trkpt lat="40.532450" lon="-5.222300">
        <ele>2765.0</ele>
        <time>2018-07-14T13:07:50Z</time>
      </trkpt>
      <trkpt lat="40.532567" lon="-5.222317">
        <ele>2765.0</ele>
        <time>2018-07-14T13:07:51Z</time>
      </trkpt>
      <trkpt lat="40.532683" lon="-5.222317">
        <ele>2763.0</ele>
        <time>2018-07-14T13:07:52Z</time>
      </trkpt>
      <trkpt lat="40.532800" lon="-5.222300">
        <ele>2762.0</ele>
        <time>2018-07-14T13:07:53Z</time>
      </trkpt>
      <trkpt lat="40.532900" lon="-5.222300">
        <ele>2763.0</ele>
        <time>2018-07-14T13:07:54Z</time>
      </trkpt>
      <trkpt lat="40.533017" lon="-5.222300">
        <ele>2763.0</ele>
        <time>2018-07-14T13:07:55Z</time>
      </trkpt>
      <trkpt lat="40.533133" lon="-5.222283">
        <ele>2763.0</ele>
        <time>2018-07-14T13:07:56Z</time>
      </trkpt>
      <trkpt lat="40.533250" lon="-5.222283">
        <ele>2762.0</ele>
        <time>2018-07-14T13:07:57Z</time>
      </trkpt>
      <trkpt lat="40.533367" lon="-5.222250">
        <ele>2762.0</ele>
        <time>2018-07-14T13:07:58Z</time>
      </trkpt>
      <trkpt lat="40.533483" lon="-5.222200">
        <ele>2763.0</ele>
        <time>2018-07-14T13:07:59Z</time>
      </trkpt>
      <trkpt lat="40.533583" lon="-5.222167">
        <ele>2763.0</ele>
        <time>2018-07-14T13:08:00Z</time>
      </trkpt>
      <trkpt lat="40.533667" lon="-5.222100">
        <ele>2763.0</ele>
        <time>2018-07-14T13:08:01Z</time>
      </trkpt>
      <trkpt lat="40.533750" lon="-5.222050">
        <ele>2763.0</ele>
        <time>2018-07-14T13:08:02Z</time>
      </trkpt>
      <trkpt lat="40.533833" lon="-5.221983">
        <ele>2762.0</ele>
        <time>2018-07-14T13:08:03Z</time>
      </trkpt>
      <trkpt lat="40.533950" lon="-5.221933">
        <ele>2760.0</ele>
        <time>2018-07-14T13:08:04Z</time>
      </trkpt>
      <trkpt lat="40.534067" lon="-5.221867">
        <ele>2759.0</ele>
        <time>2018-07-14T13:08:05Z</time>
      </trkpt>
      <trkpt lat="40.534183" lon="-5.221817">
        <ele>2759.0</ele>
        <time>2018-07-14T13:08:06Z</time>
      </trkpt>
      <trkpt lat="40.534283" lon="-5.221767">
        <ele>2762.0</ele>
        <time>2018-07-14T13:08:07Z</time>
      </trkpt>
      <trkpt lat="40.534383" lon="-5.221717">
        <ele>2765.0</ele>
        <time>2018-07-14T13:08:08Z</time>
      </trkpt>
      <trkpt lat="40.534467" lon="-5.221683">
        <ele>2767.0</ele>
        <time>2018-07-14T13:08:09Z</time>
      </trkpt>
      <trkpt lat="40.534567" lon="-5.221633">
        <ele>2769.0</ele>
        <time>2018-07-14T13:08:10Z</time>
      </trkpt>
      <trkpt lat="40.534667" lon="-5.221600">
        <ele>2770.0</ele>
        <time>2018-07-14T13:08:11Z</time>
      </trkpt>
      <trkpt lat="40.534750" lon="-5.221533">
        <ele>2772.0</ele>
        <time>2018-07-14T13:08:12Z</time>
      </trkpt>
      <trkpt lat="40.534800" lon="-5.221417">
        <ele>2773.0</ele>
        <time>2018-07-14T13:08:13Z</time>
      </trkpt>
      <trkpt lat="40.534833" lon="-5.221300">
        <ele>2774.0</ele>
        <time>2018-07-14T13:08:14Z</time>
      </trkpt>
      <trkpt lat="40.534850" lon="-5.221167">
        <ele>2774.0</ele>
        <time>2018-07-14T13:08:15Z</time>
      </trkpt>
      <trkpt lat="40.534850" lon="-5.221083">
        <ele>2775.0</ele>
        <time>2018-07-14T13:08:16Z</time>
      </trkpt>
      <trkpt lat="40.534817" lon="-5.221017">
        <ele>2776.0</ele>
        <time>2018-07-14T13:08:17Z</time>
      </trkpt>
      <trkpt lat="40.534783" lon="-5.221017">
        <ele>2775.0</ele>
        <time>2018-07-14T13:08:18Z</time>
      </trkpt>
      <trkpt lat="40.534733" lon="-5.221033">
        <ele>2775.0</ele>
        <time>2018-07-14T13:08:19Z</time>
      </trkpt>
      <trkpt lat="40.534683" lon="-5.221083">
        <ele>2774.0</ele>
        <time>2018-07-14T13:08:20Z</time>
      </trkpt>
      <trkpt lat="40.534667" lon="-5.221167">
        <ele>2775.0</ele>
        <time>2018-07-14T13:08:21Z</time>
      </trkpt>
      <trkpt lat="40.534667" lon="-5.221283">
        <ele>2774.0</ele>
        <time>2018-07-14T13:08:22Z</time>
      </trkpt>
      <trkpt lat="40.534700" lon="-5.221400">
        <ele>2774.0</ele>
        <time>2018-07-14T13:08:23Z</time>
      </trkpt>
      <trkpt lat="40.534767" lon="-5.221500">
        <ele>2773.0</ele>
        <time>2018-07-14T13:08:24Z</time>
      </trkpt>
      <trkpt lat="40.534833" lon="-5.221617">
        <ele>2773.0</ele>
        <time>2018-07-14T13:08:25Z</time>
      </trkpt>
      <trkpt lat="40.534917" lon="-5.221700">
        <ele>2775.0</ele>
        <time>2018-07-14T13:08:26Z</time>
      </trkpt>
      <trkpt lat="40.535000" lon="-5.221767">
        <ele>2776.0</ele>
        <time>2018-07-14T13:08:27Z</time>
      </trkpt>
      <trkpt lat="40.535083" lon="-5.221833">
        <ele>2777.0</ele>
        <time>2018-07-14T13:08:28Z</time>
      </trkpt>
      <trkpt lat="40.535183" lon="-5.221883">
        <ele>2778.0</ele>
        <time>2018-07-14T13:08:29Z</time>
      </trkpt>
      <trkpt lat="40.535267" lon="-5.221933">
        <ele>2778.0</ele>
        <time>2018-07-14T13:08:30Z</time>
      </trkpt>
      <trkpt lat="40.535367" lon="-5.221983">
        <ele>2778.0</ele>
        <time>2018-07-14T13:08:31Z</time>
      </trkpt>
      <trkpt lat="40.535450" lon="-5.222017">
        <ele>2777.0</ele>
        <time>2018-07-14T13:08:32Z</time>
      </trkpt>
      <trkpt lat="40.535550" lon="-5.222033">
        <ele>2776.0</ele>
        <time>2018-07-14T13:08:33Z</time>
      </trkpt>
      <trkpt lat="40.535667" lon="-5.222033">
        <ele>2774.0</ele>
        <time>2018-07-14T13:08:34Z</time>
      </trkpt>
      <trkpt lat="40.535800" lon="-5.222017">
        <ele>2771.0</ele>
        <time>2018-07-14T13:08:35Z</time>
      </trkpt>
      <trkpt lat="40.535900" lon="-5.221983">
        <ele>2770.0</ele>
        <time>2018-07-14T13:08:36Z</time>
      </trkpt>
      <trkpt lat="40.536000" lon="-5.221933">
        <ele>2769.0</ele>
        <time>2018-07-14T13:08:37Z</time>
      </trkpt>
      <trkpt lat="40.536100" lon="-5.221900">
        <ele>2768.0</ele>
        <time>2018-07-14T13:08:38Z</time>
      </trkpt>
      <trkpt lat="40.536217" lon="-5.221867">
        <ele>2767.0</ele>
        <time>2018-07-14T13:08:39Z</time>
      </trkpt>
      <trkpt lat="40.536333" lon="-5.221833">
        <ele>2766.0</ele>
        <time>2018-07-14T13:08:40Z</time>
      </trkpt>
      <trkpt lat="40.536433" lon="-5.221783">
        <ele>2766.0</ele>
        <time>2018-07-14T13:08:41Z</time>
      </trkpt>
      <trkpt lat="40.536533" lon="-5.221733">
        <ele>2767.0</ele>
        <time>2018-07-14T13:08:42Z</time>
      </trkpt>
      <trkpt lat="40.536617" lon="-5.221683">
        <ele>2767.0</ele>
        <time>2018-07-14T13:08:43Z</time>
      </trkpt>
      <trkpt lat="40.536717" lon="-5.221633">
        <ele>2767.0</ele>
        <time>2018-07-14T13:08:44Z</time>
      </trkpt>
      <trkpt lat="40.536817" lon="-5.221567">
        <ele>2766.0</ele>
        <time>2018-07-14T13:08:45Z</time>
      </trkpt>
      <trkpt lat="40.536933" lon="-5.221483">
        <ele>2764.0</ele>
        <time>2018-07-14T13:08:46Z</time>
      </trkpt>
      <trkpt lat="40.537050" lon="-5.221417">
        <ele>2763.0</ele>
        <time>2018-07-14T13:08:47Z</time>
      </trkpt>
      <trkpt lat="40.537183" lon="-5.221350">
        <ele>2762.0</ele>
        <time>2018-07-14T13:08:48Z</time>
      </trkpt>
      <trkpt lat="40.537317" lon="-5.221300">
        <ele>2761.0</ele>
        <time>2018-07-14T13:08:49Z</time>
      </trkpt>
      <trkpt lat="40.537450" lon="-5.221250">
        <ele>2761.0</ele>
        <time>2018-07-14T13:08:50Z</time>
      </trkpt>
      <trkpt lat="40.537833" lon="-5.221067">
        <ele>2760.0</ele>
        <time>2018-07-14T13:08:53Z</time>
      </trkpt>
      <trkpt lat="40.537967" lon="-5.221000">
        <ele>2760.0</ele>
        <time>2018-07-14T13:08:54Z</time>
      </trkpt>
      <trkpt lat="40.538083" lon="-5.220933">
        <ele>2761.0</ele>
        <time>2018-07-14T13:08:55Z</time>
      </trkpt>
      <trkpt lat="40.538200" lon="-5.220867">
        <ele>2761.0</ele>
        <time>2018-07-14T13:08:56Z</time>
      </trkpt>
      <trkpt lat="40.538317" lon="-5.220783">
        <ele>2760.0</ele>
        <time>2018-07-14T13:08:57Z</time>
      </trkpt>
      <trkpt lat="40.538433" lon="-5.220717">
        <ele>2758.0</ele>
        <time>2018-07-14T13:08:58Z</time>
      </trkpt>
      <trkpt lat="40.538567" lon="-5.220650">
        <ele>2757.0</ele>
        <time>2018-07-14T13:08:59Z</time>
      </trkpt>
      <trkpt lat="40.538683" lon="-5.220600">
        <ele>2756.0</ele>
        <time>2018-07-14T13:09:00Z</time>
      </trkpt>
      <trkpt lat="40.538800" lon="-5.220533">
        <ele>2756.0</ele>
        <time>2018-07-14T13:09:01Z</time>
      </trkpt>
      <trkpt lat="40.538900" lon="-5.220450">
        <ele>2756.0</ele>
        <time>2018-07-14T13:09:02Z</time>
      </trkpt>
      <trkpt lat="40.539017" lon="-5.220383">
        <ele>2754.0</ele>
        <time>2018-07-14T13:09:03Z</time>
      </trkpt>
      <trkpt lat="40.539117" lon="-5.220300">
        <ele>2753.0</ele>
        <time>2018-07-14T13:09:04Z</time>
      </trkpt>
      <trkpt lat="40.539233" lon="-5.220217">
        <ele>2751.0</ele>
        <time>2018-07-14T13:09:05Z</time>
      </trkpt>
      <trkpt lat="40.539350" lon="-5.220133">
        <ele>2748.0</ele>
        <time>2018-07-14T13:09:06Z</time>
      </trkpt>
      <trkpt lat="40.539467" lon="-5.220033">
        <ele>2746.0</ele>
        <time>2018-07-14T13:09:07Z</time>
      </trkpt>
      <trkpt lat="40.539583" lon="-5.219917">
        <ele>2744.0</ele>
        <time>2018-07-14T13:09:08Z</time>
      </trkpt>
      <trkpt lat="40.539683" lon="-5.219817">
        <ele>2742.0</ele>
        <time>2018-07-14T13:09:09Z</time>
      </trkpt>
      <trkpt lat="40.539783" lon="-5.219700">
        <ele>2740.0</ele>
        <time>2018-07-14T13:09:10Z</time>
      </trkpt>
      <trkpt lat="40.539900" lon="-5.219600">
        <ele>2738.0</ele>
        <time>2018-07-14T13:09:11Z</time>
      </trkpt>
      <trkpt lat="40.540000" lon="-5.219517">
        <ele>2736.0</ele>
        <time>2018-07-14T13:09:12Z</time>
      </trkpt>
      <trkpt lat="40.540117" lon="-5.219417">
        <ele>2733.0</ele>
        <time>2018-07-14T13:09:13Z</time>
      </trkpt>
      <trkpt lat="40.540233" lon="-5.219317">
        <ele>2730.0</ele>
        <time>2018-07-14T13:09:14Z</time>
      </trkpt>
      <trkpt lat="40.540350" lon="-5.219217">
        <ele>2728.0</ele>
        <time>2018-07-14T13:09:15Z</time>
      </trkpt>
      <trkpt lat="40.540467" lon="-5.219117">
        <ele>2726.0</ele>
        <time>2018-07-14T13:09:16Z</time>
      </trkpt>
      <trkpt lat="40.540583" lon="-5.219033">
        <ele>2724.0</ele>
        <time>2018-07-14T13:09:17Z</time>
      </trkpt>
      <trkpt lat="40.540700" lon="-5.218950">
        <ele>2722.0</ele>
        <time>2018-07-14T13:09:18Z</time>
      </trkpt>
      <trkpt lat="40.540817" lon="-5.218850">
        <ele>2720.0</ele>
        <time>2018-07-14T13:09:19Z</time>
      </trkpt>
      <trkpt lat="40.540933" lon="-5.218750">
        <ele>2717.0</ele>
        <time>2018-07-14T13:09:20Z</time>
      </trkpt>
      <trkpt lat="40.541050" lon="-5.218650">
        <ele>2715.0</ele>
        <time>2018-07-14T13:09:21Z</time>
      </trkpt>
      <trkpt lat="40.541167" lon="-5.218550">
        <ele>2712.0</ele>
        <time>2018-07-14T13:09:22Z</time>
      </trkpt>
      <trkpt lat="40.541300" lon="-5.218450">
        <ele>2710.0</ele>
        <time>2018-07-14T13:09:23Z</time>
      </trkpt>
      <trkpt lat="40.541417" lon="-5.218350">
        <ele>2708.0</ele>
        <time>2018-07-14T13:09:24Z</time>
      </trkpt>
      <trkpt lat="40.542233" lon="-5.217733">
        <ele>0.0</ele>
        <time>2018-07-14T13:09:30Z</time>
      </trkpt>
      <trkpt lat="40.542233" lon="-5.217683">
        <ele>2694.0</ele>
        <time>2018-07-14T13:09:31Z</time>
      </trkpt>
      <trkpt lat="40.542333" lon="-5.217617">
        <ele>2693.0</ele>
        <time>2018-07-14T13:09:32Z</time>
      </trkpt>
      <trkpt lat="40.542450" lon="-5.217567">
        <ele>2693.0</ele>
        <time>2018-07-14T13:09:33Z</time>
      </trkpt>
      <trkpt lat="40.543100" lon="-5.217317">
        <ele>0.0</ele>
        <time>2018-07-14T13:09:38Z</time>
      </trkpt>
      <trkpt lat="40.543533" lon="-5.217100">
        <ele>0.0</ele>
        <time>2018-07-14T13:09:42Z</time>
      </trkpt>
      <trkpt lat="40.543617" lon="-5.217067">
        <ele>2686.0</ele>
        <time>2018-07-14T13:09:43Z</time>
      </trkpt>
      <trkpt lat="40.543717" lon="-5.216983">
        <ele>2683.0</ele>
        <time>2018-07-14T13:09:44Z</time>
      </trkpt>
      <trkpt lat="40.543833" lon="-5.216917">
        <ele>2679.0</ele>
        <time>2018-07-14T13:09:45Z</time>
      </trkpt>
      <trkpt lat="40.543950" lon="-5.216850">
        <ele>2676.0</ele>
        <time>2018-07-14T13:09:46Z</time>
      </trkpt>
      <trkpt lat="40.544050" lon="-5.216800">
        <ele>2674.0</ele>
        <time>2018-07-14T13:09:47Z</time>
      </trkpt>
      <trkpt lat="40.544167" lon="-5.216750">
        <ele>2673.0</ele>
        <time>2018-07-14T13:09:48Z</time>
      </trkpt>
      <trkpt lat="40.544267" lon="-5.216700">
        <ele>2672.0</ele>
        <time>2018-07-14T13:09:49Z</time>
      </trkpt>
      <trkpt lat="40.544367" lon="-5.216633">
        <ele>2670.0</ele>
        <time>2018-07-14T13:09:50Z</time>
      </trkpt>
      <trkpt lat="40.544767" lon="-5.216417">
        <ele>0.0</ele>
        <time>2018-07-14T13:09:53Z</time>
      </trkpt>
      <trkpt lat="40.544850" lon="-5.216317">
        <ele>2664.0</ele>
        <time>2018-07-14T13:09:54Z</time>
      </trkpt>
      <trkpt lat="40.544967" lon="-5.216250">
        <ele>2664.0</ele>
        <time>2018-07-14T13:09:55Z</time>
      </trkpt>
      <trkpt lat="40.545067" lon="-5.216183">
        <ele>2661.0</ele>
        <time>2018-07-14T13:09:56Z</time>
      </trkpt>
      <trkpt lat="40.545183" lon="-5.216100">
        <ele>2655.0</ele>
        <time>2018-07-14T13:09:57Z</time>
      </trkpt>
      <trkpt lat="40.545317" lon="-5.216033">
        <ele>2652.0</ele>
        <time>2018-07-14T13:09:58Z</time>
      </trkpt>
      <trkpt lat="40.545433" lon="-5.215967">
        <ele>2649.0</ele>
        <time>2018-07-14T13:09:59Z</time>
      </trkpt>
      <trkpt lat="40.545550" lon="-5.215900">
        <ele>2648.0</ele>
        <time>2018-07-14T13:10:00Z</time>
      </trkpt>
      <trkpt lat="40.545667" lon="-5.215833">
        <ele>2647.0</ele>
        <time>2018-07-14T13:10:01Z</time>
      </trkpt>
      <trkpt lat="40.545767" lon="-5.215767">
        <ele>2646.0</ele>
        <time>2018-07-14T13:10:02Z</time>
      </trkpt>
      <trkpt lat="40.545867" lon="-5.215717">
        <ele>2646.0</ele>
        <time>2018-07-14T13:10:03Z</time>
      </trkpt>
      <trkpt lat="40.545967" lon="-5.215650">
        <ele>2645.0</ele>
        <time>2018-07-14T13:10:04Z</time>
      </trkpt>
      <trkpt lat="40.546083" lon="-5.215583">
        <ele>2644.0</ele>
        <time>2018-07-14T13:10:05Z</time>
      </trkpt>
      <trkpt lat="40.546183" lon="-5.215533">
        <ele>2643.0</ele>
        <time>2018-07-14T13:10:06Z</time>
      </trkpt>
      <trkpt lat="40.546300" lon="-5.215467">
        <ele>2642.0</ele>
        <time>2018-07-14T13:10:07Z</time>
      </trkpt>
      <trkpt lat="40.546417" lon="-5.215433">
        <ele>2642.0</ele>
        <time>2018-07-14T13:10:08Z</time>
      </trkpt>
      <trkpt lat="40.546517" lon="-5.215383">
        <ele>2644.0</ele>
        <time>2018-07-14T13:10:09Z</time>
      </trkpt>
      <trkpt lat="40.546617" lon="-5.215333">
        <ele>2645.0</ele>
        <time>2018-07-14T13:10:10Z</time>
      </trkpt>
      <trkpt lat="40.546717" lon="-5.215300">
        <ele>2646.0</ele>
        <time>2018-07-14T13:10:11Z</time>
      </trkpt>
      <trkpt lat="40.546833" lon="-5.215267">
        <ele>2646.0</ele>
        <time>2018-07-14T13:10:12Z</time>
      </trkpt>
      <trkpt lat="40.546933" lon="-5.215217">
        <ele>2646.0</ele>
        <time>2018-07-14T13:10:13Z</time>
      </trkpt>
      <trkpt lat="40.547050" lon="-5.215183">
        <ele>2647.0</ele>
        <time>2018-07-14T13:10:14Z</time>
      </trkpt>
      <trkpt lat="40.547150" lon="-5.215133">
        <ele>2647.0</ele>
        <time>2018-07-14T13:10:15Z</time>
      </trkpt>
      <trkpt lat="40.547250" lon="-5.215067">
        <ele>2647.0</ele>
        <time>2018-07-14T13:10:16Z</time>
      </trkpt>
      <trkpt lat="40.547350" lon="-5.215000">
        <ele>2648.0</ele>
        <time>2018-07-14T13:10:17Z</time>
      </trkpt>
      <trkpt lat="40.547450" lon="-5.214933">
        <ele>2648.0</ele>
        <time>2018-07-14T13:10:18Z</time>
      </trkpt>
      <trkpt lat="40.547550" lon="-5.214883">
        <ele>2648.0</ele>
        <time>2018-07-14T13:10:19Z</time>
      </trkpt>
      <trkpt lat="40.547650" lon="-5.214817">
        <ele>2649.0</ele>
        <time>2018-07-14T13:10:20Z</time>
      </trkpt>
      <trkpt lat="40.547750" lon="-5.214767">
        <ele>2649.0</ele>
        <time>2018-07-14T13:10:21Z</time>
      </trkpt>
      <trkpt lat="40.547833" lon="-5.214717">
        <ele>2650.0</ele>
        <time>2018-07-14T13:10:22Z</time>
      </trkpt>
      <trkpt lat="40.547933" lon="-5.214667">
        <ele>2650.0</ele>
        <time>2018-07-14T13:10:23Z</time>
      </trkpt>
      <trkpt lat="40.548017" lon="-5.214600">
        <ele>2650.0</ele>
        <time>2018-07-14T13:10:24Z</time>
      </trkpt>
      <trkpt lat="40.548100" lon="-5.214550">
        <ele>2650.0</ele>
        <time>2018-07-14T13:10:25Z</time>
      </trkpt>
      <trkpt lat="40.548167" lon="-5.214500">
        <ele>2650.0</ele>
        <time>2018-07-14T13:10:26Z</time>
      </trkpt>
      <trkpt lat="40.548250" lon="-5.214467">
        <ele>2650.0</ele>
        <time>2018-07-14T13:10:27Z</time>
      </trkpt>
      <trkpt lat="40.548350" lon="-5.214417">
        <ele>2649.0</ele>
        <time>2018-07-14T13:10:28Z</time>
      </trkpt>
      <trkpt lat="40.548433" lon="-5.214367">
        <ele>2648.0</ele>
        <time>2018-07-14T13:10:29Z</time>
      </trkpt>
      <trkpt lat="40.548533" lon="-5.214300">
        <ele>2647.0</ele>
        <time>2018-07-14T13:10:30Z</time>
      </trkpt>
      <trkpt lat="40.548617" lon="-5.214267">
        <ele>2646.0</ele>
        <time>2018-07-14T13:10:31Z</time>
      </trkpt>
      <trkpt lat="40.548700" lon="-5.214217">
        <ele>2645.0</ele>
        <time>2018-07-14T13:10:32Z</time>
      </trkpt>
      <trkpt lat="40.548783" lon="-5.214183">
        <ele>2645.0</ele>
        <time>2018-07-14T13:10:33Z</time>
      </trkpt>
      <trkpt lat="40.548867" lon="-5.214150">
        <ele>2644.0</ele>
        <time>2018-07-14T13:10:34Z</time>
      </trkpt>
      <trkpt lat="40.548950" lon="-5.214117">
        <ele>2642.0</ele>
        <time>2018-07-14T13:10:35Z</time>
      </trkpt>
      <trkpt lat="40.549033" lon="-5.214100">
        <ele>2641.0</ele>
        <time>2018-07-14T13:10:36Z</time>
      </trkpt>
      <trkpt lat="40.549117" lon="-5.214083">
        <ele>2639.0</ele>
        <time>2018-07-14T13:10:37Z</time>
      </trkpt>
      <trkpt lat="40.549200" lon="-5.214050">
        <ele>2638.0</ele>
        <time>2018-07-14T13:10:38Z</time>
      </trkpt>
      <trkpt lat="40.549283" lon="-5.214017">
        <ele>2639.0</ele>
        <time>2018-07-14T13:10:39Z</time>
      </trkpt>
      <trkpt lat="40.549383" lon="-5.213983">
        <ele>2638.0</ele>
        <time>2018-07-14T13:10:40Z</time>
      </trkpt>
      <trkpt lat="40.549483" lon="-5.213950">
        <ele>2636.0</ele>
        <time>2018-07-14T13:10:41Z</time>
      </trkpt>
      <trkpt lat="40.549567" lon="-5.213917">
        <ele>2634.0</ele>
        <time>2018-07-14T13:10:42Z</time>
      </trkpt>
      <trkpt lat="40.549650" lon="-5.213867">
        <ele>2632.0</ele>
        <time>2018-07-14T13:10:43Z</time>
      </trkpt>
      <trkpt lat="40.549733" lon="-5.213817">
        <ele>2631.0</ele>
        <time>2018-07-14T13:10:44Z</time>
      </trkpt>
      <trkpt lat="40.549817" lon="-5.213783">
        <ele>2629.0</ele>
        <time>2018-07-14T13:10:45Z</time>
      </trkpt>
      <trkpt lat="40.549900" lon="-5.213733">
        <ele>2628.0</ele>
        <time>2018-07-14T13:10:46Z</time>
      </trkpt>
      <trkpt lat="40.549983" lon="-5.213700">
        <ele>2626.0</ele>
        <time>2018-07-14T13:10:47Z</time>
      </trkpt>
      <trkpt lat="40.550067" lon="-5.213650">
        <ele>2624.0</ele>
        <time>2018-07-14T13:10:48Z</time>
      </trkpt>
      <trkpt lat="40.550150" lon="-5.213617">
        <ele>2622.0</ele>
        <time>2018-07-14T13:10:49Z</time>
      </trkpt>
      <trkpt lat="40.550250" lon="-5.213583">
        <ele>2621.0</ele>
        <time>2018-07-14T13:10:50Z</time>
      </trkpt>
      <trkpt lat="40.550333" lon="-5.213550">
        <ele>2619.0</ele>
        <time>2018-07-14T13:10:51Z</time>
      </trkpt>
      <trkpt lat="40.550417" lon="-5.213517">
        <ele>2618.0</ele>
        <time>2018-07-14T13:10:52Z</time>
      </trkpt>
      <trkpt lat="40.550500" lon="-5.213483">
        <ele>2616.0</ele>
        <time>2018-07-14T13:10:53Z</time>
      </trkpt>
      <trkpt lat="40.550600" lon="-5.213467">
        <ele>2615.0</ele>
        <time>2018-07-14T13:10:54Z</time>
      </trkpt>
      <trkpt lat="40.550700" lon="-5.213417">
        <ele>2614.0</ele>
        <time>2018-07-14T13:10:55Z</time>
      </trkpt>
      <trkpt lat="40.550783" lon="-5.213383">
        <ele>2613.0</ele>
        <time>2018-07-14T13:10:56Z</time>
      </trkpt>
      <trkpt lat="40.550867" lon="-5.213350">
        <ele>2613.0</ele>
        <time>2018-07-14T13:10:57Z</time>
      </trkpt>
      <trkpt lat="40.550967" lon="-5.213333">
        <ele>2612.0</ele>
        <time>2018-07-14T13:10:58Z</time>
      </trkpt>
      <trkpt lat="40.551050" lon="-5.213300">
        <ele>2610.0</ele>
        <time>2018-07-14T13:10:59Z</time>
      </trkpt>
      <trkpt lat="40.551150" lon="-5.213283">
        <ele>2609.0</ele>
        <time>2018-07-14T13:11:00Z</time>
      </trkpt>
      <trkpt lat="40.551250" lon="-5.213250">
        <ele>2606.0</ele>
        <time>2018-07-14T13:11:01Z</time>
      </trkpt>
      <trkpt lat="40.551350" lon="-5.213200">
        <ele>2605.0</ele>
        <time>2018-07-14T13:11:02Z</time>
      </trkpt>
      <trkpt lat="40.551450" lon="-5.213183">
        <ele>2603.0</ele>
        <time>2018-07-14T13:11:03Z</time>
      </trkpt>
      <trkpt lat="40.551550" lon="-5.213150">
        <ele>2602.0</ele>
        <time>2018-07-14T13:11:04Z</time>
      </trkpt>
      <trkpt lat="40.551650" lon="-5.213117">
        <ele>2600.0</ele>
        <time>2018-07-14T13:11:05Z</time>
      </trkpt>
      <trkpt lat="40.551750" lon="-5.213067">
        <ele>2598.0</ele>
        <time>2018-07-14T13:11:06Z</time>
      </trkpt>
      <trkpt lat="40.551850" lon="-5.213017">
        <ele>2595.0</ele>
        <time>2018-07-14T13:11:07Z</time>
      </trkpt>
      <trkpt lat="40.551950" lon="-5.212967">
        <ele>2592.0</ele>
        <time>2018-07-14T13:11:08Z</time>
      </trkpt>
      <trkpt lat="40.552050" lon="-5.212933">
        <ele>2590.0</ele>
        <time>2018-07-14T13:11:09Z</time>
      </trkpt>
      <trkpt lat="40.552150" lon="-5.212883">
        <ele>2589.0</ele>
        <time>2018-07-14T13:11:10Z</time>
      </trkpt>
      <trkpt lat="40.552250" lon="-5.212850">
        <ele>2587.0</ele>
        <time>2018-07-14T13:11:11Z</time>
      </trkpt>
      <trkpt lat="40.552333" lon="-5.212800">
        <ele>2585.0</ele>
        <time>2018-07-14T13:11:12Z</time>
      </trkpt>
      <trkpt lat="40.552433" lon="-5.212750">
        <ele>2583.0</ele>
        <time>2018-07-14T13:11:13Z</time>
      </trkpt>
      <trkpt lat="40.552533" lon="-5.212700">
        <ele>2581.0</ele>
        <time>2018-07-14T13:11:14Z</time>
      </trkpt>
      <trkpt lat="40.552617" lon="-5.212650">
        <ele>2580.0</ele>
        <time>2018-07-14T13:11:15Z</time>
      </trkpt>
      <trkpt lat="40.552717" lon="-5.212600">
        <ele>2579.0</ele>
        <time>2018-07-14T13:11:16Z</time>
      </trkpt>
      <trkpt lat="40.552833" lon="-5.212567">
        <ele>2578.0</ele>
        <time>2018-07-14T13:11:17Z</time>
      </trkpt>
      <trkpt lat="40.552917" lon="-5.212517">
        <ele>2578.0</ele>
        <time>2018-07-14T13:11:18Z</time>
      </trkpt>
      <trkpt lat="40.553017" lon="-5.212467">
        <ele>2577.0</ele>
        <time>2018-07-14T13:11:19Z</time>
      </trkpt>
      <trkpt lat="40.553117" lon="-5.212400">
        <ele>2577.0</ele>
        <time>2018-07-14T13:11:20Z</time>
      </trkpt>
      <trkpt lat="40.553217" lon="-5.212317">
        <ele>2577.0</ele>
        <time>2018-07-14T13:11:21Z</time>
      </trkpt>
      <trkpt lat="40.553300" lon="-5.212250">
        <ele>2578.0</ele>
        <time>2018-07-14T13:11:22Z</time>
      </trkpt>
      <trkpt lat="40.553367" lon="-5.212167">
        <ele>2579.0</ele>
        <time>2018-07-14T13:11:23Z</time>
      </trkpt>
      <trkpt lat="40.553433" lon="-5.212083">
        <ele>2579.0</ele>
        <time>2018-07-14T13:11:24Z</time>
      </trkpt>
      <trkpt lat="40.553517" lon="-5.212017">
        <ele>2578.0</ele>
        <time>2018-07-14T13:11:25Z</time>
      </trkpt>
      <trkpt lat="40.553600" lon="-5.211917">
        <ele>2575.0</ele>
        <time>2018-07-14T13:11:26Z</time>
      </trkpt>
      <trkpt lat="40.553700" lon="-5.211833">
        <ele>2573.0</ele>
        <time>2018-07-14T13:11:27Z</time>
      </trkpt>
      <trkpt lat="40.553783" lon="-5.211750">
        <ele>2570.0</ele>
        <time>2018-07-14T13:11:28Z</time>
      </trkpt>
      <trkpt lat="40.553883" lon="-5.211683">
        <ele>2568.0</ele>
        <time>2018-07-14T13:11:29Z</time>
      </trkpt>
      <trkpt lat="40.553967" lon="-5.211617">
        <ele>2567.0</ele>
        <time>2018-07-14T13:11:30Z</time>
      </trkpt>
      <trkpt lat="40.554050" lon="-5.211567">
        <ele>2567.0</ele>
        <time>2018-07-14T13:11:31Z</time>
      </trkpt>
      <trkpt lat="40.554133" lon="-5.211517">
        <ele>2565.0</ele>
        <time>2018-07-14T13:11:32Z</time>
      </trkpt>
      <trkpt lat="40.554217" lon="-5.211450">
        <ele>2562.0</ele>
        <time>2018-07-14T13:11:33Z</time>
      </trkpt>
      <trkpt lat="40.554300" lon="-5.211383">
        <ele>2558.0</ele>
        <time>2018-07-14T13:11:34Z</time>
      </trkpt>
      <trkpt lat="40.554400" lon="-5.211333">
        <ele>2555.0</ele>
        <time>2018-07-14T13:11:35Z</time>
      </trkpt>
      <trkpt lat="40.554500" lon="-5.211267">
        <ele>2553.0</ele>
        <time>2018-07-14T13:11:36Z</time>
      </trkpt>
      <trkpt lat="40.554600" lon="-5.211217">
        <ele>2552.0</ele>
        <time>2018-07-14T13:11:37Z</time>
      </trkpt>
      <trkpt lat="40.554700" lon="-5.211150">
        <ele>2550.0</ele>
        <time>2018-07-14T13:11:38Z</time>
      </trkpt>
      <trkpt lat="40.554800" lon="-5.211067">
        <ele>2549.0</ele>
        <time>2018-07-14T13:11:39Z</time>
      </trkpt>
      <trkpt lat="40.554900" lon="-5.211000">
        <ele>2547.0</ele>
        <time>2018-07-14T13:11:40Z</time>
      </trkpt>
      <trkpt lat="40.555000" lon="-5.210933">
        <ele>2546.0</ele>
        <time>2018-07-14T13:11:41Z</time>
      </trkpt>
      <trkpt lat="40.555083" lon="-5.210883">
        <ele>2546.0</ele>
        <time>2018-07-14T13:11:42Z</time>
      </trkpt>
      <trkpt lat="40.555183" lon="-5.210833">
        <ele>2547.0</ele>
        <time>2018-07-14T13:11:43Z</time>
      </trkpt>
      <trkpt lat="40.555267" lon="-5.210767">
        <ele>2547.0</ele>
        <time>2018-07-14T13:11:44Z</time>
      </trkpt>
      <trkpt lat="40.555367" lon="-5.210700">
        <ele>2547.0</ele>
        <time>2018-07-14T13:11:45Z</time>
      </trkpt>
      <trkpt lat="40.555433" lon="-5.210633">
        <ele>2548.0</ele>
        <time>2018-07-14T13:11:46Z</time>
      </trkpt>
      <trkpt lat="40.555517" lon="-5.210567">
        <ele>2549.0</ele>
        <time>2018-07-14T13:11:47Z</time>
      </trkpt>
      <trkpt lat="40.555583" lon="-5.210517">
        <ele>2549.0</ele>
        <time>2018-07-14T13:11:48Z</time>
      </trkpt>
      <trkpt lat="40.555667" lon="-5.210467">
        <ele>2548.0</ele>
        <time>2018-07-14T13:11:49Z</time>
      </trkpt>
      <trkpt lat="40.555733" lon="-5.210417">
        <ele>2547.0</ele>
        <time>2018-07-14T13:11:50Z</time>
      </trkpt>
      <trkpt lat="40.555833" lon="-5.210367">
        <ele>2546.0</ele>
        <time>2018-07-14T13:11:51Z</time>
      </trkpt>
      <trkpt lat="40.555917" lon="-5.210300">
        <ele>2545.0</ele>
        <time>2018-07-14T13:11:52Z</time>
      </trkpt>
      <trkpt lat="40.555983" lon="-5.210217">
        <ele>2543.0</ele>
        <time>2018-07-14T13:11:53Z</time>
      </trkpt>
      <trkpt lat="40.556067" lon="-5.210133">
        <ele>2542.0</ele>
        <time>2018-07-14T13:11:54Z</time>
      </trkpt>
      <trkpt lat="40.556133" lon="-5.210050">
        <ele>2539.0</ele>
        <time>2018-07-14T13:11:55Z</time>
      </trkpt>
      <trkpt lat="40.556217" lon="-5.209967">
        <ele>2536.0</ele>
        <time>2018-07-14T13:11:56Z</time>
      </trkpt>
      <trkpt lat="40.556283" lon="-5.209900">
        <ele>2532.0</ele>
        <time>2018-07-14T13:11:57Z</time>
      </trkpt>
      <trkpt lat="40.556367" lon="-5.209817">
        <ele>2529.0</ele>
        <time>2018-07-14T13:11:58Z</time>
      </trkpt>
      <trkpt lat="40.556433" lon="-5.209717">
        <ele>2526.0</ele>
        <time>2018-07-14T13:11:59Z</time>
      </trkpt>
      <trkpt lat="40.556500" lon="-5.209617">
        <ele>2523.0</ele>
        <time>2018-07-14T13:12:00Z</time>
      </trkpt>
      <trkpt lat="40.556567" lon="-5.209533">
        <ele>2519.0</ele>
        <time>2018-07-14T13:12:01Z</time>
      </trkpt>
      <trkpt lat="40.556633" lon="-5.209450">
        <ele>2513.0</ele>
        <time>2018-07-14T13:12:02Z</time>
      </trkpt>
      <trkpt lat="40.556700" lon="-5.209383">
        <ele>2508.0</ele>
        <time>2018-07-14T13:12:03Z</time>
      </trkpt>
      <trkpt lat="40.556783" lon="-5.209300">
        <ele>2502.0</ele>
        <time>2018-07-14T13:12:04Z</time>
      </trkpt>
      <trkpt lat="40.556867" lon="-5.209233">
        <ele>2498.0</ele>
        <time>2018-07-14T13:12:05Z</time>
      </trkpt>
      <trkpt lat="40.556950" lon="-5.209167">
        <ele>2495.0</ele>
        <time>2018-07-14T13:12:06Z</time>
      </trkpt>
      <trkpt lat="40.557000" lon="-5.209117">
        <ele>2495.0</ele>
        <time>2018-07-14T13:12:07Z</time>
      </trkpt>
      <trkpt lat="40.557067" lon="-5.209050">
        <ele>2494.0</ele>
        <time>2018-07-14T13:12:08Z</time>
      </trkpt>
      <trkpt lat="40.557117" lon="-5.208983">
        <ele>2493.0</ele>
        <time>2018-07-14T13:12:09Z</time>
      </trkpt>
      <trkpt lat="40.557183" lon="-5.208917">
        <ele>2492.0</ele>
        <time>2018-07-14T13:12:10Z</time>
      </trkpt>
      <trkpt lat="40.557250" lon="-5.208833">
        <ele>2490.0</ele>
        <time>2018-07-14T13:12:11Z</time>
      </trkpt>
      <trkpt lat="40.557317" lon="-5.208750">
        <ele>2488.0</ele>
        <time>2018-07-14T13:12:12Z</time>
      </trkpt>
      <trkpt lat="40.557383" lon="-5.208667">
        <ele>2487.0</ele>
        <time>2018-07-14T13:12:13Z</time>
      </trkpt>
      <trkpt lat="40.557467" lon="-5.208583">
        <ele>2486.0</ele>
        <time>2018-07-14T13:12:14Z</time>
      </trkpt>
      <trkpt lat="40.557550" lon="-5.208500">
        <ele>2485.0</ele>
        <time>2018-07-14T13:12:15Z</time>
      </trkpt>
      <trkpt lat="40.557650" lon="-5.208417">
        <ele>2484.0</ele>
        <time>2018-07-14T13:12:16Z</time>
      </trkpt>
      <trkpt lat="40.557750" lon="-5.208333">
        <ele>2483.0</ele>
        <time>2018-07-14T13:12:17Z</time>
      </trkpt>
      <trkpt lat="40.557850" lon="-5.208250">
        <ele>2484.0</ele>
        <time>2018-07-14T13:12:18Z</time>
      </trkpt>
      <trkpt lat="40.557933" lon="-5.208200">
        <ele>2486.0</ele>
        <time>2018-07-14T13:12:19Z</time>
      </trkpt>
      <trkpt lat="40.558017" lon="-5.208167">
        <ele>2488.0</ele>
        <time>2018-07-14T13:12:20Z</time>
      </trkpt>
      <trkpt lat="40.558100" lon="-5.208117">
        <ele>2490.0</ele>
        <time>2018-07-14T13:12:21Z</time>
      </trkpt>
      <trkpt lat="40.558167" lon="-5.208067">
        <ele>2490.0</ele>
        <time>2018-07-14T13:12:22Z</time>
      </trkpt>
      <trkpt lat="40.558250" lon="-5.208000">
        <ele>2490.0</ele>
        <time>2018-07-14T13:12:23Z</time>
      </trkpt>
      <trkpt lat="40.558350" lon="-5.207950">
        <ele>2490.0</ele>
        <time>2018-07-14T13:12:24Z</time>
      </trkpt>
      <trkpt lat="40.558433" lon="-5.207917">
        <ele>2490.0</ele>
        <time>2018-07-14T13:12:25Z</time>
      </trkpt>
      <trkpt lat="40.558533" lon="-5.207900">
        <ele>2491.0</ele>
        <time>2018-07-14T13:12:26Z</time>
      </trkpt>
      <trkpt lat="40.558600" lon="-5.207900">
        <ele>2492.0</ele>
        <time>2018-07-14T13:12:27Z</time>
      </trkpt>
      <trkpt lat="40.558683" lon="-5.207883">
        <ele>2493.0</ele>
        <time>2018-07-14T13:12:28Z</time>
      </trkpt>
      <trkpt lat="40.558767" lon="-5.207867">
        <ele>2494.0</ele>
        <time>2018-07-14T13:12:29Z</time>
      </trkpt>
      <trkpt lat="40.558867" lon="-5.207850">
        <ele>2494.0</ele>
        <time>2018-07-14T13:12:30Z</time>
      </trkpt>
      <trkpt lat="40.558950" lon="-5.207817">
        <ele>2495.0</ele>
        <time>2018-07-14T13:12:31Z</time>
      </trkpt>
      <trkpt lat="40.559050" lon="-5.207783">
        <ele>2496.0</ele>
        <time>2018-07-14T13:12:32Z</time>
      </trkpt>
      <trkpt lat="40.559150" lon="-5.207750">
        <ele>2497.0</ele>
        <time>2018-07-14T13:12:33Z</time>
      </trkpt>
      <trkpt lat="40.559233" lon="-5.207717">
        <ele>2498.0</ele>
        <time>2018-07-14T13:12:34Z</time>
      </trkpt>
      <trkpt lat="40.559317" lon="-5.207683">
        <ele>2499.0</ele>
        <time>2018-07-14T13:12:35Z</time>
      </trkpt>
      <trkpt lat="40.559417" lon="-5.207617">
        <ele>2499.0</ele>
        <time>2018-07-14T13:12:36Z</time>
      </trkpt>
      <trkpt lat="40.559500" lon="-5.207567">
        <ele>2500.0</ele>
        <time>2018-07-14T13:12:37Z</time>
      </trkpt>
      <trkpt lat="40.559583" lon="-5.207517">
        <ele>2501.0</ele>
        <time>2018-07-14T13:12:38Z</time>
      </trkpt>
      <trkpt lat="40.559667" lon="-5.207467">
        <ele>2503.0</ele>
        <time>2018-07-14T13:12:39Z</time>
      </trkpt>
      <trkpt lat="40.559733" lon="-5.207400">
        <ele>2505.0</ele>
        <time>2018-07-14T13:12:40Z</time>
      </trkpt>
      <trkpt lat="40.559817" lon="-5.207367">
        <ele>2506.0</ele>
        <time>2018-07-14T13:12:41Z</time>
      </trkpt>
      <trkpt lat="40.559900" lon="-5.207317">
        <ele>2507.0</ele>
        <time>2018-07-14T13:12:42Z</time>
      </trkpt>
      <trkpt lat="40.560000" lon="-5.207250">
        <ele>2508.0</ele>
        <time>2018-07-14T13:12:43Z</time>
      </trkpt>
      <trkpt lat="40.560100" lon="-5.207183">
        <ele>2509.0</ele>
        <time>2018-07-14T13:12:44Z</time>
      </trkpt>
      <trkpt lat="40.560183" lon="-5.207117">
        <ele>2510.0</ele>
        <time>2018-07-14T13:12:45Z</time>
      </trkpt>
      <trkpt lat="40.560283" lon="-5.207050">
        <ele>2512.0</ele>
        <time>2018-07-14T13:12:46Z</time>
      </trkpt>
      <trkpt lat="40.560350" lon="-5.207000">
        <ele>2514.0</ele>
        <time>2018-07-14T13:12:47Z</time>
      </trkpt>
      <trkpt lat="40.560433" lon="-5.206950">
        <ele>2516.0</ele>
        <time>2018-07-14T13:12:48Z</time>
      </trkpt>
      <trkpt lat="40.560500" lon="-5.206900">
        <ele>2518.0</ele>
        <time>2018-07-14T13:12:49Z</time>
      </trkpt>
      <trkpt lat="40.560600" lon="-5.206867">
        <ele>2519.0</ele>
        <time>2018-07-14T13:12:50Z</time>
      </trkpt>
      <trkpt lat="40.560667" lon="-5.206867">
        <ele>2519.0</ele>
        <time>2018-07-14T13:12:51Z</time>
      </trkpt>
      <trkpt lat="40.560733" lon="-5.206917">
        <ele>2519.0</ele>
        <time>2018-07-14T13:12:52Z</time>
      </trkpt>
      <trkpt lat="40.560783" lon="-5.206983">
        <ele>2520.0</ele>
        <time>2018-07-14T13:12:53Z</time>
      </trkpt>
      <trkpt lat="40.560783" lon="-5.207050">
        <ele>2521.0</ele>
        <time>2018-07-14T13:12:54Z</time>
      </trkpt>
      <trkpt lat="40.560767" lon="-5.207117">
        <ele>2522.0</ele>
        <time>2018-07-14T13:12:55Z</time>
      </trkpt>
      <trkpt lat="40.560700" lon="-5.207150">
        <ele>2524.0</ele>
        <time>2018-07-14T13:12:56Z</time>
      </trkpt>
      <trkpt lat="40.560633" lon="-5.207167">
        <ele>2526.0</ele>
        <time>2018-07-14T13:12:57Z</time>
      </trkpt>
      <trkpt lat="40.560533" lon="-5.207133">
        <ele>2526.0</ele>
        <time>2018-07-14T13:12:58Z</time>
      </trkpt>
      <trkpt lat="40.560450" lon="-5.207067">
        <ele>2527.0</ele>
        <time>2018-07-14T13:12:59Z</time>
      </trkpt>
      <trkpt lat="40.560367" lon="-5.206983">
        <ele>2528.0</ele>
        <time>2018-07-14T13:13:00Z</time>
      </trkpt>
      <trkpt lat="40.560300" lon="-5.206867">
        <ele>2528.0</ele>
        <time>2018-07-14T13:13:01Z</time>
      </trkpt>
      <trkpt lat="40.560250" lon="-5.206717">
        <ele>2529.0</ele>
        <time>2018-07-14T13:13:02Z</time>
      </trkpt>
      <trkpt lat="40.560233" lon="-5.206550">
        <ele>2530.0</ele>
        <time>2018-07-14T13:13:03Z</time>
      </trkpt>
      <trkpt lat="40.560250" lon="-5.206383">
        <ele>2530.0</ele>
        <time>2018-07-14T13:13:04Z</time>
      </trkpt>
      <trkpt lat="40.560283" lon="-5.206233">
        <ele>2532.0</ele>
        <time>2018-07-14T13:13:05Z</time>
      </trkpt>
      <trkpt lat="40.560333" lon="-5.206100">
        <ele>2534.0</ele>
        <time>2018-07-14T13:13:06Z</time>
      </trkpt>
      <trkpt lat="40.560383" lon="-5.205983">
        <ele>2536.0</ele>
        <time>2018-07-14T13:13:07Z</time>
      </trkpt>
      <trkpt lat="40.560450" lon="-5.205883">
        <ele>2537.0</ele>
        <time>2018-07-14T13:13:08Z</time>
      </trkpt>
      <trkpt lat="40.560517" lon="-5.205800">
        <ele>2539.0</ele>
        <time>2018-07-14T13:13:09Z</time>
      </trkpt>
      <trkpt lat="40.560600" lon="-5.205717">
        <ele>2540.0</ele>
        <time>2018-07-14T13:13:10Z</time>
      </trkpt>
      <trkpt lat="40.560683" lon="-5.205683">
        <ele>2540.0</ele>
        <time>2018-07-14T13:13:11Z</time>
      </trkpt>
      <trkpt lat="40.560767" lon="-5.205683">
        <ele>2541.0</ele>
        <time>2018-07-14T13:13:12Z</time>
      </trkpt>
      <trkpt lat="40.560850" lon="-5.205700">
        <ele>2542.0</ele>
        <time>2018-07-14T13:13:13Z</time>
      </trkpt>
      <trkpt lat="40.560900" lon="-5.205767">
        <ele>2543.0</ele>
        <time>2018-07-14T13:13:14Z</time>
      </trkpt>
      <trkpt lat="40.560933" lon="-5.205817">
        <ele>2544.0</ele>
        <time>2018-07-14T13:13:15Z</time>
      </trkpt>
      <trkpt lat="40.560950" lon="-5.205900">
        <ele>2545.0</ele>
        <time>2018-07-14T13:13:16Z</time>
      </trkpt>
      <trkpt lat="40.560950" lon="-5.205950">
        <ele>2548.0</ele>
        <time>2018-07-14T13:13:17Z</time>
      </trkpt>
      <trkpt lat="40.560933" lon="-5.206000">
        <ele>2550.0</ele>
        <time>2018-07-14T13:13:18Z</time>
      </trkpt>
      <trkpt lat="40.560883" lon="-5.206050">
        <ele>2551.0</ele>
        <time>2018-07-14T13:13:19Z</time>
      </trkpt>
      <trkpt lat="40.560833" lon="-5.206117">
        <ele>2552.0</ele>
        <time>2018-07-14T13:13:20Z</time>
      </trkpt>
      <trkpt lat="40.560750" lon="-5.206150">
        <ele>2552.0</ele>
        <time>2018-07-14T13:13:21Z</time>
      </trkpt>
      <trkpt lat="40.560667" lon="-5.206150">
        <ele>2553.0</ele>
        <time>2018-07-14T13:13:22Z</time>
      </trkpt>
      <trkpt lat="40.560567" lon="-5.206100">
        <ele>2553.0</ele>
        <time>2018-07-14T13:13:23Z</time>
      </trkpt>
      <trkpt lat="40.560483" lon="-5.206017">
        <ele>2554.0</ele>
        <time>2018-07-14T13:13:24Z</time>
      </trkpt>
      <trkpt lat="40.560400" lon="-5.205900">
        <ele>2554.0</ele>
        <time>2018-07-14T13:13:25Z</time>
      </trkpt>
      <trkpt lat="40.560333" lon="-5.205767">
        <ele>2554.0</ele>
        <time>2018-07-14T13:13:26Z</time>
      </trkpt>
      <trkpt lat="40.560300" lon="-5.205617">
        <ele>2554.0</ele>
        <time>2018-07-14T13:13:27Z</time>
      </trkpt>
      <trkpt lat="40.560283" lon="-5.205467">
        <ele>2554.0</ele>
        <time>2018-07-14T13:13:28Z</time>
      </trkpt>
      <trkpt lat="40.560300" lon="-5.205317">
        <ele>2555.0</ele>
        <time>2018-07-14T13:13:29Z</time>
      </trkpt>
      <trkpt lat="40.560333" lon="-5.205167">
        <ele>2555.0</ele>
        <time>2018-07-14T13:13:30Z</time>
      </trkpt>
      <trkpt lat="40.560383" lon="-5.205050">
        <ele>2557.0</ele>
        <time>2018-07-14T13:13:31Z</time>
      </trkpt>
      <trkpt lat="40.560450" lon="-5.204933">
        <ele>2558.0</ele>
        <time>2018-07-14T13:13:32Z</time>
      </trkpt>
      <trkpt lat="40.560517" lon="-5.204867">
        <ele>2560.0</ele>
        <time>2018-07-14T13:13:33Z</time>
      </trkpt>
      <trkpt lat="40.560600" lon="-5.204817">
        <ele>2562.0</ele>
        <time>2018-07-14T13:13:34Z</time>
      </trkpt>
      <trkpt lat="40.560683" lon="-5.204817">
        <ele>2563.0</ele>
        <time>2018-07-14T13:13:35Z</time>
      </trkpt>
      <trkpt lat="40.560767" lon="-5.204833">
        <ele>2564.0</ele>
        <time>2018-07-14T13:13:36Z</time>
      </trkpt>
      <trkpt lat="40.560833" lon="-5.204817">
        <ele>2566.0</ele>
        <time>2018-07-14T13:13:37Z</time>
      </trkpt>
      <trkpt lat="40.560900" lon="-5.204750">
        <ele>2568.0</ele>
        <time>2018-07-14T13:13:38Z</time>
      </trkpt>
      <trkpt lat="40.560967" lon="-5.204650">
        <ele>2570.0</ele>
        <time>2018-07-14T13:13:39Z</time>
      </trkpt>
      <trkpt lat="40.561017" lon="-5.204533">
        <ele>2572.0</ele>
        <time>2018-07-14T13:13:40Z</time>
      </trkpt>
      <trkpt lat="40.561033" lon="-5.204400">
        <ele>2573.0</ele>
        <time>2018-07-14T13:13:41Z</time>
      </trkpt>
      <trkpt lat="40.561017" lon="-5.204250">
        <ele>2576.0</ele>
        <time>2018-07-14T13:13:42Z</time>
      </trkpt>
      <trkpt lat="40.560967" lon="-5.204133">
        <ele>2578.0</ele>
        <time>2018-07-14T13:13:43Z</time>
      </trkpt>
      <trkpt lat="40.560883" lon="-5.204067">
        <ele>2579.0</ele>
        <time>2018-07-14T13:13:44Z</time>
      </trkpt>
      <trkpt lat="40.560800" lon="-5.204017">
        <ele>2580.0</ele>
        <time>2018-07-14T13:13:45Z</time>
      </trkpt>
      <trkpt lat="40.560733" lon="-5.204033">
        <ele>2582.0</ele>
        <time>2018-07-14T13:13:46Z</time>
      </trkpt>
      <trkpt lat="40.560667" lon="-5.204083">
        <ele>2583.0</ele>
        <time>2018-07-14T13:13:47Z</time>
      </trkpt>
      <trkpt lat="40.560633" lon="-5.204183">
        <ele>2583.0</ele>
        <time>2018-07-14T13:13:48Z</time>
      </trkpt>
      <trkpt lat="40.560617" lon="-5.204267">
        <ele>2583.0</ele>
        <time>2018-07-14T13:13:49Z</time>
      </trkpt>
      <trkpt lat="40.560633" lon="-5.204367">
        <ele>2584.0</ele>
        <time>2018-07-14T13:13:50Z</time>
      </trkpt>
      <trkpt lat="40.560700" lon="-5.204433">
        <ele>2585.0</ele>
        <time>2018-07-14T13:13:51Z</time>
      </trkpt>
      <trkpt lat="40.560767" lon="-5.204467">
        <ele>2586.0</ele>
        <time>2018-07-14T13:13:52Z</time>
      </trkpt>
      <trkpt lat="40.560867" lon="-5.204450">
        <ele>2588.0</ele>
        <time>2018-07-14T13:13:53Z</time>
      </trkpt>
      <trkpt lat="40.560933" lon="-5.204400">
        <ele>2589.0</ele>
        <time>2018-07-14T13:13:54Z</time>
      </trkpt>
      <trkpt lat="40.561000" lon="-5.204317">
        <ele>2590.0</ele>
        <time>2018-07-14T13:13:55Z</time>
      </trkpt>
      <trkpt lat="40.561067" lon="-5.204200">
        <ele>2592.0</ele>
        <time>2018-07-14T13:13:56Z</time>
      </trkpt>
      <trkpt lat="40.561100" lon="-5.204083">
        <ele>2593.0</ele>
        <time>2018-07-14T13:13:57Z</time>
      </trkpt>
      <trkpt lat="40.561117" lon="-5.203950">
        <ele>2595.0</ele>
        <time>2018-07-14T13:13:58Z</time>
      </trkpt>
      <trkpt lat="40.561100" lon="-5.203817">
        <ele>2596.0</ele>
        <time>2018-07-14T13:13:59Z</time>
      </trkpt>
      <trkpt lat="40.561050" lon="-5.203683">
        <ele>2596.0</ele>
        <time>2018-07-14T13:14:00Z</time>
      </trkpt>
      <trkpt lat="40.560983" lon="-5.203567">
        <ele>2597.0</ele>
        <time>2018-07-14T13:14:01Z</time>
      </trkpt>
      <trkpt lat="40.560900" lon="-5.203500">
        <ele>2598.0</ele>
        <time>2018-07-14T13:14:02Z</time>
      </trkpt>
      <trkpt lat="40.560800" lon="-5.203450">
        <ele>2599.0</ele>
        <time>2018-07-14T13:14:03Z</time>
      </trkpt>
      <trkpt lat="40.560717" lon="-5.203467">
        <ele>2600.0</ele>
        <time>2018-07-14T13:14:04Z</time>
      </trkpt>
      <trkpt lat="40.560633" lon="-5.203500">
        <ele>2601.0</ele>
        <time>2018-07-14T13:14:05Z</time>
      </trkpt>
      <trkpt lat="40.560583" lon="-5.203550">
        <ele>2604.0</ele>
        <time>2018-07-14T13:14:06Z</time>
      </trkpt>
      <trkpt lat="40.560533" lon="-5.203600">
        <ele>2606.0</ele>
        <time>2018-07-14T13:14:07Z</time>
      </trkpt>
      <trkpt lat="40.560500" lon="-5.203667">
        <ele>2608.0</ele>
        <time>2018-07-14T13:14:08Z</time>
      </trkpt>
      <trkpt lat="40.560467" lon="-5.203750">
        <ele>2610.0</ele>
        <time>2018-07-14T13:14:09Z</time>
      </trkpt>
      <trkpt lat="40.560450" lon="-5.203833">
        <ele>2610.0</ele>
        <time>2018-07-14T13:14:10Z</time>
      </trkpt>
      <trkpt lat="40.560467" lon="-5.203917">
        <ele>2611.0</ele>
        <time>2018-07-14T13:14:11Z</time>
      </trkpt>
      <trkpt lat="40.560483" lon="-5.204000">
        <ele>2610.0</ele>
        <time>2018-07-14T13:14:12Z</time>
      </trkpt>
      <trkpt lat="40.560517" lon="-5.204067">
        <ele>2610.0</ele>
        <time>2018-07-14T13:14:13Z</time>
      </trkpt>
      <trkpt lat="40.560567" lon="-5.204117">
        <ele>2611.0</ele>
        <time>2018-07-14T13:14:14Z</time>
      </trkpt>
      <trkpt lat="40.560633" lon="-5.204133">
        <ele>2611.0</ele>
        <time>2018-07-14T13:14:15Z</time>
      </trkpt>
      <trkpt lat="40.560717" lon="-5.204133">
        <ele>2612.0</ele>
        <time>2018-07-14T13:14:16Z</time>
      </trkpt>
      <trkpt lat="40.560800" lon="-5.204117">
        <ele>2612.0</ele>
        <time>2018-07-14T13:14:17Z</time>
      </trkpt>
      <trkpt lat="40.560867" lon="-5.204067">
        <ele>2613.0</ele>
        <time>2018-07-14T13:14:18Z</time>
      </trkpt>
      <trkpt lat="40.560917" lon="-5.203983">
        <ele>2614.0</ele>
        <time>2018-07-14T13:14:19Z</time>
      </trkpt>
      <trkpt lat="40.560967" lon="-5.203867">
        <ele>2615.0</ele>
        <time>2018-07-14T13:14:20Z</time>
      </trkpt>
      <trkpt lat="40.561000" lon="-5.203750">
        <ele>2615.0</ele>
        <time>2018-07-14T13:14:21Z</time>
      </trkpt>
      <trkpt lat="40.561000" lon="-5.203617">
        <ele>2616.0</ele>
        <time>2018-07-14T13:14:22Z</time>
      </trkpt>
      <trkpt lat="40.560983" lon="-5.203483">
        <ele>2616.0</ele>
        <time>2018-07-14T13:14:23Z</time>
      </trkpt>
      <trkpt lat="40.560933" lon="-5.203367">
        <ele>2617.0</ele>
        <time>2018-07-14T13:14:24Z</time>
      </trkpt>
      <trkpt lat="40.560883" lon="-5.203250">
        <ele>2618.0</ele>
        <time>2018-07-14T13:14:25Z</time>
      </trkpt>
      <trkpt lat="40.560800" lon="-5.203150">
        <ele>2618.0</ele>
        <time>2018-07-14T13:14:26Z</time>
      </trkpt>
      <trkpt lat="40.560717" lon="-5.203083">
        <ele>2619.0</ele>
        <time>2018-07-14T13:14:27Z</time>
      </trkpt>
      <trkpt lat="40.560633" lon="-5.203050">
        <ele>2620.0</ele>
        <time>2018-07-14T13:14:28Z</time>
      </trkpt>
      <trkpt lat="40.560550" lon="-5.203050">
        <ele>2622.0</ele>
        <time>2018-07-14T13:14:29Z</time>
      </trkpt>
      <trkpt lat="40.560483" lon="-5.203050">
        <ele>2625.0</ele>
        <time>2018-07-14T13:14:30Z</time>
      </trkpt>
      <trkpt lat="40.560400" lon="-5.203067">
        <ele>2627.0</ele>
        <time>2018-07-14T13:14:31Z</time>
      </trkpt>
      <trkpt lat="40.560333" lon="-5.203067">
        <ele>2629.0</ele>
        <time>2018-07-14T13:14:32Z</time>
      </trkpt>
      <trkpt lat="40.560250" lon="-5.203100">
        <ele>2630.0</ele>
        <time>2018-07-14T13:14:33Z</time>
      </trkpt>
      <trkpt lat="40.560183" lon="-5.203150">
        <ele>2632.0</ele>
        <time>2018-07-14T13:14:34Z</time>
      </trkpt>
      <trkpt lat="40.560117" lon="-5.203317">
        <ele>2635.0</ele>
        <time>2018-07-14T13:14:36Z</time>
      </trkpt>
      <trkpt lat="40.560083" lon="-5.203383">
        <ele>2636.0</ele>
        <time>2018-07-14T13:14:37Z</time>
      </trkpt>
      <trkpt lat="40.560067" lon="-5.203467">
        <ele>2637.0</ele>
        <time>2018-07-14T13:14:38Z</time>
      </trkpt>
      <trkpt lat="40.560067" lon="-5.203517">
        <ele>2637.0</ele>
        <time>2018-07-14T13:14:39Z</time>
      </trkpt>
      <trkpt lat="40.560100" lon="-5.203600">
        <ele>2637.0</ele>
        <time>2018-07-14T13:14:40Z</time>
      </trkpt>
      <trkpt lat="40.560133" lon="-5.203667">
        <ele>2636.0</ele>
        <time>2018-07-14T13:14:41Z</time>
      </trkpt>
      <trkpt lat="40.560183" lon="-5.203733">
        <ele>2635.0</ele>
        <time>2018-07-14T13:14:42Z</time>
      </trkpt>
      <trkpt lat="40.560267" lon="-5.203767">
        <ele>2635.0</ele>
        <time>2018-07-14T13:14:43Z</time>
      </trkpt>
      <trkpt lat="40.560333" lon="-5.203767">
        <ele>2636.0</ele>
        <time>2018-07-14T13:14:44Z</time>
      </trkpt>
      <trkpt lat="40.560400" lon="-5.203700">
        <ele>2636.0</ele>
        <time>2018-07-14T13:14:45Z</time>
      </trkpt>
      <trkpt lat="40.560467" lon="-5.203617">
        <ele>2635.0</ele>
        <time>2018-07-14T13:14:46Z</time>
      </trkpt>
      <trkpt lat="40.560517" lon="-5.203500">
        <ele>2635.0</ele>
        <time>2018-07-14T13:14:47Z</time>
      </trkpt>
      <trkpt lat="40.560567" lon="-5.203367">
        <ele>2635.0</ele>
        <time>2018-07-14T13:14:48Z</time>
      </trkpt>
      <trkpt lat="40.560583" lon="-5.203233">
        <ele>2636.0</ele>
        <time>2018-07-14T13:14:49Z</time>
      </trkpt>
      <trkpt lat="40.560567" lon="-5.203117">
        <ele>2637.0</ele>
        <time>2018-07-14T13:14:50Z</time>
      </trkpt>
      <trkpt lat="40.560533" lon="-5.203000">
        <ele>2638.0</ele>
        <time>2018-07-14T13:14:51Z</time>
      </trkpt>
      <trkpt lat="40.560467" lon="-5.202883">
        <ele>2639.0</ele>
        <time>2018-07-14T13:14:52Z</time>
      </trkpt>
      <trkpt lat="40.560400" lon="-5.202800">
        <ele>2640.0</ele>
        <time>2018-07-14T13:14:53Z</time>
      </trkpt>
      <trkpt lat="40.560333" lon="-5.202733">
        <ele>2643.0</ele>
        <time>2018-07-14T13:14:54Z</time>
      </trkpt>
      <trkpt lat="40.560267" lon="-5.202700">
        <ele>2644.0</ele>
        <time>2018-07-14T13:14:55Z</time>
      </trkpt>
      <trkpt lat="40.560183" lon="-5.202683">
        <ele>2644.0</ele>
        <time>2018-07-14T13:14:56Z</time>
      </trkpt>
      <trkpt lat="40.560100" lon="-5.202700">
        <ele>2645.0</ele>
        <time>2018-07-14T13:14:57Z</time>
      </trkpt>
      <trkpt lat="40.560017" lon="-5.202733">
        <ele>2645.0</ele>
        <time>2018-07-14T13:14:58Z</time>
      </trkpt>
      <trkpt lat="40.559950" lon="-5.202800">
        <ele>2645.0</ele>
        <time>2018-07-14T13:14:59Z</time>
      </trkpt>
      <trkpt lat="40.559917" lon="-5.202883">
        <ele>2645.0</ele>
        <time>2018-07-14T13:15:00Z</time>
      </trkpt>
      <trkpt lat="40.559917" lon="-5.202967">
        <ele>2646.0</ele>
        <time>2018-07-14T13:15:01Z</time>
      </trkpt>
      <trkpt lat="40.559917" lon="-5.203033">
        <ele>2646.0</ele>
        <time>2018-07-14T13:15:02Z</time>
      </trkpt>
      <trkpt lat="40.559967" lon="-5.203100">
        <ele>2645.0</ele>
        <time>2018-07-14T13:15:03Z</time>
      </trkpt>
      <trkpt lat="40.560017" lon="-5.203150">
        <ele>2645.0</ele>
        <time>2018-07-14T13:15:04Z</time>
      </trkpt>
      <trkpt lat="40.560083" lon="-5.203183">
        <ele>2645.0</ele>
        <time>2018-07-14T13:15:05Z</time>
      </trkpt>
      <trkpt lat="40.560150" lon="-5.203167">
        <ele>2644.0</ele>
        <time>2018-07-14T13:15:06Z</time>
      </trkpt>
      <trkpt lat="40.560217" lon="-5.203133">
        <ele>2643.0</ele>
        <time>2018-07-14T13:15:07Z</time>
      </trkpt>
      <trkpt lat="40.560267" lon="-5.203067">
        <ele>2642.0</ele>
        <time>2018-07-14T13:15:08Z</time>
      </trkpt>
      <trkpt lat="40.560333" lon="-5.202967">
        <ele>2642.0</ele>
        <time>2018-07-14T13:15:09Z</time>
      </trkpt>
      <trkpt lat="40.560400" lon="-5.202883">
        <ele>2640.0</ele>
        <time>2018-07-14T13:15:10Z</time>
      </trkpt>
      <trkpt lat="40.560450" lon="-5.202767">
        <ele>2640.0</ele>
        <time>2018-07-14T13:15:11Z</time>
      </trkpt>
      <trkpt lat="40.560500" lon="-5.202683">
        <ele>2640.0</ele>
        <time>2018-07-14T13:15:12Z</time>
      </trkpt>
      <trkpt lat="40.560583" lon="-5.202600">
        <ele>2641.0</ele>
        <time>2018-07-14T13:15:13Z</time>
      </trkpt>
      <trkpt lat="40.560683" lon="-5.202567">
        <ele>2641.0</ele>
        <time>2018-07-14T13:15:14Z</time>
      </trkpt>
      <trkpt lat="40.560783" lon="-5.202533">
        <ele>2640.0</ele>
        <time>2018-07-14T13:15:15Z</time>
      </trkpt>
      <trkpt lat="40.560883" lon="-5.202533">
        <ele>2641.0</ele>
        <time>2018-07-14T13:15:16Z</time>
      </trkpt>
      <trkpt lat="40.561000" lon="-5.202533">
        <ele>2642.0</ele>
        <time>2018-07-14T13:15:17Z</time>
      </trkpt>
      <trkpt lat="40.561100" lon="-5.202533">
        <ele>2643.0</ele>
        <time>2018-07-14T13:15:18Z</time>
      </trkpt>
      <trkpt lat="40.561200" lon="-5.202533">
        <ele>2644.0</ele>
        <time>2018-07-14T13:15:19Z</time>
      </trkpt>
      <trkpt lat="40.561300" lon="-5.202550">
        <ele>2645.0</ele>
        <time>2018-07-14T13:15:20Z</time>
      </trkpt>
      <trkpt lat="40.561583" lon="-5.202633">
        <ele>2653.0</ele>
        <time>2018-07-14T13:15:23Z</time>
      </trkpt>
      <trkpt lat="40.561667" lon="-5.202650">
        <ele>2655.0</ele>
        <time>2018-07-14T13:15:24Z</time>
      </trkpt>
      <trkpt lat="40.561733" lon="-5.202683">
        <ele>2657.0</ele>
        <time>2018-07-14T13:15:25Z</time>
      </trkpt>
      <trkpt lat="40.561800" lon="-5.202717">
        <ele>2659.0</ele>
        <time>2018-07-14T13:15:26Z</time>
      </trkpt>
      <trkpt lat="40.561867" lon="-5.202733">
        <ele>2660.0</ele>
        <time>2018-07-14T13:15:27Z</time>
      </trkpt>
      <trkpt lat="40.562033" lon="-5.202700">
        <ele>2661.0</ele>
        <time>2018-07-14T13:15:29Z</time>
      </trkpt>
      <trkpt lat="40.562083" lon="-5.202650">
        <ele>2660.0</ele>
        <time>2018-07-14T13:15:30Z</time>
      </trkpt>
      <trkpt lat="40.562133" lon="-5.202583">
        <ele>2660.0</ele>
        <time>2018-07-14T13:15:31Z</time>
      </trkpt>
      <trkpt lat="40.562217" lon="-5.202483">
        <ele>2660.0</ele>
        <time>2018-07-14T13:15:32Z</time>
      </trkpt>
      <trkpt lat="40.562283" lon="-5.202350">
        <ele>2660.0</ele>
        <time>2018-07-14T13:15:33Z</time>
      </trkpt>
      <trkpt lat="40.562333" lon="-5.202200">
        <ele>2660.0</ele>
        <time>2018-07-14T13:15:34Z</time>
      </trkpt>
      <trkpt lat="40.562367" lon="-5.202050">
        <ele>2660.0</ele>
        <time>2018-07-14T13:15:35Z</time>
      </trkpt>
      <trkpt lat="40.562367" lon="-5.201917">
        <ele>2660.0</ele>
        <time>2018-07-14T13:15:36Z</time>
      </trkpt>
      <trkpt lat="40.562350" lon="-5.201783">
        <ele>2660.0</ele>
        <time>2018-07-14T13:15:37Z</time>
      </trkpt>
      <trkpt lat="40.562317" lon="-5.201667">
        <ele>2661.0</ele>
        <time>2018-07-14T13:15:38Z</time>
      </trkpt>
      <trkpt lat="40.562267" lon="-5.201567">
        <ele>2661.0</ele>
        <time>2018-07-14T13:15:39Z</time>
      </trkpt>
      <trkpt lat="40.562200" lon="-5.201483">
        <ele>2662.0</ele>
        <time>2018-07-14T13:15:40Z</time>
      </trkpt>
      <trkpt lat="40.562133" lon="-5.201417">
        <ele>2663.0</ele>
        <time>2018-07-14T13:15:41Z</time>
      </trkpt>
      <trkpt lat="40.562067" lon="-5.201383">
        <ele>2665.0</ele>
        <time>2018-07-14T13:15:42Z</time>
      </trkpt>
      <trkpt lat="40.561983" lon="-5.201383">
        <ele>2666.0</ele>
        <time>2018-07-14T13:15:43Z</time>
      </trkpt>
      <trkpt lat="40.561933" lon="-5.201417">
        <ele>2667.0</ele>
        <time>2018-07-14T13:15:44Z</time>
      </trkpt>
      <trkpt lat="40.561900" lon="-5.201483">
        <ele>2669.0</ele>
        <time>2018-07-14T13:15:45Z</time>
      </trkpt>
      <trkpt lat="40.561900" lon="-5.201567">
        <ele>2671.0</ele>
        <time>2018-07-14T13:15:46Z</time>
      </trkpt>
      <trkpt lat="40.561917" lon="-5.201667">
        <ele>2673.0</ele>
        <time>2018-07-14T13:15:47Z</time>
      </trkpt>
      <trkpt lat="40.561950" lon="-5.201750">
        <ele>2675.0</ele>
        <time>2018-07-14T13:15:48Z</time>
      </trkpt>
      <trkpt lat="40.562000" lon="-5.201800">
        <ele>2678.0</ele>
        <time>2018-07-14T13:15:49Z</time>
      </trkpt>
      <trkpt lat="40.562067" lon="-5.201833">
        <ele>2681.0</ele>
        <time>2018-07-14T13:15:50Z</time>
      </trkpt>
      <trkpt lat="40.562133" lon="-5.201867">
        <ele>2681.0</ele>
        <time>2018-07-14T13:15:51Z</time>
      </trkpt>
      <trkpt lat="40.562217" lon="-5.201867">
        <ele>2681.0</ele>
        <time>2018-07-14T13:15:52Z</time>
      </trkpt>
      <trkpt lat="40.562317" lon="-5.201883">
        <ele>2681.0</ele>
        <time>2018-07-14T13:15:53Z</time>
      </trkpt>
      <trkpt lat="40.562417" lon="-5.201867">
        <ele>2681.0</ele>
        <time>2018-07-14T13:15:54Z</time>
      </trkpt>
      <trkpt lat="40.562517" lon="-5.201850">
        <ele>2681.0</ele>
        <time>2018-07-14T13:15:55Z</time>
      </trkpt>
      <trkpt lat="40.562617" lon="-5.201800">
        <ele>2682.0</ele>
        <time>2018-07-14T13:15:56Z</time>
      </trkpt>
      <trkpt lat="40.562683" lon="-5.201717">
        <ele>2683.0</ele>
        <time>2018-07-14T13:15:57Z</time>
      </trkpt>
      <trkpt lat="40.562750" lon="-5.201617">
        <ele>2684.0</ele>
        <time>2018-07-14T13:15:58Z</time>
      </trkpt>
      <trkpt lat="40.562800" lon="-5.201500">
        <ele>2684.0</ele>
        <time>2018-07-14T13:15:59Z</time>
      </trkpt>
      <trkpt lat="40.562833" lon="-5.201367">
        <ele>2684.0</ele>
        <time>2018-07-14T13:16:00Z</time>
      </trkpt>
      <trkpt lat="40.562833" lon="-5.201217">
        <ele>2685.0</ele>
        <time>2018-07-14T13:16:01Z</time>
      </trkpt>
      <trkpt lat="40.562800" lon="-5.201100">
        <ele>2685.0</ele>
        <time>2018-07-14T13:16:02Z</time>
      </trkpt>
      <trkpt lat="40.562733" lon="-5.200983">
        <ele>2686.0</ele>
        <time>2018-07-14T13:16:03Z</time>
      </trkpt>
      <trkpt lat="40.562667" lon="-5.200917">
        <ele>2687.0</ele>
        <time>2018-07-14T13:16:04Z</time>
      </trkpt>
      <trkpt lat="40.562600" lon="-5.200883">
        <ele>2689.0</ele>
        <time>2018-07-14T13:16:05Z</time>
      </trkpt>
      <trkpt lat="40.562533" lon="-5.200867">
        <ele>2691.0</ele>
        <time>2018-07-14T13:16:06Z</time>
      </trkpt>
      <trkpt lat="40.562467" lon="-5.200867">
        <ele>2693.0</ele>
        <time>2018-07-14T13:16:07Z</time>
      </trkpt>
      <trkpt lat="40.562400" lon="-5.200867">
        <ele>2695.0</ele>
        <time>2018-07-14T13:16:08Z</time>
      </trkpt>
      <trkpt lat="40.562333" lon="-5.200867">
        <ele>2695.0</ele>
        <time>2018-07-14T13:16:09Z</time>
      </trkpt>
      <trkpt lat="40.562267" lon="-5.200917">
        <ele>2696.0</ele>
        <time>2018-07-14T13:16:10Z</time>
      </trkpt>
      <trkpt lat="40.562200" lon="-5.200983">
        <ele>2696.0</ele>
        <time>2018-07-14T13:16:11Z</time>
      </trkpt>
      <trkpt lat="40.562183" lon="-5.201067">
        <ele>2697.0</ele>
        <time>2018-07-14T13:16:12Z</time>
      </trkpt>
      <trkpt lat="40.562183" lon="-5.201150">
        <ele>2697.0</ele>
        <time>2018-07-14T13:16:13Z</time>
      </trkpt>
      <trkpt lat="40.562183" lon="-5.201250">
        <ele>2698.0</ele>
        <time>2018-07-14T13:16:14Z</time>
      </trkpt>
      <trkpt lat="40.562200" lon="-5.201333">
        <ele>2700.0</ele>
        <time>2018-07-14T13:16:15Z</time>
      </trkpt>
      <trkpt lat="40.562317" lon="-5.201450">
        <ele>2701.0</ele>
        <time>2018-07-14T13:16:17Z</time>
      </trkpt>
      <trkpt lat="40.562417" lon="-5.201483">
        <ele>2700.0</ele>
        <time>2018-07-14T13:16:18Z</time>
      </trkpt>
      <trkpt lat="40.562517" lon="-5.201533">
        <ele>2699.0</ele>
        <time>2018-07-14T13:16:19Z</time>
      </trkpt>
      <trkpt lat="40.562617" lon="-5.201550">
        <ele>2699.0</ele>
        <time>2018-07-14T13:16:20Z</time>
      </trkpt>
      <trkpt lat="40.562700" lon="-5.201567">
        <ele>2701.0</ele>
        <time>2018-07-14T13:16:21Z</time>
      </trkpt>
      <trkpt lat="40.562783" lon="-5.201533">
        <ele>2702.0</ele>
        <time>2018-07-14T13:16:22Z</time>
      </trkpt>
      <trkpt lat="40.562850" lon="-5.201483">
        <ele>2703.0</ele>
        <time>2018-07-14T13:16:23Z</time>
      </trkpt>
      <trkpt lat="40.562917" lon="-5.201383">
        <ele>2704.0</ele>
        <time>2018-07-14T13:16:24Z</time>
      </trkpt>
      <trkpt lat="40.562950" lon="-5.201267">
        <ele>2704.0</ele>
        <time>2018-07-14T13:16:25Z</time>
      </trkpt>
      <trkpt lat="40.562983" lon="-5.201150">
        <ele>2705.0</ele>
        <time>2018-07-14T13:16:26Z</time>
      </trkpt>
      <trkpt lat="40.562967" lon="-5.201017">
        <ele>2705.0</ele>
        <time>2018-07-14T13:16:27Z</time>
      </trkpt>
      <trkpt lat="40.562933" lon="-5.200883">
        <ele>2706.0</ele>
        <time>2018-07-14T13:16:28Z</time>
      </trkpt>
      <trkpt lat="40.562883" lon="-5.200783">
        <ele>2706.0</ele>
        <time>2018-07-14T13:16:29Z</time>
      </trkpt>
      <trkpt lat="40.562817" lon="-5.200717">
        <ele>2706.0</ele>
        <time>2018-07-14T13:16:30Z</time>
      </trkpt>
      <trkpt lat="40.562733" lon="-5.200667">
        <ele>2706.0</ele>
        <time>2018-07-14T13:16:31Z</time>
      </trkpt>
      <trkpt lat="40.562667" lon="-5.200650">
        <ele>2707.0</ele>
        <time>2018-07-14T13:16:32Z</time>
      </trkpt>
      <trkpt lat="40.562600" lon="-5.200683">
        <ele>2708.0</ele>
        <time>2018-07-14T13:16:33Z</time>
      </trkpt>
      <trkpt lat="40.562550" lon="-5.200717">
        <ele>2708.0</ele>
        <time>2018-07-14T13:16:34Z</time>
      </trkpt>
      <trkpt lat="40.562500" lon="-5.200783">
        <ele>2709.0</ele>
        <time>2018-07-14T13:16:35Z</time>
      </trkpt>
      <trkpt lat="40.562450" lon="-5.200850">
        <ele>2711.0</ele>
        <time>2018-07-14T13:16:36Z</time>
      </trkpt>
      <trkpt lat="40.562433" lon="-5.200933">
        <ele>2711.0</ele>
        <time>2018-07-14T13:16:37Z</time>
      </trkpt>
      <trkpt lat="40.562417" lon="-5.201017">
        <ele>2712.0</ele>
        <time>2018-07-14T13:16:38Z</time>
      </trkpt>
      <trkpt lat="40.562433" lon="-5.201117">
        <ele>2711.0</ele>
        <time>2018-07-14T13:16:39Z</time>
      </trkpt>
      <trkpt lat="40.562467" lon="-5.201217">
        <ele>2711.0</ele>
        <time>2018-07-14T13:16:40Z</time>
      </trkpt>
      <trkpt lat="40.562533" lon="-5.201317">
        <ele>2711.0</ele>
        <time>2018-07-14T13:16:41Z</time>
      </trkpt>
      <trkpt lat="40.562617" lon="-5.201383">
        <ele>2712.0</ele>
        <time>2018-07-14T13:16:42Z</time>
      </trkpt>
      <trkpt lat="40.562700" lon="-5.201433">
        <ele>2713.0</ele>
        <time>2018-07-14T13:16:43Z</time>
      </trkpt>
      <trkpt lat="40.562783" lon="-5.201450">
        <ele>2714.0</ele>
        <time>2018-07-14T13:16:44Z</time>
      </trkpt>
      <trkpt lat="40.562867" lon="-5.201450">
        <ele>2715.0</ele>
        <time>2018-07-14T13:16:45Z</time>
      </trkpt>
      <trkpt lat="40.562950" lon="-5.201400">
        <ele>2715.0</ele>
        <time>2018-07-14T13:16:46Z</time>
      </trkpt>
      <trkpt lat="40.563033" lon="-5.201333">
        <ele>2715.0</ele>
        <time>2018-07-14T13:16:47Z</time>
      </trkpt>
      <trkpt lat="40.563117" lon="-5.201267">
        <ele>2716.0</ele>
        <time>2018-07-14T13:16:48Z</time>
      </trkpt>
      <trkpt lat="40.563183" lon="-5.201167">
        <ele>2716.0</ele>
        <time>2018-07-14T13:16:49Z</time>
      </trkpt>
      <trkpt lat="40.563250" lon="-5.201067">
        <ele>2716.0</ele>
        <time>2018-07-14T13:16:50Z</time>
      </trkpt>
      <trkpt lat="40.563317" lon="-5.200967">
        <ele>2716.0</ele>
        <time>2018-07-14T13:16:51Z</time>
      </trkpt>
      <trkpt lat="40.563400" lon="-5.200900">
        <ele>2717.0</ele>
        <time>2018-07-14T13:16:52Z</time>
      </trkpt>
      <trkpt lat="40.563483" lon="-5.200833">
        <ele>2716.0</ele>
        <time>2018-07-14T13:16:53Z</time>
      </trkpt>
      <trkpt lat="40.563567" lon="-5.200767">
        <ele>2716.0</ele>
        <time>2018-07-14T13:16:54Z</time>
      </trkpt>
      <trkpt lat="40.563650" lon="-5.200700">
        <ele>2715.0</ele>
        <time>2018-07-14T13:16:55Z</time>
      </trkpt>
      <trkpt lat="40.563733" lon="-5.200633">
        <ele>2715.0</ele>
        <time>2018-07-14T13:16:56Z</time>
      </trkpt>
      <trkpt lat="40.563833" lon="-5.200567">
        <ele>2715.0</ele>
        <time>2018-07-14T13:16:57Z</time>
      </trkpt>
      <trkpt lat="40.563917" lon="-5.200500">
        <ele>2717.0</ele>
        <time>2018-07-14T13:16:58Z</time>
      </trkpt>
      <trkpt lat="40.564000" lon="-5.200450">
        <ele>2718.0</ele>
        <time>2018-07-14T13:16:59Z</time>
      </trkpt>
      <trkpt lat="40.564083" lon="-5.200383">
        <ele>2719.0</ele>
        <time>2018-07-14T13:17:00Z</time>
      </trkpt>
      <trkpt lat="40.564183" lon="-5.200333">
        <ele>2720.0</ele>
        <time>2018-07-14T13:17:01Z</time>
      </trkpt>
      <trkpt lat="40.564283" lon="-5.200283">
        <ele>2721.0</ele>
        <time>2018-07-14T13:17:02Z</time>
      </trkpt>
      <trkpt lat="40.564400" lon="-5.200233">
        <ele>2722.0</ele>
        <time>2018-07-14T13:17:03Z</time>
      </trkpt>
      <trkpt lat="40.564500" lon="-5.200183">
        <ele>2725.0</ele>
        <time>2018-07-14T13:17:04Z</time>
      </trkpt>
      <trkpt lat="40.564583" lon="-5.200150">
        <ele>2728.0</ele>
        <time>2018-07-14T13:17:05Z</time>
      </trkpt>
      <trkpt lat="40.564650" lon="-5.200100">
        <ele>2730.0</ele>
        <time>2018-07-14T13:17:06Z</time>
      </trkpt>
      <trkpt lat="40.564733" lon="-5.200067">
        <ele>2731.0</ele>
        <time>2018-07-14T13:17:07Z</time>
      </trkpt>
      <trkpt lat="40.564833" lon="-5.200017">
        <ele>2730.0</ele>
        <time>2018-07-14T13:17:08Z</time>
      </trkpt>
      <trkpt lat="40.564950" lon="-5.199967">
        <ele>2730.0</ele>
        <time>2018-07-14T13:17:09Z</time>
      </trkpt>
      <trkpt lat="40.565067" lon="-5.199900">
        <ele>2731.0</ele>
        <time>2018-07-14T13:17:10Z</time>
      </trkpt>
      <trkpt lat="40.565183" lon="-5.199850">
        <ele>2733.0</ele>
        <time>2018-07-14T13:17:11Z</time>
      </trkpt>
      <trkpt lat="40.565283" lon="-5.199817">
        <ele>2736.0</ele>
        <time>2018-07-14T13:17:12Z</time>
      </trkpt>
      <trkpt lat="40.565383" lon="-5.199783">
        <ele>2739.0</ele>
        <time>2018-07-14T13:17:13Z</time>
      </trkpt>
      <trkpt lat="40.565483" lon="-5.199750">
        <ele>2740.0</ele>
        <time>2018-07-14T13:17:14Z</time>
      </trkpt>
      <trkpt lat="40.565583" lon="-5.199700">
        <ele>2742.0</ele>
        <time>2018-07-14T13:17:15Z</time>
      </trkpt>
      <trkpt lat="40.565683" lon="-5.199667">
        <ele>2743.0</ele>
        <time>2018-07-14T13:17:16Z</time>
      </trkpt>
      <trkpt lat="40.565783" lon="-5.199617">
        <ele>2744.0</ele>
        <time>2018-07-14T13:17:17Z</time>
      </trkpt>
      <trkpt lat="40.565883" lon="-5.199567">
        <ele>2746.0</ele>
        <time>2018-07-14T13:17:18Z</time>
      </trkpt>
      <trkpt lat="40.565983" lon="-5.199517">
        <ele>2748.0</ele>
        <time>2018-07-14T13:17:19Z</time>
      </trkpt>
      <trkpt lat="40.566083" lon="-5.199450">
        <ele>2751.0</ele>
        <time>2018-07-14T13:17:20Z</time>
      </trkpt>
      <trkpt lat="40.566167" lon="-5.199367">
        <ele>2754.0</ele>
        <time>2018-07-14T13:17:21Z</time>
      </trkpt>
      <trkpt lat="40.566283" lon="-5.199283">
        <ele>2756.0</ele>
        <time>2018-07-14T13:17:22Z</time>
      </trkpt>
      <trkpt lat="40.566400" lon="-5.199217">
        <ele>2759.0</ele>
        <time>2018-07-14T13:17:23Z</time>
      </trkpt>
      <trkpt lat="40.566517" lon="-5.199167">
        <ele>2761.0</ele>
        <time>2018-07-14T13:17:24Z</time>
      </trkpt>
      <trkpt lat="40.566633" lon="-5.199117">
        <ele>2764.0</ele>
        <time>2018-07-14T13:17:25Z</time>
      </trkpt>
      <trkpt lat="40.566750" lon="-5.199083">
        <ele>2768.0</ele>
        <time>2018-07-14T13:17:26Z</time>
      </trkpt>
      <trkpt lat="40.566867" lon="-5.199067">
        <ele>2771.0</ele>
        <time>2018-07-14T13:17:27Z</time>
      </trkpt>
      <trkpt lat="40.566967" lon="-5.199100">
        <ele>2775.0</ele>
        <time>2018-07-14T13:17:28Z</time>
      </trkpt>
      <trkpt lat="40.567050" lon="-5.199167">
        <ele>2778.0</ele>
        <time>2018-07-14T13:17:29Z</time>
      </trkpt>
      <trkpt lat="40.567083" lon="-5.199250">
        <ele>2781.0</ele>
        <time>2018-07-14T13:17:30Z</time>
      </trkpt>
      <trkpt lat="40.567100" lon="-5.199350">
        <ele>2784.0</ele>
        <time>2018-07-14T13:17:31Z</time>
      </trkpt>
      <trkpt lat="40.567067" lon="-5.199417">
        <ele>2787.0</ele>
        <time>2018-07-14T13:17:32Z</time>
      </trkpt>
      <trkpt lat="40.567017" lon="-5.199467">
        <ele>2792.0</ele>
        <time>2018-07-14T13:17:33Z</time>
      </trkpt>
      <trkpt lat="40.566967" lon="-5.199483">
        <ele>2796.0</ele>
        <time>2018-07-14T13:17:34Z</time>
      </trkpt>
      <trkpt lat="40.566917" lon="-5.199483">
        <ele>2801.0</ele>
        <time>2018-07-14T13:17:35Z</time>
      </trkpt>
      <trkpt lat="40.566867" lon="-5.199467">
        <ele>2805.0</ele>
        <time>2018-07-14T13:17:36Z</time>
      </trkpt>
      <trkpt lat="40.566817" lon="-5.199417">
        <ele>2809.0</ele>
        <time>2018-07-14T13:17:37Z</time>
      </trkpt>
      <trkpt lat="40.566750" lon="-5.199350">
        <ele>2812.0</ele>
        <time>2018-07-14T13:17:38Z</time>
      </trkpt>
      <trkpt lat="40.566700" lon="-5.199283">
        <ele>2814.0</ele>
        <time>2018-07-14T13:17:39Z</time>
      </trkpt>
      <trkpt lat="40.566667" lon="-5.199167">
        <ele>2817.0</ele>
        <time>2018-07-14T13:17:40Z</time>
      </trkpt>
      <trkpt lat="40.566650" lon="-5.199017">
        <ele>2820.0</ele>
        <time>2018-07-14T13:17:41Z</time>
      </trkpt>
      <trkpt lat="40.566700" lon="-5.198850">
        <ele>2822.0</ele>
        <time>2018-07-14T13:17:42Z</time>
      </trkpt>
      <trkpt lat="40.566783" lon="-5.198717">
        <ele>2824.0</ele>
        <time>2018-07-14T13:17:43Z</time>
      </trkpt>
      <trkpt lat="40.566900" lon="-5.198650">
        <ele>2825.0</ele>
        <time>2018-07-14T13:17:44Z</time>
      </trkpt>
      <trkpt lat="40.567033" lon="-5.198633">
        <ele>2828.0</ele>
        <time>2018-07-14T13:17:45Z</time>
      </trkpt>
      <trkpt lat="40.567150" lon="-5.198650">
        <ele>2831.0</ele>
        <time>2018-07-14T13:17:46Z</time>
      </trkpt>
      <trkpt lat="40.567233" lon="-5.198717">
        <ele>2835.0</ele>
        <time>2018-07-14T13:17:47Z</time>
      </trkpt>
      <trkpt lat="40.567300" lon="-5.198800">
        <ele>2839.0</ele>
        <time>2018-07-14T13:17:48Z</time>
      </trkpt>
      <trkpt lat="40.567317" lon="-5.198883">
        <ele>2843.0</ele>
        <time>2018-07-14T13:17:49Z</time>
      </trkpt>
      <trkpt lat="40.567317" lon="-5.198967">
        <ele>2846.0</ele>
        <time>2018-07-14T13:17:50Z</time>
      </trkpt>
      <trkpt lat="40.567283" lon="-5.199033">
        <ele>2849.0</ele>
        <time>2018-07-14T13:17:51Z</time>
      </trkpt>
      <trkpt lat="40.567233" lon="-5.199083">
        <ele>2853.0</ele>
        <time>2018-07-14T13:17:52Z</time>
      </trkpt>
      <trkpt lat="40.567183" lon="-5.199100">
        <ele>2857.0</ele>
        <time>2018-07-14T13:17:53Z</time>
      </trkpt>
      <trkpt lat="40.567150" lon="-5.199100">
        <ele>2861.0</ele>
        <time>2018-07-14T13:17:54Z</time>
      </trkpt>
      <trkpt lat="40.567100" lon="-5.199067">
        <ele>2865.0</ele>
        <time>2018-07-14T13:17:55Z</time>
      </trkpt>
      <trkpt lat="40.567033" lon="-5.198983">
        <ele>2867.0</ele>
        <time>2018-07-14T13:17:56Z</time>
      </trkpt>
      <trkpt lat="40.566983" lon="-5.198867">
        <ele>2868.0</ele>
        <time>2018-07-14T13:17:57Z</time>
      </trkpt>
      <trkpt lat="40.566933" lon="-5.198717">
        <ele>2870.0</ele>
        <time>2018-07-14T13:17:58Z</time>
      </trkpt>
      <trkpt lat="40.566950" lon="-5.198567">
        <ele>2872.0</ele>
        <time>2018-07-14T13:17:59Z</time>
      </trkpt>
      <trkpt lat="40.566983" lon="-5.198417">
        <ele>2875.0</ele>
        <time>2018-07-14T13:18:00Z</time>
      </trkpt>
      <trkpt lat="40.567067" lon="-5.198283">
        <ele>2877.0</ele>
        <time>2018-07-14T13:18:01Z</time>
      </trkpt>
      <trkpt lat="40.567167" lon="-5.198200">
        <ele>2879.0</ele>
        <time>2018-07-14T13:18:02Z</time>
      </trkpt>
      <trkpt lat="40.567283" lon="-5.198150">
        <ele>2882.0</ele>
        <time>2018-07-14T13:18:03Z</time>
      </trkpt>
      <trkpt lat="40.567400" lon="-5.198133">
        <ele>2886.0</ele>
        <time>2018-07-14T13:18:04Z</time>
      </trkpt>
      <trkpt lat="40.567483" lon="-5.198183">
        <ele>2889.0</ele>
        <time>2018-07-14T13:18:05Z</time>
      </trkpt>
      <trkpt lat="40.567567" lon="-5.198250">
        <ele>2893.0</ele>
        <time>2018-07-14T13:18:06Z</time>
      </trkpt>
      <trkpt lat="40.567617" lon="-5.198317">
        <ele>2896.0</ele>
        <time>2018-07-14T13:18:07Z</time>
      </trkpt>
      <trkpt lat="40.567633" lon="-5.198400">
        <ele>2899.0</ele>
        <time>2018-07-14T13:18:08Z</time>
      </trkpt>
      <trkpt lat="40.567633" lon="-5.198500">
        <ele>2902.0</ele>
        <time>2018-07-14T13:18:09Z</time>
      </trkpt>
      <trkpt lat="40.567600" lon="-5.198567">
        <ele>2906.0</ele>
        <time>2018-07-14T13:18:10Z</time>
      </trkpt>
      <trkpt lat="40.567533" lon="-5.198617">
        <ele>2910.0</ele>
        <time>2018-07-14T13:18:11Z</time>
      </trkpt>
      <trkpt lat="40.567467" lon="-5.198617">
        <ele>2914.0</ele>
        <time>2018-07-14T13:18:12Z</time>
      </trkpt>
      <trkpt lat="40.567417" lon="-5.198583">
        <ele>2917.0</ele>
        <time>2018-07-14T13:18:13Z</time>
      </trkpt>
      <trkpt lat="40.567367" lon="-5.198500">
        <ele>2921.0</ele>
        <time>2018-07-14T13:18:14Z</time>
      </trkpt>
      <trkpt lat="40.567317" lon="-5.198417">
        <ele>2923.0</ele>
        <time>2018-07-14T13:18:15Z</time>
      </trkpt>
      <trkpt lat="40.567267" lon="-5.198317">
        <ele>2926.0</ele>
        <time>2018-07-14T13:18:16Z</time>
      </trkpt>
      <trkpt lat="40.567217" lon="-5.198183">
        <ele>2928.0</ele>
        <time>2018-07-14T13:18:17Z</time>
      </trkpt>
      <trkpt lat="40.567217" lon="-5.198033">
        <ele>2931.0</ele>
        <time>2018-07-14T13:18:18Z</time>
      </trkpt>
      <trkpt lat="40.567250" lon="-5.197867">
        <ele>2933.0</ele>
        <time>2018-07-14T13:18:19Z</time>
      </trkpt>
      <trkpt lat="40.567317" lon="-5.197717">
        <ele>2934.0</ele>
        <time>2018-07-14T13:18:20Z</time>
      </trkpt>
      <trkpt lat="40.567400" lon="-5.197617">
        <ele>2937.0</ele>
        <time>2018-07-14T13:18:21Z</time>
      </trkpt>
      <trkpt lat="40.567517" lon="-5.197567">
        <ele>2941.0</ele>
        <time>2018-07-14T13:18:22Z</time>
      </trkpt>
      <trkpt lat="40.567633" lon="-5.197550">
        <ele>2943.0</ele>
        <time>2018-07-14T13:18:23Z</time>
      </trkpt>
      <trkpt lat="40.567750" lon="-5.197567">
        <ele>2945.0</ele>
        <time>2018-07-14T13:18:24Z</time>
      </trkpt>
      <trkpt lat="40.567850" lon="-5.197617">
        <ele>2947.0</ele>
        <time>2018-07-14T13:18:25Z</time>
      </trkpt>
      <trkpt lat="40.567933" lon="-5.197667">
        <ele>2949.0</ele>
        <time>2018-07-14T13:18:26Z</time>
      </trkpt>
      <trkpt lat="40.568017" lon="-5.197750">
        <ele>2951.0</ele>
        <time>2018-07-14T13:18:27Z</time>
      </trkpt>
      <trkpt lat="40.568050" lon="-5.197867">
        <ele>2953.0</ele>
        <time>2018-07-14T13:18:28Z</time>
      </trkpt>
      <trkpt lat="40.568067" lon="-5.197983">
        <ele>2955.0</ele>
        <time>2018-07-14T13:18:29Z</time>
      </trkpt>
      <trkpt lat="40.568017" lon="-5.198067">
        <ele>2958.0</ele>
        <time>2018-07-14T13:18:30Z</time>
      </trkpt>
      <trkpt lat="40.567950" lon="-5.198100">
        <ele>2961.0</ele>
        <time>2018-07-14T13:18:31Z</time>
      </trkpt>
      <trkpt lat="40.567883" lon="-5.198083">
        <ele>2964.0</ele>
        <time>2018-07-14T13:18:32Z</time>
      </trkpt>
      <trkpt lat="40.567817" lon="-5.198033">
        <ele>2967.0</ele>
        <time>2018-07-14T13:18:33Z</time>
      </trkpt>
      <trkpt lat="40.567767" lon="-5.197950">
        <ele>2970.0</ele>
        <time>2018-07-14T13:18:34Z</time>
      </trkpt>
      <trkpt lat="40.567717" lon="-5.197883">
        <ele>2973.0</ele>
        <time>2018-07-14T13:18:35Z</time>
      </trkpt>
      <trkpt lat="40.567667" lon="-5.197767">
        <ele>2975.0</ele>
        <time>2018-07-14T13:18:36Z</time>
      </trkpt>
      <trkpt lat="40.567633" lon="-5.197633">
        <ele>2977.0</ele>
        <time>2018-07-14T13:18:37Z</time>
      </trkpt>
      <trkpt lat="40.567650" lon="-5.197467">
        <ele>2978.0</ele>
        <time>2018-07-14T13:18:38Z</time>
      </trkpt>
      <trkpt lat="40.567717" lon="-5.197317">
        <ele>2979.0</ele>
        <time>2018-07-14T13:18:39Z</time>
      </trkpt>
      <trkpt lat="40.567833" lon="-5.197217">
        <ele>2980.0</ele>
        <time>2018-07-14T13:18:40Z</time>
      </trkpt>
      <trkpt lat="40.567967" lon="-5.197183">
        <ele>2980.0</ele>
        <time>2018-07-14T13:18:41Z</time>
      </trkpt>
      <trkpt lat="40.568100" lon="-5.197217">
        <ele>2982.0</ele>
        <time>2018-07-14T13:18:42Z</time>
      </trkpt>
      <trkpt lat="40.568183" lon="-5.197283">
        <ele>2985.0</ele>
        <time>2018-07-14T13:18:43Z</time>
      </trkpt>
      <trkpt lat="40.568250" lon="-5.197367">
        <ele>2987.0</ele>
        <time>2018-07-14T13:18:44Z</time>
      </trkpt>
      <trkpt lat="40.568300" lon="-5.197467">
        <ele>2990.0</ele>
        <time>2018-07-14T13:18:45Z</time>
      </trkpt>
      <trkpt lat="40.568317" lon="-5.197567">
        <ele>2992.0</ele>
        <time>2018-07-14T13:18:46Z</time>
      </trkpt>
      <trkpt lat="40.568333" lon="-5.197650">
        <ele>2995.0</ele>
        <time>2018-07-14T13:18:47Z</time>
      </trkpt>
      <trkpt lat="40.568300" lon="-5.197733">
        <ele>2997.0</ele>
        <time>2018-07-14T13:18:48Z</time>
      </trkpt>
      <trkpt lat="40.568250" lon="-5.197767">
        <ele>3001.0</ele>
        <time>2018-07-14T13:18:49Z</time>
      </trkpt>
      <trkpt lat="40.568183" lon="-5.197767">
        <ele>3004.0</ele>
        <time>2018-07-14T13:18:50Z</time>
      </trkpt>
      <trkpt lat="40.568117" lon="-5.197717">
        <ele>3006.0</ele>
        <time>2018-07-14T13:18:51Z</time>
      </trkpt>
      <trkpt lat="40.568050" lon="-5.197650">
        <ele>3008.0</ele>
        <time>2018-07-14T13:18:52Z</time>
      </trkpt>
      <trkpt lat="40.567983" lon="-5.197533">
        <ele>3010.0</ele>
        <time>2018-07-14T13:18:53Z</time>
      </trkpt>
      <trkpt lat="40.567950" lon="-5.197400">
        <ele>3012.0</ele>
        <time>2018-07-14T13:18:54Z</time>
      </trkpt>
      <trkpt lat="40.567950" lon="-5.197233">
        <ele>3014.0</ele>
        <time>2018-07-14T13:18:55Z</time>
      </trkpt>
      <trkpt lat="40.567967" lon="-5.197083">
        <ele>3016.0</ele>
        <time>2018-07-14T13:18:56Z</time>
      </trkpt>
      <trkpt lat="40.568017" lon="-5.196933">
        <ele>3018.0</ele>
        <time>2018-07-14T13:18:57Z</time>
      </trkpt>
      <trkpt lat="40.568117" lon="-5.196817">
        <ele>3020.0</ele>
        <time>2018-07-14T13:18:58Z</time>
      </trkpt>
      <trkpt lat="40.568233" lon="-5.196733">
        <ele>3022.0</ele>
        <time>2018-07-14T13:18:59Z</time>
      </trkpt>
      <trkpt lat="40.568350" lon="-5.196717">
        <ele>3023.0</ele>
        <time>2018-07-14T13:19:00Z</time>
      </trkpt>
      <trkpt lat="40.568467" lon="-5.196733">
        <ele>3024.0</ele>
        <time>2018-07-14T13:19:01Z</time>
      </trkpt>
      <trkpt lat="40.568550" lon="-5.196783">
        <ele>3026.0</ele>
        <time>2018-07-14T13:19:02Z</time>
      </trkpt>
      <trkpt lat="40.568633" lon="-5.196867">
        <ele>3028.0</ele>
        <time>2018-07-14T13:19:03Z</time>
      </trkpt>
      <trkpt lat="40.568667" lon="-5.196967">
        <ele>3030.0</ele>
        <time>2018-07-14T13:19:04Z</time>
      </trkpt>
      <trkpt lat="40.568667" lon="-5.197067">
        <ele>3032.0</ele>
        <time>2018-07-14T13:19:05Z</time>
      </trkpt>
      <trkpt lat="40.568633" lon="-5.197150">
        <ele>3033.0</ele>
        <time>2018-07-14T13:19:06Z</time>
      </trkpt>
      <trkpt lat="40.568567" lon="-5.197200">
        <ele>3034.0</ele>
        <time>2018-07-14T13:19:07Z</time>
      </trkpt>
      <trkpt lat="40.568500" lon="-5.197183">
        <ele>3037.0</ele>
        <time>2018-07-14T13:19:08Z</time>
      </trkpt>
      <trkpt lat="40.568433" lon="-5.197133">
        <ele>3038.0</ele>
        <time>2018-07-14T13:19:09Z</time>
      </trkpt>
      <trkpt lat="40.568383" lon="-5.197017">
        <ele>3040.0</ele>
        <time>2018-07-14T13:19:10Z</time>
      </trkpt>
      <trkpt lat="40.568350" lon="-5.196883">
        <ele>3043.0</ele>
        <time>2018-07-14T13:19:11Z</time>
      </trkpt>
      <trkpt lat="40.568367" lon="-5.196717">
        <ele>3045.0</ele>
        <time>2018-07-14T13:19:12Z</time>
      </trkpt>
      <trkpt lat="40.568417" lon="-5.196550">
        <ele>3047.0</ele>
        <time>2018-07-14T13:19:13Z</time>
      </trkpt>
      <trkpt lat="40.568483" lon="-5.196417">
        <ele>3049.0</ele>
        <time>2018-07-14T13:19:14Z</time>
      </trkpt>
      <trkpt lat="40.568600" lon="-5.196317">
        <ele>3051.0</ele>
        <time>2018-07-14T13:19:15Z</time>
      </trkpt>
      <trkpt lat="40.568717" lon="-5.196283">
        <ele>3053.0</ele>
        <time>2018-07-14T13:19:16Z</time>
      </trkpt>
      <trkpt lat="40.568833" lon="-5.196283">
        <ele>3054.0</ele>
        <time>2018-07-14T13:19:17Z</time>
      </trkpt>
      <trkpt lat="40.568933" lon="-5.196300">
        <ele>3056.0</ele>
        <time>2018-07-14T13:19:18Z</time>
      </trkpt>
      <trkpt lat="40.569033" lon="-5.196350">
        <ele>3058.0</ele>
        <time>2018-07-14T13:19:19Z</time>
      </trkpt>
      <trkpt lat="40.569117" lon="-5.196417">
        <ele>3060.0</ele>
        <time>2018-07-14T13:19:20Z</time>
      </trkpt>
      <trkpt lat="40.569167" lon="-5.196500">
        <ele>3061.0</ele>
        <time>2018-07-14T13:19:21Z</time>
      </trkpt>
      <trkpt lat="40.569183" lon="-5.196583">
        <ele>3063.0</ele>
        <time>2018-07-14T13:19:22Z</time>
      </trkpt>
      <trkpt lat="40.569167" lon="-5.196667">
        <ele>3064.0</ele>
        <time>2018-07-14T13:19:23Z</time>
      </trkpt>
      <trkpt lat="40.569133" lon="-5.196733">
        <ele>3065.0</ele>
        <time>2018-07-14T13:19:24Z</time>
      </trkpt>
      <trkpt lat="40.569067" lon="-5.196767">
        <ele>3067.0</ele>
        <time>2018-07-14T13:19:25Z</time>
      </trkpt>
      <trkpt lat="40.568983" lon="-5.196733">
        <ele>3068.0</ele>
        <time>2018-07-14T13:19:26Z</time>
      </trkpt>
      <trkpt lat="40.568900" lon="-5.196650">
        <ele>3070.0</ele>
        <time>2018-07-14T13:19:27Z</time>
      </trkpt>
      <trkpt lat="40.568833" lon="-5.196533">
        <ele>3071.0</ele>
        <time>2018-07-14T13:19:28Z</time>
      </trkpt>
      <trkpt lat="40.568800" lon="-5.196383">
        <ele>3073.0</ele>
        <time>2018-07-14T13:19:29Z</time>
      </trkpt>
      <trkpt lat="40.568800" lon="-5.196233">
        <ele>3076.0</ele>
        <time>2018-07-14T13:19:30Z</time>
      </trkpt>
      <trkpt lat="40.568833" lon="-5.196083">
        <ele>3079.0</ele>
        <time>2018-07-14T13:19:31Z</time>
      </trkpt>
      <trkpt lat="40.568900" lon="-5.195950">
        <ele>3081.0</ele>
        <time>2018-07-14T13:19:32Z</time>
      </trkpt>
      <trkpt lat="40.568983" lon="-5.195817">
        <ele>3083.0</ele>
        <time>2018-07-14T13:19:33Z</time>
      </trkpt>
      <trkpt lat="40.569067" lon="-5.195700">
        <ele>3085.0</ele>
        <time>2018-07-14T13:19:34Z</time>
      </trkpt>
      <trkpt lat="40.569183" lon="-5.195633">
        <ele>3087.0</ele>
        <time>2018-07-14T13:19:35Z</time>
      </trkpt>
      <trkpt lat="40.569300" lon="-5.195583">
        <ele>3089.0</ele>
        <time>2018-07-14T13:19:36Z</time>
      </trkpt>
      <trkpt lat="40.569433" lon="-5.195600">
        <ele>3090.0</ele>
        <time>2018-07-14T13:19:37Z</time>
      </trkpt>
      <trkpt lat="40.569533" lon="-5.195650">
        <ele>3092.0</ele>
        <time>2018-07-14T13:19:38Z</time>
      </trkpt>
      <trkpt lat="40.569600" lon="-5.195750">
        <ele>3093.0</ele>
        <time>2018-07-14T13:19:39Z</time>
      </trkpt>
      <trkpt lat="40.569650" lon="-5.195850">
        <ele>3095.0</ele>
        <time>2018-07-14T13:19:40Z</time>
      </trkpt>
      <trkpt lat="40.569650" lon="-5.195933">
        <ele>3097.0</ele>
        <time>2018-07-14T13:19:41Z</time>
      </trkpt>
      <trkpt lat="40.569617" lon="-5.196000">
        <ele>3098.0</ele>
        <time>2018-07-14T13:19:42Z</time>
      </trkpt>
      <trkpt lat="40.569567" lon="-5.196033">
        <ele>3100.0</ele>
        <time>2018-07-14T13:19:43Z</time>
      </trkpt>
      <trkpt lat="40.569517" lon="-5.196050">
        <ele>3102.0</ele>
        <time>2018-07-14T13:19:44Z</time>
      </trkpt>
      <trkpt lat="40.569433" lon="-5.196017">
        <ele>3103.0</ele>
        <time>2018-07-14T13:19:45Z</time>
      </trkpt>
      <trkpt lat="40.569367" lon="-5.195950">
        <ele>3104.0</ele>
        <time>2018-07-14T13:19:46Z</time>
      </trkpt>
      <trkpt lat="40.569317" lon="-5.195833">
        <ele>3105.0</ele>
        <time>2018-07-14T13:19:47Z</time>
      </trkpt>
      <trkpt lat="40.569283" lon="-5.195667">
        <ele>3106.0</ele>
        <time>2018-07-14T13:19:48Z</time>
      </trkpt>
      <trkpt lat="40.569317" lon="-5.195500">
        <ele>3108.0</ele>
        <time>2018-07-14T13:19:49Z</time>
      </trkpt>
      <trkpt lat="40.569383" lon="-5.195350">
        <ele>3109.0</ele>
        <time>2018-07-14T13:19:50Z</time>
      </trkpt>
      <trkpt lat="40.569500" lon="-5.195250">
        <ele>3112.0</ele>
        <time>2018-07-14T13:19:51Z</time>
      </trkpt>
      <trkpt lat="40.569600" lon="-5.195183">
        <ele>3115.0</ele>
        <time>2018-07-14T13:19:52Z</time>
      </trkpt>
      <trkpt lat="40.569700" lon="-5.195117">
        <ele>3119.0</ele>
        <time>2018-07-14T13:19:53Z</time>
      </trkpt>
      <trkpt lat="40.569800" lon="-5.195067">
        <ele>3122.0</ele>
        <time>2018-07-14T13:19:54Z</time>
      </trkpt>
      <trkpt lat="40.569900" lon="-5.195017">
        <ele>3124.0</ele>
        <time>2018-07-14T13:19:55Z</time>
      </trkpt>
      <trkpt lat="40.570017" lon="-5.194983">
        <ele>3126.0</ele>
        <time>2018-07-14T13:19:56Z</time>
      </trkpt>
      <trkpt lat="40.570133" lon="-5.195000">
        <ele>3127.0</ele>
        <time>2018-07-14T13:19:57Z</time>
      </trkpt>
      <trkpt lat="40.570217" lon="-5.195050">
        <ele>3128.0</ele>
        <time>2018-07-14T13:19:58Z</time>
      </trkpt>
      <trkpt lat="40.570283" lon="-5.195117">
        <ele>3129.0</ele>
        <time>2018-07-14T13:19:59Z</time>
      </trkpt>
      <trkpt lat="40.570333" lon="-5.195200">
        <ele>3130.0</ele>
        <time>2018-07-14T13:20:00Z</time>
      </trkpt>
      <trkpt lat="40.570333" lon="-5.195267">
        <ele>3131.0</ele>
        <time>2018-07-14T13:20:01Z</time>
      </trkpt>
      <trkpt lat="40.570317" lon="-5.195333">
        <ele>3132.0</ele>
        <time>2018-07-14T13:20:02Z</time>
      </trkpt>
      <trkpt lat="40.570250" lon="-5.195350">
        <ele>3134.0</ele>
        <time>2018-07-14T13:20:03Z</time>
      </trkpt>
      <trkpt lat="40.570200" lon="-5.195317">
        <ele>3135.0</ele>
        <time>2018-07-14T13:20:04Z</time>
      </trkpt>
      <trkpt lat="40.570150" lon="-5.195217">
        <ele>3137.0</ele>
        <time>2018-07-14T13:20:05Z</time>
      </trkpt>
      <trkpt lat="40.570100" lon="-5.195100">
        <ele>3138.0</ele>
        <time>2018-07-14T13:20:06Z</time>
      </trkpt>
      <trkpt lat="40.570083" lon="-5.194950">
        <ele>3139.0</ele>
        <time>2018-07-14T13:20:07Z</time>
      </trkpt>
      <trkpt lat="40.570100" lon="-5.194783">
        <ele>3141.0</ele>
        <time>2018-07-14T13:20:08Z</time>
      </trkpt>
      <trkpt lat="40.570150" lon="-5.194617">
        <ele>3142.0</ele>
        <time>2018-07-14T13:20:09Z</time>
      </trkpt>
      <trkpt lat="40.570250" lon="-5.194467">
        <ele>3142.0</ele>
        <time>2018-07-14T13:20:10Z</time>
      </trkpt>
      <trkpt lat="40.570350" lon="-5.194350">
        <ele>3143.0</ele>
        <time>2018-07-14T13:20:11Z</time>
      </trkpt>
      <trkpt lat="40.570467" lon="-5.194283">
        <ele>3145.0</ele>
        <time>2018-07-14T13:20:12Z</time>
      </trkpt>
      <trkpt lat="40.570583" lon="-5.194267">
        <ele>3148.0</ele>
        <time>2018-07-14T13:20:13Z</time>
      </trkpt>
      <trkpt lat="40.570683" lon="-5.194283">
        <ele>3150.0</ele>
        <time>2018-07-14T13:20:14Z</time>
      </trkpt>
      <trkpt lat="40.570767" lon="-5.194333">
        <ele>3152.0</ele>
        <time>2018-07-14T13:20:15Z</time>
      </trkpt>
      <trkpt lat="40.570833" lon="-5.194383">
        <ele>3154.0</ele>
        <time>2018-07-14T13:20:16Z</time>
      </trkpt>
      <trkpt lat="40.570867" lon="-5.194450">
        <ele>3155.0</ele>
        <time>2018-07-14T13:20:17Z</time>
      </trkpt>
      <trkpt lat="40.570883" lon="-5.194533">
        <ele>3157.0</ele>
        <time>2018-07-14T13:20:18Z</time>
      </trkpt>
      <trkpt lat="40.570867" lon="-5.194583">
        <ele>3158.0</ele>
        <time>2018-07-14T13:20:19Z</time>
      </trkpt>
      <trkpt lat="40.570817" lon="-5.194617">
        <ele>3159.0</ele>
        <time>2018-07-14T13:20:20Z</time>
      </trkpt>
      <trkpt lat="40.570750" lon="-5.194617">
        <ele>3161.0</ele>
        <time>2018-07-14T13:20:21Z</time>
      </trkpt>
      <trkpt lat="40.570683" lon="-5.194567">
        <ele>3162.0</ele>
        <time>2018-07-14T13:20:22Z</time>
      </trkpt>
      <trkpt lat="40.570617" lon="-5.194467">
        <ele>3163.0</ele>
        <time>2018-07-14T13:20:23Z</time>
      </trkpt>
      <trkpt lat="40.570583" lon="-5.194300">
        <ele>3164.0</ele>
        <time>2018-07-14T13:20:24Z</time>
      </trkpt>
      <trkpt lat="40.570583" lon="-5.194133">
        <ele>3165.0</ele>
        <time>2018-07-14T13:20:25Z</time>
      </trkpt>
      <trkpt lat="40.570617" lon="-5.193967">
        <ele>3166.0</ele>
        <time>2018-07-14T13:20:26Z</time>
      </trkpt>
      <trkpt lat="40.570667" lon="-5.193817">
        <ele>3168.0</ele>
        <time>2018-07-14T13:20:27Z</time>
      </trkpt>
      <trkpt lat="40.570750" lon="-5.193683">
        <ele>3171.0</ele>
        <time>2018-07-14T13:20:28Z</time>
      </trkpt>
      <trkpt lat="40.570833" lon="-5.193567">
        <ele>3173.0</ele>
        <time>2018-07-14T13:20:29Z</time>
      </trkpt>
      <trkpt lat="40.570950" lon="-5.193483">
        <ele>3174.0</ele>
        <time>2018-07-14T13:20:30Z</time>
      </trkpt>
      <trkpt lat="40.571050" lon="-5.193433">
        <ele>3176.0</ele>
        <time>2018-07-14T13:20:31Z</time>
      </trkpt>
      <trkpt lat="40.571167" lon="-5.193417">
        <ele>3178.0</ele>
        <time>2018-07-14T13:20:32Z</time>
      </trkpt>
      <trkpt lat="40.571267" lon="-5.193450">
        <ele>3180.0</ele>
        <time>2018-07-14T13:20:33Z</time>
      </trkpt>
      <trkpt lat="40.571350" lon="-5.193500">
        <ele>3181.0</ele>
        <time>2018-07-14T13:20:34Z</time>
      </trkpt>
      <trkpt lat="40.571400" lon="-5.193567">
        <ele>3183.0</ele>
        <time>2018-07-14T13:20:35Z</time>
      </trkpt>
      <trkpt lat="40.571417" lon="-5.193633">
        <ele>3185.0</ele>
        <time>2018-07-14T13:20:36Z</time>
      </trkpt>
      <trkpt lat="40.571400" lon="-5.193700">
        <ele>3186.0</ele>
        <time>2018-07-14T13:20:37Z</time>
      </trkpt>
      <trkpt lat="40.571367" lon="-5.193750">
        <ele>3187.0</ele>
        <time>2018-07-14T13:20:38Z</time>
      </trkpt>
      <trkpt lat="40.571300" lon="-5.193750">
        <ele>3188.0</ele>
        <time>2018-07-14T13:20:39Z</time>
      </trkpt>
      <trkpt lat="40.571217" lon="-5.193717">
        <ele>3188.0</ele>
        <time>2018-07-14T13:20:40Z</time>
      </trkpt>
      <trkpt lat="40.571150" lon="-5.193633">
        <ele>3189.0</ele>
        <time>2018-07-14T13:20:41Z</time>
      </trkpt>
      <trkpt lat="40.571083" lon="-5.193517">
        <ele>3190.0</ele>
        <time>2018-07-14T13:20:42Z</time>
      </trkpt>
      <trkpt lat="40.571050" lon="-5.193383">
        <ele>3191.0</ele>
        <time>2018-07-14T13:20:43Z</time>
      </trkpt>
      <trkpt lat="40.571050" lon="-5.193233">
        <ele>3192.0</ele>
        <time>2018-07-14T13:20:44Z</time>
      </trkpt>
      <trkpt lat="40.571083" lon="-5.193067">
        <ele>3194.0</ele>
        <time>2018-07-14T13:20:45Z</time>
      </trkpt>
      <trkpt lat="40.571133" lon="-5.192917">
        <ele>3195.0</ele>
        <time>2018-07-14T13:20:46Z</time>
      </trkpt>
      <trkpt lat="40.571217" lon="-5.192767">
        <ele>3196.0</ele>
        <time>2018-07-14T13:20:47Z</time>
      </trkpt>
      <trkpt lat="40.571300" lon="-5.192650">
        <ele>3198.0</ele>
        <time>2018-07-14T13:20:48Z</time>
      </trkpt>
      <trkpt lat="40.571400" lon="-5.192550">
        <ele>3200.0</ele>
        <time>2018-07-14T13:20:49Z</time>
      </trkpt>
      <trkpt lat="40.571517" lon="-5.192500">
        <ele>3202.0</ele>
        <time>2018-07-14T13:20:50Z</time>
      </trkpt>
      <trkpt lat="40.571617" lon="-5.192483">
        <ele>3203.0</ele>
        <time>2018-07-14T13:20:51Z</time>
      </trkpt>
      <trkpt lat="40.571733" lon="-5.192517">
        <ele>3204.0</ele>
        <time>2018-07-14T13:20:52Z</time>
      </trkpt>
      <trkpt lat="40.571817" lon="-5.192567">
        <ele>3206.0</ele>
        <time>2018-07-14T13:20:53Z</time>
      </trkpt>
      <trkpt lat="40.571867" lon="-5.192633">
        <ele>3207.0</ele>
        <time>2018-07-14T13:20:54Z</time>
      </trkpt>
      <trkpt lat="40.571883" lon="-5.192700">
        <ele>3209.0</ele>
        <time>2018-07-14T13:20:55Z</time>
      </trkpt>
      <trkpt lat="40.571883" lon="-5.192767">
        <ele>3210.0</ele>
        <time>2018-07-14T13:20:56Z</time>
      </trkpt>
      <trkpt lat="40.571850" lon="-5.192817">
        <ele>3212.0</ele>
        <time>2018-07-14T13:20:57Z</time>
      </trkpt>
      <trkpt lat="40.571817" lon="-5.192850">
        <ele>3213.0</ele>
        <time>2018-07-14T13:20:58Z</time>
      </trkpt>
      <trkpt lat="40.571750" lon="-5.192867">
        <ele>3214.0</ele>
        <time>2018-07-14T13:20:59Z</time>
      </trkpt>
      <trkpt lat="40.571683" lon="-5.192833">
        <ele>3215.0</ele>
        <time>2018-07-14T13:21:00Z</time>
      </trkpt>
      <trkpt lat="40.571617" lon="-5.192783">
        <ele>3216.0</ele>
        <time>2018-07-14T13:21:01Z</time>
      </trkpt>
      <trkpt lat="40.571550" lon="-5.192700">
        <ele>3216.0</ele>
        <time>2018-07-14T13:21:02Z</time>
      </trkpt>
      <trkpt lat="40.571500" lon="-5.192583">
        <ele>3216.0</ele>
        <time>2018-07-14T13:21:03Z</time>
      </trkpt>
      <trkpt lat="40.571483" lon="-5.192417">
        <ele>3217.0</ele>
        <time>2018-07-14T13:21:04Z</time>
      </trkpt>
      <trkpt lat="40.571500" lon="-5.192250">
        <ele>3217.0</ele>
        <time>2018-07-14T13:21:05Z</time>
      </trkpt>
      <trkpt lat="40.571550" lon="-5.192083">
        <ele>3218.0</ele>
        <time>2018-07-14T13:21:06Z</time>
      </trkpt>
      <trkpt lat="40.571617" lon="-5.191933">
        <ele>3218.0</ele>
        <time>2018-07-14T13:21:07Z</time>
      </trkpt>
      <trkpt lat="40.571717" lon="-5.191817">
        <ele>3220.0</ele>
        <time>2018-07-14T13:21:08Z</time>
      </trkpt>
      <trkpt lat="40.571833" lon="-5.191717">
        <ele>3222.0</ele>
        <time>2018-07-14T13:21:09Z</time>
      </trkpt>
      <trkpt lat="40.571933" lon="-5.191667">
        <ele>3225.0</ele>
        <time>2018-07-14T13:21:10Z</time>
      </trkpt>
      <trkpt lat="40.572050" lon="-5.191650">
        <ele>3226.0</ele>
        <time>2018-07-14T13:21:11Z</time>
      </trkpt>
      <trkpt lat="40.572150" lon="-5.191650">
        <ele>3228.0</ele>
        <time>2018-07-14T13:21:12Z</time>
      </trkpt>
      <trkpt lat="40.572250" lon="-5.191667">
        <ele>3229.0</ele>
        <time>2018-07-14T13:21:13Z</time>
      </trkpt>
      <trkpt lat="40.572350" lon="-5.191700">
        <ele>3230.0</ele>
        <time>2018-07-14T13:21:14Z</time>
      </trkpt>
      <trkpt lat="40.572433" lon="-5.191767">
        <ele>3231.0</ele>
        <time>2018-07-14T13:21:15Z</time>
      </trkpt>
      <trkpt lat="40.572467" lon="-5.191833">
        <ele>3232.0</ele>
        <time>2018-07-14T13:21:16Z</time>
      </trkpt>
      <trkpt lat="40.572467" lon="-5.191917">
        <ele>3233.0</ele>
        <time>2018-07-14T13:21:17Z</time>
      </trkpt>
      <trkpt lat="40.572433" lon="-5.191983">
        <ele>3233.0</ele>
        <time>2018-07-14T13:21:18Z</time>
      </trkpt>
      <trkpt lat="40.572383" lon="-5.192017">
        <ele>3234.0</ele>
        <time>2018-07-14T13:21:19Z</time>
      </trkpt>
      <trkpt lat="40.572317" lon="-5.192017">
        <ele>3236.0</ele>
        <time>2018-07-14T13:21:20Z</time>
      </trkpt>
      <trkpt lat="40.572250" lon="-5.191967">
        <ele>3237.0</ele>
        <time>2018-07-14T13:21:21Z</time>
      </trkpt>
      <trkpt lat="40.572200" lon="-5.191883">
        <ele>3238.0</ele>
        <time>2018-07-14T13:21:22Z</time>
      </trkpt>
      <trkpt lat="40.572150" lon="-5.191767">
        <ele>3238.0</ele>
        <time>2018-07-14T13:21:23Z</time>
      </trkpt>
      <trkpt lat="40.572117" lon="-5.191617">
        <ele>3239.0</ele>
        <time>2018-07-14T13:21:24Z</time>
      </trkpt>
      <trkpt lat="40.572117" lon="-5.191450">
        <ele>3239.0</ele>
        <time>2018-07-14T13:21:25Z</time>
      </trkpt>
      <trkpt lat="40.572150" lon="-5.191283">
        <ele>3240.0</ele>
        <time>2018-07-14T13:21:26Z</time>
      </trkpt>
      <trkpt lat="40.572217" lon="-5.191150">
        <ele>3242.0</ele>
        <time>2018-07-14T13:21:27Z</time>
      </trkpt>
      <trkpt lat="40.572317" lon="-5.191033">
        <ele>3243.0</ele>
        <time>2018-07-14T13:21:28Z</time>
      </trkpt>
      <trkpt lat="40.572417" lon="-5.190950">
        <ele>3245.0</ele>
        <time>2018-07-14T13:21:29Z</time>
      </trkpt>
      <trkpt lat="40.572517" lon="-5.190900">
        <ele>3247.0</ele>
        <time>2018-07-14T13:21:30Z</time>
      </trkpt>
      <trkpt lat="40.572633" lon="-5.190867">
        <ele>3248.0</ele>
        <time>2018-07-14T13:21:31Z</time>
      </trkpt>
      <trkpt lat="40.572733" lon="-5.190867">
        <ele>3249.0</ele>
        <time>2018-07-14T13:21:32Z</time>
      </trkpt>
      <trkpt lat="40.572850" lon="-5.190883">
        <ele>3250.0</ele>
        <time>2018-07-14T13:21:33Z</time>
      </trkpt>
      <trkpt lat="40.572950" lon="-5.190917">
        <ele>3250.0</ele>
        <time>2018-07-14T13:21:34Z</time>
      </trkpt>
      <trkpt lat="40.573017" lon="-5.190983">
        <ele>3251.0</ele>
        <time>2018-07-14T13:21:35Z</time>
      </trkpt>
      <trkpt lat="40.573050" lon="-5.191067">
        <ele>3252.0</ele>
        <time>2018-07-14T13:21:36Z</time>
      </trkpt>
      <trkpt lat="40.573067" lon="-5.191150">
        <ele>3252.0</ele>
        <time>2018-07-14T13:21:37Z</time>
      </trkpt>
      <trkpt lat="40.573033" lon="-5.191217">
        <ele>3253.0</ele>
        <time>2018-07-14T13:21:38Z</time>
      </trkpt>
      <trkpt lat="40.573000" lon="-5.191267">
        <ele>3253.0</ele>
        <time>2018-07-14T13:21:39Z</time>
      </trkpt>
      <trkpt lat="40.572933" lon="-5.191267">
        <ele>3254.0</ele>
        <time>2018-07-14T13:21:40Z</time>
      </trkpt>
      <trkpt lat="40.572867" lon="-5.191250">
        <ele>3254.0</ele>
        <time>2018-07-14T13:21:41Z</time>
      </trkpt>
      <trkpt lat="40.572800" lon="-5.191183">
        <ele>3255.0</ele>
        <time>2018-07-14T13:21:42Z</time>
      </trkpt>
      <trkpt lat="40.572733" lon="-5.191100">
        <ele>3255.0</ele>
        <time>2018-07-14T13:21:43Z</time>
      </trkpt>
      <trkpt lat="40.572683" lon="-5.191000">
        <ele>3256.0</ele>
        <time>2018-07-14T13:21:44Z</time>
      </trkpt>
      <trkpt lat="40.572650" lon="-5.190850">
        <ele>3256.0</ele>
        <time>2018-07-14T13:21:45Z</time>
      </trkpt>
      <trkpt lat="40.572633" lon="-5.190700">
        <ele>3256.0</ele>
        <time>2018-07-14T13:21:46Z</time>
      </trkpt>
      <trkpt lat="40.572650" lon="-5.190533">
        <ele>3256.0</ele>
        <time>2018-07-14T13:21:47Z</time>
      </trkpt>
      <trkpt lat="40.572683" lon="-5.190367">
        <ele>3257.0</ele>
        <time>2018-07-14T13:21:48Z</time>
      </trkpt>
      <trkpt lat="40.572750" lon="-5.190217">
        <ele>3258.0</ele>
        <time>2018-07-14T13:21:49Z</time>
      </trkpt>
      <trkpt lat="40.572817" lon="-5.190100">
        <ele>3259.0</ele>
        <time>2018-07-14T13:21:50Z</time>
      </trkpt>
      <trkpt lat="40.572917" lon="-5.190000">
        <ele>3260.0</ele>
        <time>2018-07-14T13:21:51Z</time>
      </trkpt>
      <trkpt lat="40.573017" lon="-5.189933">
        <ele>3260.0</ele>
        <time>2018-07-14T13:21:52Z</time>
      </trkpt>
      <trkpt lat="40.573117" lon="-5.189883">
        <ele>3260.0</ele>
        <time>2018-07-14T13:21:53Z</time>
      </trkpt>
      <trkpt lat="40.573233" lon="-5.189850">
        <ele>3260.0</ele>
        <time>2018-07-14T13:21:54Z</time>
      </trkpt>
      <trkpt lat="40.573467" lon="-5.189817">
        <ele>3262.0</ele>
        <time>2018-07-14T13:21:56Z</time>
      </trkpt>
      <trkpt lat="40.573583" lon="-5.189767">
        <ele>3263.0</ele>
        <time>2018-07-14T13:21:57Z</time>
      </trkpt>
      <trkpt lat="40.573700" lon="-5.189717">
        <ele>3265.0</ele>
        <time>2018-07-14T13:21:58Z</time>
      </trkpt>
      <trkpt lat="40.573817" lon="-5.189650">
        <ele>3266.0</ele>
        <time>2018-07-14T13:21:59Z</time>
      </trkpt>
      <trkpt lat="40.573933" lon="-5.189583">
        <ele>3266.0</ele>
        <time>2018-07-14T13:22:00Z</time>
      </trkpt>
      <trkpt lat="40.574050" lon="-5.189533">
        <ele>3266.0</ele>
        <time>2018-07-14T13:22:01Z</time>
      </trkpt>
      <trkpt lat="40.574183" lon="-5.189500">
        <ele>3266.0</ele>
        <time>2018-07-14T13:22:02Z</time>
      </trkpt>
      <trkpt lat="40.574317" lon="-5.189450">
        <ele>3267.0</ele>
        <time>2018-07-14T13:22:03Z</time>
      </trkpt>
      <trkpt lat="40.574433" lon="-5.189417">
        <ele>3267.0</ele>
        <time>2018-07-14T13:22:04Z</time>
      </trkpt>
      <trkpt lat="40.574567" lon="-5.189383">
        <ele>3267.0</ele>
        <time>2018-07-14T13:22:05Z</time>
      </trkpt>
      <trkpt lat="40.574683" lon="-5.189350">
        <ele>3269.0</ele>
        <time>2018-07-14T13:22:06Z</time>
      </trkpt>
      <trkpt lat="40.574800" lon="-5.189317">
        <ele>3270.0</ele>
        <time>2018-07-14T13:22:07Z</time>
      </trkpt>
      <trkpt lat="40.574917" lon="-5.189283">
        <ele>3271.0</ele>
        <time>2018-07-14T13:22:08Z</time>
      </trkpt>
      <trkpt lat="40.575033" lon="-5.189250">
        <ele>3272.0</ele>
        <time>2018-07-14T13:22:09Z</time>
      </trkpt>
      <trkpt lat="40.575133" lon="-5.189217">
        <ele>3273.0</ele>
        <time>2018-07-14T13:22:10Z</time>
      </trkpt>
      <trkpt lat="40.575250" lon="-5.189183">
        <ele>3274.0</ele>
        <time>2018-07-14T13:22:11Z</time>
      </trkpt>
      <trkpt lat="40.575350" lon="-5.189133">
        <ele>3275.0</ele>
        <time>2018-07-14T13:22:12Z</time>
      </trkpt>
      <trkpt lat="40.575450" lon="-5.189067">
        <ele>3276.0</ele>
        <time>2018-07-14T13:22:13Z</time>
      </trkpt>
      <trkpt lat="40.575550" lon="-5.188967">
        <ele>3276.0</ele>
        <time>2018-07-14T13:22:14Z</time>
      </trkpt>
      <trkpt lat="40.575667" lon="-5.188867">
        <ele>3275.0</ele>
        <time>2018-07-14T13:22:15Z</time>
      </trkpt>
      <trkpt lat="40.575767" lon="-5.188767">
        <ele>3277.0</ele>
        <time>2018-07-14T13:22:16Z</time>
      </trkpt>
      <trkpt lat="40.575850" lon="-5.188683">
        <ele>3281.0</ele>
        <time>2018-07-14T13:22:17Z</time>
      </trkpt>
      <trkpt lat="40.575950" lon="-5.188600">
        <ele>3283.0</ele>
        <time>2018-07-14T13:22:18Z</time>
      </trkpt>
      <trkpt lat="40.576033" lon="-5.188517">
        <ele>3284.0</ele>
        <time>2018-07-14T13:22:19Z</time>
      </trkpt>
      <trkpt lat="40.576133" lon="-5.188417">
        <ele>3285.0</ele>
        <time>2018-07-14T13:22:20Z</time>
      </trkpt>
      <trkpt lat="40.576233" lon="-5.188317">
        <ele>3286.0</ele>
        <time>2018-07-14T13:22:21Z</time>
      </trkpt>
      <trkpt lat="40.576350" lon="-5.188217">
        <ele>3287.0</ele>
        <time>2018-07-14T13:22:22Z</time>
      </trkpt>
      <trkpt lat="40.576467" lon="-5.188117">
        <ele>3289.0</ele>
        <time>2018-07-14T13:22:23Z</time>
      </trkpt>
      <trkpt lat="40.576583" lon="-5.188050">
        <ele>3292.0</ele>
        <time>2018-07-14T13:22:24Z</time>
      </trkpt>
      <trkpt lat="40.576717" lon="-5.188000">
        <ele>3294.0</ele>
        <time>2018-07-14T13:22:25Z</time>
      </trkpt>
      <trkpt lat="40.576833" lon="-5.187967">
        <ele>3296.0</ele>
        <time>2018-07-14T13:22:26Z</time>
      </trkpt>
      <trkpt lat="40.576950" lon="-5.187933">
        <ele>3298.0</ele>
        <time>2018-07-14T13:22:27Z</time>
      </trkpt>
      <trkpt lat="40.577067" lon="-5.187867">
        <ele>3300.0</ele>
        <time>2018-07-14T13:22:28Z</time>
      </trkpt>
      <trkpt lat="40.577150" lon="-5.187783">
        <ele>3302.0</ele>
        <time>2018-07-14T13:22:29Z</time>
      </trkpt>
      <trkpt lat="40.577233" lon="-5.187683">
        <ele>3303.0</ele>
        <time>2018-07-14T13:22:30Z</time>
      </trkpt>
      <trkpt lat="40.577383" lon="-5.187417">
        <ele>3303.0</ele>
        <time>2018-07-14T13:22:32Z</time>
      </trkpt>
      <trkpt lat="40.577417" lon="-5.187267">
        <ele>3302.0</ele>
        <time>2018-07-14T13:22:33Z</time>
      </trkpt>
      <trkpt lat="40.577400" lon="-5.187133">
        <ele>3301.0</ele>
        <time>2018-07-14T13:22:34Z</time>
      </trkpt>
      <trkpt lat="40.577350" lon="-5.187050">
        <ele>3299.0</ele>
        <time>2018-07-14T13:22:35Z</time>
      </trkpt>
      <trkpt lat="40.577283" lon="-5.187000">
        <ele>3298.0</ele>
        <time>2018-07-14T13:22:36Z</time>
      </trkpt>
      <trkpt lat="40.577217" lon="-5.186983">
        <ele>3297.0</ele>
        <time>2018-07-14T13:22:37Z</time>
      </trkpt>
      <trkpt lat="40.577150" lon="-5.187000">
        <ele>3295.0</ele>
        <time>2018-07-14T13:22:38Z</time>
      </trkpt>
      <trkpt lat="40.577100" lon="-5.187050">
        <ele>3292.0</ele>
        <time>2018-07-14T13:22:39Z</time>
      </trkpt>
      <trkpt lat="40.577067" lon="-5.187117">
        <ele>3290.0</ele>
        <time>2018-07-14T13:22:40Z</time>
      </trkpt>
      <trkpt lat="40.577050" lon="-5.187200">
        <ele>3288.0</ele>
        <time>2018-07-14T13:22:41Z</time>
      </trkpt>
      <trkpt lat="40.577067" lon="-5.187283">
        <ele>3288.0</ele>
        <time>2018-07-14T13:22:42Z</time>
      </trkpt>
      <trkpt lat="40.577100" lon="-5.187367">
        <ele>3290.0</ele>
        <time>2018-07-14T13:22:43Z</time>
      </trkpt>
      <trkpt lat="40.577133" lon="-5.187433">
        <ele>3292.0</ele>
        <time>2018-07-14T13:22:44Z</time>
      </trkpt>
      <trkpt lat="40.577167" lon="-5.187500">
        <ele>3294.0</ele>
        <time>2018-07-14T13:22:45Z</time>
      </trkpt>
      <trkpt lat="40.577217" lon="-5.187567">
        <ele>3295.0</ele>
        <time>2018-07-14T13:22:46Z</time>
      </trkpt>
      <trkpt lat="40.577267" lon="-5.187633">
        <ele>3297.0</ele>
        <time>2018-07-14T13:22:47Z</time>
      </trkpt>
      <trkpt lat="40.577333" lon="-5.187683">
        <ele>3298.0</ele>
        <time>2018-07-14T13:22:48Z</time>
      </trkpt>
      <trkpt lat="40.577417" lon="-5.187733">
        <ele>3300.0</ele>
        <time>2018-07-14T13:22:49Z</time>
      </trkpt>
      <trkpt lat="40.577500" lon="-5.187767">
        <ele>3303.0</ele>
        <time>2018-07-14T13:22:50Z</time>
      </trkpt>
      <trkpt lat="40.577600" lon="-5.187783">
        <ele>3305.0</ele>
        <time>2018-07-14T13:22:51Z</time>
      </trkpt>
      <trkpt lat="40.577700" lon="-5.187783">
        <ele>3307.0</ele>
        <time>2018-07-14T13:22:52Z</time>
      </trkpt>
      <trkpt lat="40.577783" lon="-5.187783">
        <ele>3309.0</ele>
        <time>2018-07-14T13:22:53Z</time>
      </trkpt>
      <trkpt lat="40.577867" lon="-5.187783">
        <ele>3311.0</ele>
        <time>2018-07-14T13:22:54Z</time>
      </trkpt>
      <trkpt lat="40.577967" lon="-5.187767">
        <ele>3312.0</ele>
        <time>2018-07-14T13:22:55Z</time>
      </trkpt>
      <trkpt lat="40.578067" lon="-5.187767">
        <ele>3312.0</ele>
        <time>2018-07-14T13:22:56Z</time>
      </trkpt>
      <trkpt lat="40.578183" lon="-5.187750">
        <ele>3312.0</ele>
        <time>2018-07-14T13:22:57Z</time>
      </trkpt>
      <trkpt lat="40.578300" lon="-5.187717">
        <ele>3311.0</ele>
        <time>2018-07-14T13:22:58Z</time>
      </trkpt>
      <trkpt lat="40.578433" lon="-5.187683">
        <ele>3309.0</ele>
        <time>2018-07-14T13:22:59Z</time>
      </trkpt>
      <trkpt lat="40.578783" lon="-5.187600">
        <ele>3307.0</ele>
        <time>2018-07-14T13:23:02Z</time>
      </trkpt>
      <trkpt lat="40.578917" lon="-5.187583">
        <ele>3307.0</ele>
        <time>2018-07-14T13:23:03Z</time>
      </trkpt>
      <trkpt lat="40.579033" lon="-5.187550">
        <ele>3307.0</ele>
        <time>2018-07-14T13:23:04Z</time>
      </trkpt>
      <trkpt lat="40.579167" lon="-5.187533">
        <ele>3306.0</ele>
        <time>2018-07-14T13:23:05Z</time>
      </trkpt>
      <trkpt lat="40.579300" lon="-5.187533">
        <ele>3305.0</ele>
        <time>2018-07-14T13:23:06Z</time>
      </trkpt>
      <trkpt lat="40.579417" lon="-5.187533">
        <ele>3305.0</ele>
        <time>2018-07-14T13:23:07Z</time>
      </trkpt>
      <trkpt lat="40.579550" lon="-5.187533">
        <ele>3306.0</ele>
        <time>2018-07-14T13:23:08Z</time>
      </trkpt>
      <trkpt lat="40.579667" lon="-5.187533">
        <ele>3307.0</ele>
        <time>2018-07-14T13:23:09Z</time>
      </trkpt>
      <trkpt lat="40.579767" lon="-5.187517">
        <ele>3308.0</ele>
        <time>2018-07-14T13:23:10Z</time>
      </trkpt>
      <trkpt lat="40.579867" lon="-5.187517">
        <ele>3308.0</ele>
        <time>2018-07-14T13:23:11Z</time>
      </trkpt>
      <trkpt lat="40.579983" lon="-5.187533">
        <ele>3308.0</ele>
        <time>2018-07-14T13:23:12Z</time>
      </trkpt>
      <trkpt lat="40.580117" lon="-5.187533">
        <ele>3308.0</ele>
        <time>2018-07-14T13:23:13Z</time>
      </trkpt>
      <trkpt lat="40.580250" lon="-5.187550">
        <ele>3307.0</ele>
        <time>2018-07-14T13:23:14Z</time>
      </trkpt>
      <trkpt lat="40.580383" lon="-5.187567">
        <ele>3307.0</ele>
        <time>2018-07-14T13:23:15Z</time>
      </trkpt>
      <trkpt lat="40.580500" lon="-5.187567">
        <ele>3307.0</ele>
        <time>2018-07-14T13:23:16Z</time>
      </trkpt>
      <trkpt lat="40.580617" lon="-5.187567">
        <ele>3306.0</ele>
        <time>2018-07-14T13:23:17Z</time>
      </trkpt>
      <trkpt lat="40.580733" lon="-5.187567">
        <ele>3305.0</ele>
        <time>2018-07-14T13:23:18Z</time>
      </trkpt>
      <trkpt lat="40.580867" lon="-5.187583">
        <ele>3304.0</ele>
        <time>2018-07-14T13:23:19Z</time>
      </trkpt>
      <trkpt lat="40.581017" lon="-5.187600">
        <ele>3304.0</ele>
        <time>2018-07-14T13:23:20Z</time>
      </trkpt>
      <trkpt lat="40.581150" lon="-5.187600">
        <ele>3303.0</ele>
        <time>2018-07-14T13:23:21Z</time>
      </trkpt>
      <trkpt lat="40.581267" lon="-5.187617">
        <ele>3302.0</ele>
        <time>2018-07-14T13:23:22Z</time>
      </trkpt>
      <trkpt lat="40.581383" lon="-5.187617">
        <ele>3302.0</ele>
        <time>2018-07-14T13:23:23Z</time>
      </trkpt>
      <trkpt lat="40.581517" lon="-5.187633">
        <ele>3301.0</ele>
        <time>2018-07-14T13:23:24Z</time>
      </trkpt>
      <trkpt lat="40.581650" lon="-5.187633">
        <ele>3300.0</ele>
        <time>2018-07-14T13:23:25Z</time>
      </trkpt>
      <trkpt lat="40.581783" lon="-5.187617">
        <ele>3300.0</ele>
        <time>2018-07-14T13:23:26Z</time>
      </trkpt>
      <trkpt lat="40.581917" lon="-5.187600">
        <ele>3299.0</ele>
        <time>2018-07-14T13:23:27Z</time>
      </trkpt>
      <trkpt lat="40.582050" lon="-5.187583">
        <ele>3299.0</ele>
        <time>2018-07-14T13:23:28Z</time>
      </trkpt>
      <trkpt lat="40.582167" lon="-5.187583">
        <ele>3299.0</ele>
        <time>2018-07-14T13:23:29Z</time>
      </trkpt>
      <trkpt lat="40.582300" lon="-5.187583">
        <ele>3299.0</ele>
        <time>2018-07-14T13:23:30Z</time>
      </trkpt>
      <trkpt lat="40.582683" lon="-5.187567">
        <ele>0.0</ele>
        <time>2018-07-14T13:23:33Z</time>
      </trkpt>
      <trkpt lat="40.582817" lon="-5.187517">
        <ele>3299.0</ele>
        <time>2018-07-14T13:23:34Z</time>
      </trkpt>
      <trkpt lat="40.582933" lon="-5.187500">
        <ele>3299.0</ele>
        <time>2018-07-14T13:23:35Z</time>
      </trkpt>
      <trkpt lat="40.583050" lon="-5.187483">
        <ele>3297.0</ele>
        <time>2018-07-14T13:23:36Z</time>
      </trkpt>
      <trkpt lat="40.583167" lon="-5.187483">
        <ele>3296.0</ele>
        <time>2018-07-14T13:23:37Z</time>
      </trkpt>
      <trkpt lat="40.583317" lon="-5.187467">
        <ele>3294.0</ele>
        <time>2018-07-14T13:23:38Z</time>
      </trkpt>
      <trkpt lat="40.583450" lon="-5.187433">
        <ele>3293.0</ele>
        <time>2018-07-14T13:23:39Z</time>
      </trkpt>
      <trkpt lat="40.583583" lon="-5.187417">
        <ele>3294.0</ele>
        <time>2018-07-14T13:23:40Z</time>
      </trkpt>
      <trkpt lat="40.583700" lon="-5.187417">
        <ele>3295.0</ele>
        <time>2018-07-14T13:23:41Z</time>
      </trkpt>
      <trkpt lat="40.583817" lon="-5.187400">
        <ele>3296.0</ele>
        <time>2018-07-14T13:23:42Z</time>
      </trkpt>
      <trkpt lat="40.583933" lon="-5.187400">
        <ele>3295.0</ele>
        <time>2018-07-14T13:23:43Z</time>
      </trkpt>
      <trkpt lat="40.584050" lon="-5.187383">
        <ele>3295.0</ele>
        <time>2018-07-14T13:23:44Z</time>
      </trkpt>
      <trkpt lat="40.584183" lon="-5.187367">
        <ele>3294.0</ele>
        <time>2018-07-14T13:23:45Z</time>
      </trkpt>
      <trkpt lat="40.584317" lon="-5.187333">
        <ele>3293.0</ele>
        <time>2018-07-14T13:23:46Z</time>
      </trkpt>
      <trkpt lat="40.584450" lon="-5.187317">
        <ele>3292.0</ele>
        <time>2018-07-14T13:23:47Z</time>
      </trkpt>
      <trkpt lat="40.584567" lon="-5.187300">
        <ele>3291.0</ele>
        <time>2018-07-14T13:23:48Z</time>
      </trkpt>
      <trkpt lat="40.584683" lon="-5.187300">
        <ele>3289.0</ele>
        <time>2018-07-14T13:23:49Z</time>
      </trkpt>
      <trkpt lat="40.584800" lon="-5.187283">
        <ele>3288.0</ele>
        <time>2018-07-14T13:23:50Z</time>
      </trkpt>
      <trkpt lat="40.584917" lon="-5.187267">
        <ele>3287.0</ele>
        <time>2018-07-14T13:23:51Z</time>
      </trkpt>
      <trkpt lat="40.585033" lon="-5.187250">
        <ele>3285.0</ele>
        <time>2018-07-14T13:23:52Z</time>
      </trkpt>
      <trkpt lat="40.585983" lon="-5.187217">
        <ele>0.0</ele>
        <time>2018-07-14T13:24:00Z</time>
      </trkpt>
      <trkpt lat="40.586133" lon="-5.187250">
        <ele>3279.0</ele>
        <time>2018-07-14T13:24:01Z</time>
      </trkpt>
      <trkpt lat="40.586300" lon="-5.187233">
        <ele>3279.0</ele>
        <time>2018-07-14T13:24:02Z</time>
      </trkpt>
      <trkpt lat="40.586417" lon="-5.187233">
        <ele>3280.0</ele>
        <time>2018-07-14T13:24:03Z</time>
      </trkpt>
      <trkpt lat="40.586767" lon="-5.187183">
        <ele>0.0</ele>
        <time>2018-07-14T13:24:06Z</time>
      </trkpt>
      <trkpt lat="40.586867" lon="-5.187167">
        <ele>3280.0</ele>
        <time>2018-07-14T13:24:07Z</time>
      </trkpt>
      <trkpt lat="40.586983" lon="-5.187133">
        <ele>3278.0</ele>
        <time>2018-07-14T13:24:08Z</time>
      </trkpt>
      <trkpt lat="40.587100" lon="-5.187117">
        <ele>3275.0</ele>
        <time>2018-07-14T13:24:09Z</time>
      </trkpt>
      <trkpt lat="40.587233" lon="-5.187100">
        <ele>3273.0</ele>
        <time>2018-07-14T13:24:10Z</time>
      </trkpt>
      <trkpt lat="40.587350" lon="-5.187100">
        <ele>3273.0</ele>
        <time>2018-07-14T13:24:11Z</time>
      </trkpt>
      <trkpt lat="40.587467" lon="-5.187083">
        <ele>3272.0</ele>
        <time>2018-07-14T13:24:12Z</time>
      </trkpt>
      <trkpt lat="40.587583" lon="-5.187100">
        <ele>3271.0</ele>
        <time>2018-07-14T13:24:13Z</time>
      </trkpt>
      <trkpt lat="40.587650" lon="-5.187150">
        <ele>3270.0</ele>
        <time>2018-07-14T13:24:14Z</time>
      </trkpt>
      <trkpt lat="40.587717" lon="-5.187117">
        <ele>3271.0</ele>
        <time>2018-07-14T13:24:15Z</time>
      </trkpt>
      <trkpt lat="40.587867" lon="-5.187150">
        <ele>3266.0</ele>
        <time>2018-07-14T13:24:16Z</time>
      </trkpt>
      <trkpt lat="40.588017" lon="-5.187133">
        <ele>3267.0</ele>
        <time>2018-07-14T13:24:17Z</time>
      </trkpt>
      <trkpt lat="40.588150" lon="-5.187133">
        <ele>3267.0</ele>
        <time>2018-07-14T13:24:18Z</time>
      </trkpt>
      <trkpt lat="40.588283" lon="-5.187133">
        <ele>3269.0</ele>
        <time>2018-07-14T13:24:19Z</time>
      </trkpt>
      <trkpt lat="40.588400" lon="-5.187133">
        <ele>3270.0</ele>
        <time>2018-07-14T13:24:20Z</time>
      </trkpt>
      <trkpt lat="40.588517" lon="-5.187150">
        <ele>3270.0</ele>
        <time>2018-07-14T13:24:21Z</time>
      </trkpt>
      <trkpt lat="40.588650" lon="-5.187150">
        <ele>3271.0</ele>
        <time>2018-07-14T13:24:22Z</time>
      </trkpt>
      <trkpt lat="40.588783" lon="-5.187150">
        <ele>3271.0</ele>
        <time>2018-07-14T13:24:23Z</time>
      </trkpt>
      <trkpt lat="40.588900" lon="-5.187133">
        <ele>3271.0</ele>
        <time>2018-07-14T13:24:24Z</time>
      </trkpt>
      <trkpt lat="40.589283" lon="-5.187167">
        <ele>0.0</ele>
        <time>2018-07-14T13:24:28Z</time>
      </trkpt>
      <trkpt lat="40.589550" lon="-5.187100">
        <ele>3272.0</ele>
        <time>2018-07-14T13:24:29Z</time>
      </trkpt>
      <trkpt lat="40.589667" lon="-5.187083">
        <ele>3264.0</ele>
        <time>2018-07-14T13:24:30Z</time>
      </trkpt>
      <trkpt lat="40.589800" lon="-5.187083">
        <ele>3264.0</ele>
        <time>2018-07-14T13:24:31Z</time>
      </trkpt>
      <trkpt lat="40.589933" lon="-5.187067">
        <ele>3264.0</ele>
        <time>2018-07-14T13:24:32Z</time>
      </trkpt>
      <trkpt lat="40.590067" lon="-5.187067">
        <ele>3263.0</ele>
        <time>2018-07-14T13:24:33Z</time>
      </trkpt>
      <trkpt lat="40.590183" lon="-5.187067">
        <ele>3262.0</ele>
        <time>2018-07-14T13:24:34Z</time>
      </trkpt>
      <trkpt lat="40.590300" lon="-5.187050">
        <ele>3261.0</ele>
        <time>2018-07-14T13:24:35Z</time>
      </trkpt>
      <trkpt lat="40.590433" lon="-5.187050">
        <ele>3260.0</ele>
        <time>2018-07-14T13:24:36Z</time>
      </trkpt>
      <trkpt lat="40.590567" lon="-5.187033">
        <ele>3259.0</ele>
        <time>2018-07-14T13:24:37Z</time>
      </trkpt>
      <trkpt lat="40.590700" lon="-5.187017">
        <ele>3258.0</ele>
        <time>2018-07-14T13:24:38Z</time>
      </trkpt>
      <trkpt lat="40.590833" lon="-5.187000">
        <ele>3258.0</ele>
        <time>2018-07-14T13:24:39Z</time>
      </trkpt>
      <trkpt lat="40.590967" lon="-5.186967">
        <ele>3257.0</ele>
        <time>2018-07-14T13:24:40Z</time>
      </trkpt>
      <trkpt lat="40.591083" lon="-5.186950">
        <ele>3257.0</ele>
        <time>2018-07-14T13:24:41Z</time>
      </trkpt>
      <trkpt lat="40.591200" lon="-5.186933">
        <ele>3257.0</ele>
        <time>2018-07-14T13:24:42Z</time>
      </trkpt>
      <trkpt lat="40.591300" lon="-5.186917">
        <ele>3256.0</ele>
        <time>2018-07-14T13:24:43Z</time>
      </trkpt>
      <trkpt lat="40.591417" lon="-5.186900">
        <ele>3255.0</ele>
        <time>2018-07-14T13:24:44Z</time>
      </trkpt>
      <trkpt lat="40.591533" lon="-5.186883">
        <ele>3251.0</ele>
        <time>2018-07-14T13:24:45Z</time>
      </trkpt>
      <trkpt lat="40.591667" lon="-5.186850">
        <ele>3247.0</ele>
        <time>2018-07-14T13:24:46Z</time>
      </trkpt>
      <trkpt lat="40.591783" lon="-5.186817">
        <ele>3244.0</ele>
        <time>2018-07-14T13:24:47Z</time>
      </trkpt>
      <trkpt lat="40.591917" lon="-5.186767">
        <ele>3241.0</ele>
        <time>2018-07-14T13:24:48Z</time>
      </trkpt>
      <trkpt lat="40.592033" lon="-5.186717">
        <ele>3239.0</ele>
        <time>2018-07-14T13:24:49Z</time>
      </trkpt>
      <trkpt lat="40.592150" lon="-5.186683">
        <ele>3237.0</ele>
        <time>2018-07-14T13:24:50Z</time>
      </trkpt>
      <trkpt lat="40.592267" lon="-5.186633">
        <ele>3235.0</ele>
        <time>2018-07-14T13:24:51Z</time>
      </trkpt>
      <trkpt lat="40.592383" lon="-5.186583">
        <ele>3232.0</ele>
        <time>2018-07-14T13:24:52Z</time>
      </trkpt>
      <trkpt lat="40.592517" lon="-5.186533">
        <ele>3229.0</ele>
        <time>2018-07-14T13:24:53Z</time>
      </trkpt>
      <trkpt lat="40.592650" lon="-5.186467">
        <ele>3226.0</ele>
        <time>2018-07-14T13:24:54Z</time>
      </trkpt>
      <trkpt lat="40.592767" lon="-5.186400">
        <ele>3224.0</ele>
        <time>2018-07-14T13:24:55Z</time>
      </trkpt>
      <trkpt lat="40.592883" lon="-5.186317">
        <ele>3221.0</ele>
        <time>2018-07-14T13:24:56Z</time>
      </trkpt>
      <trkpt lat="40.593000" lon="-5.186250">
        <ele>3219.0</ele>
        <time>2018-07-14T13:24:57Z</time>
      </trkpt>
      <trkpt lat="40.593100" lon="-5.186183">
        <ele>3217.0</ele>
        <time>2018-07-14T13:24:58Z</time>
      </trkpt>
      <trkpt lat="40.593217" lon="-5.186117">
        <ele>3216.0</ele>
        <time>2018-07-14T13:24:59Z</time>
      </trkpt>
      <trkpt lat="40.593317" lon="-5.186033">
        <ele>3215.0</ele>
        <time>2018-07-14T13:25:00Z</time>
      </trkpt>
      <trkpt lat="40.593417" lon="-5.185967">
        <ele>3214.0</ele>
        <time>2018-07-14T13:25:01Z</time>
      </trkpt>
      <trkpt lat="40.593517" lon="-5.185883">
        <ele>3213.0</ele>
        <time>2018-07-14T13:25:02Z</time>
      </trkpt>
      <trkpt lat="40.593633" lon="-5.185800">
        <ele>3211.0</ele>
        <time>2018-07-14T13:25:03Z</time>
      </trkpt>
      <trkpt lat="40.593733" lon="-5.185717">
        <ele>3209.0</ele>
        <time>2018-07-14T13:25:04Z</time>
      </trkpt>
      <trkpt lat="40.593850" lon="-5.185650">
        <ele>3208.0</ele>
        <time>2018-07-14T13:25:05Z</time>
      </trkpt>
      <trkpt lat="40.593950" lon="-5.185567">
        <ele>3206.0</ele>
        <time>2018-07-14T13:25:06Z</time>
      </trkpt>
      <trkpt lat="40.594050" lon="-5.185483">
        <ele>3205.0</ele>
        <time>2018-07-14T13:25:07Z</time>
      </trkpt>
      <trkpt lat="40.594167" lon="-5.185400">
        <ele>3204.0</ele>
        <time>2018-07-14T13:25:08Z</time>
      </trkpt>
      <trkpt lat="40.594267" lon="-5.185333">
        <ele>3202.0</ele>
        <time>2018-07-14T13:25:09Z</time>
      </trkpt>
      <trkpt lat="40.594383" lon="-5.185250">
        <ele>3201.0</ele>
        <time>2018-07-14T13:25:10Z</time>
      </trkpt>
      <trkpt lat="40.594483" lon="-5.185167">
        <ele>3199.0</ele>
        <time>2018-07-14T13:25:11Z</time>
      </trkpt>
      <trkpt lat="40.594600" lon="-5.185083">
        <ele>3197.0</ele>
        <time>2018-07-14T13:25:12Z</time>
      </trkpt>
      <trkpt lat="40.594700" lon="-5.185000">
        <ele>3195.0</ele>
        <time>2018-07-14T13:25:13Z</time>
      </trkpt>
      <trkpt lat="40.594817" lon="-5.184917">
        <ele>3193.0</ele>
        <time>2018-07-14T13:25:14Z</time>
      </trkpt>
      <trkpt lat="40.594933" lon="-5.184833">
        <ele>3191.0</ele>
        <time>2018-07-14T13:25:15Z</time>
      </trkpt>
      <trkpt lat="40.595033" lon="-5.184750">
        <ele>3190.0</ele>
        <time>2018-07-14T13:25:16Z</time>
      </trkpt>
      <trkpt lat="40.595150" lon="-5.184667">
        <ele>3189.0</ele>
        <time>2018-07-14T13:25:17Z</time>
      </trkpt>
      <trkpt lat="40.595267" lon="-5.184583">
        <ele>3188.0</ele>
        <time>2018-07-14T13:25:18Z</time>
      </trkpt>
      <trkpt lat="40.595367" lon="-5.184517">
        <ele>3186.0</ele>
        <time>2018-07-14T13:25:19Z</time>
      </trkpt>
      <trkpt lat="40.595483" lon="-5.184433">
        <ele>3184.0</ele>
        <time>2018-07-14T13:25:20Z</time>
      </trkpt>
      <trkpt lat="40.595600" lon="-5.184367">
        <ele>3182.0</ele>
        <time>2018-07-14T13:25:21Z</time>
      </trkpt>
      <trkpt lat="40.595717" lon="-5.184283">
        <ele>3180.0</ele>
        <time>2018-07-14T13:25:22Z</time>
      </trkpt>
      <trkpt lat="40.595833" lon="-5.184200">
        <ele>3178.0</ele>
        <time>2018-07-14T13:25:23Z</time>
      </trkpt>
      <trkpt lat="40.595950" lon="-5.184133">
        <ele>3177.0</ele>
        <time>2018-07-14T13:25:24Z</time>
      </trkpt>
      <trkpt lat="40.596067" lon="-5.184067">
        <ele>3175.0</ele>
        <time>2018-07-14T13:25:25Z</time>
      </trkpt>
      <trkpt lat="40.596183" lon="-5.183983">
        <ele>3173.0</ele>
        <time>2018-07-14T13:25:26Z</time>
      </trkpt>
      <trkpt lat="40.596300" lon="-5.183917">
        <ele>3171.0</ele>
        <time>2018-07-14T13:25:27Z</time>
      </trkpt>
      <trkpt lat="40.596417" lon="-5.183833">
        <ele>3169.0</ele>
        <time>2018-07-14T13:25:28Z</time>
      </trkpt>
      <trkpt lat="40.596533" lon="-5.183767">
        <ele>3166.0</ele>
        <time>2018-07-14T13:25:29Z</time>
      </trkpt>
      <trkpt lat="40.596650" lon="-5.183700">
        <ele>3164.0</ele>
        <time>2018-07-14T13:25:30Z</time>
      </trkpt>
      <trkpt lat="40.596750" lon="-5.183633">
        <ele>3162.0</ele>
        <time>2018-07-14T13:25:31Z</time>
      </trkpt>
      <trkpt lat="40.596867" lon="-5.183567">
        <ele>3160.0</ele>
        <time>2018-07-14T13:25:32Z</time>
      </trkpt>
      <trkpt lat="40.596983" lon="-5.183500">
        <ele>3157.0</ele>
        <time>2018-07-14T13:25:33Z</time>
      </trkpt>
      <trkpt lat="40.597100" lon="-5.183417">
        <ele>3153.0</ele>
        <time>2018-07-14T13:25:34Z</time>
      </trkpt>
      <trkpt lat="40.597233" lon="-5.183317">
        <ele>3149.0</ele>
        <time>2018-07-14T13:25:35Z</time>
      </trkpt>
      <trkpt lat="40.597350" lon="-5.183233">
        <ele>3145.0</ele>
        <time>2018-07-14T13:25:36Z</time>
      </trkpt>
      <trkpt lat="40.597467" lon="-5.183150">
        <ele>3143.0</ele>
        <time>2018-07-14T13:25:37Z</time>
      </trkpt>
      <trkpt lat="40.597583" lon="-5.183083">
        <ele>3142.0</ele>
        <time>2018-07-14T13:25:38Z</time>
      </trkpt>
      <trkpt lat="40.597683" lon="-5.183000">
        <ele>3141.0</ele>
        <time>2018-07-14T13:25:39Z</time>
      </trkpt>
      <trkpt lat="40.597800" lon="-5.182933">
        <ele>3139.0</ele>
        <time>2018-07-14T13:25:40Z</time>
      </trkpt>
      <trkpt lat="40.597900" lon="-5.182850">
        <ele>3137.0</ele>
        <time>2018-07-14T13:25:41Z</time>
      </trkpt>
      <trkpt lat="40.598000" lon="-5.182767">
        <ele>3134.0</ele>
        <time>2018-07-14T13:25:42Z</time>
      </trkpt>
      <trkpt lat="40.598117" lon="-5.182683">
        <ele>3132.0</ele>
        <time>2018-07-14T13:25:43Z</time>
      </trkpt>
      <trkpt lat="40.598217" lon="-5.182600">
        <ele>3129.0</ele>
        <time>2018-07-14T13:25:44Z</time>
      </trkpt>
      <trkpt lat="40.598317" lon="-5.182500">
        <ele>3126.0</ele>
        <time>2018-07-14T13:25:45Z</time>
      </trkpt>
      <trkpt lat="40.598417" lon="-5.182417">
        <ele>3122.0</ele>
        <time>2018-07-14T13:25:46Z</time>
      </trkpt>
      <trkpt lat="40.598517" lon="-5.182317">
        <ele>3118.0</ele>
        <time>2018-07-14T13:25:47Z</time>
      </trkpt>
      <trkpt lat="40.598617" lon="-5.182217">
        <ele>3115.0</ele>
        <time>2018-07-14T13:25:48Z</time>
      </trkpt>
      <trkpt lat="40.598717" lon="-5.182117">
        <ele>3112.0</ele>
        <time>2018-07-14T13:25:49Z</time>
      </trkpt>
      <trkpt lat="40.598817" lon="-5.182033">
        <ele>3109.0</ele>
        <time>2018-07-14T13:25:50Z</time>
      </trkpt>
      <trkpt lat="40.598917" lon="-5.181950">
        <ele>3106.0</ele>
        <time>2018-07-14T13:25:51Z</time>
      </trkpt>
      <trkpt lat="40.599033" lon="-5.181867">
        <ele>3103.0</ele>
        <time>2018-07-14T13:25:52Z</time>
      </trkpt>
      <trkpt lat="40.599133" lon="-5.181783">
        <ele>3099.0</ele>
        <time>2018-07-14T13:25:53Z</time>
      </trkpt>
      <trkpt lat="40.599233" lon="-5.181683">
        <ele>3095.0</ele>
        <time>2018-07-14T13:25:54Z</time>
      </trkpt>
      <trkpt lat="40.599333" lon="-5.181600">
        <ele>3092.0</ele>
        <time>2018-07-14T13:25:55Z</time>
      </trkpt>
      <trkpt lat="40.599433" lon="-5.181517">
        <ele>3089.0</ele>
        <time>2018-07-14T13:25:56Z</time>
      </trkpt>
      <trkpt lat="40.599550" lon="-5.181417">
        <ele>3085.0</ele>
        <time>2018-07-14T13:25:57Z</time>
      </trkpt>
      <trkpt lat="40.599667" lon="-5.181333">
        <ele>3082.0</ele>
        <time>2018-07-14T13:25:58Z</time>
      </trkpt>
      <trkpt lat="40.599783" lon="-5.181233">
        <ele>3079.0</ele>
        <time>2018-07-14T13:25:59Z</time>
      </trkpt>
      <trkpt lat="40.599900" lon="-5.181150">
        <ele>3076.0</ele>
        <time>2018-07-14T13:26:00Z</time>
      </trkpt>
      <trkpt lat="40.600000" lon="-5.181067">
        <ele>3074.0</ele>
        <time>2018-07-14T13:26:01Z</time>
      </trkpt>
      <trkpt lat="40.600117" lon="-5.180967">
        <ele>3071.0</ele>
        <time>2018-07-14T13:26:02Z</time>
      </trkpt>
      <trkpt lat="40.600217" lon="-5.180883">
        <ele>3068.0</ele>
        <time>2018-07-14T13:26:03Z</time>
      </trkpt>
      <trkpt lat="40.600350" lon="-5.180800">
        <ele>3066.0</ele>
        <time>2018-07-14T13:26:04Z</time>
      </trkpt>
      <trkpt lat="40.600467" lon="-5.180717">
        <ele>3063.0</ele>
        <time>2018-07-14T13:26:05Z</time>
      </trkpt>
      <trkpt lat="40.600583" lon="-5.180633">
        <ele>3060.0</ele>
        <time>2018-07-14T13:26:06Z</time>
      </trkpt>
      <trkpt lat="40.600700" lon="-5.180567">
        <ele>3058.0</ele>
        <time>2018-07-14T13:26:07Z</time>
      </trkpt>
      <trkpt lat="40.600817" lon="-5.180483">
        <ele>3056.0</ele>
        <time>2018-07-14T13:26:08Z</time>
      </trkpt>
      <trkpt lat="40.600933" lon="-5.180400">
        <ele>3053.0</ele>
        <time>2018-07-14T13:26:09Z</time>
      </trkpt>
      <trkpt lat="40.601050" lon="-5.180317">
        <ele>3051.0</ele>
        <time>2018-07-14T13:26:10Z</time>
      </trkpt>
      <trkpt lat="40.601167" lon="-5.180250">
        <ele>3048.0</ele>
        <time>2018-07-14T13:26:11Z</time>
      </trkpt>
      <trkpt lat="40.601267" lon="-5.180167">
        <ele>3047.0</ele>
        <time>2018-07-14T13:26:12Z</time>
      </trkpt>
      <trkpt lat="40.601383" lon="-5.180083">
        <ele>3045.0</ele>
        <time>2018-07-14T13:26:13Z</time>
      </trkpt>
      <trkpt lat="40.601483" lon="-5.180000">
        <ele>3042.0</ele>
        <time>2018-07-14T13:26:14Z</time>
      </trkpt>
      <trkpt lat="40.601600" lon="-5.179917">
        <ele>3040.0</ele>
        <time>2018-07-14T13:26:15Z</time>
      </trkpt>
      <trkpt lat="40.601717" lon="-5.179833">
        <ele>3037.0</ele>
        <time>2018-07-14T13:26:16Z</time>
      </trkpt>
      <trkpt lat="40.601833" lon="-5.179767">
        <ele>3035.0</ele>
        <time>2018-07-14T13:26:17Z</time>
      </trkpt>
      <trkpt lat="40.601950" lon="-5.179683">
        <ele>3032.0</ele>
        <time>2018-07-14T13:26:18Z</time>
      </trkpt>
      <trkpt lat="40.602067" lon="-5.179600">
        <ele>3030.0</ele>
        <time>2018-07-14T13:26:19Z</time>
      </trkpt>
      <trkpt lat="40.602167" lon="-5.179533">
        <ele>3028.0</ele>
        <time>2018-07-14T13:26:20Z</time>
      </trkpt>
      <trkpt lat="40.602283" lon="-5.179450">
        <ele>3026.0</ele>
        <time>2018-07-14T13:26:21Z</time>
      </trkpt>
      <trkpt lat="40.602400" lon="-5.179367">
        <ele>3024.0</ele>
        <time>2018-07-14T13:26:22Z</time>
      </trkpt>
      <trkpt lat="40.602517" lon="-5.179300">
        <ele>3022.0</ele>
        <time>2018-07-14T13:26:23Z</time>
      </trkpt>
      <trkpt lat="40.602633" lon="-5.179217">
        <ele>3019.0</ele>
        <time>2018-07-14T13:26:24Z</time>
      </trkpt>
      <trkpt lat="40.602733" lon="-5.179133">
        <ele>3017.0</ele>
        <time>2018-07-14T13:26:25Z</time>
      </trkpt>
      <trkpt lat="40.602850" lon="-5.179067">
        <ele>3015.0</ele>
        <time>2018-07-14T13:26:26Z</time>
      </trkpt>
      <trkpt lat="40.602950" lon="-5.178983">
        <ele>3013.0</ele>
        <time>2018-07-14T13:26:27Z</time>
      </trkpt>
      <trkpt lat="40.603067" lon="-5.178900">
        <ele>3011.0</ele>
        <time>2018-07-14T13:26:28Z</time>
      </trkpt>
      <trkpt lat="40.603167" lon="-5.178817">
        <ele>3010.0</ele>
        <time>2018-07-14T13:26:29Z</time>
      </trkpt>
      <trkpt lat="40.603267" lon="-5.178733">
        <ele>3008.0</ele>
        <time>2018-07-14T13:26:30Z</time>
      </trkpt>
      <trkpt lat="40.603367" lon="-5.178633">
        <ele>3006.0</ele>
        <time>2018-07-14T13:26:31Z</time>
      </trkpt>
      <trkpt lat="40.603467" lon="-5.178550">
        <ele>3003.0</ele>
        <time>2018-07-14T13:26:32Z</time>
      </trkpt>
      <trkpt lat="40.603583" lon="-5.178467">
        <ele>3001.0</ele>
        <time>2018-07-14T13:26:33Z</time>
      </trkpt>
      <trkpt lat="40.603683" lon="-5.178383">
        <ele>2999.0</ele>
        <time>2018-07-14T13:26:34Z</time>
      </trkpt>
      <trkpt lat="40.603800" lon="-5.178300">
        <ele>2996.0</ele>
        <time>2018-07-14T13:26:35Z</time>
      </trkpt>
      <trkpt lat="40.603900" lon="-5.178217">
        <ele>2994.0</ele>
        <time>2018-07-14T13:26:36Z</time>
      </trkpt>
      <trkpt lat="40.604017" lon="-5.178133">
        <ele>2991.0</ele>
        <time>2018-07-14T13:26:37Z</time>
      </trkpt>
      <trkpt lat="40.604133" lon="-5.178050">
        <ele>2988.0</ele>
        <time>2018-07-14T13:26:38Z</time>
      </trkpt>
      <trkpt lat="40.604250" lon="-5.177967">
        <ele>2986.0</ele>
        <time>2018-07-14T13:26:39Z</time>
      </trkpt>
      <trkpt lat="40.604350" lon="-5.177883">
        <ele>2984.0</ele>
        <time>2018-07-14T13:26:40Z</time>
      </trkpt>
      <trkpt lat="40.604450" lon="-5.177783">
        <ele>2983.0</ele>
        <time>2018-07-14T13:26:41Z</time>
      </trkpt>
      <trkpt lat="40.604550" lon="-5.177700">
        <ele>2981.0</ele>
        <time>2018-07-14T13:26:42Z</time>
      </trkpt>
      <trkpt lat="40.604667" lon="-5.177617">
        <ele>2978.0</ele>
        <time>2018-07-14T13:26:43Z</time>
      </trkpt>
      <trkpt lat="40.604783" lon="-5.177533">
        <ele>2975.0</ele>
        <time>2018-07-14T13:26:44Z</time>
      </trkpt>
      <trkpt lat="40.604900" lon="-5.177433">
        <ele>2973.0</ele>
        <time>2018-07-14T13:26:45Z</time>
      </trkpt>
      <trkpt lat="40.605017" lon="-5.177333">
        <ele>2970.0</ele>
        <time>2018-07-14T13:26:46Z</time>
      </trkpt>
      <trkpt lat="40.605117" lon="-5.177250">
        <ele>2968.0</ele>
        <time>2018-07-14T13:26:47Z</time>
      </trkpt>
      <trkpt lat="40.605217" lon="-5.177150">
        <ele>2966.0</ele>
        <time>2018-07-14T13:26:48Z</time>
      </trkpt>
      <trkpt lat="40.605317" lon="-5.177067">
        <ele>2964.0</ele>
        <time>2018-07-14T13:26:49Z</time>
      </trkpt>
      <trkpt lat="40.605417" lon="-5.176983">
        <ele>2961.0</ele>
        <time>2018-07-14T13:26:50Z</time>
      </trkpt>
      <trkpt lat="40.605517" lon="-5.176900">
        <ele>2959.0</ele>
        <time>2018-07-14T13:26:51Z</time>
      </trkpt>
      <trkpt lat="40.605633" lon="-5.176817">
        <ele>2958.0</ele>
        <time>2018-07-14T13:26:52Z</time>
      </trkpt>
      <trkpt lat="40.605733" lon="-5.176733">
        <ele>2957.0</ele>
        <time>2018-07-14T13:26:53Z</time>
      </trkpt>
      <trkpt lat="40.605817" lon="-5.176667">
        <ele>2958.0</ele>
        <time>2018-07-14T13:26:54Z</time>
      </trkpt>
      <trkpt lat="40.605917" lon="-5.176583">
        <ele>2959.0</ele>
        <time>2018-07-14T13:26:55Z</time>
      </trkpt>
      <trkpt lat="40.606000" lon="-5.176517">
        <ele>2959.0</ele>
        <time>2018-07-14T13:26:56Z</time>
      </trkpt>
      <trkpt lat="40.606083" lon="-5.176450">
        <ele>2959.0</ele>
        <time>2018-07-14T13:26:57Z</time>
      </trkpt>
      <trkpt lat="40.606167" lon="-5.176383">
        <ele>2958.0</ele>
        <time>2018-07-14T13:26:58Z</time>
      </trkpt>
      <trkpt lat="40.606250" lon="-5.176333">
        <ele>2956.0</ele>
        <time>2018-07-14T13:26:59Z</time>
      </trkpt>
      <trkpt lat="40.606350" lon="-5.176267">
        <ele>2953.0</ele>
        <time>2018-07-14T13:27:00Z</time>
      </trkpt>
      <trkpt lat="40.606450" lon="-5.176183">
        <ele>2949.0</ele>
        <time>2018-07-14T13:27:01Z</time>
      </trkpt>
      <trkpt lat="40.606567" lon="-5.176100">
        <ele>2946.0</ele>
        <time>2018-07-14T13:27:02Z</time>
      </trkpt>
      <trkpt lat="40.606667" lon="-5.176017">
        <ele>2945.0</ele>
        <time>2018-07-14T13:27:03Z</time>
      </trkpt>
      <trkpt lat="40.606767" lon="-5.175933">
        <ele>2945.0</ele>
        <time>2018-07-14T13:27:04Z</time>
      </trkpt>
      <trkpt lat="40.606833" lon="-5.175867">
        <ele>2946.0</ele>
        <time>2018-07-14T13:27:05Z</time>
      </trkpt>
      <trkpt lat="40.606900" lon="-5.175800">
        <ele>2945.0</ele>
        <time>2018-07-14T13:27:06Z</time>
      </trkpt>
      <trkpt lat="40.606967" lon="-5.175733">
        <ele>2943.0</ele>
        <time>2018-07-14T13:27:07Z</time>
      </trkpt>
      <trkpt lat="40.607050" lon="-5.175633">
        <ele>2941.0</ele>
        <time>2018-07-14T13:27:08Z</time>
      </trkpt>
      <trkpt lat="40.607133" lon="-5.175533">
        <ele>2940.0</ele>
        <time>2018-07-14T13:27:09Z</time>
      </trkpt>
      <trkpt lat="40.607217" lon="-5.175450">
        <ele>2938.0</ele>
        <time>2018-07-14T13:27:10Z</time>
      </trkpt>
      <trkpt lat="40.607283" lon="-5.175367">
        <ele>2939.0</ele>
        <time>2018-07-14T13:27:11Z</time>
      </trkpt>
      <trkpt lat="40.607350" lon="-5.175283">
        <ele>2939.0</ele>
        <time>2018-07-14T13:27:12Z</time>
      </trkpt>
      <trkpt lat="40.607433" lon="-5.175217">
        <ele>2939.0</ele>
        <time>2018-07-14T13:27:13Z</time>
      </trkpt>
      <trkpt lat="40.607500" lon="-5.175133">
        <ele>2937.0</ele>
        <time>2018-07-14T13:27:14Z</time>
      </trkpt>
      <trkpt lat="40.607600" lon="-5.175050">
        <ele>2935.0</ele>
        <time>2018-07-14T13:27:15Z</time>
      </trkpt>
      <trkpt lat="40.607683" lon="-5.174967">
        <ele>2932.0</ele>
        <time>2018-07-14T13:27:16Z</time>
      </trkpt>
      <trkpt lat="40.607783" lon="-5.174900">
        <ele>2930.0</ele>
        <time>2018-07-14T13:27:17Z</time>
      </trkpt>
      <trkpt lat="40.607883" lon="-5.174833">
        <ele>2929.0</ele>
        <time>2018-07-14T13:27:18Z</time>
      </trkpt>
      <trkpt lat="40.607983" lon="-5.174767">
        <ele>2927.0</ele>
        <time>2018-07-14T13:27:19Z</time>
      </trkpt>
      <trkpt lat="40.608067" lon="-5.174683">
        <ele>2926.0</ele>
        <time>2018-07-14T13:27:20Z</time>
      </trkpt>
      <trkpt lat="40.608167" lon="-5.174600">
        <ele>2923.0</ele>
        <time>2018-07-14T13:27:21Z</time>
      </trkpt>
      <trkpt lat="40.608250" lon="-5.174533">
        <ele>2920.0</ele>
        <time>2018-07-14T13:27:22Z</time>
      </trkpt>
      <trkpt lat="40.608350" lon="-5.174450">
        <ele>2917.0</ele>
        <time>2018-07-14T13:27:23Z</time>
      </trkpt>
      <trkpt lat="40.608433" lon="-5.174383">
        <ele>2914.0</ele>
        <time>2018-07-14T13:27:24Z</time>
      </trkpt>
      <trkpt lat="40.608533" lon="-5.174317">
        <ele>2911.0</ele>
        <time>2018-07-14T13:27:25Z</time>
      </trkpt>
      <trkpt lat="40.608633" lon="-5.174267">
        <ele>2908.0</ele>
        <time>2018-07-14T13:27:26Z</time>
      </trkpt>
      <trkpt lat="40.608717" lon="-5.174217">
        <ele>2906.0</ele>
        <time>2018-07-14T13:27:27Z</time>
      </trkpt>
      <trkpt lat="40.608800" lon="-5.174150">
        <ele>2903.0</ele>
        <time>2018-07-14T13:27:28Z</time>
      </trkpt>
      <trkpt lat="40.608900" lon="-5.174100">
        <ele>2901.0</ele>
        <time>2018-07-14T13:27:29Z</time>
      </trkpt>
      <trkpt lat="40.609000" lon="-5.174033">
        <ele>2898.0</ele>
        <time>2018-07-14T13:27:30Z</time>
      </trkpt>
      <trkpt lat="40.609100" lon="-5.173967">
        <ele>2896.0</ele>
        <time>2018-07-14T13:27:31Z</time>
      </trkpt>
      <trkpt lat="40.609200" lon="-5.173900">
        <ele>2894.0</ele>
        <time>2018-07-14T13:27:32Z</time>
      </trkpt>
      <trkpt lat="40.609300" lon="-5.173850">
        <ele>2893.0</ele>
        <time>2018-07-14T13:27:33Z</time>
      </trkpt>
      <trkpt lat="40.609383" lon="-5.173800">
        <ele>2893.0</ele>
        <time>2018-07-14T13:27:34Z</time>
      </trkpt>
      <trkpt lat="40.609467" lon="-5.173733">
        <ele>2892.0</ele>
        <time>2018-07-14T13:27:35Z</time>
      </trkpt>
      <trkpt lat="40.609550" lon="-5.173683">
        <ele>2890.0</ele>
        <time>2018-07-14T13:27:36Z</time>
      </trkpt>
      <trkpt lat="40.609633" lon="-5.173633">
        <ele>2888.0</ele>
        <time>2018-07-14T13:27:37Z</time>
      </trkpt>
      <trkpt lat="40.609733" lon="-5.173567">
        <ele>2885.0</ele>
        <time>2018-07-14T13:27:38Z</time>
      </trkpt>
      <trkpt lat="40.609833" lon="-5.173500">
        <ele>2882.0</ele>
        <time>2018-07-14T13:27:39Z</time>
      </trkpt>
      <trkpt lat="40.609933" lon="-5.173417">
        <ele>2879.0</ele>
        <time>2018-07-14T13:27:40Z</time>
      </trkpt>
      <trkpt lat="40.610033" lon="-5.173333">
        <ele>2877.0</ele>
        <time>2018-07-14T13:27:41Z</time>
      </trkpt>
      <trkpt lat="40.610117" lon="-5.173267">
        <ele>2876.0</ele>
        <time>2018-07-14T13:27:42Z</time>
      </trkpt>
      <trkpt lat="40.610183" lon="-5.173200">
        <ele>2874.0</ele>
        <time>2018-07-14T13:27:43Z</time>
      </trkpt>
      <trkpt lat="40.610267" lon="-5.173117">
        <ele>2872.0</ele>
        <time>2018-07-14T13:27:44Z</time>
      </trkpt>
      <trkpt lat="40.610350" lon="-5.173050">
        <ele>2869.0</ele>
        <time>2018-07-14T13:27:45Z</time>
      </trkpt>
      <trkpt lat="40.610450" lon="-5.172967">
        <ele>2865.0</ele>
        <time>2018-07-14T13:27:46Z</time>
      </trkpt>
      <trkpt lat="40.610550" lon="-5.172900">
        <ele>2862.0</ele>
        <time>2018-07-14T13:27:47Z</time>
      </trkpt>
      <trkpt lat="40.610650" lon="-5.172833">
        <ele>2860.0</ele>
        <time>2018-07-14T13:27:48Z</time>
      </trkpt>
      <trkpt lat="40.610733" lon="-5.172783">
        <ele>2859.0</ele>
        <time>2018-07-14T13:27:49Z</time>
      </trkpt>
      <trkpt lat="40.610817" lon="-5.172750">
        <ele>2857.0</ele>
        <time>2018-07-14T13:27:50Z</time>
      </trkpt>
      <trkpt lat="40.610900" lon="-5.172683">
        <ele>2854.0</ele>
        <time>2018-07-14T13:27:51Z</time>
      </trkpt>
      <trkpt lat="40.611000" lon="-5.172633">
        <ele>2850.0</ele>
        <time>2018-07-14T13:27:52Z</time>
      </trkpt>
      <trkpt lat="40.611100" lon="-5.172567">
        <ele>2846.0</ele>
        <time>2018-07-14T13:27:53Z</time>
      </trkpt>
      <trkpt lat="40.611200" lon="-5.172483">
        <ele>2842.0</ele>
        <time>2018-07-14T13:27:54Z</time>
      </trkpt>
      <trkpt lat="40.611283" lon="-5.172417">
        <ele>2841.0</ele>
        <time>2018-07-14T13:27:55Z</time>
      </trkpt>
      <trkpt lat="40.611367" lon="-5.172350">
        <ele>2840.0</ele>
        <time>2018-07-14T13:27:56Z</time>
      </trkpt>
      <trkpt lat="40.611450" lon="-5.172283">
        <ele>2837.0</ele>
        <time>2018-07-14T13:27:57Z</time>
      </trkpt>
      <trkpt lat="40.611533" lon="-5.172200">
        <ele>2835.0</ele>
        <time>2018-07-14T13:27:58Z</time>
      </trkpt>
      <trkpt lat="40.611617" lon="-5.172133">
        <ele>2831.0</ele>
        <time>2018-07-14T13:27:59Z</time>
      </trkpt>
      <trkpt lat="40.611717" lon="-5.172050">
        <ele>2828.0</ele>
        <time>2018-07-14T13:28:00Z</time>
      </trkpt>
      <trkpt lat="40.611817" lon="-5.171967">
        <ele>2825.0</ele>
        <time>2018-07-14T13:28:01Z</time>
      </trkpt>
      <trkpt lat="40.611900" lon="-5.171867">
        <ele>2822.0</ele>
        <time>2018-07-14T13:28:02Z</time>
      </trkpt>
      <trkpt lat="40.611967" lon="-5.171783">
        <ele>2820.0</ele>
        <time>2018-07-14T13:28:03Z</time>
      </trkpt>
      <trkpt lat="40.612050" lon="-5.171700">
        <ele>2817.0</ele>
        <time>2018-07-14T13:28:04Z</time>
      </trkpt>
      <trkpt lat="40.612117" lon="-5.171617">
        <ele>2814.0</ele>
        <time>2018-07-14T13:28:05Z</time>
      </trkpt>
      <trkpt lat="40.612200" lon="-5.171533">
        <ele>2809.0</ele>
        <time>2018-07-14T13:28:06Z</time>
      </trkpt>
      <trkpt lat="40.612283" lon="-5.171433">
        <ele>2804.0</ele>
        <time>2018-07-14T13:28:07Z</time>
      </trkpt>
      <trkpt lat="40.612367" lon="-5.171350">
        <ele>2801.0</ele>
        <time>2018-07-14T13:28:08Z</time>
      </trkpt>
      <trkpt lat="40.612433" lon="-5.171283">
        <ele>2797.0</ele>
        <time>2018-07-14T13:28:09Z</time>
      </trkpt>
      <trkpt lat="40.612500" lon="-5.171217">
        <ele>2794.0</ele>
        <time>2018-07-14T13:28:10Z</time>
      </trkpt>
      <trkpt lat="40.612583" lon="-5.171150">
        <ele>2790.0</ele>
        <time>2018-07-14T13:28:11Z</time>
      </trkpt>
      <trkpt lat="40.612667" lon="-5.171067">
        <ele>2786.0</ele>
        <time>2018-07-14T13:28:12Z</time>
      </trkpt>
      <trkpt lat="40.612750" lon="-5.171000">
        <ele>2783.0</ele>
        <time>2018-07-14T13:28:13Z</time>
      </trkpt>
      <trkpt lat="40.612817" lon="-5.170933">
        <ele>2781.0</ele>
        <time>2018-07-14T13:28:14Z</time>
      </trkpt>
      <trkpt lat="40.612883" lon="-5.170883">
        <ele>2778.0</ele>
        <time>2018-07-14T13:28:15Z</time>
      </trkpt>
      <trkpt lat="40.612967" lon="-5.170817">
        <ele>2775.0</ele>
        <time>2018-07-14T13:28:16Z</time>
      </trkpt>
      <trkpt lat="40.613033" lon="-5.170750">
        <ele>2772.0</ele>
        <time>2018-07-14T13:28:17Z</time>
      </trkpt>
      <trkpt lat="40.613117" lon="-5.170667">
        <ele>2768.0</ele>
        <time>2018-07-14T13:28:18Z</time>
      </trkpt>
      <trkpt lat="40.613200" lon="-5.170567">
        <ele>2764.0</ele>
        <time>2018-07-14T13:28:19Z</time>
      </trkpt>
      <trkpt lat="40.613283" lon="-5.170500">
        <ele>2761.0</ele>
        <time>2018-07-14T13:28:20Z</time>
      </trkpt>
      <trkpt lat="40.613350" lon="-5.170433">
        <ele>2759.0</ele>
        <time>2018-07-14T13:28:21Z</time>
      </trkpt>
      <trkpt lat="40.613417" lon="-5.170350">
        <ele>2757.0</ele>
        <time>2018-07-14T13:28:22Z</time>
      </trkpt>
      <trkpt lat="40.613483" lon="-5.170283">
        <ele>2753.0</ele>
        <time>2018-07-14T13:28:23Z</time>
      </trkpt>
      <trkpt lat="40.613567" lon="-5.170183">
        <ele>2750.0</ele>
        <time>2018-07-14T13:28:24Z</time>
      </trkpt>
      <trkpt lat="40.613650" lon="-5.170100">
        <ele>2746.0</ele>
        <time>2018-07-14T13:28:25Z</time>
      </trkpt>
      <trkpt lat="40.613733" lon="-5.170000">
        <ele>2743.0</ele>
        <time>2018-07-14T13:28:26Z</time>
      </trkpt>
      <trkpt lat="40.613817" lon="-5.169917">
        <ele>2740.0</ele>
        <time>2018-07-14T13:28:27Z</time>
      </trkpt>
      <trkpt lat="40.613883" lon="-5.169833">
        <ele>2737.0</ele>
        <time>2018-07-14T13:28:28Z</time>
      </trkpt>
      <trkpt lat="40.613967" lon="-5.169750">
        <ele>2734.0</ele>
        <time>2018-07-14T13:28:29Z</time>
      </trkpt>
      <trkpt lat="40.614033" lon="-5.169650">
        <ele>2730.0</ele>
        <time>2018-07-14T13:28:30Z</time>
      </trkpt>
      <trkpt lat="40.614117" lon="-5.169567">
        <ele>2726.0</ele>
        <time>2018-07-14T13:28:31Z</time>
      </trkpt>
      <trkpt lat="40.614200" lon="-5.169467">
        <ele>2722.0</ele>
        <time>2018-07-14T13:28:32Z</time>
      </trkpt>
      <trkpt lat="40.614283" lon="-5.169400">
        <ele>2720.0</ele>
        <time>2018-07-14T13:28:33Z</time>
      </trkpt>
      <trkpt lat="40.614350" lon="-5.169333">
        <ele>2718.0</ele>
        <time>2018-07-14T13:28:34Z</time>
      </trkpt>
      <trkpt lat="40.614417" lon="-5.169250">
        <ele>2715.0</ele>
        <time>2018-07-14T13:28:35Z</time>
      </trkpt>
      <trkpt lat="40.614467" lon="-5.169183">
        <ele>2712.0</ele>
        <time>2018-07-14T13:28:36Z</time>
      </trkpt>
      <trkpt lat="40.614533" lon="-5.169100">
        <ele>2708.0</ele>
        <time>2018-07-14T13:28:37Z</time>
      </trkpt>
      <trkpt lat="40.614617" lon="-5.169017">
        <ele>2704.0</ele>
        <time>2018-07-14T13:28:38Z</time>
      </trkpt>
      <trkpt lat="40.614700" lon="-5.168933">
        <ele>2700.0</ele>
        <time>2018-07-14T13:28:39Z</time>
      </trkpt>
      <trkpt lat="40.614800" lon="-5.168850">
        <ele>2697.0</ele>
        <time>2018-07-14T13:28:40Z</time>
      </trkpt>
      <trkpt lat="40.614867" lon="-5.168783">
        <ele>2695.0</ele>
        <time>2018-07-14T13:28:41Z</time>
      </trkpt>
      <trkpt lat="40.614950" lon="-5.168717">
        <ele>2694.0</ele>
        <time>2018-07-14T13:28:42Z</time>
      </trkpt>
      <trkpt lat="40.615017" lon="-5.168633">
        <ele>2691.0</ele>
        <time>2018-07-14T13:28:43Z</time>
      </trkpt>
      <trkpt lat="40.615100" lon="-5.168550">
        <ele>2689.0</ele>
        <time>2018-07-14T13:28:44Z</time>
      </trkpt>
      <trkpt lat="40.615183" lon="-5.168467">
        <ele>2686.0</ele>
        <time>2018-07-14T13:28:45Z</time>
      </trkpt>
      <trkpt lat="40.615267" lon="-5.168367">
        <ele>2682.0</ele>
        <time>2018-07-14T13:28:46Z</time>
      </trkpt>
      <trkpt lat="40.615333" lon="-5.168283">
        <ele>2679.0</ele>
        <time>2018-07-14T13:28:47Z</time>
      </trkpt>
      <trkpt lat="40.615400" lon="-5.168200">
        <ele>2677.0</ele>
        <time>2018-07-14T13:28:48Z</time>
      </trkpt>
      <trkpt lat="40.615483" lon="-5.168133">
        <ele>2673.0</ele>
        <time>2018-07-14T13:28:49Z</time>
      </trkpt>
      <trkpt lat="40.615567" lon="-5.168050">
        <ele>2670.0</ele>
        <time>2018-07-14T13:28:50Z</time>
      </trkpt>
      <trkpt lat="40.615633" lon="-5.167967">
        <ele>2666.0</ele>
        <time>2018-07-14T13:28:51Z</time>
      </trkpt>
      <trkpt lat="40.615717" lon="-5.167883">
        <ele>2665.0</ele>
        <time>2018-07-14T13:28:52Z</time>
      </trkpt>
      <trkpt lat="40.615767" lon="-5.167800">
        <ele>2663.0</ele>
        <time>2018-07-14T13:28:53Z</time>
      </trkpt>
      <trkpt lat="40.615833" lon="-5.167700">
        <ele>2662.0</ele>
        <time>2018-07-14T13:28:54Z</time>
      </trkpt>
      <trkpt lat="40.615883" lon="-5.167583">
        <ele>2660.0</ele>
        <time>2018-07-14T13:28:55Z</time>
      </trkpt>
      <trkpt lat="40.615950" lon="-5.167483">
        <ele>2658.0</ele>
        <time>2018-07-14T13:28:56Z</time>
      </trkpt>
      <trkpt lat="40.616000" lon="-5.167400">
        <ele>2657.0</ele>
        <time>2018-07-14T13:28:57Z</time>
      </trkpt>
      <trkpt lat="40.616050" lon="-5.167317">
        <ele>2656.0</ele>
        <time>2018-07-14T13:28:58Z</time>
      </trkpt>
      <trkpt lat="40.616100" lon="-5.167233">
        <ele>2654.0</ele>
        <time>2018-07-14T13:28:59Z</time>
      </trkpt>
      <trkpt lat="40.616167" lon="-5.167133">
        <ele>2652.0</ele>
        <time>2018-07-14T13:29:00Z</time>
      </trkpt>
      <trkpt lat="40.616217" lon="-5.167017">
        <ele>2649.0</ele>
        <time>2018-07-14T13:29:01Z</time>
      </trkpt>
      <trkpt lat="40.616267" lon="-5.166900">
        <ele>2647.0</ele>
        <time>2018-07-14T13:29:02Z</time>
      </trkpt>
      <trkpt lat="40.616317" lon="-5.166783">
        <ele>2647.0</ele>
        <time>2018-07-14T13:29:03Z</time>
      </trkpt>
      <trkpt lat="40.616367" lon="-5.166683">
        <ele>2646.0</ele>
        <time>2018-07-14T13:29:04Z</time>
      </trkpt>
      <trkpt lat="40.616433" lon="-5.166583">
        <ele>2644.0</ele>
        <time>2018-07-14T13:29:05Z</time>
      </trkpt>
      <trkpt lat="40.616500" lon="-5.166500">
        <ele>2642.0</ele>
        <time>2018-07-14T13:29:06Z</time>
      </trkpt>
      <trkpt lat="40.616567" lon="-5.166400">
        <ele>2641.0</ele>
        <time>2018-07-14T13:29:07Z</time>
      </trkpt>
      <trkpt lat="40.616633" lon="-5.166283">
        <ele>2639.0</ele>
        <time>2018-07-14T13:29:08Z</time>
      </trkpt>
      <trkpt lat="40.616700" lon="-5.166183">
        <ele>2637.0</ele>
        <time>2018-07-14T13:29:09Z</time>
      </trkpt>
      <trkpt lat="40.616767" lon="-5.166083">
        <ele>2636.0</ele>
        <time>2018-07-14T13:29:10Z</time>
      </trkpt>
      <trkpt lat="40.616833" lon="-5.165983">
        <ele>2635.0</ele>
        <time>2018-07-14T13:29:11Z</time>
      </trkpt>
      <trkpt lat="40.616883" lon="-5.165900">
        <ele>2634.0</ele>
        <time>2018-07-14T13:29:12Z</time>
      </trkpt>
      <trkpt lat="40.616950" lon="-5.165783">
        <ele>2632.0</ele>
        <time>2018-07-14T13:29:13Z</time>
      </trkpt>
      <trkpt lat="40.617000" lon="-5.165683">
        <ele>2630.0</ele>
        <time>2018-07-14T13:29:14Z</time>
      </trkpt>
      <trkpt lat="40.617067" lon="-5.165600">
        <ele>2628.0</ele>
        <time>2018-07-14T13:29:15Z</time>
      </trkpt>
      <trkpt lat="40.617133" lon="-5.165517">
        <ele>2625.0</ele>
        <time>2018-07-14T13:29:16Z</time>
      </trkpt>
      <trkpt lat="40.617200" lon="-5.165417">
        <ele>2622.0</ele>
        <time>2018-07-14T13:29:17Z</time>
      </trkpt>
      <trkpt lat="40.617267" lon="-5.165317">
        <ele>2619.0</ele>
        <time>2018-07-14T13:29:18Z</time>
      </trkpt>
      <trkpt lat="40.617333" lon="-5.165217">
        <ele>2617.0</ele>
        <time>2018-07-14T13:29:19Z</time>
      </trkpt>
      <trkpt lat="40.617400" lon="-5.165117">
        <ele>2615.0</ele>
        <time>2018-07-14T13:29:20Z</time>
      </trkpt>
      <trkpt lat="40.617450" lon="-5.165033">
        <ele>2613.0</ele>
        <time>2018-07-14T13:29:21Z</time>
      </trkpt>
      <trkpt lat="40.617517" lon="-5.164950">
        <ele>2611.0</ele>
        <time>2018-07-14T13:29:22Z</time>
      </trkpt>
      <trkpt lat="40.617583" lon="-5.164883">
        <ele>2610.0</ele>
        <time>2018-07-14T13:29:23Z</time>
      </trkpt>
      <trkpt lat="40.617650" lon="-5.164800">
        <ele>2612.0</ele>
        <time>2018-07-14T13:29:24Z</time>
      </trkpt>
      <trkpt lat="40.617700" lon="-5.164733">
        <ele>2612.0</ele>
        <time>2018-07-14T13:29:25Z</time>
      </trkpt>
      <trkpt lat="40.617767" lon="-5.164633">
        <ele>2611.0</ele>
        <time>2018-07-14T13:29:26Z</time>
      </trkpt>
      <trkpt lat="40.617817" lon="-5.164533">
        <ele>2610.0</ele>
        <time>2018-07-14T13:29:27Z</time>
      </trkpt>
      <trkpt lat="40.617883" lon="-5.164417">
        <ele>2609.0</ele>
        <time>2018-07-14T13:29:28Z</time>
      </trkpt>
      <trkpt lat="40.617933" lon="-5.164317">
        <ele>2610.0</ele>
        <time>2018-07-14T13:29:29Z</time>
      </trkpt>
      <trkpt lat="40.618000" lon="-5.164233">
        <ele>2612.0</ele>
        <time>2018-07-14T13:29:30Z</time>
      </trkpt>
      <trkpt lat="40.618067" lon="-5.164150">
        <ele>2614.0</ele>
        <time>2018-07-14T13:29:31Z</time>
      </trkpt>
      <trkpt lat="40.618133" lon="-5.164083">
        <ele>2616.0</ele>
        <time>2018-07-14T13:29:32Z</time>
      </trkpt>
      <trkpt lat="40.618183" lon="-5.164000">
        <ele>2618.0</ele>
        <time>2018-07-14T13:29:33Z</time>
      </trkpt>
      <trkpt lat="40.618250" lon="-5.163917">
        <ele>2619.0</ele>
        <time>2018-07-14T13:29:34Z</time>
      </trkpt>
      <trkpt lat="40.618283" lon="-5.163817">
        <ele>2620.0</ele>
        <time>2018-07-14T13:29:35Z</time>
      </trkpt>
      <trkpt lat="40.618333" lon="-5.163700">
        <ele>2622.0</ele>
        <time>2018-07-14T13:29:36Z</time>
      </trkpt>
      <trkpt lat="40.618350" lon="-5.163583">
        <ele>2623.0</ele>
        <time>2018-07-14T13:29:37Z</time>
      </trkpt>
      <trkpt lat="40.618350" lon="-5.163450">
        <ele>2624.0</ele>
        <time>2018-07-14T13:29:38Z</time>
      </trkpt>
      <trkpt lat="40.618300" lon="-5.163350">
        <ele>2624.0</ele>
        <time>2018-07-14T13:29:39Z</time>
      </trkpt>
      <trkpt lat="40.618217" lon="-5.163267">
        <ele>2624.0</ele>
        <time>2018-07-14T13:29:40Z</time>
      </trkpt>
      <trkpt lat="40.618133" lon="-5.163200">
        <ele>2623.0</ele>
        <time>2018-07-14T13:29:41Z</time>
      </trkpt>
      <trkpt lat="40.618033" lon="-5.163150">
        <ele>2621.0</ele>
        <time>2018-07-14T13:29:42Z</time>
      </trkpt>
      <trkpt lat="40.617933" lon="-5.163117">
        <ele>2620.0</ele>
        <time>2018-07-14T13:29:43Z</time>
      </trkpt>
      <trkpt lat="40.617833" lon="-5.163083">
        <ele>2620.0</ele>
        <time>2018-07-14T13:29:44Z</time>
      </trkpt>
      <trkpt lat="40.617733" lon="-5.163083">
        <ele>2619.0</ele>
        <time>2018-07-14T13:29:45Z</time>
      </trkpt>
      <trkpt lat="40.617633" lon="-5.163100">
        <ele>2618.0</ele>
        <time>2018-07-14T13:29:46Z</time>
      </trkpt>
      <trkpt lat="40.617533" lon="-5.163133">
        <ele>2617.0</ele>
        <time>2018-07-14T13:29:47Z</time>
      </trkpt>
      <trkpt lat="40.617450" lon="-5.163200">
        <ele>2616.0</ele>
        <time>2018-07-14T13:29:48Z</time>
      </trkpt>
      <trkpt lat="40.617367" lon="-5.163300">
        <ele>2614.0</ele>
        <time>2018-07-14T13:29:49Z</time>
      </trkpt>
      <trkpt lat="40.617333" lon="-5.163400">
        <ele>2613.0</ele>
        <time>2018-07-14T13:29:50Z</time>
      </trkpt>
      <trkpt lat="40.617317" lon="-5.163500">
        <ele>2612.0</ele>
        <time>2018-07-14T13:29:51Z</time>
      </trkpt>
      <trkpt lat="40.617350" lon="-5.163583">
        <ele>2612.0</ele>
        <time>2018-07-14T13:29:52Z</time>
      </trkpt>
      <trkpt lat="40.617400" lon="-5.163650">
        <ele>2613.0</ele>
        <time>2018-07-14T13:29:53Z</time>
      </trkpt>
      <trkpt lat="40.617433" lon="-5.163717">
        <ele>2614.0</ele>
        <time>2018-07-14T13:29:54Z</time>
      </trkpt>
      <trkpt lat="40.617483" lon="-5.163767">
        <ele>2615.0</ele>
        <time>2018-07-14T13:29:55Z</time>
      </trkpt>
      <trkpt lat="40.617517" lon="-5.163833">
        <ele>2615.0</ele>
        <time>2018-07-14T13:29:56Z</time>
      </trkpt>
      <trkpt lat="40.617567" lon="-5.163900">
        <ele>2615.0</ele>
        <time>2018-07-14T13:29:57Z</time>
      </trkpt>
      <trkpt lat="40.617633" lon="-5.163950">
        <ele>2614.0</ele>
        <time>2018-07-14T13:29:58Z</time>
      </trkpt>
      <trkpt lat="40.617717" lon="-5.163967">
        <ele>2614.0</ele>
        <time>2018-07-14T13:29:59Z</time>
      </trkpt>
      <trkpt lat="40.617800" lon="-5.163967">
        <ele>2613.0</ele>
        <time>2018-07-14T13:30:00Z</time>
      </trkpt>
      <trkpt lat="40.617900" lon="-5.163967">
        <ele>2613.0</ele>
        <time>2018-07-14T13:30:01Z</time>
      </trkpt>
      <trkpt lat="40.617983" lon="-5.163967">
        <ele>2613.0</ele>
        <time>2018-07-14T13:30:02Z</time>
      </trkpt>
      <trkpt lat="40.618050" lon="-5.163967">
        <ele>2614.0</ele>
        <time>2018-07-14T13:30:03Z</time>
      </trkpt>
      <trkpt lat="40.618100" lon="-5.163967">
        <ele>2615.0</ele>
        <time>2018-07-14T13:30:04Z</time>
      </trkpt>
      <trkpt lat="40.618183" lon="-5.163967">
        <ele>2615.0</ele>
        <time>2018-07-14T13:30:05Z</time>
      </trkpt>
      <trkpt lat="40.618267" lon="-5.163950">
        <ele>2613.0</ele>
        <time>2018-07-14T13:30:06Z</time>
      </trkpt>
      <trkpt lat="40.618350" lon="-5.163933">
        <ele>2611.0</ele>
        <time>2018-07-14T13:30:07Z</time>
      </trkpt>
      <trkpt lat="40.618433" lon="-5.163900">
        <ele>2610.0</ele>
        <time>2018-07-14T13:30:08Z</time>
      </trkpt>
      <trkpt lat="40.618500" lon="-5.163883">
        <ele>2609.0</ele>
        <time>2018-07-14T13:30:09Z</time>
      </trkpt>
      <trkpt lat="40.618583" lon="-5.163867">
        <ele>2609.0</ele>
        <time>2018-07-14T13:30:10Z</time>
      </trkpt>
      <trkpt lat="40.618667" lon="-5.163850">
        <ele>2608.0</ele>
        <time>2018-07-14T13:30:11Z</time>
      </trkpt>
      <trkpt lat="40.618767" lon="-5.163817">
        <ele>2607.0</ele>
        <time>2018-07-14T13:30:12Z</time>
      </trkpt>
      <trkpt lat="40.618867" lon="-5.163800">
        <ele>2606.0</ele>
        <time>2018-07-14T13:30:13Z</time>
      </trkpt>
      <trkpt lat="40.618950" lon="-5.163783">
        <ele>2605.0</ele>
        <time>2018-07-14T13:30:14Z</time>
      </trkpt>
      <trkpt lat="40.619033" lon="-5.163767">
        <ele>2605.0</ele>
        <time>2018-07-14T13:30:15Z</time>
      </trkpt>
      <trkpt lat="40.619117" lon="-5.163717">
        <ele>2604.0</ele>
        <time>2018-07-14T13:30:16Z</time>
      </trkpt>
      <trkpt lat="40.619200" lon="-5.163667">
        <ele>2603.0</ele>
        <time>2018-07-14T13:30:17Z</time>
      </trkpt>
      <trkpt lat="40.619283" lon="-5.163600">
        <ele>2603.0</ele>
        <time>2018-07-14T13:30:18Z</time>
      </trkpt>
      <trkpt lat="40.619367" lon="-5.163550">
        <ele>2603.0</ele>
        <time>2018-07-14T13:30:19Z</time>
      </trkpt>
      <trkpt lat="40.619467" lon="-5.163500">
        <ele>2603.0</ele>
        <time>2018-07-14T13:30:20Z</time>
      </trkpt>
      <trkpt lat="40.619550" lon="-5.163433">
        <ele>2604.0</ele>
        <time>2018-07-14T13:30:21Z</time>
      </trkpt>
      <trkpt lat="40.619617" lon="-5.163367">
        <ele>2604.0</ele>
        <time>2018-07-14T13:30:22Z</time>
      </trkpt>
      <trkpt lat="40.619700" lon="-5.163283">
        <ele>2605.0</ele>
        <time>2018-07-14T13:30:23Z</time>
      </trkpt>
      <trkpt lat="40.619783" lon="-5.163200">
        <ele>2604.0</ele>
        <time>2018-07-14T13:30:24Z</time>
      </trkpt>
      <trkpt lat="40.619867" lon="-5.163117">
        <ele>2604.0</ele>
        <time>2018-07-14T13:30:25Z</time>
      </trkpt>
      <trkpt lat="40.619950" lon="-5.163033">
        <ele>2604.0</ele>
        <time>2018-07-14T13:30:26Z</time>
      </trkpt>
      <trkpt lat="40.620033" lon="-5.162983">
        <ele>2604.0</ele>
        <time>2018-07-14T13:30:27Z</time>
      </trkpt>
      <trkpt lat="40.620133" lon="-5.162900">
        <ele>2604.0</ele>
        <time>2018-07-14T13:30:28Z</time>
      </trkpt>
      <trkpt lat="40.620217" lon="-5.162817">
        <ele>2604.0</ele>
        <time>2018-07-14T13:30:29Z</time>
      </trkpt>
      <trkpt lat="40.620283" lon="-5.162733">
        <ele>2603.0</ele>
        <time>2018-07-14T13:30:30Z</time>
      </trkpt>
      <trkpt lat="40.620350" lon="-5.162667">
        <ele>2602.0</ele>
        <time>2018-07-14T13:30:31Z</time>
      </trkpt>
      <trkpt lat="40.620417" lon="-5.162600">
        <ele>2600.0</ele>
        <time>2018-07-14T13:30:32Z</time>
      </trkpt>
      <trkpt lat="40.620483" lon="-5.162517">
        <ele>2597.0</ele>
        <time>2018-07-14T13:30:33Z</time>
      </trkpt>
      <trkpt lat="40.620550" lon="-5.162433">
        <ele>2593.0</ele>
        <time>2018-07-14T13:30:34Z</time>
      </trkpt>
      <trkpt lat="40.620650" lon="-5.162333">
        <ele>2588.0</ele>
        <time>2018-07-14T13:30:35Z</time>
      </trkpt>
      <trkpt lat="40.620750" lon="-5.162250">
        <ele>2583.0</ele>
        <time>2018-07-14T13:30:36Z</time>
      </trkpt>
      <trkpt lat="40.620850" lon="-5.162183">
        <ele>2583.0</ele>
        <time>2018-07-14T13:30:37Z</time>
      </trkpt>
      <trkpt lat="40.620933" lon="-5.162117">
        <ele>2586.0</ele>
        <time>2018-07-14T13:30:38Z</time>
      </trkpt>
      <trkpt lat="40.621000" lon="-5.162050">
        <ele>2590.0</ele>
        <time>2018-07-14T13:30:39Z</time>
      </trkpt>
      <trkpt lat="40.621083" lon="-5.162000">
        <ele>2593.0</ele>
        <time>2018-07-14T13:30:40Z</time>
      </trkpt>
      <trkpt lat="40.621167" lon="-5.161950">
        <ele>2595.0</ele>
        <time>2018-07-14T13:30:41Z</time>
      </trkpt>
      <trkpt lat="40.621300" lon="-5.161767">
        <ele>2599.0</ele>
        <time>2018-07-14T13:30:43Z</time>
      </trkpt>
      <trkpt lat="40.621317" lon="-5.161650">
        <ele>2600.0</ele>
        <time>2018-07-14T13:30:44Z</time>
      </trkpt>
      <trkpt lat="40.621317" lon="-5.161533">
        <ele>2602.0</ele>
        <time>2018-07-14T13:30:45Z</time>
      </trkpt>
      <trkpt lat="40.621300" lon="-5.161433">
        <ele>2603.0</ele>
        <time>2018-07-14T13:30:46Z</time>
      </trkpt>
      <trkpt lat="40.621267" lon="-5.161350">
        <ele>2604.0</ele>
        <time>2018-07-14T13:30:47Z</time>
      </trkpt>
      <trkpt lat="40.621217" lon="-5.161300">
        <ele>2604.0</ele>
        <time>2018-07-14T13:30:48Z</time>
      </trkpt>
      <trkpt lat="40.621117" lon="-5.161283">
        <ele>2604.0</ele>
        <time>2018-07-14T13:30:49Z</time>
      </trkpt>
      <trkpt lat="40.621033" lon="-5.161300">
        <ele>2605.0</ele>
        <time>2018-07-14T13:30:50Z</time>
      </trkpt>
      <trkpt lat="40.620967" lon="-5.161367">
        <ele>2605.0</ele>
        <time>2018-07-14T13:30:51Z</time>
      </trkpt>
      <trkpt lat="40.620933" lon="-5.161467">
        <ele>2605.0</ele>
        <time>2018-07-14T13:30:52Z</time>
      </trkpt>
      <trkpt lat="40.620950" lon="-5.161567">
        <ele>2603.0</ele>
        <time>2018-07-14T13:30:53Z</time>
      </trkpt>
      <trkpt lat="40.620983" lon="-5.161683">
        <ele>2602.0</ele>
        <time>2018-07-14T13:30:54Z</time>
      </trkpt>
      <trkpt lat="40.621033" lon="-5.161783">
        <ele>2601.0</ele>
        <time>2018-07-14T13:30:55Z</time>
      </trkpt>
      <trkpt lat="40.621117" lon="-5.161867">
        <ele>2601.0</ele>
        <time>2018-07-14T13:30:56Z</time>
      </trkpt>
      <trkpt lat="40.621183" lon="-5.161917">
        <ele>2601.0</ele>
        <time>2018-07-14T13:30:57Z</time>
      </trkpt>
      <trkpt lat="40.621267" lon="-5.161933">
        <ele>2602.0</ele>
        <time>2018-07-14T13:30:58Z</time>
      </trkpt>
      <trkpt lat="40.621350" lon="-5.161950">
        <ele>2603.0</ele>
        <time>2018-07-14T13:30:59Z</time>
      </trkpt>
      <trkpt lat="40.621433" lon="-5.161967">
        <ele>2604.0</ele>
        <time>2018-07-14T13:31:00Z</time>
      </trkpt>
      <trkpt lat="40.621533" lon="-5.161967">
        <ele>2603.0</ele>
        <time>2018-07-14T13:31:01Z</time>
      </trkpt>
      <trkpt lat="40.621617" lon="-5.161967">
        <ele>2604.0</ele>
        <time>2018-07-14T13:31:02Z</time>
      </trkpt>
      <trkpt lat="40.621700" lon="-5.161933">
        <ele>2605.0</ele>
        <time>2018-07-14T13:31:03Z</time>
      </trkpt>
      <trkpt lat="40.621800" lon="-5.161900">
        <ele>2607.0</ele>
        <time>2018-07-14T13:31:04Z</time>
      </trkpt>
      <trkpt lat="40.621883" lon="-5.161850">
        <ele>2608.0</ele>
        <time>2018-07-14T13:31:05Z</time>
      </trkpt>
      <trkpt lat="40.622033" lon="-5.161667">
        <ele>2610.0</ele>
        <time>2018-07-14T13:31:07Z</time>
      </trkpt>
      <trkpt lat="40.622100" lon="-5.161400">
        <ele>2612.0</ele>
        <time>2018-07-14T13:31:09Z</time>
      </trkpt>
      <trkpt lat="40.622100" lon="-5.161267">
        <ele>2614.0</ele>
        <time>2018-07-14T13:31:10Z</time>
      </trkpt>
      <trkpt lat="40.622067" lon="-5.161150">
        <ele>2616.0</ele>
        <time>2018-07-14T13:31:11Z</time>
      </trkpt>
      <trkpt lat="40.622033" lon="-5.161050">
        <ele>2617.0</ele>
        <time>2018-07-14T13:31:12Z</time>
      </trkpt>
      <trkpt lat="40.621983" lon="-5.160967">
        <ele>2619.0</ele>
        <time>2018-07-14T13:31:13Z</time>
      </trkpt>
      <trkpt lat="40.621917" lon="-5.160883">
        <ele>2620.0</ele>
        <time>2018-07-14T13:31:14Z</time>
      </trkpt>
      <trkpt lat="40.621833" lon="-5.160833">
        <ele>2622.0</ele>
        <time>2018-07-14T13:31:15Z</time>
      </trkpt>
      <trkpt lat="40.621750" lon="-5.160783">
        <ele>2623.0</ele>
        <time>2018-07-14T13:31:16Z</time>
      </trkpt>
      <trkpt lat="40.621650" lon="-5.160800">
        <ele>2624.0</ele>
        <time>2018-07-14T13:31:17Z</time>
      </trkpt>
      <trkpt lat="40.621567" lon="-5.160833">
        <ele>2625.0</ele>
        <time>2018-07-14T13:31:18Z</time>
      </trkpt>
      <trkpt lat="40.621500" lon="-5.160900">
        <ele>2625.0</ele>
        <time>2018-07-14T13:31:19Z</time>
      </trkpt>
      <trkpt lat="40.621450" lon="-5.160983">
        <ele>2626.0</ele>
        <time>2018-07-14T13:31:20Z</time>
      </trkpt>
      <trkpt lat="40.621417" lon="-5.161083">
        <ele>2626.0</ele>
        <time>2018-07-14T13:31:21Z</time>
      </trkpt>
      <trkpt lat="40.621417" lon="-5.161183">
        <ele>2627.0</ele>
        <time>2018-07-14T13:31:22Z</time>
      </trkpt>
      <trkpt lat="40.621433" lon="-5.161283">
        <ele>2627.0</ele>
        <time>2018-07-14T13:31:23Z</time>
      </trkpt>
      <trkpt lat="40.621483" lon="-5.161367">
        <ele>2627.0</ele>
        <time>2018-07-14T13:31:24Z</time>
      </trkpt>
      <trkpt lat="40.621533" lon="-5.161450">
        <ele>2626.0</ele>
        <time>2018-07-14T13:31:25Z</time>
      </trkpt>
      <trkpt lat="40.621600" lon="-5.161550">
        <ele>2625.0</ele>
        <time>2018-07-14T13:31:26Z</time>
      </trkpt>
      <trkpt lat="40.621683" lon="-5.161617">
        <ele>2624.0</ele>
        <time>2018-07-14T13:31:27Z</time>
      </trkpt>
      <trkpt lat="40.621783" lon="-5.161633">
        <ele>2624.0</ele>
        <time>2018-07-14T13:31:28Z</time>
      </trkpt>
      <trkpt lat="40.621883" lon="-5.161617">
        <ele>2625.0</ele>
        <time>2018-07-14T13:31:29Z</time>
      </trkpt>
      <trkpt lat="40.621983" lon="-5.161583">
        <ele>2626.0</ele>
        <time>2018-07-14T13:31:30Z</time>
      </trkpt>
      <trkpt lat="40.622067" lon="-5.161583">
        <ele>2628.0</ele>
        <time>2018-07-14T13:31:31Z</time>
      </trkpt>
      <trkpt lat="40.622150" lon="-5.161600">
        <ele>2629.0</ele>
        <time>2018-07-14T13:31:32Z</time>
      </trkpt>
      <trkpt lat="40.622250" lon="-5.161600">
        <ele>2629.0</ele>
        <time>2018-07-14T13:31:33Z</time>
      </trkpt>
      <trkpt lat="40.622350" lon="-5.161583">
        <ele>2630.0</ele>
        <time>2018-07-14T13:31:34Z</time>
      </trkpt>
      <trkpt lat="40.622450" lon="-5.161550">
        <ele>2631.0</ele>
        <time>2018-07-14T13:31:35Z</time>
      </trkpt>
      <trkpt lat="40.622533" lon="-5.161483">
        <ele>2632.0</ele>
        <time>2018-07-14T13:31:36Z</time>
      </trkpt>
      <trkpt lat="40.622617" lon="-5.161417">
        <ele>2633.0</ele>
        <time>2018-07-14T13:31:37Z</time>
      </trkpt>
      <trkpt lat="40.622683" lon="-5.161350">
        <ele>2635.0</ele>
        <time>2018-07-14T13:31:38Z</time>
      </trkpt>
      <trkpt lat="40.622750" lon="-5.161283">
        <ele>2636.0</ele>
        <time>2018-07-14T13:31:39Z</time>
      </trkpt>
      <trkpt lat="40.622800" lon="-5.161183">
        <ele>2637.0</ele>
        <time>2018-07-14T13:31:40Z</time>
      </trkpt>
      <trkpt lat="40.622867" lon="-5.161083">
        <ele>2637.0</ele>
        <time>2018-07-14T13:31:41Z</time>
      </trkpt>
      <trkpt lat="40.622917" lon="-5.160967">
        <ele>2638.0</ele>
        <time>2018-07-14T13:31:42Z</time>
      </trkpt>
      <trkpt lat="40.622933" lon="-5.160850">
        <ele>2639.0</ele>
        <time>2018-07-14T13:31:43Z</time>
      </trkpt>
      <trkpt lat="40.622950" lon="-5.160717">
        <ele>2641.0</ele>
        <time>2018-07-14T13:31:44Z</time>
      </trkpt>
      <trkpt lat="40.622950" lon="-5.160617">
        <ele>2643.0</ele>
        <time>2018-07-14T13:31:45Z</time>
      </trkpt>
      <trkpt lat="40.622950" lon="-5.160517">
        <ele>2645.0</ele>
        <time>2018-07-14T13:31:46Z</time>
      </trkpt>
      <trkpt lat="40.622950" lon="-5.160400">
        <ele>2647.0</ele>
        <time>2018-07-14T13:31:47Z</time>
      </trkpt>
      <trkpt lat="40.622950" lon="-5.160283">
        <ele>2648.0</ele>
        <time>2018-07-14T13:31:48Z</time>
      </trkpt>
      <trkpt lat="40.622933" lon="-5.160167">
        <ele>2649.0</ele>
        <time>2018-07-14T13:31:49Z</time>
      </trkpt>
      <trkpt lat="40.622917" lon="-5.160067">
        <ele>2650.0</ele>
        <time>2018-07-14T13:31:50Z</time>
      </trkpt>
      <trkpt lat="40.622867" lon="-5.159983">
        <ele>2650.0</ele>
        <time>2018-07-14T13:31:51Z</time>
      </trkpt>
      <trkpt lat="40.622817" lon="-5.159917">
        <ele>2650.0</ele>
        <time>2018-07-14T13:31:52Z</time>
      </trkpt>
      <trkpt lat="40.622750" lon="-5.159883">
        <ele>2651.0</ele>
        <time>2018-07-14T13:31:53Z</time>
      </trkpt>
      <trkpt lat="40.622683" lon="-5.159850">
        <ele>2651.0</ele>
        <time>2018-07-14T13:31:54Z</time>
      </trkpt>
      <trkpt lat="40.622633" lon="-5.159850">
        <ele>2652.0</ele>
        <time>2018-07-14T13:31:55Z</time>
      </trkpt>
      <trkpt lat="40.622567" lon="-5.159850">
        <ele>2652.0</ele>
        <time>2018-07-14T13:31:56Z</time>
      </trkpt>
      <trkpt lat="40.622500" lon="-5.159883">
        <ele>2653.0</ele>
        <time>2018-07-14T13:31:57Z</time>
      </trkpt>
      <trkpt lat="40.622433" lon="-5.159933">
        <ele>2653.0</ele>
        <time>2018-07-14T13:31:58Z</time>
      </trkpt>
      <trkpt lat="40.622383" lon="-5.160000">
        <ele>2653.0</ele>
        <time>2018-07-14T13:31:59Z</time>
      </trkpt>
      <trkpt lat="40.622333" lon="-5.160083">
        <ele>2651.0</ele>
        <time>2018-07-14T13:32:00Z</time>
      </trkpt>
      <trkpt lat="40.622300" lon="-5.160183">
        <ele>2651.0</ele>
        <time>2018-07-14T13:32:01Z</time>
      </trkpt>
      <trkpt lat="40.622300" lon="-5.160300">
        <ele>2651.0</ele>
        <time>2018-07-14T13:32:02Z</time>
      </trkpt>
      <trkpt lat="40.622300" lon="-5.160417">
        <ele>2651.0</ele>
        <time>2018-07-14T13:32:03Z</time>
      </trkpt>
      <trkpt lat="40.622333" lon="-5.160533">
        <ele>2652.0</ele>
        <time>2018-07-14T13:32:04Z</time>
      </trkpt>
      <trkpt lat="40.622383" lon="-5.160633">
        <ele>2652.0</ele>
        <time>2018-07-14T13:32:05Z</time>
      </trkpt>
      <trkpt lat="40.622433" lon="-5.160717">
        <ele>2653.0</ele>
        <time>2018-07-14T13:32:06Z</time>
      </trkpt>
      <trkpt lat="40.622483" lon="-5.160750">
        <ele>2655.0</ele>
        <time>2018-07-14T13:32:07Z</time>
      </trkpt>
      <trkpt lat="40.622567" lon="-5.160783">
        <ele>2656.0</ele>
        <time>2018-07-14T13:32:08Z</time>
      </trkpt>
      <trkpt lat="40.622650" lon="-5.160783">
        <ele>2656.0</ele>
        <time>2018-07-14T13:32:09Z</time>
      </trkpt>
      <trkpt lat="40.622733" lon="-5.160800">
        <ele>2657.0</ele>
        <time>2018-07-14T13:32:10Z</time>
      </trkpt>
      <trkpt lat="40.622800" lon="-5.160800">
        <ele>2658.0</ele>
        <time>2018-07-14T13:32:11Z</time>
      </trkpt>
      <trkpt lat="40.622900" lon="-5.160800">
        <ele>2660.0</ele>
        <time>2018-07-14T13:32:12Z</time>
      </trkpt>
      <trkpt lat="40.622983" lon="-5.160783">
        <ele>2657.0</ele>
        <time>2018-07-14T13:32:13Z</time>
      </trkpt>
      <trkpt lat="40.623167" lon="-5.160733">
        <ele>2657.0</ele>
        <time>2018-07-14T13:32:15Z</time>
      </trkpt>
      <trkpt lat="40.623283" lon="-5.160667">
        <ele>2658.0</ele>
        <time>2018-07-14T13:32:16Z</time>
      </trkpt>
      <trkpt lat="40.623383" lon="-5.160583">
        <ele>2657.0</ele>
        <time>2018-07-14T13:32:17Z</time>
      </trkpt>
      <trkpt lat="40.623483" lon="-5.160517">
        <ele>2657.0</ele>
        <time>2018-07-14T13:32:18Z</time>
      </trkpt>
      <trkpt lat="40.623583" lon="-5.160467">
        <ele>2657.0</ele>
        <time>2018-07-14T13:32:19Z</time>
      </trkpt>
      <trkpt lat="40.623683" lon="-5.160417">
        <ele>2656.0</ele>
        <time>2018-07-14T13:32:20Z</time>
      </trkpt>
      <trkpt lat="40.623767" lon="-5.160350">
        <ele>2656.0</ele>
        <time>2018-07-14T13:32:21Z</time>
      </trkpt>
      <trkpt lat="40.623867" lon="-5.160300">
        <ele>2656.0</ele>
        <time>2018-07-14T13:32:22Z</time>
      </trkpt>
      <trkpt lat="40.623950" lon="-5.160233">
        <ele>2656.0</ele>
        <time>2018-07-14T13:32:23Z</time>
      </trkpt>
      <trkpt lat="40.624050" lon="-5.160167">
        <ele>2656.0</ele>
        <time>2018-07-14T13:32:24Z</time>
      </trkpt>
      <trkpt lat="40.624150" lon="-5.160133">
        <ele>2657.0</ele>
        <time>2018-07-14T13:32:25Z</time>
      </trkpt>
      <trkpt lat="40.624250" lon="-5.160100">
        <ele>2658.0</ele>
        <time>2018-07-14T13:32:26Z</time>
      </trkpt>
      <trkpt lat="40.624350" lon="-5.160067">
        <ele>2659.0</ele>
        <time>2018-07-14T13:32:27Z</time>
      </trkpt>
      <trkpt lat="40.624450" lon="-5.160033">
        <ele>2660.0</ele>
        <time>2018-07-14T13:32:28Z</time>
      </trkpt>
      <trkpt lat="40.624533" lon="-5.160000">
        <ele>2661.0</ele>
        <time>2018-07-14T13:32:29Z</time>
      </trkpt>
      <trkpt lat="40.624633" lon="-5.159983">
        <ele>2663.0</ele>
        <time>2018-07-14T13:32:30Z</time>
      </trkpt>
      <trkpt lat="40.624717" lon="-5.159950">
        <ele>2664.0</ele>
        <time>2018-07-14T13:32:31Z</time>
      </trkpt>
      <trkpt lat="40.624800" lon="-5.159933">
        <ele>2667.0</ele>
        <time>2018-07-14T13:32:32Z</time>
      </trkpt>
      <trkpt lat="40.624883" lon="-5.159900">
        <ele>2670.0</ele>
        <time>2018-07-14T13:32:33Z</time>
      </trkpt>
      <trkpt lat="40.624950" lon="-5.159883">
        <ele>2672.0</ele>
        <time>2018-07-14T13:32:34Z</time>
      </trkpt>
      <trkpt lat="40.625050" lon="-5.159850">
        <ele>2675.0</ele>
        <time>2018-07-14T13:32:35Z</time>
      </trkpt>
      <trkpt lat="40.625133" lon="-5.159817">
        <ele>2677.0</ele>
        <time>2018-07-14T13:32:36Z</time>
      </trkpt>
      <trkpt lat="40.625233" lon="-5.159783">
        <ele>2679.0</ele>
        <time>2018-07-14T13:32:37Z</time>
      </trkpt>
      <trkpt lat="40.625333" lon="-5.159717">
        <ele>2681.0</ele>
        <time>2018-07-14T13:32:38Z</time>
      </trkpt>
      <trkpt lat="40.625400" lon="-5.159650">
        <ele>2684.0</ele>
        <time>2018-07-14T13:32:39Z</time>
      </trkpt>
      <trkpt lat="40.625450" lon="-5.159567">
        <ele>2686.0</ele>
        <time>2018-07-14T13:32:40Z</time>
      </trkpt>
      <trkpt lat="40.625500" lon="-5.159500">
        <ele>2689.0</ele>
        <time>2018-07-14T13:32:41Z</time>
      </trkpt>
      <trkpt lat="40.625567" lon="-5.159450">
        <ele>2691.0</ele>
        <time>2018-07-14T13:32:42Z</time>
      </trkpt>
      <trkpt lat="40.625633" lon="-5.159417">
        <ele>2691.0</ele>
        <time>2018-07-14T13:32:43Z</time>
      </trkpt>
      <trkpt lat="40.625700" lon="-5.159367">
        <ele>2691.0</ele>
        <time>2018-07-14T13:32:44Z</time>
      </trkpt>
      <trkpt lat="40.625717" lon="-5.159317">
        <ele>2690.0</ele>
        <time>2018-07-14T13:32:45Z</time>
      </trkpt>
      <trkpt lat="40.625733" lon="-5.159250">
        <ele>2689.0</ele>
        <time>2018-07-14T13:32:46Z</time>
      </trkpt>
      <trkpt lat="40.625700" lon="-5.159183">
        <ele>2689.0</ele>
        <time>2018-07-14T13:32:47Z</time>
      </trkpt>
      <trkpt lat="40.625633" lon="-5.159167">
        <ele>2687.0</ele>
        <time>2018-07-14T13:32:48Z</time>
      </trkpt>
      <trkpt lat="40.625550" lon="-5.159200">
        <ele>2685.0</ele>
        <time>2018-07-14T13:32:49Z</time>
      </trkpt>
      <trkpt lat="40.625450" lon="-5.159250">
        <ele>2684.0</ele>
        <time>2018-07-14T13:32:50Z</time>
      </trkpt>
      <trkpt lat="40.625383" lon="-5.159300">
        <ele>2683.0</ele>
        <time>2018-07-14T13:32:51Z</time>
      </trkpt>
      <trkpt lat="40.625350" lon="-5.159367">
        <ele>2684.0</ele>
        <time>2018-07-14T13:32:52Z</time>
      </trkpt>
      <trkpt lat="40.625333" lon="-5.159450">
        <ele>2685.0</ele>
        <time>2018-07-14T13:32:53Z</time>
      </trkpt>
      <trkpt lat="40.625317" lon="-5.159550">
        <ele>2686.0</ele>
        <time>2018-07-14T13:32:54Z</time>
      </trkpt>
      <trkpt lat="40.625300" lon="-5.159683">
        <ele>2686.0</ele>
        <time>2018-07-14T13:32:55Z</time>
      </trkpt>
      <trkpt lat="40.625283" lon="-5.159833">
        <ele>2687.0</ele>
        <time>2018-07-14T13:32:56Z</time>
      </trkpt>
      <trkpt lat="40.625300" lon="-5.159967">
        <ele>2687.0</ele>
        <time>2018-07-14T13:32:57Z</time>
      </trkpt>
      <trkpt lat="40.625333" lon="-5.160100">
        <ele>2687.0</ele>
        <time>2018-07-14T13:32:58Z</time>
      </trkpt>
      <trkpt lat="40.625400" lon="-5.160183">
        <ele>2687.0</ele>
        <time>2018-07-14T13:32:59Z</time>
      </trkpt>
      <trkpt lat="40.625483" lon="-5.160217">
        <ele>2688.0</ele>
        <time>2018-07-14T13:33:00Z</time>
      </trkpt>
      <trkpt lat="40.625567" lon="-5.160217">
        <ele>2688.0</ele>
        <time>2018-07-14T13:33:01Z</time>
      </trkpt>
      <trkpt lat="40.625633" lon="-5.160183">
        <ele>2686.0</ele>
        <time>2018-07-14T13:33:02Z</time>
      </trkpt>
      <trkpt lat="40.625683" lon="-5.160117">
        <ele>2686.0</ele>
        <time>2018-07-14T13:33:03Z</time>
      </trkpt>
      <trkpt lat="40.625717" lon="-5.160033">
        <ele>2687.0</ele>
        <time>2018-07-14T13:33:04Z</time>
      </trkpt>
      <trkpt lat="40.625733" lon="-5.159950">
        <ele>2687.0</ele>
        <time>2018-07-14T13:33:05Z</time>
      </trkpt>
      <trkpt lat="40.625717" lon="-5.159850">
        <ele>2687.0</ele>
        <time>2018-07-14T13:33:06Z</time>
      </trkpt>
      <trkpt lat="40.625700" lon="-5.159750">
        <ele>2687.0</ele>
        <time>2018-07-14T13:33:07Z</time>
      </trkpt>
      <trkpt lat="40.625667" lon="-5.159633">
        <ele>2687.0</ele>
        <time>2018-07-14T13:33:08Z</time>
      </trkpt>
      <trkpt lat="40.625650" lon="-5.159500">
        <ele>2687.0</ele>
        <time>2018-07-14T13:33:09Z</time>
      </trkpt>
      <trkpt lat="40.625633" lon="-5.159417">
        <ele>2687.0</ele>
        <time>2018-07-14T13:33:10Z</time>
      </trkpt>
      <trkpt lat="40.625600" lon="-5.159350">
        <ele>2688.0</ele>
        <time>2018-07-14T13:33:11Z</time>
      </trkpt>
      <trkpt lat="40.625567" lon="-5.159350">
        <ele>2689.0</ele>
        <time>2018-07-14T13:33:12Z</time>
      </trkpt>
      <trkpt lat="40.625533" lon="-5.159350">
        <ele>2691.0</ele>
        <time>2018-07-14T13:33:13Z</time>
      </trkpt>
      <trkpt lat="40.625467" lon="-5.159350">
        <ele>2692.0</ele>
        <time>2018-07-14T13:33:14Z</time>
      </trkpt>
      <trkpt lat="40.625400" lon="-5.159367">
        <ele>2693.0</ele>
        <time>2018-07-14T13:33:15Z</time>
      </trkpt>
      <trkpt lat="40.625333" lon="-5.159417">
        <ele>2694.0</ele>
        <time>2018-07-14T13:33:16Z</time>
      </trkpt>
      <trkpt lat="40.625267" lon="-5.159517">
        <ele>2695.0</ele>
        <time>2018-07-14T13:33:17Z</time>
      </trkpt>
      <trkpt lat="40.625250" lon="-5.159633">
        <ele>2696.0</ele>
        <time>2018-07-14T13:33:18Z</time>
      </trkpt>
      <trkpt lat="40.625250" lon="-5.159783">
        <ele>2697.0</ele>
        <time>2018-07-14T13:33:19Z</time>
      </trkpt>
      <trkpt lat="40.625283" lon="-5.159917">
        <ele>2698.0</ele>
        <time>2018-07-14T13:33:20Z</time>
      </trkpt>
      <trkpt lat="40.625333" lon="-5.160033">
        <ele>2698.0</ele>
        <time>2018-07-14T13:33:21Z</time>
      </trkpt>
      <trkpt lat="40.625400" lon="-5.160150">
        <ele>2698.0</ele>
        <time>2018-07-14T13:33:22Z</time>
      </trkpt>
      <trkpt lat="40.625483" lon="-5.160250">
        <ele>2700.0</ele>
        <time>2018-07-14T13:33:23Z</time>
      </trkpt>
      <trkpt lat="40.625567" lon="-5.160317">
        <ele>2701.0</ele>
        <time>2018-07-14T13:33:24Z</time>
      </trkpt>
      <trkpt lat="40.625650" lon="-5.160333">
        <ele>2704.0</ele>
        <time>2018-07-14T13:33:25Z</time>
      </trkpt>
      <trkpt lat="40.625733" lon="-5.160317">
        <ele>2705.0</ele>
        <time>2018-07-14T13:33:26Z</time>
      </trkpt>
      <trkpt lat="40.625800" lon="-5.160267">
        <ele>2706.0</ele>
        <time>2018-07-14T13:33:27Z</time>
      </trkpt>
      <trkpt lat="40.625883" lon="-5.160083">
        <ele>2706.0</ele>
        <time>2018-07-14T13:33:29Z</time>
      </trkpt>
      <trkpt lat="40.625900" lon="-5.159867">
        <ele>2705.0</ele>
        <time>2018-07-14T13:33:31Z</time>
      </trkpt>
      <trkpt lat="40.625900" lon="-5.159750">
        <ele>2705.0</ele>
        <time>2018-07-14T13:33:32Z</time>
      </trkpt>
      <trkpt lat="40.625883" lon="-5.159667">
        <ele>2705.0</ele>
        <time>2018-07-14T13:33:33Z</time>
      </trkpt>
      <trkpt lat="40.625850" lon="-5.159600">
        <ele>2705.0</ele>
        <time>2018-07-14T13:33:34Z</time>
      </trkpt>
      <trkpt lat="40.625800" lon="-5.159583">
        <ele>2705.0</ele>
        <time>2018-07-14T13:33:35Z</time>
      </trkpt>
      <trkpt lat="40.625750" lon="-5.159583">
        <ele>2705.0</ele>
        <time>2018-07-14T13:33:36Z</time>
      </trkpt>
      <trkpt lat="40.625700" lon="-5.159617">
        <ele>2705.0</ele>
        <time>2018-07-14T13:33:37Z</time>
      </trkpt>
      <trkpt lat="40.625650" lon="-5.159650">
        <ele>2706.0</ele>
        <time>2018-07-14T13:33:38Z</time>
      </trkpt>
      <trkpt lat="40.625617" lon="-5.159733">
        <ele>2706.0</ele>
        <time>2018-07-14T13:33:39Z</time>
      </trkpt>
      <trkpt lat="40.625600" lon="-5.159850">
        <ele>2706.0</ele>
        <time>2018-07-14T13:33:40Z</time>
      </trkpt>
      <trkpt lat="40.625617" lon="-5.159983">
        <ele>2705.0</ele>
        <time>2018-07-14T13:33:41Z</time>
      </trkpt>
      <trkpt lat="40.625667" lon="-5.160117">
        <ele>2705.0</ele>
        <time>2018-07-14T13:33:42Z</time>
      </trkpt>
      <trkpt lat="40.625733" lon="-5.160233">
        <ele>2703.0</ele>
        <time>2018-07-14T13:33:43Z</time>
      </trkpt>
      <trkpt lat="40.625850" lon="-5.160317">
        <ele>2703.0</ele>
        <time>2018-07-14T13:33:44Z</time>
      </trkpt>
      <trkpt lat="40.625950" lon="-5.160333">
        <ele>2703.0</ele>
        <time>2018-07-14T13:33:45Z</time>
      </trkpt>
      <trkpt lat="40.626033" lon="-5.160317">
        <ele>2702.0</ele>
        <time>2018-07-14T13:33:46Z</time>
      </trkpt>
      <trkpt lat="40.626117" lon="-5.160283">
        <ele>2702.0</ele>
        <time>2018-07-14T13:33:47Z</time>
      </trkpt>
      <trkpt lat="40.626200" lon="-5.160250">
        <ele>2703.0</ele>
        <time>2018-07-14T13:33:48Z</time>
      </trkpt>
      <trkpt lat="40.626267" lon="-5.160183">
        <ele>2702.0</ele>
        <time>2018-07-14T13:33:49Z</time>
      </trkpt>
      <trkpt lat="40.626333" lon="-5.160100">
        <ele>2700.0</ele>
        <time>2018-07-14T13:33:50Z</time>
      </trkpt>
      <trkpt lat="40.626417" lon="-5.160017">
        <ele>2699.0</ele>
        <time>2018-07-14T13:33:51Z</time>
      </trkpt>
      <trkpt lat="40.626500" lon="-5.159950">
        <ele>2697.0</ele>
        <time>2018-07-14T13:33:52Z</time>
      </trkpt>
      <trkpt lat="40.626583" lon="-5.159867">
        <ele>2694.0</ele>
        <time>2018-07-14T13:33:53Z</time>
      </trkpt>
      <trkpt lat="40.626683" lon="-5.159800">
        <ele>2691.0</ele>
        <time>2018-07-14T13:33:54Z</time>
      </trkpt>
      <trkpt lat="40.626750" lon="-5.159733">
        <ele>2689.0</ele>
        <time>2018-07-14T13:33:55Z</time>
      </trkpt>
      <trkpt lat="40.626817" lon="-5.159683">
        <ele>2688.0</ele>
        <time>2018-07-14T13:33:56Z</time>
      </trkpt>
      <trkpt lat="40.626867" lon="-5.159617">
        <ele>2686.0</ele>
        <time>2018-07-14T13:33:57Z</time>
      </trkpt>
      <trkpt lat="40.626933" lon="-5.159550">
        <ele>2685.0</ele>
        <time>2018-07-14T13:33:58Z</time>
      </trkpt>
      <trkpt lat="40.627000" lon="-5.159467">
        <ele>2683.0</ele>
        <time>2018-07-14T13:33:59Z</time>
      </trkpt>
      <trkpt lat="40.627033" lon="-5.159383">
        <ele>2680.0</ele>
        <time>2018-07-14T13:34:00Z</time>
      </trkpt>
      <trkpt lat="40.627100" lon="-5.159300">
        <ele>2679.0</ele>
        <time>2018-07-14T13:34:01Z</time>
      </trkpt>
      <trkpt lat="40.627167" lon="-5.159250">
        <ele>2676.0</ele>
        <time>2018-07-14T13:34:02Z</time>
      </trkpt>
      <trkpt lat="40.627250" lon="-5.159200">
        <ele>2673.0</ele>
        <time>2018-07-14T13:34:03Z</time>
      </trkpt>
      <trkpt lat="40.627333" lon="-5.159133">
        <ele>2671.0</ele>
        <time>2018-07-14T13:34:04Z</time>
      </trkpt>
      <trkpt lat="40.627400" lon="-5.159050">
        <ele>2669.0</ele>
        <time>2018-07-14T13:34:05Z</time>
      </trkpt>
      <trkpt lat="40.627450" lon="-5.158983">
        <ele>2668.0</ele>
        <time>2018-07-14T13:34:06Z</time>
      </trkpt>
      <trkpt lat="40.627517" lon="-5.158950">
        <ele>2667.0</ele>
        <time>2018-07-14T13:34:07Z</time>
      </trkpt>
      <trkpt lat="40.627567" lon="-5.158933">
        <ele>2665.0</ele>
        <time>2018-07-14T13:34:08Z</time>
      </trkpt>
      <trkpt lat="40.627617" lon="-5.158883">
        <ele>2663.0</ele>
        <time>2018-07-14T13:34:09Z</time>
      </trkpt>
      <trkpt lat="40.627667" lon="-5.158817">
        <ele>2661.0</ele>
        <time>2018-07-14T13:34:10Z</time>
      </trkpt>
      <trkpt lat="40.627717" lon="-5.158683">
        <ele>2659.0</ele>
        <time>2018-07-14T13:34:11Z</time>
      </trkpt>
      <trkpt lat="40.627750" lon="-5.158517">
        <ele>2656.0</ele>
        <time>2018-07-14T13:34:12Z</time>
      </trkpt>
      <trkpt lat="40.627800" lon="-5.158400">
        <ele>2654.0</ele>
        <time>2018-07-14T13:34:13Z</time>
      </trkpt>
      <trkpt lat="40.627867" lon="-5.158317">
        <ele>2654.0</ele>
        <time>2018-07-14T13:34:14Z</time>
      </trkpt>
      <trkpt lat="40.627933" lon="-5.158250">
        <ele>2654.0</ele>
        <time>2018-07-14T13:34:15Z</time>
      </trkpt>
      <trkpt lat="40.627983" lon="-5.158183">
        <ele>2655.0</ele>
        <time>2018-07-14T13:34:16Z</time>
      </trkpt>
      <trkpt lat="40.628050" lon="-5.158117">
        <ele>2655.0</ele>
        <time>2018-07-14T13:34:17Z</time>
      </trkpt>
      <trkpt lat="40.628117" lon="-5.158033">
        <ele>2654.0</ele>
        <time>2018-07-14T13:34:18Z</time>
      </trkpt>
      <trkpt lat="40.628183" lon="-5.157950">
        <ele>2653.0</ele>
        <time>2018-07-14T13:34:19Z</time>
      </trkpt>
      <trkpt lat="40.628267" lon="-5.157867">
        <ele>2650.0</ele>
        <time>2018-07-14T13:34:20Z</time>
      </trkpt>
      <trkpt lat="40.628350" lon="-5.157783">
        <ele>2647.0</ele>
        <time>2018-07-14T13:34:21Z</time>
      </trkpt>
      <trkpt lat="40.628433" lon="-5.157717">
        <ele>2646.0</ele>
        <time>2018-07-14T13:34:22Z</time>
      </trkpt>
      <trkpt lat="40.628500" lon="-5.157617">
        <ele>2644.0</ele>
        <time>2018-07-14T13:34:23Z</time>
      </trkpt>
      <trkpt lat="40.628567" lon="-5.157517">
        <ele>2643.0</ele>
        <time>2018-07-14T13:34:24Z</time>
      </trkpt>
      <trkpt lat="40.628633" lon="-5.157433">
        <ele>2642.0</ele>
        <time>2018-07-14T13:34:25Z</time>
      </trkpt>
      <trkpt lat="40.628683" lon="-5.157350">
        <ele>2641.0</ele>
        <time>2018-07-14T13:34:26Z</time>
      </trkpt>
      <trkpt lat="40.628767" lon="-5.157283">
        <ele>2638.0</ele>
        <time>2018-07-14T13:34:27Z</time>
      </trkpt>
      <trkpt lat="40.628850" lon="-5.157183">
        <ele>2636.0</ele>
        <time>2018-07-14T13:34:28Z</time>
      </trkpt>
      <trkpt lat="40.628933" lon="-5.157100">
        <ele>2633.0</ele>
        <time>2018-07-14T13:34:29Z</time>
      </trkpt>
      <trkpt lat="40.629033" lon="-5.157017">
        <ele>2631.0</ele>
        <time>2018-07-14T13:34:30Z</time>
      </trkpt>
      <trkpt lat="40.629133" lon="-5.156967">
        <ele>2630.0</ele>
        <time>2018-07-14T13:34:31Z</time>
      </trkpt>
      <trkpt lat="40.629233" lon="-5.156917">
        <ele>2630.0</ele>
        <time>2018-07-14T13:34:32Z</time>
      </trkpt>
      <trkpt lat="40.629333" lon="-5.156867">
        <ele>2628.0</ele>
        <time>2018-07-14T13:34:33Z</time>
      </trkpt>
      <trkpt lat="40.629433" lon="-5.156817">
        <ele>2626.0</ele>
        <time>2018-07-14T13:34:34Z</time>
      </trkpt>
      <trkpt lat="40.629550" lon="-5.156783">
        <ele>2624.0</ele>
        <time>2018-07-14T13:34:35Z</time>
      </trkpt>
      <trkpt lat="40.629667" lon="-5.156733">
        <ele>2621.0</ele>
        <time>2018-07-14T13:34:36Z</time>
      </trkpt>
      <trkpt lat="40.629783" lon="-5.156667">
        <ele>2620.0</ele>
        <time>2018-07-14T13:34:37Z</time>
      </trkpt>
      <trkpt lat="40.629883" lon="-5.156583">
        <ele>2620.0</ele>
        <time>2018-07-14T13:34:38Z</time>
      </trkpt>
      <trkpt lat="40.629983" lon="-5.156483">
        <ele>2622.0</ele>
        <time>2018-07-14T13:34:39Z</time>
      </trkpt>
      <trkpt lat="40.630050" lon="-5.156383">
        <ele>2627.0</ele>
        <time>2018-07-14T13:34:40Z</time>
      </trkpt>
      <trkpt lat="40.630117" lon="-5.156300">
        <ele>2631.0</ele>
        <time>2018-07-14T13:34:41Z</time>
      </trkpt>
      <trkpt lat="40.630183" lon="-5.156200">
        <ele>2633.0</ele>
        <time>2018-07-14T13:34:42Z</time>
      </trkpt>
      <trkpt lat="40.630250" lon="-5.156100">
        <ele>2635.0</ele>
        <time>2018-07-14T13:34:43Z</time>
      </trkpt>
      <trkpt lat="40.630317" lon="-5.155967">
        <ele>2637.0</ele>
        <time>2018-07-14T13:34:44Z</time>
      </trkpt>
      <trkpt lat="40.630367" lon="-5.155850">
        <ele>2639.0</ele>
        <time>2018-07-14T13:34:45Z</time>
      </trkpt>
      <trkpt lat="40.630400" lon="-5.155700">
        <ele>2641.0</ele>
        <time>2018-07-14T13:34:46Z</time>
      </trkpt>
      <trkpt lat="40.630383" lon="-5.155567">
        <ele>2644.0</ele>
        <time>2018-07-14T13:34:47Z</time>
      </trkpt>
      <trkpt lat="40.630333" lon="-5.155450">
        <ele>2646.0</ele>
        <time>2018-07-14T13:34:48Z</time>
      </trkpt>
      <trkpt lat="40.630267" lon="-5.155367">
        <ele>2648.0</ele>
        <time>2018-07-14T13:34:49Z</time>
      </trkpt>
      <trkpt lat="40.630200" lon="-5.155317">
        <ele>2649.0</ele>
        <time>2018-07-14T13:34:50Z</time>
      </trkpt>
      <trkpt lat="40.630133" lon="-5.155317">
        <ele>2651.0</ele>
        <time>2018-07-14T13:34:51Z</time>
      </trkpt>
      <trkpt lat="40.630067" lon="-5.155350">
        <ele>2652.0</ele>
        <time>2018-07-14T13:34:52Z</time>
      </trkpt>
      <trkpt lat="40.630050" lon="-5.155400">
        <ele>2653.0</ele>
        <time>2018-07-14T13:34:53Z</time>
      </trkpt>
      <trkpt lat="40.630067" lon="-5.155467">
        <ele>2655.0</ele>
        <time>2018-07-14T13:34:54Z</time>
      </trkpt>
      <trkpt lat="40.630100" lon="-5.155517">
        <ele>2656.0</ele>
        <time>2018-07-14T13:34:55Z</time>
      </trkpt>
      <trkpt lat="40.630167" lon="-5.155550">
        <ele>2656.0</ele>
        <time>2018-07-14T13:34:56Z</time>
      </trkpt>
      <trkpt lat="40.630250" lon="-5.155600">
        <ele>2656.0</ele>
        <time>2018-07-14T13:34:57Z</time>
      </trkpt>
      <trkpt lat="40.630333" lon="-5.155600">
        <ele>2657.0</ele>
        <time>2018-07-14T13:34:58Z</time>
      </trkpt>
      <trkpt lat="40.630417" lon="-5.155567">
        <ele>2659.0</ele>
        <time>2018-07-14T13:34:59Z</time>
      </trkpt>
      <trkpt lat="40.630483" lon="-5.155467">
        <ele>2660.0</ele>
        <time>2018-07-14T13:35:00Z</time>
      </trkpt>
      <trkpt lat="40.630533" lon="-5.155333">
        <ele>2661.0</ele>
        <time>2018-07-14T13:35:01Z</time>
      </trkpt>
      <trkpt lat="40.630567" lon="-5.155200">
        <ele>2663.0</ele>
        <time>2018-07-14T13:35:02Z</time>
      </trkpt>
      <trkpt lat="40.630567" lon="-5.155050">
        <ele>2665.0</ele>
        <time>2018-07-14T13:35:03Z</time>
      </trkpt>
      <trkpt lat="40.630533" lon="-5.154933">
        <ele>2667.0</ele>
        <time>2018-07-14T13:35:04Z</time>
      </trkpt>
      <trkpt lat="40.630483" lon="-5.154833">
        <ele>2669.0</ele>
        <time>2018-07-14T13:35:05Z</time>
      </trkpt>
      <trkpt lat="40.630433" lon="-5.154733">
        <ele>2672.0</ele>
        <time>2018-07-14T13:35:06Z</time>
      </trkpt>
      <trkpt lat="40.630367" lon="-5.154667">
        <ele>2675.0</ele>
        <time>2018-07-14T13:35:07Z</time>
      </trkpt>
      <trkpt lat="40.630300" lon="-5.154650">
        <ele>2676.0</ele>
        <time>2018-07-14T13:35:08Z</time>
      </trkpt>
      <trkpt lat="40.630267" lon="-5.154667">
        <ele>2676.0</ele>
        <time>2018-07-14T13:35:09Z</time>
      </trkpt>
      <trkpt lat="40.630250" lon="-5.154717">
        <ele>2676.0</ele>
        <time>2018-07-14T13:35:10Z</time>
      </trkpt>
      <trkpt lat="40.630250" lon="-5.154783">
        <ele>2673.0</ele>
        <time>2018-07-14T13:35:11Z</time>
      </trkpt>
      <trkpt lat="40.630283" lon="-5.154833">
        <ele>2673.0</ele>
        <time>2018-07-14T13:35:12Z</time>
      </trkpt>
      <trkpt lat="40.630350" lon="-5.154883">
        <ele>2673.0</ele>
        <time>2018-07-14T13:35:13Z</time>
      </trkpt>
      <trkpt lat="40.630450" lon="-5.154883">
        <ele>2673.0</ele>
        <time>2018-07-14T13:35:14Z</time>
      </trkpt>
      <trkpt lat="40.630583" lon="-5.154900">
        <ele>2673.0</ele>
        <time>2018-07-14T13:35:15Z</time>
      </trkpt>
      <trkpt lat="40.630717" lon="-5.154900">
        <ele>2673.0</ele>
        <time>2018-07-14T13:35:16Z</time>
      </trkpt>
      <trkpt lat="40.630850" lon="-5.154900">
        <ele>2674.0</ele>
        <time>2018-07-14T13:35:17Z</time>
      </trkpt>
      <trkpt lat="40.630967" lon="-5.154867">
        <ele>2676.0</ele>
        <time>2018-07-14T13:35:18Z</time>
      </trkpt>
      <trkpt lat="40.631083" lon="-5.154800">
        <ele>2677.0</ele>
        <time>2018-07-14T13:35:19Z</time>
      </trkpt>
      <trkpt lat="40.631183" lon="-5.154717">
        <ele>2678.0</ele>
        <time>2018-07-14T13:35:20Z</time>
      </trkpt>
      <trkpt lat="40.631250" lon="-5.154650">
        <ele>2681.0</ele>
        <time>2018-07-14T13:35:21Z</time>
      </trkpt>
      <trkpt lat="40.631333" lon="-5.154600">
        <ele>2684.0</ele>
        <time>2018-07-14T13:35:22Z</time>
      </trkpt>
      <trkpt lat="40.631400" lon="-5.154533">
        <ele>2687.0</ele>
        <time>2018-07-14T13:35:23Z</time>
      </trkpt>
      <trkpt lat="40.631450" lon="-5.154450">
        <ele>2690.0</ele>
        <time>2018-07-14T13:35:24Z</time>
      </trkpt>
      <trkpt lat="40.631517" lon="-5.154333">
        <ele>2691.0</ele>
        <time>2018-07-14T13:35:25Z</time>
      </trkpt>
      <trkpt lat="40.631567" lon="-5.154217">
        <ele>2693.0</ele>
        <time>2018-07-14T13:35:26Z</time>
      </trkpt>
      <trkpt lat="40.631633" lon="-5.154117">
        <ele>2696.0</ele>
        <time>2018-07-14T13:35:27Z</time>
      </trkpt>
      <trkpt lat="40.631717" lon="-5.154017">
        <ele>2699.0</ele>
        <time>2018-07-14T13:35:28Z</time>
      </trkpt>
      <trkpt lat="40.631783" lon="-5.153900">
        <ele>2702.0</ele>
        <time>2018-07-14T13:35:29Z</time>
      </trkpt>
      <trkpt lat="40.631833" lon="-5.153800">
        <ele>2703.0</ele>
        <time>2018-07-14T13:35:30Z</time>
      </trkpt>
      <trkpt lat="40.631900" lon="-5.153683">
        <ele>2705.0</ele>
        <time>2018-07-14T13:35:31Z</time>
      </trkpt>
      <trkpt lat="40.631967" lon="-5.153567">
        <ele>2706.0</ele>
        <time>2018-07-14T13:35:32Z</time>
      </trkpt>
      <trkpt lat="40.632033" lon="-5.153433">
        <ele>2708.0</ele>
        <time>2018-07-14T13:35:33Z</time>
      </trkpt>
      <trkpt lat="40.632117" lon="-5.153317">
        <ele>2709.0</ele>
        <time>2018-07-14T13:35:34Z</time>
      </trkpt>
      <trkpt lat="40.632200" lon="-5.153200">
        <ele>2711.0</ele>
        <time>2018-07-14T13:35:35Z</time>
      </trkpt>
      <trkpt lat="40.632283" lon="-5.153100">
        <ele>2713.0</ele>
        <time>2018-07-14T13:35:36Z</time>
      </trkpt>
      <trkpt lat="40.632350" lon="-5.152983">
        <ele>2715.0</ele>
        <time>2018-07-14T13:35:37Z</time>
      </trkpt>
      <trkpt lat="40.632433" lon="-5.152883">
        <ele>2717.0</ele>
        <time>2018-07-14T13:35:38Z</time>
      </trkpt>
      <trkpt lat="40.632500" lon="-5.152783">
        <ele>2719.0</ele>
        <time>2018-07-14T13:35:39Z</time>
      </trkpt>
      <trkpt lat="40.632567" lon="-5.152683">
        <ele>2720.0</ele>
        <time>2018-07-14T13:35:40Z</time>
      </trkpt>
      <trkpt lat="40.632650" lon="-5.152583">
        <ele>2721.0</ele>
        <time>2018-07-14T13:35:41Z</time>
      </trkpt>
      <trkpt lat="40.632733" lon="-5.152450">
        <ele>2721.0</ele>
        <time>2018-07-14T13:35:42Z</time>
      </trkpt>
      <trkpt lat="40.632817" lon="-5.152317">
        <ele>2721.0</ele>
        <time>2018-07-14T13:35:43Z</time>
      </trkpt>
      <trkpt lat="40.632917" lon="-5.152200">
        <ele>2723.0</ele>
        <time>2018-07-14T13:35:44Z</time>
      </trkpt>
      <trkpt lat="40.633000" lon="-5.152083">
        <ele>2726.0</ele>
        <time>2018-07-14T13:35:45Z</time>
      </trkpt>
      <trkpt lat="40.633067" lon="-5.151983">
        <ele>2729.0</ele>
        <time>2018-07-14T13:35:46Z</time>
      </trkpt>
      <trkpt lat="40.633133" lon="-5.151883">
        <ele>2732.0</ele>
        <time>2018-07-14T13:35:47Z</time>
      </trkpt>
      <trkpt lat="40.633183" lon="-5.151783">
        <ele>2733.0</ele>
        <time>2018-07-14T13:35:48Z</time>
      </trkpt>
      <trkpt lat="40.633233" lon="-5.151683">
        <ele>2734.0</ele>
        <time>2018-07-14T13:35:49Z</time>
      </trkpt>
      <trkpt lat="40.633283" lon="-5.151583">
        <ele>2734.0</ele>
        <time>2018-07-14T13:35:50Z</time>
      </trkpt>
      <trkpt lat="40.633350" lon="-5.151467">
        <ele>2732.0</ele>
        <time>2018-07-14T13:35:51Z</time>
      </trkpt>
      <trkpt lat="40.633433" lon="-5.151333">
        <ele>2730.0</ele>
        <time>2018-07-14T13:35:52Z</time>
      </trkpt>
      <trkpt lat="40.633533" lon="-5.151200">
        <ele>2728.0</ele>
        <time>2018-07-14T13:35:53Z</time>
      </trkpt>
      <trkpt lat="40.633617" lon="-5.151067">
        <ele>2726.0</ele>
        <time>2018-07-14T13:35:54Z</time>
      </trkpt>
      <trkpt lat="40.633700" lon="-5.150950">
        <ele>2726.0</ele>
        <time>2018-07-14T13:35:55Z</time>
      </trkpt>
      <trkpt lat="40.633767" lon="-5.150850">
        <ele>2726.0</ele>
        <time>2018-07-14T13:35:56Z</time>
      </trkpt>
      <trkpt lat="40.633833" lon="-5.150733">
        <ele>2727.0</ele>
        <time>2018-07-14T13:35:57Z</time>
      </trkpt>
      <trkpt lat="40.633917" lon="-5.150617">
        <ele>2726.0</ele>
        <time>2018-07-14T13:35:58Z</time>
      </trkpt>
      <trkpt lat="40.633983" lon="-5.150500">
        <ele>2724.0</ele>
        <time>2018-07-14T13:35:59Z</time>
      </trkpt>
      <trkpt lat="40.634067" lon="-5.150383">
        <ele>2722.0</ele>
        <time>2018-07-14T13:36:00Z</time>
      </trkpt>
      <trkpt lat="40.634167" lon="-5.150250">
        <ele>2720.0</ele>
        <time>2018-07-14T13:36:01Z</time>
      </trkpt>
      <trkpt lat="40.634250" lon="-5.150100">
        <ele>2719.0</ele>
        <time>2018-07-14T13:36:02Z</time>
      </trkpt>
      <trkpt lat="40.634333" lon="-5.149950">
        <ele>2719.0</ele>
        <time>2018-07-14T13:36:03Z</time>
      </trkpt>
      <trkpt lat="40.634383" lon="-5.149800">
        <ele>2720.0</ele>
        <time>2018-07-14T13:36:04Z</time>
      </trkpt>
      <trkpt lat="40.634450" lon="-5.149650">
        <ele>2722.0</ele>
        <time>2018-07-14T13:36:05Z</time>
      </trkpt>
      <trkpt lat="40.634517" lon="-5.149517">
        <ele>2724.0</ele>
        <time>2018-07-14T13:36:06Z</time>
      </trkpt>
      <trkpt lat="40.634583" lon="-5.149400">
        <ele>2726.0</ele>
        <time>2018-07-14T13:36:07Z</time>
      </trkpt>
      <trkpt lat="40.634650" lon="-5.149283">
        <ele>2727.0</ele>
        <time>2018-07-14T13:36:08Z</time>
      </trkpt>
      <trkpt lat="40.634717" lon="-5.149150">
        <ele>2728.0</ele>
        <time>2018-07-14T13:36:09Z</time>
      </trkpt>
      <trkpt lat="40.634783" lon="-5.149017">
        <ele>2728.0</ele>
        <time>2018-07-14T13:36:10Z</time>
      </trkpt>
      <trkpt lat="40.634867" lon="-5.148883">
        <ele>2729.0</ele>
        <time>2018-07-14T13:36:11Z</time>
      </trkpt>
      <trkpt lat="40.634933" lon="-5.148767">
        <ele>2730.0</ele>
        <time>2018-07-14T13:36:12Z</time>
      </trkpt>
      <trkpt lat="40.635017" lon="-5.148650">
        <ele>2731.0</ele>
        <time>2018-07-14T13:36:13Z</time>
      </trkpt>
      <trkpt lat="40.635100" lon="-5.148533">
        <ele>2733.0</ele>
        <time>2018-07-14T13:36:14Z</time>
      </trkpt>
      <trkpt lat="40.635200" lon="-5.148417">
        <ele>2736.0</ele>
        <time>2018-07-14T13:36:15Z</time>
      </trkpt>
      <trkpt lat="40.635283" lon="-5.148300">
        <ele>2738.0</ele>
        <time>2018-07-14T13:36:16Z</time>
      </trkpt>
      <trkpt lat="40.635383" lon="-5.148183">
        <ele>2740.0</ele>
        <time>2018-07-14T13:36:17Z</time>
      </trkpt>
      <trkpt lat="40.635450" lon="-5.148067">
        <ele>2743.0</ele>
        <time>2018-07-14T13:36:18Z</time>
      </trkpt>
      <trkpt lat="40.635533" lon="-5.147933">
        <ele>2744.0</ele>
        <time>2018-07-14T13:36:19Z</time>
      </trkpt>
      <trkpt lat="40.635600" lon="-5.147800">
        <ele>2745.0</ele>
        <time>2018-07-14T13:36:20Z</time>
      </trkpt>
      <trkpt lat="40.635700" lon="-5.147650">
        <ele>2745.0</ele>
        <time>2018-07-14T13:36:21Z</time>
      </trkpt>
      <trkpt lat="40.635783" lon="-5.147500">
        <ele>2744.0</ele>
        <time>2018-07-14T13:36:22Z</time>
      </trkpt>
      <trkpt lat="40.635883" lon="-5.147367">
        <ele>2744.0</ele>
        <time>2018-07-14T13:36:23Z</time>
      </trkpt>
      <trkpt lat="40.635967" lon="-5.147250">
        <ele>2744.0</ele>
        <time>2018-07-14T13:36:24Z</time>
      </trkpt>
      <trkpt lat="40.636067" lon="-5.147117">
        <ele>2745.0</ele>
        <time>2018-07-14T13:36:25Z</time>
      </trkpt>
      <trkpt lat="40.636150" lon="-5.146983">
        <ele>2745.0</ele>
        <time>2018-07-14T13:36:26Z</time>
      </trkpt>
      <trkpt lat="40.636250" lon="-5.146833">
        <ele>2744.0</ele>
        <time>2018-07-14T13:36:27Z</time>
      </trkpt>
      <trkpt lat="40.636350" lon="-5.146700">
        <ele>2744.0</ele>
        <time>2018-07-14T13:36:28Z</time>
      </trkpt>
      <trkpt lat="40.636450" lon="-5.146583">
        <ele>2745.0</ele>
        <time>2018-07-14T13:36:29Z</time>
      </trkpt>
      <trkpt lat="40.636533" lon="-5.146450">
        <ele>2747.0</ele>
        <time>2018-07-14T13:36:30Z</time>
      </trkpt>
      <trkpt lat="40.636633" lon="-5.146333">
        <ele>2749.0</ele>
        <time>2018-07-14T13:36:31Z</time>
      </trkpt>
      <trkpt lat="40.636733" lon="-5.146217">
        <ele>2751.0</ele>
        <time>2018-07-14T13:36:32Z</time>
      </trkpt>
      <trkpt lat="40.636833" lon="-5.146100">
        <ele>2751.0</ele>
        <time>2018-07-14T13:36:33Z</time>
      </trkpt>
      <trkpt lat="40.636967" lon="-5.145950">
        <ele>2753.0</ele>
        <time>2018-07-14T13:36:34Z</time>
      </trkpt>
      <trkpt lat="40.637083" lon="-5.145833">
        <ele>2755.0</ele>
        <time>2018-07-14T13:36:35Z</time>
      </trkpt>
      <trkpt lat="40.637200" lon="-5.145700">
        <ele>2759.0</ele>
        <time>2018-07-14T13:36:36Z</time>
      </trkpt>
      <trkpt lat="40.637300" lon="-5.145583">
        <ele>2764.0</ele>
        <time>2018-07-14T13:36:37Z</time>
      </trkpt>
      <trkpt lat="40.637400" lon="-5.145467">
        <ele>2768.0</ele>
        <time>2018-07-14T13:36:38Z</time>
      </trkpt>
      <trkpt lat="40.637483" lon="-5.145350">
        <ele>2771.0</ele>
        <time>2018-07-14T13:36:39Z</time>
      </trkpt>
      <trkpt lat="40.637600" lon="-5.145217">
        <ele>2775.0</ele>
        <time>2018-07-14T13:36:40Z</time>
      </trkpt>
      <trkpt lat="40.637700" lon="-5.145067">
        <ele>2778.0</ele>
        <time>2018-07-14T13:36:41Z</time>
      </trkpt>
      <trkpt lat="40.637800" lon="-5.144917">
        <ele>2781.0</ele>
        <time>2018-07-14T13:36:42Z</time>
      </trkpt>
      <trkpt lat="40.637833" lon="-5.144750">
        <ele>2784.0</ele>
        <time>2018-07-14T13:36:43Z</time>
      </trkpt>
      <trkpt lat="40.637850" lon="-5.144583">
        <ele>2788.0</ele>
        <time>2018-07-14T13:36:44Z</time>
      </trkpt>
      <trkpt lat="40.637833" lon="-5.144467">
        <ele>2791.0</ele>
        <time>2018-07-14T13:36:45Z</time>
      </trkpt>
      <trkpt lat="40.637800" lon="-5.144383">
        <ele>2795.0</ele>
        <time>2018-07-14T13:36:46Z</time>
      </trkpt>
      <trkpt lat="40.637767" lon="-5.144333">
        <ele>2798.0</ele>
        <time>2018-07-14T13:36:47Z</time>
      </trkpt>
      <trkpt lat="40.637717" lon="-5.144317">
        <ele>2800.0</ele>
        <time>2018-07-14T13:36:48Z</time>
      </trkpt>
      <trkpt lat="40.637700" lon="-5.144350">
        <ele>2802.0</ele>
        <time>2018-07-14T13:36:49Z</time>
      </trkpt>
      <trkpt lat="40.637683" lon="-5.144417">
        <ele>2803.0</ele>
        <time>2018-07-14T13:36:50Z</time>
      </trkpt>
      <trkpt lat="40.637700" lon="-5.144483">
        <ele>2806.0</ele>
        <time>2018-07-14T13:36:51Z</time>
      </trkpt>
      <trkpt lat="40.637750" lon="-5.144550">
        <ele>2810.0</ele>
        <time>2018-07-14T13:36:52Z</time>
      </trkpt>
      <trkpt lat="40.637833" lon="-5.144600">
        <ele>2815.0</ele>
        <time>2018-07-14T13:36:53Z</time>
      </trkpt>
      <trkpt lat="40.637933" lon="-5.144600">
        <ele>2819.0</ele>
        <time>2018-07-14T13:36:54Z</time>
      </trkpt>
      <trkpt lat="40.638050" lon="-5.144583">
        <ele>2823.0</ele>
        <time>2018-07-14T13:36:55Z</time>
      </trkpt>
      <trkpt lat="40.638167" lon="-5.144533">
        <ele>2826.0</ele>
        <time>2018-07-14T13:36:56Z</time>
      </trkpt>
      <trkpt lat="40.638300" lon="-5.144450">
        <ele>2830.0</ele>
        <time>2018-07-14T13:36:57Z</time>
      </trkpt>
      <trkpt lat="40.638417" lon="-5.144333">
        <ele>2834.0</ele>
        <time>2018-07-14T13:36:58Z</time>
      </trkpt>
      <trkpt lat="40.638517" lon="-5.144183">
        <ele>2838.0</ele>
        <time>2018-07-14T13:36:59Z</time>
      </trkpt>
      <trkpt lat="40.638583" lon="-5.144000">
        <ele>2841.0</ele>
        <time>2018-07-14T13:37:00Z</time>
      </trkpt>
      <trkpt lat="40.638617" lon="-5.143817">
        <ele>2845.0</ele>
        <time>2018-07-14T13:37:01Z</time>
      </trkpt>
      <trkpt lat="40.638617" lon="-5.143683">
        <ele>2848.0</ele>
        <time>2018-07-14T13:37:02Z</time>
      </trkpt>
      <trkpt lat="40.638567" lon="-5.143583">
        <ele>2851.0</ele>
        <time>2018-07-14T13:37:03Z</time>
      </trkpt>
      <trkpt lat="40.638517" lon="-5.143533">
        <ele>2854.0</ele>
        <time>2018-07-14T13:37:04Z</time>
      </trkpt>
      <trkpt lat="40.638483" lon="-5.143517">
        <ele>2857.0</ele>
        <time>2018-07-14T13:37:05Z</time>
      </trkpt>
      <trkpt lat="40.638467" lon="-5.143533">
        <ele>2861.0</ele>
        <time>2018-07-14T13:37:06Z</time>
      </trkpt>
      <trkpt lat="40.638467" lon="-5.143583">
        <ele>2864.0</ele>
        <time>2018-07-14T13:37:07Z</time>
      </trkpt>
      <trkpt lat="40.638500" lon="-5.143650">
        <ele>2867.0</ele>
        <time>2018-07-14T13:37:08Z</time>
      </trkpt>
      <trkpt lat="40.638550" lon="-5.143717">
        <ele>2870.0</ele>
        <time>2018-07-14T13:37:09Z</time>
      </trkpt>
      <trkpt lat="40.638650" lon="-5.143767">
        <ele>2873.0</ele>
        <time>2018-07-14T13:37:10Z</time>
      </trkpt>
      <trkpt lat="40.638767" lon="-5.143783">
        <ele>2876.0</ele>
        <time>2018-07-14T13:37:11Z</time>
      </trkpt>
      <trkpt lat="40.638900" lon="-5.143767">
        <ele>2879.0</ele>
        <time>2018-07-14T13:37:12Z</time>
      </trkpt>
      <trkpt lat="40.639033" lon="-5.143717">
        <ele>2882.0</ele>
        <time>2018-07-14T13:37:13Z</time>
      </trkpt>
      <trkpt lat="40.639167" lon="-5.143600">
        <ele>2885.0</ele>
        <time>2018-07-14T13:37:14Z</time>
      </trkpt>
      <trkpt lat="40.639283" lon="-5.143467">
        <ele>2890.0</ele>
        <time>2018-07-14T13:37:15Z</time>
      </trkpt>
      <trkpt lat="40.639367" lon="-5.143317">
        <ele>2894.0</ele>
        <time>2018-07-14T13:37:16Z</time>
      </trkpt>
      <trkpt lat="40.639417" lon="-5.143167">
        <ele>2897.0</ele>
        <time>2018-07-14T13:37:17Z</time>
      </trkpt>
      <trkpt lat="40.639450" lon="-5.143017">
        <ele>2902.0</ele>
        <time>2018-07-14T13:37:18Z</time>
      </trkpt>
      <trkpt lat="40.639467" lon="-5.142883">
        <ele>2906.0</ele>
        <time>2018-07-14T13:37:19Z</time>
      </trkpt>
      <trkpt lat="40.639467" lon="-5.142750">
        <ele>2910.0</ele>
        <time>2018-07-14T13:37:20Z</time>
      </trkpt>
      <trkpt lat="40.639450" lon="-5.142650">
        <ele>2914.0</ele>
        <time>2018-07-14T13:37:21Z</time>
      </trkpt>
      <trkpt lat="40.639400" lon="-5.142583">
        <ele>2917.0</ele>
        <time>2018-07-14T13:37:22Z</time>
      </trkpt>
      <trkpt lat="40.639350" lon="-5.142550">
        <ele>2921.0</ele>
        <time>2018-07-14T13:37:23Z</time>
      </trkpt>
      <trkpt lat="40.639300" lon="-5.142583">
        <ele>2925.0</ele>
        <time>2018-07-14T13:37:24Z</time>
      </trkpt>
      <trkpt lat="40.639283" lon="-5.142633">
        <ele>2929.0</ele>
        <time>2018-07-14T13:37:25Z</time>
      </trkpt>
      <trkpt lat="40.639317" lon="-5.142700">
        <ele>2933.0</ele>
        <time>2018-07-14T13:37:26Z</time>
      </trkpt>
      <trkpt lat="40.639367" lon="-5.142767">
        <ele>2937.0</ele>
        <time>2018-07-14T13:37:27Z</time>
      </trkpt>
      <trkpt lat="40.639450" lon="-5.142817">
        <ele>2942.0</ele>
        <time>2018-07-14T13:37:28Z</time>
      </trkpt>
      <trkpt lat="40.639550" lon="-5.142850">
        <ele>2946.0</ele>
        <time>2018-07-14T13:37:29Z</time>
      </trkpt>
      <trkpt lat="40.639667" lon="-5.142867">
        <ele>2951.0</ele>
        <time>2018-07-14T13:37:30Z</time>
      </trkpt>
      <trkpt lat="40.639800" lon="-5.142850">
        <ele>2955.0</ele>
        <time>2018-07-14T13:37:31Z</time>
      </trkpt>
      <trkpt lat="40.639917" lon="-5.142817">
        <ele>2958.0</ele>
        <time>2018-07-14T13:37:32Z</time>
      </trkpt>
      <trkpt lat="40.640050" lon="-5.142750">
        <ele>2961.0</ele>
        <time>2018-07-14T13:37:33Z</time>
      </trkpt>
      <trkpt lat="40.640183" lon="-5.142667">
        <ele>2964.0</ele>
        <time>2018-07-14T13:37:34Z</time>
      </trkpt>
      <trkpt lat="40.640350" lon="-5.142417">
        <ele>2971.0</ele>
        <time>2018-07-14T13:37:36Z</time>
      </trkpt>
      <trkpt lat="40.640383" lon="-5.142267">
        <ele>2974.0</ele>
        <time>2018-07-14T13:37:37Z</time>
      </trkpt>
      <trkpt lat="40.640383" lon="-5.142117">
        <ele>2977.0</ele>
        <time>2018-07-14T13:37:38Z</time>
      </trkpt>
      <trkpt lat="40.640350" lon="-5.142000">
        <ele>2980.0</ele>
        <time>2018-07-14T13:37:39Z</time>
      </trkpt>
      <trkpt lat="40.640300" lon="-5.141917">
        <ele>2983.0</ele>
        <time>2018-07-14T13:37:40Z</time>
      </trkpt>
      <trkpt lat="40.640250" lon="-5.141883">
        <ele>2987.0</ele>
        <time>2018-07-14T13:37:41Z</time>
      </trkpt>
      <trkpt lat="40.640200" lon="-5.141883">
        <ele>2991.0</ele>
        <time>2018-07-14T13:37:42Z</time>
      </trkpt>
      <trkpt lat="40.640183" lon="-5.141933">
        <ele>2996.0</ele>
        <time>2018-07-14T13:37:43Z</time>
      </trkpt>
      <trkpt lat="40.640200" lon="-5.141950">
        <ele>3001.0</ele>
        <time>2018-07-14T13:37:44Z</time>
      </trkpt>
      <trkpt lat="40.640233" lon="-5.142033">
        <ele>2993.0</ele>
        <time>2018-07-14T13:37:45Z</time>
      </trkpt>
      <trkpt lat="40.640267" lon="-5.142100">
        <ele>2994.0</ele>
        <time>2018-07-14T13:37:46Z</time>
      </trkpt>
      <trkpt lat="40.640333" lon="-5.142167">
        <ele>2996.0</ele>
        <time>2018-07-14T13:37:47Z</time>
      </trkpt>
      <trkpt lat="40.640417" lon="-5.142250">
        <ele>2999.0</ele>
        <time>2018-07-14T13:37:48Z</time>
      </trkpt>
      <trkpt lat="40.640517" lon="-5.142317">
        <ele>3004.0</ele>
        <time>2018-07-14T13:37:49Z</time>
      </trkpt>
      <trkpt lat="40.640633" lon="-5.142350">
        <ele>3010.0</ele>
        <time>2018-07-14T13:37:50Z</time>
      </trkpt>
      <trkpt lat="40.640767" lon="-5.142350">
        <ele>3013.0</ele>
        <time>2018-07-14T13:37:51Z</time>
      </trkpt>
      <trkpt lat="40.640900" lon="-5.142300">
        <ele>3016.0</ele>
        <time>2018-07-14T13:37:52Z</time>
      </trkpt>
      <trkpt lat="40.641067" lon="-5.142050">
        <ele>3023.0</ele>
        <time>2018-07-14T13:37:54Z</time>
      </trkpt>
      <trkpt lat="40.641100" lon="-5.141883">
        <ele>3026.0</ele>
        <time>2018-07-14T13:37:55Z</time>
      </trkpt>
      <trkpt lat="40.641100" lon="-5.141717">
        <ele>3030.0</ele>
        <time>2018-07-14T13:37:56Z</time>
      </trkpt>
      <trkpt lat="40.641100" lon="-5.141583">
        <ele>3034.0</ele>
        <time>2018-07-14T13:37:57Z</time>
      </trkpt>
      <trkpt lat="40.641067" lon="-5.141483">
        <ele>3039.0</ele>
        <time>2018-07-14T13:37:58Z</time>
      </trkpt>
      <trkpt lat="40.641000" lon="-5.141433">
        <ele>3043.0</ele>
        <time>2018-07-14T13:37:59Z</time>
      </trkpt>
      <trkpt lat="40.640950" lon="-5.141433">
        <ele>3046.0</ele>
        <time>2018-07-14T13:38:00Z</time>
      </trkpt>
      <trkpt lat="40.640933" lon="-5.141483">
        <ele>3051.0</ele>
        <time>2018-07-14T13:38:01Z</time>
      </trkpt>
      <trkpt lat="40.640933" lon="-5.141550">
        <ele>3054.0</ele>
        <time>2018-07-14T13:38:02Z</time>
      </trkpt>
      <trkpt lat="40.640983" lon="-5.141633">
        <ele>3057.0</ele>
        <time>2018-07-14T13:38:03Z</time>
      </trkpt>
      <trkpt lat="40.641067" lon="-5.141717">
        <ele>3060.0</ele>
        <time>2018-07-14T13:38:04Z</time>
      </trkpt>
      <trkpt lat="40.641150" lon="-5.141783">
        <ele>3062.0</ele>
        <time>2018-07-14T13:38:05Z</time>
      </trkpt>
      <trkpt lat="40.641267" lon="-5.141833">
        <ele>3064.0</ele>
        <time>2018-07-14T13:38:06Z</time>
      </trkpt>
      <trkpt lat="40.641400" lon="-5.141850">
        <ele>3066.0</ele>
        <time>2018-07-14T13:38:07Z</time>
      </trkpt>
      <trkpt lat="40.641533" lon="-5.141817">
        <ele>3068.0</ele>
        <time>2018-07-14T13:38:08Z</time>
      </trkpt>
      <trkpt lat="40.641650" lon="-5.141733">
        <ele>3070.0</ele>
        <time>2018-07-14T13:38:09Z</time>
      </trkpt>
      <trkpt lat="40.641750" lon="-5.141617">
        <ele>3073.0</ele>
        <time>2018-07-14T13:38:10Z</time>
      </trkpt>
      <trkpt lat="40.641817" lon="-5.141467">
        <ele>3075.0</ele>
        <time>2018-07-14T13:38:11Z</time>
      </trkpt>
      <trkpt lat="40.641850" lon="-5.141317">
        <ele>3078.0</ele>
        <time>2018-07-14T13:38:12Z</time>
      </trkpt>
      <trkpt lat="40.641850" lon="-5.141200">
        <ele>3081.0</ele>
        <time>2018-07-14T13:38:13Z</time>
      </trkpt>
      <trkpt lat="40.641817" lon="-5.141117">
        <ele>3084.0</ele>
        <time>2018-07-14T13:38:14Z</time>
      </trkpt>
      <trkpt lat="40.641783" lon="-5.141083">
        <ele>3086.0</ele>
        <time>2018-07-14T13:38:15Z</time>
      </trkpt>
      <trkpt lat="40.641733" lon="-5.141083">
        <ele>3088.0</ele>
        <time>2018-07-14T13:38:16Z</time>
      </trkpt>
      <trkpt lat="40.641717" lon="-5.141117">
        <ele>3091.0</ele>
        <time>2018-07-14T13:38:17Z</time>
      </trkpt>
      <trkpt lat="40.641700" lon="-5.141167">
        <ele>3093.0</ele>
        <time>2018-07-14T13:38:18Z</time>
      </trkpt>
      <trkpt lat="40.641717" lon="-5.141250">
        <ele>3095.0</ele>
        <time>2018-07-14T13:38:19Z</time>
      </trkpt>
      <trkpt lat="40.641750" lon="-5.141350">
        <ele>3097.0</ele>
        <time>2018-07-14T13:38:20Z</time>
      </trkpt>
      <trkpt lat="40.641833" lon="-5.141433">
        <ele>3099.0</ele>
        <time>2018-07-14T13:38:21Z</time>
      </trkpt>
      <trkpt lat="40.641933" lon="-5.141517">
        <ele>3100.0</ele>
        <time>2018-07-14T13:38:22Z</time>
      </trkpt>
      <trkpt lat="40.642067" lon="-5.141567">
        <ele>3100.0</ele>
        <time>2018-07-14T13:38:23Z</time>
      </trkpt>
      <trkpt lat="40.642200" lon="-5.141583">
        <ele>3102.0</ele>
        <time>2018-07-14T13:38:24Z</time>
      </trkpt>
      <trkpt lat="40.642333" lon="-5.141567">
        <ele>3104.0</ele>
        <time>2018-07-14T13:38:25Z</time>
      </trkpt>
      <trkpt lat="40.642467" lon="-5.141483">
        <ele>3107.0</ele>
        <time>2018-07-14T13:38:26Z</time>
      </trkpt>
      <trkpt lat="40.642583" lon="-5.141383">
        <ele>3109.0</ele>
        <time>2018-07-14T13:38:27Z</time>
      </trkpt>
      <trkpt lat="40.642667" lon="-5.141233">
        <ele>3110.0</ele>
        <time>2018-07-14T13:38:28Z</time>
      </trkpt>
      <trkpt lat="40.642717" lon="-5.141100">
        <ele>3112.0</ele>
        <time>2018-07-14T13:38:29Z</time>
      </trkpt>
      <trkpt lat="40.642750" lon="-5.140950">
        <ele>3113.0</ele>
        <time>2018-07-14T13:38:30Z</time>
      </trkpt>
      <trkpt lat="40.642750" lon="-5.140850">
        <ele>3115.0</ele>
        <time>2018-07-14T13:38:31Z</time>
      </trkpt>
      <trkpt lat="40.642717" lon="-5.140783">
        <ele>3117.0</ele>
        <time>2018-07-14T13:38:32Z</time>
      </trkpt>
      <trkpt lat="40.642667" lon="-5.140767">
        <ele>3119.0</ele>
        <time>2018-07-14T13:38:33Z</time>
      </trkpt>
      <trkpt lat="40.642633" lon="-5.140783">
        <ele>3121.0</ele>
        <time>2018-07-14T13:38:34Z</time>
      </trkpt>
      <trkpt lat="40.642617" lon="-5.140850">
        <ele>3122.0</ele>
        <time>2018-07-14T13:38:35Z</time>
      </trkpt>
      <trkpt lat="40.642600" lon="-5.140933">
        <ele>3124.0</ele>
        <time>2018-07-14T13:38:36Z</time>
      </trkpt>
      <trkpt lat="40.642617" lon="-5.141017">
        <ele>3126.0</ele>
        <time>2018-07-14T13:38:37Z</time>
      </trkpt>
      <trkpt lat="40.642683" lon="-5.141117">
        <ele>3126.0</ele>
        <time>2018-07-14T13:38:38Z</time>
      </trkpt>
      <trkpt lat="40.642783" lon="-5.141217">
        <ele>3126.0</ele>
        <time>2018-07-14T13:38:39Z</time>
      </trkpt>
      <trkpt lat="40.642900" lon="-5.141283">
        <ele>3127.0</ele>
        <time>2018-07-14T13:38:40Z</time>
      </trkpt>
      <trkpt lat="40.643017" lon="-5.141333">
        <ele>3130.0</ele>
        <time>2018-07-14T13:38:41Z</time>
      </trkpt>
      <trkpt lat="40.643117" lon="-5.141367">
        <ele>3134.0</ele>
        <time>2018-07-14T13:38:42Z</time>
      </trkpt>
      <trkpt lat="40.643217" lon="-5.141400">
        <ele>3137.0</ele>
        <time>2018-07-14T13:38:43Z</time>
      </trkpt>
      <trkpt lat="40.643317" lon="-5.141433">
        <ele>3138.0</ele>
        <time>2018-07-14T13:38:44Z</time>
      </trkpt>
      <trkpt lat="40.643433" lon="-5.141483">
        <ele>3140.0</ele>
        <time>2018-07-14T13:38:45Z</time>
      </trkpt>
      <trkpt lat="40.643583" lon="-5.141550">
        <ele>3141.0</ele>
        <time>2018-07-14T13:38:46Z</time>
      </trkpt>
      <trkpt lat="40.643717" lon="-5.141600">
        <ele>3142.0</ele>
        <time>2018-07-14T13:38:47Z</time>
      </trkpt>
      <trkpt lat="40.643833" lon="-5.141617">
        <ele>3143.0</ele>
        <time>2018-07-14T13:38:48Z</time>
      </trkpt>
      <trkpt lat="40.643950" lon="-5.141633">
        <ele>3141.0</ele>
        <time>2018-07-14T13:38:49Z</time>
      </trkpt>
      <trkpt lat="40.644067" lon="-5.141650">
        <ele>3139.0</ele>
        <time>2018-07-14T13:38:50Z</time>
      </trkpt>
      <trkpt lat="40.644183" lon="-5.141667">
        <ele>3136.0</ele>
        <time>2018-07-14T13:38:51Z</time>
      </trkpt>
      <trkpt lat="40.644333" lon="-5.141700">
        <ele>3133.0</ele>
        <time>2018-07-14T13:38:52Z</time>
      </trkpt>
      <trkpt lat="40.644483" lon="-5.141750">
        <ele>3129.0</ele>
        <time>2018-07-14T13:38:53Z</time>
      </trkpt>
      <trkpt lat="40.644633" lon="-5.141800">
        <ele>3126.0</ele>
        <time>2018-07-14T13:38:54Z</time>
      </trkpt>
      <trkpt lat="40.644767" lon="-5.141850">
        <ele>3124.0</ele>
        <time>2018-07-14T13:38:55Z</time>
      </trkpt>
      <trkpt lat="40.644883" lon="-5.141883">
        <ele>3121.0</ele>
        <time>2018-07-14T13:38:56Z</time>
      </trkpt>
      <trkpt lat="40.645000" lon="-5.141933">
        <ele>3117.0</ele>
        <time>2018-07-14T13:38:57Z</time>
      </trkpt>
      <trkpt lat="40.645133" lon="-5.141967">
        <ele>3113.0</ele>
        <time>2018-07-14T13:38:58Z</time>
      </trkpt>
      <trkpt lat="40.645267" lon="-5.142017">
        <ele>3108.0</ele>
        <time>2018-07-14T13:38:59Z</time>
      </trkpt>
      <trkpt lat="40.645433" lon="-5.142067">
        <ele>3102.0</ele>
        <time>2018-07-14T13:39:00Z</time>
      </trkpt>
      <trkpt lat="40.645583" lon="-5.142133">
        <ele>3097.0</ele>
        <time>2018-07-14T13:39:01Z</time>
      </trkpt>
      <trkpt lat="40.645700" lon="-5.142183">
        <ele>3094.0</ele>
        <time>2018-07-14T13:39:02Z</time>
      </trkpt>
      <trkpt lat="40.645833" lon="-5.142233">
        <ele>3092.0</ele>
        <time>2018-07-14T13:39:03Z</time>
      </trkpt>
      <trkpt lat="40.645950" lon="-5.142250">
        <ele>3089.0</ele>
        <time>2018-07-14T13:39:04Z</time>
      </trkpt>
      <trkpt lat="40.646067" lon="-5.142283">
        <ele>3086.0</ele>
        <time>2018-07-14T13:39:05Z</time>
      </trkpt>
      <trkpt lat="40.646200" lon="-5.142300">
        <ele>3083.0</ele>
        <time>2018-07-14T13:39:06Z</time>
      </trkpt>
      <trkpt lat="40.646317" lon="-5.142317">
        <ele>3081.0</ele>
        <time>2018-07-14T13:39:07Z</time>
      </trkpt>
      <trkpt lat="40.646433" lon="-5.142350">
        <ele>3078.0</ele>
        <time>2018-07-14T13:39:08Z</time>
      </trkpt>
      <trkpt lat="40.646550" lon="-5.142383">
        <ele>3074.0</ele>
        <time>2018-07-14T13:39:09Z</time>
      </trkpt>
      <trkpt lat="40.646667" lon="-5.142417">
        <ele>3071.0</ele>
        <time>2018-07-14T13:39:10Z</time>
      </trkpt>
      <trkpt lat="40.646783" lon="-5.142433">
        <ele>3068.0</ele>
        <time>2018-07-14T13:39:11Z</time>
      </trkpt>
      <trkpt lat="40.646900" lon="-5.142433">
        <ele>3064.0</ele>
        <time>2018-07-14T13:39:12Z</time>
      </trkpt>
      <trkpt lat="40.647033" lon="-5.142417">
        <ele>3060.0</ele>
        <time>2018-07-14T13:39:13Z</time>
      </trkpt>
      <trkpt lat="40.647167" lon="-5.142417">
        <ele>3056.0</ele>
        <time>2018-07-14T13:39:14Z</time>
      </trkpt>
      <trkpt lat="40.647300" lon="-5.142400">
        <ele>3052.0</ele>
        <time>2018-07-14T13:39:15Z</time>
      </trkpt>
      <trkpt lat="40.647417" lon="-5.142400">
        <ele>3048.0</ele>
        <time>2018-07-14T13:39:16Z</time>
      </trkpt>
      <trkpt lat="40.647550" lon="-5.142400">
        <ele>3044.0</ele>
        <time>2018-07-14T13:39:17Z</time>
      </trkpt>
      <trkpt lat="40.647667" lon="-5.142400">
        <ele>3040.0</ele>
        <time>2018-07-14T13:39:18Z</time>
      </trkpt>
      <trkpt lat="40.647783" lon="-5.142383">
        <ele>3036.0</ele>
        <time>2018-07-14T13:39:19Z</time>
      </trkpt>
      <trkpt lat="40.648050" lon="-5.142367">
        <ele>3027.0</ele>
        <time>2018-07-14T13:39:21Z</time>
      </trkpt>
      <trkpt lat="40.648183" lon="-5.142367">
        <ele>3023.0</ele>
        <time>2018-07-14T13:39:22Z</time>
      </trkpt>
      <trkpt lat="40.648300" lon="-5.142350">
        <ele>3018.0</ele>
        <time>2018-07-14T13:39:23Z</time>
      </trkpt>
      <trkpt lat="40.648450" lon="-5.142317">
        <ele>3014.0</ele>
        <time>2018-07-14T13:39:24Z</time>
      </trkpt>
      <trkpt lat="40.648583" lon="-5.142317">
        <ele>3010.0</ele>
        <time>2018-07-14T13:39:25Z</time>
      </trkpt>
      <trkpt lat="40.648717" lon="-5.142300">
        <ele>3006.0</ele>
        <time>2018-07-14T13:39:26Z</time>
      </trkpt>
      <trkpt lat="40.648850" lon="-5.142317">
        <ele>3005.0</ele>
        <time>2018-07-14T13:39:27Z</time>
      </trkpt>
      <trkpt lat="40.648950" lon="-5.142300">
        <ele>3004.0</ele>
        <time>2018-07-14T13:39:28Z</time>
      </trkpt>
      <trkpt lat="40.649067" lon="-5.142300">
        <ele>3003.0</ele>
        <time>2018-07-14T13:39:29Z</time>
      </trkpt>
      <trkpt lat="40.649183" lon="-5.142283">
        <ele>3001.0</ele>
        <time>2018-07-14T13:39:30Z</time>
      </trkpt>
      <trkpt lat="40.649317" lon="-5.142250">
        <ele>2998.0</ele>
        <time>2018-07-14T13:39:31Z</time>
      </trkpt>
      <trkpt lat="40.649450" lon="-5.142250">
        <ele>2995.0</ele>
        <time>2018-07-14T13:39:32Z</time>
      </trkpt>
      <trkpt lat="40.649583" lon="-5.142250">
        <ele>2993.0</ele>
        <time>2018-07-14T13:39:33Z</time>
      </trkpt>
      <trkpt lat="40.649717" lon="-5.142267">
        <ele>2991.0</ele>
        <time>2018-07-14T13:39:34Z</time>
      </trkpt>
      <trkpt lat="40.649817" lon="-5.142267">
        <ele>2989.0</ele>
        <time>2018-07-14T13:39:35Z</time>
      </trkpt>
      <trkpt lat="40.649933" lon="-5.142267">
        <ele>2987.0</ele>
        <time>2018-07-14T13:39:36Z</time>
      </trkpt>
      <trkpt lat="40.650500" lon="-5.142200">
        <ele>2975.0</ele>
        <time>2018-07-14T13:39:40Z</time>
      </trkpt>
      <trkpt lat="40.650650" lon="-5.142150">
        <ele>2973.0</ele>
        <time>2018-07-14T13:39:41Z</time>
      </trkpt>
      <trkpt lat="40.650783" lon="-5.142117">
        <ele>2971.0</ele>
        <time>2018-07-14T13:39:42Z</time>
      </trkpt>
      <trkpt lat="40.650917" lon="-5.142067">
        <ele>2969.0</ele>
        <time>2018-07-14T13:39:43Z</time>
      </trkpt>
      <trkpt lat="40.651067" lon="-5.142033">
        <ele>2966.0</ele>
        <time>2018-07-14T13:39:44Z</time>
      </trkpt>
      <trkpt lat="40.651233" lon="-5.142017">
        <ele>2963.0</ele>
        <time>2018-07-14T13:39:45Z</time>
      </trkpt>
      <trkpt lat="40.651400" lon="-5.142017">
        <ele>2960.0</ele>
        <time>2018-07-14T13:39:46Z</time>
      </trkpt>
      <trkpt lat="40.651550" lon="-5.142000">
        <ele>2959.0</ele>
        <time>2018-07-14T13:39:47Z</time>
      </trkpt>
      <trkpt lat="40.651683" lon="-5.142000">
        <ele>2958.0</ele>
        <time>2018-07-14T13:39:48Z</time>
      </trkpt>
      <trkpt lat="40.651833" lon="-5.141983">
        <ele>2957.0</ele>
        <time>2018-07-14T13:39:49Z</time>
      </trkpt>
      <trkpt lat="40.651967" lon="-5.141967">
        <ele>2956.0</ele>
        <time>2018-07-14T13:39:50Z</time>
      </trkpt>
      <trkpt lat="40.652117" lon="-5.141967">
        <ele>2954.0</ele>
        <time>2018-07-14T13:39:51Z</time>
      </trkpt>
      <trkpt lat="40.652267" lon="-5.141967">
        <ele>2953.0</ele>
        <time>2018-07-14T13:39:52Z</time>
      </trkpt>
      <trkpt lat="40.652400" lon="-5.141967">
        <ele>2952.0</ele>
        <time>2018-07-14T13:39:53Z</time>
      </trkpt>
      <trkpt lat="40.652533" lon="-5.141950">
        <ele>2952.0</ele>
        <time>2018-07-14T13:39:54Z</time>
      </trkpt>
      <trkpt lat="40.652667" lon="-5.141917">
        <ele>2952.0</ele>
        <time>2018-07-14T13:39:55Z</time>
      </trkpt>
      <trkpt lat="40.652783" lon="-5.141883">
        <ele>2951.0</ele>
        <time>2018-07-14T13:39:56Z</time>
      </trkpt>
      <trkpt lat="40.652917" lon="-5.141867">
        <ele>2949.0</ele>
        <time>2018-07-14T13:39:57Z</time>
      </trkpt>
      <trkpt lat="40.653050" lon="-5.141833">
        <ele>2946.0</ele>
        <time>2018-07-14T13:39:58Z</time>
      </trkpt>
      <trkpt lat="40.653183" lon="-5.141800">
        <ele>2943.0</ele>
        <time>2018-07-14T13:39:59Z</time>
      </trkpt>
      <trkpt lat="40.653333" lon="-5.141767">
        <ele>2939.0</ele>
        <time>2018-07-14T13:40:00Z</time>
      </trkpt>
      <trkpt lat="40.653483" lon="-5.141750">
        <ele>2937.0</ele>
        <time>2018-07-14T13:40:01Z</time>
      </trkpt>
      <trkpt lat="40.653617" lon="-5.141733">
        <ele>2935.0</ele>
        <time>2018-07-14T13:40:02Z</time>
      </trkpt>
      <trkpt lat="40.653733" lon="-5.141717">
        <ele>2934.0</ele>
        <time>2018-07-14T13:40:03Z</time>
      </trkpt>
      <trkpt lat="40.653867" lon="-5.141683">
        <ele>2932.0</ele>
        <time>2018-07-14T13:40:04Z</time>
      </trkpt>
      <trkpt lat="40.653983" lon="-5.141633">
        <ele>2928.0</ele>
        <time>2018-07-14T13:40:05Z</time>
      </trkpt>
      <trkpt lat="40.654117" lon="-5.141583">
        <ele>2924.0</ele>
        <time>2018-07-14T13:40:06Z</time>
      </trkpt>
      <trkpt lat="40.654250" lon="-5.141550">
        <ele>2921.0</ele>
        <time>2018-07-14T13:40:07Z</time>
      </trkpt>
      <trkpt lat="40.654383" lon="-5.141533">
        <ele>2920.0</ele>
        <time>2018-07-14T13:40:08Z</time>
      </trkpt>
      <trkpt lat="40.654517" lon="-5.141533">
        <ele>2919.0</ele>
        <time>2018-07-14T13:40:09Z</time>
      </trkpt>
      <trkpt lat="40.654633" lon="-5.141533">
        <ele>2919.0</ele>
        <time>2018-07-14T13:40:10Z</time>
      </trkpt>
      <trkpt lat="40.654733" lon="-5.141517">
        <ele>2918.0</ele>
        <time>2018-07-14T13:40:11Z</time>
      </trkpt>
      <trkpt lat="40.654850" lon="-5.141500">
        <ele>2917.0</ele>
        <time>2018-07-14T13:40:12Z</time>
      </trkpt>
      <trkpt lat="40.654967" lon="-5.141467">
        <ele>2914.0</ele>
        <time>2018-07-14T13:40:13Z</time>
      </trkpt>
      <trkpt lat="40.655217" lon="-5.141433">
        <ele>2908.0</ele>
        <time>2018-07-14T13:40:15Z</time>
      </trkpt>
      <trkpt lat="40.655333" lon="-5.141433">
        <ele>2906.0</ele>
        <time>2018-07-14T13:40:16Z</time>
      </trkpt>
      <trkpt lat="40.655450" lon="-5.141417">
        <ele>2905.0</ele>
        <time>2018-07-14T13:40:17Z</time>
      </trkpt>
      <trkpt lat="40.655550" lon="-5.141400">
        <ele>2905.0</ele>
        <time>2018-07-14T13:40:18Z</time>
      </trkpt>
      <trkpt lat="40.655633" lon="-5.141367">
        <ele>2904.0</ele>
        <time>2018-07-14T13:40:19Z</time>
      </trkpt>
      <trkpt lat="40.655733" lon="-5.141317">
        <ele>2903.0</ele>
        <time>2018-07-14T13:40:20Z</time>
      </trkpt>
      <trkpt lat="40.655817" lon="-5.141267">
        <ele>2902.0</ele>
        <time>2018-07-14T13:40:21Z</time>
      </trkpt>
      <trkpt lat="40.655933" lon="-5.141233">
        <ele>2899.0</ele>
        <time>2018-07-14T13:40:22Z</time>
      </trkpt>
      <trkpt lat="40.656033" lon="-5.141200">
        <ele>2897.0</ele>
        <time>2018-07-14T13:40:23Z</time>
      </trkpt>
      <trkpt lat="40.656150" lon="-5.141183">
        <ele>2895.0</ele>
        <time>2018-07-14T13:40:24Z</time>
      </trkpt>
      <trkpt lat="40.656267" lon="-5.141150">
        <ele>2893.0</ele>
        <time>2018-07-14T13:40:25Z</time>
      </trkpt>
      <trkpt lat="40.656367" lon="-5.141117">
        <ele>2891.0</ele>
        <time>2018-07-14T13:40:26Z</time>
      </trkpt>
      <trkpt lat="40.656467" lon="-5.141083">
        <ele>2890.0</ele>
        <time>2018-07-14T13:40:27Z</time>
      </trkpt>
      <trkpt lat="40.656583" lon="-5.141050">
        <ele>2888.0</ele>
        <time>2018-07-14T13:40:28Z</time>
      </trkpt>
      <trkpt lat="40.656683" lon="-5.141033">
        <ele>2887.0</ele>
        <time>2018-07-14T13:40:29Z</time>
      </trkpt>
      <trkpt lat="40.656783" lon="-5.141000">
        <ele>2885.0</ele>
        <time>2018-07-14T13:40:30Z</time>
      </trkpt>
      <trkpt lat="40.656883" lon="-5.140967">
        <ele>2883.0</ele>
        <time>2018-07-14T13:40:31Z</time>
      </trkpt>
      <trkpt lat="40.657000" lon="-5.140917">
        <ele>2881.0</ele>
        <time>2018-07-14T13:40:32Z</time>
      </trkpt>
      <trkpt lat="40.657100" lon="-5.140867">
        <ele>2877.0</ele>
        <time>2018-07-14T13:40:33Z</time>
      </trkpt>
      <trkpt lat="40.657217" lon="-5.140833">
        <ele>2875.0</ele>
        <time>2018-07-14T13:40:34Z</time>
      </trkpt>
      <trkpt lat="40.657317" lon="-5.140800">
        <ele>2873.0</ele>
        <time>2018-07-14T13:40:35Z</time>
      </trkpt>
      <trkpt lat="40.657417" lon="-5.140783">
        <ele>2871.0</ele>
        <time>2018-07-14T13:40:36Z</time>
      </trkpt>
      <trkpt lat="40.657517" lon="-5.140767">
        <ele>2868.0</ele>
        <time>2018-07-14T13:40:37Z</time>
      </trkpt>
      <trkpt lat="40.657633" lon="-5.140767">
        <ele>2865.0</ele>
        <time>2018-07-14T13:40:38Z</time>
      </trkpt>
      <trkpt lat="40.657767" lon="-5.140767">
        <ele>2861.0</ele>
        <time>2018-07-14T13:40:39Z</time>
      </trkpt>
      <trkpt lat="40.657883" lon="-5.140783">
        <ele>2859.0</ele>
        <time>2018-07-14T13:40:40Z</time>
      </trkpt>
      <trkpt lat="40.658000" lon="-5.140800">
        <ele>2856.0</ele>
        <time>2018-07-14T13:40:41Z</time>
      </trkpt>
      <trkpt lat="40.658117" lon="-5.140833">
        <ele>2854.0</ele>
        <time>2018-07-14T13:40:42Z</time>
      </trkpt>
      <trkpt lat="40.658250" lon="-5.140850">
        <ele>2851.0</ele>
        <time>2018-07-14T13:40:43Z</time>
      </trkpt>
      <trkpt lat="40.658383" lon="-5.140867">
        <ele>2848.0</ele>
        <time>2018-07-14T13:40:44Z</time>
      </trkpt>
      <trkpt lat="40.658517" lon="-5.140883">
        <ele>2846.0</ele>
        <time>2018-07-14T13:40:45Z</time>
      </trkpt>
      <trkpt lat="40.658633" lon="-5.140900">
        <ele>2845.0</ele>
        <time>2018-07-14T13:40:46Z</time>
      </trkpt>
      <trkpt lat="40.658750" lon="-5.140933">
        <ele>2844.0</ele>
        <time>2018-07-14T13:40:47Z</time>
      </trkpt>
      <trkpt lat="40.658867" lon="-5.140950">
        <ele>2843.0</ele>
        <time>2018-07-14T13:40:48Z</time>
      </trkpt>
      <trkpt lat="40.659000" lon="-5.140967">
        <ele>2841.0</ele>
        <time>2018-07-14T13:40:49Z</time>
      </trkpt>
      <trkpt lat="40.659117" lon="-5.140967">
        <ele>2838.0</ele>
        <time>2018-07-14T13:40:50Z</time>
      </trkpt>
      <trkpt lat="40.659383" lon="-5.140967">
        <ele>2834.0</ele>
        <time>2018-07-14T13:40:52Z</time>
      </trkpt>
      <trkpt lat="40.659500" lon="-5.140950">
        <ele>2832.0</ele>
        <time>2018-07-14T13:40:53Z</time>
      </trkpt>
      <trkpt lat="40.659633" lon="-5.140950">
        <ele>2831.0</ele>
        <time>2018-07-14T13:40:54Z</time>
      </trkpt>
      <trkpt lat="40.659733" lon="-5.140950">
        <ele>2830.0</ele>
        <time>2018-07-14T13:40:55Z</time>
      </trkpt>
      <trkpt lat="40.659850" lon="-5.140950">
        <ele>2828.0</ele>
        <time>2018-07-14T13:40:56Z</time>
      </trkpt>
      <trkpt lat="40.659967" lon="-5.140933">
        <ele>2828.0</ele>
        <time>2018-07-14T13:40:57Z</time>
      </trkpt>
      <trkpt lat="40.660083" lon="-5.140917">
        <ele>2826.0</ele>
        <time>2018-07-14T13:40:58Z</time>
      </trkpt>
      <trkpt lat="40.660200" lon="-5.140883">
        <ele>2824.0</ele>
        <time>2018-07-14T13:40:59Z</time>
      </trkpt>
      <trkpt lat="40.660317" lon="-5.140850">
        <ele>2822.0</ele>
        <time>2018-07-14T13:41:00Z</time>
      </trkpt>
      <trkpt lat="40.660417" lon="-5.140817">
        <ele>2821.0</ele>
        <time>2018-07-14T13:41:01Z</time>
      </trkpt>
      <trkpt lat="40.660533" lon="-5.140767">
        <ele>2819.0</ele>
        <time>2018-07-14T13:41:02Z</time>
      </trkpt>
      <trkpt lat="40.660650" lon="-5.140717">
        <ele>2818.0</ele>
        <time>2018-07-14T13:41:03Z</time>
      </trkpt>
      <trkpt lat="40.660783" lon="-5.140650">
        <ele>2816.0</ele>
        <time>2018-07-14T13:41:04Z</time>
      </trkpt>
      <trkpt lat="40.660900" lon="-5.140600">
        <ele>2816.0</ele>
        <time>2018-07-14T13:41:05Z</time>
      </trkpt>
      <trkpt lat="40.661017" lon="-5.140567">
        <ele>2816.0</ele>
        <time>2018-07-14T13:41:06Z</time>
      </trkpt>
      <trkpt lat="40.661133" lon="-5.140517">
        <ele>2816.0</ele>
        <time>2018-07-14T13:41:07Z</time>
      </trkpt>
      <trkpt lat="40.661233" lon="-5.140467">
        <ele>2815.0</ele>
        <time>2018-07-14T13:41:08Z</time>
      </trkpt>
      <trkpt lat="40.661333" lon="-5.140417">
        <ele>2813.0</ele>
        <time>2018-07-14T13:41:09Z</time>
      </trkpt>
      <trkpt lat="40.661433" lon="-5.140350">
        <ele>2811.0</ele>
        <time>2018-07-14T13:41:10Z</time>
      </trkpt>
      <trkpt lat="40.661550" lon="-5.140283">
        <ele>2809.0</ele>
        <time>2018-07-14T13:41:11Z</time>
      </trkpt>
      <trkpt lat="40.661650" lon="-5.140233">
        <ele>2807.0</ele>
        <time>2018-07-14T13:41:12Z</time>
      </trkpt>
      <trkpt lat="40.661750" lon="-5.140183">
        <ele>2806.0</ele>
        <time>2018-07-14T13:41:13Z</time>
      </trkpt>
      <trkpt lat="40.661867" lon="-5.140150">
        <ele>2804.0</ele>
        <time>2018-07-14T13:41:14Z</time>
      </trkpt>
      <trkpt lat="40.661967" lon="-5.140100">
        <ele>2802.0</ele>
        <time>2018-07-14T13:41:15Z</time>
      </trkpt>
      <trkpt lat="40.662067" lon="-5.140050">
        <ele>2801.0</ele>
        <time>2018-07-14T13:41:16Z</time>
      </trkpt>
      <trkpt lat="40.662167" lon="-5.140000">
        <ele>2800.0</ele>
        <time>2018-07-14T13:41:17Z</time>
      </trkpt>
      <trkpt lat="40.662250" lon="-5.139967">
        <ele>2798.0</ele>
        <time>2018-07-14T13:41:18Z</time>
      </trkpt>
      <trkpt lat="40.662367" lon="-5.139917">
        <ele>2797.0</ele>
        <time>2018-07-14T13:41:19Z</time>
      </trkpt>
      <trkpt lat="40.662467" lon="-5.139883">
        <ele>2795.0</ele>
        <time>2018-07-14T13:41:20Z</time>
      </trkpt>
      <trkpt lat="40.662567" lon="-5.139833">
        <ele>2794.0</ele>
        <time>2018-07-14T13:41:21Z</time>
      </trkpt>
      <trkpt lat="40.662650" lon="-5.139800">
        <ele>2792.0</ele>
        <time>2018-07-14T13:41:22Z</time>
      </trkpt>
      <trkpt lat="40.662750" lon="-5.139767">
        <ele>2791.0</ele>
        <time>2018-07-14T13:41:23Z</time>
      </trkpt>
      <trkpt lat="40.662833" lon="-5.139717">
        <ele>2789.0</ele>
        <time>2018-07-14T13:41:24Z</time>
      </trkpt>
      <trkpt lat="40.662933" lon="-5.139667">
        <ele>2787.0</ele>
        <time>2018-07-14T13:41:25Z</time>
      </trkpt>
      <trkpt lat="40.663017" lon="-5.139617">
        <ele>2784.0</ele>
        <time>2018-07-14T13:41:26Z</time>
      </trkpt>
      <trkpt lat="40.663117" lon="-5.139567">
        <ele>2782.0</ele>
        <time>2018-07-14T13:41:27Z</time>
      </trkpt>
      <trkpt lat="40.663217" lon="-5.139517">
        <ele>2779.0</ele>
        <time>2018-07-14T13:41:28Z</time>
      </trkpt>
      <trkpt lat="40.663317" lon="-5.139467">
        <ele>2777.0</ele>
        <time>2018-07-14T13:41:29Z</time>
      </trkpt>
      <trkpt lat="40.663400" lon="-5.139417">
        <ele>2775.0</ele>
        <time>2018-07-14T13:41:30Z</time>
      </trkpt>
      <trkpt lat="40.663500" lon="-5.139367">
        <ele>2773.0</ele>
        <time>2018-07-14T13:41:31Z</time>
      </trkpt>
      <trkpt lat="40.663583" lon="-5.139317">
        <ele>2770.0</ele>
        <time>2018-07-14T13:41:32Z</time>
      </trkpt>
      <trkpt lat="40.663683" lon="-5.139250">
        <ele>2768.0</ele>
        <time>2018-07-14T13:41:33Z</time>
      </trkpt>
      <trkpt lat="40.663767" lon="-5.139200">
        <ele>2765.0</ele>
        <time>2018-07-14T13:41:34Z</time>
      </trkpt>
      <trkpt lat="40.663867" lon="-5.139133">
        <ele>2763.0</ele>
        <time>2018-07-14T13:41:35Z</time>
      </trkpt>
      <trkpt lat="40.663950" lon="-5.139083">
        <ele>2760.0</ele>
        <time>2018-07-14T13:41:36Z</time>
      </trkpt>
      <trkpt lat="40.664050" lon="-5.139017">
        <ele>2757.0</ele>
        <time>2018-07-14T13:41:37Z</time>
      </trkpt>
      <trkpt lat="40.664133" lon="-5.138950">
        <ele>2754.0</ele>
        <time>2018-07-14T13:41:38Z</time>
      </trkpt>
      <trkpt lat="40.664233" lon="-5.138883">
        <ele>2751.0</ele>
        <time>2018-07-14T13:41:39Z</time>
      </trkpt>
      <trkpt lat="40.664317" lon="-5.138833">
        <ele>2747.0</ele>
        <time>2018-07-14T13:41:40Z</time>
      </trkpt>
      <trkpt lat="40.664400" lon="-5.138767">
        <ele>2744.0</ele>
        <time>2018-07-14T13:41:41Z</time>
      </trkpt>
      <trkpt lat="40.664500" lon="-5.138700">
        <ele>2742.0</ele>
        <time>2018-07-14T13:41:42Z</time>
      </trkpt>
      <trkpt lat="40.664583" lon="-5.138633">
        <ele>2739.0</ele>
        <time>2018-07-14T13:41:43Z</time>
      </trkpt>
      <trkpt lat="40.664667" lon="-5.138567">
        <ele>2736.0</ele>
        <time>2018-07-14T13:41:44Z</time>
      </trkpt>
      <trkpt lat="40.664767" lon="-5.138500">
        <ele>2733.0</ele>
        <time>2018-07-14T13:41:45Z</time>
      </trkpt>
      <trkpt lat="40.664867" lon="-5.138433">
        <ele>2731.0</ele>
        <time>2018-07-14T13:41:46Z</time>
      </trkpt>
      <trkpt lat="40.664950" lon="-5.138367">
        <ele>2728.0</ele>
        <time>2018-07-14T13:41:47Z</time>
      </trkpt>
      <trkpt lat="40.665050" lon="-5.138317">
        <ele>2725.0</ele>
        <time>2018-07-14T13:41:48Z</time>
      </trkpt>
      <trkpt lat="40.665133" lon="-5.138250">
        <ele>2723.0</ele>
        <time>2018-07-14T13:41:49Z</time>
      </trkpt>
      <trkpt lat="40.665233" lon="-5.138183">
        <ele>2720.0</ele>
        <time>2018-07-14T13:41:50Z</time>
      </trkpt>
      <trkpt lat="40.665317" lon="-5.138100">
        <ele>2718.0</ele>
        <time>2018-07-14T13:41:51Z</time>
      </trkpt>
      <trkpt lat="40.665400" lon="-5.138033">
        <ele>2716.0</ele>
        <time>2018-07-14T13:41:52Z</time>
      </trkpt>
      <trkpt lat="40.665483" lon="-5.137950">
        <ele>2714.0</ele>
        <time>2018-07-14T13:41:53Z</time>
      </trkpt>
      <trkpt lat="40.665567" lon="-5.137883">
        <ele>2714.0</ele>
        <time>2018-07-14T13:41:54Z</time>
      </trkpt>
      <trkpt lat="40.665633" lon="-5.137817">
        <ele>2711.0</ele>
        <time>2018-07-14T13:41:55Z</time>
      </trkpt>
      <trkpt lat="40.665733" lon="-5.137733">
        <ele>2708.0</ele>
        <time>2018-07-14T13:41:56Z</time>
      </trkpt>
      <trkpt lat="40.665800" lon="-5.137633">
        <ele>2705.0</ele>
        <time>2018-07-14T13:41:57Z</time>
      </trkpt>
      <trkpt lat="40.665883" lon="-5.137550">
        <ele>2702.0</ele>
        <time>2018-07-14T13:41:58Z</time>
      </trkpt>
      <trkpt lat="40.665950" lon="-5.137450">
        <ele>2701.0</ele>
        <time>2018-07-14T13:41:59Z</time>
      </trkpt>
      <trkpt lat="40.666017" lon="-5.137367">
        <ele>2699.0</ele>
        <time>2018-07-14T13:42:00Z</time>
      </trkpt>
      <trkpt lat="40.666100" lon="-5.137283">
        <ele>2696.0</ele>
        <time>2018-07-14T13:42:01Z</time>
      </trkpt>
      <trkpt lat="40.666267" lon="-5.137100">
        <ele>2692.0</ele>
        <time>2018-07-14T13:42:03Z</time>
      </trkpt>
      <trkpt lat="40.666350" lon="-5.137000">
        <ele>2689.0</ele>
        <time>2018-07-14T13:42:04Z</time>
      </trkpt>
      <trkpt lat="40.666450" lon="-5.136917">
        <ele>2687.0</ele>
        <time>2018-07-14T13:42:05Z</time>
      </trkpt>
      <trkpt lat="40.666533" lon="-5.136833">
        <ele>2686.0</ele>
        <time>2018-07-14T13:42:06Z</time>
      </trkpt>
      <trkpt lat="40.666600" lon="-5.136750">
        <ele>2684.0</ele>
        <time>2018-07-14T13:42:07Z</time>
      </trkpt>
      <trkpt lat="40.666683" lon="-5.136650">
        <ele>2682.0</ele>
        <time>2018-07-14T13:42:08Z</time>
      </trkpt>
      <trkpt lat="40.666767" lon="-5.136550">
        <ele>2679.0</ele>
        <time>2018-07-14T13:42:09Z</time>
      </trkpt>
      <trkpt lat="40.666850" lon="-5.136467">
        <ele>2677.0</ele>
        <time>2018-07-14T13:42:10Z</time>
      </trkpt>
      <trkpt lat="40.666933" lon="-5.136367">
        <ele>2674.0</ele>
        <time>2018-07-14T13:42:11Z</time>
      </trkpt>
      <trkpt lat="40.667017" lon="-5.136283">
        <ele>2672.0</ele>
        <time>2018-07-14T13:42:12Z</time>
      </trkpt>
      <trkpt lat="40.667100" lon="-5.136183">
        <ele>2669.0</ele>
        <time>2018-07-14T13:42:13Z</time>
      </trkpt>
      <trkpt lat="40.667283" lon="-5.135983">
        <ele>2663.0</ele>
        <time>2018-07-14T13:42:15Z</time>
      </trkpt>
      <trkpt lat="40.667367" lon="-5.135883">
        <ele>2660.0</ele>
        <time>2018-07-14T13:42:16Z</time>
      </trkpt>
      <trkpt lat="40.667467" lon="-5.135800">
        <ele>2658.0</ele>
        <time>2018-07-14T13:42:17Z</time>
      </trkpt>
      <trkpt lat="40.667550" lon="-5.135700">
        <ele>2655.0</ele>
        <time>2018-07-14T13:42:18Z</time>
      </trkpt>
      <trkpt lat="40.667633" lon="-5.135617">
        <ele>2651.0</ele>
        <time>2018-07-14T13:42:19Z</time>
      </trkpt>
      <trkpt lat="40.667700" lon="-5.135517">
        <ele>2648.0</ele>
        <time>2018-07-14T13:42:20Z</time>
      </trkpt>
      <trkpt lat="40.667800" lon="-5.135417">
        <ele>2645.0</ele>
        <time>2018-07-14T13:42:21Z</time>
      </trkpt>
      <trkpt lat="40.667883" lon="-5.135333">
        <ele>2642.0</ele>
        <time>2018-07-14T13:42:22Z</time>
      </trkpt>
      <trkpt lat="40.667967" lon="-5.135250">
        <ele>2639.0</ele>
        <time>2018-07-14T13:42:23Z</time>
      </trkpt>
      <trkpt lat="40.668050" lon="-5.135167">
        <ele>2637.0</ele>
        <time>2018-07-14T13:42:24Z</time>
      </trkpt>
      <trkpt lat="40.668133" lon="-5.135083">
        <ele>2634.0</ele>
        <time>2018-07-14T13:42:25Z</time>
      </trkpt>
      <trkpt lat="40.668217" lon="-5.135000">
        <ele>2631.0</ele>
        <time>2018-07-14T13:42:26Z</time>
      </trkpt>
      <trkpt lat="40.668300" lon="-5.134900">
        <ele>2627.0</ele>
        <time>2018-07-14T13:42:27Z</time>
      </trkpt>
      <trkpt lat="40.668383" lon="-5.134800">
        <ele>2624.0</ele>
        <time>2018-07-14T13:42:28Z</time>
      </trkpt>
      <trkpt lat="40.668467" lon="-5.134717">
        <ele>2620.0</ele>
        <time>2018-07-14T13:42:29Z</time>
      </trkpt>
      <trkpt lat="40.668550" lon="-5.134617">
        <ele>2617.0</ele>
        <time>2018-07-14T13:42:30Z</time>
      </trkpt>
      <trkpt lat="40.668617" lon="-5.134517">
        <ele>2613.0</ele>
        <time>2018-07-14T13:42:31Z</time>
      </trkpt>
      <trkpt lat="40.668700" lon="-5.134417">
        <ele>2608.0</ele>
        <time>2018-07-14T13:42:32Z</time>
      </trkpt>
      <trkpt lat="40.668783" lon="-5.134317">
        <ele>2604.0</ele>
        <time>2018-07-14T13:42:33Z</time>
      </trkpt>
      <trkpt lat="40.668867" lon="-5.134233">
        <ele>2600.0</ele>
        <time>2018-07-14T13:42:34Z</time>
      </trkpt>
      <trkpt lat="40.668950" lon="-5.134133">
        <ele>2596.0</ele>
        <time>2018-07-14T13:42:35Z</time>
      </trkpt>
      <trkpt lat="40.669033" lon="-5.134033">
        <ele>2593.0</ele>
        <time>2018-07-14T13:42:36Z</time>
      </trkpt>
      <trkpt lat="40.669117" lon="-5.133950">
        <ele>2591.0</ele>
        <time>2018-07-14T13:42:37Z</time>
      </trkpt>
      <trkpt lat="40.669183" lon="-5.133850">
        <ele>2589.0</ele>
        <time>2018-07-14T13:42:38Z</time>
      </trkpt>
      <trkpt lat="40.669250" lon="-5.133767">
        <ele>2586.0</ele>
        <time>2018-07-14T13:42:39Z</time>
      </trkpt>
      <trkpt lat="40.669333" lon="-5.133667">
        <ele>2583.0</ele>
        <time>2018-07-14T13:42:40Z</time>
      </trkpt>
      <trkpt lat="40.669433" lon="-5.133567">
        <ele>2580.0</ele>
        <time>2018-07-14T13:42:41Z</time>
      </trkpt>
      <trkpt lat="40.669517" lon="-5.133467">
        <ele>2576.0</ele>
        <time>2018-07-14T13:42:42Z</time>
      </trkpt>
      <trkpt lat="40.669600" lon="-5.133367">
        <ele>2574.0</ele>
        <time>2018-07-14T13:42:43Z</time>
      </trkpt>
      <trkpt lat="40.669683" lon="-5.133283">
        <ele>2571.0</ele>
        <time>2018-07-14T13:42:44Z</time>
      </trkpt>
      <trkpt lat="40.669767" lon="-5.133200">
        <ele>2570.0</ele>
        <time>2018-07-14T13:42:45Z</time>
      </trkpt>
      <trkpt lat="40.669833" lon="-5.133100">
        <ele>2567.0</ele>
        <time>2018-07-14T13:42:46Z</time>
      </trkpt>
      <trkpt lat="40.669917" lon="-5.133017">
        <ele>2564.0</ele>
        <time>2018-07-14T13:42:47Z</time>
      </trkpt>
      <trkpt lat="40.670000" lon="-5.132917">
        <ele>2561.0</ele>
        <time>2018-07-14T13:42:48Z</time>
      </trkpt>
      <trkpt lat="40.670083" lon="-5.132800">
        <ele>2559.0</ele>
        <time>2018-07-14T13:42:49Z</time>
      </trkpt>
      <trkpt lat="40.670183" lon="-5.132683">
        <ele>2556.0</ele>
        <time>2018-07-14T13:42:50Z</time>
      </trkpt>
      <trkpt lat="40.670283" lon="-5.132567">
        <ele>2553.0</ele>
        <time>2018-07-14T13:42:51Z</time>
      </trkpt>
      <trkpt lat="40.670400" lon="-5.132467">
        <ele>2553.0</ele>
        <time>2018-07-14T13:42:52Z</time>
      </trkpt>
      <trkpt lat="40.670500" lon="-5.132367">
        <ele>2555.0</ele>
        <time>2018-07-14T13:42:53Z</time>
      </trkpt>
      <trkpt lat="40.670583" lon="-5.132283">
        <ele>2556.0</ele>
        <time>2018-07-14T13:42:54Z</time>
      </trkpt>
      <trkpt lat="40.670767" lon="-5.132117">
        <ele>2557.0</ele>
        <time>2018-07-14T13:42:56Z</time>
      </trkpt>
      <trkpt lat="40.670850" lon="-5.132033">
        <ele>2557.0</ele>
        <time>2018-07-14T13:42:57Z</time>
      </trkpt>
      <trkpt lat="40.670950" lon="-5.131950">
        <ele>2556.0</ele>
        <time>2018-07-14T13:42:58Z</time>
      </trkpt>
      <trkpt lat="40.671050" lon="-5.131867">
        <ele>2556.0</ele>
        <time>2018-07-14T13:42:59Z</time>
      </trkpt>
      <trkpt lat="40.671133" lon="-5.131767">
        <ele>2556.0</ele>
        <time>2018-07-14T13:43:00Z</time>
      </trkpt>
      <trkpt lat="40.671233" lon="-5.131667">
        <ele>2556.0</ele>
        <time>2018-07-14T13:43:01Z</time>
      </trkpt>
      <trkpt lat="40.671317" lon="-5.131567">
        <ele>2556.0</ele>
        <time>2018-07-14T13:43:02Z</time>
      </trkpt>
      <trkpt lat="40.671483" lon="-5.131367">
        <ele>2558.0</ele>
        <time>2018-07-14T13:43:04Z</time>
      </trkpt>
      <trkpt lat="40.671567" lon="-5.131267">
        <ele>2559.0</ele>
        <time>2018-07-14T13:43:05Z</time>
      </trkpt>
      <trkpt lat="40.671650" lon="-5.131167">
        <ele>2560.0</ele>
        <time>2018-07-14T13:43:06Z</time>
      </trkpt>
      <trkpt lat="40.671967" lon="-5.130750">
        <ele>2562.0</ele>
        <time>2018-07-14T13:43:10Z</time>
      </trkpt>
      <trkpt lat="40.672033" lon="-5.130633">
        <ele>2563.0</ele>
        <time>2018-07-14T13:43:11Z</time>
      </trkpt>
      <trkpt lat="40.672117" lon="-5.130533">
        <ele>2564.0</ele>
        <time>2018-07-14T13:43:12Z</time>
      </trkpt>
      <trkpt lat="40.672200" lon="-5.130417">
        <ele>2565.0</ele>
        <time>2018-07-14T13:43:13Z</time>
      </trkpt>
      <trkpt lat="40.672267" lon="-5.130317">
        <ele>2565.0</ele>
        <time>2018-07-14T13:43:14Z</time>
      </trkpt>
      <trkpt lat="40.672350" lon="-5.130217">
        <ele>2566.0</ele>
        <time>2018-07-14T13:43:15Z</time>
      </trkpt>
      <trkpt lat="40.672450" lon="-5.130117">
        <ele>2567.0</ele>
        <time>2018-07-14T13:43:16Z</time>
      </trkpt>
      <trkpt lat="40.672517" lon="-5.130017">
        <ele>2568.0</ele>
        <time>2018-07-14T13:43:17Z</time>
      </trkpt>
      <trkpt lat="40.672683" lon="-5.129817">
        <ele>2570.0</ele>
        <time>2018-07-14T13:43:19Z</time>
      </trkpt>
      <trkpt lat="40.672750" lon="-5.129717">
        <ele>2571.0</ele>
        <time>2018-07-14T13:43:20Z</time>
      </trkpt>
      <trkpt lat="40.672833" lon="-5.129600">
        <ele>2571.0</ele>
        <time>2018-07-14T13:43:21Z</time>
      </trkpt>
      <trkpt lat="40.672917" lon="-5.129500">
        <ele>2571.0</ele>
        <time>2018-07-14T13:43:22Z</time>
      </trkpt>
      <trkpt lat="40.673000" lon="-5.129400">
        <ele>2572.0</ele>
        <time>2018-07-14T13:43:23Z</time>
      </trkpt>
      <trkpt lat="40.673067" lon="-5.129300">
        <ele>2573.0</ele>
        <time>2018-07-14T13:43:24Z</time>
      </trkpt>
      <trkpt lat="40.673150" lon="-5.129183">
        <ele>2573.0</ele>
        <time>2018-07-14T13:43:25Z</time>
      </trkpt>
      <trkpt lat="40.673217" lon="-5.129083">
        <ele>2573.0</ele>
        <time>2018-07-14T13:43:26Z</time>
      </trkpt>
      <trkpt lat="40.673300" lon="-5.128983">
        <ele>2573.0</ele>
        <time>2018-07-14T13:43:27Z</time>
      </trkpt>
      <trkpt lat="40.673400" lon="-5.128867">
        <ele>2573.0</ele>
        <time>2018-07-14T13:43:28Z</time>
      </trkpt>
      <trkpt lat="40.673483" lon="-5.128750">
        <ele>2574.0</ele>
        <time>2018-07-14T13:43:29Z</time>
      </trkpt>
      <trkpt lat="40.673567" lon="-5.128650">
        <ele>2576.0</ele>
        <time>2018-07-14T13:43:30Z</time>
      </trkpt>
      <trkpt lat="40.673650" lon="-5.128550">
        <ele>2577.0</ele>
        <time>2018-07-14T13:43:31Z</time>
      </trkpt>
      <trkpt lat="40.673733" lon="-5.128450">
        <ele>2579.0</ele>
        <time>2018-07-14T13:43:32Z</time>
      </trkpt>
      <trkpt lat="40.673800" lon="-5.128350">
        <ele>2581.0</ele>
        <time>2018-07-14T13:43:33Z</time>
      </trkpt>
      <trkpt lat="40.673867" lon="-5.128233">
        <ele>2582.0</ele>
        <time>2018-07-14T13:43:34Z</time>
      </trkpt>
      <trkpt lat="40.673933" lon="-5.128117">
        <ele>2583.0</ele>
        <time>2018-07-14T13:43:35Z</time>
      </trkpt>
      <trkpt lat="40.674017" lon="-5.128000">
        <ele>2583.0</ele>
        <time>2018-07-14T13:43:36Z</time>
      </trkpt>
      <trkpt lat="40.674083" lon="-5.127883">
        <ele>2584.0</ele>
        <time>2018-07-14T13:43:37Z</time>
      </trkpt>
      <trkpt lat="40.674167" lon="-5.127783">
        <ele>2586.0</ele>
        <time>2018-07-14T13:43:38Z</time>
      </trkpt>
      <trkpt lat="40.674233" lon="-5.127683">
        <ele>2588.0</ele>
        <time>2018-07-14T13:43:39Z</time>
      </trkpt>
      <trkpt lat="40.674317" lon="-5.127583">
        <ele>2589.0</ele>
        <time>2018-07-14T13:43:40Z</time>
      </trkpt>
      <trkpt lat="40.674400" lon="-5.127467">
        <ele>2590.0</ele>
        <time>2018-07-14T13:43:41Z</time>
      </trkpt>
      <trkpt lat="40.674483" lon="-5.127367">
        <ele>2591.0</ele>
        <time>2018-07-14T13:43:42Z</time>
      </trkpt>
      <trkpt lat="40.674567" lon="-5.127267">
        <ele>2592.0</ele>
        <time>2018-07-14T13:43:43Z</time>
      </trkpt>
      <trkpt lat="40.674633" lon="-5.127183">
        <ele>2592.0</ele>
        <time>2018-07-14T13:43:44Z</time>
      </trkpt>
      <trkpt lat="40.674733" lon="-5.127083">
        <ele>2591.0</ele>
        <time>2018-07-14T13:43:45Z</time>
      </trkpt>
      <trkpt lat="40.674933" lon="-5.126883">
        <ele>2589.0</ele>
        <time>2018-07-14T13:43:47Z</time>
      </trkpt>
      <trkpt lat="40.675017" lon="-5.126783">
        <ele>2590.0</ele>
        <time>2018-07-14T13:43:48Z</time>
      </trkpt>
      <trkpt lat="40.675083" lon="-5.126683">
        <ele>2590.0</ele>
        <time>2018-07-14T13:43:49Z</time>
      </trkpt>
      <trkpt lat="40.675167" lon="-5.126583">
        <ele>2590.0</ele>
        <time>2018-07-14T13:43:50Z</time>
      </trkpt>
      <trkpt lat="40.675250" lon="-5.126467">
        <ele>2590.0</ele>
        <time>2018-07-14T13:43:51Z</time>
      </trkpt>
      <trkpt lat="40.675350" lon="-5.126350">
        <ele>2589.0</ele>
        <time>2018-07-14T13:43:52Z</time>
      </trkpt>
      <trkpt lat="40.675433" lon="-5.126233">
        <ele>2590.0</ele>
        <time>2018-07-14T13:43:53Z</time>
      </trkpt>
      <trkpt lat="40.675517" lon="-5.126150">
        <ele>2591.0</ele>
        <time>2018-07-14T13:43:54Z</time>
      </trkpt>
      <trkpt lat="40.675600" lon="-5.126067">
        <ele>2593.0</ele>
        <time>2018-07-14T13:43:55Z</time>
      </trkpt>
      <trkpt lat="40.675683" lon="-5.125967">
        <ele>2593.0</ele>
        <time>2018-07-14T13:43:56Z</time>
      </trkpt>
      <trkpt lat="40.675750" lon="-5.125867">
        <ele>2593.0</ele>
        <time>2018-07-14T13:43:57Z</time>
      </trkpt>
      <trkpt lat="40.675933" lon="-5.125667">
        <ele>2592.0</ele>
        <time>2018-07-14T13:43:59Z</time>
      </trkpt>
      <trkpt lat="40.676017" lon="-5.125550">
        <ele>2592.0</ele>
        <time>2018-07-14T13:44:00Z</time>
      </trkpt>
      <trkpt lat="40.676117" lon="-5.125450">
        <ele>2593.0</ele>
        <time>2018-07-14T13:44:01Z</time>
      </trkpt>
      <trkpt lat="40.676217" lon="-5.125350">
        <ele>2594.0</ele>
        <time>2018-07-14T13:44:02Z</time>
      </trkpt>
      <trkpt lat="40.676300" lon="-5.125233">
        <ele>2596.0</ele>
        <time>2018-07-14T13:44:03Z</time>
      </trkpt>
      <trkpt lat="40.676383" lon="-5.125133">
        <ele>2598.0</ele>
        <time>2018-07-14T13:44:04Z</time>
      </trkpt>
      <trkpt lat="40.676467" lon="-5.125017">
        <ele>2600.0</ele>
        <time>2018-07-14T13:44:05Z</time>
      </trkpt>
      <trkpt lat="40.676533" lon="-5.124917">
        <ele>2602.0</ele>
        <time>2018-07-14T13:44:06Z</time>
      </trkpt>
      <trkpt lat="40.676617" lon="-5.124800">
        <ele>2603.0</ele>
        <time>2018-07-14T13:44:07Z</time>
      </trkpt>
      <trkpt lat="40.676700" lon="-5.124667">
        <ele>2605.0</ele>
        <time>2018-07-14T13:44:08Z</time>
      </trkpt>
      <trkpt lat="40.676783" lon="-5.124567">
        <ele>2607.0</ele>
        <time>2018-07-14T13:44:09Z</time>
      </trkpt>
      <trkpt lat="40.676867" lon="-5.124450">
        <ele>2610.0</ele>
        <time>2018-07-14T13:44:10Z</time>
      </trkpt>
      <trkpt lat="40.676933" lon="-5.124350">
        <ele>2614.0</ele>
        <time>2018-07-14T13:44:11Z</time>
      </trkpt>
      <trkpt lat="40.677000" lon="-5.124250">
        <ele>2618.0</ele>
        <time>2018-07-14T13:44:12Z</time>
      </trkpt>
      <trkpt lat="40.677050" lon="-5.124167">
        <ele>2620.0</ele>
        <time>2018-07-14T13:44:13Z</time>
      </trkpt>
      <trkpt lat="40.677100" lon="-5.124083">
        <ele>2621.0</ele>
        <time>2018-07-14T13:44:14Z</time>
      </trkpt>
      <trkpt lat="40.677167" lon="-5.123983">
        <ele>2621.0</ele>
        <time>2018-07-14T13:44:15Z</time>
      </trkpt>
      <trkpt lat="40.677250" lon="-5.123867">
        <ele>2621.0</ele>
        <time>2018-07-14T13:44:16Z</time>
      </trkpt>
      <trkpt lat="40.677317" lon="-5.123750">
        <ele>2619.0</ele>
        <time>2018-07-14T13:44:17Z</time>
      </trkpt>
      <trkpt lat="40.677383" lon="-5.123617">
        <ele>2619.0</ele>
        <time>2018-07-14T13:44:18Z</time>
      </trkpt>
      <trkpt lat="40.677433" lon="-5.123500">
        <ele>2619.0</ele>
        <time>2018-07-14T13:44:19Z</time>
      </trkpt>
      <trkpt lat="40.677467" lon="-5.123383">
        <ele>2620.0</ele>
        <time>2018-07-14T13:44:20Z</time>
      </trkpt>
      <trkpt lat="40.677500" lon="-5.123283">
        <ele>2620.0</ele>
        <time>2018-07-14T13:44:21Z</time>
      </trkpt>
      <trkpt lat="40.677550" lon="-5.123167">
        <ele>2620.0</ele>
        <time>2018-07-14T13:44:22Z</time>
      </trkpt>
      <trkpt lat="40.677583" lon="-5.123050">
        <ele>2618.0</ele>
        <time>2018-07-14T13:44:23Z</time>
      </trkpt>
      <trkpt lat="40.677617" lon="-5.122900">
        <ele>2617.0</ele>
        <time>2018-07-14T13:44:24Z</time>
      </trkpt>
      <trkpt lat="40.677633" lon="-5.122733">
        <ele>2615.0</ele>
        <time>2018-07-14T13:44:25Z</time>
      </trkpt>
      <trkpt lat="40.677633" lon="-5.122583">
        <ele>2614.0</ele>
        <time>2018-07-14T13:44:26Z</time>
      </trkpt>
      <trkpt lat="40.677617" lon="-5.122433">
        <ele>2613.0</ele>
        <time>2018-07-14T13:44:27Z</time>
      </trkpt>
      <trkpt lat="40.677567" lon="-5.122300">
        <ele>2612.0</ele>
        <time>2018-07-14T13:44:28Z</time>
      </trkpt>
      <trkpt lat="40.677517" lon="-5.122183">
        <ele>2610.0</ele>
        <time>2018-07-14T13:44:29Z</time>
      </trkpt>
      <trkpt lat="40.677433" lon="-5.122083">
        <ele>2609.0</ele>
        <time>2018-07-14T13:44:30Z</time>
      </trkpt>
      <trkpt lat="40.677350" lon="-5.122000">
        <ele>2607.0</ele>
        <time>2018-07-14T13:44:31Z</time>
      </trkpt>
      <trkpt lat="40.677267" lon="-5.121983">
        <ele>2606.0</ele>
        <time>2018-07-14T13:44:32Z</time>
      </trkpt>
      <trkpt lat="40.677183" lon="-5.121983">
        <ele>2605.0</ele>
        <time>2018-07-14T13:44:33Z</time>
      </trkpt>
      <trkpt lat="40.677133" lon="-5.122033">
        <ele>2603.0</ele>
        <time>2018-07-14T13:44:34Z</time>
      </trkpt>
      <trkpt lat="40.677083" lon="-5.122083">
        <ele>2602.0</ele>
        <time>2018-07-14T13:44:35Z</time>
      </trkpt>
      <trkpt lat="40.677050" lon="-5.122133">
        <ele>2603.0</ele>
        <time>2018-07-14T13:44:36Z</time>
      </trkpt>
      <trkpt lat="40.677017" lon="-5.122200">
        <ele>2603.0</ele>
        <time>2018-07-14T13:44:37Z</time>
      </trkpt>
      <trkpt lat="40.676983" lon="-5.122250">
        <ele>2602.0</ele>
        <time>2018-07-14T13:44:38Z</time>
      </trkpt>
      <trkpt lat="40.676983" lon="-5.122317">
        <ele>2602.0</ele>
        <time>2018-07-14T13:44:39Z</time>
      </trkpt>
      <trkpt lat="40.676983" lon="-5.122383">
        <ele>2601.0</ele>
        <time>2018-07-14T13:44:40Z</time>
      </trkpt>
      <trkpt lat="40.677017" lon="-5.122450">
        <ele>2599.0</ele>
        <time>2018-07-14T13:44:41Z</time>
      </trkpt>
      <trkpt lat="40.677067" lon="-5.122517">
        <ele>2598.0</ele>
        <time>2018-07-14T13:44:42Z</time>
      </trkpt>
      <trkpt lat="40.677117" lon="-5.122550">
        <ele>2597.0</ele>
        <time>2018-07-14T13:44:43Z</time>
      </trkpt>
      <trkpt lat="40.677183" lon="-5.122567">
        <ele>2597.0</ele>
        <time>2018-07-14T13:44:44Z</time>
      </trkpt>
      <trkpt lat="40.677250" lon="-5.122550">
        <ele>2596.0</ele>
        <time>2018-07-14T13:44:45Z</time>
      </trkpt>
      <trkpt lat="40.677333" lon="-5.122517">
        <ele>2595.0</ele>
        <time>2018-07-14T13:44:46Z</time>
      </trkpt>
      <trkpt lat="40.677417" lon="-5.122450">
        <ele>2594.0</ele>
        <time>2018-07-14T13:44:47Z</time>
      </trkpt>
      <trkpt lat="40.677467" lon="-5.122350">
        <ele>2593.0</ele>
        <time>2018-07-14T13:44:48Z</time>
      </trkpt>
      <trkpt lat="40.677517" lon="-5.122233">
        <ele>2592.0</ele>
        <time>2018-07-14T13:44:49Z</time>
      </trkpt>
      <trkpt lat="40.677583" lon="-5.122117">
        <ele>2590.0</ele>
        <time>2018-07-14T13:44:50Z</time>
      </trkpt>
      <trkpt lat="40.677633" lon="-5.122000">
        <ele>2588.0</ele>
        <time>2018-07-14T13:44:51Z</time>
      </trkpt>
      <trkpt lat="40.677717" lon="-5.121917">
        <ele>2586.0</ele>
        <time>2018-07-14T13:44:52Z</time>
      </trkpt>
      <trkpt lat="40.677800" lon="-5.121817">
        <ele>2583.0</ele>
        <time>2018-07-14T13:44:53Z</time>
      </trkpt>
      <trkpt lat="40.677883" lon="-5.121700">
        <ele>2580.0</ele>
        <time>2018-07-14T13:44:54Z</time>
      </trkpt>
      <trkpt lat="40.677967" lon="-5.121583">
        <ele>2578.0</ele>
        <time>2018-07-14T13:44:55Z</time>
      </trkpt>
      <trkpt lat="40.678050" lon="-5.121467">
        <ele>2576.0</ele>
        <time>2018-07-14T13:44:56Z</time>
      </trkpt>
      <trkpt lat="40.678117" lon="-5.121333">
        <ele>2574.0</ele>
        <time>2018-07-14T13:44:57Z</time>
      </trkpt>
      <trkpt lat="40.678200" lon="-5.121217">
        <ele>2573.0</ele>
        <time>2018-07-14T13:44:58Z</time>
      </trkpt>
      <trkpt lat="40.678283" lon="-5.121083">
        <ele>2573.0</ele>
        <time>2018-07-14T13:44:59Z</time>
      </trkpt>
      <trkpt lat="40.678367" lon="-5.120967">
        <ele>2574.0</ele>
        <time>2018-07-14T13:45:00Z</time>
      </trkpt>
      <trkpt lat="40.678433" lon="-5.120850">
        <ele>2575.0</ele>
        <time>2018-07-14T13:45:01Z</time>
      </trkpt>
      <trkpt lat="40.678483" lon="-5.120750">
        <ele>2576.0</ele>
        <time>2018-07-14T13:45:02Z</time>
      </trkpt>
      <trkpt lat="40.678550" lon="-5.120667">
        <ele>2576.0</ele>
        <time>2018-07-14T13:45:03Z</time>
      </trkpt>
      <trkpt lat="40.678633" lon="-5.120567">
        <ele>2576.0</ele>
        <time>2018-07-14T13:45:04Z</time>
      </trkpt>
      <trkpt lat="40.678700" lon="-5.120467">
        <ele>2575.0</ele>
        <time>2018-07-14T13:45:05Z</time>
      </trkpt>
      <trkpt lat="40.678800" lon="-5.120350">
        <ele>2574.0</ele>
        <time>2018-07-14T13:45:06Z</time>
      </trkpt>
      <trkpt lat="40.678883" lon="-5.120250">
        <ele>2574.0</ele>
        <time>2018-07-14T13:45:07Z</time>
      </trkpt>
      <trkpt lat="40.678983" lon="-5.120133">
        <ele>2575.0</ele>
        <time>2018-07-14T13:45:08Z</time>
      </trkpt>
      <trkpt lat="40.679067" lon="-5.120017">
        <ele>2578.0</ele>
        <time>2018-07-14T13:45:09Z</time>
      </trkpt>
      <trkpt lat="40.679150" lon="-5.119917">
        <ele>2581.0</ele>
        <time>2018-07-14T13:45:10Z</time>
      </trkpt>
      <trkpt lat="40.679217" lon="-5.119817">
        <ele>2584.0</ele>
        <time>2018-07-14T13:45:11Z</time>
      </trkpt>
      <trkpt lat="40.679317" lon="-5.119733">
        <ele>2586.0</ele>
        <time>2018-07-14T13:45:12Z</time>
      </trkpt>
      <trkpt lat="40.679400" lon="-5.119650">
        <ele>2588.0</ele>
        <time>2018-07-14T13:45:13Z</time>
      </trkpt>
      <trkpt lat="40.679500" lon="-5.119550">
        <ele>2591.0</ele>
        <time>2018-07-14T13:45:14Z</time>
      </trkpt>
      <trkpt lat="40.679567" lon="-5.119467">
        <ele>2594.0</ele>
        <time>2018-07-14T13:45:15Z</time>
      </trkpt>
      <trkpt lat="40.679633" lon="-5.119367">
        <ele>2598.0</ele>
        <time>2018-07-14T13:45:16Z</time>
      </trkpt>
      <trkpt lat="40.679700" lon="-5.119250">
        <ele>2601.0</ele>
        <time>2018-07-14T13:45:17Z</time>
      </trkpt>
      <trkpt lat="40.679750" lon="-5.119133">
        <ele>2604.0</ele>
        <time>2018-07-14T13:45:18Z</time>
      </trkpt>
      <trkpt lat="40.679783" lon="-5.118983">
        <ele>2607.0</ele>
        <time>2018-07-14T13:45:19Z</time>
      </trkpt>
      <trkpt lat="40.679817" lon="-5.118817">
        <ele>2609.0</ele>
        <time>2018-07-14T13:45:20Z</time>
      </trkpt>
      <trkpt lat="40.679817" lon="-5.118650">
        <ele>2611.0</ele>
        <time>2018-07-14T13:45:21Z</time>
      </trkpt>
      <trkpt lat="40.679800" lon="-5.118483">
        <ele>2614.0</ele>
        <time>2018-07-14T13:45:22Z</time>
      </trkpt>
      <trkpt lat="40.679750" lon="-5.118367">
        <ele>2616.0</ele>
        <time>2018-07-14T13:45:23Z</time>
      </trkpt>
      <trkpt lat="40.679700" lon="-5.118250">
        <ele>2617.0</ele>
        <time>2018-07-14T13:45:24Z</time>
      </trkpt>
      <trkpt lat="40.679633" lon="-5.118150">
        <ele>2619.0</ele>
        <time>2018-07-14T13:45:25Z</time>
      </trkpt>
      <trkpt lat="40.679567" lon="-5.118100">
        <ele>2622.0</ele>
        <time>2018-07-14T13:45:26Z</time>
      </trkpt>
      <trkpt lat="40.679500" lon="-5.118083">
        <ele>2623.0</ele>
        <time>2018-07-14T13:45:27Z</time>
      </trkpt>
      <trkpt lat="40.679450" lon="-5.118083">
        <ele>2625.0</ele>
        <time>2018-07-14T13:45:28Z</time>
      </trkpt>
      <trkpt lat="40.679417" lon="-5.118100">
        <ele>2626.0</ele>
        <time>2018-07-14T13:45:29Z</time>
      </trkpt>
      <trkpt lat="40.679400" lon="-5.118150">
        <ele>2622.0</ele>
        <time>2018-07-14T13:45:30Z</time>
      </trkpt>
      <trkpt lat="40.679417" lon="-5.118233">
        <ele>2623.0</ele>
        <time>2018-07-14T13:45:31Z</time>
      </trkpt>
      <trkpt lat="40.679450" lon="-5.118283">
        <ele>2624.0</ele>
        <time>2018-07-14T13:45:32Z</time>
      </trkpt>
      <trkpt lat="40.679500" lon="-5.118350">
        <ele>2627.0</ele>
        <time>2018-07-14T13:45:33Z</time>
      </trkpt>
      <trkpt lat="40.679567" lon="-5.118367">
        <ele>2631.0</ele>
        <time>2018-07-14T13:45:34Z</time>
      </trkpt>
      <trkpt lat="40.679650" lon="-5.118350">
        <ele>2635.0</ele>
        <time>2018-07-14T13:45:35Z</time>
      </trkpt>
      <trkpt lat="40.679733" lon="-5.118317">
        <ele>2638.0</ele>
        <time>2018-07-14T13:45:36Z</time>
      </trkpt>
      <trkpt lat="40.679817" lon="-5.118250">
        <ele>2641.0</ele>
        <time>2018-07-14T13:45:37Z</time>
      </trkpt>
      <trkpt lat="40.679900" lon="-5.118150">
        <ele>2643.0</ele>
        <time>2018-07-14T13:45:38Z</time>
      </trkpt>
      <trkpt lat="40.679950" lon="-5.118017">
        <ele>2646.0</ele>
        <time>2018-07-14T13:45:39Z</time>
      </trkpt>
      <trkpt lat="40.680000" lon="-5.117867">
        <ele>2648.0</ele>
        <time>2018-07-14T13:45:40Z</time>
      </trkpt>
      <trkpt lat="40.680050" lon="-5.117717">
        <ele>2650.0</ele>
        <time>2018-07-14T13:45:41Z</time>
      </trkpt>
      <trkpt lat="40.680100" lon="-5.117567">
        <ele>2653.0</ele>
        <time>2018-07-14T13:45:42Z</time>
      </trkpt>
      <trkpt lat="40.680117" lon="-5.117400">
        <ele>2656.0</ele>
        <time>2018-07-14T13:45:43Z</time>
      </trkpt>
      <trkpt lat="40.680117" lon="-5.117233">
        <ele>2659.0</ele>
        <time>2018-07-14T13:45:44Z</time>
      </trkpt>
      <trkpt lat="40.680100" lon="-5.117067">
        <ele>2661.0</ele>
        <time>2018-07-14T13:45:45Z</time>
      </trkpt>
      <trkpt lat="40.680067" lon="-5.116933">
        <ele>2664.0</ele>
        <time>2018-07-14T13:45:46Z</time>
      </trkpt>
      <trkpt lat="40.680017" lon="-5.116817">
        <ele>2667.0</ele>
        <time>2018-07-14T13:45:47Z</time>
      </trkpt>
      <trkpt lat="40.679967" lon="-5.116717">
        <ele>2670.0</ele>
        <time>2018-07-14T13:45:48Z</time>
      </trkpt>
      <trkpt lat="40.679900" lon="-5.116650">
        <ele>2672.0</ele>
        <time>2018-07-14T13:45:49Z</time>
      </trkpt>
      <trkpt lat="40.679833" lon="-5.116617">
        <ele>2674.0</ele>
        <time>2018-07-14T13:45:50Z</time>
      </trkpt>
      <trkpt lat="40.679767" lon="-5.116633">
        <ele>2676.0</ele>
        <time>2018-07-14T13:45:51Z</time>
      </trkpt>
      <trkpt lat="40.679733" lon="-5.116667">
        <ele>2678.0</ele>
        <time>2018-07-14T13:45:52Z</time>
      </trkpt>
      <trkpt lat="40.679733" lon="-5.116733">
        <ele>2681.0</ele>
        <time>2018-07-14T13:45:53Z</time>
      </trkpt>
      <trkpt lat="40.679767" lon="-5.116783">
        <ele>2684.0</ele>
        <time>2018-07-14T13:45:54Z</time>
      </trkpt>
      <trkpt lat="40.679817" lon="-5.116850">
        <ele>2686.0</ele>
        <time>2018-07-14T13:45:55Z</time>
      </trkpt>
      <trkpt lat="40.679867" lon="-5.116883">
        <ele>2689.0</ele>
        <time>2018-07-14T13:45:56Z</time>
      </trkpt>
      <trkpt lat="40.679933" lon="-5.116917">
        <ele>2692.0</ele>
        <time>2018-07-14T13:45:57Z</time>
      </trkpt>
      <trkpt lat="40.680000" lon="-5.116917">
        <ele>2695.0</ele>
        <time>2018-07-14T13:45:58Z</time>
      </trkpt>
      <trkpt lat="40.680067" lon="-5.116917">
        <ele>2698.0</ele>
        <time>2018-07-14T13:45:59Z</time>
      </trkpt>
      <trkpt lat="40.680150" lon="-5.116900">
        <ele>2701.0</ele>
        <time>2018-07-14T13:46:00Z</time>
      </trkpt>
      <trkpt lat="40.680233" lon="-5.116867">
        <ele>2704.0</ele>
        <time>2018-07-14T13:46:01Z</time>
      </trkpt>
      <trkpt lat="40.680317" lon="-5.116833">
        <ele>2706.0</ele>
        <time>2018-07-14T13:46:02Z</time>
      </trkpt>
      <trkpt lat="40.680417" lon="-5.116767">
        <ele>2708.0</ele>
        <time>2018-07-14T13:46:03Z</time>
      </trkpt>
      <trkpt lat="40.680500" lon="-5.116683">
        <ele>2710.0</ele>
        <time>2018-07-14T13:46:04Z</time>
      </trkpt>
      <trkpt lat="40.680600" lon="-5.116567">
        <ele>2712.0</ele>
        <time>2018-07-14T13:46:05Z</time>
      </trkpt>
      <trkpt lat="40.680683" lon="-5.116450">
        <ele>2714.0</ele>
        <time>2018-07-14T13:46:06Z</time>
      </trkpt>
      <trkpt lat="40.680750" lon="-5.116317">
        <ele>2715.0</ele>
        <time>2018-07-14T13:46:07Z</time>
      </trkpt>
      <trkpt lat="40.680800" lon="-5.116167">
        <ele>2717.0</ele>
        <time>2018-07-14T13:46:08Z</time>
      </trkpt>
      <trkpt lat="40.680850" lon="-5.115983">
        <ele>2718.0</ele>
        <time>2018-07-14T13:46:09Z</time>
      </trkpt>
      <trkpt lat="40.680867" lon="-5.115817">
        <ele>2720.0</ele>
        <time>2018-07-14T13:46:10Z</time>
      </trkpt>
      <trkpt lat="40.680867" lon="-5.115650">
        <ele>2723.0</ele>
        <time>2018-07-14T13:46:11Z</time>
      </trkpt>
      <trkpt lat="40.680833" lon="-5.115517">
        <ele>2726.0</ele>
        <time>2018-07-14T13:46:12Z</time>
      </trkpt>
      <trkpt lat="40.680800" lon="-5.115417">
        <ele>2729.0</ele>
        <time>2018-07-14T13:46:13Z</time>
      </trkpt>
      <trkpt lat="40.680750" lon="-5.115333">
        <ele>2731.0</ele>
        <time>2018-07-14T13:46:14Z</time>
      </trkpt>
      <trkpt lat="40.680700" lon="-5.115267">
        <ele>2733.0</ele>
        <time>2018-07-14T13:46:15Z</time>
      </trkpt>
      <trkpt lat="40.680650" lon="-5.115217">
        <ele>2734.0</ele>
        <time>2018-07-14T13:46:16Z</time>
      </trkpt>
      <trkpt lat="40.680567" lon="-5.115217">
        <ele>2735.0</ele>
        <time>2018-07-14T13:46:17Z</time>
      </trkpt>
      <trkpt lat="40.680500" lon="-5.115233">
        <ele>2736.0</ele>
        <time>2018-07-14T13:46:18Z</time>
      </trkpt>
      <trkpt lat="40.680467" lon="-5.115300">
        <ele>2738.0</ele>
        <time>2018-07-14T13:46:19Z</time>
      </trkpt>
      <trkpt lat="40.680467" lon="-5.115367">
        <ele>2739.0</ele>
        <time>2018-07-14T13:46:20Z</time>
      </trkpt>
      <trkpt lat="40.680500" lon="-5.115417">
        <ele>2741.0</ele>
        <time>2018-07-14T13:46:21Z</time>
      </trkpt>
      <trkpt lat="40.680533" lon="-5.115483">
        <ele>2743.0</ele>
        <time>2018-07-14T13:46:22Z</time>
      </trkpt>
      <trkpt lat="40.680583" lon="-5.115533">
        <ele>2745.0</ele>
        <time>2018-07-14T13:46:23Z</time>
      </trkpt>
      <trkpt lat="40.680650" lon="-5.115567">
        <ele>2747.0</ele>
        <time>2018-07-14T13:46:24Z</time>
      </trkpt>
      <trkpt lat="40.680733" lon="-5.115600">
        <ele>2749.0</ele>
        <time>2018-07-14T13:46:25Z</time>
      </trkpt>
      <trkpt lat="40.680817" lon="-5.115617">
        <ele>2750.0</ele>
        <time>2018-07-14T13:46:26Z</time>
      </trkpt>
      <trkpt lat="40.680917" lon="-5.115600">
        <ele>2753.0</ele>
        <time>2018-07-14T13:46:27Z</time>
      </trkpt>
      <trkpt lat="40.681017" lon="-5.115567">
        <ele>2755.0</ele>
        <time>2018-07-14T13:46:28Z</time>
      </trkpt>
      <trkpt lat="40.681100" lon="-5.115517">
        <ele>2758.0</ele>
        <time>2018-07-14T13:46:29Z</time>
      </trkpt>
      <trkpt lat="40.681183" lon="-5.115467">
        <ele>2760.0</ele>
        <time>2018-07-14T13:46:30Z</time>
      </trkpt>
      <trkpt lat="40.681283" lon="-5.115417">
        <ele>2762.0</ele>
        <time>2018-07-14T13:46:31Z</time>
      </trkpt>
      <trkpt lat="40.681383" lon="-5.115367">
        <ele>2763.0</ele>
        <time>2018-07-14T13:46:32Z</time>
      </trkpt>
      <trkpt lat="40.681483" lon="-5.115283">
        <ele>2764.0</ele>
        <time>2018-07-14T13:46:33Z</time>
      </trkpt>
      <trkpt lat="40.681567" lon="-5.115183">
        <ele>2766.0</ele>
        <time>2018-07-14T13:46:34Z</time>
      </trkpt>
      <trkpt lat="40.681650" lon="-5.115067">
        <ele>2769.0</ele>
        <time>2018-07-14T13:46:35Z</time>
      </trkpt>
      <trkpt lat="40.681717" lon="-5.114950">
        <ele>2771.0</ele>
        <time>2018-07-14T13:46:36Z</time>
      </trkpt>
      <trkpt lat="40.681900" lon="-5.114583">
        <ele>2779.0</ele>
        <time>2018-07-14T13:46:39Z</time>
      </trkpt>
      <trkpt lat="40.681933" lon="-5.114433">
        <ele>2780.0</ele>
        <time>2018-07-14T13:46:40Z</time>
      </trkpt>
      <trkpt lat="40.681967" lon="-5.114267">
        <ele>2780.0</ele>
        <time>2018-07-14T13:46:41Z</time>
      </trkpt>
      <trkpt lat="40.681967" lon="-5.114100">
        <ele>2781.0</ele>
        <time>2018-07-14T13:46:42Z</time>
      </trkpt>
      <trkpt lat="40.681950" lon="-5.113967">
        <ele>2783.0</ele>
        <time>2018-07-14T13:46:43Z</time>
      </trkpt>
      <trkpt lat="40.681917" lon="-5.113833">
        <ele>2785.0</ele>
        <time>2018-07-14T13:46:44Z</time>
      </trkpt>
      <trkpt lat="40.681883" lon="-5.113733">
        <ele>2786.0</ele>
        <time>2018-07-14T13:46:45Z</time>
      </trkpt>
      <trkpt lat="40.681833" lon="-5.113650">
        <ele>2788.0</ele>
        <time>2018-07-14T13:46:46Z</time>
      </trkpt>
      <trkpt lat="40.681767" lon="-5.113583">
        <ele>2789.0</ele>
        <time>2018-07-14T13:46:47Z</time>
      </trkpt>
      <trkpt lat="40.681717" lon="-5.113550">
        <ele>2790.0</ele>
        <time>2018-07-14T13:46:48Z</time>
      </trkpt>
      <trkpt lat="40.681650" lon="-5.113567">
        <ele>2791.0</ele>
        <time>2018-07-14T13:46:49Z</time>
      </trkpt>
      <trkpt lat="40.681617" lon="-5.113600">
        <ele>2792.0</ele>
        <time>2018-07-14T13:46:50Z</time>
      </trkpt>
      <trkpt lat="40.681600" lon="-5.113650">
        <ele>2792.0</ele>
        <time>2018-07-14T13:46:51Z</time>
      </trkpt>
      <trkpt lat="40.681600" lon="-5.113717">
        <ele>2793.0</ele>
        <time>2018-07-14T13:46:52Z</time>
      </trkpt>
      <trkpt lat="40.681633" lon="-5.113767">
        <ele>2795.0</ele>
        <time>2018-07-14T13:46:53Z</time>
      </trkpt>
      <trkpt lat="40.681650" lon="-5.113800">
        <ele>2796.0</ele>
        <time>2018-07-14T13:46:54Z</time>
      </trkpt>
      <trkpt lat="40.681700" lon="-5.113833">
        <ele>2798.0</ele>
        <time>2018-07-14T13:46:55Z</time>
      </trkpt>
      <trkpt lat="40.681750" lon="-5.113883">
        <ele>2800.0</ele>
        <time>2018-07-14T13:46:56Z</time>
      </trkpt>
      <trkpt lat="40.681817" lon="-5.113933">
        <ele>2801.0</ele>
        <time>2018-07-14T13:46:57Z</time>
      </trkpt>
      <trkpt lat="40.681917" lon="-5.113967">
        <ele>2802.0</ele>
        <time>2018-07-14T13:46:58Z</time>
      </trkpt>
      <trkpt lat="40.682017" lon="-5.113967">
        <ele>2804.0</ele>
        <time>2018-07-14T13:46:59Z</time>
      </trkpt>
      <trkpt lat="40.682133" lon="-5.113933">
        <ele>2806.0</ele>
        <time>2018-07-14T13:47:00Z</time>
      </trkpt>
      <trkpt lat="40.682233" lon="-5.113867">
        <ele>2808.0</ele>
        <time>2018-07-14T13:47:01Z</time>
      </trkpt>
      <trkpt lat="40.682333" lon="-5.113800">
        <ele>2811.0</ele>
        <time>2018-07-14T13:47:02Z</time>
      </trkpt>
      <trkpt lat="40.682417" lon="-5.113717">
        <ele>2814.0</ele>
        <time>2018-07-14T13:47:03Z</time>
      </trkpt>
      <trkpt lat="40.682500" lon="-5.113633">
        <ele>2817.0</ele>
        <time>2018-07-14T13:47:04Z</time>
      </trkpt>
      <trkpt lat="40.682600" lon="-5.113533">
        <ele>2818.0</ele>
        <time>2018-07-14T13:47:05Z</time>
      </trkpt>
      <trkpt lat="40.682683" lon="-5.113400">
        <ele>2819.0</ele>
        <time>2018-07-14T13:47:06Z</time>
      </trkpt>
      <trkpt lat="40.682767" lon="-5.113267">
        <ele>2821.0</ele>
        <time>2018-07-14T13:47:07Z</time>
      </trkpt>
      <trkpt lat="40.682800" lon="-5.113100">
        <ele>2823.0</ele>
        <time>2018-07-14T13:47:08Z</time>
      </trkpt>
      <trkpt lat="40.682833" lon="-5.112950">
        <ele>2825.0</ele>
        <time>2018-07-14T13:47:09Z</time>
      </trkpt>
      <trkpt lat="40.682833" lon="-5.112800">
        <ele>2827.0</ele>
        <time>2018-07-14T13:47:10Z</time>
      </trkpt>
      <trkpt lat="40.682800" lon="-5.112650">
        <ele>2829.0</ele>
        <time>2018-07-14T13:47:11Z</time>
      </trkpt>
      <trkpt lat="40.682767" lon="-5.112517">
        <ele>2831.0</ele>
        <time>2018-07-14T13:47:12Z</time>
      </trkpt>
      <trkpt lat="40.682717" lon="-5.112417">
        <ele>2833.0</ele>
        <time>2018-07-14T13:47:13Z</time>
      </trkpt>
      <trkpt lat="40.682650" lon="-5.112333">
        <ele>2835.0</ele>
        <time>2018-07-14T13:47:14Z</time>
      </trkpt>
      <trkpt lat="40.682583" lon="-5.112267">
        <ele>2837.0</ele>
        <time>2018-07-14T13:47:15Z</time>
      </trkpt>
      <trkpt lat="40.682500" lon="-5.112233">
        <ele>2839.0</ele>
        <time>2018-07-14T13:47:16Z</time>
      </trkpt>
      <trkpt lat="40.682433" lon="-5.112233">
        <ele>2841.0</ele>
        <time>2018-07-14T13:47:17Z</time>
      </trkpt>
      <trkpt lat="40.682367" lon="-5.112250">
        <ele>2843.0</ele>
        <time>2018-07-14T13:47:18Z</time>
      </trkpt>
      <trkpt lat="40.682317" lon="-5.112317">
        <ele>2845.0</ele>
        <time>2018-07-14T13:47:19Z</time>
      </trkpt>
      <trkpt lat="40.682300" lon="-5.112383">
        <ele>2846.0</ele>
        <time>2018-07-14T13:47:20Z</time>
      </trkpt>
      <trkpt lat="40.682300" lon="-5.112450">
        <ele>2847.0</ele>
        <time>2018-07-14T13:47:21Z</time>
      </trkpt>
      <trkpt lat="40.682300" lon="-5.112533">
        <ele>2849.0</ele>
        <time>2018-07-14T13:47:22Z</time>
      </trkpt>
      <trkpt lat="40.682300" lon="-5.112617">
        <ele>2851.0</ele>
        <time>2018-07-14T13:47:23Z</time>
      </trkpt>
      <trkpt lat="40.682333" lon="-5.112683">
        <ele>2854.0</ele>
        <time>2018-07-14T13:47:24Z</time>
      </trkpt>
      <trkpt lat="40.682383" lon="-5.112733">
        <ele>2855.0</ele>
        <time>2018-07-14T13:47:25Z</time>
      </trkpt>
      <trkpt lat="40.682450" lon="-5.112783">
        <ele>2856.0</ele>
        <time>2018-07-14T13:47:26Z</time>
      </trkpt>
      <trkpt lat="40.682533" lon="-5.112833">
        <ele>2857.0</ele>
        <time>2018-07-14T13:47:27Z</time>
      </trkpt>
      <trkpt lat="40.682600" lon="-5.112867">
        <ele>2859.0</ele>
        <time>2018-07-14T13:47:28Z</time>
      </trkpt>
      <trkpt lat="40.682700" lon="-5.112867">
        <ele>2861.0</ele>
        <time>2018-07-14T13:47:29Z</time>
      </trkpt>
      <trkpt lat="40.682800" lon="-5.112850">
        <ele>2862.0</ele>
        <time>2018-07-14T13:47:30Z</time>
      </trkpt>
      <trkpt lat="40.682900" lon="-5.112800">
        <ele>2864.0</ele>
        <time>2018-07-14T13:47:31Z</time>
      </trkpt>
      <trkpt lat="40.683000" lon="-5.112733">
        <ele>2867.0</ele>
        <time>2018-07-14T13:47:32Z</time>
      </trkpt>
      <trkpt lat="40.683083" lon="-5.112667">
        <ele>2870.0</ele>
        <time>2018-07-14T13:47:33Z</time>
      </trkpt>
      <trkpt lat="40.683167" lon="-5.112617">
        <ele>2874.0</ele>
        <time>2018-07-14T13:47:34Z</time>
      </trkpt>
      <trkpt lat="40.683250" lon="-5.112550">
        <ele>2878.0</ele>
        <time>2018-07-14T13:47:35Z</time>
      </trkpt>
      <trkpt lat="40.683333" lon="-5.112483">
        <ele>2881.0</ele>
        <time>2018-07-14T13:47:36Z</time>
      </trkpt>
      <trkpt lat="40.683417" lon="-5.112383">
        <ele>2884.0</ele>
        <time>2018-07-14T13:47:37Z</time>
      </trkpt>
      <trkpt lat="40.683500" lon="-5.112267">
        <ele>2886.0</ele>
        <time>2018-07-14T13:47:38Z</time>
      </trkpt>
      <trkpt lat="40.683583" lon="-5.112133">
        <ele>2888.0</ele>
        <time>2018-07-14T13:47:39Z</time>
      </trkpt>
      <trkpt lat="40.683667" lon="-5.111983">
        <ele>2891.0</ele>
        <time>2018-07-14T13:47:40Z</time>
      </trkpt>
      <trkpt lat="40.683717" lon="-5.111833">
        <ele>2896.0</ele>
        <time>2018-07-14T13:47:41Z</time>
      </trkpt>
      <trkpt lat="40.683733" lon="-5.111667">
        <ele>2901.0</ele>
        <time>2018-07-14T13:47:42Z</time>
      </trkpt>
      <trkpt lat="40.683717" lon="-5.111500">
        <ele>2905.0</ele>
        <time>2018-07-14T13:47:43Z</time>
      </trkpt>
      <trkpt lat="40.683717" lon="-5.111350">
        <ele>2909.0</ele>
        <time>2018-07-14T13:47:44Z</time>
      </trkpt>
      <trkpt lat="40.683700" lon="-5.111217">
        <ele>2914.0</ele>
        <time>2018-07-14T13:47:45Z</time>
      </trkpt>
      <trkpt lat="40.683667" lon="-5.111083">
        <ele>2918.0</ele>
        <time>2018-07-14T13:47:46Z</time>
      </trkpt>
      <trkpt lat="40.683600" lon="-5.110950">
        <ele>2921.0</ele>
        <time>2018-07-14T13:47:47Z</time>
      </trkpt>
      <trkpt lat="40.683533" lon="-5.110833">
        <ele>2924.0</ele>
        <time>2018-07-14T13:47:48Z</time>
      </trkpt>
      <trkpt lat="40.683450" lon="-5.110767">
        <ele>2927.0</ele>
        <time>2018-07-14T13:47:49Z</time>
      </trkpt>
      <trkpt lat="40.683367" lon="-5.110717">
        <ele>2930.0</ele>
        <time>2018-07-14T13:47:50Z</time>
      </trkpt>
      <trkpt lat="40.683283" lon="-5.110733">
        <ele>2933.0</ele>
        <time>2018-07-14T13:47:51Z</time>
      </trkpt>
      <trkpt lat="40.683233" lon="-5.110783">
        <ele>2935.0</ele>
        <time>2018-07-14T13:47:52Z</time>
      </trkpt>
      <trkpt lat="40.683183" lon="-5.110850">
        <ele>2938.0</ele>
        <time>2018-07-14T13:47:53Z</time>
      </trkpt>
      <trkpt lat="40.683200" lon="-5.110917">
        <ele>2942.0</ele>
        <time>2018-07-14T13:47:54Z</time>
      </trkpt>
      <trkpt lat="40.683233" lon="-5.110983">
        <ele>2945.0</ele>
        <time>2018-07-14T13:47:55Z</time>
      </trkpt>
      <trkpt lat="40.683283" lon="-5.111033">
        <ele>2946.0</ele>
        <time>2018-07-14T13:47:56Z</time>
      </trkpt>
      <trkpt lat="40.683350" lon="-5.111083">
        <ele>2947.0</ele>
        <time>2018-07-14T13:47:57Z</time>
      </trkpt>
      <trkpt lat="40.683433" lon="-5.111100">
        <ele>2949.0</ele>
        <time>2018-07-14T13:47:58Z</time>
      </trkpt>
      <trkpt lat="40.683533" lon="-5.111100">
        <ele>2950.0</ele>
        <time>2018-07-14T13:47:59Z</time>
      </trkpt>
      <trkpt lat="40.683633" lon="-5.111083">
        <ele>2951.0</ele>
        <time>2018-07-14T13:48:00Z</time>
      </trkpt>
      <trkpt lat="40.683750" lon="-5.111033">
        <ele>2952.0</ele>
        <time>2018-07-14T13:48:01Z</time>
      </trkpt>
      <trkpt lat="40.683850" lon="-5.110950">
        <ele>2954.0</ele>
        <time>2018-07-14T13:48:02Z</time>
      </trkpt>
      <trkpt lat="40.683967" lon="-5.110867">
        <ele>2956.0</ele>
        <time>2018-07-14T13:48:03Z</time>
      </trkpt>
      <trkpt lat="40.684067" lon="-5.110750">
        <ele>2958.0</ele>
        <time>2018-07-14T13:48:04Z</time>
      </trkpt>
      <trkpt lat="40.684133" lon="-5.110600">
        <ele>2961.0</ele>
        <time>2018-07-14T13:48:05Z</time>
      </trkpt>
      <trkpt lat="40.684167" lon="-5.110450">
        <ele>2964.0</ele>
        <time>2018-07-14T13:48:06Z</time>
      </trkpt>
      <trkpt lat="40.684167" lon="-5.110283">
        <ele>2967.0</ele>
        <time>2018-07-14T13:48:07Z</time>
      </trkpt>
      <trkpt lat="40.684167" lon="-5.110117">
        <ele>2969.0</ele>
        <time>2018-07-14T13:48:08Z</time>
      </trkpt>
      <trkpt lat="40.684150" lon="-5.109933">
        <ele>2971.0</ele>
        <time>2018-07-14T13:48:09Z</time>
      </trkpt>
      <trkpt lat="40.684067" lon="-5.109800">
        <ele>2973.0</ele>
        <time>2018-07-14T13:48:10Z</time>
      </trkpt>
      <trkpt lat="40.684000" lon="-5.109717">
        <ele>2976.0</ele>
        <time>2018-07-14T13:48:11Z</time>
      </trkpt>
      <trkpt lat="40.683933" lon="-5.109667">
        <ele>2979.0</ele>
        <time>2018-07-14T13:48:12Z</time>
      </trkpt>
      <trkpt lat="40.683867" lon="-5.109683">
        <ele>2984.0</ele>
        <time>2018-07-14T13:48:13Z</time>
      </trkpt>
      <trkpt lat="40.683833" lon="-5.109700">
        <ele>2988.0</ele>
        <time>2018-07-14T13:48:14Z</time>
      </trkpt>
      <trkpt lat="40.683867" lon="-5.109667">
        <ele>2993.0</ele>
        <time>2018-07-14T13:48:15Z</time>
      </trkpt>
      <trkpt lat="40.683867" lon="-5.109700">
        <ele>2982.0</ele>
        <time>2018-07-14T13:48:16Z</time>
      </trkpt>
      <trkpt lat="40.683900" lon="-5.109733">
        <ele>2983.0</ele>
        <time>2018-07-14T13:48:17Z</time>
      </trkpt>
      <trkpt lat="40.683967" lon="-5.109800">
        <ele>2983.0</ele>
        <time>2018-07-14T13:48:18Z</time>
      </trkpt>
      <trkpt lat="40.684050" lon="-5.109850">
        <ele>2984.0</ele>
        <time>2018-07-14T13:48:19Z</time>
      </trkpt>
      <trkpt lat="40.684133" lon="-5.109867">
        <ele>2986.0</ele>
        <time>2018-07-14T13:48:20Z</time>
      </trkpt>
      <trkpt lat="40.684233" lon="-5.109867">
        <ele>2989.0</ele>
        <time>2018-07-14T13:48:21Z</time>
      </trkpt>
      <trkpt lat="40.684333" lon="-5.109833">
        <ele>2992.0</ele>
        <time>2018-07-14T13:48:22Z</time>
      </trkpt>
      <trkpt lat="40.684433" lon="-5.109733">
        <ele>2996.0</ele>
        <time>2018-07-14T13:48:23Z</time>
      </trkpt>
      <trkpt lat="40.684517" lon="-5.109600">
        <ele>3000.0</ele>
        <time>2018-07-14T13:48:24Z</time>
      </trkpt>
      <trkpt lat="40.684567" lon="-5.109433">
        <ele>3005.0</ele>
        <time>2018-07-14T13:48:25Z</time>
      </trkpt>
      <trkpt lat="40.684583" lon="-5.109250">
        <ele>3010.0</ele>
        <time>2018-07-14T13:48:26Z</time>
      </trkpt>
      <trkpt lat="40.684583" lon="-5.109067">
        <ele>3015.0</ele>
        <time>2018-07-14T13:48:27Z</time>
      </trkpt>
      <trkpt lat="40.684550" lon="-5.108900">
        <ele>3019.0</ele>
        <time>2018-07-14T13:48:28Z</time>
      </trkpt>
      <trkpt lat="40.684500" lon="-5.108750">
        <ele>3023.0</ele>
        <time>2018-07-14T13:48:29Z</time>
      </trkpt>
      <trkpt lat="40.684433" lon="-5.108633">
        <ele>3027.0</ele>
        <time>2018-07-14T13:48:30Z</time>
      </trkpt>
      <trkpt lat="40.684367" lon="-5.108533">
        <ele>3031.0</ele>
        <time>2018-07-14T13:48:31Z</time>
      </trkpt>
      <trkpt lat="40.684283" lon="-5.108467">
        <ele>3035.0</ele>
        <time>2018-07-14T13:48:32Z</time>
      </trkpt>
      <trkpt lat="40.684217" lon="-5.108417">
        <ele>3040.0</ele>
        <time>2018-07-14T13:48:33Z</time>
      </trkpt>
      <trkpt lat="40.684167" lon="-5.108417">
        <ele>3046.0</ele>
        <time>2018-07-14T13:48:34Z</time>
      </trkpt>
      <trkpt lat="40.684133" lon="-5.108467">
        <ele>3051.0</ele>
        <time>2018-07-14T13:48:35Z</time>
      </trkpt>
      <trkpt lat="40.684150" lon="-5.108533">
        <ele>3054.0</ele>
        <time>2018-07-14T13:48:36Z</time>
      </trkpt>
      <trkpt lat="40.684183" lon="-5.108600">
        <ele>3059.0</ele>
        <time>2018-07-14T13:48:37Z</time>
      </trkpt>
      <trkpt lat="40.684267" lon="-5.108650">
        <ele>3063.0</ele>
        <time>2018-07-14T13:48:38Z</time>
      </trkpt>
      <trkpt lat="40.684367" lon="-5.108667">
        <ele>3067.0</ele>
        <time>2018-07-14T13:48:39Z</time>
      </trkpt>
      <trkpt lat="40.684467" lon="-5.108633">
        <ele>3071.0</ele>
        <time>2018-07-14T13:48:40Z</time>
      </trkpt>
      <trkpt lat="40.684583" lon="-5.108533">
        <ele>3075.0</ele>
        <time>2018-07-14T13:48:41Z</time>
      </trkpt>
      <trkpt lat="40.684650" lon="-5.108383">
        <ele>3079.0</ele>
        <time>2018-07-14T13:48:42Z</time>
      </trkpt>
      <trkpt lat="40.684700" lon="-5.108200">
        <ele>3083.0</ele>
        <time>2018-07-14T13:48:43Z</time>
      </trkpt>
      <trkpt lat="40.684700" lon="-5.108000">
        <ele>3086.0</ele>
        <time>2018-07-14T13:48:44Z</time>
      </trkpt>
      <trkpt lat="40.684683" lon="-5.107833">
        <ele>3090.0</ele>
        <time>2018-07-14T13:48:45Z</time>
      </trkpt>
      <trkpt lat="40.684667" lon="-5.107683">
        <ele>3094.0</ele>
        <time>2018-07-14T13:48:46Z</time>
      </trkpt>
      <trkpt lat="40.684617" lon="-5.107550">
        <ele>3098.0</ele>
        <time>2018-07-14T13:48:47Z</time>
      </trkpt>
      <trkpt lat="40.684550" lon="-5.107433">
        <ele>3101.0</ele>
        <time>2018-07-14T13:48:48Z</time>
      </trkpt>
      <trkpt lat="40.684483" lon="-5.107350">
        <ele>3105.0</ele>
        <time>2018-07-14T13:48:49Z</time>
      </trkpt>
      <trkpt lat="40.684417" lon="-5.107317">
        <ele>3109.0</ele>
        <time>2018-07-14T13:48:50Z</time>
      </trkpt>
      <trkpt lat="40.684367" lon="-5.107333">
        <ele>3112.0</ele>
        <time>2018-07-14T13:48:51Z</time>
      </trkpt>
      <trkpt lat="40.684367" lon="-5.107383">
        <ele>3116.0</ele>
        <time>2018-07-14T13:48:52Z</time>
      </trkpt>
      <trkpt lat="40.684400" lon="-5.107450">
        <ele>3118.0</ele>
        <time>2018-07-14T13:48:53Z</time>
      </trkpt>
      <trkpt lat="40.684467" lon="-5.107450">
        <ele>3121.0</ele>
        <time>2018-07-14T13:48:54Z</time>
      </trkpt>
      <trkpt lat="40.684567" lon="-5.107483">
        <ele>3112.0</ele>
        <time>2018-07-14T13:48:55Z</time>
      </trkpt>
      <trkpt lat="40.684667" lon="-5.107500">
        <ele>3114.0</ele>
        <time>2018-07-14T13:48:56Z</time>
      </trkpt>
      <trkpt lat="40.684767" lon="-5.107517">
        <ele>3118.0</ele>
        <time>2018-07-14T13:48:57Z</time>
      </trkpt>
      <trkpt lat="40.684850" lon="-5.107483">
        <ele>3125.0</ele>
        <time>2018-07-14T13:48:58Z</time>
      </trkpt>
      <trkpt lat="40.684933" lon="-5.107433">
        <ele>3132.0</ele>
        <time>2018-07-14T13:48:59Z</time>
      </trkpt>
      <trkpt lat="40.685017" lon="-5.107383">
        <ele>3137.0</ele>
        <time>2018-07-14T13:49:00Z</time>
      </trkpt>
      <trkpt lat="40.685117" lon="-5.107317">
        <ele>3141.0</ele>
        <time>2018-07-14T13:49:01Z</time>
      </trkpt>
      <trkpt lat="40.685217" lon="-5.107217">
        <ele>3144.0</ele>
        <time>2018-07-14T13:49:02Z</time>
      </trkpt>
      <trkpt lat="40.685350" lon="-5.107100">
        <ele>3145.0</ele>
        <time>2018-07-14T13:49:03Z</time>
      </trkpt>
      <trkpt lat="40.685483" lon="-5.107017">
        <ele>3144.0</ele>
        <time>2018-07-14T13:49:04Z</time>
      </trkpt>
      <trkpt lat="40.685600" lon="-5.106933">
        <ele>3145.0</ele>
        <time>2018-07-14T13:49:05Z</time>
      </trkpt>
      <trkpt lat="40.685700" lon="-5.106850">
        <ele>3146.0</ele>
        <time>2018-07-14T13:49:06Z</time>
      </trkpt>
      <trkpt lat="40.685800" lon="-5.106733">
        <ele>3147.0</ele>
        <time>2018-07-14T13:49:07Z</time>
      </trkpt>
      <trkpt lat="40.685883" lon="-5.106633">
        <ele>3147.0</ele>
        <time>2018-07-14T13:49:08Z</time>
      </trkpt>
      <trkpt lat="40.685967" lon="-5.106533">
        <ele>3146.0</ele>
        <time>2018-07-14T13:49:09Z</time>
      </trkpt>
      <trkpt lat="40.686067" lon="-5.106433">
        <ele>3145.0</ele>
        <time>2018-07-14T13:49:10Z</time>
      </trkpt>
      <trkpt lat="40.686150" lon="-5.106333">
        <ele>3143.0</ele>
        <time>2018-07-14T13:49:11Z</time>
      </trkpt>
      <trkpt lat="40.686250" lon="-5.106233">
        <ele>3141.0</ele>
        <time>2018-07-14T13:49:12Z</time>
      </trkpt>
      <trkpt lat="40.686333" lon="-5.106133">
        <ele>3139.0</ele>
        <time>2018-07-14T13:49:13Z</time>
      </trkpt>
      <trkpt lat="40.686417" lon="-5.106017">
        <ele>3137.0</ele>
        <time>2018-07-14T13:49:14Z</time>
      </trkpt>
      <trkpt lat="40.686500" lon="-5.105900">
        <ele>3135.0</ele>
        <time>2018-07-14T13:49:15Z</time>
      </trkpt>
      <trkpt lat="40.686600" lon="-5.105783">
        <ele>3133.0</ele>
        <time>2018-07-14T13:49:16Z</time>
      </trkpt>
      <trkpt lat="40.686683" lon="-5.105683">
        <ele>3131.0</ele>
        <time>2018-07-14T13:49:17Z</time>
      </trkpt>
      <trkpt lat="40.686767" lon="-5.105600">
        <ele>3129.0</ele>
        <time>2018-07-14T13:49:18Z</time>
      </trkpt>
      <trkpt lat="40.686850" lon="-5.105500">
        <ele>3127.0</ele>
        <time>2018-07-14T13:49:19Z</time>
      </trkpt>
      <trkpt lat="40.686933" lon="-5.105417">
        <ele>3125.0</ele>
        <time>2018-07-14T13:49:20Z</time>
      </trkpt>
      <trkpt lat="40.687017" lon="-5.105317">
        <ele>3124.0</ele>
        <time>2018-07-14T13:49:21Z</time>
      </trkpt>
      <trkpt lat="40.687100" lon="-5.105233">
        <ele>3123.0</ele>
        <time>2018-07-14T13:49:22Z</time>
      </trkpt>
      <trkpt lat="40.687167" lon="-5.105133">
        <ele>3121.0</ele>
        <time>2018-07-14T13:49:23Z</time>
      </trkpt>
      <trkpt lat="40.687233" lon="-5.105050">
        <ele>3118.0</ele>
        <time>2018-07-14T13:49:24Z</time>
      </trkpt>
      <trkpt lat="40.687317" lon="-5.104950">
        <ele>3115.0</ele>
        <time>2018-07-14T13:49:25Z</time>
      </trkpt>
      <trkpt lat="40.687400" lon="-5.104850">
        <ele>3112.0</ele>
        <time>2018-07-14T13:49:26Z</time>
      </trkpt>
      <trkpt lat="40.687483" lon="-5.104767">
        <ele>3110.0</ele>
        <time>2018-07-14T13:49:27Z</time>
      </trkpt>
      <trkpt lat="40.687567" lon="-5.104683">
        <ele>3108.0</ele>
        <time>2018-07-14T13:49:28Z</time>
      </trkpt>
      <trkpt lat="40.687650" lon="-5.104600">
        <ele>3105.0</ele>
        <time>2018-07-14T13:49:29Z</time>
      </trkpt>
      <trkpt lat="40.687733" lon="-5.104500">
        <ele>3103.0</ele>
        <time>2018-07-14T13:49:30Z</time>
      </trkpt>
      <trkpt lat="40.687833" lon="-5.104383">
        <ele>3100.0</ele>
        <time>2018-07-14T13:49:31Z</time>
      </trkpt>
      <trkpt lat="40.687933" lon="-5.104283">
        <ele>3097.0</ele>
        <time>2018-07-14T13:49:32Z</time>
      </trkpt>
      <trkpt lat="40.688033" lon="-5.104200">
        <ele>3096.0</ele>
        <time>2018-07-14T13:49:33Z</time>
      </trkpt>
      <trkpt lat="40.688117" lon="-5.104133">
        <ele>3095.0</ele>
        <time>2018-07-14T13:49:34Z</time>
      </trkpt>
      <trkpt lat="40.688200" lon="-5.104083">
        <ele>3094.0</ele>
        <time>2018-07-14T13:49:35Z</time>
      </trkpt>
      <trkpt lat="40.688283" lon="-5.104017">
        <ele>3092.0</ele>
        <time>2018-07-14T13:49:36Z</time>
      </trkpt>
      <trkpt lat="40.688383" lon="-5.103950">
        <ele>3088.0</ele>
        <time>2018-07-14T13:49:37Z</time>
      </trkpt>
      <trkpt lat="40.688483" lon="-5.103867">
        <ele>3085.0</ele>
        <time>2018-07-14T13:49:38Z</time>
      </trkpt>
      <trkpt lat="40.688567" lon="-5.103767">
        <ele>3082.0</ele>
        <time>2018-07-14T13:49:39Z</time>
      </trkpt>
      <trkpt lat="40.688667" lon="-5.103700">
        <ele>3080.0</ele>
        <time>2018-07-14T13:49:40Z</time>
      </trkpt>
      <trkpt lat="40.688750" lon="-5.103633">
        <ele>3078.0</ele>
        <time>2018-07-14T13:49:41Z</time>
      </trkpt>
      <trkpt lat="40.688850" lon="-5.103567">
        <ele>3076.0</ele>
        <time>2018-07-14T13:49:42Z</time>
      </trkpt>
      <trkpt lat="40.688933" lon="-5.103500">
        <ele>3075.0</ele>
        <time>2018-07-14T13:49:43Z</time>
      </trkpt>
      <trkpt lat="40.689033" lon="-5.103450">
        <ele>3074.0</ele>
        <time>2018-07-14T13:49:44Z</time>
      </trkpt>
      <trkpt lat="40.689133" lon="-5.103400">
        <ele>3073.0</ele>
        <time>2018-07-14T13:49:45Z</time>
      </trkpt>
      <trkpt lat="40.689217" lon="-5.103350">
        <ele>3071.0</ele>
        <time>2018-07-14T13:49:46Z</time>
      </trkpt>
      <trkpt lat="40.689300" lon="-5.103267">
        <ele>3070.0</ele>
        <time>2018-07-14T13:49:47Z</time>
      </trkpt>
      <trkpt lat="40.689383" lon="-5.103167">
        <ele>3067.0</ele>
        <time>2018-07-14T13:49:48Z</time>
      </trkpt>
      <trkpt lat="40.689467" lon="-5.103067">
        <ele>3064.0</ele>
        <time>2018-07-14T13:49:49Z</time>
      </trkpt>
      <trkpt lat="40.689567" lon="-5.102983">
        <ele>3061.0</ele>
        <time>2018-07-14T13:49:50Z</time>
      </trkpt>
      <trkpt lat="40.689667" lon="-5.102883">
        <ele>3058.0</ele>
        <time>2018-07-14T13:49:51Z</time>
      </trkpt>
      <trkpt lat="40.689767" lon="-5.102800">
        <ele>3055.0</ele>
        <time>2018-07-14T13:49:52Z</time>
      </trkpt>
      <trkpt lat="40.689867" lon="-5.102717">
        <ele>3053.0</ele>
        <time>2018-07-14T13:49:53Z</time>
      </trkpt>
      <trkpt lat="40.689950" lon="-5.102633">
        <ele>3051.0</ele>
        <time>2018-07-14T13:49:54Z</time>
      </trkpt>
      <trkpt lat="40.690033" lon="-5.102533">
        <ele>3049.0</ele>
        <time>2018-07-14T13:49:55Z</time>
      </trkpt>
      <trkpt lat="40.690117" lon="-5.102417">
        <ele>3046.0</ele>
        <time>2018-07-14T13:49:56Z</time>
      </trkpt>
      <trkpt lat="40.690217" lon="-5.102317">
        <ele>3044.0</ele>
        <time>2018-07-14T13:49:57Z</time>
      </trkpt>
      <trkpt lat="40.690300" lon="-5.102217">
        <ele>3041.0</ele>
        <time>2018-07-14T13:49:58Z</time>
      </trkpt>
      <trkpt lat="40.690400" lon="-5.102133">
        <ele>3039.0</ele>
        <time>2018-07-14T13:49:59Z</time>
      </trkpt>
      <trkpt lat="40.690483" lon="-5.102067">
        <ele>3037.0</ele>
        <time>2018-07-14T13:50:00Z</time>
      </trkpt>
      <trkpt lat="40.690567" lon="-5.102000">
        <ele>3035.0</ele>
        <time>2018-07-14T13:50:01Z</time>
      </trkpt>
      <trkpt lat="40.690650" lon="-5.101933">
        <ele>3033.0</ele>
        <time>2018-07-14T13:50:02Z</time>
      </trkpt>
      <trkpt lat="40.690733" lon="-5.101883">
        <ele>3031.0</ele>
        <time>2018-07-14T13:50:03Z</time>
      </trkpt>
      <trkpt lat="40.690817" lon="-5.101833">
        <ele>3029.0</ele>
        <time>2018-07-14T13:50:04Z</time>
      </trkpt>
      <trkpt lat="40.690900" lon="-5.101767">
        <ele>3027.0</ele>
        <time>2018-07-14T13:50:05Z</time>
      </trkpt>
      <trkpt lat="40.691000" lon="-5.101717">
        <ele>3024.0</ele>
        <time>2018-07-14T13:50:06Z</time>
      </trkpt>
      <trkpt lat="40.691083" lon="-5.101633">
        <ele>3022.0</ele>
        <time>2018-07-14T13:50:07Z</time>
      </trkpt>
      <trkpt lat="40.691167" lon="-5.101567">
        <ele>3020.0</ele>
        <time>2018-07-14T13:50:08Z</time>
      </trkpt>
      <trkpt lat="40.691233" lon="-5.101500">
        <ele>3018.0</ele>
        <time>2018-07-14T13:50:09Z</time>
      </trkpt>
      <trkpt lat="40.691317" lon="-5.101433">
        <ele>3016.0</ele>
        <time>2018-07-14T13:50:10Z</time>
      </trkpt>
      <trkpt lat="40.691400" lon="-5.101367">
        <ele>3015.0</ele>
        <time>2018-07-14T13:50:11Z</time>
      </trkpt>
      <trkpt lat="40.691483" lon="-5.101300">
        <ele>3013.0</ele>
        <time>2018-07-14T13:50:12Z</time>
      </trkpt>
      <trkpt lat="40.691567" lon="-5.101233">
        <ele>3011.0</ele>
        <time>2018-07-14T13:50:13Z</time>
      </trkpt>
      <trkpt lat="40.691650" lon="-5.101150">
        <ele>3009.0</ele>
        <time>2018-07-14T13:50:14Z</time>
      </trkpt>
      <trkpt lat="40.691733" lon="-5.101083">
        <ele>3008.0</ele>
        <time>2018-07-14T13:50:15Z</time>
      </trkpt>
      <trkpt lat="40.691817" lon="-5.101000">
        <ele>3006.0</ele>
        <time>2018-07-14T13:50:16Z</time>
      </trkpt>
      <trkpt lat="40.691900" lon="-5.100933">
        <ele>3005.0</ele>
        <time>2018-07-14T13:50:17Z</time>
      </trkpt>
      <trkpt lat="40.691983" lon="-5.100850">
        <ele>3004.0</ele>
        <time>2018-07-14T13:50:18Z</time>
      </trkpt>
      <trkpt lat="40.692067" lon="-5.100783">
        <ele>3003.0</ele>
        <time>2018-07-14T13:50:19Z</time>
      </trkpt>
      <trkpt lat="40.692150" lon="-5.100717">
        <ele>3002.0</ele>
        <time>2018-07-14T13:50:20Z</time>
      </trkpt>
      <trkpt lat="40.692250" lon="-5.100650">
        <ele>3001.0</ele>
        <time>2018-07-14T13:50:21Z</time>
      </trkpt>
      <trkpt lat="40.692333" lon="-5.100600">
        <ele>3000.0</ele>
        <time>2018-07-14T13:50:22Z</time>
      </trkpt>
      <trkpt lat="40.692417" lon="-5.100550">
        <ele>2999.0</ele>
        <time>2018-07-14T13:50:23Z</time>
      </trkpt>
      <trkpt lat="40.692500" lon="-5.100500">
        <ele>2998.0</ele>
        <time>2018-07-14T13:50:24Z</time>
      </trkpt>
      <trkpt lat="40.692583" lon="-5.100433">
        <ele>2997.0</ele>
        <time>2018-07-14T13:50:25Z</time>
      </trkpt>
      <trkpt lat="40.692667" lon="-5.100383">
        <ele>2995.0</ele>
        <time>2018-07-14T13:50:26Z</time>
      </trkpt>
      <trkpt lat="40.692767" lon="-5.100317">
        <ele>2993.0</ele>
        <time>2018-07-14T13:50:27Z</time>
      </trkpt>
      <trkpt lat="40.692850" lon="-5.100250">
        <ele>2991.0</ele>
        <time>2018-07-14T13:50:28Z</time>
      </trkpt>
      <trkpt lat="40.692933" lon="-5.100183">
        <ele>2990.0</ele>
        <time>2018-07-14T13:50:29Z</time>
      </trkpt>
      <trkpt lat="40.693033" lon="-5.100133">
        <ele>2988.0</ele>
        <time>2018-07-14T13:50:30Z</time>
      </trkpt>
      <trkpt lat="40.693117" lon="-5.100083">
        <ele>2987.0</ele>
        <time>2018-07-14T13:50:31Z</time>
      </trkpt>
      <trkpt lat="40.693217" lon="-5.100017">
        <ele>2986.0</ele>
        <time>2018-07-14T13:50:32Z</time>
      </trkpt>
      <trkpt lat="40.693300" lon="-5.099950">
        <ele>2985.0</ele>
        <time>2018-07-14T13:50:33Z</time>
      </trkpt>
      <trkpt lat="40.693400" lon="-5.099900">
        <ele>2984.0</ele>
        <time>2018-07-14T13:50:34Z</time>
      </trkpt>
      <trkpt lat="40.693500" lon="-5.099833">
        <ele>2983.0</ele>
        <time>2018-07-14T13:50:35Z</time>
      </trkpt>
      <trkpt lat="40.693600" lon="-5.099783">
        <ele>2982.0</ele>
        <time>2018-07-14T13:50:36Z</time>
      </trkpt>
      <trkpt lat="40.693700" lon="-5.099733">
        <ele>2982.0</ele>
        <time>2018-07-14T13:50:37Z</time>
      </trkpt>
      <trkpt lat="40.693800" lon="-5.099667">
        <ele>2982.0</ele>
        <time>2018-07-14T13:50:38Z</time>
      </trkpt>
      <trkpt lat="40.693900" lon="-5.099600">
        <ele>2983.0</ele>
        <time>2018-07-14T13:50:39Z</time>
      </trkpt>
      <trkpt lat="40.694017" lon="-5.099533">
        <ele>2982.0</ele>
        <time>2018-07-14T13:50:40Z</time>
      </trkpt>
      <trkpt lat="40.694117" lon="-5.099467">
        <ele>2982.0</ele>
        <time>2018-07-14T13:50:41Z</time>
      </trkpt>
      <trkpt lat="40.694217" lon="-5.099400">
        <ele>2983.0</ele>
        <time>2018-07-14T13:50:42Z</time>
      </trkpt>
      <trkpt lat="40.694300" lon="-5.099333">
        <ele>2982.0</ele>
        <time>2018-07-14T13:50:43Z</time>
      </trkpt>
      <trkpt lat="40.694417" lon="-5.099267">
        <ele>2982.0</ele>
        <time>2018-07-14T13:50:44Z</time>
      </trkpt>
      <trkpt lat="40.694517" lon="-5.099200">
        <ele>2981.0</ele>
        <time>2018-07-14T13:50:45Z</time>
      </trkpt>
      <trkpt lat="40.694600" lon="-5.099133">
        <ele>2981.0</ele>
        <time>2018-07-14T13:50:46Z</time>
      </trkpt>
      <trkpt lat="40.694700" lon="-5.099067">
        <ele>2981.0</ele>
        <time>2018-07-14T13:50:47Z</time>
      </trkpt>
      <trkpt lat="40.694783" lon="-5.099000">
        <ele>2981.0</ele>
        <time>2018-07-14T13:50:48Z</time>
      </trkpt>
      <trkpt lat="40.694883" lon="-5.098933">
        <ele>2982.0</ele>
        <time>2018-07-14T13:50:49Z</time>
      </trkpt>
      <trkpt lat="40.694967" lon="-5.098867">
        <ele>2981.0</ele>
        <time>2018-07-14T13:50:50Z</time>
      </trkpt>
      <trkpt lat="40.695067" lon="-5.098783">
        <ele>2980.0</ele>
        <time>2018-07-14T13:50:51Z</time>
      </trkpt>
      <trkpt lat="40.695167" lon="-5.098733">
        <ele>2979.0</ele>
        <time>2018-07-14T13:50:52Z</time>
      </trkpt>
      <trkpt lat="40.695250" lon="-5.098667">
        <ele>2979.0</ele>
        <time>2018-07-14T13:50:53Z</time>
      </trkpt>
      <trkpt lat="40.695350" lon="-5.098600">
        <ele>2978.0</ele>
        <time>2018-07-14T13:50:54Z</time>
      </trkpt>
      <trkpt lat="40.695450" lon="-5.098533">
        <ele>2978.0</ele>
        <time>2018-07-14T13:50:55Z</time>
      </trkpt>
      <trkpt lat="40.695533" lon="-5.098467">
        <ele>2977.0</ele>
        <time>2018-07-14T13:50:56Z</time>
      </trkpt>
      <trkpt lat="40.695617" lon="-5.098400">
        <ele>2976.0</ele>
        <time>2018-07-14T13:50:57Z</time>
      </trkpt>
      <trkpt lat="40.695717" lon="-5.098333">
        <ele>2976.0</ele>
        <time>2018-07-14T13:50:58Z</time>
      </trkpt>
      <trkpt lat="40.695800" lon="-5.098267">
        <ele>2976.0</ele>
        <time>2018-07-14T13:50:59Z</time>
      </trkpt>
      <trkpt lat="40.696267" lon="-5.097967">
        <ele>2976.0</ele>
        <time>2018-07-14T13:51:04Z</time>
      </trkpt>
      <trkpt lat="40.696450" lon="-5.097867">
        <ele>2975.0</ele>
        <time>2018-07-14T13:51:06Z</time>
      </trkpt>
      <trkpt lat="40.696650" lon="-5.097783">
        <ele>2973.0</ele>
        <time>2018-07-14T13:51:08Z</time>
      </trkpt>
      <trkpt lat="40.696850" lon="-5.097717">
        <ele>2972.0</ele>
        <time>2018-07-14T13:51:10Z</time>
      </trkpt>
      <trkpt lat="40.696950" lon="-5.097700">
        <ele>2971.0</ele>
        <time>2018-07-14T13:51:11Z</time>
      </trkpt>
      <trkpt lat="40.697050" lon="-5.097650">
        <ele>2970.0</ele>
        <time>2018-07-14T13:51:12Z</time>
      </trkpt>
      <trkpt lat="40.697133" lon="-5.097617">
        <ele>2969.0</ele>
        <time>2018-07-14T13:51:13Z</time>
      </trkpt>
      <trkpt lat="40.697233" lon="-5.097567">
        <ele>2968.0</ele>
        <time>2018-07-14T13:51:14Z</time>
      </trkpt>
      <trkpt lat="40.697317" lon="-5.097533">
        <ele>2968.0</ele>
        <time>2018-07-14T13:51:15Z</time>
      </trkpt>
      <trkpt lat="40.697450" lon="-5.097450">
        <ele>2968.0</ele>
        <time>2018-07-14T13:51:17Z</time>
      </trkpt>
      <trkpt lat="40.697517" lon="-5.097400">
        <ele>2966.0</ele>
        <time>2018-07-14T13:51:18Z</time>
      </trkpt>
      <trkpt lat="40.697600" lon="-5.097367">
        <ele>2964.0</ele>
        <time>2018-07-14T13:51:19Z</time>
      </trkpt>
      <trkpt lat="40.697700" lon="-5.097333">
        <ele>2960.0</ele>
        <time>2018-07-14T13:51:20Z</time>
      </trkpt>
      <trkpt lat="40.697783" lon="-5.097300">
        <ele>2958.0</ele>
        <time>2018-07-14T13:51:21Z</time>
      </trkpt>
      <trkpt lat="40.697883" lon="-5.097267">
        <ele>2956.0</ele>
        <time>2018-07-14T13:51:22Z</time>
      </trkpt>
      <trkpt lat="40.697967" lon="-5.097233">
        <ele>2955.0</ele>
        <time>2018-07-14T13:51:23Z</time>
      </trkpt>
      <trkpt lat="40.698050" lon="-5.097200">
        <ele>2954.0</ele>
        <time>2018-07-14T13:51:24Z</time>
      </trkpt>
      <trkpt lat="40.698133" lon="-5.097167">
        <ele>2953.0</ele>
        <time>2018-07-14T13:51:25Z</time>
      </trkpt>
      <trkpt lat="40.698217" lon="-5.097133">
        <ele>2952.0</ele>
        <time>2018-07-14T13:51:26Z</time>
      </trkpt>
      <trkpt lat="40.698300" lon="-5.097100">
        <ele>2950.0</ele>
        <time>2018-07-14T13:51:27Z</time>
      </trkpt>
      <trkpt lat="40.698400" lon="-5.097050">
        <ele>2948.0</ele>
        <time>2018-07-14T13:51:28Z</time>
      </trkpt>
      <trkpt lat="40.698500" lon="-5.097000">
        <ele>2948.0</ele>
        <time>2018-07-14T13:51:29Z</time>
      </trkpt>
      <trkpt lat="40.698600" lon="-5.096967">
        <ele>2948.0</ele>
        <time>2018-07-14T13:51:30Z</time>
      </trkpt>
      <trkpt lat="40.698683" lon="-5.096917">
        <ele>2948.0</ele>
        <time>2018-07-14T13:51:31Z</time>
      </trkpt>
      <trkpt lat="40.698750" lon="-5.096883">
        <ele>2948.0</ele>
        <time>2018-07-14T13:51:32Z</time>
      </trkpt>
      <trkpt lat="40.698833" lon="-5.096850">
        <ele>2948.0</ele>
        <time>2018-07-14T13:51:33Z</time>
      </trkpt>
      <trkpt lat="40.698933" lon="-5.096817">
        <ele>2947.0</ele>
        <time>2018-07-14T13:51:34Z</time>
      </trkpt>
      <trkpt lat="40.699117" lon="-5.096717">
        <ele>2944.0</ele>
        <time>2018-07-14T13:51:36Z</time>
      </trkpt>
      <trkpt lat="40.699217" lon="-5.096667">
        <ele>2944.0</ele>
        <time>2018-07-14T13:51:37Z</time>
      </trkpt>
      <trkpt lat="40.699300" lon="-5.096617">
        <ele>2945.0</ele>
        <time>2018-07-14T13:51:38Z</time>
      </trkpt>
      <trkpt lat="40.699350" lon="-5.096567">
        <ele>2945.0</ele>
        <time>2018-07-14T13:51:39Z</time>
      </trkpt>
      <trkpt lat="40.699433" lon="-5.096517">
        <ele>2945.0</ele>
        <time>2018-07-14T13:51:40Z</time>
      </trkpt>
      <trkpt lat="40.699500" lon="-5.096467">
        <ele>2943.0</ele>
        <time>2018-07-14T13:51:41Z</time>
      </trkpt>
      <trkpt lat="40.699700" lon="-5.096367">
        <ele>2938.0</ele>
        <time>2018-07-14T13:51:43Z</time>
      </trkpt>
      <trkpt lat="40.699800" lon="-5.096317">
        <ele>2937.0</ele>
        <time>2018-07-14T13:51:44Z</time>
      </trkpt>
      <trkpt lat="40.699883" lon="-5.096267">
        <ele>2937.0</ele>
        <time>2018-07-14T13:51:45Z</time>
      </trkpt>
      <trkpt lat="40.699967" lon="-5.096200">
        <ele>2936.0</ele>
        <time>2018-07-14T13:51:46Z</time>
      </trkpt>
      <trkpt lat="40.700033" lon="-5.096133">
        <ele>2936.0</ele>
        <time>2018-07-14T13:51:47Z</time>
      </trkpt>
      <trkpt lat="40.700117" lon="-5.096067">
        <ele>2935.0</ele>
        <time>2018-07-14T13:51:48Z</time>
      </trkpt>
      <trkpt lat="40.700217" lon="-5.096017">
        <ele>2933.0</ele>
        <time>2018-07-14T13:51:49Z</time>
      </trkpt>
      <trkpt lat="40.700317" lon="-5.095950">
        <ele>2932.0</ele>
        <time>2018-07-14T13:51:50Z</time>
      </trkpt>
      <trkpt lat="40.700400" lon="-5.095883">
        <ele>2932.0</ele>
        <time>2018-07-14T13:51:51Z</time>
      </trkpt>
      <trkpt lat="40.700483" lon="-5.095817">
        <ele>2932.0</ele>
        <time>2018-07-14T13:51:52Z</time>
      </trkpt>
      <trkpt lat="40.700567" lon="-5.095750">
        <ele>2932.0</ele>
        <time>2018-07-14T13:51:53Z</time>
      </trkpt>
      <trkpt lat="40.700650" lon="-5.095683">
        <ele>2932.0</ele>
        <time>2018-07-14T13:51:54Z</time>
      </trkpt>
      <trkpt lat="40.700750" lon="-5.095617">
        <ele>2932.0</ele>
        <time>2018-07-14T13:51:55Z</time>
      </trkpt>
      <trkpt lat="40.700833" lon="-5.095550">
        <ele>2931.0</ele>
        <time>2018-07-14T13:51:56Z</time>
      </trkpt>
      <trkpt lat="40.700917" lon="-5.095500">
        <ele>2931.0</ele>
        <time>2018-07-14T13:51:57Z</time>
      </trkpt>
      <trkpt lat="40.701000" lon="-5.095450">
        <ele>2930.0</ele>
        <time>2018-07-14T13:51:58Z</time>
      </trkpt>
      <trkpt lat="40.701083" lon="-5.095400">
        <ele>2930.0</ele>
        <time>2018-07-14T13:51:59Z</time>
      </trkpt>
      <trkpt lat="40.701167" lon="-5.095350">
        <ele>2929.0</ele>
        <time>2018-07-14T13:52:00Z</time>
      </trkpt>
      <trkpt lat="40.701250" lon="-5.095300">
        <ele>2929.0</ele>
        <time>2018-07-14T13:52:01Z</time>
      </trkpt>
      <trkpt lat="40.701333" lon="-5.095267">
        <ele>2929.0</ele>
        <time>2018-07-14T13:52:02Z</time>
      </trkpt>
      <trkpt lat="40.701417" lon="-5.095233">
        <ele>2929.0</ele>
        <time>2018-07-14T13:52:03Z</time>
      </trkpt>
      <trkpt lat="40.701500" lon="-5.095200">
        <ele>2930.0</ele>
        <time>2018-07-14T13:52:04Z</time>
      </trkpt>
      <trkpt lat="40.701567" lon="-5.095167">
        <ele>2930.0</ele>
        <time>2018-07-14T13:52:05Z</time>
      </trkpt>
      <trkpt lat="40.701650" lon="-5.095133">
        <ele>2930.0</ele>
        <time>2018-07-14T13:52:06Z</time>
      </trkpt>
      <trkpt lat="40.701717" lon="-5.095083">
        <ele>2930.0</ele>
        <time>2018-07-14T13:52:07Z</time>
      </trkpt>
      <trkpt lat="40.701800" lon="-5.095050">
        <ele>2929.0</ele>
        <time>2018-07-14T13:52:08Z</time>
      </trkpt>
      <trkpt lat="40.701883" lon="-5.095000">
        <ele>2929.0</ele>
        <time>2018-07-14T13:52:09Z</time>
      </trkpt>
      <trkpt lat="40.701983" lon="-5.094950">
        <ele>2928.0</ele>
        <time>2018-07-14T13:52:10Z</time>
      </trkpt>
      <trkpt lat="40.702083" lon="-5.094900">
        <ele>2927.0</ele>
        <time>2018-07-14T13:52:11Z</time>
      </trkpt>
      <trkpt lat="40.702167" lon="-5.094850">
        <ele>2926.0</ele>
        <time>2018-07-14T13:52:12Z</time>
      </trkpt>
      <trkpt lat="40.702267" lon="-5.094817">
        <ele>2926.0</ele>
        <time>2018-07-14T13:52:13Z</time>
      </trkpt>
      <trkpt lat="40.702350" lon="-5.094767">
        <ele>2926.0</ele>
        <time>2018-07-14T13:52:14Z</time>
      </trkpt>
      <trkpt lat="40.702450" lon="-5.094717">
        <ele>2926.0</ele>
        <time>2018-07-14T13:52:15Z</time>
      </trkpt>
      <trkpt lat="40.702550" lon="-5.094667">
        <ele>2926.0</ele>
        <time>2018-07-14T13:52:16Z</time>
      </trkpt>
      <trkpt lat="40.702633" lon="-5.094617">
        <ele>2926.0</ele>
        <time>2018-07-14T13:52:17Z</time>
      </trkpt>
      <trkpt lat="40.702717" lon="-5.094583">
        <ele>2926.0</ele>
        <time>2018-07-14T13:52:18Z</time>
      </trkpt>
      <trkpt lat="40.702800" lon="-5.094550">
        <ele>2926.0</ele>
        <time>2018-07-14T13:52:19Z</time>
      </trkpt>
      <trkpt lat="40.702883" lon="-5.094500">
        <ele>2926.0</ele>
        <time>2018-07-14T13:52:20Z</time>
      </trkpt>
      <trkpt lat="40.702983" lon="-5.094467">
        <ele>2926.0</ele>
        <time>2018-07-14T13:52:21Z</time>
      </trkpt>
      <trkpt lat="40.703067" lon="-5.094417">
        <ele>2926.0</ele>
        <time>2018-07-14T13:52:22Z</time>
      </trkpt>
      <trkpt lat="40.703150" lon="-5.094367">
        <ele>2926.0</ele>
        <time>2018-07-14T13:52:23Z</time>
      </trkpt>
      <trkpt lat="40.703250" lon="-5.094317">
        <ele>2926.0</ele>
        <time>2018-07-14T13:52:24Z</time>
      </trkpt>
      <trkpt lat="40.703333" lon="-5.094250">
        <ele>2926.0</ele>
        <time>2018-07-14T13:52:25Z</time>
      </trkpt>
      <trkpt lat="40.703433" lon="-5.094200">
        <ele>2926.0</ele>
        <time>2018-07-14T13:52:26Z</time>
      </trkpt>
      <trkpt lat="40.703517" lon="-5.094150">
        <ele>2925.0</ele>
        <time>2018-07-14T13:52:27Z</time>
      </trkpt>
      <trkpt lat="40.703600" lon="-5.094083">
        <ele>2925.0</ele>
        <time>2018-07-14T13:52:28Z</time>
      </trkpt>
      <trkpt lat="40.703683" lon="-5.094017">
        <ele>2925.0</ele>
        <time>2018-07-14T13:52:29Z</time>
      </trkpt>
      <trkpt lat="40.703767" lon="-5.093967">
        <ele>2925.0</ele>
        <time>2018-07-14T13:52:30Z</time>
      </trkpt>
      <trkpt lat="40.703867" lon="-5.093900">
        <ele>2924.0</ele>
        <time>2018-07-14T13:52:31Z</time>
      </trkpt>
      <trkpt lat="40.703950" lon="-5.093850">
        <ele>2924.0</ele>
        <time>2018-07-14T13:52:32Z</time>
      </trkpt>
      <trkpt lat="40.704033" lon="-5.093800">
        <ele>2925.0</ele>
        <time>2018-07-14T13:52:33Z</time>
      </trkpt>
      <trkpt lat="40.704117" lon="-5.093733">
        <ele>2926.0</ele>
        <time>2018-07-14T13:52:34Z</time>
      </trkpt>
      <trkpt lat="40.704200" lon="-5.093683">
        <ele>2927.0</ele>
        <time>2018-07-14T13:52:35Z</time>
      </trkpt>
      <trkpt lat="40.704267" lon="-5.093617">
        <ele>2927.0</ele>
        <time>2018-07-14T13:52:36Z</time>
      </trkpt>
      <trkpt lat="40.704367" lon="-5.093567">
        <ele>2927.0</ele>
        <time>2018-07-14T13:52:37Z</time>
      </trkpt>
      <trkpt lat="40.704450" lon="-5.093500">
        <ele>2927.0</ele>
        <time>2018-07-14T13:52:38Z</time>
      </trkpt>
      <trkpt lat="40.704550" lon="-5.093433">
        <ele>2927.0</ele>
        <time>2018-07-14T13:52:39Z</time>
      </trkpt>
      <trkpt lat="40.704650" lon="-5.093383">
        <ele>2927.0</ele>
        <time>2018-07-14T13:52:40Z</time>
      </trkpt>
      <trkpt lat="40.704733" lon="-5.093333">
        <ele>2928.0</ele>
        <time>2018-07-14T13:52:41Z</time>
      </trkpt>
      <trkpt lat="40.704817" lon="-5.093283">
        <ele>2929.0</ele>
        <time>2018-07-14T13:52:42Z</time>
      </trkpt>
      <trkpt lat="40.704900" lon="-5.093217">
        <ele>2930.0</ele>
        <time>2018-07-14T13:52:43Z</time>
      </trkpt>
      <trkpt lat="40.704983" lon="-5.093150">
        <ele>2929.0</ele>
        <time>2018-07-14T13:52:44Z</time>
      </trkpt>
      <trkpt lat="40.705067" lon="-5.093083">
        <ele>2928.0</ele>
        <time>2018-07-14T13:52:45Z</time>
      </trkpt>
      <trkpt lat="40.705150" lon="-5.093033">
        <ele>2927.0</ele>
        <time>2018-07-14T13:52:46Z</time>
      </trkpt>
      <trkpt lat="40.705250" lon="-5.092983">
        <ele>2926.0</ele>
        <time>2018-07-14T13:52:47Z</time>
      </trkpt>
      <trkpt lat="40.705333" lon="-5.092933">
        <ele>2925.0</ele>
        <time>2018-07-14T13:52:48Z</time>
      </trkpt>
      <trkpt lat="40.705417" lon="-5.092883">
        <ele>2925.0</ele>
        <time>2018-07-14T13:52:49Z</time>
      </trkpt>
      <trkpt lat="40.705517" lon="-5.092833">
        <ele>2924.0</ele>
        <time>2018-07-14T13:52:50Z</time>
      </trkpt>
      <trkpt lat="40.705600" lon="-5.092783">
        <ele>2923.0</ele>
        <time>2018-07-14T13:52:51Z</time>
      </trkpt>
      <trkpt lat="40.705700" lon="-5.092717">
        <ele>2923.0</ele>
        <time>2018-07-14T13:52:52Z</time>
      </trkpt>
      <trkpt lat="40.705783" lon="-5.092650">
        <ele>2922.0</ele>
        <time>2018-07-14T13:52:53Z</time>
      </trkpt>
      <trkpt lat="40.705867" lon="-5.092583">
        <ele>2922.0</ele>
        <time>2018-07-14T13:52:54Z</time>
      </trkpt>
      <trkpt lat="40.705967" lon="-5.092517">
        <ele>2923.0</ele>
        <time>2018-07-14T13:52:55Z</time>
      </trkpt>
      <trkpt lat="40.706050" lon="-5.092467">
        <ele>2924.0</ele>
        <time>2018-07-14T13:52:56Z</time>
      </trkpt>
      <trkpt lat="40.706133" lon="-5.092417">
        <ele>2925.0</ele>
        <time>2018-07-14T13:52:57Z</time>
      </trkpt>
      <trkpt lat="40.706217" lon="-5.092383">
        <ele>2925.0</ele>
        <time>2018-07-14T13:52:58Z</time>
      </trkpt>
      <trkpt lat="40.706300" lon="-5.092350">
        <ele>2925.0</ele>
        <time>2018-07-14T13:52:59Z</time>
      </trkpt>
      <trkpt lat="40.706383" lon="-5.092317">
        <ele>2923.0</ele>
        <time>2018-07-14T13:53:00Z</time>
      </trkpt>
      <trkpt lat="40.706483" lon="-5.092283">
        <ele>2922.0</ele>
        <time>2018-07-14T13:53:01Z</time>
      </trkpt>
      <trkpt lat="40.706600" lon="-5.092250">
        <ele>2920.0</ele>
        <time>2018-07-14T13:53:02Z</time>
      </trkpt>
      <trkpt lat="40.706700" lon="-5.092217">
        <ele>2920.0</ele>
        <time>2018-07-14T13:53:03Z</time>
      </trkpt>
      <trkpt lat="40.706783" lon="-5.092183">
        <ele>2921.0</ele>
        <time>2018-07-14T13:53:04Z</time>
      </trkpt>
      <trkpt lat="40.706883" lon="-5.092150">
        <ele>2922.0</ele>
        <time>2018-07-14T13:53:05Z</time>
      </trkpt>
      <trkpt lat="40.706967" lon="-5.092117">
        <ele>2923.0</ele>
        <time>2018-07-14T13:53:06Z</time>
      </trkpt>
      <trkpt lat="40.707050" lon="-5.092083">
        <ele>2923.0</ele>
        <time>2018-07-14T13:53:07Z</time>
      </trkpt>
      <trkpt lat="40.707250" lon="-5.092000">
        <ele>2923.0</ele>
        <time>2018-07-14T13:53:09Z</time>
      </trkpt>
      <trkpt lat="40.707350" lon="-5.091950">
        <ele>2923.0</ele>
        <time>2018-07-14T13:53:10Z</time>
      </trkpt>
      <trkpt lat="40.707450" lon="-5.091900">
        <ele>2923.0</ele>
        <time>2018-07-14T13:53:11Z</time>
      </trkpt>
      <trkpt lat="40.707533" lon="-5.091850">
        <ele>2923.0</ele>
        <time>2018-07-14T13:53:12Z</time>
      </trkpt>
      <trkpt lat="40.707633" lon="-5.091800">
        <ele>2923.0</ele>
        <time>2018-07-14T13:53:13Z</time>
      </trkpt>
      <trkpt lat="40.707700" lon="-5.091750">
        <ele>2923.0</ele>
        <time>2018-07-14T13:53:14Z</time>
      </trkpt>
      <trkpt lat="40.707783" lon="-5.091683">
        <ele>2923.0</ele>
        <time>2018-07-14T13:53:15Z</time>
      </trkpt>
      <trkpt lat="40.707867" lon="-5.091633">
        <ele>2922.0</ele>
        <time>2018-07-14T13:53:16Z</time>
      </trkpt>
      <trkpt lat="40.707967" lon="-5.091567">
        <ele>2921.0</ele>
        <time>2018-07-14T13:53:17Z</time>
      </trkpt>
      <trkpt lat="40.708067" lon="-5.091500">
        <ele>2921.0</ele>
        <time>2018-07-14T13:53:18Z</time>
      </trkpt>
      <trkpt lat="40.708150" lon="-5.091433">
        <ele>2920.0</ele>
        <time>2018-07-14T13:53:19Z</time>
      </trkpt>
      <trkpt lat="40.708233" lon="-5.091383">
        <ele>2920.0</ele>
        <time>2018-07-14T13:53:20Z</time>
      </trkpt>
      <trkpt lat="40.708317" lon="-5.091317">
        <ele>2919.0</ele>
        <time>2018-07-14T13:53:21Z</time>
      </trkpt>
      <trkpt lat="40.708400" lon="-5.091250">
        <ele>2918.0</ele>
        <time>2018-07-14T13:53:22Z</time>
      </trkpt>
      <trkpt lat="40.708483" lon="-5.091183">
        <ele>2917.0</ele>
        <time>2018-07-14T13:53:23Z</time>
      </trkpt>
      <trkpt lat="40.708583" lon="-5.091133">
        <ele>2916.0</ele>
        <time>2018-07-14T13:53:24Z</time>
      </trkpt>
      <trkpt lat="40.708667" lon="-5.091083">
        <ele>2916.0</ele>
        <time>2018-07-14T13:53:25Z</time>
      </trkpt>
      <trkpt lat="40.708750" lon="-5.091033">
        <ele>2917.0</ele>
        <time>2018-07-14T13:53:26Z</time>
      </trkpt>
      <trkpt lat="40.708833" lon="-5.090967">
        <ele>2916.0</ele>
        <time>2018-07-14T13:53:27Z</time>
      </trkpt>
      <trkpt lat="40.708917" lon="-5.090900">
        <ele>2915.0</ele>
        <time>2018-07-14T13:53:28Z</time>
      </trkpt>
      <trkpt lat="40.709017" lon="-5.090833">
        <ele>2914.0</ele>
        <time>2018-07-14T13:53:29Z</time>
      </trkpt>
      <trkpt lat="40.709100" lon="-5.090767">
        <ele>2913.0</ele>
        <time>2018-07-14T13:53:30Z</time>
      </trkpt>
      <trkpt lat="40.709183" lon="-5.090717">
        <ele>2912.0</ele>
        <time>2018-07-14T13:53:31Z</time>
      </trkpt>
      <trkpt lat="40.709267" lon="-5.090650">
        <ele>2912.0</ele>
        <time>2018-07-14T13:53:32Z</time>
      </trkpt>
      <trkpt lat="40.709350" lon="-5.090583">
        <ele>2912.0</ele>
        <time>2018-07-14T13:53:33Z</time>
      </trkpt>
      <trkpt lat="40.709433" lon="-5.090533">
        <ele>2911.0</ele>
        <time>2018-07-14T13:53:34Z</time>
      </trkpt>
      <trkpt lat="40.709517" lon="-5.090467">
        <ele>2910.0</ele>
        <time>2018-07-14T13:53:35Z</time>
      </trkpt>
      <trkpt lat="40.709600" lon="-5.090400">
        <ele>2907.0</ele>
        <time>2018-07-14T13:53:36Z</time>
      </trkpt>
      <trkpt lat="40.709700" lon="-5.090333">
        <ele>2905.0</ele>
        <time>2018-07-14T13:53:37Z</time>
      </trkpt>
      <trkpt lat="40.709800" lon="-5.090267">
        <ele>2904.0</ele>
        <time>2018-07-14T13:53:38Z</time>
      </trkpt>
      <trkpt lat="40.709900" lon="-5.090200">
        <ele>2903.0</ele>
        <time>2018-07-14T13:53:39Z</time>
      </trkpt>
      <trkpt lat="40.709983" lon="-5.090133">
        <ele>2902.0</ele>
        <time>2018-07-14T13:53:40Z</time>
      </trkpt>
      <trkpt lat="40.710067" lon="-5.090083">
        <ele>2901.0</ele>
        <time>2018-07-14T13:53:41Z</time>
      </trkpt>
      <trkpt lat="40.710150" lon="-5.090033">
        <ele>2900.0</ele>
        <time>2018-07-14T13:53:42Z</time>
      </trkpt>
      <trkpt lat="40.710250" lon="-5.089967">
        <ele>2899.0</ele>
        <time>2018-07-14T13:53:43Z</time>
      </trkpt>
      <trkpt lat="40.710333" lon="-5.089917">
        <ele>2897.0</ele>
        <time>2018-07-14T13:53:44Z</time>
      </trkpt>
      <trkpt lat="40.710517" lon="-5.089800">
        <ele>2895.0</ele>
        <time>2018-07-14T13:53:46Z</time>
      </trkpt>
      <trkpt lat="40.710583" lon="-5.089750">
        <ele>2894.0</ele>
        <time>2018-07-14T13:53:47Z</time>
      </trkpt>
      <trkpt lat="40.710667" lon="-5.089683">
        <ele>2892.0</ele>
        <time>2018-07-14T13:53:48Z</time>
      </trkpt>
      <trkpt lat="40.710750" lon="-5.089633">
        <ele>2889.0</ele>
        <time>2018-07-14T13:53:49Z</time>
      </trkpt>
      <trkpt lat="40.710833" lon="-5.089583">
        <ele>2887.0</ele>
        <time>2018-07-14T13:53:50Z</time>
      </trkpt>
      <trkpt lat="40.710917" lon="-5.089533">
        <ele>2885.0</ele>
        <time>2018-07-14T13:53:51Z</time>
      </trkpt>
      <trkpt lat="40.711000" lon="-5.089500">
        <ele>2882.0</ele>
        <time>2018-07-14T13:53:52Z</time>
      </trkpt>
      <trkpt lat="40.711083" lon="-5.089467">
        <ele>2880.0</ele>
        <time>2018-07-14T13:53:53Z</time>
      </trkpt>
      <trkpt lat="40.711167" lon="-5.089433">
        <ele>2877.0</ele>
        <time>2018-07-14T13:53:54Z</time>
      </trkpt>
      <trkpt lat="40.711250" lon="-5.089383">
        <ele>2874.0</ele>
        <time>2018-07-14T13:53:55Z</time>
      </trkpt>
      <trkpt lat="40.711350" lon="-5.089333">
        <ele>2871.0</ele>
        <time>2018-07-14T13:53:56Z</time>
      </trkpt>
      <trkpt lat="40.711450" lon="-5.089283">
        <ele>2868.0</ele>
        <time>2018-07-14T13:53:57Z</time>
      </trkpt>
      <trkpt lat="40.711550" lon="-5.089217">
        <ele>2864.0</ele>
        <time>2018-07-14T13:53:58Z</time>
      </trkpt>
      <trkpt lat="40.711650" lon="-5.089167">
        <ele>2860.0</ele>
        <time>2018-07-14T13:53:59Z</time>
      </trkpt>
      <trkpt lat="40.711767" lon="-5.089117">
        <ele>2857.0</ele>
        <time>2018-07-14T13:54:00Z</time>
      </trkpt>
      <trkpt lat="40.711867" lon="-5.089083">
        <ele>2856.0</ele>
        <time>2018-07-14T13:54:01Z</time>
      </trkpt>
      <trkpt lat="40.711967" lon="-5.089033">
        <ele>2854.0</ele>
        <time>2018-07-14T13:54:02Z</time>
      </trkpt>
      <trkpt lat="40.712067" lon="-5.089000">
        <ele>2852.0</ele>
        <time>2018-07-14T13:54:03Z</time>
      </trkpt>
      <trkpt lat="40.712167" lon="-5.088967">
        <ele>2850.0</ele>
        <time>2018-07-14T13:54:04Z</time>
      </trkpt>
      <trkpt lat="40.712267" lon="-5.088917">
        <ele>2848.0</ele>
        <time>2018-07-14T13:54:05Z</time>
      </trkpt>
      <trkpt lat="40.712383" lon="-5.088850">
        <ele>2846.0</ele>
        <time>2018-07-14T13:54:06Z</time>
      </trkpt>
      <trkpt lat="40.712483" lon="-5.088800">
        <ele>2844.0</ele>
        <time>2018-07-14T13:54:07Z</time>
      </trkpt>
      <trkpt lat="40.712600" lon="-5.088750">
        <ele>2843.0</ele>
        <time>2018-07-14T13:54:08Z</time>
      </trkpt>
      <trkpt lat="40.712700" lon="-5.088717">
        <ele>2842.0</ele>
        <time>2018-07-14T13:54:09Z</time>
      </trkpt>
      <trkpt lat="40.712800" lon="-5.088683">
        <ele>2840.0</ele>
        <time>2018-07-14T13:54:10Z</time>
      </trkpt>
      <trkpt lat="40.712900" lon="-5.088633">
        <ele>2838.0</ele>
        <time>2018-07-14T13:54:11Z</time>
      </trkpt>
      <trkpt lat="40.713017" lon="-5.088600">
        <ele>2835.0</ele>
        <time>2018-07-14T13:54:12Z</time>
      </trkpt>
      <trkpt lat="40.713117" lon="-5.088550">
        <ele>2833.0</ele>
        <time>2018-07-14T13:54:13Z</time>
      </trkpt>
      <trkpt lat="40.713217" lon="-5.088500">
        <ele>2831.0</ele>
        <time>2018-07-14T13:54:14Z</time>
      </trkpt>
      <trkpt lat="40.713317" lon="-5.088450">
        <ele>2829.0</ele>
        <time>2018-07-14T13:54:15Z</time>
      </trkpt>
      <trkpt lat="40.713400" lon="-5.088400">
        <ele>2826.0</ele>
        <time>2018-07-14T13:54:16Z</time>
      </trkpt>
      <trkpt lat="40.713483" lon="-5.088350">
        <ele>2823.0</ele>
        <time>2018-07-14T13:54:17Z</time>
      </trkpt>
      <trkpt lat="40.713583" lon="-5.088300">
        <ele>2819.0</ele>
        <time>2018-07-14T13:54:18Z</time>
      </trkpt>
      <trkpt lat="40.713683" lon="-5.088250">
        <ele>2814.0</ele>
        <time>2018-07-14T13:54:19Z</time>
      </trkpt>
      <trkpt lat="40.713800" lon="-5.088217">
        <ele>2808.0</ele>
        <time>2018-07-14T13:54:20Z</time>
      </trkpt>
      <trkpt lat="40.713900" lon="-5.088167">
        <ele>2804.0</ele>
        <time>2018-07-14T13:54:21Z</time>
      </trkpt>
      <trkpt lat="40.714000" lon="-5.088133">
        <ele>2802.0</ele>
        <time>2018-07-14T13:54:22Z</time>
      </trkpt>
      <trkpt lat="40.714083" lon="-5.088117">
        <ele>2799.0</ele>
        <time>2018-07-14T13:54:23Z</time>
      </trkpt>
      <trkpt lat="40.714183" lon="-5.088083">
        <ele>2795.0</ele>
        <time>2018-07-14T13:54:24Z</time>
      </trkpt>
      <trkpt lat="40.714267" lon="-5.088050">
        <ele>2791.0</ele>
        <time>2018-07-14T13:54:25Z</time>
      </trkpt>
      <trkpt lat="40.714367" lon="-5.088017">
        <ele>2788.0</ele>
        <time>2018-07-14T13:54:26Z</time>
      </trkpt>
      <trkpt lat="40.714467" lon="-5.087967">
        <ele>2784.0</ele>
        <time>2018-07-14T13:54:27Z</time>
      </trkpt>
      <trkpt lat="40.714583" lon="-5.087933">
        <ele>2780.0</ele>
        <time>2018-07-14T13:54:28Z</time>
      </trkpt>
      <trkpt lat="40.714683" lon="-5.087900">
        <ele>2776.0</ele>
        <time>2018-07-14T13:54:29Z</time>
      </trkpt>
      <trkpt lat="40.714800" lon="-5.087867">
        <ele>2772.0</ele>
        <time>2018-07-14T13:54:30Z</time>
      </trkpt>
      <trkpt lat="40.714900" lon="-5.087833">
        <ele>2767.0</ele>
        <time>2018-07-14T13:54:31Z</time>
      </trkpt>
      <trkpt lat="40.715000" lon="-5.087817">
        <ele>2762.0</ele>
        <time>2018-07-14T13:54:32Z</time>
      </trkpt>
      <trkpt lat="40.715100" lon="-5.087783">
        <ele>2757.0</ele>
        <time>2018-07-14T13:54:33Z</time>
      </trkpt>
      <trkpt lat="40.715200" lon="-5.087750">
        <ele>2752.0</ele>
        <time>2018-07-14T13:54:34Z</time>
      </trkpt>
      <trkpt lat="40.715317" lon="-5.087700">
        <ele>2747.0</ele>
        <time>2018-07-14T13:54:35Z</time>
      </trkpt>
      <trkpt lat="40.715400" lon="-5.087650">
        <ele>2744.0</ele>
        <time>2018-07-14T13:54:36Z</time>
      </trkpt>
      <trkpt lat="40.715500" lon="-5.087617">
        <ele>2741.0</ele>
        <time>2018-07-14T13:54:37Z</time>
      </trkpt>
      <trkpt lat="40.715583" lon="-5.087567">
        <ele>2737.0</ele>
        <time>2018-07-14T13:54:38Z</time>
      </trkpt>
      <trkpt lat="40.715667" lon="-5.087533">
        <ele>2732.0</ele>
        <time>2018-07-14T13:54:39Z</time>
      </trkpt>
      <trkpt lat="40.715767" lon="-5.087500">
        <ele>2727.0</ele>
        <time>2018-07-14T13:54:40Z</time>
      </trkpt>
      <trkpt lat="40.715867" lon="-5.087467">
        <ele>2722.0</ele>
        <time>2018-07-14T13:54:41Z</time>
      </trkpt>
      <trkpt lat="40.715967" lon="-5.087450">
        <ele>2718.0</ele>
        <time>2018-07-14T13:54:42Z</time>
      </trkpt>
      <trkpt lat="40.716067" lon="-5.087417">
        <ele>2716.0</ele>
        <time>2018-07-14T13:54:43Z</time>
      </trkpt>
      <trkpt lat="40.716150" lon="-5.087383">
        <ele>2713.0</ele>
        <time>2018-07-14T13:54:44Z</time>
      </trkpt>
      <trkpt lat="40.716233" lon="-5.087350">
        <ele>2710.0</ele>
        <time>2018-07-14T13:54:45Z</time>
      </trkpt>
      <trkpt lat="40.716317" lon="-5.087317">
        <ele>2707.0</ele>
        <time>2018-07-14T13:54:46Z</time>
      </trkpt>
      <trkpt lat="40.716417" lon="-5.087283">
        <ele>2704.0</ele>
        <time>2018-07-14T13:54:47Z</time>
      </trkpt>
      <trkpt lat="40.716500" lon="-5.087267">
        <ele>2701.0</ele>
        <time>2018-07-14T13:54:48Z</time>
      </trkpt>
      <trkpt lat="40.716583" lon="-5.087250">
        <ele>2698.0</ele>
        <time>2018-07-14T13:54:49Z</time>
      </trkpt>
      <trkpt lat="40.716667" lon="-5.087217">
        <ele>2695.0</ele>
        <time>2018-07-14T13:54:50Z</time>
      </trkpt>
      <trkpt lat="40.716767" lon="-5.087217">
        <ele>2692.0</ele>
        <time>2018-07-14T13:54:51Z</time>
      </trkpt>
      <trkpt lat="40.716867" lon="-5.087200">
        <ele>2689.0</ele>
        <time>2018-07-14T13:54:52Z</time>
      </trkpt>
      <trkpt lat="40.717050" lon="-5.087167">
        <ele>2687.0</ele>
        <time>2018-07-14T13:54:54Z</time>
      </trkpt>
      <trkpt lat="40.717133" lon="-5.087150">
        <ele>2687.0</ele>
        <time>2018-07-14T13:54:55Z</time>
      </trkpt>
      <trkpt lat="40.717300" lon="-5.087150">
        <ele>2684.0</ele>
        <time>2018-07-14T13:54:57Z</time>
      </trkpt>
      <trkpt lat="40.717400" lon="-5.087150">
        <ele>2682.0</ele>
        <time>2018-07-14T13:54:58Z</time>
      </trkpt>
      <trkpt lat="40.717500" lon="-5.087133">
        <ele>2680.0</ele>
        <time>2018-07-14T13:54:59Z</time>
      </trkpt>
      <trkpt lat="40.717600" lon="-5.087133">
        <ele>2677.0</ele>
        <time>2018-07-14T13:55:00Z</time>
      </trkpt>
      <trkpt lat="40.717700" lon="-5.087117">
        <ele>2675.0</ele>
        <time>2018-07-14T13:55:01Z</time>
      </trkpt>
      <trkpt lat="40.717800" lon="-5.087117">
        <ele>2674.0</ele>
        <time>2018-07-14T13:55:02Z</time>
      </trkpt>
      <trkpt lat="40.717900" lon="-5.087100">
        <ele>2673.0</ele>
        <time>2018-07-14T13:55:03Z</time>
      </trkpt>
      <trkpt lat="40.718000" lon="-5.087083">
        <ele>2672.0</ele>
        <time>2018-07-14T13:55:04Z</time>
      </trkpt>
      <trkpt lat="40.718083" lon="-5.087067">
        <ele>2672.0</ele>
        <time>2018-07-14T13:55:05Z</time>
      </trkpt>
      <trkpt lat="40.718167" lon="-5.087050">
        <ele>2671.0</ele>
        <time>2018-07-14T13:55:06Z</time>
      </trkpt>
      <trkpt lat="40.718250" lon="-5.087017">
        <ele>2669.0</ele>
        <time>2018-07-14T13:55:07Z</time>
      </trkpt>
      <trkpt lat="40.718350" lon="-5.087017">
        <ele>2667.0</ele>
        <time>2018-07-14T13:55:08Z</time>
      </trkpt>
      <trkpt lat="40.718467" lon="-5.087000">
        <ele>2665.0</ele>
        <time>2018-07-14T13:55:09Z</time>
      </trkpt>
      <trkpt lat="40.718650" lon="-5.086967">
        <ele>2661.0</ele>
        <time>2018-07-14T13:55:11Z</time>
      </trkpt>
      <trkpt lat="40.718733" lon="-5.086933">
        <ele>2658.0</ele>
        <time>2018-07-14T13:55:12Z</time>
      </trkpt>
      <trkpt lat="40.718833" lon="-5.086917">
        <ele>2654.0</ele>
        <time>2018-07-14T13:55:13Z</time>
      </trkpt>
      <trkpt lat="40.718917" lon="-5.086900">
        <ele>2650.0</ele>
        <time>2018-07-14T13:55:14Z</time>
      </trkpt>
      <trkpt lat="40.719017" lon="-5.086900">
        <ele>2646.0</ele>
        <time>2018-07-14T13:55:15Z</time>
      </trkpt>
      <trkpt lat="40.719133" lon="-5.086917">
        <ele>2642.0</ele>
        <time>2018-07-14T13:55:16Z</time>
      </trkpt>
      <trkpt lat="40.719417" lon="-5.086867">
        <ele>2634.0</ele>
        <time>2018-07-14T13:55:19Z</time>
      </trkpt>
      <trkpt lat="40.719500" lon="-5.086833">
        <ele>2632.0</ele>
        <time>2018-07-14T13:55:20Z</time>
      </trkpt>
      <trkpt lat="40.719583" lon="-5.086800">
        <ele>2629.0</ele>
        <time>2018-07-14T13:55:21Z</time>
      </trkpt>
      <trkpt lat="40.719667" lon="-5.086783">
        <ele>2625.0</ele>
        <time>2018-07-14T13:55:22Z</time>
      </trkpt>
      <trkpt lat="40.719767" lon="-5.086750">
        <ele>2621.0</ele>
        <time>2018-07-14T13:55:23Z</time>
      </trkpt>
      <trkpt lat="40.719867" lon="-5.086733">
        <ele>2616.0</ele>
        <time>2018-07-14T13:55:24Z</time>
      </trkpt>
      <trkpt lat="40.719967" lon="-5.086733">
        <ele>2613.0</ele>
        <time>2018-07-14T13:55:25Z</time>
      </trkpt>
      <trkpt lat="40.720067" lon="-5.086717">
        <ele>2610.0</ele>
        <time>2018-07-14T13:55:26Z</time>
      </trkpt>
      <trkpt lat="40.720167" lon="-5.086717">
        <ele>2607.0</ele>
        <time>2018-07-14T13:55:27Z</time>
      </trkpt>
      <trkpt lat="40.720250" lon="-5.086717">
        <ele>2605.0</ele>
        <time>2018-07-14T13:55:28Z</time>
      </trkpt>
      <trkpt lat="40.720350" lon="-5.086700">
        <ele>2602.0</ele>
        <time>2018-07-14T13:55:29Z</time>
      </trkpt>
      <trkpt lat="40.720450" lon="-5.086683">
        <ele>2598.0</ele>
        <time>2018-07-14T13:55:30Z</time>
      </trkpt>
      <trkpt lat="40.720550" lon="-5.086667">
        <ele>2595.0</ele>
        <time>2018-07-14T13:55:31Z</time>
      </trkpt>
      <trkpt lat="40.720633" lon="-5.086667">
        <ele>2592.0</ele>
        <time>2018-07-14T13:55:32Z</time>
      </trkpt>
      <trkpt lat="40.720733" lon="-5.086650">
        <ele>2589.0</ele>
        <time>2018-07-14T13:55:33Z</time>
      </trkpt>
      <trkpt lat="40.720833" lon="-5.086633">
        <ele>2588.0</ele>
        <time>2018-07-14T13:55:34Z</time>
      </trkpt>
      <trkpt lat="40.720900" lon="-5.086617">
        <ele>2587.0</ele>
        <time>2018-07-14T13:55:35Z</time>
      </trkpt>
      <trkpt lat="40.720983" lon="-5.086617">
        <ele>2585.0</ele>
        <time>2018-07-14T13:55:36Z</time>
      </trkpt>
      <trkpt lat="40.721067" lon="-5.086600">
        <ele>2583.0</ele>
        <time>2018-07-14T13:55:37Z</time>
      </trkpt>
      <trkpt lat="40.721150" lon="-5.086583">
        <ele>2581.0</ele>
        <time>2018-07-14T13:55:38Z</time>
      </trkpt>
      <trkpt lat="40.721233" lon="-5.086567">
        <ele>2579.0</ele>
        <time>2018-07-14T13:55:39Z</time>
      </trkpt>
      <trkpt lat="40.721333" lon="-5.086550">
        <ele>2577.0</ele>
        <time>2018-07-14T13:55:40Z</time>
      </trkpt>
      <trkpt lat="40.721417" lon="-5.086550">
        <ele>2574.0</ele>
        <time>2018-07-14T13:55:41Z</time>
      </trkpt>
      <trkpt lat="40.721517" lon="-5.086550">
        <ele>2573.0</ele>
        <time>2018-07-14T13:55:42Z</time>
      </trkpt>
      <trkpt lat="40.721600" lon="-5.086533">
        <ele>2572.0</ele>
        <time>2018-07-14T13:55:43Z</time>
      </trkpt>
      <trkpt lat="40.721683" lon="-5.086517">
        <ele>2571.0</ele>
        <time>2018-07-14T13:55:44Z</time>
      </trkpt>
      <trkpt lat="40.721767" lon="-5.086467">
        <ele>2571.0</ele>
        <time>2018-07-14T13:55:45Z</time>
      </trkpt>
      <trkpt lat="40.721833" lon="-5.086433">
        <ele>2570.0</ele>
        <time>2018-07-14T13:55:46Z</time>
      </trkpt>
      <trkpt lat="40.721917" lon="-5.086417">
        <ele>2568.0</ele>
        <time>2018-07-14T13:55:47Z</time>
      </trkpt>
      <trkpt lat="40.722000" lon="-5.086383">
        <ele>2567.0</ele>
        <time>2018-07-14T13:55:48Z</time>
      </trkpt>
      <trkpt lat="40.722100" lon="-5.086350">
        <ele>2565.0</ele>
        <time>2018-07-14T13:55:49Z</time>
      </trkpt>
      <trkpt lat="40.722183" lon="-5.086300">
        <ele>2564.0</ele>
        <time>2018-07-14T13:55:50Z</time>
      </trkpt>
      <trkpt lat="40.722267" lon="-5.086267">
        <ele>2562.0</ele>
        <time>2018-07-14T13:55:51Z</time>
      </trkpt>
      <trkpt lat="40.722367" lon="-5.086233">
        <ele>2560.0</ele>
        <time>2018-07-14T13:55:52Z</time>
      </trkpt>
      <trkpt lat="40.722450" lon="-5.086200">
        <ele>2560.0</ele>
        <time>2018-07-14T13:55:53Z</time>
      </trkpt>
      <trkpt lat="40.722533" lon="-5.086183">
        <ele>2559.0</ele>
        <time>2018-07-14T13:55:54Z</time>
      </trkpt>
      <trkpt lat="40.722617" lon="-5.086150">
        <ele>2559.0</ele>
        <time>2018-07-14T13:55:55Z</time>
      </trkpt>
      <trkpt lat="40.722700" lon="-5.086117">
        <ele>2559.0</ele>
        <time>2018-07-14T13:55:56Z</time>
      </trkpt>
      <trkpt lat="40.722800" lon="-5.086083">
        <ele>2558.0</ele>
        <time>2018-07-14T13:55:57Z</time>
      </trkpt>
      <trkpt lat="40.722900" lon="-5.086083">
        <ele>2558.0</ele>
        <time>2018-07-14T13:55:58Z</time>
      </trkpt>
      <trkpt lat="40.723000" lon="-5.086067">
        <ele>2558.0</ele>
        <time>2018-07-14T13:55:59Z</time>
      </trkpt>
      <trkpt lat="40.723100" lon="-5.086067">
        <ele>2559.0</ele>
        <time>2018-07-14T13:56:00Z</time>
      </trkpt>
      <trkpt lat="40.723200" lon="-5.086067">
        <ele>2559.0</ele>
        <time>2018-07-14T13:56:01Z</time>
      </trkpt>
      <trkpt lat="40.723283" lon="-5.086067">
        <ele>2561.0</ele>
        <time>2018-07-14T13:56:02Z</time>
      </trkpt>
      <trkpt lat="40.723367" lon="-5.086050">
        <ele>2562.0</ele>
        <time>2018-07-14T13:56:03Z</time>
      </trkpt>
      <trkpt lat="40.723450" lon="-5.086033">
        <ele>2563.0</ele>
        <time>2018-07-14T13:56:04Z</time>
      </trkpt>
      <trkpt lat="40.723550" lon="-5.086017">
        <ele>2563.0</ele>
        <time>2018-07-14T13:56:05Z</time>
      </trkpt>
      <trkpt lat="40.723633" lon="-5.086000">
        <ele>2563.0</ele>
        <time>2018-07-14T13:56:06Z</time>
      </trkpt>
      <trkpt lat="40.723733" lon="-5.086000">
        <ele>2563.0</ele>
        <time>2018-07-14T13:56:07Z</time>
      </trkpt>
      <trkpt lat="40.723833" lon="-5.086000">
        <ele>2563.0</ele>
        <time>2018-07-14T13:56:08Z</time>
      </trkpt>
      <trkpt lat="40.723933" lon="-5.085983">
        <ele>2564.0</ele>
        <time>2018-07-14T13:56:09Z</time>
      </trkpt>
      <trkpt lat="40.724033" lon="-5.085950">
        <ele>2565.0</ele>
        <time>2018-07-14T13:56:10Z</time>
      </trkpt>
      <trkpt lat="40.724133" lon="-5.085933">
        <ele>2566.0</ele>
        <time>2018-07-14T13:56:11Z</time>
      </trkpt>
      <trkpt lat="40.724250" lon="-5.085933">
        <ele>2566.0</ele>
        <time>2018-07-14T13:56:12Z</time>
      </trkpt>
      <trkpt lat="40.724533" lon="-5.085867">
        <ele>2569.0</ele>
        <time>2018-07-14T13:56:15Z</time>
      </trkpt>
      <trkpt lat="40.724633" lon="-5.085833">
        <ele>2569.0</ele>
        <time>2018-07-14T13:56:16Z</time>
      </trkpt>
      <trkpt lat="40.724717" lon="-5.085800">
        <ele>2569.0</ele>
        <time>2018-07-14T13:56:17Z</time>
      </trkpt>
      <trkpt lat="40.724800" lon="-5.085783">
        <ele>2568.0</ele>
        <time>2018-07-14T13:56:18Z</time>
      </trkpt>
      <trkpt lat="40.724900" lon="-5.085767">
        <ele>2567.0</ele>
        <time>2018-07-14T13:56:19Z</time>
      </trkpt>
      <trkpt lat="40.725000" lon="-5.085750">
        <ele>2566.0</ele>
        <time>2018-07-14T13:56:20Z</time>
      </trkpt>
      <trkpt lat="40.725067" lon="-5.085733">
        <ele>2565.0</ele>
        <time>2018-07-14T13:56:21Z</time>
      </trkpt>
      <trkpt lat="40.725150" lon="-5.085717">
        <ele>2564.0</ele>
        <time>2018-07-14T13:56:22Z</time>
      </trkpt>
      <trkpt lat="40.725250" lon="-5.085717">
        <ele>2562.0</ele>
        <time>2018-07-14T13:56:23Z</time>
      </trkpt>
      <trkpt lat="40.725350" lon="-5.085700">
        <ele>2560.0</ele>
        <time>2018-07-14T13:56:24Z</time>
      </trkpt>
      <trkpt lat="40.725450" lon="-5.085683">
        <ele>2558.0</ele>
        <time>2018-07-14T13:56:25Z</time>
      </trkpt>
      <trkpt lat="40.725567" lon="-5.085683">
        <ele>2555.0</ele>
        <time>2018-07-14T13:56:26Z</time>
      </trkpt>
      <trkpt lat="40.725667" lon="-5.085667">
        <ele>2554.0</ele>
        <time>2018-07-14T13:56:27Z</time>
      </trkpt>
      <trkpt lat="40.725750" lon="-5.085650">
        <ele>2552.0</ele>
        <time>2018-07-14T13:56:28Z</time>
      </trkpt>
      <trkpt lat="40.725850" lon="-5.085650">
        <ele>2550.0</ele>
        <time>2018-07-14T13:56:29Z</time>
      </trkpt>
      <trkpt lat="40.725950" lon="-5.085617">
        <ele>2548.0</ele>
        <time>2018-07-14T13:56:30Z</time>
      </trkpt>
      <trkpt lat="40.726050" lon="-5.085600">
        <ele>2545.0</ele>
        <time>2018-07-14T13:56:31Z</time>
      </trkpt>
      <trkpt lat="40.726167" lon="-5.085583">
        <ele>2542.0</ele>
        <time>2018-07-14T13:56:32Z</time>
      </trkpt>
      <trkpt lat="40.726367" lon="-5.085583">
        <ele>2537.0</ele>
        <time>2018-07-14T13:56:34Z</time>
      </trkpt>
      <trkpt lat="40.726467" lon="-5.085583">
        <ele>2534.0</ele>
        <time>2018-07-14T13:56:35Z</time>
      </trkpt>
      <trkpt lat="40.726567" lon="-5.085600">
        <ele>2531.0</ele>
        <time>2018-07-14T13:56:36Z</time>
      </trkpt>
      <trkpt lat="40.726667" lon="-5.085600">
        <ele>2528.0</ele>
        <time>2018-07-14T13:56:37Z</time>
      </trkpt>
      <trkpt lat="40.726783" lon="-5.085617">
        <ele>2525.0</ele>
        <time>2018-07-14T13:56:38Z</time>
      </trkpt>
      <trkpt lat="40.726883" lon="-5.085600">
        <ele>2522.0</ele>
        <time>2018-07-14T13:56:39Z</time>
      </trkpt>
      <trkpt lat="40.726983" lon="-5.085600">
        <ele>2521.0</ele>
        <time>2018-07-14T13:56:40Z</time>
      </trkpt>
      <trkpt lat="40.727083" lon="-5.085617">
        <ele>2518.0</ele>
        <time>2018-07-14T13:56:41Z</time>
      </trkpt>
      <trkpt lat="40.727183" lon="-5.085633">
        <ele>2515.0</ele>
        <time>2018-07-14T13:56:42Z</time>
      </trkpt>
      <trkpt lat="40.727283" lon="-5.085650">
        <ele>2512.0</ele>
        <time>2018-07-14T13:56:43Z</time>
      </trkpt>
      <trkpt lat="40.727400" lon="-5.085667">
        <ele>2509.0</ele>
        <time>2018-07-14T13:56:44Z</time>
      </trkpt>
      <trkpt lat="40.727517" lon="-5.085667">
        <ele>2506.0</ele>
        <time>2018-07-14T13:56:45Z</time>
      </trkpt>
      <trkpt lat="40.727617" lon="-5.085683">
        <ele>2504.0</ele>
        <time>2018-07-14T13:56:46Z</time>
      </trkpt>
      <trkpt lat="40.727717" lon="-5.085683">
        <ele>2502.0</ele>
        <time>2018-07-14T13:56:47Z</time>
      </trkpt>
      <trkpt lat="40.727817" lon="-5.085700">
        <ele>2501.0</ele>
        <time>2018-07-14T13:56:48Z</time>
      </trkpt>
      <trkpt lat="40.727917" lon="-5.085717">
        <ele>2499.0</ele>
        <time>2018-07-14T13:56:49Z</time>
      </trkpt>
      <trkpt lat="40.728017" lon="-5.085717">
        <ele>2497.0</ele>
        <time>2018-07-14T13:56:50Z</time>
      </trkpt>
      <trkpt lat="40.728133" lon="-5.085733">
        <ele>2495.0</ele>
        <time>2018-07-14T13:56:51Z</time>
      </trkpt>
      <trkpt lat="40.728233" lon="-5.085750">
        <ele>2494.0</ele>
        <time>2018-07-14T13:56:52Z</time>
      </trkpt>
      <trkpt lat="40.728350" lon="-5.085767">
        <ele>2493.0</ele>
        <time>2018-07-14T13:56:53Z</time>
      </trkpt>
      <trkpt lat="40.728450" lon="-5.085767">
        <ele>2493.0</ele>
        <time>2018-07-14T13:56:54Z</time>
      </trkpt>
      <trkpt lat="40.728550" lon="-5.085767">
        <ele>2493.0</ele>
        <time>2018-07-14T13:56:55Z</time>
      </trkpt>
      <trkpt lat="40.728650" lon="-5.085767">
        <ele>2492.0</ele>
        <time>2018-07-14T13:56:56Z</time>
      </trkpt>
      <trkpt lat="40.728750" lon="-5.085767">
        <ele>2490.0</ele>
        <time>2018-07-14T13:56:57Z</time>
      </trkpt>
      <trkpt lat="40.728867" lon="-5.085767">
        <ele>2489.0</ele>
        <time>2018-07-14T13:56:58Z</time>
      </trkpt>
      <trkpt lat="40.729067" lon="-5.085783">
        <ele>2485.0</ele>
        <time>2018-07-14T13:57:00Z</time>
      </trkpt>
      <trkpt lat="40.729167" lon="-5.085800">
        <ele>2482.0</ele>
        <time>2018-07-14T13:57:01Z</time>
      </trkpt>
      <trkpt lat="40.729267" lon="-5.085800">
        <ele>2478.0</ele>
        <time>2018-07-14T13:57:02Z</time>
      </trkpt>
      <trkpt lat="40.729367" lon="-5.085800">
        <ele>2475.0</ele>
        <time>2018-07-14T13:57:03Z</time>
      </trkpt>
      <trkpt lat="40.729483" lon="-5.085800">
        <ele>2471.0</ele>
        <time>2018-07-14T13:57:04Z</time>
      </trkpt>
      <trkpt lat="40.729583" lon="-5.085800">
        <ele>2468.0</ele>
        <time>2018-07-14T13:57:05Z</time>
      </trkpt>
      <trkpt lat="40.729667" lon="-5.085800">
        <ele>2466.0</ele>
        <time>2018-07-14T13:57:06Z</time>
      </trkpt>
      <trkpt lat="40.729767" lon="-5.085800">
        <ele>2463.0</ele>
        <time>2018-07-14T13:57:07Z</time>
      </trkpt>
      <trkpt lat="40.729883" lon="-5.085817">
        <ele>2460.0</ele>
        <time>2018-07-14T13:57:08Z</time>
      </trkpt>
      <trkpt lat="40.729983" lon="-5.085833">
        <ele>2458.0</ele>
        <time>2018-07-14T13:57:09Z</time>
      </trkpt>
      <trkpt lat="40.730100" lon="-5.085850">
        <ele>2457.0</ele>
        <time>2018-07-14T13:57:10Z</time>
      </trkpt>
      <trkpt lat="40.730200" lon="-5.085867">
        <ele>2456.0</ele>
        <time>2018-07-14T13:57:11Z</time>
      </trkpt>
      <trkpt lat="40.730367" lon="-5.085850">
        <ele>2457.0</ele>
        <time>2018-07-14T13:57:13Z</time>
      </trkpt>
      <trkpt lat="40.730450" lon="-5.085833">
        <ele>2456.0</ele>
        <time>2018-07-14T13:57:14Z</time>
      </trkpt>
      <trkpt lat="40.730550" lon="-5.085817">
        <ele>2454.0</ele>
        <time>2018-07-14T13:57:15Z</time>
      </trkpt>
      <trkpt lat="40.730633" lon="-5.085817">
        <ele>2452.0</ele>
        <time>2018-07-14T13:57:16Z</time>
      </trkpt>
      <trkpt lat="40.730750" lon="-5.085817">
        <ele>2449.0</ele>
        <time>2018-07-14T13:57:17Z</time>
      </trkpt>
      <trkpt lat="40.730850" lon="-5.085817">
        <ele>2447.0</ele>
        <time>2018-07-14T13:57:18Z</time>
      </trkpt>
      <trkpt lat="40.730950" lon="-5.085817">
        <ele>2446.0</ele>
        <time>2018-07-14T13:57:19Z</time>
      </trkpt>
      <trkpt lat="40.731033" lon="-5.085833">
        <ele>2445.0</ele>
        <time>2018-07-14T13:57:20Z</time>
      </trkpt>
      <trkpt lat="40.731117" lon="-5.085833">
        <ele>2443.0</ele>
        <time>2018-07-14T13:57:21Z</time>
      </trkpt>
      <trkpt lat="40.731200" lon="-5.085833">
        <ele>2442.0</ele>
        <time>2018-07-14T13:57:22Z</time>
      </trkpt>
      <trkpt lat="40.731300" lon="-5.085850">
        <ele>2439.0</ele>
        <time>2018-07-14T13:57:23Z</time>
      </trkpt>
      <trkpt lat="40.731417" lon="-5.085867">
        <ele>2436.0</ele>
        <time>2018-07-14T13:57:24Z</time>
      </trkpt>
      <trkpt lat="40.731517" lon="-5.085883">
        <ele>2434.0</ele>
        <time>2018-07-14T13:57:25Z</time>
      </trkpt>
      <trkpt lat="40.731700" lon="-5.085917">
        <ele>2433.0</ele>
        <time>2018-07-14T13:57:27Z</time>
      </trkpt>
      <trkpt lat="40.731800" lon="-5.085917">
        <ele>2433.0</ele>
        <time>2018-07-14T13:57:28Z</time>
      </trkpt>
      <trkpt lat="40.731883" lon="-5.085917">
        <ele>2432.0</ele>
        <time>2018-07-14T13:57:29Z</time>
      </trkpt>
      <trkpt lat="40.731967" lon="-5.085917">
        <ele>2430.0</ele>
        <time>2018-07-14T13:57:30Z</time>
      </trkpt>
      <trkpt lat="40.732067" lon="-5.085917">
        <ele>2427.0</ele>
        <time>2018-07-14T13:57:31Z</time>
      </trkpt>
      <trkpt lat="40.732167" lon="-5.085933">
        <ele>2423.0</ele>
        <time>2018-07-14T13:57:32Z</time>
      </trkpt>
      <trkpt lat="40.732267" lon="-5.085917">
        <ele>2421.0</ele>
        <time>2018-07-14T13:57:33Z</time>
      </trkpt>
      <trkpt lat="40.732350" lon="-5.085917">
        <ele>2419.0</ele>
        <time>2018-07-14T13:57:34Z</time>
      </trkpt>
      <trkpt lat="40.732450" lon="-5.085917">
        <ele>2417.0</ele>
        <time>2018-07-14T13:57:35Z</time>
      </trkpt>
      <trkpt lat="40.732533" lon="-5.085917">
        <ele>2415.0</ele>
        <time>2018-07-14T13:57:36Z</time>
      </trkpt>
      <trkpt lat="40.732633" lon="-5.085900">
        <ele>2412.0</ele>
        <time>2018-07-14T13:57:37Z</time>
      </trkpt>
      <trkpt lat="40.732717" lon="-5.085900">
        <ele>2410.0</ele>
        <time>2018-07-14T13:57:38Z</time>
      </trkpt>
      <trkpt lat="40.732817" lon="-5.085900">
        <ele>2407.0</ele>
        <time>2018-07-14T13:57:39Z</time>
      </trkpt>
      <trkpt lat="40.732917" lon="-5.085900">
        <ele>2404.0</ele>
        <time>2018-07-14T13:57:40Z</time>
      </trkpt>
      <trkpt lat="40.733017" lon="-5.085900">
        <ele>2403.0</ele>
        <time>2018-07-14T13:57:41Z</time>
      </trkpt>
      <trkpt lat="40.733100" lon="-5.085917">
        <ele>2401.0</ele>
        <time>2018-07-14T13:57:42Z</time>
      </trkpt>
      <trkpt lat="40.733183" lon="-5.085917">
        <ele>2398.0</ele>
        <time>2018-07-14T13:57:43Z</time>
      </trkpt>
      <trkpt lat="40.733300" lon="-5.085933">
        <ele>2395.0</ele>
        <time>2018-07-14T13:57:44Z</time>
      </trkpt>
      <trkpt lat="40.733400" lon="-5.085950">
        <ele>2390.0</ele>
        <time>2018-07-14T13:57:45Z</time>
      </trkpt>
      <trkpt lat="40.733500" lon="-5.085967">
        <ele>2389.0</ele>
        <time>2018-07-14T13:57:46Z</time>
      </trkpt>
      <trkpt lat="40.733583" lon="-5.085967">
        <ele>2390.0</ele>
        <time>2018-07-14T13:57:47Z</time>
      </trkpt>
      <trkpt lat="40.733650" lon="-5.085950">
        <ele>2392.0</ele>
        <time>2018-07-14T13:57:48Z</time>
      </trkpt>
      <trkpt lat="40.733717" lon="-5.085950">
        <ele>2392.0</ele>
        <time>2018-07-14T13:57:49Z</time>
      </trkpt>
      <trkpt lat="40.733783" lon="-5.085933">
        <ele>2391.0</ele>
        <time>2018-07-14T13:57:50Z</time>
      </trkpt>
      <trkpt lat="40.733867" lon="-5.085917">
        <ele>2389.0</ele>
        <time>2018-07-14T13:57:51Z</time>
      </trkpt>
      <trkpt lat="40.733950" lon="-5.085917">
        <ele>2388.0</ele>
        <time>2018-07-14T13:57:52Z</time>
      </trkpt>
      <trkpt lat="40.734033" lon="-5.085917">
        <ele>2387.0</ele>
        <time>2018-07-14T13:57:53Z</time>
      </trkpt>
      <trkpt lat="40.734117" lon="-5.085917">
        <ele>2388.0</ele>
        <time>2018-07-14T13:57:54Z</time>
      </trkpt>
      <trkpt lat="40.734183" lon="-5.085917">
        <ele>2389.0</ele>
        <time>2018-07-14T13:57:55Z</time>
      </trkpt>
      <trkpt lat="40.734267" lon="-5.085900">
        <ele>2389.0</ele>
        <time>2018-07-14T13:57:56Z</time>
      </trkpt>
      <trkpt lat="40.734350" lon="-5.085883">
        <ele>2388.0</ele>
        <time>2018-07-14T13:57:57Z</time>
      </trkpt>
      <trkpt lat="40.734433" lon="-5.085850">
        <ele>2388.0</ele>
        <time>2018-07-14T13:57:58Z</time>
      </trkpt>
      <trkpt lat="40.734517" lon="-5.085833">
        <ele>2388.0</ele>
        <time>2018-07-14T13:57:59Z</time>
      </trkpt>
      <trkpt lat="40.734617" lon="-5.085817">
        <ele>2388.0</ele>
        <time>2018-07-14T13:58:00Z</time>
      </trkpt>
      <trkpt lat="40.734700" lon="-5.085800">
        <ele>2388.0</ele>
        <time>2018-07-14T13:58:01Z</time>
      </trkpt>
      <trkpt lat="40.734800" lon="-5.085767">
        <ele>2388.0</ele>
        <time>2018-07-14T13:58:02Z</time>
      </trkpt>
      <trkpt lat="40.734883" lon="-5.085733">
        <ele>2388.0</ele>
        <time>2018-07-14T13:58:03Z</time>
      </trkpt>
      <trkpt lat="40.734967" lon="-5.085717">
        <ele>2388.0</ele>
        <time>2018-07-14T13:58:04Z</time>
      </trkpt>
      <trkpt lat="40.735050" lon="-5.085700">
        <ele>2388.0</ele>
        <time>2018-07-14T13:58:05Z</time>
      </trkpt>
      <trkpt lat="40.735133" lon="-5.085667">
        <ele>2389.0</ele>
        <time>2018-07-14T13:58:06Z</time>
      </trkpt>
      <trkpt lat="40.735217" lon="-5.085650">
        <ele>2390.0</ele>
        <time>2018-07-14T13:58:07Z</time>
      </trkpt>
      <trkpt lat="40.735283" lon="-5.085633">
        <ele>2391.0</ele>
        <time>2018-07-14T13:58:08Z</time>
      </trkpt>
      <trkpt lat="40.735350" lon="-5.085600">
        <ele>2393.0</ele>
        <time>2018-07-14T13:58:09Z</time>
      </trkpt>
      <trkpt lat="40.735433" lon="-5.085583">
        <ele>2393.0</ele>
        <time>2018-07-14T13:58:10Z</time>
      </trkpt>
      <trkpt lat="40.735517" lon="-5.085550">
        <ele>2393.0</ele>
        <time>2018-07-14T13:58:11Z</time>
      </trkpt>
      <trkpt lat="40.735600" lon="-5.085533">
        <ele>2393.0</ele>
        <time>2018-07-14T13:58:12Z</time>
      </trkpt>
      <trkpt lat="40.735683" lon="-5.085517">
        <ele>2395.0</ele>
        <time>2018-07-14T13:58:13Z</time>
      </trkpt>
      <trkpt lat="40.735750" lon="-5.085483">
        <ele>2397.0</ele>
        <time>2018-07-14T13:58:14Z</time>
      </trkpt>
      <trkpt lat="40.735833" lon="-5.085467">
        <ele>2398.0</ele>
        <time>2018-07-14T13:58:15Z</time>
      </trkpt>
      <trkpt lat="40.735900" lon="-5.085433">
        <ele>2398.0</ele>
        <time>2018-07-14T13:58:16Z</time>
      </trkpt>
      <trkpt lat="40.735983" lon="-5.085417">
        <ele>2398.0</ele>
        <time>2018-07-14T13:58:17Z</time>
      </trkpt>
      <trkpt lat="40.736083" lon="-5.085417">
        <ele>2397.0</ele>
        <time>2018-07-14T13:58:18Z</time>
      </trkpt>
      <trkpt lat="40.736250" lon="-5.085400">
        <ele>2400.0</ele>
        <time>2018-07-14T13:58:20Z</time>
      </trkpt>
      <trkpt lat="40.736333" lon="-5.085383">
        <ele>2402.0</ele>
        <time>2018-07-14T13:58:21Z</time>
      </trkpt>
      <trkpt lat="40.736400" lon="-5.085367">
        <ele>2403.0</ele>
        <time>2018-07-14T13:58:22Z</time>
      </trkpt>
      <trkpt lat="40.736483" lon="-5.085350">
        <ele>2404.0</ele>
        <time>2018-07-14T13:58:23Z</time>
      </trkpt>
      <trkpt lat="40.736567" lon="-5.085333">
        <ele>2404.0</ele>
        <time>2018-07-14T13:58:24Z</time>
      </trkpt>
      <trkpt lat="40.736667" lon="-5.085317">
        <ele>2404.0</ele>
        <time>2018-07-14T13:58:25Z</time>
      </trkpt>
      <trkpt lat="40.736750" lon="-5.085300">
        <ele>2404.0</ele>
        <time>2018-07-14T13:58:26Z</time>
      </trkpt>
      <trkpt lat="40.736833" lon="-5.085283">
        <ele>2405.0</ele>
        <time>2018-07-14T13:58:27Z</time>
      </trkpt>
      <trkpt lat="40.736900" lon="-5.085267">
        <ele>2406.0</ele>
        <time>2018-07-14T13:58:28Z</time>
      </trkpt>
      <trkpt lat="40.736983" lon="-5.085250">
        <ele>2407.0</ele>
        <time>2018-07-14T13:58:29Z</time>
      </trkpt>
      <trkpt lat="40.737067" lon="-5.085233">
        <ele>2407.0</ele>
        <time>2018-07-14T13:58:30Z</time>
      </trkpt>
      <trkpt lat="40.737150" lon="-5.085217">
        <ele>2407.0</ele>
        <time>2018-07-14T13:58:31Z</time>
      </trkpt>
      <trkpt lat="40.737233" lon="-5.085200">
        <ele>2408.0</ele>
        <time>2018-07-14T13:58:32Z</time>
      </trkpt>
      <trkpt lat="40.737317" lon="-5.085183">
        <ele>2409.0</ele>
        <time>2018-07-14T13:58:33Z</time>
      </trkpt>
      <trkpt lat="40.737383" lon="-5.085150">
        <ele>2411.0</ele>
        <time>2018-07-14T13:58:34Z</time>
      </trkpt>
      <trkpt lat="40.737467" lon="-5.085117">
        <ele>2412.0</ele>
        <time>2018-07-14T13:58:35Z</time>
      </trkpt>
      <trkpt lat="40.737617" lon="-5.085083">
        <ele>2413.0</ele>
        <time>2018-07-14T13:58:37Z</time>
      </trkpt>
      <trkpt lat="40.737700" lon="-5.085083">
        <ele>2412.0</ele>
        <time>2018-07-14T13:58:38Z</time>
      </trkpt>
      <trkpt lat="40.737800" lon="-5.085100">
        <ele>2411.0</ele>
        <time>2018-07-14T13:58:39Z</time>
      </trkpt>
      <trkpt lat="40.737900" lon="-5.085117">
        <ele>2410.0</ele>
        <time>2018-07-14T13:58:40Z</time>
      </trkpt>
      <trkpt lat="40.738000" lon="-5.085133">
        <ele>2410.0</ele>
        <time>2018-07-14T13:58:41Z</time>
      </trkpt>
      <trkpt lat="40.738083" lon="-5.085133">
        <ele>2411.0</ele>
        <time>2018-07-14T13:58:42Z</time>
      </trkpt>
      <trkpt lat="40.738183" lon="-5.085117">
        <ele>2411.0</ele>
        <time>2018-07-14T13:58:43Z</time>
      </trkpt>
      <trkpt lat="40.738267" lon="-5.085117">
        <ele>2412.0</ele>
        <time>2018-07-14T13:58:44Z</time>
      </trkpt>
      <trkpt lat="40.738350" lon="-5.085117">
        <ele>2413.0</ele>
        <time>2018-07-14T13:58:45Z</time>
      </trkpt>
      <trkpt lat="40.738450" lon="-5.085100">
        <ele>2413.0</ele>
        <time>2018-07-14T13:58:46Z</time>
      </trkpt>
      <trkpt lat="40.738633" lon="-5.085083">
        <ele>2413.0</ele>
        <time>2018-07-14T13:58:48Z</time>
      </trkpt>
      <trkpt lat="40.738733" lon="-5.085100">
        <ele>2413.0</ele>
        <time>2018-07-14T13:58:49Z</time>
      </trkpt>
      <trkpt lat="40.738817" lon="-5.085100">
        <ele>2413.0</ele>
        <time>2018-07-14T13:58:50Z</time>
      </trkpt>
      <trkpt lat="40.738917" lon="-5.085117">
        <ele>2413.0</ele>
        <time>2018-07-14T13:58:51Z</time>
      </trkpt>
      <trkpt lat="40.739017" lon="-5.085117">
        <ele>2414.0</ele>
        <time>2018-07-14T13:58:52Z</time>
      </trkpt>
      <trkpt lat="40.739100" lon="-5.085117">
        <ele>2414.0</ele>
        <time>2018-07-14T13:58:53Z</time>
      </trkpt>
      <trkpt lat="40.739200" lon="-5.085100">
        <ele>2413.0</ele>
        <time>2018-07-14T13:58:54Z</time>
      </trkpt>
      <trkpt lat="40.739300" lon="-5.085100">
        <ele>2413.0</ele>
        <time>2018-07-14T13:58:55Z</time>
      </trkpt>
      <trkpt lat="40.739383" lon="-5.085100">
        <ele>2413.0</ele>
        <time>2018-07-14T13:58:56Z</time>
      </trkpt>
      <trkpt lat="40.739483" lon="-5.085100">
        <ele>2413.0</ele>
        <time>2018-07-14T13:58:57Z</time>
      </trkpt>
      <trkpt lat="40.739600" lon="-5.085117">
        <ele>2412.0</ele>
        <time>2018-07-14T13:58:58Z</time>
      </trkpt>
      <trkpt lat="40.739717" lon="-5.085133">
        <ele>2411.0</ele>
        <time>2018-07-14T13:58:59Z</time>
      </trkpt>
      <trkpt lat="40.739833" lon="-5.085133">
        <ele>2413.0</ele>
        <time>2018-07-14T13:59:00Z</time>
      </trkpt>
      <trkpt lat="40.739933" lon="-5.085150">
        <ele>2417.0</ele>
        <time>2018-07-14T13:59:01Z</time>
      </trkpt>
      <trkpt lat="40.740033" lon="-5.085150">
        <ele>2419.0</ele>
        <time>2018-07-14T13:59:02Z</time>
      </trkpt>
      <trkpt lat="40.740117" lon="-5.085150">
        <ele>2421.0</ele>
        <time>2018-07-14T13:59:03Z</time>
      </trkpt>
      <trkpt lat="40.740217" lon="-5.085150">
        <ele>2423.0</ele>
        <time>2018-07-14T13:59:04Z</time>
      </trkpt>
      <trkpt lat="40.740317" lon="-5.085133">
        <ele>2424.0</ele>
        <time>2018-07-14T13:59:05Z</time>
      </trkpt>
      <trkpt lat="40.740400" lon="-5.085083">
        <ele>2426.0</ele>
        <time>2018-07-14T13:59:06Z</time>
      </trkpt>
      <trkpt lat="40.740567" lon="-5.084917">
        <ele>2429.0</ele>
        <time>2018-07-14T13:59:08Z</time>
      </trkpt>
      <trkpt lat="40.740633" lon="-5.084800">
        <ele>2429.0</ele>
        <time>2018-07-14T13:59:09Z</time>
      </trkpt>
      <trkpt lat="40.740667" lon="-5.084700">
        <ele>2428.0</ele>
        <time>2018-07-14T13:59:10Z</time>
      </trkpt>
      <trkpt lat="40.740717" lon="-5.084583">
        <ele>2427.0</ele>
        <time>2018-07-14T13:59:11Z</time>
      </trkpt>
      <trkpt lat="40.740717" lon="-5.084467">
        <ele>2425.0</ele>
        <time>2018-07-14T13:59:12Z</time>
      </trkpt>
      <trkpt lat="40.740683" lon="-5.084367">
        <ele>2424.0</ele>
        <time>2018-07-14T13:59:13Z</time>
      </trkpt>
      <trkpt lat="40.740633" lon="-5.084267">
        <ele>2422.0</ele>
        <time>2018-07-14T13:59:14Z</time>
      </trkpt>
      <trkpt lat="40.740550" lon="-5.084200">
        <ele>2420.0</ele>
        <time>2018-07-14T13:59:15Z</time>
      </trkpt>
      <trkpt lat="40.740483" lon="-5.084150">
        <ele>2418.0</ele>
        <time>2018-07-14T13:59:16Z</time>
      </trkpt>
      <trkpt lat="40.740417" lon="-5.084133">
        <ele>2418.0</ele>
        <time>2018-07-14T13:59:17Z</time>
      </trkpt>
      <trkpt lat="40.740350" lon="-5.084133">
        <ele>2418.0</ele>
        <time>2018-07-14T13:59:18Z</time>
      </trkpt>
      <trkpt lat="40.740300" lon="-5.084133">
        <ele>2417.0</ele>
        <time>2018-07-14T13:59:19Z</time>
      </trkpt>
      <trkpt lat="40.740217" lon="-5.084167">
        <ele>2416.0</ele>
        <time>2018-07-14T13:59:20Z</time>
      </trkpt>
      <trkpt lat="40.740150" lon="-5.084217">
        <ele>2415.0</ele>
        <time>2018-07-14T13:59:21Z</time>
      </trkpt>
      <trkpt lat="40.740117" lon="-5.084283">
        <ele>2415.0</ele>
        <time>2018-07-14T13:59:22Z</time>
      </trkpt>
      <trkpt lat="40.740083" lon="-5.084350">
        <ele>2416.0</ele>
        <time>2018-07-14T13:59:23Z</time>
      </trkpt>
      <trkpt lat="40.740067" lon="-5.084417">
        <ele>2416.0</ele>
        <time>2018-07-14T13:59:24Z</time>
      </trkpt>
      <trkpt lat="40.740033" lon="-5.084500">
        <ele>2416.0</ele>
        <time>2018-07-14T13:59:25Z</time>
      </trkpt>
      <trkpt lat="40.740017" lon="-5.084583">
        <ele>2417.0</ele>
        <time>2018-07-14T13:59:26Z</time>
      </trkpt>
      <trkpt lat="40.740017" lon="-5.084683">
        <ele>2418.0</ele>
        <time>2018-07-14T13:59:27Z</time>
      </trkpt>
      <trkpt lat="40.740017" lon="-5.084783">
        <ele>2419.0</ele>
        <time>2018-07-14T13:59:28Z</time>
      </trkpt>
      <trkpt lat="40.740050" lon="-5.084883">
        <ele>2421.0</ele>
        <time>2018-07-14T13:59:29Z</time>
      </trkpt>
      <trkpt lat="40.740083" lon="-5.084967">
        <ele>2423.0</ele>
        <time>2018-07-14T13:59:30Z</time>
      </trkpt>
      <trkpt lat="40.740117" lon="-5.085050">
        <ele>2424.0</ele>
        <time>2018-07-14T13:59:31Z</time>
      </trkpt>
      <trkpt lat="40.740150" lon="-5.085133">
        <ele>2425.0</ele>
        <time>2018-07-14T13:59:32Z</time>
      </trkpt>
      <trkpt lat="40.740200" lon="-5.085200">
        <ele>2426.0</ele>
        <time>2018-07-14T13:59:33Z</time>
      </trkpt>
      <trkpt lat="40.740250" lon="-5.085267">
        <ele>2427.0</ele>
        <time>2018-07-14T13:59:34Z</time>
      </trkpt>
      <trkpt lat="40.740300" lon="-5.085333">
        <ele>2428.0</ele>
        <time>2018-07-14T13:59:35Z</time>
      </trkpt>
      <trkpt lat="40.740350" lon="-5.085383">
        <ele>2430.0</ele>
        <time>2018-07-14T13:59:36Z</time>
      </trkpt>
      <trkpt lat="40.740400" lon="-5.085450">
        <ele>2431.0</ele>
        <time>2018-07-14T13:59:37Z</time>
      </trkpt>
      <trkpt lat="40.740450" lon="-5.085517">
        <ele>2432.0</ele>
        <time>2018-07-14T13:59:38Z</time>
      </trkpt>
      <trkpt lat="40.740500" lon="-5.085567">
        <ele>2432.0</ele>
        <time>2018-07-14T13:59:39Z</time>
      </trkpt>
      <trkpt lat="40.740567" lon="-5.085650">
        <ele>2433.0</ele>
        <time>2018-07-14T13:59:40Z</time>
      </trkpt>
      <trkpt lat="40.740617" lon="-5.085733">
        <ele>2433.0</ele>
        <time>2018-07-14T13:59:41Z</time>
      </trkpt>
      <trkpt lat="40.740667" lon="-5.085817">
        <ele>2435.0</ele>
        <time>2018-07-14T13:59:42Z</time>
      </trkpt>
      <trkpt lat="40.740717" lon="-5.085883">
        <ele>2436.0</ele>
        <time>2018-07-14T13:59:43Z</time>
      </trkpt>
      <trkpt lat="40.740783" lon="-5.085933">
        <ele>2438.0</ele>
        <time>2018-07-14T13:59:44Z</time>
      </trkpt>
      <trkpt lat="40.740850" lon="-5.086000">
        <ele>2439.0</ele>
        <time>2018-07-14T13:59:45Z</time>
      </trkpt>
      <trkpt lat="40.740917" lon="-5.086050">
        <ele>2439.0</ele>
        <time>2018-07-14T13:59:46Z</time>
      </trkpt>
      <trkpt lat="40.741000" lon="-5.086117">
        <ele>2439.0</ele>
        <time>2018-07-14T13:59:47Z</time>
      </trkpt>
      <trkpt lat="40.741067" lon="-5.086150">
        <ele>2439.0</ele>
        <time>2018-07-14T13:59:48Z</time>
      </trkpt>
      <trkpt lat="40.741150" lon="-5.086183">
        <ele>2438.0</ele>
        <time>2018-07-14T13:59:49Z</time>
      </trkpt>
      <trkpt lat="40.741233" lon="-5.086200">
        <ele>2438.0</ele>
        <time>2018-07-14T13:59:50Z</time>
      </trkpt>
      <trkpt lat="40.741333" lon="-5.086200">
        <ele>2437.0</ele>
        <time>2018-07-14T13:59:51Z</time>
      </trkpt>
      <trkpt lat="40.741433" lon="-5.086167">
        <ele>2436.0</ele>
        <time>2018-07-14T13:59:52Z</time>
      </trkpt>
      <trkpt lat="40.741517" lon="-5.086117">
        <ele>2436.0</ele>
        <time>2018-07-14T13:59:53Z</time>
      </trkpt>
      <trkpt lat="40.741683" lon="-5.085950">
        <ele>2435.0</ele>
        <time>2018-07-14T13:59:55Z</time>
      </trkpt>
      <trkpt lat="40.741750" lon="-5.085700">
        <ele>2434.0</ele>
        <time>2018-07-14T13:59:57Z</time>
      </trkpt>
      <trkpt lat="40.741750" lon="-5.085567">
        <ele>2434.0</ele>
        <time>2018-07-14T13:59:58Z</time>
      </trkpt>
      <trkpt lat="40.741717" lon="-5.085450">
        <ele>2434.0</ele>
        <time>2018-07-14T13:59:59Z</time>
      </trkpt>
      <trkpt lat="40.741683" lon="-5.085333">
        <ele>2435.0</ele>
        <time>2018-07-14T14:00:00Z</time>
      </trkpt>
      <trkpt lat="40.741617" lon="-5.085250">
        <ele>2435.0</ele>
        <time>2018-07-14T14:00:01Z</time>
      </trkpt>
      <trkpt lat="40.741550" lon="-5.085183">
        <ele>2436.0</ele>
        <time>2018-07-14T14:00:02Z</time>
      </trkpt>
      <trkpt lat="40.741483" lon="-5.085133">
        <ele>2437.0</ele>
        <time>2018-07-14T14:00:03Z</time>
      </trkpt>
      <trkpt lat="40.741417" lon="-5.085100">
        <ele>2437.0</ele>
        <time>2018-07-14T14:00:04Z</time>
      </trkpt>
      <trkpt lat="40.741333" lon="-5.085083">
        <ele>2438.0</ele>
        <time>2018-07-14T14:00:05Z</time>
      </trkpt>
      <trkpt lat="40.741267" lon="-5.085083">
        <ele>2439.0</ele>
        <time>2018-07-14T14:00:06Z</time>
      </trkpt>
      <trkpt lat="40.741183" lon="-5.085100">
        <ele>2440.0</ele>
        <time>2018-07-14T14:00:07Z</time>
      </trkpt>
      <trkpt lat="40.741117" lon="-5.085150">
        <ele>2441.0</ele>
        <time>2018-07-14T14:00:08Z</time>
      </trkpt>
      <trkpt lat="40.741050" lon="-5.085183">
        <ele>2441.0</ele>
        <time>2018-07-14T14:00:09Z</time>
      </trkpt>
      <trkpt lat="40.741000" lon="-5.085233">
        <ele>2442.0</ele>
        <time>2018-07-14T14:00:10Z</time>
      </trkpt>
      <trkpt lat="40.740933" lon="-5.085283">
        <ele>2444.0</ele>
        <time>2018-07-14T14:00:11Z</time>
      </trkpt>
      <trkpt lat="40.740883" lon="-5.085333">
        <ele>2445.0</ele>
        <time>2018-07-14T14:00:12Z</time>
      </trkpt>
      <trkpt lat="40.740817" lon="-5.085400">
        <ele>2446.0</ele>
        <time>2018-07-14T14:00:13Z</time>
      </trkpt>
      <trkpt lat="40.740717" lon="-5.085517">
        <ele>2448.0</ele>
        <time>2018-07-14T14:00:15Z</time>
      </trkpt>
      <trkpt lat="40.740633" lon="-5.085633">
        <ele>2449.0</ele>
        <time>2018-07-14T14:00:17Z</time>
      </trkpt>
      <trkpt lat="40.740600" lon="-5.085700">
        <ele>2449.0</ele>
        <time>2018-07-14T14:00:18Z</time>
      </trkpt>
      <trkpt lat="40.740550" lon="-5.085783">
        <ele>2449.0</ele>
        <time>2018-07-14T14:00:19Z</time>
      </trkpt>
      <trkpt lat="40.740533" lon="-5.085867">
        <ele>2449.0</ele>
        <time>2018-07-14T14:00:20Z</time>
      </trkpt>
      <trkpt lat="40.740517" lon="-5.085967">
        <ele>2449.0</ele>
        <time>2018-07-14T14:00:21Z</time>
      </trkpt>
      <trkpt lat="40.740533" lon="-5.086050">
        <ele>2449.0</ele>
        <time>2018-07-14T14:00:22Z</time>
      </trkpt>
      <trkpt lat="40.740533" lon="-5.086150">
        <ele>2449.0</ele>
        <time>2018-07-14T14:00:23Z</time>
      </trkpt>
      <trkpt lat="40.740567" lon="-5.086233">
        <ele>2448.0</ele>
        <time>2018-07-14T14:00:24Z</time>
      </trkpt>
      <trkpt lat="40.740583" lon="-5.086333">
        <ele>2448.0</ele>
        <time>2018-07-14T14:00:25Z</time>
      </trkpt>
      <trkpt lat="40.740617" lon="-5.086433">
        <ele>2447.0</ele>
        <time>2018-07-14T14:00:26Z</time>
      </trkpt>
      <trkpt lat="40.740667" lon="-5.086517">
        <ele>2446.0</ele>
        <time>2018-07-14T14:00:27Z</time>
      </trkpt>
      <trkpt lat="40.740717" lon="-5.086600">
        <ele>2445.0</ele>
        <time>2018-07-14T14:00:28Z</time>
      </trkpt>
      <trkpt lat="40.740783" lon="-5.086667">
        <ele>2445.0</ele>
        <time>2018-07-14T14:00:29Z</time>
      </trkpt>
      <trkpt lat="40.740850" lon="-5.086717">
        <ele>2445.0</ele>
        <time>2018-07-14T14:00:30Z</time>
      </trkpt>
      <trkpt lat="40.740917" lon="-5.086767">
        <ele>2446.0</ele>
        <time>2018-07-14T14:00:31Z</time>
      </trkpt>
      <trkpt lat="40.740950" lon="-5.086817">
        <ele>2446.0</ele>
        <time>2018-07-14T14:00:32Z</time>
      </trkpt>
      <trkpt lat="40.741000" lon="-5.086883">
        <ele>2445.0</ele>
        <time>2018-07-14T14:00:33Z</time>
      </trkpt>
      <trkpt lat="40.741050" lon="-5.086967">
        <ele>2443.0</ele>
        <time>2018-07-14T14:00:34Z</time>
      </trkpt>
      <trkpt lat="40.741117" lon="-5.087033">
        <ele>2442.0</ele>
        <time>2018-07-14T14:00:35Z</time>
      </trkpt>
      <trkpt lat="40.741200" lon="-5.087100">
        <ele>2439.0</ele>
        <time>2018-07-14T14:00:36Z</time>
      </trkpt>
      <trkpt lat="40.741267" lon="-5.087150">
        <ele>2436.0</ele>
        <time>2018-07-14T14:00:37Z</time>
      </trkpt>
      <trkpt lat="40.741350" lon="-5.087183">
        <ele>2434.0</ele>
        <time>2018-07-14T14:00:38Z</time>
      </trkpt>
      <trkpt lat="40.741433" lon="-5.087233">
        <ele>2432.0</ele>
        <time>2018-07-14T14:00:39Z</time>
      </trkpt>
      <trkpt lat="40.741517" lon="-5.087250">
        <ele>2431.0</ele>
        <time>2018-07-14T14:00:40Z</time>
      </trkpt>
      <trkpt lat="40.741583" lon="-5.087283">
        <ele>2430.0</ele>
        <time>2018-07-14T14:00:41Z</time>
      </trkpt>
      <trkpt lat="40.741650" lon="-5.087300">
        <ele>2430.0</ele>
        <time>2018-07-14T14:00:42Z</time>
      </trkpt>
      <trkpt lat="40.741717" lon="-5.087333">
        <ele>2429.0</ele>
        <time>2018-07-14T14:00:43Z</time>
      </trkpt>
      <trkpt lat="40.741783" lon="-5.087367">
        <ele>2428.0</ele>
        <time>2018-07-14T14:00:44Z</time>
      </trkpt>
      <trkpt lat="40.741867" lon="-5.087400">
        <ele>2426.0</ele>
        <time>2018-07-14T14:00:45Z</time>
      </trkpt>
      <trkpt lat="40.741950" lon="-5.087433">
        <ele>2425.0</ele>
        <time>2018-07-14T14:00:46Z</time>
      </trkpt>
      <trkpt lat="40.742033" lon="-5.087450">
        <ele>2425.0</ele>
        <time>2018-07-14T14:00:47Z</time>
      </trkpt>
      <trkpt lat="40.742117" lon="-5.087467">
        <ele>2425.0</ele>
        <time>2018-07-14T14:00:48Z</time>
      </trkpt>
      <trkpt lat="40.742183" lon="-5.087483">
        <ele>2426.0</ele>
        <time>2018-07-14T14:00:49Z</time>
      </trkpt>
      <trkpt lat="40.742267" lon="-5.087500">
        <ele>2426.0</ele>
        <time>2018-07-14T14:00:50Z</time>
      </trkpt>
      <trkpt lat="40.742333" lon="-5.087500">
        <ele>2427.0</ele>
        <time>2018-07-14T14:00:51Z</time>
      </trkpt>
      <trkpt lat="40.742400" lon="-5.087517">
        <ele>2427.0</ele>
        <time>2018-07-14T14:00:52Z</time>
      </trkpt>
      <trkpt lat="40.742483" lon="-5.087517">
        <ele>2426.0</ele>
        <time>2018-07-14T14:00:53Z</time>
      </trkpt>
      <trkpt lat="40.742567" lon="-5.087533">
        <ele>2425.0</ele>
        <time>2018-07-14T14:00:54Z</time>
      </trkpt>
      <trkpt lat="40.742650" lon="-5.087550">
        <ele>2423.0</ele>
        <time>2018-07-14T14:00:55Z</time>
      </trkpt>
      <trkpt lat="40.742733" lon="-5.087567">
        <ele>2423.0</ele>
        <time>2018-07-14T14:00:56Z</time>
      </trkpt>
      <trkpt lat="40.742800" lon="-5.087600">
        <ele>2423.0</ele>
        <time>2018-07-14T14:00:57Z</time>
      </trkpt>
      <trkpt lat="40.742883" lon="-5.087617">
        <ele>2423.0</ele>
        <time>2018-07-14T14:00:58Z</time>
      </trkpt>
      <trkpt lat="40.742950" lon="-5.087633">
        <ele>2423.0</ele>
        <time>2018-07-14T14:00:59Z</time>
      </trkpt>
      <trkpt lat="40.743017" lon="-5.087650">
        <ele>2423.0</ele>
        <time>2018-07-14T14:01:00Z</time>
      </trkpt>
      <trkpt lat="40.743117" lon="-5.087667">
        <ele>2422.0</ele>
        <time>2018-07-14T14:01:01Z</time>
      </trkpt>
      <trkpt lat="40.743200" lon="-5.087683">
        <ele>2422.0</ele>
        <time>2018-07-14T14:01:02Z</time>
      </trkpt>
      <trkpt lat="40.743283" lon="-5.087700">
        <ele>2421.0</ele>
        <time>2018-07-14T14:01:03Z</time>
      </trkpt>
      <trkpt lat="40.743367" lon="-5.087733">
        <ele>2421.0</ele>
        <time>2018-07-14T14:01:04Z</time>
      </trkpt>
      <trkpt lat="40.743450" lon="-5.087750">
        <ele>2421.0</ele>
        <time>2018-07-14T14:01:05Z</time>
      </trkpt>
      <trkpt lat="40.743533" lon="-5.087783">
        <ele>2420.0</ele>
        <time>2018-07-14T14:01:06Z</time>
      </trkpt>
      <trkpt lat="40.743617" lon="-5.087800">
        <ele>2420.0</ele>
        <time>2018-07-14T14:01:07Z</time>
      </trkpt>
      <trkpt lat="40.743700" lon="-5.087817">
        <ele>2419.0</ele>
        <time>2018-07-14T14:01:08Z</time>
      </trkpt>
      <trkpt lat="40.743800" lon="-5.087833">
        <ele>2418.0</ele>
        <time>2018-07-14T14:01:09Z</time>
      </trkpt>
      <trkpt lat="40.743883" lon="-5.087850">
        <ele>2417.0</ele>
        <time>2018-07-14T14:01:10Z</time>
      </trkpt>
      <trkpt lat="40.743967" lon="-5.087867">
        <ele>2416.0</ele>
        <time>2018-07-14T14:01:11Z</time>
      </trkpt>
      <trkpt lat="40.744067" lon="-5.087883">
        <ele>2415.0</ele>
        <time>2018-07-14T14:01:12Z</time>
      </trkpt>
      <trkpt lat="40.744167" lon="-5.087883">
        <ele>2414.0</ele>
        <time>2018-07-14T14:01:13Z</time>
      </trkpt>
      <trkpt lat="40.744267" lon="-5.087883">
        <ele>2413.0</ele>
        <time>2018-07-14T14:01:14Z</time>
      </trkpt>
      <trkpt lat="40.744383" lon="-5.087883">
        <ele>2412.0</ele>
        <time>2018-07-14T14:01:15Z</time>
      </trkpt>
      <trkpt lat="40.744483" lon="-5.087867">
        <ele>2411.0</ele>
        <time>2018-07-14T14:01:16Z</time>
      </trkpt>
      <trkpt lat="40.744600" lon="-5.087867">
        <ele>2411.0</ele>
        <time>2018-07-14T14:01:17Z</time>
      </trkpt>
      <trkpt lat="40.744717" lon="-5.087867">
        <ele>2410.0</ele>
        <time>2018-07-14T14:01:18Z</time>
      </trkpt>
      <trkpt lat="40.744833" lon="-5.087850">
        <ele>2410.0</ele>
        <time>2018-07-14T14:01:19Z</time>
      </trkpt>
      <trkpt lat="40.744950" lon="-5.087833">
        <ele>2410.0</ele>
        <time>2018-07-14T14:01:20Z</time>
      </trkpt>
      <trkpt lat="40.745067" lon="-5.087800">
        <ele>2411.0</ele>
        <time>2018-07-14T14:01:21Z</time>
      </trkpt>
      <trkpt lat="40.745167" lon="-5.087783">
        <ele>2412.0</ele>
        <time>2018-07-14T14:01:22Z</time>
      </trkpt>
      <trkpt lat="40.745267" lon="-5.087750">
        <ele>2412.0</ele>
        <time>2018-07-14T14:01:23Z</time>
      </trkpt>
      <trkpt lat="40.745383" lon="-5.087733">
        <ele>2412.0</ele>
        <time>2018-07-14T14:01:24Z</time>
      </trkpt>
      <trkpt lat="40.745483" lon="-5.087700">
        <ele>2412.0</ele>
        <time>2018-07-14T14:01:25Z</time>
      </trkpt>
      <trkpt lat="40.745583" lon="-5.087667">
        <ele>2411.0</ele>
        <time>2018-07-14T14:01:26Z</time>
      </trkpt>
      <trkpt lat="40.745700" lon="-5.087617">
        <ele>2410.0</ele>
        <time>2018-07-14T14:01:27Z</time>
      </trkpt>
      <trkpt lat="40.745817" lon="-5.087567">
        <ele>2408.0</ele>
        <time>2018-07-14T14:01:28Z</time>
      </trkpt>
      <trkpt lat="40.745933" lon="-5.087533">
        <ele>2407.0</ele>
        <time>2018-07-14T14:01:29Z</time>
      </trkpt>
      <trkpt lat="40.746050" lon="-5.087483">
        <ele>2407.0</ele>
        <time>2018-07-14T14:01:30Z</time>
      </trkpt>
      <trkpt lat="40.746250" lon="-5.087417">
        <ele>2407.0</ele>
        <time>2018-07-14T14:01:32Z</time>
      </trkpt>
      <trkpt lat="40.746350" lon="-5.087383">
        <ele>2405.0</ele>
        <time>2018-07-14T14:01:33Z</time>
      </trkpt>
      <trkpt lat="40.746450" lon="-5.087367">
        <ele>2403.0</ele>
        <time>2018-07-14T14:01:34Z</time>
      </trkpt>
      <trkpt lat="40.746550" lon="-5.087333">
        <ele>2401.0</ele>
        <time>2018-07-14T14:01:35Z</time>
      </trkpt>
      <trkpt lat="40.746667" lon="-5.087317">
        <ele>2398.0</ele>
        <time>2018-07-14T14:01:36Z</time>
      </trkpt>
      <trkpt lat="40.746767" lon="-5.087317">
        <ele>2396.0</ele>
        <time>2018-07-14T14:01:37Z</time>
      </trkpt>
      <trkpt lat="40.746883" lon="-5.087300">
        <ele>2394.0</ele>
        <time>2018-07-14T14:01:38Z</time>
      </trkpt>
      <trkpt lat="40.747000" lon="-5.087300">
        <ele>2393.0</ele>
        <time>2018-07-14T14:01:39Z</time>
      </trkpt>
      <trkpt lat="40.747100" lon="-5.087317">
        <ele>2393.0</ele>
        <time>2018-07-14T14:01:40Z</time>
      </trkpt>
      <trkpt lat="40.747200" lon="-5.087333">
        <ele>2392.0</ele>
        <time>2018-07-14T14:01:41Z</time>
      </trkpt>
      <trkpt lat="40.747317" lon="-5.087367">
        <ele>2391.0</ele>
        <time>2018-07-14T14:01:42Z</time>
      </trkpt>
      <trkpt lat="40.747417" lon="-5.087400">
        <ele>2390.0</ele>
        <time>2018-07-14T14:01:43Z</time>
      </trkpt>
      <trkpt lat="40.747517" lon="-5.087417">
        <ele>2391.0</ele>
        <time>2018-07-14T14:01:44Z</time>
      </trkpt>
      <trkpt lat="40.747600" lon="-5.087450">
        <ele>2392.0</ele>
        <time>2018-07-14T14:01:45Z</time>
      </trkpt>
      <trkpt lat="40.747683" lon="-5.087483">
        <ele>2392.0</ele>
        <time>2018-07-14T14:01:46Z</time>
      </trkpt>
      <trkpt lat="40.747750" lon="-5.087517">
        <ele>2391.0</ele>
        <time>2018-07-14T14:01:47Z</time>
      </trkpt>
      <trkpt lat="40.747833" lon="-5.087550">
        <ele>2388.0</ele>
        <time>2018-07-14T14:01:48Z</time>
      </trkpt>
      <trkpt lat="40.747933" lon="-5.087567">
        <ele>2385.0</ele>
        <time>2018-07-14T14:01:49Z</time>
      </trkpt>
      <trkpt lat="40.748033" lon="-5.087600">
        <ele>2380.0</ele>
        <time>2018-07-14T14:01:50Z</time>
      </trkpt>
      <trkpt lat="40.748133" lon="-5.087633">
        <ele>2377.0</ele>
        <time>2018-07-14T14:01:51Z</time>
      </trkpt>
      <trkpt lat="40.748233" lon="-5.087667">
        <ele>2374.0</ele>
        <time>2018-07-14T14:01:52Z</time>
      </trkpt>
      <trkpt lat="40.748317" lon="-5.087700">
        <ele>2372.0</ele>
        <time>2018-07-14T14:01:53Z</time>
      </trkpt>
      <trkpt lat="40.748400" lon="-5.087717">
        <ele>2370.0</ele>
        <time>2018-07-14T14:01:54Z</time>
      </trkpt>
      <trkpt lat="40.748500" lon="-5.087733">
        <ele>2367.0</ele>
        <time>2018-07-14T14:01:55Z</time>
      </trkpt>
      <trkpt lat="40.748583" lon="-5.087767">
        <ele>2364.0</ele>
        <time>2018-07-14T14:01:56Z</time>
      </trkpt>
      <trkpt lat="40.748667" lon="-5.087800">
        <ele>2361.0</ele>
        <time>2018-07-14T14:01:57Z</time>
      </trkpt>
      <trkpt lat="40.748750" lon="-5.087833">
        <ele>2358.0</ele>
        <time>2018-07-14T14:01:58Z</time>
      </trkpt>
      <trkpt lat="40.748833" lon="-5.087867">
        <ele>2356.0</ele>
        <time>2018-07-14T14:01:59Z</time>
      </trkpt>
      <trkpt lat="40.748900" lon="-5.087883">
        <ele>2353.0</ele>
        <time>2018-07-14T14:02:00Z</time>
      </trkpt>
      <trkpt lat="40.748983" lon="-5.087917">
        <ele>2349.0</ele>
        <time>2018-07-14T14:02:01Z</time>
      </trkpt>
      <trkpt lat="40.749067" lon="-5.087933">
        <ele>2345.0</ele>
        <time>2018-07-14T14:02:02Z</time>
      </trkpt>
      <trkpt lat="40.749150" lon="-5.087967">
        <ele>2341.0</ele>
        <time>2018-07-14T14:02:03Z</time>
      </trkpt>
      <trkpt lat="40.749250" lon="-5.087983">
        <ele>2337.0</ele>
        <time>2018-07-14T14:02:04Z</time>
      </trkpt>
      <trkpt lat="40.749350" lon="-5.088017">
        <ele>2337.0</ele>
        <time>2018-07-14T14:02:05Z</time>
      </trkpt>
      <trkpt lat="40.749450" lon="-5.088050">
        <ele>2334.0</ele>
        <time>2018-07-14T14:02:06Z</time>
      </trkpt>
      <trkpt lat="40.749550" lon="-5.088083">
        <ele>2331.0</ele>
        <time>2018-07-14T14:02:07Z</time>
      </trkpt>
      <trkpt lat="40.749633" lon="-5.088117">
        <ele>2328.0</ele>
        <time>2018-07-14T14:02:08Z</time>
      </trkpt>
      <trkpt lat="40.749733" lon="-5.088150">
        <ele>2324.0</ele>
        <time>2018-07-14T14:02:09Z</time>
      </trkpt>
      <trkpt lat="40.749817" lon="-5.088183">
        <ele>2319.0</ele>
        <time>2018-07-14T14:02:10Z</time>
      </trkpt>
      <trkpt lat="40.749917" lon="-5.088233">
        <ele>2315.0</ele>
        <time>2018-07-14T14:02:11Z</time>
      </trkpt>
      <trkpt lat="40.750017" lon="-5.088283">
        <ele>2311.0</ele>
        <time>2018-07-14T14:02:12Z</time>
      </trkpt>
      <trkpt lat="40.750133" lon="-5.088317">
        <ele>2307.0</ele>
        <time>2018-07-14T14:02:13Z</time>
      </trkpt>
      <trkpt lat="40.750233" lon="-5.088350">
        <ele>2305.0</ele>
        <time>2018-07-14T14:02:14Z</time>
      </trkpt>
      <trkpt lat="40.750333" lon="-5.088383">
        <ele>2304.0</ele>
        <time>2018-07-14T14:02:15Z</time>
      </trkpt>
      <trkpt lat="40.750433" lon="-5.088400">
        <ele>2303.0</ele>
        <time>2018-07-14T14:02:16Z</time>
      </trkpt>
      <trkpt lat="40.750533" lon="-5.088417">
        <ele>2301.0</ele>
        <time>2018-07-14T14:02:17Z</time>
      </trkpt>
      <trkpt lat="40.750617" lon="-5.088433">
        <ele>2299.0</ele>
        <time>2018-07-14T14:02:18Z</time>
      </trkpt>
      <trkpt lat="40.750733" lon="-5.088467">
        <ele>2296.0</ele>
        <time>2018-07-14T14:02:19Z</time>
      </trkpt>
      <trkpt lat="40.750833" lon="-5.088483">
        <ele>2294.0</ele>
        <time>2018-07-14T14:02:20Z</time>
      </trkpt>
      <trkpt lat="40.750950" lon="-5.088517">
        <ele>2292.0</ele>
        <time>2018-07-14T14:02:21Z</time>
      </trkpt>
      <trkpt lat="40.751067" lon="-5.088567">
        <ele>2290.0</ele>
        <time>2018-07-14T14:02:22Z</time>
      </trkpt>
      <trkpt lat="40.751183" lon="-5.088600">
        <ele>2288.0</ele>
        <time>2018-07-14T14:02:23Z</time>
      </trkpt>
      <trkpt lat="40.751283" lon="-5.088633">
        <ele>2287.0</ele>
        <time>2018-07-14T14:02:24Z</time>
      </trkpt>
      <trkpt lat="40.751383" lon="-5.088650">
        <ele>2287.0</ele>
        <time>2018-07-14T14:02:25Z</time>
      </trkpt>
      <trkpt lat="40.751483" lon="-5.088683">
        <ele>2286.0</ele>
        <time>2018-07-14T14:02:26Z</time>
      </trkpt>
      <trkpt lat="40.751583" lon="-5.088717">
        <ele>2285.0</ele>
        <time>2018-07-14T14:02:27Z</time>
      </trkpt>
      <trkpt lat="40.751700" lon="-5.088750">
        <ele>2283.0</ele>
        <time>2018-07-14T14:02:28Z</time>
      </trkpt>
      <trkpt lat="40.751817" lon="-5.088783">
        <ele>2281.0</ele>
        <time>2018-07-14T14:02:29Z</time>
      </trkpt>
      <trkpt lat="40.751917" lon="-5.088817">
        <ele>2279.0</ele>
        <time>2018-07-14T14:02:30Z</time>
      </trkpt>
      <trkpt lat="40.752033" lon="-5.088833">
        <ele>2276.0</ele>
        <time>2018-07-14T14:02:31Z</time>
      </trkpt>
      <trkpt lat="40.752133" lon="-5.088867">
        <ele>2275.0</ele>
        <time>2018-07-14T14:02:32Z</time>
      </trkpt>
      <trkpt lat="40.752250" lon="-5.088900">
        <ele>2272.0</ele>
        <time>2018-07-14T14:02:33Z</time>
      </trkpt>
      <trkpt lat="40.752367" lon="-5.088933">
        <ele>2270.0</ele>
        <time>2018-07-14T14:02:34Z</time>
      </trkpt>
      <trkpt lat="40.752483" lon="-5.088950">
        <ele>2268.0</ele>
        <time>2018-07-14T14:02:35Z</time>
      </trkpt>
      <trkpt lat="40.752600" lon="-5.088950">
        <ele>2267.0</ele>
        <time>2018-07-14T14:02:36Z</time>
      </trkpt>
      <trkpt lat="40.752717" lon="-5.088950">
        <ele>2268.0</ele>
        <time>2018-07-14T14:02:37Z</time>
      </trkpt>
      <trkpt lat="40.752817" lon="-5.088950">
        <ele>2268.0</ele>
        <time>2018-07-14T14:02:38Z</time>
      </trkpt>
      <trkpt lat="40.752900" lon="-5.088967">
        <ele>2268.0</ele>
        <time>2018-07-14T14:02:39Z</time>
      </trkpt>
      <trkpt lat="40.753000" lon="-5.088983">
        <ele>2268.0</ele>
        <time>2018-07-14T14:02:40Z</time>
      </trkpt>
      <trkpt lat="40.753100" lon="-5.089000">
        <ele>2267.0</ele>
        <time>2018-07-14T14:02:41Z</time>
      </trkpt>
      <trkpt lat="40.753200" lon="-5.089017">
        <ele>2266.0</ele>
        <time>2018-07-14T14:02:42Z</time>
      </trkpt>
      <trkpt lat="40.753317" lon="-5.089033">
        <ele>2264.0</ele>
        <time>2018-07-14T14:02:43Z</time>
      </trkpt>
      <trkpt lat="40.753417" lon="-5.089083">
        <ele>2262.0</ele>
        <time>2018-07-14T14:02:44Z</time>
      </trkpt>
      <trkpt lat="40.753533" lon="-5.089133">
        <ele>2261.0</ele>
        <time>2018-07-14T14:02:45Z</time>
      </trkpt>
      <trkpt lat="40.753633" lon="-5.089183">
        <ele>2259.0</ele>
        <time>2018-07-14T14:02:46Z</time>
      </trkpt>
      <trkpt lat="40.753750" lon="-5.089233">
        <ele>2259.0</ele>
        <time>2018-07-14T14:02:47Z</time>
      </trkpt>
      <trkpt lat="40.753850" lon="-5.089250">
        <ele>2259.0</ele>
        <time>2018-07-14T14:02:48Z</time>
      </trkpt>
      <trkpt lat="40.753950" lon="-5.089283">
        <ele>2260.0</ele>
        <time>2018-07-14T14:02:49Z</time>
      </trkpt>
      <trkpt lat="40.754067" lon="-5.089317">
        <ele>2259.0</ele>
        <time>2018-07-14T14:02:50Z</time>
      </trkpt>
      <trkpt lat="40.754183" lon="-5.089350">
        <ele>2258.0</ele>
        <time>2018-07-14T14:02:51Z</time>
      </trkpt>
      <trkpt lat="40.754300" lon="-5.089383">
        <ele>2257.0</ele>
        <time>2018-07-14T14:02:52Z</time>
      </trkpt>
      <trkpt lat="40.754417" lon="-5.089433">
        <ele>2256.0</ele>
        <time>2018-07-14T14:02:53Z</time>
      </trkpt>
      <trkpt lat="40.754533" lon="-5.089500">
        <ele>2255.0</ele>
        <time>2018-07-14T14:02:54Z</time>
      </trkpt>
      <trkpt lat="40.754633" lon="-5.089550">
        <ele>2255.0</ele>
        <time>2018-07-14T14:02:55Z</time>
      </trkpt>
      <trkpt lat="40.754733" lon="-5.089583">
        <ele>2255.0</ele>
        <time>2018-07-14T14:02:56Z</time>
      </trkpt>
      <trkpt lat="40.754850" lon="-5.089617">
        <ele>2254.0</ele>
        <time>2018-07-14T14:02:57Z</time>
      </trkpt>
      <trkpt lat="40.754967" lon="-5.089633">
        <ele>2251.0</ele>
        <time>2018-07-14T14:02:58Z</time>
      </trkpt>
      <trkpt lat="40.755083" lon="-5.089667">
        <ele>2248.0</ele>
        <time>2018-07-14T14:02:59Z</time>
      </trkpt>
      <trkpt lat="40.755200" lon="-5.089700">
        <ele>2245.0</ele>
        <time>2018-07-14T14:03:00Z</time>
      </trkpt>
      <trkpt lat="40.755317" lon="-5.089750">
        <ele>2243.0</ele>
        <time>2018-07-14T14:03:01Z</time>
      </trkpt>
      <trkpt lat="40.755417" lon="-5.089783">
        <ele>2241.0</ele>
        <time>2018-07-14T14:03:02Z</time>
      </trkpt>
      <trkpt lat="40.755533" lon="-5.089817">
        <ele>2240.0</ele>
        <time>2018-07-14T14:03:03Z</time>
      </trkpt>
      <trkpt lat="40.755650" lon="-5.089850">
        <ele>2237.0</ele>
        <time>2018-07-14T14:03:04Z</time>
      </trkpt>
      <trkpt lat="40.755767" lon="-5.089883">
        <ele>2235.0</ele>
        <time>2018-07-14T14:03:05Z</time>
      </trkpt>
      <trkpt lat="40.755883" lon="-5.089917">
        <ele>2232.0</ele>
        <time>2018-07-14T14:03:06Z</time>
      </trkpt>
      <trkpt lat="40.756017" lon="-5.089950">
        <ele>2230.0</ele>
        <time>2018-07-14T14:03:07Z</time>
      </trkpt>
      <trkpt lat="40.756133" lon="-5.089983">
        <ele>2227.0</ele>
        <time>2018-07-14T14:03:08Z</time>
      </trkpt>
      <trkpt lat="40.756250" lon="-5.090000">
        <ele>2223.0</ele>
        <time>2018-07-14T14:03:09Z</time>
      </trkpt>
      <trkpt lat="40.756383" lon="-5.090017">
        <ele>2220.0</ele>
        <time>2018-07-14T14:03:10Z</time>
      </trkpt>
      <trkpt lat="40.756500" lon="-5.090033">
        <ele>2216.0</ele>
        <time>2018-07-14T14:03:11Z</time>
      </trkpt>
      <trkpt lat="40.756617" lon="-5.090050">
        <ele>2213.0</ele>
        <time>2018-07-14T14:03:12Z</time>
      </trkpt>
      <trkpt lat="40.756733" lon="-5.090067">
        <ele>2210.0</ele>
        <time>2018-07-14T14:03:13Z</time>
      </trkpt>
      <trkpt lat="40.756850" lon="-5.090117">
        <ele>2206.0</ele>
        <time>2018-07-14T14:03:14Z</time>
      </trkpt>
      <trkpt lat="40.756967" lon="-5.090167">
        <ele>2201.0</ele>
        <time>2018-07-14T14:03:15Z</time>
      </trkpt>
      <trkpt lat="40.757100" lon="-5.090233">
        <ele>2197.0</ele>
        <time>2018-07-14T14:03:16Z</time>
      </trkpt>
      <trkpt lat="40.757233" lon="-5.090267">
        <ele>2195.0</ele>
        <time>2018-07-14T14:03:17Z</time>
      </trkpt>
      <trkpt lat="40.757367" lon="-5.090283">
        <ele>2193.0</ele>
        <time>2018-07-14T14:03:18Z</time>
      </trkpt>
      <trkpt lat="40.757467" lon="-5.090300">
        <ele>2192.0</ele>
        <time>2018-07-14T14:03:19Z</time>
      </trkpt>
      <trkpt lat="40.757700" lon="-5.090317">
        <ele>2186.0</ele>
        <time>2018-07-14T14:03:21Z</time>
      </trkpt>
      <trkpt lat="40.757850" lon="-5.090333">
        <ele>2182.0</ele>
        <time>2018-07-14T14:03:22Z</time>
      </trkpt>
      <trkpt lat="40.757983" lon="-5.090333">
        <ele>2179.0</ele>
        <time>2018-07-14T14:03:23Z</time>
      </trkpt>
      <trkpt lat="40.758117" lon="-5.090317">
        <ele>2177.0</ele>
        <time>2018-07-14T14:03:24Z</time>
      </trkpt>
      <trkpt lat="40.758233" lon="-5.090317">
        <ele>2177.0</ele>
        <time>2018-07-14T14:03:25Z</time>
      </trkpt>
      <trkpt lat="40.758333" lon="-5.090317">
        <ele>2175.0</ele>
        <time>2018-07-14T14:03:26Z</time>
      </trkpt>
      <trkpt lat="40.758433" lon="-5.090333">
        <ele>2173.0</ele>
        <time>2018-07-14T14:03:27Z</time>
      </trkpt>
      <trkpt lat="40.758550" lon="-5.090333">
        <ele>2169.0</ele>
        <time>2018-07-14T14:03:28Z</time>
      </trkpt>
      <trkpt lat="40.758667" lon="-5.090350">
        <ele>2165.0</ele>
        <time>2018-07-14T14:03:29Z</time>
      </trkpt>
      <trkpt lat="40.758783" lon="-5.090383">
        <ele>2162.0</ele>
        <time>2018-07-14T14:03:30Z</time>
      </trkpt>
      <trkpt lat="40.758900" lon="-5.090417">
        <ele>2159.0</ele>
        <time>2018-07-14T14:03:31Z</time>
      </trkpt>
      <trkpt lat="40.759000" lon="-5.090433">
        <ele>2156.0</ele>
        <time>2018-07-14T14:03:32Z</time>
      </trkpt>
      <trkpt lat="40.759100" lon="-5.090450">
        <ele>2153.0</ele>
        <time>2018-07-14T14:03:33Z</time>
      </trkpt>
      <trkpt lat="40.759217" lon="-5.090483">
        <ele>2150.0</ele>
        <time>2018-07-14T14:03:34Z</time>
      </trkpt>
      <trkpt lat="40.759350" lon="-5.090500">
        <ele>2146.0</ele>
        <time>2018-07-14T14:03:35Z</time>
      </trkpt>
      <trkpt lat="40.759483" lon="-5.090533">
        <ele>2143.0</ele>
        <time>2018-07-14T14:03:36Z</time>
      </trkpt>
      <trkpt lat="40.759617" lon="-5.090550">
        <ele>2141.0</ele>
        <time>2018-07-14T14:03:37Z</time>
      </trkpt>
      <trkpt lat="40.759733" lon="-5.090567">
        <ele>2141.0</ele>
        <time>2018-07-14T14:03:38Z</time>
      </trkpt>
      <trkpt lat="40.759850" lon="-5.090567">
        <ele>2142.0</ele>
        <time>2018-07-14T14:03:39Z</time>
      </trkpt>
      <trkpt lat="40.759950" lon="-5.090583">
        <ele>2142.0</ele>
        <time>2018-07-14T14:03:40Z</time>
      </trkpt>
      <trkpt lat="40.760050" lon="-5.090583">
        <ele>2140.0</ele>
        <time>2018-07-14T14:03:41Z</time>
      </trkpt>
      <trkpt lat="40.760150" lon="-5.090600">
        <ele>2138.0</ele>
        <time>2018-07-14T14:03:42Z</time>
      </trkpt>
      <trkpt lat="40.760267" lon="-5.090617">
        <ele>2136.0</ele>
        <time>2018-07-14T14:03:43Z</time>
      </trkpt>
      <trkpt lat="40.760400" lon="-5.090633">
        <ele>2133.0</ele>
        <time>2018-07-14T14:03:44Z</time>
      </trkpt>
      <trkpt lat="40.760500" lon="-5.090650">
        <ele>2131.0</ele>
        <time>2018-07-14T14:03:45Z</time>
      </trkpt>
      <trkpt lat="40.760617" lon="-5.090667">
        <ele>2130.0</ele>
        <time>2018-07-14T14:03:46Z</time>
      </trkpt>
      <trkpt lat="40.760717" lon="-5.090667">
        <ele>2128.0</ele>
        <time>2018-07-14T14:03:47Z</time>
      </trkpt>
      <trkpt lat="40.760833" lon="-5.090683">
        <ele>2126.0</ele>
        <time>2018-07-14T14:03:48Z</time>
      </trkpt>
      <trkpt lat="40.760950" lon="-5.090700">
        <ele>2124.0</ele>
        <time>2018-07-14T14:03:49Z</time>
      </trkpt>
      <trkpt lat="40.761050" lon="-5.090733">
        <ele>2123.0</ele>
        <time>2018-07-14T14:03:50Z</time>
      </trkpt>
      <trkpt lat="40.761150" lon="-5.090750">
        <ele>2121.0</ele>
        <time>2018-07-14T14:03:51Z</time>
      </trkpt>
      <trkpt lat="40.761267" lon="-5.090783">
        <ele>2119.0</ele>
        <time>2018-07-14T14:03:52Z</time>
      </trkpt>
      <trkpt lat="40.761367" lon="-5.090817">
        <ele>2118.0</ele>
        <time>2018-07-14T14:03:53Z</time>
      </trkpt>
      <trkpt lat="40.761467" lon="-5.090867">
        <ele>2116.0</ele>
        <time>2018-07-14T14:03:54Z</time>
      </trkpt>
      <trkpt lat="40.761567" lon="-5.090917">
        <ele>2114.0</ele>
        <time>2018-07-14T14:03:55Z</time>
      </trkpt>
      <trkpt lat="40.761683" lon="-5.090967">
        <ele>2112.0</ele>
        <time>2018-07-14T14:03:56Z</time>
      </trkpt>
      <trkpt lat="40.761783" lon="-5.091033">
        <ele>2111.0</ele>
        <time>2018-07-14T14:03:57Z</time>
      </trkpt>
      <trkpt lat="40.761867" lon="-5.091083">
        <ele>2110.0</ele>
        <time>2018-07-14T14:03:58Z</time>
      </trkpt>
      <trkpt lat="40.761967" lon="-5.091150">
        <ele>2109.0</ele>
        <time>2018-07-14T14:03:59Z</time>
      </trkpt>
      <trkpt lat="40.762050" lon="-5.091217">
        <ele>2108.0</ele>
        <time>2018-07-14T14:04:00Z</time>
      </trkpt>
      <trkpt lat="40.762150" lon="-5.091267">
        <ele>2107.0</ele>
        <time>2018-07-14T14:04:01Z</time>
      </trkpt>
      <trkpt lat="40.762250" lon="-5.091333">
        <ele>2106.0</ele>
        <time>2018-07-14T14:04:02Z</time>
      </trkpt>
      <trkpt lat="40.762367" lon="-5.091367">
        <ele>2105.0</ele>
        <time>2018-07-14T14:04:03Z</time>
      </trkpt>
      <trkpt lat="40.762467" lon="-5.091383">
        <ele>2105.0</ele>
        <time>2018-07-14T14:04:04Z</time>
      </trkpt>
      <trkpt lat="40.762567" lon="-5.091400">
        <ele>2105.0</ele>
        <time>2018-07-14T14:04:05Z</time>
      </trkpt>
      <trkpt lat="40.762667" lon="-5.091417">
        <ele>2104.0</ele>
        <time>2018-07-14T14:04:06Z</time>
      </trkpt>
      <trkpt lat="40.762767" lon="-5.091450">
        <ele>2103.0</ele>
        <time>2018-07-14T14:04:07Z</time>
      </trkpt>
      <trkpt lat="40.762883" lon="-5.091483">
        <ele>2100.0</ele>
        <time>2018-07-14T14:04:08Z</time>
      </trkpt>
      <trkpt lat="40.763000" lon="-5.091517">
        <ele>2098.0</ele>
        <time>2018-07-14T14:04:09Z</time>
      </trkpt>
      <trkpt lat="40.763117" lon="-5.091550">
        <ele>2097.0</ele>
        <time>2018-07-14T14:04:10Z</time>
      </trkpt>
      <trkpt lat="40.763217" lon="-5.091567">
        <ele>2097.0</ele>
        <time>2018-07-14T14:04:11Z</time>
      </trkpt>
      <trkpt lat="40.763300" lon="-5.091567">
        <ele>2097.0</ele>
        <time>2018-07-14T14:04:12Z</time>
      </trkpt>
      <trkpt lat="40.763383" lon="-5.091583">
        <ele>2097.0</ele>
        <time>2018-07-14T14:04:13Z</time>
      </trkpt>
      <trkpt lat="40.763467" lon="-5.091600">
        <ele>2094.0</ele>
        <time>2018-07-14T14:04:14Z</time>
      </trkpt>
      <trkpt lat="40.763583" lon="-5.091617">
        <ele>2090.0</ele>
        <time>2018-07-14T14:04:15Z</time>
      </trkpt>
      <trkpt lat="40.763700" lon="-5.091650">
        <ele>2087.0</ele>
        <time>2018-07-14T14:04:16Z</time>
      </trkpt>
      <trkpt lat="40.763817" lon="-5.091667">
        <ele>2084.0</ele>
        <time>2018-07-14T14:04:17Z</time>
      </trkpt>
      <trkpt lat="40.763917" lon="-5.091700">
        <ele>2084.0</ele>
        <time>2018-07-14T14:04:18Z</time>
      </trkpt>
      <trkpt lat="40.764017" lon="-5.091717">
        <ele>2083.0</ele>
        <time>2018-07-14T14:04:19Z</time>
      </trkpt>
      <trkpt lat="40.764100" lon="-5.091717">
        <ele>2083.0</ele>
        <time>2018-07-14T14:04:20Z</time>
      </trkpt>
      <trkpt lat="40.764200" lon="-5.091733">
        <ele>2081.0</ele>
        <time>2018-07-14T14:04:21Z</time>
      </trkpt>
      <trkpt lat="40.764300" lon="-5.091733">
        <ele>2079.0</ele>
        <time>2018-07-14T14:04:22Z</time>
      </trkpt>
      <trkpt lat="40.764383" lon="-5.091750">
        <ele>2078.0</ele>
        <time>2018-07-14T14:04:23Z</time>
      </trkpt>
      <trkpt lat="40.764483" lon="-5.091767">
        <ele>2076.0</ele>
        <time>2018-07-14T14:04:24Z</time>
      </trkpt>
      <trkpt lat="40.764600" lon="-5.091783">
        <ele>2075.0</ele>
        <time>2018-07-14T14:04:25Z</time>
      </trkpt>
      <trkpt lat="40.764700" lon="-5.091783">
        <ele>2073.0</ele>
        <time>2018-07-14T14:04:26Z</time>
      </trkpt>
      <trkpt lat="40.765033" lon="-5.091833">
        <ele>2070.0</ele>
        <time>2018-07-14T14:04:29Z</time>
      </trkpt>
      <trkpt lat="40.765150" lon="-5.091850">
        <ele>2070.0</ele>
        <time>2018-07-14T14:04:30Z</time>
      </trkpt>
      <trkpt lat="40.765250" lon="-5.091867">
        <ele>2070.0</ele>
        <time>2018-07-14T14:04:31Z</time>
      </trkpt>
      <trkpt lat="40.765350" lon="-5.091867">
        <ele>2072.0</ele>
        <time>2018-07-14T14:04:32Z</time>
      </trkpt>
      <trkpt lat="40.765433" lon="-5.091867">
        <ele>2073.0</ele>
        <time>2018-07-14T14:04:33Z</time>
      </trkpt>
      <trkpt lat="40.765533" lon="-5.091867">
        <ele>2073.0</ele>
        <time>2018-07-14T14:04:34Z</time>
      </trkpt>
      <trkpt lat="40.765633" lon="-5.091850">
        <ele>2074.0</ele>
        <time>2018-07-14T14:04:35Z</time>
      </trkpt>
      <trkpt lat="40.765750" lon="-5.091850">
        <ele>2073.0</ele>
        <time>2018-07-14T14:04:36Z</time>
      </trkpt>
      <trkpt lat="40.765867" lon="-5.091850">
        <ele>2073.0</ele>
        <time>2018-07-14T14:04:37Z</time>
      </trkpt>
      <trkpt lat="40.765967" lon="-5.091850">
        <ele>2072.0</ele>
        <time>2018-07-14T14:04:38Z</time>
      </trkpt>
      <trkpt lat="40.766083" lon="-5.091850">
        <ele>2073.0</ele>
        <time>2018-07-14T14:04:39Z</time>
      </trkpt>
      <trkpt lat="40.766183" lon="-5.091833">
        <ele>2073.0</ele>
        <time>2018-07-14T14:04:40Z</time>
      </trkpt>
      <trkpt lat="40.766283" lon="-5.091817">
        <ele>2073.0</ele>
        <time>2018-07-14T14:04:41Z</time>
      </trkpt>
      <trkpt lat="40.766400" lon="-5.091783">
        <ele>2073.0</ele>
        <time>2018-07-14T14:04:42Z</time>
      </trkpt>
      <trkpt lat="40.766517" lon="-5.091767">
        <ele>2072.0</ele>
        <time>2018-07-14T14:04:43Z</time>
      </trkpt>
      <trkpt lat="40.766650" lon="-5.091733">
        <ele>2071.0</ele>
        <time>2018-07-14T14:04:44Z</time>
      </trkpt>
      <trkpt lat="40.766783" lon="-5.091717">
        <ele>2070.0</ele>
        <time>2018-07-14T14:04:45Z</time>
      </trkpt>
      <trkpt lat="40.766900" lon="-5.091683">
        <ele>2069.0</ele>
        <time>2018-07-14T14:04:46Z</time>
      </trkpt>
      <trkpt lat="40.767033" lon="-5.091667">
        <ele>2068.0</ele>
        <time>2018-07-14T14:04:47Z</time>
      </trkpt>
      <trkpt lat="40.767167" lon="-5.091617">
        <ele>2067.0</ele>
        <time>2018-07-14T14:04:48Z</time>
      </trkpt>
      <trkpt lat="40.767300" lon="-5.091583">
        <ele>2066.0</ele>
        <time>2018-07-14T14:04:49Z</time>
      </trkpt>
      <trkpt lat="40.767450" lon="-5.091550">
        <ele>2065.0</ele>
        <time>2018-07-14T14:04:50Z</time>
      </trkpt>
      <trkpt lat="40.767583" lon="-5.091500">
        <ele>2064.0</ele>
        <time>2018-07-14T14:04:51Z</time>
      </trkpt>
      <trkpt lat="40.767717" lon="-5.091450">
        <ele>2063.0</ele>
        <time>2018-07-14T14:04:52Z</time>
      </trkpt>
      <trkpt lat="40.767833" lon="-5.091417">
        <ele>2062.0</ele>
        <time>2018-07-14T14:04:53Z</time>
      </trkpt>
      <trkpt lat="40.767950" lon="-5.091383">
        <ele>2060.0</ele>
        <time>2018-07-14T14:04:54Z</time>
      </trkpt>
      <trkpt lat="40.768083" lon="-5.091350">
        <ele>2058.0</ele>
        <time>2018-07-14T14:04:55Z</time>
      </trkpt>
      <trkpt lat="40.768200" lon="-5.091333">
        <ele>2055.0</ele>
        <time>2018-07-14T14:04:56Z</time>
      </trkpt>
      <trkpt lat="40.768317" lon="-5.091300">
        <ele>2052.0</ele>
        <time>2018-07-14T14:04:57Z</time>
      </trkpt>
      <trkpt lat="40.768450" lon="-5.091267">
        <ele>2048.0</ele>
        <time>2018-07-14T14:04:58Z</time>
      </trkpt>
      <trkpt lat="40.768583" lon="-5.091233">
        <ele>2045.0</ele>
        <time>2018-07-14T14:04:59Z</time>
      </trkpt>
      <trkpt lat="40.768717" lon="-5.091217">
        <ele>2041.0</ele>
        <time>2018-07-14T14:05:00Z</time>
      </trkpt>
      <trkpt lat="40.768833" lon="-5.091183">
        <ele>2038.0</ele>
        <time>2018-07-14T14:05:01Z</time>
      </trkpt>
      <trkpt lat="40.768950" lon="-5.091167">
        <ele>2034.0</ele>
        <time>2018-07-14T14:05:02Z</time>
      </trkpt>
      <trkpt lat="40.769083" lon="-5.091150">
        <ele>2031.0</ele>
        <time>2018-07-14T14:05:03Z</time>
      </trkpt>
      <trkpt lat="40.769200" lon="-5.091117">
        <ele>2027.0</ele>
        <time>2018-07-14T14:05:04Z</time>
      </trkpt>
      <trkpt lat="40.769333" lon="-5.091100">
        <ele>2023.0</ele>
        <time>2018-07-14T14:05:05Z</time>
      </trkpt>
      <trkpt lat="40.769467" lon="-5.091067">
        <ele>2018.0</ele>
        <time>2018-07-14T14:05:06Z</time>
      </trkpt>
      <trkpt lat="40.769600" lon="-5.091050">
        <ele>2014.0</ele>
        <time>2018-07-14T14:05:07Z</time>
      </trkpt>
      <trkpt lat="40.769733" lon="-5.091033">
        <ele>2010.0</ele>
        <time>2018-07-14T14:05:08Z</time>
      </trkpt>
      <trkpt lat="40.769867" lon="-5.091000">
        <ele>2005.0</ele>
        <time>2018-07-14T14:05:09Z</time>
      </trkpt>
      <trkpt lat="40.770000" lon="-5.090983">
        <ele>2001.0</ele>
        <time>2018-07-14T14:05:10Z</time>
      </trkpt>
      <trkpt lat="40.770150" lon="-5.090967">
        <ele>1997.0</ele>
        <time>2018-07-14T14:05:11Z</time>
      </trkpt>
      <trkpt lat="40.770300" lon="-5.090967">
        <ele>1993.0</ele>
        <time>2018-07-14T14:05:12Z</time>
      </trkpt>
      <trkpt lat="40.770433" lon="-5.090950">
        <ele>1990.0</ele>
        <time>2018-07-14T14:05:13Z</time>
      </trkpt>
      <trkpt lat="40.770700" lon="-5.090933">
        <ele>1986.0</ele>
        <time>2018-07-14T14:05:15Z</time>
      </trkpt>
      <trkpt lat="40.770817" lon="-5.090917">
        <ele>1982.0</ele>
        <time>2018-07-14T14:05:16Z</time>
      </trkpt>
      <trkpt lat="40.770950" lon="-5.090900">
        <ele>1980.0</ele>
        <time>2018-07-14T14:05:17Z</time>
      </trkpt>
      <trkpt lat="40.771067" lon="-5.090900">
        <ele>1977.0</ele>
        <time>2018-07-14T14:05:18Z</time>
      </trkpt>
      <trkpt lat="40.771200" lon="-5.090883">
        <ele>1975.0</ele>
        <time>2018-07-14T14:05:19Z</time>
      </trkpt>
      <trkpt lat="40.771317" lon="-5.090883">
        <ele>1974.0</ele>
        <time>2018-07-14T14:05:20Z</time>
      </trkpt>
      <trkpt lat="40.771450" lon="-5.090883">
        <ele>1972.0</ele>
        <time>2018-07-14T14:05:21Z</time>
      </trkpt>
      <trkpt lat="40.771567" lon="-5.090883">
        <ele>1969.0</ele>
        <time>2018-07-14T14:05:22Z</time>
      </trkpt>
      <trkpt lat="40.771683" lon="-5.090883">
        <ele>1968.0</ele>
        <time>2018-07-14T14:05:23Z</time>
      </trkpt>
      <trkpt lat="40.771817" lon="-5.090883">
        <ele>1965.0</ele>
        <time>2018-07-14T14:05:24Z</time>
      </trkpt>
      <trkpt lat="40.772083" lon="-5.090883">
        <ele>1960.0</ele>
        <time>2018-07-14T14:05:26Z</time>
      </trkpt>
      <trkpt lat="40.772217" lon="-5.090883">
        <ele>1958.0</ele>
        <time>2018-07-14T14:05:27Z</time>
      </trkpt>
      <trkpt lat="40.772350" lon="-5.090867">
        <ele>1956.0</ele>
        <time>2018-07-14T14:05:28Z</time>
      </trkpt>
      <trkpt lat="40.772467" lon="-5.090867">
        <ele>1955.0</ele>
        <time>2018-07-14T14:05:29Z</time>
      </trkpt>
      <trkpt lat="40.772600" lon="-5.090867">
        <ele>1954.0</ele>
        <time>2018-07-14T14:05:30Z</time>
      </trkpt>
      <trkpt lat="40.772717" lon="-5.090850">
        <ele>1952.0</ele>
        <time>2018-07-14T14:05:31Z</time>
      </trkpt>
      <trkpt lat="40.772833" lon="-5.090833">
        <ele>1951.0</ele>
        <time>2018-07-14T14:05:32Z</time>
      </trkpt>
      <trkpt lat="40.772933" lon="-5.090817">
        <ele>1950.0</ele>
        <time>2018-07-14T14:05:33Z</time>
      </trkpt>
      <trkpt lat="40.773050" lon="-5.090800">
        <ele>1948.0</ele>
        <time>2018-07-14T14:05:34Z</time>
      </trkpt>
      <trkpt lat="40.773150" lon="-5.090783">
        <ele>1947.0</ele>
        <time>2018-07-14T14:05:35Z</time>
      </trkpt>
      <trkpt lat="40.773267" lon="-5.090767">
        <ele>1945.0</ele>
        <time>2018-07-14T14:05:36Z</time>
      </trkpt>
      <trkpt lat="40.773383" lon="-5.090767">
        <ele>1943.0</ele>
        <time>2018-07-14T14:05:37Z</time>
      </trkpt>
      <trkpt lat="40.773517" lon="-5.090750">
        <ele>1941.0</ele>
        <time>2018-07-14T14:05:38Z</time>
      </trkpt>
      <trkpt lat="40.773633" lon="-5.090733">
        <ele>1940.0</ele>
        <time>2018-07-14T14:05:39Z</time>
      </trkpt>
      <trkpt lat="40.773733" lon="-5.090700">
        <ele>1939.0</ele>
        <time>2018-07-14T14:05:40Z</time>
      </trkpt>
      <trkpt lat="40.773833" lon="-5.090683">
        <ele>1937.0</ele>
        <time>2018-07-14T14:05:41Z</time>
      </trkpt>
      <trkpt lat="40.773933" lon="-5.090667">
        <ele>1934.0</ele>
        <time>2018-07-14T14:05:42Z</time>
      </trkpt>
      <trkpt lat="40.774067" lon="-5.090667">
        <ele>1932.0</ele>
        <time>2018-07-14T14:05:43Z</time>
      </trkpt>
      <trkpt lat="40.774200" lon="-5.090650">
        <ele>1928.0</ele>
        <time>2018-07-14T14:05:44Z</time>
      </trkpt>
      <trkpt lat="40.774317" lon="-5.090633">
        <ele>1928.0</ele>
        <time>2018-07-14T14:05:45Z</time>
      </trkpt>
      <trkpt lat="40.774417" lon="-5.090617">
        <ele>1927.0</ele>
        <time>2018-07-14T14:05:46Z</time>
      </trkpt>
      <trkpt lat="40.774517" lon="-5.090600">
        <ele>1926.0</ele>
        <time>2018-07-14T14:05:47Z</time>
      </trkpt>
      <trkpt lat="40.774617" lon="-5.090583">
        <ele>1924.0</ele>
        <time>2018-07-14T14:05:48Z</time>
      </trkpt>
      <trkpt lat="40.774733" lon="-5.090567">
        <ele>1920.0</ele>
        <time>2018-07-14T14:05:49Z</time>
      </trkpt>
      <trkpt lat="40.774850" lon="-5.090550">
        <ele>1917.0</ele>
        <time>2018-07-14T14:05:50Z</time>
      </trkpt>
      <trkpt lat="40.774950" lon="-5.090533">
        <ele>1914.0</ele>
        <time>2018-07-14T14:05:51Z</time>
      </trkpt>
      <trkpt lat="40.775050" lon="-5.090517">
        <ele>1912.0</ele>
        <time>2018-07-14T14:05:52Z</time>
      </trkpt>
      <trkpt lat="40.775167" lon="-5.090500">
        <ele>1909.0</ele>
        <time>2018-07-14T14:05:53Z</time>
      </trkpt>
      <trkpt lat="40.775267" lon="-5.090483">
        <ele>1906.0</ele>
        <time>2018-07-14T14:05:54Z</time>
      </trkpt>
      <trkpt lat="40.775367" lon="-5.090483">
        <ele>1904.0</ele>
        <time>2018-07-14T14:05:55Z</time>
      </trkpt>
      <trkpt lat="40.775600" lon="-5.090450">
        <ele>1899.0</ele>
        <time>2018-07-14T14:05:57Z</time>
      </trkpt>
      <trkpt lat="40.775717" lon="-5.090433">
        <ele>1897.0</ele>
        <time>2018-07-14T14:05:58Z</time>
      </trkpt>
      <trkpt lat="40.775833" lon="-5.090400">
        <ele>1894.0</ele>
        <time>2018-07-14T14:05:59Z</time>
      </trkpt>
      <trkpt lat="40.775950" lon="-5.090367">
        <ele>1893.0</ele>
        <time>2018-07-14T14:06:00Z</time>
      </trkpt>
      <trkpt lat="40.776067" lon="-5.090350">
        <ele>1891.0</ele>
        <time>2018-07-14T14:06:01Z</time>
      </trkpt>
      <trkpt lat="40.776183" lon="-5.090317">
        <ele>1890.0</ele>
        <time>2018-07-14T14:06:02Z</time>
      </trkpt>
      <trkpt lat="40.776283" lon="-5.090267">
        <ele>1888.0</ele>
        <time>2018-07-14T14:06:03Z</time>
      </trkpt>
      <trkpt lat="40.776417" lon="-5.090233">
        <ele>1886.0</ele>
        <time>2018-07-14T14:06:04Z</time>
      </trkpt>
      <trkpt lat="40.776533" lon="-5.090200">
        <ele>1884.0</ele>
        <time>2018-07-14T14:06:05Z</time>
      </trkpt>
      <trkpt lat="40.776650" lon="-5.090150">
        <ele>1882.0</ele>
        <time>2018-07-14T14:06:06Z</time>
      </trkpt>
      <trkpt lat="40.776783" lon="-5.090117">
        <ele>1879.0</ele>
        <time>2018-07-14T14:06:07Z</time>
      </trkpt>
      <trkpt lat="40.776917" lon="-5.090083">
        <ele>1877.0</ele>
        <time>2018-07-14T14:06:08Z</time>
      </trkpt>
      <trkpt lat="40.777033" lon="-5.090050">
        <ele>1876.0</ele>
        <time>2018-07-14T14:06:09Z</time>
      </trkpt>
      <trkpt lat="40.777167" lon="-5.090017">
        <ele>1875.0</ele>
        <time>2018-07-14T14:06:10Z</time>
      </trkpt>
      <trkpt lat="40.777283" lon="-5.089967">
        <ele>1875.0</ele>
        <time>2018-07-14T14:06:11Z</time>
      </trkpt>
      <trkpt lat="40.777400" lon="-5.089933">
        <ele>1874.0</ele>
        <time>2018-07-14T14:06:12Z</time>
      </trkpt>
      <trkpt lat="40.777533" lon="-5.089900">
        <ele>1874.0</ele>
        <time>2018-07-14T14:06:13Z</time>
      </trkpt>
      <trkpt lat="40.777667" lon="-5.089867">
        <ele>1874.0</ele>
        <time>2018-07-14T14:06:14Z</time>
      </trkpt>
      <trkpt lat="40.777783" lon="-5.089833">
        <ele>1875.0</ele>
        <time>2018-07-14T14:06:15Z</time>
      </trkpt>
      <trkpt lat="40.777883" lon="-5.089800">
        <ele>1879.0</ele>
        <time>2018-07-14T14:06:16Z</time>
      </trkpt>
      <trkpt lat="40.777967" lon="-5.089767">
        <ele>1885.0</ele>
        <time>2018-07-14T14:06:17Z</time>
      </trkpt>
      <trkpt lat="40.778050" lon="-5.089717">
        <ele>1888.0</ele>
        <time>2018-07-14T14:06:18Z</time>
      </trkpt>
      <trkpt lat="40.778133" lon="-5.089667">
        <ele>1891.0</ele>
        <time>2018-07-14T14:06:19Z</time>
      </trkpt>
      <trkpt lat="40.778250" lon="-5.089617">
        <ele>1892.0</ele>
        <time>2018-07-14T14:06:20Z</time>
      </trkpt>
      <trkpt lat="40.778350" lon="-5.089550">
        <ele>1892.0</ele>
        <time>2018-07-14T14:06:21Z</time>
      </trkpt>
      <trkpt lat="40.778450" lon="-5.089467">
        <ele>1895.0</ele>
        <time>2018-07-14T14:06:22Z</time>
      </trkpt>
      <trkpt lat="40.778533" lon="-5.089350">
        <ele>1897.0</ele>
        <time>2018-07-14T14:06:23Z</time>
      </trkpt>
      <trkpt lat="40.778667" lon="-5.089100">
        <ele>1902.0</ele>
        <time>2018-07-14T14:06:25Z</time>
      </trkpt>
      <trkpt lat="40.778733" lon="-5.088983">
        <ele>1905.0</ele>
        <time>2018-07-14T14:06:26Z</time>
      </trkpt>
      <trkpt lat="40.778800" lon="-5.088867">
        <ele>1907.0</ele>
        <time>2018-07-14T14:06:27Z</time>
      </trkpt>
      <trkpt lat="40.778867" lon="-5.088733">
        <ele>1908.0</ele>
        <time>2018-07-14T14:06:28Z</time>
      </trkpt>
      <trkpt lat="40.778917" lon="-5.088583">
        <ele>1907.0</ele>
        <time>2018-07-14T14:06:29Z</time>
      </trkpt>
      <trkpt lat="40.778933" lon="-5.088417">
        <ele>1906.0</ele>
        <time>2018-07-14T14:06:30Z</time>
      </trkpt>
      <trkpt lat="40.778917" lon="-5.088267">
        <ele>1905.0</ele>
        <time>2018-07-14T14:06:31Z</time>
      </trkpt>
      <trkpt lat="40.778900" lon="-5.088167">
        <ele>1905.0</ele>
        <time>2018-07-14T14:06:32Z</time>
      </trkpt>
      <trkpt lat="40.778850" lon="-5.088083">
        <ele>1906.0</ele>
        <time>2018-07-14T14:06:33Z</time>
      </trkpt>
      <trkpt lat="40.778817" lon="-5.088050">
        <ele>1907.0</ele>
        <time>2018-07-14T14:06:34Z</time>
      </trkpt>
      <trkpt lat="40.778783" lon="-5.088033">
        <ele>1908.0</ele>
        <time>2018-07-14T14:06:35Z</time>
      </trkpt>
      <trkpt lat="40.778750" lon="-5.088033">
        <ele>1908.0</ele>
        <time>2018-07-14T14:06:36Z</time>
      </trkpt>
      <trkpt lat="40.778750" lon="-5.088067">
        <ele>1909.0</ele>
        <time>2018-07-14T14:06:37Z</time>
      </trkpt>
      <trkpt lat="40.778750" lon="-5.088117">
        <ele>1910.0</ele>
        <time>2018-07-14T14:06:38Z</time>
      </trkpt>
      <trkpt lat="40.778800" lon="-5.088183">
        <ele>1910.0</ele>
        <time>2018-07-14T14:06:39Z</time>
      </trkpt>
      <trkpt lat="40.778867" lon="-5.088233">
        <ele>1911.0</ele>
        <time>2018-07-14T14:06:40Z</time>
      </trkpt>
      <trkpt lat="40.778950" lon="-5.088283">
        <ele>1911.0</ele>
        <time>2018-07-14T14:06:41Z</time>
      </trkpt>
      <trkpt lat="40.779067" lon="-5.088333">
        <ele>1910.0</ele>
        <time>2018-07-14T14:06:42Z</time>
      </trkpt>
      <trkpt lat="40.779183" lon="-5.088350">
        <ele>1911.0</ele>
        <time>2018-07-14T14:06:43Z</time>
      </trkpt>
      <trkpt lat="40.779300" lon="-5.088350">
        <ele>1913.0</ele>
        <time>2018-07-14T14:06:44Z</time>
      </trkpt>
      <trkpt lat="40.779400" lon="-5.088300">
        <ele>1916.0</ele>
        <time>2018-07-14T14:06:45Z</time>
      </trkpt>
      <trkpt lat="40.779517" lon="-5.088250">
        <ele>1918.0</ele>
        <time>2018-07-14T14:06:46Z</time>
      </trkpt>
      <trkpt lat="40.779633" lon="-5.088200">
        <ele>1919.0</ele>
        <time>2018-07-14T14:06:47Z</time>
      </trkpt>
      <trkpt lat="40.779750" lon="-5.088150">
        <ele>1921.0</ele>
        <time>2018-07-14T14:06:48Z</time>
      </trkpt>
      <trkpt lat="40.779883" lon="-5.088133">
        <ele>1921.0</ele>
        <time>2018-07-14T14:06:49Z</time>
      </trkpt>
      <trkpt lat="40.780017" lon="-5.088133">
        <ele>1921.0</ele>
        <time>2018-07-14T14:06:50Z</time>
      </trkpt>
      <trkpt lat="40.780100" lon="-5.088167">
        <ele>1922.0</ele>
        <time>2018-07-14T14:06:51Z</time>
      </trkpt>
      <trkpt lat="40.780183" lon="-5.088233">
        <ele>1921.0</ele>
        <time>2018-07-14T14:06:52Z</time>
      </trkpt>
      <trkpt lat="40.780217" lon="-5.088300">
        <ele>1921.0</ele>
        <time>2018-07-14T14:06:53Z</time>
      </trkpt>
      <trkpt lat="40.780267" lon="-5.088350">
        <ele>1921.0</ele>
        <time>2018-07-14T14:06:54Z</time>
      </trkpt>
      <trkpt lat="40.780300" lon="-5.088383">
        <ele>1920.0</ele>
        <time>2018-07-14T14:06:55Z</time>
      </trkpt>
      <trkpt lat="40.780333" lon="-5.088417">
        <ele>1920.0</ele>
        <time>2018-07-14T14:06:56Z</time>
      </trkpt>
      <trkpt lat="40.780350" lon="-5.088450">
        <ele>1919.0</ele>
        <time>2018-07-14T14:06:57Z</time>
      </trkpt>
      <trkpt lat="40.780333" lon="-5.088500">
        <ele>1917.0</ele>
        <time>2018-07-14T14:06:58Z</time>
      </trkpt>
      <trkpt lat="40.780300" lon="-5.088533">
        <ele>1915.0</ele>
        <time>2018-07-14T14:06:59Z</time>
      </trkpt>
      <trkpt lat="40.780233" lon="-5.088567">
        <ele>1913.0</ele>
        <time>2018-07-14T14:07:00Z</time>
      </trkpt>
      <trkpt lat="40.780183" lon="-5.088583">
        <ele>1913.0</ele>
        <time>2018-07-14T14:07:01Z</time>
      </trkpt>
      <trkpt lat="40.780150" lon="-5.088617">
        <ele>1914.0</ele>
        <time>2018-07-14T14:07:02Z</time>
      </trkpt>
      <trkpt lat="40.780133" lon="-5.088650">
        <ele>1914.0</ele>
        <time>2018-07-14T14:07:03Z</time>
      </trkpt>
      <trkpt lat="40.780133" lon="-5.088700">
        <ele>1914.0</ele>
        <time>2018-07-14T14:07:04Z</time>
      </trkpt>
      <trkpt lat="40.780133" lon="-5.088750">
        <ele>1913.0</ele>
        <time>2018-07-14T14:07:05Z</time>
      </trkpt>
      <trkpt lat="40.780150" lon="-5.088800">
        <ele>1913.0</ele>
        <time>2018-07-14T14:07:06Z</time>
      </trkpt>
      <trkpt lat="40.780150" lon="-5.088850">
        <ele>1912.0</ele>
        <time>2018-07-14T14:07:07Z</time>
      </trkpt>
      <trkpt lat="40.780183" lon="-5.088900">
        <ele>1911.0</ele>
        <time>2018-07-14T14:07:08Z</time>
      </trkpt>
      <trkpt lat="40.780233" lon="-5.088967">
        <ele>1910.0</ele>
        <time>2018-07-14T14:07:09Z</time>
      </trkpt>
      <trkpt lat="40.780283" lon="-5.089033">
        <ele>1909.0</ele>
        <time>2018-07-14T14:07:10Z</time>
      </trkpt>
      <trkpt lat="40.780350" lon="-5.089100">
        <ele>1908.0</ele>
        <time>2018-07-14T14:07:11Z</time>
      </trkpt>
      <trkpt lat="40.780400" lon="-5.089150">
        <ele>1908.0</ele>
        <time>2018-07-14T14:07:12Z</time>
      </trkpt>
      <trkpt lat="40.780450" lon="-5.089183">
        <ele>1909.0</ele>
        <time>2018-07-14T14:07:13Z</time>
      </trkpt>
      <trkpt lat="40.780517" lon="-5.089233">
        <ele>1909.0</ele>
        <time>2018-07-14T14:07:14Z</time>
      </trkpt>
      <trkpt lat="40.780583" lon="-5.089267">
        <ele>1909.0</ele>
        <time>2018-07-14T14:07:15Z</time>
      </trkpt>
      <trkpt lat="40.780650" lon="-5.089317">
        <ele>1909.0</ele>
        <time>2018-07-14T14:07:16Z</time>
      </trkpt>
      <trkpt lat="40.780700" lon="-5.089383">
        <ele>1910.0</ele>
        <time>2018-07-14T14:07:17Z</time>
      </trkpt>
      <trkpt lat="40.780767" lon="-5.089433">
        <ele>1910.0</ele>
        <time>2018-07-14T14:07:18Z</time>
      </trkpt>
      <trkpt lat="40.780800" lon="-5.089483">
        <ele>1911.0</ele>
        <time>2018-07-14T14:07:19Z</time>
      </trkpt>
      <trkpt lat="40.780833" lon="-5.089550">
        <ele>1913.0</ele>
        <time>2018-07-14T14:07:20Z</time>
      </trkpt>
      <trkpt lat="40.780867" lon="-5.089600">
        <ele>1915.0</ele>
        <time>2018-07-14T14:07:21Z</time>
      </trkpt>
      <trkpt lat="40.780883" lon="-5.089650">
        <ele>1917.0</ele>
        <time>2018-07-14T14:07:22Z</time>
      </trkpt>
      <trkpt lat="40.780917" lon="-5.089700">
        <ele>1919.0</ele>
        <time>2018-07-14T14:07:23Z</time>
      </trkpt>
      <trkpt lat="40.780917" lon="-5.089767">
        <ele>1921.0</ele>
        <time>2018-07-14T14:07:24Z</time>
      </trkpt>
      <trkpt lat="40.780933" lon="-5.089817">
        <ele>1922.0</ele>
        <time>2018-07-14T14:07:25Z</time>
      </trkpt>
      <trkpt lat="40.780950" lon="-5.089883">
        <ele>1924.0</ele>
        <time>2018-07-14T14:07:26Z</time>
      </trkpt>
      <trkpt lat="40.780950" lon="-5.089933">
        <ele>1926.0</ele>
        <time>2018-07-14T14:07:27Z</time>
      </trkpt>
      <trkpt lat="40.780950" lon="-5.089983">
        <ele>1928.0</ele>
        <time>2018-07-14T14:07:28Z</time>
      </trkpt>
      <trkpt lat="40.780967" lon="-5.090050">
        <ele>1929.0</ele>
        <time>2018-07-14T14:07:29Z</time>
      </trkpt>
      <trkpt lat="40.780983" lon="-5.090117">
        <ele>1931.0</ele>
        <time>2018-07-14T14:07:30Z</time>
      </trkpt>
      <trkpt lat="40.781033" lon="-5.090167">
        <ele>1932.0</ele>
        <time>2018-07-14T14:07:31Z</time>
      </trkpt>
      <trkpt lat="40.781100" lon="-5.090233">
        <ele>1933.0</ele>
        <time>2018-07-14T14:07:32Z</time>
      </trkpt>
      <trkpt lat="40.781167" lon="-5.090283">
        <ele>1934.0</ele>
        <time>2018-07-14T14:07:33Z</time>
      </trkpt>
      <trkpt lat="40.781267" lon="-5.090333">
        <ele>1934.0</ele>
        <time>2018-07-14T14:07:34Z</time>
      </trkpt>
      <trkpt lat="40.781367" lon="-5.090367">
        <ele>1935.0</ele>
        <time>2018-07-14T14:07:35Z</time>
      </trkpt>
      <trkpt lat="40.781467" lon="-5.090367">
        <ele>1935.0</ele>
        <time>2018-07-14T14:07:36Z</time>
      </trkpt>
      <trkpt lat="40.781583" lon="-5.090317">
        <ele>1935.0</ele>
        <time>2018-07-14T14:07:37Z</time>
      </trkpt>
      <trkpt lat="40.781683" lon="-5.090233">
        <ele>1935.0</ele>
        <time>2018-07-14T14:07:38Z</time>
      </trkpt>
      <trkpt lat="40.781783" lon="-5.090117">
        <ele>1936.0</ele>
        <time>2018-07-14T14:07:39Z</time>
      </trkpt>
      <trkpt lat="40.781850" lon="-5.089983">
        <ele>1937.0</ele>
        <time>2018-07-14T14:07:40Z</time>
      </trkpt>
      <trkpt lat="40.781917" lon="-5.089833">
        <ele>1937.0</ele>
        <time>2018-07-14T14:07:41Z</time>
      </trkpt>
      <trkpt lat="40.781967" lon="-5.089667">
        <ele>1937.0</ele>
        <time>2018-07-14T14:07:42Z</time>
      </trkpt>
      <trkpt lat="40.781983" lon="-5.089500">
        <ele>1938.0</ele>
        <time>2018-07-14T14:07:43Z</time>
      </trkpt>
      <trkpt lat="40.781967" lon="-5.089350">
        <ele>1938.0</ele>
        <time>2018-07-14T14:07:44Z</time>
      </trkpt>
      <trkpt lat="40.781933" lon="-5.089217">
        <ele>1939.0</ele>
        <time>2018-07-14T14:07:45Z</time>
      </trkpt>
      <trkpt lat="40.781883" lon="-5.089117">
        <ele>1939.0</ele>
        <time>2018-07-14T14:07:46Z</time>
      </trkpt>
      <trkpt lat="40.781817" lon="-5.089050">
        <ele>1940.0</ele>
        <time>2018-07-14T14:07:47Z</time>
      </trkpt>
      <trkpt lat="40.781750" lon="-5.089033">
        <ele>1940.0</ele>
        <time>2018-07-14T14:07:48Z</time>
      </trkpt>
      <trkpt lat="40.781700" lon="-5.089033">
        <ele>1940.0</ele>
        <time>2018-07-14T14:07:49Z</time>
      </trkpt>
      <trkpt lat="40.781650" lon="-5.089050">
        <ele>1940.0</ele>
        <time>2018-07-14T14:07:50Z</time>
      </trkpt>
      <trkpt lat="40.781617" lon="-5.089067">
        <ele>1942.0</ele>
        <time>2018-07-14T14:07:51Z</time>
      </trkpt>
      <trkpt lat="40.781583" lon="-5.089083">
        <ele>1944.0</ele>
        <time>2018-07-14T14:07:52Z</time>
      </trkpt>
      <trkpt lat="40.781550" lon="-5.089100">
        <ele>1945.0</ele>
        <time>2018-07-14T14:07:53Z</time>
      </trkpt>
      <trkpt lat="40.781517" lon="-5.089133">
        <ele>1946.0</ele>
        <time>2018-07-14T14:07:54Z</time>
      </trkpt>
      <trkpt lat="40.781500" lon="-5.089183">
        <ele>1948.0</ele>
        <time>2018-07-14T14:07:55Z</time>
      </trkpt>
      <trkpt lat="40.781467" lon="-5.089233">
        <ele>1950.0</ele>
        <time>2018-07-14T14:07:56Z</time>
      </trkpt>
      <trkpt lat="40.781450" lon="-5.089267">
        <ele>1952.0</ele>
        <time>2018-07-14T14:07:57Z</time>
      </trkpt>
      <trkpt lat="40.781417" lon="-5.089317">
        <ele>1954.0</ele>
        <time>2018-07-14T14:07:59Z</time>
      </trkpt>
      <trkpt lat="40.781400" lon="-5.089367">
        <ele>1955.0</ele>
        <time>2018-07-14T14:08:00Z</time>
      </trkpt>
      <trkpt lat="40.781367" lon="-5.089417">
        <ele>1956.0</ele>
        <time>2018-07-14T14:08:01Z</time>
      </trkpt>
      <trkpt lat="40.781350" lon="-5.089483">
        <ele>1957.0</ele>
        <time>2018-07-14T14:08:02Z</time>
      </trkpt>
      <trkpt lat="40.781333" lon="-5.089533">
        <ele>1959.0</ele>
        <time>2018-07-14T14:08:03Z</time>
      </trkpt>
      <trkpt lat="40.781317" lon="-5.089583">
        <ele>1961.0</ele>
        <time>2018-07-14T14:08:04Z</time>
      </trkpt>
      <trkpt lat="40.781317" lon="-5.089633">
        <ele>1963.0</ele>
        <time>2018-07-14T14:08:05Z</time>
      </trkpt>
      <trkpt lat="40.781317" lon="-5.089683">
        <ele>1965.0</ele>
        <time>2018-07-14T14:08:06Z</time>
      </trkpt>
      <trkpt lat="40.781300" lon="-5.089733">
        <ele>1965.0</ele>
        <time>2018-07-14T14:08:07Z</time>
      </trkpt>
      <trkpt lat="40.781283" lon="-5.089800">
        <ele>1965.0</ele>
        <time>2018-07-14T14:08:08Z</time>
      </trkpt>
      <trkpt lat="40.781267" lon="-5.089867">
        <ele>1964.0</ele>
        <time>2018-07-14T14:08:09Z</time>
      </trkpt>
      <trkpt lat="40.781250" lon="-5.089950">
        <ele>1964.0</ele>
        <time>2018-07-14T14:08:10Z</time>
      </trkpt>
      <trkpt lat="40.781267" lon="-5.090033">
        <ele>1964.0</ele>
        <time>2018-07-14T14:08:11Z</time>
      </trkpt>
      <trkpt lat="40.781283" lon="-5.090100">
        <ele>1965.0</ele>
        <time>2018-07-14T14:08:12Z</time>
      </trkpt>
      <trkpt lat="40.781317" lon="-5.090167">
        <ele>1964.0</ele>
        <time>2018-07-14T14:08:13Z</time>
      </trkpt>
      <trkpt lat="40.781367" lon="-5.090233">
        <ele>1964.0</ele>
        <time>2018-07-14T14:08:14Z</time>
      </trkpt>
      <trkpt lat="40.781433" lon="-5.090300">
        <ele>1964.0</ele>
        <time>2018-07-14T14:08:15Z</time>
      </trkpt>
      <trkpt lat="40.781500" lon="-5.090350">
        <ele>1964.0</ele>
        <time>2018-07-14T14:08:16Z</time>
      </trkpt>
      <trkpt lat="40.781583" lon="-5.090367">
        <ele>1964.0</ele>
        <time>2018-07-14T14:08:17Z</time>
      </trkpt>
      <trkpt lat="40.781683" lon="-5.090350">
        <ele>1964.0</ele>
        <time>2018-07-14T14:08:18Z</time>
      </trkpt>
      <trkpt lat="40.781767" lon="-5.090317">
        <ele>1964.0</ele>
        <time>2018-07-14T14:08:19Z</time>
      </trkpt>
      <trkpt lat="40.781833" lon="-5.090283">
        <ele>1965.0</ele>
        <time>2018-07-14T14:08:20Z</time>
      </trkpt>
      <trkpt lat="40.781917" lon="-5.090233">
        <ele>1964.0</ele>
        <time>2018-07-14T14:08:21Z</time>
      </trkpt>
      <trkpt lat="40.782017" lon="-5.090183">
        <ele>1964.0</ele>
        <time>2018-07-14T14:08:22Z</time>
      </trkpt>
      <trkpt lat="40.782167" lon="-5.089983">
        <ele>1963.0</ele>
        <time>2018-07-14T14:08:24Z</time>
      </trkpt>
      <trkpt lat="40.782217" lon="-5.089833">
        <ele>1963.0</ele>
        <time>2018-07-14T14:08:25Z</time>
      </trkpt>
      <trkpt lat="40.782233" lon="-5.089700">
        <ele>1963.0</ele>
        <time>2018-07-14T14:08:26Z</time>
      </trkpt>
      <trkpt lat="40.782233" lon="-5.089550">
        <ele>1963.0</ele>
        <time>2018-07-14T14:08:27Z</time>
      </trkpt>
      <trkpt lat="40.782217" lon="-5.089417">
        <ele>1963.0</ele>
        <time>2018-07-14T14:08:28Z</time>
      </trkpt>
      <trkpt lat="40.782183" lon="-5.089300">
        <ele>1963.0</ele>
        <time>2018-07-14T14:08:29Z</time>
      </trkpt>
      <trkpt lat="40.782133" lon="-5.089200">
        <ele>1963.0</ele>
        <time>2018-07-14T14:08:30Z</time>
      </trkpt>
      <trkpt lat="40.782067" lon="-5.089133">
        <ele>1963.0</ele>
        <time>2018-07-14T14:08:31Z</time>
      </trkpt>
      <trkpt lat="40.781983" lon="-5.089083">
        <ele>1963.0</ele>
        <time>2018-07-14T14:08:32Z</time>
      </trkpt>
      <trkpt lat="40.781933" lon="-5.089067">
        <ele>1962.0</ele>
        <time>2018-07-14T14:08:33Z</time>
      </trkpt>
      <trkpt lat="40.781867" lon="-5.089067">
        <ele>1961.0</ele>
        <time>2018-07-14T14:08:34Z</time>
      </trkpt>
      <trkpt lat="40.781817" lon="-5.089083">
        <ele>1961.0</ele>
        <time>2018-07-14T14:08:35Z</time>
      </trkpt>
      <trkpt lat="40.781783" lon="-5.089117">
        <ele>1960.0</ele>
        <time>2018-07-14T14:08:36Z</time>
      </trkpt>
      <trkpt lat="40.781733" lon="-5.089150">
        <ele>1960.0</ele>
        <time>2018-07-14T14:08:37Z</time>
      </trkpt>
      <trkpt lat="40.781700" lon="-5.089200">
        <ele>1960.0</ele>
        <time>2018-07-14T14:08:38Z</time>
      </trkpt>
      <trkpt lat="40.781667" lon="-5.089250">
        <ele>1959.0</ele>
        <time>2018-07-14T14:08:39Z</time>
      </trkpt>
      <trkpt lat="40.781633" lon="-5.089317">
        <ele>1958.0</ele>
        <time>2018-07-14T14:08:40Z</time>
      </trkpt>
      <trkpt lat="40.781617" lon="-5.089400">
        <ele>1957.0</ele>
        <time>2018-07-14T14:08:41Z</time>
      </trkpt>
      <trkpt lat="40.781600" lon="-5.089467">
        <ele>1957.0</ele>
        <time>2018-07-14T14:08:42Z</time>
      </trkpt>
      <trkpt lat="40.781583" lon="-5.089517">
        <ele>1958.0</ele>
        <time>2018-07-14T14:08:43Z</time>
      </trkpt>
      <trkpt lat="40.781567" lon="-5.089583">
        <ele>1959.0</ele>
        <time>2018-07-14T14:08:44Z</time>
      </trkpt>
      <trkpt lat="40.781550" lon="-5.089650">
        <ele>1959.0</ele>
        <time>2018-07-14T14:08:45Z</time>
      </trkpt>
      <trkpt lat="40.781550" lon="-5.089717">
        <ele>1958.0</ele>
        <time>2018-07-14T14:08:46Z</time>
      </trkpt>
      <trkpt lat="40.781550" lon="-5.089800">
        <ele>1957.0</ele>
        <time>2018-07-14T14:08:47Z</time>
      </trkpt>
      <trkpt lat="40.781550" lon="-5.089900">
        <ele>1955.0</ele>
        <time>2018-07-14T14:08:48Z</time>
      </trkpt>
      <trkpt lat="40.781550" lon="-5.089983">
        <ele>1955.0</ele>
        <time>2018-07-14T14:08:49Z</time>
      </trkpt>
      <trkpt lat="40.781550" lon="-5.090067">
        <ele>1955.0</ele>
        <time>2018-07-14T14:08:50Z</time>
      </trkpt>
      <trkpt lat="40.781550" lon="-5.090133">
        <ele>1957.0</ele>
        <time>2018-07-14T14:08:51Z</time>
      </trkpt>
      <trkpt lat="40.781533" lon="-5.090183">
        <ele>1958.0</ele>
        <time>2018-07-14T14:08:52Z</time>
      </trkpt>
      <trkpt lat="40.781533" lon="-5.090233">
        <ele>1958.0</ele>
        <time>2018-07-14T14:08:53Z</time>
      </trkpt>
      <trkpt lat="40.781550" lon="-5.090283">
        <ele>1957.0</ele>
        <time>2018-07-14T14:08:54Z</time>
      </trkpt>
      <trkpt lat="40.781550" lon="-5.090367">
        <ele>1955.0</ele>
        <time>2018-07-14T14:08:55Z</time>
      </trkpt>
      <trkpt lat="40.781550" lon="-5.090450">
        <ele>1954.0</ele>
        <time>2018-07-14T14:08:56Z</time>
      </trkpt>
      <trkpt lat="40.781550" lon="-5.090517">
        <ele>1952.0</ele>
        <time>2018-07-14T14:08:57Z</time>
      </trkpt>
      <trkpt lat="40.781533" lon="-5.090583">
        <ele>1951.0</ele>
        <time>2018-07-14T14:08:58Z</time>
      </trkpt>
      <trkpt lat="40.781517" lon="-5.090650">
        <ele>1950.0</ele>
        <time>2018-07-14T14:08:59Z</time>
      </trkpt>
      <trkpt lat="40.781517" lon="-5.090717">
        <ele>1949.0</ele>
        <time>2018-07-14T14:09:00Z</time>
      </trkpt>
      <trkpt lat="40.781533" lon="-5.090783">
        <ele>1948.0</ele>
        <time>2018-07-14T14:09:01Z</time>
      </trkpt>
      <trkpt lat="40.781533" lon="-5.090833">
        <ele>1947.0</ele>
        <time>2018-07-14T14:09:02Z</time>
      </trkpt>
      <trkpt lat="40.781533" lon="-5.090900">
        <ele>1945.0</ele>
        <time>2018-07-14T14:09:03Z</time>
      </trkpt>
      <trkpt lat="40.781533" lon="-5.090950">
        <ele>1943.0</ele>
        <time>2018-07-14T14:09:04Z</time>
      </trkpt>
      <trkpt lat="40.781533" lon="-5.091017">
        <ele>1941.0</ele>
        <time>2018-07-14T14:09:05Z</time>
      </trkpt>
      <trkpt lat="40.781533" lon="-5.091067">
        <ele>1938.0</ele>
        <time>2018-07-14T14:09:06Z</time>
      </trkpt>
      <trkpt lat="40.781533" lon="-5.091133">
        <ele>1936.0</ele>
        <time>2018-07-14T14:09:07Z</time>
      </trkpt>
      <trkpt lat="40.781533" lon="-5.091183">
        <ele>1934.0</ele>
        <time>2018-07-14T14:09:08Z</time>
      </trkpt>
      <trkpt lat="40.781533" lon="-5.091250">
        <ele>1931.0</ele>
        <time>2018-07-14T14:09:09Z</time>
      </trkpt>
      <trkpt lat="40.781517" lon="-5.091317">
        <ele>1929.0</ele>
        <time>2018-07-14T14:09:10Z</time>
      </trkpt>
      <trkpt lat="40.781500" lon="-5.091383">
        <ele>1926.0</ele>
        <time>2018-07-14T14:09:11Z</time>
      </trkpt>
      <trkpt lat="40.781483" lon="-5.091467">
        <ele>1924.0</ele>
        <time>2018-07-14T14:09:12Z</time>
      </trkpt>
      <trkpt lat="40.781500" lon="-5.091550">
        <ele>1922.0</ele>
        <time>2018-07-14T14:09:13Z</time>
      </trkpt>
      <trkpt lat="40.781550" lon="-5.091633">
        <ele>1920.0</ele>
        <time>2018-07-14T14:09:14Z</time>
      </trkpt>
      <trkpt lat="40.781617" lon="-5.091700">
        <ele>1919.0</ele>
        <time>2018-07-14T14:09:15Z</time>
      </trkpt>
      <trkpt lat="40.781717" lon="-5.091767">
        <ele>1919.0</ele>
        <time>2018-07-14T14:09:16Z</time>
      </trkpt>
      <trkpt lat="40.781783" lon="-5.091783">
        <ele>1924.0</ele>
        <time>2018-07-14T14:09:17Z</time>
      </trkpt>
      <trkpt lat="40.781850" lon="-5.091833">
        <ele>1926.0</ele>
        <time>2018-07-14T14:09:18Z</time>
      </trkpt>
      <trkpt lat="40.781917" lon="-5.091883">
        <ele>1927.0</ele>
        <time>2018-07-14T14:09:19Z</time>
      </trkpt>
      <trkpt lat="40.781967" lon="-5.091950">
        <ele>1926.0</ele>
        <time>2018-07-14T14:09:20Z</time>
      </trkpt>
      <trkpt lat="40.781983" lon="-5.092017">
        <ele>1925.0</ele>
        <time>2018-07-14T14:09:21Z</time>
      </trkpt>
      <trkpt lat="40.781967" lon="-5.092067">
        <ele>1923.0</ele>
        <time>2018-07-14T14:09:22Z</time>
      </trkpt>
      <trkpt lat="40.781933" lon="-5.092100">
        <ele>1920.0</ele>
        <time>2018-07-14T14:09:23Z</time>
      </trkpt>
      <trkpt lat="40.781883" lon="-5.092117">
        <ele>1919.0</ele>
        <time>2018-07-14T14:09:24Z</time>
      </trkpt>
      <trkpt lat="40.781833" lon="-5.092100">
        <ele>1918.0</ele>
        <time>2018-07-14T14:09:25Z</time>
      </trkpt>
      <trkpt lat="40.781783" lon="-5.092083">
        <ele>1917.0</ele>
        <time>2018-07-14T14:09:26Z</time>
      </trkpt>
      <trkpt lat="40.781733" lon="-5.092067">
        <ele>1916.0</ele>
        <time>2018-07-14T14:09:27Z</time>
      </trkpt>
      <trkpt lat="40.781683" lon="-5.092067">
        <ele>1914.0</ele>
        <time>2018-07-14T14:09:28Z</time>
      </trkpt>
      <trkpt lat="40.781617" lon="-5.092083">
        <ele>1912.0</ele>
        <time>2018-07-14T14:09:29Z</time>
      </trkpt>
      <trkpt lat="40.781583" lon="-5.092100">
        <ele>1911.0</ele>
        <time>2018-07-14T14:09:30Z</time>
      </trkpt>
      <trkpt lat="40.781533" lon="-5.092117">
        <ele>1910.0</ele>
        <time>2018-07-14T14:09:31Z</time>
      </trkpt>
      <trkpt lat="40.781517" lon="-5.092150">
        <ele>1909.0</ele>
        <time>2018-07-14T14:09:32Z</time>
      </trkpt>
      <trkpt lat="40.781483" lon="-5.092183">
        <ele>1908.0</ele>
        <time>2018-07-14T14:09:33Z</time>
      </trkpt>
      <trkpt lat="40.781433" lon="-5.092250">
        <ele>1906.0</ele>
        <time>2018-07-14T14:09:34Z</time>
      </trkpt>
      <trkpt lat="40.781417" lon="-5.092317">
        <ele>1905.0</ele>
        <time>2018-07-14T14:09:35Z</time>
      </trkpt>
      <trkpt lat="40.781400" lon="-5.092383">
        <ele>1906.0</ele>
        <time>2018-07-14T14:09:36Z</time>
      </trkpt>
      <trkpt lat="40.781383" lon="-5.092450">
        <ele>1907.0</ele>
        <time>2018-07-14T14:09:37Z</time>
      </trkpt>
      <trkpt lat="40.781383" lon="-5.092533">
        <ele>1908.0</ele>
        <time>2018-07-14T14:09:38Z</time>
      </trkpt>
      <trkpt lat="40.781383" lon="-5.092600">
        <ele>1908.0</ele>
        <time>2018-07-14T14:09:39Z</time>
      </trkpt>
      <trkpt lat="40.781383" lon="-5.092683">
        <ele>1909.0</ele>
        <time>2018-07-14T14:09:40Z</time>
      </trkpt>
      <trkpt lat="40.781383" lon="-5.092767">
        <ele>1910.0</ele>
        <time>2018-07-14T14:09:41Z</time>
      </trkpt>
      <trkpt lat="40.781367" lon="-5.092833">
        <ele>1912.0</ele>
        <time>2018-07-14T14:09:42Z</time>
      </trkpt>
      <trkpt lat="40.781350" lon="-5.092900">
        <ele>1914.0</ele>
        <time>2018-07-14T14:09:43Z</time>
      </trkpt>
      <trkpt lat="40.781350" lon="-5.092950">
        <ele>1916.0</ele>
        <time>2018-07-14T14:09:44Z</time>
      </trkpt>
      <trkpt lat="40.781333" lon="-5.092983">
        <ele>1917.0</ele>
        <time>2018-07-14T14:09:45Z</time>
      </trkpt>
      <trkpt lat="40.781333" lon="-5.093033">
        <ele>1918.0</ele>
        <time>2018-07-14T14:09:46Z</time>
      </trkpt>
      <trkpt lat="40.781333" lon="-5.093083">
        <ele>1918.0</ele>
        <time>2018-07-14T14:09:47Z</time>
      </trkpt>
      <trkpt lat="40.781317" lon="-5.093133">
        <ele>1917.0</ele>
        <time>2018-07-14T14:09:48Z</time>
      </trkpt>
      <trkpt lat="40.781300" lon="-5.093183">
        <ele>1916.0</ele>
        <time>2018-07-14T14:09:49Z</time>
      </trkpt>
      <trkpt lat="40.781283" lon="-5.093217">
        <ele>1917.0</ele>
        <time>2018-07-14T14:09:50Z</time>
      </trkpt>
      <trkpt lat="40.781267" lon="-5.093267">
        <ele>1918.0</ele>
        <time>2018-07-14T14:09:51Z</time>
      </trkpt>
      <trkpt lat="40.781267" lon="-5.093300">
        <ele>1918.0</ele>
        <time>2018-07-14T14:09:52Z</time>
      </trkpt>
      <trkpt lat="40.781267" lon="-5.093350">
        <ele>1919.0</ele>
        <time>2018-07-14T14:09:53Z</time>
      </trkpt>
      <trkpt lat="40.781267" lon="-5.093383">
        <ele>1919.0</ele>
        <time>2018-07-14T14:09:54Z</time>
      </trkpt>
      <trkpt lat="40.781267" lon="-5.093450">
        <ele>1919.0</ele>
        <time>2018-07-14T14:09:55Z</time>
      </trkpt>
      <trkpt lat="40.781250" lon="-5.093500">
        <ele>1919.0</ele>
        <time>2018-07-14T14:09:56Z</time>
      </trkpt>
      <trkpt lat="40.781233" lon="-5.093550">
        <ele>1919.0</ele>
        <time>2018-07-14T14:09:57Z</time>
      </trkpt>
      <trkpt lat="40.781233" lon="-5.093583">
        <ele>1920.0</ele>
        <time>2018-07-14T14:09:58Z</time>
      </trkpt>
      <trkpt lat="40.781217" lon="-5.093617">
        <ele>1920.0</ele>
        <time>2018-07-14T14:09:59Z</time>
      </trkpt>
      <trkpt lat="40.781200" lon="-5.093650">
        <ele>1920.0</ele>
        <time>2018-07-14T14:10:00Z</time>
      </trkpt>
      <trkpt lat="40.781167" lon="-5.093683">
        <ele>1920.0</ele>
        <time>2018-07-14T14:10:01Z</time>
      </trkpt>
      <trkpt lat="40.781150" lon="-5.093700">
        <ele>1920.0</ele>
        <time>2018-07-14T14:10:02Z</time>
      </trkpt>
      <trkpt lat="40.781133" lon="-5.093717">
        <ele>1921.0</ele>
        <time>2018-07-14T14:10:03Z</time>
      </trkpt>
      <trkpt lat="40.781133" lon="-5.093750">
        <ele>1921.0</ele>
        <time>2018-07-14T14:10:04Z</time>
      </trkpt>
      <trkpt lat="40.781117" lon="-5.093767">
        <ele>1920.0</ele>
        <time>2018-07-14T14:10:05Z</time>
      </trkpt>
      <trkpt lat="40.781083" lon="-5.093783">
        <ele>1920.0</ele>
        <time>2018-07-14T14:10:06Z</time>
      </trkpt>
      <trkpt lat="40.781050" lon="-5.093817">
        <ele>1919.0</ele>
        <time>2018-07-14T14:10:07Z</time>
      </trkpt>
      <trkpt lat="40.781033" lon="-5.093833">
        <ele>1919.0</ele>
        <time>2018-07-14T14:10:08Z</time>
      </trkpt>
      <trkpt lat="40.781017" lon="-5.093867">
        <ele>1919.0</ele>
        <time>2018-07-14T14:10:09Z</time>
      </trkpt>
      <trkpt lat="40.781000" lon="-5.093883">
        <ele>1918.0</ele>
        <time>2018-07-14T14:10:10Z</time>
      </trkpt>
      <trkpt lat="40.781000" lon="-5.093917">
        <ele>1917.0</ele>
        <time>2018-07-14T14:10:11Z</time>
      </trkpt>
      <trkpt lat="40.781000" lon="-5.093933">
        <ele>1914.0</ele>
        <time>2018-07-14T14:10:12Z</time>
      </trkpt>
      <trkpt lat="40.780983" lon="-5.093967">
        <ele>1911.0</ele>
        <time>2018-07-14T14:10:13Z</time>
      </trkpt>
      <trkpt lat="40.780967" lon="-5.094000">
        <ele>1907.0</ele>
        <time>2018-07-14T14:10:14Z</time>
      </trkpt>
      <trkpt lat="40.780950" lon="-5.094033">
        <ele>1904.0</ele>
        <time>2018-07-14T14:10:15Z</time>
      </trkpt>
      <trkpt lat="40.780917" lon="-5.094050">
        <ele>1901.0</ele>
        <time>2018-07-14T14:10:16Z</time>
      </trkpt>
      <trkpt lat="40.780917" lon="-5.094083">
        <ele>1898.0</ele>
        <time>2018-07-14T14:10:17Z</time>
      </trkpt>
      <trkpt lat="40.780900" lon="-5.094100">
        <ele>1895.0</ele>
        <time>2018-07-14T14:10:18Z</time>
      </trkpt>
      <trkpt lat="40.780900" lon="-5.094133">
        <ele>1891.0</ele>
        <time>2018-07-14T14:10:19Z</time>
      </trkpt>
      <trkpt lat="40.780883" lon="-5.094183">
        <ele>1887.0</ele>
        <time>2018-07-14T14:10:20Z</time>
      </trkpt>
      <trkpt lat="40.780867" lon="-5.094250">
        <ele>1883.0</ele>
        <time>2018-07-14T14:10:21Z</time>
      </trkpt>
      <trkpt lat="40.780833" lon="-5.094317">
        <ele>1880.0</ele>
        <time>2018-07-14T14:10:22Z</time>
      </trkpt>
      <trkpt lat="40.780783" lon="-5.094367">
        <ele>1879.0</ele>
        <time>2018-07-14T14:10:23Z</time>
      </trkpt>
      <trkpt lat="40.780717" lon="-5.094417">
        <ele>1878.0</ele>
        <time>2018-07-14T14:10:25Z</time>
      </trkpt>
      <trkpt lat="40.780667" lon="-5.094433">
        <ele>1876.0</ele>
        <time>2018-07-14T14:10:26Z</time>
      </trkpt>
      <trkpt lat="40.780633" lon="-5.094483">
        <ele>1874.0</ele>
        <time>2018-07-14T14:10:27Z</time>
      </trkpt>
      <trkpt lat="40.780600" lon="-5.094533">
        <ele>1871.0</ele>
        <time>2018-07-14T14:10:28Z</time>
      </trkpt>
      <trkpt lat="40.780567" lon="-5.094583">
        <ele>1869.0</ele>
        <time>2018-07-14T14:10:29Z</time>
      </trkpt>
      <trkpt lat="40.780533" lon="-5.094650">
        <ele>1867.0</ele>
        <time>2018-07-14T14:10:30Z</time>
      </trkpt>
      <trkpt lat="40.780500" lon="-5.094683">
        <ele>1866.0</ele>
        <time>2018-07-14T14:10:31Z</time>
      </trkpt>
      <trkpt lat="40.780467" lon="-5.094717">
        <ele>1866.0</ele>
        <time>2018-07-14T14:10:32Z</time>
      </trkpt>
      <trkpt lat="40.780433" lon="-5.094750">
        <ele>1866.0</ele>
        <time>2018-07-14T14:10:33Z</time>
      </trkpt>
      <trkpt lat="40.780417" lon="-5.094800">
        <ele>1865.0</ele>
        <time>2018-07-14T14:10:34Z</time>
      </trkpt>
      <trkpt lat="40.780383" lon="-5.094833">
        <ele>1864.0</ele>
        <time>2018-07-14T14:10:35Z</time>
      </trkpt>
      <trkpt lat="40.780317" lon="-5.094900">
        <ele>1862.0</ele>
        <time>2018-07-14T14:10:37Z</time>
      </trkpt>
      <trkpt lat="40.780283" lon="-5.094933">
        <ele>1861.0</ele>
        <time>2018-07-14T14:10:38Z</time>
      </trkpt>
      <trkpt lat="40.780250" lon="-5.094967">
        <ele>1861.0</ele>
        <time>2018-07-14T14:10:39Z</time>
      </trkpt>
      <trkpt lat="40.780217" lon="-5.094983">
        <ele>1862.0</ele>
        <time>2018-07-14T14:10:40Z</time>
      </trkpt>
      <trkpt lat="40.780200" lon="-5.094983">
        <ele>1863.0</ele>
        <time>2018-07-14T14:10:41Z</time>
      </trkpt>
      <trkpt lat="40.780167" lon="-5.094983">
        <ele>1863.0</ele>
        <time>2018-07-14T14:10:42Z</time>
      </trkpt>
      <trkpt lat="40.780150" lon="-5.095000">
        <ele>1864.0</ele>
        <time>2018-07-14T14:10:43Z</time>
      </trkpt>
      <trkpt lat="40.780133" lon="-5.095000">
        <ele>1864.0</ele>
        <time>2018-07-14T14:10:44Z</time>
      </trkpt>
      <trkpt lat="40.780100" lon="-5.095017">
        <ele>1864.0</ele>
        <time>2018-07-14T14:10:45Z</time>
      </trkpt>
      <trkpt lat="40.780067" lon="-5.095017">
        <ele>1865.0</ele>
        <time>2018-07-14T14:10:46Z</time>
      </trkpt>
      <trkpt lat="40.780050" lon="-5.095017">
        <ele>1866.0</ele>
        <time>2018-07-14T14:10:47Z</time>
      </trkpt>
      <trkpt lat="40.780017" lon="-5.095017">
        <ele>1867.0</ele>
        <time>2018-07-14T14:10:48Z</time>
      </trkpt>
      <trkpt lat="40.780000" lon="-5.095033">
        <ele>1867.0</ele>
        <time>2018-07-14T14:10:49Z</time>
      </trkpt>
      <trkpt lat="40.779967" lon="-5.095033">
        <ele>1867.0</ele>
        <time>2018-07-14T14:10:50Z</time>
      </trkpt>
      <trkpt lat="40.779950" lon="-5.095050">
        <ele>1867.0</ele>
        <time>2018-07-14T14:10:51Z</time>
      </trkpt>
      <trkpt lat="40.779917" lon="-5.095067">
        <ele>1867.0</ele>
        <time>2018-07-14T14:10:52Z</time>
      </trkpt>
      <trkpt lat="40.779900" lon="-5.095083">
        <ele>1867.0</ele>
        <time>2018-07-14T14:10:53Z</time>
      </trkpt>
      <trkpt lat="40.779867" lon="-5.095100">
        <ele>1867.0</ele>
        <time>2018-07-14T14:10:54Z</time>
      </trkpt>
      <trkpt lat="40.779850" lon="-5.095100">
        <ele>1868.0</ele>
        <time>2018-07-14T14:10:55Z</time>
      </trkpt>
      <trkpt lat="40.779817" lon="-5.095100">
        <ele>1867.0</ele>
        <time>2018-07-14T14:10:56Z</time>
      </trkpt>
      <trkpt lat="40.779800" lon="-5.095117">
        <ele>1867.0</ele>
        <time>2018-07-14T14:10:57Z</time>
      </trkpt>
      <trkpt lat="40.779767" lon="-5.095133">
        <ele>1866.0</ele>
        <time>2018-07-14T14:10:58Z</time>
      </trkpt>
      <trkpt lat="40.779733" lon="-5.095167">
        <ele>1867.0</ele>
        <time>2018-07-14T14:10:59Z</time>
      </trkpt>
      <trkpt lat="40.779717" lon="-5.095183">
        <ele>1868.0</ele>
        <time>2018-07-14T14:11:00Z</time>
      </trkpt>
      <trkpt lat="40.779700" lon="-5.095183">
        <ele>1869.0</ele>
        <time>2018-07-14T14:11:01Z</time>
      </trkpt>
      <trkpt lat="40.779683" lon="-5.095217">
        <ele>1870.0</ele>
        <time>2018-07-14T14:11:02Z</time>
      </trkpt>
      <trkpt lat="40.779667" lon="-5.095233">
        <ele>1870.0</ele>
        <time>2018-07-14T14:11:03Z</time>
      </trkpt>
      <trkpt lat="40.779650" lon="-5.095267">
        <ele>1870.0</ele>
        <time>2018-07-14T14:11:04Z</time>
      </trkpt>
      <trkpt lat="40.779650" lon="-5.095283">
        <ele>1871.0</ele>
        <time>2018-07-14T14:11:05Z</time>
      </trkpt>
      <trkpt lat="40.779633" lon="-5.095300">
        <ele>1872.0</ele>
        <time>2018-07-14T14:11:06Z</time>
      </trkpt>
      <trkpt lat="40.779633" lon="-5.095333">
        <ele>1872.0</ele>
        <time>2018-07-14T14:11:07Z</time>
      </trkpt>
      <trkpt lat="40.779617" lon="-5.095383">
        <ele>1872.0</ele>
        <time>2018-07-14T14:11:08Z</time>
      </trkpt>
      <trkpt lat="40.779617" lon="-5.095417">
        <ele>1873.0</ele>
        <time>2018-07-14T14:11:09Z</time>
      </trkpt>
      <trkpt lat="40.779600" lon="-5.095433">
        <ele>1875.0</ele>
        <time>2018-07-14T14:11:10Z</time>
      </trkpt>
      <trkpt lat="40.779583" lon="-5.095450">
        <ele>1877.0</ele>
        <time>2018-07-14T14:11:11Z</time>
      </trkpt>
      <trkpt lat="40.779567" lon="-5.095467">
        <ele>1879.0</ele>
        <time>2018-07-14T14:11:12Z</time>
      </trkpt>
      <trkpt lat="40.779550" lon="-5.095483">
        <ele>1881.0</ele>
        <time>2018-07-14T14:11:13Z</time>
      </trkpt>
      <trkpt lat="40.779533" lon="-5.095500">
        <ele>1882.0</ele>
        <time>2018-07-14T14:11:14Z</time>
      </trkpt>
      <trkpt lat="40.779517" lon="-5.095517">
        <ele>1884.0</ele>
        <time>2018-07-14T14:11:15Z</time>
      </trkpt>
      <trkpt lat="40.779500" lon="-5.095533">
        <ele>1885.0</ele>
        <time>2018-07-14T14:11:16Z</time>
      </trkpt>
      <trkpt lat="40.779483" lon="-5.095567">
        <ele>1886.0</ele>
        <time>2018-07-14T14:11:17Z</time>
      </trkpt>
      <trkpt lat="40.779467" lon="-5.095583">
        <ele>1888.0</ele>
        <time>2018-07-14T14:11:18Z</time>
      </trkpt>
      <trkpt lat="40.779467" lon="-5.095617">
        <ele>1890.0</ele>
        <time>2018-07-14T14:11:19Z</time>
      </trkpt>
      <trkpt lat="40.779450" lon="-5.095633">
        <ele>1893.0</ele>
        <time>2018-07-14T14:11:20Z</time>
      </trkpt>
      <trkpt lat="40.779450" lon="-5.095667">
        <ele>1895.0</ele>
        <time>2018-07-14T14:11:21Z</time>
      </trkpt>
      <trkpt lat="40.779433" lon="-5.095683">
        <ele>1897.0</ele>
        <time>2018-07-14T14:11:22Z</time>
      </trkpt>
      <trkpt lat="40.779433" lon="-5.095717">
        <ele>1898.0</ele>
        <time>2018-07-14T14:11:23Z</time>
      </trkpt>
      <trkpt lat="40.779417" lon="-5.095767">
        <ele>1901.0</ele>
        <time>2018-07-14T14:11:24Z</time>
      </trkpt>
      <trkpt lat="40.779417" lon="-5.095800">
        <ele>1904.0</ele>
        <time>2018-07-14T14:11:25Z</time>
      </trkpt>
      <trkpt lat="40.779417" lon="-5.095817">
        <ele>1908.0</ele>
        <time>2018-07-14T14:11:26Z</time>
      </trkpt>
      <trkpt lat="40.779433" lon="-5.095817">
        <ele>1911.0</ele>
        <time>2018-07-14T14:11:27Z</time>
      </trkpt>
      <trkpt lat="40.779417" lon="-5.095850">
        <ele>1913.0</ele>
        <time>2018-07-14T14:11:28Z</time>
      </trkpt>
      <trkpt lat="40.779417" lon="-5.095883">
        <ele>1914.0</ele>
        <time>2018-07-14T14:11:29Z</time>
      </trkpt>
      <trkpt lat="40.779417" lon="-5.095950">
        <ele>1916.0</ele>
        <time>2018-07-14T14:11:30Z</time>
      </trkpt>
      <trkpt lat="40.779433" lon="-5.096017">
        <ele>1917.0</ele>
        <time>2018-07-14T14:11:31Z</time>
      </trkpt>
      <trkpt lat="40.779500" lon="-5.096050">
        <ele>1918.0</ele>
        <time>2018-07-14T14:11:32Z</time>
      </trkpt>
      <trkpt lat="40.779567" lon="-5.096033">
        <ele>1920.0</ele>
        <time>2018-07-14T14:11:33Z</time>
      </trkpt>
      <trkpt lat="40.779667" lon="-5.096017">
        <ele>1922.0</ele>
        <time>2018-07-14T14:11:34Z</time>
      </trkpt>
      <trkpt lat="40.779767" lon="-5.095967">
        <ele>1923.0</ele>
        <time>2018-07-14T14:11:35Z</time>
      </trkpt>
      <trkpt lat="40.779883" lon="-5.095900">
        <ele>1923.0</ele>
        <time>2018-07-14T14:11:36Z</time>
      </trkpt>
      <trkpt lat="40.780000" lon="-5.095817">
        <ele>1923.0</ele>
        <time>2018-07-14T14:11:37Z</time>
      </trkpt>
      <trkpt lat="40.780117" lon="-5.095683">
        <ele>1924.0</ele>
        <time>2018-07-14T14:11:38Z</time>
      </trkpt>
      <trkpt lat="40.780217" lon="-5.095517">
        <ele>1925.0</ele>
        <time>2018-07-14T14:11:39Z</time>
      </trkpt>
      <trkpt lat="40.780267" lon="-5.095333">
        <ele>1927.0</ele>
        <time>2018-07-14T14:11:40Z</time>
      </trkpt>
      <trkpt lat="40.780267" lon="-5.095167">
        <ele>1928.0</ele>
        <time>2018-07-14T14:11:41Z</time>
      </trkpt>
      <trkpt lat="40.780250" lon="-5.095000">
        <ele>1929.0</ele>
        <time>2018-07-14T14:11:42Z</time>
      </trkpt>
      <trkpt lat="40.780183" lon="-5.094867">
        <ele>1929.0</ele>
        <time>2018-07-14T14:11:43Z</time>
      </trkpt>
      <trkpt lat="40.780133" lon="-5.094767">
        <ele>1930.0</ele>
        <time>2018-07-14T14:11:44Z</time>
      </trkpt>
      <trkpt lat="40.780067" lon="-5.094717">
        <ele>1930.0</ele>
        <time>2018-07-14T14:11:45Z</time>
      </trkpt>
      <trkpt lat="40.780000" lon="-5.094683">
        <ele>1931.0</ele>
        <time>2018-07-14T14:11:46Z</time>
      </trkpt>
      <trkpt lat="40.779933" lon="-5.094650">
        <ele>1934.0</ele>
        <time>2018-07-14T14:11:47Z</time>
      </trkpt>
      <trkpt lat="40.779900" lon="-5.094600">
        <ele>1938.0</ele>
        <time>2018-07-14T14:11:48Z</time>
      </trkpt>
      <trkpt lat="40.779867" lon="-5.094550">
        <ele>1941.0</ele>
        <time>2018-07-14T14:11:49Z</time>
      </trkpt>
      <trkpt lat="40.779833" lon="-5.094500">
        <ele>1944.0</ele>
        <time>2018-07-14T14:11:50Z</time>
      </trkpt>
      <trkpt lat="40.779717" lon="-5.094450">
        <ele>1947.0</ele>
        <time>2018-07-14T14:11:52Z</time>
      </trkpt>
      <trkpt lat="40.779667" lon="-5.094433">
        <ele>1949.0</ele>
        <time>2018-07-14T14:11:53Z</time>
      </trkpt>
      <trkpt lat="40.779617" lon="-5.094517">
        <ele>1953.0</ele>
        <time>2018-07-14T14:11:55Z</time>
      </trkpt>
      <trkpt lat="40.779633" lon="-5.094567">
        <ele>1955.0</ele>
        <time>2018-07-14T14:11:56Z</time>
      </trkpt>
      <trkpt lat="40.779700" lon="-5.094600">
        <ele>1957.0</ele>
        <time>2018-07-14T14:11:57Z</time>
      </trkpt>
      <trkpt lat="40.779767" lon="-5.094600">
        <ele>1960.0</ele>
        <time>2018-07-14T14:11:58Z</time>
      </trkpt>
      <trkpt lat="40.779850" lon="-5.094583">
        <ele>1962.0</ele>
        <time>2018-07-14T14:11:59Z</time>
      </trkpt>
      <trkpt lat="40.779950" lon="-5.094550">
        <ele>1964.0</ele>
        <time>2018-07-14T14:12:00Z</time>
      </trkpt>
      <trkpt lat="40.780067" lon="-5.094483">
        <ele>1965.0</ele>
        <time>2018-07-14T14:12:01Z</time>
      </trkpt>
      <trkpt lat="40.780167" lon="-5.094400">
        <ele>1967.0</ele>
        <time>2018-07-14T14:12:02Z</time>
      </trkpt>
      <trkpt lat="40.780267" lon="-5.094267">
        <ele>1968.0</ele>
        <time>2018-07-14T14:12:03Z</time>
      </trkpt>
      <trkpt lat="40.780367" lon="-5.094117">
        <ele>1969.0</ele>
        <time>2018-07-14T14:12:04Z</time>
      </trkpt>
      <trkpt lat="40.780433" lon="-5.093933">
        <ele>1970.0</ele>
        <time>2018-07-14T14:12:05Z</time>
      </trkpt>
      <trkpt lat="40.780467" lon="-5.093733">
        <ele>1971.0</ele>
        <time>2018-07-14T14:12:06Z</time>
      </trkpt>
      <trkpt lat="40.780467" lon="-5.093550">
        <ele>1971.0</ele>
        <time>2018-07-14T14:12:07Z</time>
      </trkpt>
      <trkpt lat="40.780417" lon="-5.093417">
        <ele>1972.0</ele>
        <time>2018-07-14T14:12:08Z</time>
      </trkpt>
      <trkpt lat="40.780350" lon="-5.093317">
        <ele>1972.0</ele>
        <time>2018-07-14T14:12:09Z</time>
      </trkpt>
      <trkpt lat="40.780283" lon="-5.093267">
        <ele>1973.0</ele>
        <time>2018-07-14T14:12:10Z</time>
      </trkpt>
      <trkpt lat="40.780217" lon="-5.093217">
        <ele>1975.0</ele>
        <time>2018-07-14T14:12:11Z</time>
      </trkpt>
      <trkpt lat="40.780150" lon="-5.093167">
        <ele>1978.0</ele>
        <time>2018-07-14T14:12:12Z</time>
      </trkpt>
      <trkpt lat="40.780083" lon="-5.093150">
        <ele>1981.0</ele>
        <time>2018-07-14T14:12:13Z</time>
      </trkpt>
      <trkpt lat="40.780033" lon="-5.093117">
        <ele>1984.0</ele>
        <time>2018-07-14T14:12:14Z</time>
      </trkpt>
      <trkpt lat="40.779983" lon="-5.093117">
        <ele>1987.0</ele>
        <time>2018-07-14T14:12:15Z</time>
      </trkpt>
      <trkpt lat="40.779933" lon="-5.093100">
        <ele>1990.0</ele>
        <time>2018-07-14T14:12:16Z</time>
      </trkpt>
      <trkpt lat="40.779883" lon="-5.093100">
        <ele>1993.0</ele>
        <time>2018-07-14T14:12:17Z</time>
      </trkpt>
      <trkpt lat="40.779833" lon="-5.093083">
        <ele>1996.0</ele>
        <time>2018-07-14T14:12:18Z</time>
      </trkpt>
      <trkpt lat="40.779767" lon="-5.093083">
        <ele>1997.0</ele>
        <time>2018-07-14T14:12:19Z</time>
      </trkpt>
      <trkpt lat="40.779717" lon="-5.093083">
        <ele>2000.0</ele>
        <time>2018-07-14T14:12:20Z</time>
      </trkpt>
      <trkpt lat="40.779667" lon="-5.093083">
        <ele>2003.0</ele>
        <time>2018-07-14T14:12:21Z</time>
      </trkpt>
      <trkpt lat="40.779617" lon="-5.093100">
        <ele>2006.0</ele>
        <time>2018-07-14T14:12:22Z</time>
      </trkpt>
      <trkpt lat="40.779567" lon="-5.093117">
        <ele>2009.0</ele>
        <time>2018-07-14T14:12:23Z</time>
      </trkpt>
      <trkpt lat="40.779533" lon="-5.093133">
        <ele>2012.0</ele>
        <time>2018-07-14T14:12:24Z</time>
      </trkpt>
      <trkpt lat="40.779500" lon="-5.093150">
        <ele>2015.0</ele>
        <time>2018-07-14T14:12:25Z</time>
      </trkpt>
      <trkpt lat="40.779483" lon="-5.093150">
        <ele>2018.0</ele>
        <time>2018-07-14T14:12:26Z</time>
      </trkpt>
      <trkpt lat="40.779483" lon="-5.093167">
        <ele>2021.0</ele>
        <time>2018-07-14T14:12:27Z</time>
      </trkpt>
      <trkpt lat="40.779467" lon="-5.093183">
        <ele>2022.0</ele>
        <time>2018-07-14T14:12:28Z</time>
      </trkpt>
      <trkpt lat="40.779450" lon="-5.093233">
        <ele>2024.0</ele>
        <time>2018-07-14T14:12:29Z</time>
      </trkpt>
      <trkpt lat="40.779433" lon="-5.093283">
        <ele>2025.0</ele>
        <time>2018-07-14T14:12:30Z</time>
      </trkpt>
      <trkpt lat="40.779450" lon="-5.093317">
        <ele>2029.0</ele>
        <time>2018-07-14T14:12:31Z</time>
      </trkpt>
      <trkpt lat="40.779483" lon="-5.093367">
        <ele>2032.0</ele>
        <time>2018-07-14T14:12:32Z</time>
      </trkpt>
      <trkpt lat="40.779517" lon="-5.093400">
        <ele>2035.0</ele>
        <time>2018-07-14T14:12:33Z</time>
      </trkpt>
      <trkpt lat="40.779550" lon="-5.093433">
        <ele>2037.0</ele>
        <time>2018-07-14T14:12:34Z</time>
      </trkpt>
      <trkpt lat="40.779600" lon="-5.093467">
        <ele>2039.0</ele>
        <time>2018-07-14T14:12:35Z</time>
      </trkpt>
      <trkpt lat="40.779650" lon="-5.093500">
        <ele>2040.0</ele>
        <time>2018-07-14T14:12:36Z</time>
      </trkpt>
      <trkpt lat="40.779700" lon="-5.093517">
        <ele>2041.0</ele>
        <time>2018-07-14T14:12:37Z</time>
      </trkpt>
      <trkpt lat="40.779767" lon="-5.093533">
        <ele>2041.0</ele>
        <time>2018-07-14T14:12:38Z</time>
      </trkpt>
      <trkpt lat="40.779867" lon="-5.093533">
        <ele>2040.0</ele>
        <time>2018-07-14T14:12:39Z</time>
      </trkpt>
      <trkpt lat="40.779967" lon="-5.093550">
        <ele>2039.0</ele>
        <time>2018-07-14T14:12:40Z</time>
      </trkpt>
      <trkpt lat="40.780067" lon="-5.093517">
        <ele>2039.0</ele>
        <time>2018-07-14T14:12:41Z</time>
      </trkpt>
      <trkpt lat="40.780283" lon="-5.093333">
        <ele>2041.0</ele>
        <time>2018-07-14T14:12:43Z</time>
      </trkpt>
      <trkpt lat="40.780433" lon="-5.093000">
        <ele>2043.0</ele>
        <time>2018-07-14T14:12:45Z</time>
      </trkpt>
      <trkpt lat="40.780467" lon="-5.092817">
        <ele>2045.0</ele>
        <time>2018-07-14T14:12:46Z</time>
      </trkpt>
      <trkpt lat="40.780467" lon="-5.092650">
        <ele>2046.0</ele>
        <time>2018-07-14T14:12:47Z</time>
      </trkpt>
      <trkpt lat="40.780433" lon="-5.092517">
        <ele>2048.0</ele>
        <time>2018-07-14T14:12:48Z</time>
      </trkpt>
      <trkpt lat="40.780383" lon="-5.092400">
        <ele>2048.0</ele>
        <time>2018-07-14T14:12:49Z</time>
      </trkpt>
      <trkpt lat="40.780317" lon="-5.092317">
        <ele>2050.0</ele>
        <time>2018-07-14T14:12:50Z</time>
      </trkpt>
      <trkpt lat="40.780267" lon="-5.092233">
        <ele>2052.0</ele>
        <time>2018-07-14T14:12:51Z</time>
      </trkpt>
      <trkpt lat="40.780233" lon="-5.092183">
        <ele>2056.0</ele>
        <time>2018-07-14T14:12:52Z</time>
      </trkpt>
      <trkpt lat="40.780200" lon="-5.092133">
        <ele>2059.0</ele>
        <time>2018-07-14T14:12:53Z</time>
      </trkpt>
      <trkpt lat="40.780150" lon="-5.092117">
        <ele>2061.0</ele>
        <time>2018-07-14T14:12:54Z</time>
      </trkpt>
      <trkpt lat="40.780117" lon="-5.092100">
        <ele>2063.0</ele>
        <time>2018-07-14T14:12:55Z</time>
      </trkpt>
      <trkpt lat="40.780083" lon="-5.092100">
        <ele>2065.0</ele>
        <time>2018-07-14T14:12:56Z</time>
      </trkpt>
      <trkpt lat="40.780050" lon="-5.092117">
        <ele>2067.0</ele>
        <time>2018-07-14T14:12:57Z</time>
      </trkpt>
      <trkpt lat="40.780033" lon="-5.092133">
        <ele>2069.0</ele>
        <time>2018-07-14T14:12:58Z</time>
      </trkpt>
      <trkpt lat="40.779983" lon="-5.092217">
        <ele>2071.0</ele>
        <time>2018-07-14T14:13:01Z</time>
      </trkpt>
      <trkpt lat="40.779967" lon="-5.092250">
        <ele>2072.0</ele>
        <time>2018-07-14T14:13:02Z</time>
      </trkpt>
      <trkpt lat="40.779950" lon="-5.092283">
        <ele>2074.0</ele>
        <time>2018-07-14T14:13:03Z</time>
      </trkpt>
      <trkpt lat="40.779950" lon="-5.092317">
        <ele>2077.0</ele>
        <time>2018-07-14T14:13:04Z</time>
      </trkpt>
      <trkpt lat="40.779950" lon="-5.092333">
        <ele>2079.0</ele>
        <time>2018-07-14T14:13:05Z</time>
      </trkpt>
      <trkpt lat="40.779950" lon="-5.092367">
        <ele>2081.0</ele>
        <time>2018-07-14T14:13:06Z</time>
      </trkpt>
      <trkpt lat="40.779950" lon="-5.092383">
        <ele>2083.0</ele>
        <time>2018-07-14T14:13:07Z</time>
      </trkpt>
      <trkpt lat="40.779967" lon="-5.092417">
        <ele>2084.0</ele>
        <time>2018-07-14T14:13:08Z</time>
      </trkpt>
      <trkpt lat="40.779983" lon="-5.092467">
        <ele>2085.0</ele>
        <time>2018-07-14T14:13:09Z</time>
      </trkpt>
      <trkpt lat="40.780017" lon="-5.092500">
        <ele>2087.0</ele>
        <time>2018-07-14T14:13:10Z</time>
      </trkpt>
      <trkpt lat="40.780083" lon="-5.092533">
        <ele>2087.0</ele>
        <time>2018-07-14T14:13:11Z</time>
      </trkpt>
      <trkpt lat="40.780150" lon="-5.092533">
        <ele>2089.0</ele>
        <time>2018-07-14T14:13:12Z</time>
      </trkpt>
      <trkpt lat="40.780217" lon="-5.092517">
        <ele>2090.0</ele>
        <time>2018-07-14T14:13:13Z</time>
      </trkpt>
      <trkpt lat="40.780317" lon="-5.092500">
        <ele>2091.0</ele>
        <time>2018-07-14T14:13:14Z</time>
      </trkpt>
      <trkpt lat="40.780433" lon="-5.092467">
        <ele>2092.0</ele>
        <time>2018-07-14T14:13:15Z</time>
      </trkpt>
      <trkpt lat="40.780533" lon="-5.092400">
        <ele>2094.0</ele>
        <time>2018-07-14T14:13:16Z</time>
      </trkpt>
      <trkpt lat="40.780633" lon="-5.092300">
        <ele>2097.0</ele>
        <time>2018-07-14T14:13:17Z</time>
      </trkpt>
      <trkpt lat="40.780717" lon="-5.092183">
        <ele>2100.0</ele>
        <time>2018-07-14T14:13:18Z</time>
      </trkpt>
      <trkpt lat="40.780783" lon="-5.092033">
        <ele>2102.0</ele>
        <time>2018-07-14T14:13:19Z</time>
      </trkpt>
      <trkpt lat="40.780850" lon="-5.091883">
        <ele>2103.0</ele>
        <time>2018-07-14T14:13:20Z</time>
      </trkpt>
      <trkpt lat="40.780900" lon="-5.091700">
        <ele>2104.0</ele>
        <time>2018-07-14T14:13:21Z</time>
      </trkpt>
      <trkpt lat="40.780883" lon="-5.091350">
        <ele>2107.0</ele>
        <time>2018-07-14T14:13:23Z</time>
      </trkpt>
      <trkpt lat="40.780850" lon="-5.091200">
        <ele>2109.0</ele>
        <time>2018-07-14T14:13:24Z</time>
      </trkpt>
      <trkpt lat="40.780800" lon="-5.091067">
        <ele>2111.0</ele>
        <time>2018-07-14T14:13:25Z</time>
      </trkpt>
      <trkpt lat="40.780733" lon="-5.090983">
        <ele>2113.0</ele>
        <time>2018-07-14T14:13:26Z</time>
      </trkpt>
      <trkpt lat="40.780683" lon="-5.090917">
        <ele>2115.0</ele>
        <time>2018-07-14T14:13:27Z</time>
      </trkpt>
      <trkpt lat="40.780633" lon="-5.090883">
        <ele>2117.0</ele>
        <time>2018-07-14T14:13:28Z</time>
      </trkpt>
      <trkpt lat="40.780600" lon="-5.090883">
        <ele>2119.0</ele>
        <time>2018-07-14T14:13:29Z</time>
      </trkpt>
      <trkpt lat="40.780567" lon="-5.090900">
        <ele>2121.0</ele>
        <time>2018-07-14T14:13:30Z</time>
      </trkpt>
      <trkpt lat="40.780550" lon="-5.090933">
        <ele>2123.0</ele>
        <time>2018-07-14T14:13:31Z</time>
      </trkpt>
      <trkpt lat="40.780567" lon="-5.090983">
        <ele>2124.0</ele>
        <time>2018-07-14T14:13:32Z</time>
      </trkpt>
      <trkpt lat="40.780583" lon="-5.091017">
        <ele>2124.0</ele>
        <time>2018-07-14T14:13:33Z</time>
      </trkpt>
      <trkpt lat="40.780617" lon="-5.091067">
        <ele>2126.0</ele>
        <time>2018-07-14T14:13:34Z</time>
      </trkpt>
      <trkpt lat="40.780683" lon="-5.091083">
        <ele>2128.0</ele>
        <time>2018-07-14T14:13:35Z</time>
      </trkpt>
      <trkpt lat="40.780733" lon="-5.091100">
        <ele>2129.0</ele>
        <time>2018-07-14T14:13:36Z</time>
      </trkpt>
      <trkpt lat="40.780817" lon="-5.091117">
        <ele>2131.0</ele>
        <time>2018-07-14T14:13:37Z</time>
      </trkpt>
      <trkpt lat="40.780883" lon="-5.091133">
        <ele>2133.0</ele>
        <time>2018-07-14T14:13:38Z</time>
      </trkpt>
      <trkpt lat="40.780967" lon="-5.091133">
        <ele>2135.0</ele>
        <time>2018-07-14T14:13:39Z</time>
      </trkpt>
      <trkpt lat="40.781050" lon="-5.091117">
        <ele>2137.0</ele>
        <time>2018-07-14T14:13:40Z</time>
      </trkpt>
      <trkpt lat="40.781133" lon="-5.091083">
        <ele>2138.0</ele>
        <time>2018-07-14T14:13:41Z</time>
      </trkpt>
      <trkpt lat="40.781250" lon="-5.091033">
        <ele>2139.0</ele>
        <time>2018-07-14T14:13:42Z</time>
      </trkpt>
      <trkpt lat="40.781350" lon="-5.090950">
        <ele>2141.0</ele>
        <time>2018-07-14T14:13:43Z</time>
      </trkpt>
      <trkpt lat="40.781450" lon="-5.090850">
        <ele>2142.0</ele>
        <time>2018-07-14T14:13:44Z</time>
      </trkpt>
      <trkpt lat="40.781550" lon="-5.090733">
        <ele>2144.0</ele>
        <time>2018-07-14T14:13:45Z</time>
      </trkpt>
      <trkpt lat="40.781633" lon="-5.090600">
        <ele>2145.0</ele>
        <time>2018-07-14T14:13:46Z</time>
      </trkpt>
      <trkpt lat="40.781717" lon="-5.090450">
        <ele>2146.0</ele>
        <time>2018-07-14T14:13:47Z</time>
      </trkpt>
      <trkpt lat="40.781767" lon="-5.090283">
        <ele>2148.0</ele>
        <time>2018-07-14T14:13:48Z</time>
      </trkpt>
      <trkpt lat="40.781817" lon="-5.090100">
        <ele>2149.0</ele>
        <time>2018-07-14T14:13:49Z</time>
      </trkpt>
      <trkpt lat="40.781833" lon="-5.089933">
        <ele>2151.0</ele>
        <time>2018-07-14T14:13:50Z</time>
      </trkpt>
      <trkpt lat="40.781817" lon="-5.089750">
        <ele>2152.0</ele>
        <time>2018-07-14T14:13:51Z</time>
      </trkpt>
      <trkpt lat="40.781767" lon="-5.089600">
        <ele>2153.0</ele>
        <time>2018-07-14T14:13:52Z</time>
      </trkpt>
      <trkpt lat="40.781717" lon="-5.089483">
        <ele>2154.0</ele>
        <time>2018-07-14T14:13:53Z</time>
      </trkpt>
      <trkpt lat="40.781650" lon="-5.089383">
        <ele>2156.0</ele>
        <time>2018-07-14T14:13:54Z</time>
      </trkpt>
      <trkpt lat="40.781600" lon="-5.089333">
        <ele>2157.0</ele>
        <time>2018-07-14T14:13:55Z</time>
      </trkpt>
      <trkpt lat="40.781550" lon="-5.089300">
        <ele>2158.0</ele>
        <time>2018-07-14T14:13:56Z</time>
      </trkpt>
      <trkpt lat="40.781517" lon="-5.089283">
        <ele>2160.0</ele>
        <time>2018-07-14T14:13:57Z</time>
      </trkpt>
      <trkpt lat="40.781483" lon="-5.089283">
        <ele>2162.0</ele>
        <time>2018-07-14T14:13:58Z</time>
      </trkpt>
      <trkpt lat="40.781433" lon="-5.089267">
        <ele>2164.0</ele>
        <time>2018-07-14T14:13:59Z</time>
      </trkpt>
      <trkpt lat="40.781400" lon="-5.089267">
        <ele>2167.0</ele>
        <time>2018-07-14T14:14:00Z</time>
      </trkpt>
      <trkpt lat="40.781350" lon="-5.089250">
        <ele>2169.0</ele>
        <time>2018-07-14T14:14:01Z</time>
      </trkpt>
      <trkpt lat="40.781317" lon="-5.089267">
        <ele>2170.0</ele>
        <time>2018-07-14T14:14:02Z</time>
      </trkpt>
      <trkpt lat="40.781300" lon="-5.089283">
        <ele>2172.0</ele>
        <time>2018-07-14T14:14:03Z</time>
      </trkpt>
      <trkpt lat="40.781267" lon="-5.089300">
        <ele>2174.0</ele>
        <time>2018-07-14T14:14:04Z</time>
      </trkpt>
      <trkpt lat="40.781250" lon="-5.089317">
        <ele>2176.0</ele>
        <time>2018-07-14T14:14:05Z</time>
      </trkpt>
      <trkpt lat="40.781233" lon="-5.089333">
        <ele>2178.0</ele>
        <time>2018-07-14T14:14:06Z</time>
      </trkpt>
      <trkpt lat="40.781217" lon="-5.089367">
        <ele>2180.0</ele>
        <time>2018-07-14T14:14:07Z</time>
      </trkpt>
      <trkpt lat="40.781217" lon="-5.089400">
        <ele>2183.0</ele>
        <time>2018-07-14T14:14:08Z</time>
      </trkpt>
      <trkpt lat="40.781233" lon="-5.089433">
        <ele>2187.0</ele>
        <time>2018-07-14T14:14:09Z</time>
      </trkpt>
      <trkpt lat="40.781233" lon="-5.089450">
        <ele>2190.0</ele>
        <time>2018-07-14T14:14:10Z</time>
      </trkpt>
      <trkpt lat="40.781233" lon="-5.089467">
        <ele>2192.0</ele>
        <time>2018-07-14T14:14:11Z</time>
      </trkpt>
      <trkpt lat="40.781217" lon="-5.089500">
        <ele>2194.0</ele>
        <time>2018-07-14T14:14:12Z</time>
      </trkpt>
      <trkpt lat="40.781200" lon="-5.089533">
        <ele>2196.0</ele>
        <time>2018-07-14T14:14:13Z</time>
      </trkpt>
      <trkpt lat="40.781217" lon="-5.089567">
        <ele>2199.0</ele>
        <time>2018-07-14T14:14:14Z</time>
      </trkpt>
      <trkpt lat="40.781233" lon="-5.089583">
        <ele>2202.0</ele>
        <time>2018-07-14T14:14:15Z</time>
      </trkpt>
      <trkpt lat="40.781217" lon="-5.089583">
        <ele>2204.0</ele>
        <time>2018-07-14T14:14:16Z</time>
      </trkpt>
      <trkpt lat="40.781183" lon="-5.089600">
        <ele>2204.0</ele>
        <time>2018-07-14T14:14:17Z</time>
      </trkpt>
      <trkpt lat="40.781133" lon="-5.089617">
        <ele>2204.0</ele>
        <time>2018-07-14T14:14:18Z</time>
      </trkpt>
      <trkpt lat="40.781083" lon="-5.089650">
        <ele>2206.0</ele>
        <time>2018-07-14T14:14:19Z</time>
      </trkpt>
      <trkpt lat="40.781067" lon="-5.089667">
        <ele>2209.0</ele>
        <time>2018-07-14T14:14:20Z</time>
      </trkpt>
      <trkpt lat="40.781050" lon="-5.089683">
        <ele>2212.0</ele>
        <time>2018-07-14T14:14:21Z</time>
      </trkpt>
      <trkpt lat="40.781033" lon="-5.089683">
        <ele>2216.0</ele>
        <time>2018-07-14T14:14:22Z</time>
      </trkpt>
      <trkpt lat="40.781017" lon="-5.089700">
        <ele>2219.0</ele>
        <time>2018-07-14T14:14:23Z</time>
      </trkpt>
      <trkpt lat="40.780983" lon="-5.089733">
        <ele>2221.0</ele>
        <time>2018-07-14T14:14:24Z</time>
      </trkpt>
      <trkpt lat="40.780967" lon="-5.089783">
        <ele>2223.0</ele>
        <time>2018-07-14T14:14:25Z</time>
      </trkpt>
      <trkpt lat="40.780950" lon="-5.089867">
        <ele>2225.0</ele>
        <time>2018-07-14T14:14:26Z</time>
      </trkpt>
      <trkpt lat="40.780950" lon="-5.089933">
        <ele>2229.0</ele>
        <time>2018-07-14T14:14:27Z</time>
      </trkpt>
      <trkpt lat="40.780983" lon="-5.090000">
        <ele>2233.0</ele>
        <time>2018-07-14T14:14:28Z</time>
      </trkpt>
      <trkpt lat="40.781067" lon="-5.090033">
        <ele>2236.0</ele>
        <time>2018-07-14T14:14:29Z</time>
      </trkpt>
      <trkpt lat="40.781167" lon="-5.090050">
        <ele>2238.0</ele>
        <time>2018-07-14T14:14:30Z</time>
      </trkpt>
      <trkpt lat="40.781283" lon="-5.090033">
        <ele>2239.0</ele>
        <time>2018-07-14T14:14:31Z</time>
      </trkpt>
      <trkpt lat="40.781400" lon="-5.089983">
        <ele>2241.0</ele>
        <time>2018-07-14T14:14:32Z</time>
      </trkpt>
      <trkpt lat="40.781500" lon="-5.089867">
        <ele>2242.0</ele>
        <time>2018-07-14T14:14:33Z</time>
      </trkpt>
      <trkpt lat="40.781567" lon="-5.089717">
        <ele>2243.0</ele>
        <time>2018-07-14T14:14:34Z</time>
      </trkpt>
      <trkpt lat="40.781600" lon="-5.089533">
        <ele>2244.0</ele>
        <time>2018-07-14T14:14:35Z</time>
      </trkpt>
      <trkpt lat="40.781583" lon="-5.089350">
        <ele>2246.0</ele>
        <time>2018-07-14T14:14:36Z</time>
      </trkpt>
      <trkpt lat="40.781533" lon="-5.089217">
        <ele>2248.0</ele>
        <time>2018-07-14T14:14:37Z</time>
      </trkpt>
      <trkpt lat="40.781483" lon="-5.089117">
        <ele>2251.0</ele>
        <time>2018-07-14T14:14:38Z</time>
      </trkpt>
      <trkpt lat="40.781433" lon="-5.089067">
        <ele>2255.0</ele>
        <time>2018-07-14T14:14:39Z</time>
      </trkpt>
      <trkpt lat="40.781383" lon="-5.089017">
        <ele>2260.0</ele>
        <time>2018-07-14T14:14:40Z</time>
      </trkpt>
      <trkpt lat="40.781350" lon="-5.089000">
        <ele>2264.0</ele>
        <time>2018-07-14T14:14:41Z</time>
      </trkpt>
      <trkpt lat="40.781300" lon="-5.089000">
        <ele>2267.0</ele>
        <time>2018-07-14T14:14:42Z</time>
      </trkpt>
      <trkpt lat="40.781267" lon="-5.089017">
        <ele>2270.0</ele>
        <time>2018-07-14T14:14:43Z</time>
      </trkpt>
      <trkpt lat="40.781233" lon="-5.089033">
        <ele>2272.0</ele>
        <time>2018-07-14T14:14:44Z</time>
      </trkpt>
      <trkpt lat="40.781200" lon="-5.089083">
        <ele>2273.0</ele>
        <time>2018-07-14T14:14:45Z</time>
      </trkpt>
      <trkpt lat="40.781167" lon="-5.089150">
        <ele>2274.0</ele>
        <time>2018-07-14T14:14:46Z</time>
      </trkpt>
      <trkpt lat="40.781167" lon="-5.089233">
        <ele>2276.0</ele>
        <time>2018-07-14T14:14:47Z</time>
      </trkpt>
      <trkpt lat="40.781183" lon="-5.089317">
        <ele>2277.0</ele>
        <time>2018-07-14T14:14:48Z</time>
      </trkpt>
      <trkpt lat="40.781250" lon="-5.089417">
        <ele>2278.0</ele>
        <time>2018-07-14T14:14:49Z</time>
      </trkpt>
      <trkpt lat="40.781317" lon="-5.089483">
        <ele>2280.0</ele>
        <time>2018-07-14T14:14:50Z</time>
      </trkpt>
      <trkpt lat="40.781417" lon="-5.089517">
        <ele>2284.0</ele>
        <time>2018-07-14T14:14:51Z</time>
      </trkpt>
      <trkpt lat="40.781500" lon="-5.089500">
        <ele>2289.0</ele>
        <time>2018-07-14T14:14:52Z</time>
      </trkpt>
      <trkpt lat="40.781567" lon="-5.089433">
        <ele>2292.0</ele>
        <time>2018-07-14T14:14:53Z</time>
      </trkpt>
      <trkpt lat="40.781650" lon="-5.089367">
        <ele>2295.0</ele>
        <time>2018-07-14T14:14:54Z</time>
      </trkpt>
      <trkpt lat="40.781750" lon="-5.089300">
        <ele>2297.0</ele>
        <time>2018-07-14T14:14:55Z</time>
      </trkpt>
      <trkpt lat="40.781833" lon="-5.089217">
        <ele>2299.0</ele>
        <time>2018-07-14T14:14:56Z</time>
      </trkpt>
      <trkpt lat="40.781933" lon="-5.089117">
        <ele>2301.0</ele>
        <time>2018-07-14T14:14:57Z</time>
      </trkpt>
      <trkpt lat="40.781983" lon="-5.088967">
        <ele>2303.0</ele>
        <time>2018-07-14T14:14:58Z</time>
      </trkpt>
      <trkpt lat="40.782033" lon="-5.088800">
        <ele>2304.0</ele>
        <time>2018-07-14T14:14:59Z</time>
      </trkpt>
      <trkpt lat="40.782033" lon="-5.088633">
        <ele>2306.0</ele>
        <time>2018-07-14T14:15:00Z</time>
      </trkpt>
      <trkpt lat="40.782033" lon="-5.088483">
        <ele>2309.0</ele>
        <time>2018-07-14T14:15:01Z</time>
      </trkpt>
      <trkpt lat="40.782000" lon="-5.088350">
        <ele>2311.0</ele>
        <time>2018-07-14T14:15:02Z</time>
      </trkpt>
      <trkpt lat="40.781933" lon="-5.088250">
        <ele>2313.0</ele>
        <time>2018-07-14T14:15:03Z</time>
      </trkpt>
      <trkpt lat="40.781867" lon="-5.088183">
        <ele>2316.0</ele>
        <time>2018-07-14T14:15:04Z</time>
      </trkpt>
      <trkpt lat="40.781800" lon="-5.088183">
        <ele>2319.0</ele>
        <time>2018-07-14T14:15:05Z</time>
      </trkpt>
      <trkpt lat="40.781767" lon="-5.088217">
        <ele>2321.0</ele>
        <time>2018-07-14T14:15:06Z</time>
      </trkpt>
      <trkpt lat="40.781750" lon="-5.088283">
        <ele>2322.0</ele>
        <time>2018-07-14T14:15:07Z</time>
      </trkpt>
      <trkpt lat="40.781783" lon="-5.088367">
        <ele>2322.0</ele>
        <time>2018-07-14T14:15:08Z</time>
      </trkpt>
      <trkpt lat="40.781850" lon="-5.088433">
        <ele>2324.0</ele>
        <time>2018-07-14T14:15:09Z</time>
      </trkpt>
      <trkpt lat="40.781950" lon="-5.088467">
        <ele>2325.0</ele>
        <time>2018-07-14T14:15:10Z</time>
      </trkpt>
      <trkpt lat="40.782067" lon="-5.088433">
        <ele>2327.0</ele>
        <time>2018-07-14T14:15:11Z</time>
      </trkpt>
      <trkpt lat="40.782167" lon="-5.088367">
        <ele>2329.0</ele>
        <time>2018-07-14T14:15:12Z</time>
      </trkpt>
      <trkpt lat="40.782267" lon="-5.088250">
        <ele>2331.0</ele>
        <time>2018-07-14T14:15:13Z</time>
      </trkpt>
      <trkpt lat="40.782350" lon="-5.088117">
        <ele>2334.0</ele>
        <time>2018-07-14T14:15:14Z</time>
      </trkpt>
      <trkpt lat="40.782400" lon="-5.087967">
        <ele>2336.0</ele>
        <time>2018-07-14T14:15:15Z</time>
      </trkpt>
      <trkpt lat="40.782417" lon="-5.087817">
        <ele>2338.0</ele>
        <time>2018-07-14T14:15:16Z</time>
      </trkpt>
      <trkpt lat="40.782400" lon="-5.087667">
        <ele>2340.0</ele>
        <time>2018-07-14T14:15:17Z</time>
      </trkpt>
      <trkpt lat="40.782333" lon="-5.087533">
        <ele>2342.0</ele>
        <time>2018-07-14T14:15:18Z</time>
      </trkpt>
      <trkpt lat="40.782267" lon="-5.087450">
        <ele>2345.0</ele>
        <time>2018-07-14T14:15:19Z</time>
      </trkpt>
      <trkpt lat="40.782200" lon="-5.087433">
        <ele>2348.0</ele>
        <time>2018-07-14T14:15:20Z</time>
      </trkpt>
      <trkpt lat="40.782150" lon="-5.087467">
        <ele>2350.0</ele>
        <time>2018-07-14T14:15:21Z</time>
      </trkpt>
      <trkpt lat="40.782133" lon="-5.087500">
        <ele>2352.0</ele>
        <time>2018-07-14T14:15:22Z</time>
      </trkpt>
      <trkpt lat="40.782133" lon="-5.087567">
        <ele>2354.0</ele>
        <time>2018-07-14T14:15:23Z</time>
      </trkpt>
      <trkpt lat="40.782150" lon="-5.087617">
        <ele>2356.0</ele>
        <time>2018-07-14T14:15:24Z</time>
      </trkpt>
      <trkpt lat="40.782183" lon="-5.087683">
        <ele>2358.0</ele>
        <time>2018-07-14T14:15:25Z</time>
      </trkpt>
      <trkpt lat="40.782233" lon="-5.087750">
        <ele>2360.0</ele>
        <time>2018-07-14T14:15:26Z</time>
      </trkpt>
      <trkpt lat="40.782300" lon="-5.087817">
        <ele>2362.0</ele>
        <time>2018-07-14T14:15:27Z</time>
      </trkpt>
      <trkpt lat="40.782383" lon="-5.087850">
        <ele>2363.0</ele>
        <time>2018-07-14T14:15:28Z</time>
      </trkpt>
      <trkpt lat="40.782500" lon="-5.087850">
        <ele>2365.0</ele>
        <time>2018-07-14T14:15:29Z</time>
      </trkpt>
      <trkpt lat="40.782600" lon="-5.087850">
        <ele>2366.0</ele>
        <time>2018-07-14T14:15:30Z</time>
      </trkpt>
      <trkpt lat="40.782717" lon="-5.087800">
        <ele>2368.0</ele>
        <time>2018-07-14T14:15:31Z</time>
      </trkpt>
      <trkpt lat="40.782817" lon="-5.087733">
        <ele>2370.0</ele>
        <time>2018-07-14T14:15:32Z</time>
      </trkpt>
      <trkpt lat="40.782917" lon="-5.087633">
        <ele>2372.0</ele>
        <time>2018-07-14T14:15:33Z</time>
      </trkpt>
      <trkpt lat="40.782983" lon="-5.087483">
        <ele>2373.0</ele>
        <time>2018-07-14T14:15:34Z</time>
      </trkpt>
      <trkpt lat="40.783017" lon="-5.087333">
        <ele>2374.0</ele>
        <time>2018-07-14T14:15:35Z</time>
      </trkpt>
      <trkpt lat="40.783017" lon="-5.087183">
        <ele>2375.0</ele>
        <time>2018-07-14T14:15:36Z</time>
      </trkpt>
      <trkpt lat="40.782967" lon="-5.087050">
        <ele>2376.0</ele>
        <time>2018-07-14T14:15:37Z</time>
      </trkpt>
      <trkpt lat="40.782917" lon="-5.086983">
        <ele>2377.0</ele>
        <time>2018-07-14T14:15:38Z</time>
      </trkpt>
      <trkpt lat="40.782850" lon="-5.086933">
        <ele>2380.0</ele>
        <time>2018-07-14T14:15:39Z</time>
      </trkpt>
      <trkpt lat="40.782800" lon="-5.086900">
        <ele>2384.0</ele>
        <time>2018-07-14T14:15:40Z</time>
      </trkpt>
      <trkpt lat="40.782750" lon="-5.086850">
        <ele>2388.0</ele>
        <time>2018-07-14T14:15:41Z</time>
      </trkpt>
      <trkpt lat="40.782700" lon="-5.086800">
        <ele>2391.0</ele>
        <time>2018-07-14T14:15:42Z</time>
      </trkpt>
      <trkpt lat="40.782650" lon="-5.086767">
        <ele>2393.0</ele>
        <time>2018-07-14T14:15:43Z</time>
      </trkpt>
      <trkpt lat="40.782600" lon="-5.086767">
        <ele>2394.0</ele>
        <time>2018-07-14T14:15:44Z</time>
      </trkpt>
      <trkpt lat="40.782533" lon="-5.086783">
        <ele>2395.0</ele>
        <time>2018-07-14T14:15:45Z</time>
      </trkpt>
      <trkpt lat="40.782483" lon="-5.086817">
        <ele>2397.0</ele>
        <time>2018-07-14T14:15:46Z</time>
      </trkpt>
      <trkpt lat="40.782450" lon="-5.086883">
        <ele>2400.0</ele>
        <time>2018-07-14T14:15:47Z</time>
      </trkpt>
      <trkpt lat="40.782467" lon="-5.086950">
        <ele>2402.0</ele>
        <time>2018-07-14T14:15:48Z</time>
      </trkpt>
      <trkpt lat="40.782500" lon="-5.087033">
        <ele>2405.0</ele>
        <time>2018-07-14T14:15:49Z</time>
      </trkpt>
      <trkpt lat="40.782550" lon="-5.087100">
        <ele>2408.0</ele>
        <time>2018-07-14T14:15:50Z</time>
      </trkpt>
      <trkpt lat="40.782633" lon="-5.087133">
        <ele>2411.0</ele>
        <time>2018-07-14T14:15:51Z</time>
      </trkpt>
      <trkpt lat="40.782733" lon="-5.087150">
        <ele>2414.0</ele>
        <time>2018-07-14T14:15:52Z</time>
      </trkpt>
      <trkpt lat="40.782933" lon="-5.087133">
        <ele>2420.0</ele>
        <time>2018-07-14T14:15:54Z</time>
      </trkpt>
      <trkpt lat="40.783033" lon="-5.087100">
        <ele>2423.0</ele>
        <time>2018-07-14T14:15:55Z</time>
      </trkpt>
      <trkpt lat="40.783133" lon="-5.087050">
        <ele>2425.0</ele>
        <time>2018-07-14T14:15:56Z</time>
      </trkpt>
      <trkpt lat="40.783233" lon="-5.086967">
        <ele>2426.0</ele>
        <time>2018-07-14T14:15:57Z</time>
      </trkpt>
      <trkpt lat="40.783333" lon="-5.086867">
        <ele>2427.0</ele>
        <time>2018-07-14T14:15:58Z</time>
      </trkpt>
      <trkpt lat="40.783417" lon="-5.086733">
        <ele>2428.0</ele>
        <time>2018-07-14T14:15:59Z</time>
      </trkpt>
      <trkpt lat="40.783500" lon="-5.086433">
        <ele>2429.0</ele>
        <time>2018-07-14T14:16:01Z</time>
      </trkpt>
      <trkpt lat="40.783483" lon="-5.086283">
        <ele>2430.0</ele>
        <time>2018-07-14T14:16:02Z</time>
      </trkpt>
      <trkpt lat="40.783450" lon="-5.086183">
        <ele>2432.0</ele>
        <time>2018-07-14T14:16:03Z</time>
      </trkpt>
      <trkpt lat="40.783400" lon="-5.086100">
        <ele>2433.0</ele>
        <time>2018-07-14T14:16:04Z</time>
      </trkpt>
      <trkpt lat="40.783367" lon="-5.086033">
        <ele>2437.0</ele>
        <time>2018-07-14T14:16:05Z</time>
      </trkpt>
      <trkpt lat="40.783333" lon="-5.085967">
        <ele>2440.0</ele>
        <time>2018-07-14T14:16:06Z</time>
      </trkpt>
      <trkpt lat="40.783300" lon="-5.085900">
        <ele>2442.0</ele>
        <time>2018-07-14T14:16:07Z</time>
      </trkpt>
      <trkpt lat="40.783250" lon="-5.085850">
        <ele>2444.0</ele>
        <time>2018-07-14T14:16:08Z</time>
      </trkpt>
      <trkpt lat="40.783200" lon="-5.085817">
        <ele>2445.0</ele>
        <time>2018-07-14T14:16:09Z</time>
      </trkpt>
      <trkpt lat="40.783150" lon="-5.085817">
        <ele>2446.0</ele>
        <time>2018-07-14T14:16:10Z</time>
      </trkpt>
      <trkpt lat="40.783117" lon="-5.085833">
        <ele>2448.0</ele>
        <time>2018-07-14T14:16:11Z</time>
      </trkpt>
      <trkpt lat="40.783100" lon="-5.085883">
        <ele>2451.0</ele>
        <time>2018-07-14T14:16:12Z</time>
      </trkpt>
      <trkpt lat="40.783083" lon="-5.085950">
        <ele>2454.0</ele>
        <time>2018-07-14T14:16:13Z</time>
      </trkpt>
      <trkpt lat="40.783100" lon="-5.086017">
        <ele>2456.0</ele>
        <time>2018-07-14T14:16:14Z</time>
      </trkpt>
      <trkpt lat="40.783133" lon="-5.086100">
        <ele>2458.0</ele>
        <time>2018-07-14T14:16:15Z</time>
      </trkpt>
      <trkpt lat="40.783183" lon="-5.086183">
        <ele>2459.0</ele>
        <time>2018-07-14T14:16:16Z</time>
      </trkpt>
      <trkpt lat="40.783233" lon="-5.086250">
        <ele>2462.0</ele>
        <time>2018-07-14T14:16:17Z</time>
      </trkpt>
      <trkpt lat="40.783300" lon="-5.086317">
        <ele>2464.0</ele>
        <time>2018-07-14T14:16:18Z</time>
      </trkpt>
      <trkpt lat="40.783383" lon="-5.086367">
        <ele>2466.0</ele>
        <time>2018-07-14T14:16:19Z</time>
      </trkpt>
      <trkpt lat="40.783500" lon="-5.086367">
        <ele>2467.0</ele>
        <time>2018-07-14T14:16:20Z</time>
      </trkpt>
      <trkpt lat="40.783600" lon="-5.086350">
        <ele>2469.0</ele>
        <time>2018-07-14T14:16:21Z</time>
      </trkpt>
      <trkpt lat="40.783683" lon="-5.086283">
        <ele>2471.0</ele>
        <time>2018-07-14T14:16:22Z</time>
      </trkpt>
      <trkpt lat="40.783767" lon="-5.086183">
        <ele>2472.0</ele>
        <time>2018-07-14T14:16:23Z</time>
      </trkpt>
      <trkpt lat="40.783850" lon="-5.086050">
        <ele>2472.0</ele>
        <time>2018-07-14T14:16:24Z</time>
      </trkpt>
      <trkpt lat="40.783917" lon="-5.085900">
        <ele>2471.0</ele>
        <time>2018-07-14T14:16:25Z</time>
      </trkpt>
      <trkpt lat="40.783983" lon="-5.085750">
        <ele>2472.0</ele>
        <time>2018-07-14T14:16:26Z</time>
      </trkpt>
      <trkpt lat="40.784000" lon="-5.085583">
        <ele>2472.0</ele>
        <time>2018-07-14T14:16:27Z</time>
      </trkpt>
      <trkpt lat="40.783983" lon="-5.085433">
        <ele>2472.0</ele>
        <time>2018-07-14T14:16:28Z</time>
      </trkpt>
      <trkpt lat="40.783950" lon="-5.085300">
        <ele>2473.0</ele>
        <time>2018-07-14T14:16:29Z</time>
      </trkpt>
      <trkpt lat="40.783900" lon="-5.085183">
        <ele>2473.0</ele>
        <time>2018-07-14T14:16:30Z</time>
      </trkpt>
      <trkpt lat="40.783833" lon="-5.085083">
        <ele>2474.0</ele>
        <time>2018-07-14T14:16:31Z</time>
      </trkpt>
      <trkpt lat="40.783783" lon="-5.084983">
        <ele>2476.0</ele>
        <time>2018-07-14T14:16:32Z</time>
      </trkpt>
      <trkpt lat="40.783733" lon="-5.084917">
        <ele>2477.0</ele>
        <time>2018-07-14T14:16:33Z</time>
      </trkpt>
      <trkpt lat="40.783667" lon="-5.084850">
        <ele>2478.0</ele>
        <time>2018-07-14T14:16:34Z</time>
      </trkpt>
      <trkpt lat="40.783583" lon="-5.084783">
        <ele>2478.0</ele>
        <time>2018-07-14T14:16:35Z</time>
      </trkpt>
      <trkpt lat="40.783483" lon="-5.084750">
        <ele>2478.0</ele>
        <time>2018-07-14T14:16:36Z</time>
      </trkpt>
      <trkpt lat="40.783417" lon="-5.084700">
        <ele>2482.0</ele>
        <time>2018-07-14T14:16:37Z</time>
      </trkpt>
      <trkpt lat="40.783350" lon="-5.084683">
        <ele>2486.0</ele>
        <time>2018-07-14T14:16:38Z</time>
      </trkpt>
      <trkpt lat="40.783283" lon="-5.084667">
        <ele>2489.0</ele>
        <time>2018-07-14T14:16:39Z</time>
      </trkpt>
      <trkpt lat="40.783233" lon="-5.084650">
        <ele>2493.0</ele>
        <time>2018-07-14T14:16:40Z</time>
      </trkpt>
      <trkpt lat="40.783183" lon="-5.084617">
        <ele>2495.0</ele>
        <time>2018-07-14T14:16:41Z</time>
      </trkpt>
      <trkpt lat="40.783117" lon="-5.084600">
        <ele>2498.0</ele>
        <time>2018-07-14T14:16:42Z</time>
      </trkpt>
      <trkpt lat="40.783050" lon="-5.084617">
        <ele>2500.0</ele>
        <time>2018-07-14T14:16:43Z</time>
      </trkpt>
      <trkpt lat="40.782983" lon="-5.084650">
        <ele>2502.0</ele>
        <time>2018-07-14T14:16:44Z</time>
      </trkpt>
      <trkpt lat="40.782933" lon="-5.084717">
        <ele>2504.0</ele>
        <time>2018-07-14T14:16:45Z</time>
      </trkpt>
      <trkpt lat="40.782917" lon="-5.084783">
        <ele>2506.0</ele>
        <time>2018-07-14T14:16:46Z</time>
      </trkpt>
      <trkpt lat="40.782917" lon="-5.084883">
        <ele>2508.0</ele>
        <time>2018-07-14T14:16:47Z</time>
      </trkpt>
      <trkpt lat="40.782933" lon="-5.084967">
        <ele>2510.0</ele>
        <time>2018-07-14T14:16:48Z</time>
      </trkpt>
      <trkpt lat="40.782967" lon="-5.085067">
        <ele>2512.0</ele>
        <time>2018-07-14T14:16:49Z</time>
      </trkpt>
      <trkpt lat="40.783033" lon="-5.085133">
        <ele>2514.0</ele>
        <time>2018-07-14T14:16:50Z</time>
      </trkpt>
      <trkpt lat="40.783133" lon="-5.085167">
        <ele>2514.0</ele>
        <time>2018-07-14T14:16:51Z</time>
      </trkpt>
      <trkpt lat="40.783250" lon="-5.085200">
        <ele>2514.0</ele>
        <time>2018-07-14T14:16:52Z</time>
      </trkpt>
      <trkpt lat="40.783483" lon="-5.085167">
        <ele>2516.0</ele>
        <time>2018-07-14T14:16:54Z</time>
      </trkpt>
      <trkpt lat="40.783583" lon="-5.085083">
        <ele>2517.0</ele>
        <time>2018-07-14T14:16:55Z</time>
      </trkpt>
      <trkpt lat="40.783650" lon="-5.084950">
        <ele>2519.0</ele>
        <time>2018-07-14T14:16:56Z</time>
      </trkpt>
      <trkpt lat="40.783700" lon="-5.084783">
        <ele>2520.0</ele>
        <time>2018-07-14T14:16:57Z</time>
      </trkpt>
      <trkpt lat="40.783700" lon="-5.084617">
        <ele>2522.0</ele>
        <time>2018-07-14T14:16:58Z</time>
      </trkpt>
      <trkpt lat="40.783700" lon="-5.084450">
        <ele>2523.0</ele>
        <time>2018-07-14T14:16:59Z</time>
      </trkpt>
      <trkpt lat="40.783650" lon="-5.084300">
        <ele>2523.0</ele>
        <time>2018-07-14T14:17:00Z</time>
      </trkpt>
      <trkpt lat="40.783600" lon="-5.084167">
        <ele>2524.0</ele>
        <time>2018-07-14T14:17:01Z</time>
      </trkpt>
      <trkpt lat="40.783517" lon="-5.084067">
        <ele>2526.0</ele>
        <time>2018-07-14T14:17:02Z</time>
      </trkpt>
      <trkpt lat="40.783417" lon="-5.084017">
        <ele>2528.0</ele>
        <time>2018-07-14T14:17:03Z</time>
      </trkpt>
      <trkpt lat="40.783350" lon="-5.084050">
        <ele>2530.0</ele>
        <time>2018-07-14T14:17:04Z</time>
      </trkpt>
      <trkpt lat="40.783300" lon="-5.084100">
        <ele>2533.0</ele>
        <time>2018-07-14T14:17:05Z</time>
      </trkpt>
      <trkpt lat="40.783267" lon="-5.084183">
        <ele>2534.0</ele>
        <time>2018-07-14T14:17:06Z</time>
      </trkpt>
      <trkpt lat="40.783283" lon="-5.084267">
        <ele>2536.0</ele>
        <time>2018-07-14T14:17:07Z</time>
      </trkpt>
      <trkpt lat="40.783317" lon="-5.084350">
        <ele>2537.0</ele>
        <time>2018-07-14T14:17:08Z</time>
      </trkpt>
      <trkpt lat="40.783400" lon="-5.084400">
        <ele>2539.0</ele>
        <time>2018-07-14T14:17:09Z</time>
      </trkpt>
      <trkpt lat="40.783517" lon="-5.084417">
        <ele>2539.0</ele>
        <time>2018-07-14T14:17:10Z</time>
      </trkpt>
      <trkpt lat="40.783633" lon="-5.084350">
        <ele>2540.0</ele>
        <time>2018-07-14T14:17:11Z</time>
      </trkpt>
      <trkpt lat="40.783800" lon="-5.084083">
        <ele>2544.0</ele>
        <time>2018-07-14T14:17:13Z</time>
      </trkpt>
      <trkpt lat="40.783817" lon="-5.083917">
        <ele>2546.0</ele>
        <time>2018-07-14T14:17:14Z</time>
      </trkpt>
      <trkpt lat="40.783800" lon="-5.083767">
        <ele>2548.0</ele>
        <time>2018-07-14T14:17:15Z</time>
      </trkpt>
      <trkpt lat="40.783783" lon="-5.083617">
        <ele>2550.0</ele>
        <time>2018-07-14T14:17:16Z</time>
      </trkpt>
      <trkpt lat="40.783733" lon="-5.083483">
        <ele>2553.0</ele>
        <time>2018-07-14T14:17:17Z</time>
      </trkpt>
      <trkpt lat="40.783683" lon="-5.083383">
        <ele>2556.0</ele>
        <time>2018-07-14T14:17:18Z</time>
      </trkpt>
      <trkpt lat="40.783617" lon="-5.083317">
        <ele>2558.0</ele>
        <time>2018-07-14T14:17:19Z</time>
      </trkpt>
      <trkpt lat="40.783533" lon="-5.083267">
        <ele>2561.0</ele>
        <time>2018-07-14T14:17:20Z</time>
      </trkpt>
      <trkpt lat="40.783450" lon="-5.083267">
        <ele>2562.0</ele>
        <time>2018-07-14T14:17:21Z</time>
      </trkpt>
      <trkpt lat="40.783383" lon="-5.083300">
        <ele>2564.0</ele>
        <time>2018-07-14T14:17:22Z</time>
      </trkpt>
      <trkpt lat="40.783333" lon="-5.083333">
        <ele>2566.0</ele>
        <time>2018-07-14T14:17:23Z</time>
      </trkpt>
      <trkpt lat="40.783300" lon="-5.083417">
        <ele>2570.0</ele>
        <time>2018-07-14T14:17:24Z</time>
      </trkpt>
      <trkpt lat="40.783300" lon="-5.083500">
        <ele>2572.0</ele>
        <time>2018-07-14T14:17:25Z</time>
      </trkpt>
      <trkpt lat="40.783333" lon="-5.083600">
        <ele>2573.0</ele>
        <time>2018-07-14T14:17:26Z</time>
      </trkpt>
      <trkpt lat="40.783400" lon="-5.083683">
        <ele>2575.0</ele>
        <time>2018-07-14T14:17:27Z</time>
      </trkpt>
      <trkpt lat="40.783500" lon="-5.083733">
        <ele>2576.0</ele>
        <time>2018-07-14T14:17:28Z</time>
      </trkpt>
      <trkpt lat="40.783600" lon="-5.083750">
        <ele>2578.0</ele>
        <time>2018-07-14T14:17:29Z</time>
      </trkpt>
      <trkpt lat="40.783683" lon="-5.083717">
        <ele>2581.0</ele>
        <time>2018-07-14T14:17:30Z</time>
      </trkpt>
      <trkpt lat="40.783767" lon="-5.083650">
        <ele>2584.0</ele>
        <time>2018-07-14T14:17:31Z</time>
      </trkpt>
      <trkpt lat="40.783833" lon="-5.083567">
        <ele>2587.0</ele>
        <time>2018-07-14T14:17:32Z</time>
      </trkpt>
      <trkpt lat="40.783933" lon="-5.083467">
        <ele>2590.0</ele>
        <time>2018-07-14T14:17:33Z</time>
      </trkpt>
      <trkpt lat="40.784017" lon="-5.083350">
        <ele>2592.0</ele>
        <time>2018-07-14T14:17:34Z</time>
      </trkpt>
      <trkpt lat="40.784067" lon="-5.083217">
        <ele>2595.0</ele>
        <time>2018-07-14T14:17:35Z</time>
      </trkpt>
      <trkpt lat="40.784100" lon="-5.083067">
        <ele>2598.0</ele>
        <time>2018-07-14T14:17:36Z</time>
      </trkpt>
      <trkpt lat="40.784100" lon="-5.082900">
        <ele>2600.0</ele>
        <time>2018-07-14T14:17:37Z</time>
      </trkpt>
      <trkpt lat="40.784067" lon="-5.082750">
        <ele>2602.0</ele>
        <time>2018-07-14T14:17:38Z</time>
      </trkpt>
      <trkpt lat="40.784017" lon="-5.082617">
        <ele>2604.0</ele>
        <time>2018-07-14T14:17:39Z</time>
      </trkpt>
      <trkpt lat="40.783967" lon="-5.082533">
        <ele>2607.0</ele>
        <time>2018-07-14T14:17:40Z</time>
      </trkpt>
      <trkpt lat="40.783900" lon="-5.082467">
        <ele>2609.0</ele>
        <time>2018-07-14T14:17:41Z</time>
      </trkpt>
      <trkpt lat="40.783817" lon="-5.082450">
        <ele>2610.0</ele>
        <time>2018-07-14T14:17:42Z</time>
      </trkpt>
      <trkpt lat="40.783750" lon="-5.082450">
        <ele>2611.0</ele>
        <time>2018-07-14T14:17:43Z</time>
      </trkpt>
      <trkpt lat="40.783700" lon="-5.082467">
        <ele>2613.0</ele>
        <time>2018-07-14T14:17:44Z</time>
      </trkpt>
      <trkpt lat="40.783683" lon="-5.082533">
        <ele>2614.0</ele>
        <time>2018-07-14T14:17:45Z</time>
      </trkpt>
      <trkpt lat="40.783683" lon="-5.082617">
        <ele>2614.0</ele>
        <time>2018-07-14T14:17:46Z</time>
      </trkpt>
      <trkpt lat="40.783700" lon="-5.082700">
        <ele>2615.0</ele>
        <time>2018-07-14T14:17:47Z</time>
      </trkpt>
      <trkpt lat="40.783750" lon="-5.082800">
        <ele>2616.0</ele>
        <time>2018-07-14T14:17:48Z</time>
      </trkpt>
      <trkpt lat="40.783817" lon="-5.082867">
        <ele>2617.0</ele>
        <time>2018-07-14T14:17:49Z</time>
      </trkpt>
      <trkpt lat="40.783883" lon="-5.082917">
        <ele>2618.0</ele>
        <time>2018-07-14T14:17:50Z</time>
      </trkpt>
      <trkpt lat="40.783967" lon="-5.082950">
        <ele>2620.0</ele>
        <time>2018-07-14T14:17:51Z</time>
      </trkpt>
      <trkpt lat="40.784067" lon="-5.082950">
        <ele>2622.0</ele>
        <time>2018-07-14T14:17:52Z</time>
      </trkpt>
      <trkpt lat="40.784167" lon="-5.082950">
        <ele>2623.0</ele>
        <time>2018-07-14T14:17:53Z</time>
      </trkpt>
      <trkpt lat="40.784267" lon="-5.082933">
        <ele>2625.0</ele>
        <time>2018-07-14T14:17:54Z</time>
      </trkpt>
      <trkpt lat="40.784367" lon="-5.082883">
        <ele>2627.0</ele>
        <time>2018-07-14T14:17:55Z</time>
      </trkpt>
      <trkpt lat="40.784433" lon="-5.082800">
        <ele>2631.0</ele>
        <time>2018-07-14T14:17:56Z</time>
      </trkpt>
      <trkpt lat="40.784500" lon="-5.082717">
        <ele>2634.0</ele>
        <time>2018-07-14T14:17:57Z</time>
      </trkpt>
      <trkpt lat="40.784567" lon="-5.082600">
        <ele>2636.0</ele>
        <time>2018-07-14T14:17:58Z</time>
      </trkpt>
      <trkpt lat="40.784633" lon="-5.082500">
        <ele>2638.0</ele>
        <time>2018-07-14T14:17:59Z</time>
      </trkpt>
      <trkpt lat="40.784700" lon="-5.082350">
        <ele>2638.0</ele>
        <time>2018-07-14T14:18:00Z</time>
      </trkpt>
      <trkpt lat="40.784767" lon="-5.082183">
        <ele>2639.0</ele>
        <time>2018-07-14T14:18:01Z</time>
      </trkpt>
      <trkpt lat="40.784783" lon="-5.082017">
        <ele>2641.0</ele>
        <time>2018-07-14T14:18:02Z</time>
      </trkpt>
      <trkpt lat="40.784767" lon="-5.081867">
        <ele>2643.0</ele>
        <time>2018-07-14T14:18:03Z</time>
      </trkpt>
      <trkpt lat="40.784717" lon="-5.081733">
        <ele>2644.0</ele>
        <time>2018-07-14T14:18:04Z</time>
      </trkpt>
      <trkpt lat="40.784650" lon="-5.081617">
        <ele>2645.0</ele>
        <time>2018-07-14T14:18:05Z</time>
      </trkpt>
      <trkpt lat="40.784583" lon="-5.081533">
        <ele>2646.0</ele>
        <time>2018-07-14T14:18:06Z</time>
      </trkpt>
      <trkpt lat="40.784500" lon="-5.081467">
        <ele>2648.0</ele>
        <time>2018-07-14T14:18:07Z</time>
      </trkpt>
      <trkpt lat="40.784433" lon="-5.081433">
        <ele>2650.0</ele>
        <time>2018-07-14T14:18:08Z</time>
      </trkpt>
      <trkpt lat="40.784383" lon="-5.081433">
        <ele>2652.0</ele>
        <time>2018-07-14T14:18:09Z</time>
      </trkpt>
      <trkpt lat="40.784333" lon="-5.081450">
        <ele>2653.0</ele>
        <time>2018-07-14T14:18:10Z</time>
      </trkpt>
      <trkpt lat="40.784300" lon="-5.081483">
        <ele>2655.0</ele>
        <time>2018-07-14T14:18:11Z</time>
      </trkpt>
      <trkpt lat="40.784267" lon="-5.081550">
        <ele>2656.0</ele>
        <time>2018-07-14T14:18:12Z</time>
      </trkpt>
      <trkpt lat="40.784267" lon="-5.081617">
        <ele>2656.0</ele>
        <time>2018-07-14T14:18:13Z</time>
      </trkpt>
      <trkpt lat="40.784283" lon="-5.081700">
        <ele>2656.0</ele>
        <time>2018-07-14T14:18:14Z</time>
      </trkpt>
      <trkpt lat="40.784317" lon="-5.081800">
        <ele>2656.0</ele>
        <time>2018-07-14T14:18:15Z</time>
      </trkpt>
      <trkpt lat="40.784383" lon="-5.081867">
        <ele>2656.0</ele>
        <time>2018-07-14T14:18:16Z</time>
      </trkpt>
      <trkpt lat="40.784483" lon="-5.081917">
        <ele>2657.0</ele>
        <time>2018-07-14T14:18:17Z</time>
      </trkpt>
      <trkpt lat="40.784600" lon="-5.081900">
        <ele>2657.0</ele>
        <time>2018-07-14T14:18:18Z</time>
      </trkpt>
      <trkpt lat="40.784717" lon="-5.081867">
        <ele>2657.0</ele>
        <time>2018-07-14T14:18:19Z</time>
      </trkpt>
      <trkpt lat="40.784817" lon="-5.081767">
        <ele>2659.0</ele>
        <time>2018-07-14T14:18:20Z</time>
      </trkpt>
      <trkpt lat="40.784917" lon="-5.081667">
        <ele>2662.0</ele>
        <time>2018-07-14T14:18:21Z</time>
      </trkpt>
      <trkpt lat="40.784967" lon="-5.081550">
        <ele>2664.0</ele>
        <time>2018-07-14T14:18:22Z</time>
      </trkpt>
      <trkpt lat="40.785017" lon="-5.081417">
        <ele>2665.0</ele>
        <time>2018-07-14T14:18:23Z</time>
      </trkpt>
      <trkpt lat="40.785067" lon="-5.081283">
        <ele>2667.0</ele>
        <time>2018-07-14T14:18:24Z</time>
      </trkpt>
      <trkpt lat="40.785117" lon="-5.081133">
        <ele>2667.0</ele>
        <time>2018-07-14T14:18:25Z</time>
      </trkpt>
      <trkpt lat="40.785133" lon="-5.080967">
        <ele>2668.0</ele>
        <time>2018-07-14T14:18:26Z</time>
      </trkpt>
      <trkpt lat="40.785117" lon="-5.080800">
        <ele>2669.0</ele>
        <time>2018-07-14T14:18:27Z</time>
      </trkpt>
      <trkpt lat="40.785083" lon="-5.080650">
        <ele>2670.0</ele>
        <time>2018-07-14T14:18:28Z</time>
      </trkpt>
      <trkpt lat="40.785033" lon="-5.080533">
        <ele>2671.0</ele>
        <time>2018-07-14T14:18:29Z</time>
      </trkpt>
      <trkpt lat="40.784967" lon="-5.080433">
        <ele>2674.0</ele>
        <time>2018-07-14T14:18:30Z</time>
      </trkpt>
      <trkpt lat="40.784900" lon="-5.080383">
        <ele>2676.0</ele>
        <time>2018-07-14T14:18:31Z</time>
      </trkpt>
      <trkpt lat="40.784850" lon="-5.080350">
        <ele>2677.0</ele>
        <time>2018-07-14T14:18:32Z</time>
      </trkpt>
      <trkpt lat="40.784800" lon="-5.080367">
        <ele>2677.0</ele>
        <time>2018-07-14T14:18:33Z</time>
      </trkpt>
      <trkpt lat="40.784750" lon="-5.080400">
        <ele>2678.0</ele>
        <time>2018-07-14T14:18:34Z</time>
      </trkpt>
      <trkpt lat="40.784700" lon="-5.080450">
        <ele>2677.0</ele>
        <time>2018-07-14T14:18:35Z</time>
      </trkpt>
      <trkpt lat="40.784683" lon="-5.080533">
        <ele>2678.0</ele>
        <time>2018-07-14T14:18:36Z</time>
      </trkpt>
      <trkpt lat="40.784683" lon="-5.080600">
        <ele>2679.0</ele>
        <time>2018-07-14T14:18:37Z</time>
      </trkpt>
      <trkpt lat="40.784700" lon="-5.080667">
        <ele>2680.0</ele>
        <time>2018-07-14T14:18:38Z</time>
      </trkpt>
      <trkpt lat="40.784733" lon="-5.080717">
        <ele>2680.0</ele>
        <time>2018-07-14T14:18:39Z</time>
      </trkpt>
      <trkpt lat="40.784767" lon="-5.080800">
        <ele>2680.0</ele>
        <time>2018-07-14T14:18:40Z</time>
      </trkpt>
      <trkpt lat="40.784817" lon="-5.080867">
        <ele>2680.0</ele>
        <time>2018-07-14T14:18:41Z</time>
      </trkpt>
      <trkpt lat="40.784900" lon="-5.080933">
        <ele>2680.0</ele>
        <time>2018-07-14T14:18:42Z</time>
      </trkpt>
      <trkpt lat="40.784983" lon="-5.080967">
        <ele>2681.0</ele>
        <time>2018-07-14T14:18:43Z</time>
      </trkpt>
      <trkpt lat="40.785083" lon="-5.080967">
        <ele>2682.0</ele>
        <time>2018-07-14T14:18:44Z</time>
      </trkpt>
      <trkpt lat="40.785183" lon="-5.080950">
        <ele>2683.0</ele>
        <time>2018-07-14T14:18:45Z</time>
      </trkpt>
      <trkpt lat="40.785283" lon="-5.080933">
        <ele>2684.0</ele>
        <time>2018-07-14T14:18:46Z</time>
      </trkpt>
      <trkpt lat="40.785367" lon="-5.080917">
        <ele>2685.0</ele>
        <time>2018-07-14T14:18:47Z</time>
      </trkpt>
      <trkpt lat="40.785467" lon="-5.080900">
        <ele>2687.0</ele>
        <time>2018-07-14T14:18:48Z</time>
      </trkpt>
      <trkpt lat="40.785550" lon="-5.080867">
        <ele>2688.0</ele>
        <time>2018-07-14T14:18:49Z</time>
      </trkpt>
      <trkpt lat="40.785650" lon="-5.080800">
        <ele>2689.0</ele>
        <time>2018-07-14T14:18:50Z</time>
      </trkpt>
      <trkpt lat="40.785733" lon="-5.080717">
        <ele>2690.0</ele>
        <time>2018-07-14T14:18:51Z</time>
      </trkpt>
      <trkpt lat="40.785833" lon="-5.080617">
        <ele>2691.0</ele>
        <time>2018-07-14T14:18:52Z</time>
      </trkpt>
      <trkpt lat="40.785917" lon="-5.080500">
        <ele>2691.0</ele>
        <time>2018-07-14T14:18:53Z</time>
      </trkpt>
      <trkpt lat="40.785983" lon="-5.080367">
        <ele>2692.0</ele>
        <time>2018-07-14T14:18:54Z</time>
      </trkpt>
      <trkpt lat="40.786017" lon="-5.080217">
        <ele>2693.0</ele>
        <time>2018-07-14T14:18:55Z</time>
      </trkpt>
      <trkpt lat="40.786033" lon="-5.080050">
        <ele>2694.0</ele>
        <time>2018-07-14T14:18:56Z</time>
      </trkpt>
      <trkpt lat="40.786017" lon="-5.079750">
        <ele>2696.0</ele>
        <time>2018-07-14T14:18:58Z</time>
      </trkpt>
      <trkpt lat="40.785983" lon="-5.079617">
        <ele>2698.0</ele>
        <time>2018-07-14T14:18:59Z</time>
      </trkpt>
      <trkpt lat="40.785917" lon="-5.079517">
        <ele>2698.0</ele>
        <time>2018-07-14T14:19:00Z</time>
      </trkpt>
      <trkpt lat="40.785833" lon="-5.079433">
        <ele>2699.0</ele>
        <time>2018-07-14T14:19:01Z</time>
      </trkpt>
      <trkpt lat="40.785750" lon="-5.079400">
        <ele>2700.0</ele>
        <time>2018-07-14T14:19:02Z</time>
      </trkpt>
      <trkpt lat="40.785683" lon="-5.079383">
        <ele>2701.0</ele>
        <time>2018-07-14T14:19:03Z</time>
      </trkpt>
      <trkpt lat="40.785633" lon="-5.079383">
        <ele>2702.0</ele>
        <time>2018-07-14T14:19:04Z</time>
      </trkpt>
      <trkpt lat="40.785567" lon="-5.079383">
        <ele>2704.0</ele>
        <time>2018-07-14T14:19:05Z</time>
      </trkpt>
      <trkpt lat="40.785517" lon="-5.079383">
        <ele>2705.0</ele>
        <time>2018-07-14T14:19:06Z</time>
      </trkpt>
      <trkpt lat="40.785467" lon="-5.079400">
        <ele>2705.0</ele>
        <time>2018-07-14T14:19:07Z</time>
      </trkpt>
      <trkpt lat="40.785400" lon="-5.079433">
        <ele>2705.0</ele>
        <time>2018-07-14T14:19:08Z</time>
      </trkpt>
      <trkpt lat="40.785350" lon="-5.079483">
        <ele>2705.0</ele>
        <time>2018-07-14T14:19:09Z</time>
      </trkpt>
      <trkpt lat="40.785333" lon="-5.079550">
        <ele>2706.0</ele>
        <time>2018-07-14T14:19:10Z</time>
      </trkpt>
      <trkpt lat="40.785367" lon="-5.079683">
        <ele>2708.0</ele>
        <time>2018-07-14T14:19:12Z</time>
      </trkpt>
      <trkpt lat="40.785417" lon="-5.079750">
        <ele>2708.0</ele>
        <time>2018-07-14T14:19:13Z</time>
      </trkpt>
      <trkpt lat="40.785467" lon="-5.079800">
        <ele>2709.0</ele>
        <time>2018-07-14T14:19:14Z</time>
      </trkpt>
      <trkpt lat="40.785533" lon="-5.079850">
        <ele>2709.0</ele>
        <time>2018-07-14T14:19:15Z</time>
      </trkpt>
      <trkpt lat="40.785617" lon="-5.079867">
        <ele>2709.0</ele>
        <time>2018-07-14T14:19:16Z</time>
      </trkpt>
      <trkpt lat="40.785717" lon="-5.079867">
        <ele>2710.0</ele>
        <time>2018-07-14T14:19:17Z</time>
      </trkpt>
      <trkpt lat="40.785817" lon="-5.079833">
        <ele>2710.0</ele>
        <time>2018-07-14T14:19:18Z</time>
      </trkpt>
      <trkpt lat="40.785917" lon="-5.079783">
        <ele>2710.0</ele>
        <time>2018-07-14T14:19:19Z</time>
      </trkpt>
      <trkpt lat="40.786000" lon="-5.079700">
        <ele>2711.0</ele>
        <time>2018-07-14T14:19:20Z</time>
      </trkpt>
      <trkpt lat="40.786083" lon="-5.079617">
        <ele>2712.0</ele>
        <time>2018-07-14T14:19:21Z</time>
      </trkpt>
      <trkpt lat="40.786167" lon="-5.079500">
        <ele>2714.0</ele>
        <time>2018-07-14T14:19:22Z</time>
      </trkpt>
      <trkpt lat="40.786233" lon="-5.079400">
        <ele>2715.0</ele>
        <time>2018-07-14T14:19:23Z</time>
      </trkpt>
      <trkpt lat="40.786300" lon="-5.079267">
        <ele>2716.0</ele>
        <time>2018-07-14T14:19:24Z</time>
      </trkpt>
      <trkpt lat="40.786350" lon="-5.079117">
        <ele>2717.0</ele>
        <time>2018-07-14T14:19:25Z</time>
      </trkpt>
      <trkpt lat="40.786383" lon="-5.078950">
        <ele>2717.0</ele>
        <time>2018-07-14T14:19:26Z</time>
      </trkpt>
      <trkpt lat="40.786383" lon="-5.078800">
        <ele>2718.0</ele>
        <time>2018-07-14T14:19:27Z</time>
      </trkpt>
      <trkpt lat="40.786350" lon="-5.078650">
        <ele>2718.0</ele>
        <time>2018-07-14T14:19:28Z</time>
      </trkpt>
      <trkpt lat="40.786317" lon="-5.078517">
        <ele>2719.0</ele>
        <time>2018-07-14T14:19:29Z</time>
      </trkpt>
      <trkpt lat="40.786267" lon="-5.078400">
        <ele>2719.0</ele>
        <time>2018-07-14T14:19:30Z</time>
      </trkpt>
      <trkpt lat="40.786200" lon="-5.078317">
        <ele>2720.0</ele>
        <time>2018-07-14T14:19:31Z</time>
      </trkpt>
      <trkpt lat="40.786133" lon="-5.078233">
        <ele>2722.0</ele>
        <time>2018-07-14T14:19:32Z</time>
      </trkpt>
      <trkpt lat="40.786083" lon="-5.078167">
        <ele>2722.0</ele>
        <time>2018-07-14T14:19:33Z</time>
      </trkpt>
      <trkpt lat="40.786017" lon="-5.078117">
        <ele>2723.0</ele>
        <time>2018-07-14T14:19:34Z</time>
      </trkpt>
      <trkpt lat="40.785950" lon="-5.078067">
        <ele>2723.0</ele>
        <time>2018-07-14T14:19:35Z</time>
      </trkpt>
      <trkpt lat="40.785883" lon="-5.078033">
        <ele>2723.0</ele>
        <time>2018-07-14T14:19:36Z</time>
      </trkpt>
      <trkpt lat="40.785800" lon="-5.078000">
        <ele>2724.0</ele>
        <time>2018-07-14T14:19:37Z</time>
      </trkpt>
      <trkpt lat="40.785733" lon="-5.078000">
        <ele>2724.0</ele>
        <time>2018-07-14T14:19:38Z</time>
      </trkpt>
      <trkpt lat="40.785667" lon="-5.078000">
        <ele>2724.0</ele>
        <time>2018-07-14T14:19:39Z</time>
      </trkpt>
      <trkpt lat="40.785600" lon="-5.078017">
        <ele>2725.0</ele>
        <time>2018-07-14T14:19:40Z</time>
      </trkpt>
      <trkpt lat="40.785533" lon="-5.078050">
        <ele>2725.0</ele>
        <time>2018-07-14T14:19:41Z</time>
      </trkpt>
      <trkpt lat="40.785483" lon="-5.078083">
        <ele>2726.0</ele>
        <time>2018-07-14T14:19:42Z</time>
      </trkpt>
      <trkpt lat="40.785450" lon="-5.078133">
        <ele>2726.0</ele>
        <time>2018-07-14T14:19:43Z</time>
      </trkpt>
      <trkpt lat="40.785433" lon="-5.078217">
        <ele>2725.0</ele>
        <time>2018-07-14T14:19:44Z</time>
      </trkpt>
      <trkpt lat="40.785417" lon="-5.078283">
        <ele>2725.0</ele>
        <time>2018-07-14T14:19:45Z</time>
      </trkpt>
      <trkpt lat="40.785417" lon="-5.078367">
        <ele>2725.0</ele>
        <time>2018-07-14T14:19:46Z</time>
      </trkpt>
      <trkpt lat="40.785417" lon="-5.078433">
        <ele>2727.0</ele>
        <time>2018-07-14T14:19:47Z</time>
      </trkpt>
      <trkpt lat="40.785450" lon="-5.078500">
        <ele>2728.0</ele>
        <time>2018-07-14T14:19:48Z</time>
      </trkpt>
      <trkpt lat="40.785467" lon="-5.078550">
        <ele>2729.0</ele>
        <time>2018-07-14T14:19:49Z</time>
      </trkpt>
      <trkpt lat="40.785483" lon="-5.078617">
        <ele>2730.0</ele>
        <time>2018-07-14T14:19:50Z</time>
      </trkpt>
      <trkpt lat="40.785500" lon="-5.078700">
        <ele>2731.0</ele>
        <time>2018-07-14T14:19:51Z</time>
      </trkpt>
      <trkpt lat="40.785533" lon="-5.078783">
        <ele>2731.0</ele>
        <time>2018-07-14T14:19:52Z</time>
      </trkpt>
      <trkpt lat="40.785567" lon="-5.078867">
        <ele>2732.0</ele>
        <time>2018-07-14T14:19:53Z</time>
      </trkpt>
      <trkpt lat="40.785600" lon="-5.078950">
        <ele>2733.0</ele>
        <time>2018-07-14T14:19:54Z</time>
      </trkpt>
      <trkpt lat="40.785633" lon="-5.079033">
        <ele>2736.0</ele>
        <time>2018-07-14T14:19:55Z</time>
      </trkpt>
      <trkpt lat="40.785650" lon="-5.079100">
        <ele>2738.0</ele>
        <time>2018-07-14T14:19:56Z</time>
      </trkpt>
      <trkpt lat="40.785650" lon="-5.079167">
        <ele>2740.0</ele>
        <time>2018-07-14T14:19:57Z</time>
      </trkpt>
      <trkpt lat="40.785667" lon="-5.079233">
        <ele>2741.0</ele>
        <time>2018-07-14T14:19:58Z</time>
      </trkpt>
      <trkpt lat="40.785700" lon="-5.079300">
        <ele>2742.0</ele>
        <time>2018-07-14T14:19:59Z</time>
      </trkpt>
      <trkpt lat="40.785733" lon="-5.079367">
        <ele>2742.0</ele>
        <time>2018-07-14T14:20:00Z</time>
      </trkpt>
      <trkpt lat="40.785800" lon="-5.079417">
        <ele>2743.0</ele>
        <time>2018-07-14T14:20:01Z</time>
      </trkpt>
      <trkpt lat="40.785867" lon="-5.079450">
        <ele>2742.0</ele>
        <time>2018-07-14T14:20:02Z</time>
      </trkpt>
      <trkpt lat="40.785967" lon="-5.079467">
        <ele>2742.0</ele>
        <time>2018-07-14T14:20:03Z</time>
      </trkpt>
      <trkpt lat="40.786050" lon="-5.079450">
        <ele>2742.0</ele>
        <time>2018-07-14T14:20:04Z</time>
      </trkpt>
      <trkpt lat="40.786150" lon="-5.079417">
        <ele>2741.0</ele>
        <time>2018-07-14T14:20:05Z</time>
      </trkpt>
      <trkpt lat="40.786250" lon="-5.079350">
        <ele>2741.0</ele>
        <time>2018-07-14T14:20:06Z</time>
      </trkpt>
      <trkpt lat="40.786350" lon="-5.079250">
        <ele>2741.0</ele>
        <time>2018-07-14T14:20:07Z</time>
      </trkpt>
      <trkpt lat="40.786433" lon="-5.079117">
        <ele>2741.0</ele>
        <time>2018-07-14T14:20:08Z</time>
      </trkpt>
      <trkpt lat="40.786483" lon="-5.078983">
        <ele>2741.0</ele>
        <time>2018-07-14T14:20:09Z</time>
      </trkpt>
      <trkpt lat="40.786517" lon="-5.078833">
        <ele>2741.0</ele>
        <time>2018-07-14T14:20:10Z</time>
      </trkpt>
      <trkpt lat="40.786517" lon="-5.078683">
        <ele>2741.0</ele>
        <time>2018-07-14T14:20:11Z</time>
      </trkpt>
      <trkpt lat="40.786500" lon="-5.078533">
        <ele>2742.0</ele>
        <time>2018-07-14T14:20:12Z</time>
      </trkpt>
      <trkpt lat="40.786467" lon="-5.078400">
        <ele>2742.0</ele>
        <time>2018-07-14T14:20:13Z</time>
      </trkpt>
      <trkpt lat="40.786417" lon="-5.078283">
        <ele>2743.0</ele>
        <time>2018-07-14T14:20:14Z</time>
      </trkpt>
      <trkpt lat="40.786350" lon="-5.078200">
        <ele>2745.0</ele>
        <time>2018-07-14T14:20:15Z</time>
      </trkpt>
      <trkpt lat="40.786300" lon="-5.078117">
        <ele>2746.0</ele>
        <time>2018-07-14T14:20:16Z</time>
      </trkpt>
      <trkpt lat="40.786250" lon="-5.078050">
        <ele>2748.0</ele>
        <time>2018-07-14T14:20:17Z</time>
      </trkpt>
      <trkpt lat="40.786183" lon="-5.077983">
        <ele>2749.0</ele>
        <time>2018-07-14T14:20:18Z</time>
      </trkpt>
      <trkpt lat="40.786117" lon="-5.077917">
        <ele>2748.0</ele>
        <time>2018-07-14T14:20:19Z</time>
      </trkpt>
      <trkpt lat="40.786033" lon="-5.077833">
        <ele>2750.0</ele>
        <time>2018-07-14T14:20:20Z</time>
      </trkpt>
      <trkpt lat="40.785967" lon="-5.077767">
        <ele>2752.0</ele>
        <time>2018-07-14T14:20:21Z</time>
      </trkpt>
      <trkpt lat="40.785867" lon="-5.077733">
        <ele>2755.0</ele>
        <time>2018-07-14T14:20:22Z</time>
      </trkpt>
      <trkpt lat="40.785800" lon="-5.077700">
        <ele>2758.0</ele>
        <time>2018-07-14T14:20:23Z</time>
      </trkpt>
      <trkpt lat="40.785733" lon="-5.077667">
        <ele>2763.0</ele>
        <time>2018-07-14T14:20:24Z</time>
      </trkpt>
      <trkpt lat="40.785667" lon="-5.077633">
        <ele>2767.0</ele>
        <time>2018-07-14T14:20:25Z</time>
      </trkpt>
      <trkpt lat="40.785600" lon="-5.077617">
        <ele>2769.0</ele>
        <time>2018-07-14T14:20:26Z</time>
      </trkpt>
      <trkpt lat="40.785517" lon="-5.077600">
        <ele>2772.0</ele>
        <time>2018-07-14T14:20:27Z</time>
      </trkpt>
      <trkpt lat="40.785450" lon="-5.077600">
        <ele>2774.0</ele>
        <time>2018-07-14T14:20:28Z</time>
      </trkpt>
      <trkpt lat="40.785383" lon="-5.077633">
        <ele>2776.0</ele>
        <time>2018-07-14T14:20:29Z</time>
      </trkpt>
      <trkpt lat="40.785333" lon="-5.077750">
        <ele>2782.0</ele>
        <time>2018-07-14T14:20:31Z</time>
      </trkpt>
      <trkpt lat="40.785333" lon="-5.077800">
        <ele>2784.0</ele>
        <time>2018-07-14T14:20:32Z</time>
      </trkpt>
      <trkpt lat="40.785367" lon="-5.077867">
        <ele>2785.0</ele>
        <time>2018-07-14T14:20:33Z</time>
      </trkpt>
      <trkpt lat="40.785417" lon="-5.077933">
        <ele>2786.0</ele>
        <time>2018-07-14T14:20:34Z</time>
      </trkpt>
      <trkpt lat="40.785500" lon="-5.077967">
        <ele>2787.0</ele>
        <time>2018-07-14T14:20:35Z</time>
      </trkpt>
      <trkpt lat="40.785567" lon="-5.077983">
        <ele>2788.0</ele>
        <time>2018-07-14T14:20:36Z</time>
      </trkpt>
      <trkpt lat="40.785650" lon="-5.077950">
        <ele>2789.0</ele>
        <time>2018-07-14T14:20:37Z</time>
      </trkpt>
      <trkpt lat="40.785800" lon="-5.077817">
        <ele>2792.0</ele>
        <time>2018-07-14T14:20:39Z</time>
      </trkpt>
      <trkpt lat="40.785883" lon="-5.077717">
        <ele>2793.0</ele>
        <time>2018-07-14T14:20:40Z</time>
      </trkpt>
      <trkpt lat="40.785933" lon="-5.077567">
        <ele>2795.0</ele>
        <time>2018-07-14T14:20:41Z</time>
      </trkpt>
      <trkpt lat="40.785983" lon="-5.077417">
        <ele>2796.0</ele>
        <time>2018-07-14T14:20:42Z</time>
      </trkpt>
      <trkpt lat="40.786000" lon="-5.077250">
        <ele>2798.0</ele>
        <time>2018-07-14T14:20:43Z</time>
      </trkpt>
      <trkpt lat="40.785967" lon="-5.077117">
        <ele>2800.0</ele>
        <time>2018-07-14T14:20:44Z</time>
      </trkpt>
      <trkpt lat="40.785917" lon="-5.077000">
        <ele>2803.0</ele>
        <time>2018-07-14T14:20:45Z</time>
      </trkpt>
      <trkpt lat="40.785850" lon="-5.076900">
        <ele>2805.0</ele>
        <time>2018-07-14T14:20:46Z</time>
      </trkpt>
      <trkpt lat="40.785767" lon="-5.076833">
        <ele>2808.0</ele>
        <time>2018-07-14T14:20:47Z</time>
      </trkpt>
      <trkpt lat="40.785683" lon="-5.076800">
        <ele>2810.0</ele>
        <time>2018-07-14T14:20:48Z</time>
      </trkpt>
      <trkpt lat="40.785617" lon="-5.076800">
        <ele>2813.0</ele>
        <time>2018-07-14T14:20:49Z</time>
      </trkpt>
      <trkpt lat="40.785567" lon="-5.076833">
        <ele>2816.0</ele>
        <time>2018-07-14T14:20:50Z</time>
      </trkpt>
      <trkpt lat="40.785533" lon="-5.076883">
        <ele>2818.0</ele>
        <time>2018-07-14T14:20:51Z</time>
      </trkpt>
      <trkpt lat="40.785517" lon="-5.076933">
        <ele>2819.0</ele>
        <time>2018-07-14T14:20:52Z</time>
      </trkpt>
      <trkpt lat="40.785517" lon="-5.077000">
        <ele>2821.0</ele>
        <time>2018-07-14T14:20:53Z</time>
      </trkpt>
      <trkpt lat="40.785533" lon="-5.077067">
        <ele>2822.0</ele>
        <time>2018-07-14T14:20:54Z</time>
      </trkpt>
      <trkpt lat="40.785567" lon="-5.077133">
        <ele>2823.0</ele>
        <time>2018-07-14T14:20:55Z</time>
      </trkpt>
      <trkpt lat="40.785617" lon="-5.077200">
        <ele>2823.0</ele>
        <time>2018-07-14T14:20:56Z</time>
      </trkpt>
      <trkpt lat="40.785683" lon="-5.077233">
        <ele>2824.0</ele>
        <time>2018-07-14T14:20:57Z</time>
      </trkpt>
      <trkpt lat="40.785783" lon="-5.077233">
        <ele>2825.0</ele>
        <time>2018-07-14T14:20:58Z</time>
      </trkpt>
      <trkpt lat="40.785883" lon="-5.077183">
        <ele>2826.0</ele>
        <time>2018-07-14T14:20:59Z</time>
      </trkpt>
      <trkpt lat="40.785967" lon="-5.077083">
        <ele>2826.0</ele>
        <time>2018-07-14T14:21:00Z</time>
      </trkpt>
      <trkpt lat="40.786033" lon="-5.076967">
        <ele>2828.0</ele>
        <time>2018-07-14T14:21:01Z</time>
      </trkpt>
      <trkpt lat="40.786083" lon="-5.076850">
        <ele>2830.0</ele>
        <time>2018-07-14T14:21:02Z</time>
      </trkpt>
      <trkpt lat="40.786117" lon="-5.076717">
        <ele>2833.0</ele>
        <time>2018-07-14T14:21:03Z</time>
      </trkpt>
      <trkpt lat="40.786150" lon="-5.076567">
        <ele>2835.0</ele>
        <time>2018-07-14T14:21:04Z</time>
      </trkpt>
      <trkpt lat="40.786167" lon="-5.076417">
        <ele>2837.0</ele>
        <time>2018-07-14T14:21:05Z</time>
      </trkpt>
      <trkpt lat="40.786150" lon="-5.076283">
        <ele>2840.0</ele>
        <time>2018-07-14T14:21:06Z</time>
      </trkpt>
      <trkpt lat="40.786117" lon="-5.076167">
        <ele>2843.0</ele>
        <time>2018-07-14T14:21:07Z</time>
      </trkpt>
      <trkpt lat="40.786083" lon="-5.076067">
        <ele>2846.0</ele>
        <time>2018-07-14T14:21:08Z</time>
      </trkpt>
      <trkpt lat="40.786050" lon="-5.075983">
        <ele>2849.0</ele>
        <time>2018-07-14T14:21:09Z</time>
      </trkpt>
      <trkpt lat="40.786017" lon="-5.075883">
        <ele>2851.0</ele>
        <time>2018-07-14T14:21:10Z</time>
      </trkpt>
      <trkpt lat="40.785983" lon="-5.075783">
        <ele>2853.0</ele>
        <time>2018-07-14T14:21:11Z</time>
      </trkpt>
      <trkpt lat="40.785933" lon="-5.075717">
        <ele>2854.0</ele>
        <time>2018-07-14T14:21:12Z</time>
      </trkpt>
      <trkpt lat="40.785867" lon="-5.075650">
        <ele>2855.0</ele>
        <time>2018-07-14T14:21:13Z</time>
      </trkpt>
      <trkpt lat="40.785800" lon="-5.075617">
        <ele>2855.0</ele>
        <time>2018-07-14T14:21:14Z</time>
      </trkpt>
      <trkpt lat="40.785717" lon="-5.075617">
        <ele>2855.0</ele>
        <time>2018-07-14T14:21:15Z</time>
      </trkpt>
      <trkpt lat="40.785667" lon="-5.075633">
        <ele>2855.0</ele>
        <time>2018-07-14T14:21:16Z</time>
      </trkpt>
      <trkpt lat="40.785600" lon="-5.075667">
        <ele>2855.0</ele>
        <time>2018-07-14T14:21:17Z</time>
      </trkpt>
      <trkpt lat="40.785583" lon="-5.075717">
        <ele>2856.0</ele>
        <time>2018-07-14T14:21:18Z</time>
      </trkpt>
      <trkpt lat="40.785567" lon="-5.075783">
        <ele>2856.0</ele>
        <time>2018-07-14T14:21:19Z</time>
      </trkpt>
      <trkpt lat="40.785567" lon="-5.075850">
        <ele>2856.0</ele>
        <time>2018-07-14T14:21:20Z</time>
      </trkpt>
      <trkpt lat="40.785583" lon="-5.075933">
        <ele>2855.0</ele>
        <time>2018-07-14T14:21:21Z</time>
      </trkpt>
      <trkpt lat="40.785600" lon="-5.076000">
        <ele>2856.0</ele>
        <time>2018-07-14T14:21:22Z</time>
      </trkpt>
      <trkpt lat="40.785617" lon="-5.076083">
        <ele>2856.0</ele>
        <time>2018-07-14T14:21:23Z</time>
      </trkpt>
      <trkpt lat="40.785650" lon="-5.076150">
        <ele>2856.0</ele>
        <time>2018-07-14T14:21:24Z</time>
      </trkpt>
      <trkpt lat="40.785700" lon="-5.076233">
        <ele>2857.0</ele>
        <time>2018-07-14T14:21:25Z</time>
      </trkpt>
      <trkpt lat="40.785733" lon="-5.076317">
        <ele>2858.0</ele>
        <time>2018-07-14T14:21:26Z</time>
      </trkpt>
      <trkpt lat="40.785783" lon="-5.076400">
        <ele>2859.0</ele>
        <time>2018-07-14T14:21:27Z</time>
      </trkpt>
      <trkpt lat="40.785817" lon="-5.076467">
        <ele>2860.0</ele>
        <time>2018-07-14T14:21:28Z</time>
      </trkpt>
      <trkpt lat="40.785867" lon="-5.076533">
        <ele>2862.0</ele>
        <time>2018-07-14T14:21:29Z</time>
      </trkpt>
      <trkpt lat="40.785900" lon="-5.076583">
        <ele>2863.0</ele>
        <time>2018-07-14T14:21:30Z</time>
      </trkpt>
      <trkpt lat="40.785950" lon="-5.076633">
        <ele>2862.0</ele>
        <time>2018-07-14T14:21:31Z</time>
      </trkpt>
      <trkpt lat="40.786017" lon="-5.076700">
        <ele>2861.0</ele>
        <time>2018-07-14T14:21:32Z</time>
      </trkpt>
      <trkpt lat="40.786100" lon="-5.076783">
        <ele>2860.0</ele>
        <time>2018-07-14T14:21:33Z</time>
      </trkpt>
      <trkpt lat="40.786200" lon="-5.076867">
        <ele>2859.0</ele>
        <time>2018-07-14T14:21:34Z</time>
      </trkpt>
      <trkpt lat="40.786333" lon="-5.076950">
        <ele>2858.0</ele>
        <time>2018-07-14T14:21:35Z</time>
      </trkpt>
      <trkpt lat="40.786450" lon="-5.077033">
        <ele>2858.0</ele>
        <time>2018-07-14T14:21:36Z</time>
      </trkpt>
      <trkpt lat="40.786550" lon="-5.077083">
        <ele>2859.0</ele>
        <time>2018-07-14T14:21:37Z</time>
      </trkpt>
      <trkpt lat="40.786633" lon="-5.077133">
        <ele>2864.0</ele>
        <time>2018-07-14T14:21:38Z</time>
      </trkpt>
      <trkpt lat="40.786717" lon="-5.077200">
        <ele>2868.0</ele>
        <time>2018-07-14T14:21:39Z</time>
      </trkpt>
      <trkpt lat="40.786817" lon="-5.077250">
        <ele>2870.0</ele>
        <time>2018-07-14T14:21:40Z</time>
      </trkpt>
      <trkpt lat="40.786900" lon="-5.077283">
        <ele>2872.0</ele>
        <time>2018-07-14T14:21:41Z</time>
      </trkpt>
      <trkpt lat="40.787317" lon="-5.077183">
        <ele>2877.0</ele>
        <time>2018-07-14T14:21:45Z</time>
      </trkpt>
      <trkpt lat="40.787400" lon="-5.077100">
        <ele>2877.0</ele>
        <time>2018-07-14T14:21:46Z</time>
      </trkpt>
      <trkpt lat="40.787483" lon="-5.076983">
        <ele>2876.0</ele>
        <time>2018-07-14T14:21:47Z</time>
      </trkpt>
      <trkpt lat="40.787550" lon="-5.076850">
        <ele>2875.0</ele>
        <time>2018-07-14T14:21:48Z</time>
      </trkpt>
      <trkpt lat="40.787600" lon="-5.076700">
        <ele>2873.0</ele>
        <time>2018-07-14T14:21:49Z</time>
      </trkpt>
      <trkpt lat="40.787617" lon="-5.076550">
        <ele>2872.0</ele>
        <time>2018-07-14T14:21:50Z</time>
      </trkpt>
      <trkpt lat="40.787600" lon="-5.076383">
        <ele>2871.0</ele>
        <time>2018-07-14T14:21:51Z</time>
      </trkpt>
      <trkpt lat="40.787567" lon="-5.076250">
        <ele>2870.0</ele>
        <time>2018-07-14T14:21:52Z</time>
      </trkpt>
      <trkpt lat="40.787517" lon="-5.076117">
        <ele>2870.0</ele>
        <time>2018-07-14T14:21:53Z</time>
      </trkpt>
      <trkpt lat="40.787467" lon="-5.076033">
        <ele>2871.0</ele>
        <time>2018-07-14T14:21:54Z</time>
      </trkpt>
      <trkpt lat="40.787417" lon="-5.075933">
        <ele>2873.0</ele>
        <time>2018-07-14T14:21:55Z</time>
      </trkpt>
      <trkpt lat="40.787367" lon="-5.075850">
        <ele>2875.0</ele>
        <time>2018-07-14T14:21:56Z</time>
      </trkpt>
      <trkpt lat="40.787300" lon="-5.075767">
        <ele>2877.0</ele>
        <time>2018-07-14T14:21:57Z</time>
      </trkpt>
      <trkpt lat="40.787250" lon="-5.075700">
        <ele>2879.0</ele>
        <time>2018-07-14T14:21:58Z</time>
      </trkpt>
      <trkpt lat="40.787183" lon="-5.075667">
        <ele>2880.0</ele>
        <time>2018-07-14T14:21:59Z</time>
      </trkpt>
      <trkpt lat="40.787133" lon="-5.075633">
        <ele>2882.0</ele>
        <time>2018-07-14T14:22:00Z</time>
      </trkpt>
      <trkpt lat="40.787067" lon="-5.075617">
        <ele>2884.0</ele>
        <time>2018-07-14T14:22:01Z</time>
      </trkpt>
      <trkpt lat="40.787017" lon="-5.075600">
        <ele>2886.0</ele>
        <time>2018-07-14T14:22:02Z</time>
      </trkpt>
      <trkpt lat="40.786967" lon="-5.075600">
        <ele>2888.0</ele>
        <time>2018-07-14T14:22:03Z</time>
      </trkpt>
      <trkpt lat="40.786917" lon="-5.075617">
        <ele>2890.0</ele>
        <time>2018-07-14T14:22:04Z</time>
      </trkpt>
      <trkpt lat="40.786867" lon="-5.075650">
        <ele>2892.0</ele>
        <time>2018-07-14T14:22:05Z</time>
      </trkpt>
      <trkpt lat="40.786817" lon="-5.075700">
        <ele>2894.0</ele>
        <time>2018-07-14T14:22:06Z</time>
      </trkpt>
      <trkpt lat="40.786767" lon="-5.075733">
        <ele>2896.0</ele>
        <time>2018-07-14T14:22:07Z</time>
      </trkpt>
      <trkpt lat="40.786717" lon="-5.075767">
        <ele>2898.0</ele>
        <time>2018-07-14T14:22:08Z</time>
      </trkpt>
      <trkpt lat="40.786683" lon="-5.075817">
        <ele>2900.0</ele>
        <time>2018-07-14T14:22:09Z</time>
      </trkpt>
      <trkpt lat="40.786650" lon="-5.075900">
        <ele>2901.0</ele>
        <time>2018-07-14T14:22:10Z</time>
      </trkpt>
      <trkpt lat="40.786633" lon="-5.075983">
        <ele>2902.0</ele>
        <time>2018-07-14T14:22:11Z</time>
      </trkpt>
      <trkpt lat="40.786617" lon="-5.076100">
        <ele>2902.0</ele>
        <time>2018-07-14T14:22:12Z</time>
      </trkpt>
      <trkpt lat="40.786617" lon="-5.076200">
        <ele>2904.0</ele>
        <time>2018-07-14T14:22:13Z</time>
      </trkpt>
      <trkpt lat="40.786633" lon="-5.076317">
        <ele>2905.0</ele>
        <time>2018-07-14T14:22:14Z</time>
      </trkpt>
      <trkpt lat="40.786667" lon="-5.076433">
        <ele>2906.0</ele>
        <time>2018-07-14T14:22:15Z</time>
      </trkpt>
      <trkpt lat="40.786717" lon="-5.076533">
        <ele>2906.0</ele>
        <time>2018-07-14T14:22:16Z</time>
      </trkpt>
      <trkpt lat="40.786783" lon="-5.076633">
        <ele>2906.0</ele>
        <time>2018-07-14T14:22:17Z</time>
      </trkpt>
      <trkpt lat="40.786867" lon="-5.076733">
        <ele>2907.0</ele>
        <time>2018-07-14T14:22:18Z</time>
      </trkpt>
      <trkpt lat="40.786950" lon="-5.076817">
        <ele>2908.0</ele>
        <time>2018-07-14T14:22:19Z</time>
      </trkpt>
      <trkpt lat="40.787050" lon="-5.076867">
        <ele>2909.0</ele>
        <time>2018-07-14T14:22:20Z</time>
      </trkpt>
      <trkpt lat="40.787167" lon="-5.076917">
        <ele>2910.0</ele>
        <time>2018-07-14T14:22:21Z</time>
      </trkpt>
      <trkpt lat="40.787283" lon="-5.076917">
        <ele>2911.0</ele>
        <time>2018-07-14T14:22:22Z</time>
      </trkpt>
      <trkpt lat="40.787417" lon="-5.076917">
        <ele>2912.0</ele>
        <time>2018-07-14T14:22:23Z</time>
      </trkpt>
      <trkpt lat="40.787533" lon="-5.076883">
        <ele>2913.0</ele>
        <time>2018-07-14T14:22:24Z</time>
      </trkpt>
      <trkpt lat="40.787650" lon="-5.076817">
        <ele>2914.0</ele>
        <time>2018-07-14T14:22:25Z</time>
      </trkpt>
      <trkpt lat="40.787750" lon="-5.076717">
        <ele>2915.0</ele>
        <time>2018-07-14T14:22:26Z</time>
      </trkpt>
      <trkpt lat="40.787833" lon="-5.076600">
        <ele>2916.0</ele>
        <time>2018-07-14T14:22:27Z</time>
      </trkpt>
      <trkpt lat="40.787900" lon="-5.076483">
        <ele>2918.0</ele>
        <time>2018-07-14T14:22:28Z</time>
      </trkpt>
      <trkpt lat="40.787950" lon="-5.076350">
        <ele>2919.0</ele>
        <time>2018-07-14T14:22:29Z</time>
      </trkpt>
      <trkpt lat="40.787983" lon="-5.076217">
        <ele>2919.0</ele>
        <time>2018-07-14T14:22:30Z</time>
      </trkpt>
      <trkpt lat="40.788000" lon="-5.076083">
        <ele>2920.0</ele>
        <time>2018-07-14T14:22:31Z</time>
      </trkpt>
      <trkpt lat="40.788000" lon="-5.075950">
        <ele>2920.0</ele>
        <time>2018-07-14T14:22:32Z</time>
      </trkpt>
      <trkpt lat="40.787983" lon="-5.075833">
        <ele>2920.0</ele>
        <time>2018-07-14T14:22:33Z</time>
      </trkpt>
      <trkpt lat="40.787950" lon="-5.075733">
        <ele>2921.0</ele>
        <time>2018-07-14T14:22:34Z</time>
      </trkpt>
      <trkpt lat="40.787917" lon="-5.075650">
        <ele>2922.0</ele>
        <time>2018-07-14T14:22:35Z</time>
      </trkpt>
      <trkpt lat="40.787883" lon="-5.075567">
        <ele>2922.0</ele>
        <time>2018-07-14T14:22:36Z</time>
      </trkpt>
      <trkpt lat="40.787833" lon="-5.075483">
        <ele>2922.0</ele>
        <time>2018-07-14T14:22:37Z</time>
      </trkpt>
      <trkpt lat="40.787767" lon="-5.075383">
        <ele>2921.0</ele>
        <time>2018-07-14T14:22:38Z</time>
      </trkpt>
      <trkpt lat="40.787700" lon="-5.075317">
        <ele>2921.0</ele>
        <time>2018-07-14T14:22:39Z</time>
      </trkpt>
      <trkpt lat="40.787633" lon="-5.075283">
        <ele>2922.0</ele>
        <time>2018-07-14T14:22:40Z</time>
      </trkpt>
      <trkpt lat="40.787567" lon="-5.075267">
        <ele>2924.0</ele>
        <time>2018-07-14T14:22:41Z</time>
      </trkpt>
      <trkpt lat="40.787500" lon="-5.075250">
        <ele>2926.0</ele>
        <time>2018-07-14T14:22:42Z</time>
      </trkpt>
      <trkpt lat="40.787450" lon="-5.075233">
        <ele>2929.0</ele>
        <time>2018-07-14T14:22:43Z</time>
      </trkpt>
      <trkpt lat="40.787383" lon="-5.075200">
        <ele>2931.0</ele>
        <time>2018-07-14T14:22:44Z</time>
      </trkpt>
      <trkpt lat="40.787317" lon="-5.075167">
        <ele>2933.0</ele>
        <time>2018-07-14T14:22:45Z</time>
      </trkpt>
      <trkpt lat="40.787233" lon="-5.075150">
        <ele>2935.0</ele>
        <time>2018-07-14T14:22:46Z</time>
      </trkpt>
      <trkpt lat="40.787167" lon="-5.075150">
        <ele>2938.0</ele>
        <time>2018-07-14T14:22:47Z</time>
      </trkpt>
      <trkpt lat="40.787100" lon="-5.075117">
        <ele>2941.0</ele>
        <time>2018-07-14T14:22:48Z</time>
      </trkpt>
      <trkpt lat="40.787033" lon="-5.075100">
        <ele>2945.0</ele>
        <time>2018-07-14T14:22:49Z</time>
      </trkpt>
      <trkpt lat="40.786983" lon="-5.075067">
        <ele>2948.0</ele>
        <time>2018-07-14T14:22:50Z</time>
      </trkpt>
      <trkpt lat="40.786917" lon="-5.075067">
        <ele>2949.0</ele>
        <time>2018-07-14T14:22:51Z</time>
      </trkpt>
      <trkpt lat="40.786833" lon="-5.075083">
        <ele>2950.0</ele>
        <time>2018-07-14T14:22:52Z</time>
      </trkpt>
      <trkpt lat="40.786767" lon="-5.075133">
        <ele>2951.0</ele>
        <time>2018-07-14T14:22:53Z</time>
      </trkpt>
      <trkpt lat="40.786717" lon="-5.075183">
        <ele>2952.0</ele>
        <time>2018-07-14T14:22:54Z</time>
      </trkpt>
      <trkpt lat="40.786683" lon="-5.075250">
        <ele>2953.0</ele>
        <time>2018-07-14T14:22:55Z</time>
      </trkpt>
      <trkpt lat="40.786650" lon="-5.075350">
        <ele>2954.0</ele>
        <time>2018-07-14T14:22:56Z</time>
      </trkpt>
      <trkpt lat="40.786650" lon="-5.075467">
        <ele>2954.0</ele>
        <time>2018-07-14T14:22:57Z</time>
      </trkpt>
      <trkpt lat="40.786667" lon="-5.075583">
        <ele>2953.0</ele>
        <time>2018-07-14T14:22:58Z</time>
      </trkpt>
      <trkpt lat="40.786700" lon="-5.075700">
        <ele>2953.0</ele>
        <time>2018-07-14T14:22:59Z</time>
      </trkpt>
      <trkpt lat="40.786783" lon="-5.075817">
        <ele>2953.0</ele>
        <time>2018-07-14T14:23:00Z</time>
      </trkpt>
      <trkpt lat="40.786867" lon="-5.075900">
        <ele>2952.0</ele>
        <time>2018-07-14T14:23:01Z</time>
      </trkpt>
      <trkpt lat="40.786967" lon="-5.075983">
        <ele>2952.0</ele>
        <time>2018-07-14T14:23:02Z</time>
      </trkpt>
      <trkpt lat="40.787050" lon="-5.076067">
        <ele>2952.0</ele>
        <time>2018-07-14T14:23:03Z</time>
      </trkpt>
      <trkpt lat="40.787133" lon="-5.076150">
        <ele>2952.0</ele>
        <time>2018-07-14T14:23:04Z</time>
      </trkpt>
      <trkpt lat="40.787217" lon="-5.076250">
        <ele>2952.0</ele>
        <time>2018-07-14T14:23:05Z</time>
      </trkpt>
      <trkpt lat="40.787300" lon="-5.076350">
        <ele>2951.0</ele>
        <time>2018-07-14T14:23:06Z</time>
      </trkpt>
      <trkpt lat="40.787383" lon="-5.076450">
        <ele>2951.0</ele>
        <time>2018-07-14T14:23:07Z</time>
      </trkpt>
      <trkpt lat="40.787467" lon="-5.076567">
        <ele>2951.0</ele>
        <time>2018-07-14T14:23:08Z</time>
      </trkpt>
      <trkpt lat="40.787550" lon="-5.076683">
        <ele>2951.0</ele>
        <time>2018-07-14T14:23:09Z</time>
      </trkpt>
      <trkpt lat="40.787633" lon="-5.076800">
        <ele>2952.0</ele>
        <time>2018-07-14T14:23:10Z</time>
      </trkpt>
      <trkpt lat="40.787717" lon="-5.076917">
        <ele>2952.0</ele>
        <time>2018-07-14T14:23:11Z</time>
      </trkpt>
      <trkpt lat="40.787800" lon="-5.077033">
        <ele>2953.0</ele>
        <time>2018-07-14T14:23:12Z</time>
      </trkpt>
      <trkpt lat="40.787900" lon="-5.077133">
        <ele>2954.0</ele>
        <time>2018-07-14T14:23:13Z</time>
      </trkpt>
      <trkpt lat="40.787983" lon="-5.077217">
        <ele>2955.0</ele>
        <time>2018-07-14T14:23:14Z</time>
      </trkpt>
      <trkpt lat="40.788083" lon="-5.077317">
        <ele>2955.0</ele>
        <time>2018-07-14T14:23:15Z</time>
      </trkpt>
      <trkpt lat="40.788167" lon="-5.077417">
        <ele>2956.0</ele>
        <time>2018-07-14T14:23:16Z</time>
      </trkpt>
      <trkpt lat="40.788267" lon="-5.077500">
        <ele>2956.0</ele>
        <time>2018-07-14T14:23:17Z</time>
      </trkpt>
      <trkpt lat="40.788367" lon="-5.077583">
        <ele>2956.0</ele>
        <time>2018-07-14T14:23:18Z</time>
      </trkpt>
      <trkpt lat="40.788467" lon="-5.077650">
        <ele>2955.0</ele>
        <time>2018-07-14T14:23:19Z</time>
      </trkpt>
      <trkpt lat="40.788567" lon="-5.077733">
        <ele>2954.0</ele>
        <time>2018-07-14T14:23:20Z</time>
      </trkpt>
      <trkpt lat="40.788667" lon="-5.077817">
        <ele>2953.0</ele>
        <time>2018-07-14T14:23:21Z</time>
      </trkpt>
      <trkpt lat="40.788767" lon="-5.077900">
        <ele>2951.0</ele>
        <time>2018-07-14T14:23:22Z</time>
      </trkpt>
      <trkpt lat="40.788883" lon="-5.077983">
        <ele>2948.0</ele>
        <time>2018-07-14T14:23:23Z</time>
      </trkpt>
      <trkpt lat="40.788983" lon="-5.078067">
        <ele>2946.0</ele>
        <time>2018-07-14T14:23:24Z</time>
      </trkpt>
      <trkpt lat="40.789083" lon="-5.078133">
        <ele>2945.0</ele>
        <time>2018-07-14T14:23:25Z</time>
      </trkpt>
      <trkpt lat="40.789183" lon="-5.078217">
        <ele>2944.0</ele>
        <time>2018-07-14T14:23:26Z</time>
      </trkpt>
      <trkpt lat="40.789267" lon="-5.078300">
        <ele>2944.0</ele>
        <time>2018-07-14T14:23:27Z</time>
      </trkpt>
      <trkpt lat="40.789333" lon="-5.078383">
        <ele>2943.0</ele>
        <time>2018-07-14T14:23:28Z</time>
      </trkpt>
      <trkpt lat="40.789417" lon="-5.078450">
        <ele>2942.0</ele>
        <time>2018-07-14T14:23:29Z</time>
      </trkpt>
      <trkpt lat="40.789517" lon="-5.078517">
        <ele>2940.0</ele>
        <time>2018-07-14T14:23:30Z</time>
      </trkpt>
      <trkpt lat="40.789600" lon="-5.078600">
        <ele>2938.0</ele>
        <time>2018-07-14T14:23:31Z</time>
      </trkpt>
      <trkpt lat="40.789683" lon="-5.078667">
        <ele>2937.0</ele>
        <time>2018-07-14T14:23:32Z</time>
      </trkpt>
      <trkpt lat="40.789750" lon="-5.078750">
        <ele>2936.0</ele>
        <time>2018-07-14T14:23:33Z</time>
      </trkpt>
      <trkpt lat="40.789817" lon="-5.078817">
        <ele>2935.0</ele>
        <time>2018-07-14T14:23:34Z</time>
      </trkpt>
      <trkpt lat="40.789883" lon="-5.078900">
        <ele>2935.0</ele>
        <time>2018-07-14T14:23:35Z</time>
      </trkpt>
      <trkpt lat="40.789967" lon="-5.078950">
        <ele>2934.0</ele>
        <time>2018-07-14T14:23:36Z</time>
      </trkpt>
      <trkpt lat="40.790033" lon="-5.079017">
        <ele>2933.0</ele>
        <time>2018-07-14T14:23:37Z</time>
      </trkpt>
      <trkpt lat="40.790117" lon="-5.079083">
        <ele>2931.0</ele>
        <time>2018-07-14T14:23:38Z</time>
      </trkpt>
      <trkpt lat="40.790200" lon="-5.079150">
        <ele>2929.0</ele>
        <time>2018-07-14T14:23:39Z</time>
      </trkpt>
      <trkpt lat="40.790300" lon="-5.079200">
        <ele>2927.0</ele>
        <time>2018-07-14T14:23:40Z</time>
      </trkpt>
      <trkpt lat="40.790383" lon="-5.079250">
        <ele>2925.0</ele>
        <time>2018-07-14T14:23:41Z</time>
      </trkpt>
      <trkpt lat="40.790483" lon="-5.079283">
        <ele>2923.0</ele>
        <time>2018-07-14T14:23:42Z</time>
      </trkpt>
      <trkpt lat="40.790583" lon="-5.079333">
        <ele>2921.0</ele>
        <time>2018-07-14T14:23:43Z</time>
      </trkpt>
      <trkpt lat="40.790683" lon="-5.079383">
        <ele>2919.0</ele>
        <time>2018-07-14T14:23:44Z</time>
      </trkpt>
      <trkpt lat="40.790767" lon="-5.079433">
        <ele>2917.0</ele>
        <time>2018-07-14T14:23:45Z</time>
      </trkpt>
      <trkpt lat="40.790850" lon="-5.079483">
        <ele>2916.0</ele>
        <time>2018-07-14T14:23:46Z</time>
      </trkpt>
      <trkpt lat="40.790917" lon="-5.079550">
        <ele>2914.0</ele>
        <time>2018-07-14T14:23:47Z</time>
      </trkpt>
      <trkpt lat="40.790983" lon="-5.079600">
        <ele>2912.0</ele>
        <time>2018-07-14T14:23:48Z</time>
      </trkpt>
      <trkpt lat="40.791033" lon="-5.079667">
        <ele>2910.0</ele>
        <time>2018-07-14T14:23:49Z</time>
      </trkpt>
      <trkpt lat="40.791100" lon="-5.079733">
        <ele>2907.0</ele>
        <time>2018-07-14T14:23:50Z</time>
      </trkpt>
      <trkpt lat="40.791167" lon="-5.079800">
        <ele>2904.0</ele>
        <time>2018-07-14T14:23:51Z</time>
      </trkpt>
      <trkpt lat="40.791233" lon="-5.079867">
        <ele>2902.0</ele>
        <time>2018-07-14T14:23:52Z</time>
      </trkpt>
      <trkpt lat="40.791300" lon="-5.079917">
        <ele>2900.0</ele>
        <time>2018-07-14T14:23:53Z</time>
      </trkpt>
      <trkpt lat="40.791367" lon="-5.079983">
        <ele>2897.0</ele>
        <time>2018-07-14T14:23:54Z</time>
      </trkpt>
      <trkpt lat="40.791417" lon="-5.080050">
        <ele>2895.0</ele>
        <time>2018-07-14T14:23:55Z</time>
      </trkpt>
      <trkpt lat="40.791483" lon="-5.080117">
        <ele>2892.0</ele>
        <time>2018-07-14T14:23:56Z</time>
      </trkpt>
      <trkpt lat="40.791550" lon="-5.080200">
        <ele>2890.0</ele>
        <time>2018-07-14T14:23:57Z</time>
      </trkpt>
      <trkpt lat="40.791617" lon="-5.080267">
        <ele>2888.0</ele>
        <time>2018-07-14T14:23:58Z</time>
      </trkpt>
      <trkpt lat="40.791683" lon="-5.080333">
        <ele>2886.0</ele>
        <time>2018-07-14T14:23:59Z</time>
      </trkpt>
      <trkpt lat="40.791750" lon="-5.080383">
        <ele>2885.0</ele>
        <time>2018-07-14T14:24:00Z</time>
      </trkpt>
      <trkpt lat="40.791817" lon="-5.080433">
        <ele>2883.0</ele>
        <time>2018-07-14T14:24:01Z</time>
      </trkpt>
      <trkpt lat="40.791883" lon="-5.080483">
        <ele>2882.0</ele>
        <time>2018-07-14T14:24:02Z</time>
      </trkpt>
      <trkpt lat="40.791967" lon="-5.080533">
        <ele>2880.0</ele>
        <time>2018-07-14T14:24:03Z</time>
      </trkpt>
      <trkpt lat="40.792050" lon="-5.080583">
        <ele>2878.0</ele>
        <time>2018-07-14T14:24:04Z</time>
      </trkpt>
      <trkpt lat="40.792133" lon="-5.080617">
        <ele>2877.0</ele>
        <time>2018-07-14T14:24:05Z</time>
      </trkpt>
      <trkpt lat="40.792217" lon="-5.080650">
        <ele>2875.0</ele>
        <time>2018-07-14T14:24:06Z</time>
      </trkpt>
      <trkpt lat="40.792300" lon="-5.080683">
        <ele>2873.0</ele>
        <time>2018-07-14T14:24:07Z</time>
      </trkpt>
      <trkpt lat="40.792383" lon="-5.080733">
        <ele>2871.0</ele>
        <time>2018-07-14T14:24:08Z</time>
      </trkpt>
      <trkpt lat="40.792467" lon="-5.080767">
        <ele>2869.0</ele>
        <time>2018-07-14T14:24:09Z</time>
      </trkpt>
      <trkpt lat="40.792567" lon="-5.080800">
        <ele>2868.0</ele>
        <time>2018-07-14T14:24:10Z</time>
      </trkpt>
      <trkpt lat="40.792633" lon="-5.080833">
        <ele>2868.0</ele>
        <time>2018-07-14T14:24:11Z</time>
      </trkpt>
      <trkpt lat="40.792700" lon="-5.080833">
        <ele>2869.0</ele>
        <time>2018-07-14T14:24:12Z</time>
      </trkpt>
      <trkpt lat="40.792767" lon="-5.080867">
        <ele>2867.0</ele>
        <time>2018-07-14T14:24:13Z</time>
      </trkpt>
      <trkpt lat="40.792833" lon="-5.080900">
        <ele>2865.0</ele>
        <time>2018-07-14T14:24:14Z</time>
      </trkpt>
      <trkpt lat="40.792900" lon="-5.080933">
        <ele>2863.0</ele>
        <time>2018-07-14T14:24:15Z</time>
      </trkpt>
      <trkpt lat="40.792983" lon="-5.080983">
        <ele>2861.0</ele>
        <time>2018-07-14T14:24:16Z</time>
      </trkpt>
      <trkpt lat="40.793050" lon="-5.081017">
        <ele>2859.0</ele>
        <time>2018-07-14T14:24:17Z</time>
      </trkpt>
      <trkpt lat="40.793117" lon="-5.081050">
        <ele>2858.0</ele>
        <time>2018-07-14T14:24:18Z</time>
      </trkpt>
      <trkpt lat="40.793183" lon="-5.081083">
        <ele>2856.0</ele>
        <time>2018-07-14T14:24:19Z</time>
      </trkpt>
      <trkpt lat="40.793250" lon="-5.081100">
        <ele>2854.0</ele>
        <time>2018-07-14T14:24:20Z</time>
      </trkpt>
      <trkpt lat="40.793333" lon="-5.081133">
        <ele>2852.0</ele>
        <time>2018-07-14T14:24:21Z</time>
      </trkpt>
      <trkpt lat="40.793417" lon="-5.081167">
        <ele>2849.0</ele>
        <time>2018-07-14T14:24:22Z</time>
      </trkpt>
      <trkpt lat="40.793483" lon="-5.081183">
        <ele>2848.0</ele>
        <time>2018-07-14T14:24:23Z</time>
      </trkpt>
      <trkpt lat="40.793567" lon="-5.081200">
        <ele>2847.0</ele>
        <time>2018-07-14T14:24:24Z</time>
      </trkpt>
      <trkpt lat="40.793617" lon="-5.081233">
        <ele>2846.0</ele>
        <time>2018-07-14T14:24:25Z</time>
      </trkpt>
      <trkpt lat="40.793683" lon="-5.081267">
        <ele>2844.0</ele>
        <time>2018-07-14T14:24:26Z</time>
      </trkpt>
      <trkpt lat="40.793750" lon="-5.081283">
        <ele>2841.0</ele>
        <time>2018-07-14T14:24:27Z</time>
      </trkpt>
      <trkpt lat="40.793833" lon="-5.081317">
        <ele>2838.0</ele>
        <time>2018-07-14T14:24:28Z</time>
      </trkpt>
      <trkpt lat="40.793917" lon="-5.081350">
        <ele>2835.0</ele>
        <time>2018-07-14T14:24:29Z</time>
      </trkpt>
      <trkpt lat="40.793983" lon="-5.081383">
        <ele>2832.0</ele>
        <time>2018-07-14T14:24:30Z</time>
      </trkpt>
      <trkpt lat="40.794067" lon="-5.081433">
        <ele>2830.0</ele>
        <time>2018-07-14T14:24:31Z</time>
      </trkpt>
      <trkpt lat="40.794133" lon="-5.081483">
        <ele>2829.0</ele>
        <time>2018-07-14T14:24:32Z</time>
      </trkpt>
      <trkpt lat="40.794217" lon="-5.081517">
        <ele>2828.0</ele>
        <time>2018-07-14T14:24:33Z</time>
      </trkpt>
      <trkpt lat="40.794283" lon="-5.081550">
        <ele>2827.0</ele>
        <time>2018-07-14T14:24:34Z</time>
      </trkpt>
      <trkpt lat="40.794350" lon="-5.081583">
        <ele>2825.0</ele>
        <time>2018-07-14T14:24:35Z</time>
      </trkpt>
      <trkpt lat="40.794433" lon="-5.081617">
        <ele>2824.0</ele>
        <time>2018-07-14T14:24:36Z</time>
      </trkpt>
      <trkpt lat="40.794500" lon="-5.081667">
        <ele>2822.0</ele>
        <time>2018-07-14T14:24:37Z</time>
      </trkpt>
      <trkpt lat="40.794567" lon="-5.081700">
        <ele>2821.0</ele>
        <time>2018-07-14T14:24:38Z</time>
      </trkpt>
      <trkpt lat="40.794650" lon="-5.081750">
        <ele>2819.0</ele>
        <time>2018-07-14T14:24:39Z</time>
      </trkpt>
      <trkpt lat="40.794733" lon="-5.081783">
        <ele>2819.0</ele>
        <time>2018-07-14T14:24:40Z</time>
      </trkpt>
      <trkpt lat="40.794817" lon="-5.081800">
        <ele>2819.0</ele>
        <time>2018-07-14T14:24:41Z</time>
      </trkpt>
      <trkpt lat="40.794900" lon="-5.081817">
        <ele>2819.0</ele>
        <time>2018-07-14T14:24:42Z</time>
      </trkpt>
      <trkpt lat="40.794983" lon="-5.081833">
        <ele>2818.0</ele>
        <time>2018-07-14T14:24:43Z</time>
      </trkpt>
      <trkpt lat="40.795050" lon="-5.081833">
        <ele>2818.0</ele>
        <time>2018-07-14T14:24:44Z</time>
      </trkpt>
      <trkpt lat="40.795133" lon="-5.081833">
        <ele>2816.0</ele>
        <time>2018-07-14T14:24:45Z</time>
      </trkpt>
      <trkpt lat="40.795217" lon="-5.081833">
        <ele>2814.0</ele>
        <time>2018-07-14T14:24:46Z</time>
      </trkpt>
      <trkpt lat="40.795300" lon="-5.081850">
        <ele>2812.0</ele>
        <time>2018-07-14T14:24:47Z</time>
      </trkpt>
      <trkpt lat="40.795383" lon="-5.081867">
        <ele>2810.0</ele>
        <time>2018-07-14T14:24:48Z</time>
      </trkpt>
      <trkpt lat="40.795467" lon="-5.081883">
        <ele>2809.0</ele>
        <time>2018-07-14T14:24:49Z</time>
      </trkpt>
      <trkpt lat="40.795550" lon="-5.081900">
        <ele>2809.0</ele>
        <time>2018-07-14T14:24:50Z</time>
      </trkpt>
      <trkpt lat="40.795617" lon="-5.081917">
        <ele>2808.0</ele>
        <time>2018-07-14T14:24:51Z</time>
      </trkpt>
      <trkpt lat="40.795700" lon="-5.081933">
        <ele>2807.0</ele>
        <time>2018-07-14T14:24:52Z</time>
      </trkpt>
      <trkpt lat="40.795783" lon="-5.081967">
        <ele>2806.0</ele>
        <time>2018-07-14T14:24:53Z</time>
      </trkpt>
      <trkpt lat="40.795867" lon="-5.081983">
        <ele>2805.0</ele>
        <time>2018-07-14T14:24:54Z</time>
      </trkpt>
      <trkpt lat="40.795950" lon="-5.081983">
        <ele>2805.0</ele>
        <time>2018-07-14T14:24:55Z</time>
      </trkpt>
      <trkpt lat="40.796017" lon="-5.082000">
        <ele>2805.0</ele>
        <time>2018-07-14T14:24:56Z</time>
      </trkpt>
      <trkpt lat="40.796083" lon="-5.082033">
        <ele>2804.0</ele>
        <time>2018-07-14T14:24:57Z</time>
      </trkpt>
      <trkpt lat="40.796167" lon="-5.082067">
        <ele>2803.0</ele>
        <time>2018-07-14T14:24:58Z</time>
      </trkpt>
      <trkpt lat="40.796250" lon="-5.082100">
        <ele>2802.0</ele>
        <time>2018-07-14T14:24:59Z</time>
      </trkpt>
      <trkpt lat="40.796317" lon="-5.082150">
        <ele>2801.0</ele>
        <time>2018-07-14T14:25:00Z</time>
      </trkpt>
      <trkpt lat="40.796383" lon="-5.082167">
        <ele>2802.0</ele>
        <time>2018-07-14T14:25:01Z</time>
      </trkpt>
      <trkpt lat="40.796450" lon="-5.082200">
        <ele>2802.0</ele>
        <time>2018-07-14T14:25:02Z</time>
      </trkpt>
      <trkpt lat="40.796517" lon="-5.082217">
        <ele>2802.0</ele>
        <time>2018-07-14T14:25:03Z</time>
      </trkpt>
      <trkpt lat="40.796583" lon="-5.082267">
        <ele>2800.0</ele>
        <time>2018-07-14T14:25:04Z</time>
      </trkpt>
      <trkpt lat="40.796650" lon="-5.082300">
        <ele>2797.0</ele>
        <time>2018-07-14T14:25:05Z</time>
      </trkpt>
      <trkpt lat="40.796733" lon="-5.082350">
        <ele>2795.0</ele>
        <time>2018-07-14T14:25:06Z</time>
      </trkpt>
      <trkpt lat="40.796817" lon="-5.082383">
        <ele>2794.0</ele>
        <time>2018-07-14T14:25:07Z</time>
      </trkpt>
      <trkpt lat="40.796900" lon="-5.082400">
        <ele>2793.0</ele>
        <time>2018-07-14T14:25:08Z</time>
      </trkpt>
      <trkpt lat="40.796983" lon="-5.082417">
        <ele>2791.0</ele>
        <time>2018-07-14T14:25:09Z</time>
      </trkpt>
      <trkpt lat="40.797050" lon="-5.082433">
        <ele>2790.0</ele>
        <time>2018-07-14T14:25:10Z</time>
      </trkpt>
      <trkpt lat="40.797117" lon="-5.082450">
        <ele>2790.0</ele>
        <time>2018-07-14T14:25:11Z</time>
      </trkpt>
      <trkpt lat="40.797200" lon="-5.082467">
        <ele>2788.0</ele>
        <time>2018-07-14T14:25:12Z</time>
      </trkpt>
      <trkpt lat="40.797283" lon="-5.082483">
        <ele>2787.0</ele>
        <time>2018-07-14T14:25:13Z</time>
      </trkpt>
      <trkpt lat="40.797350" lon="-5.082500">
        <ele>2786.0</ele>
        <time>2018-07-14T14:25:14Z</time>
      </trkpt>
      <trkpt lat="40.797433" lon="-5.082533">
        <ele>2785.0</ele>
        <time>2018-07-14T14:25:15Z</time>
      </trkpt>
      <trkpt lat="40.797500" lon="-5.082550">
        <ele>2784.0</ele>
        <time>2018-07-14T14:25:16Z</time>
      </trkpt>
      <trkpt lat="40.797583" lon="-5.082583">
        <ele>2783.0</ele>
        <time>2018-07-14T14:25:17Z</time>
      </trkpt>
      <trkpt lat="40.797650" lon="-5.082600">
        <ele>2781.0</ele>
        <time>2018-07-14T14:25:18Z</time>
      </trkpt>
      <trkpt lat="40.797733" lon="-5.082633">
        <ele>2780.0</ele>
        <time>2018-07-14T14:25:19Z</time>
      </trkpt>
      <trkpt lat="40.797800" lon="-5.082650">
        <ele>2779.0</ele>
        <time>2018-07-14T14:25:20Z</time>
      </trkpt>
      <trkpt lat="40.797867" lon="-5.082683">
        <ele>2778.0</ele>
        <time>2018-07-14T14:25:21Z</time>
      </trkpt>
      <trkpt lat="40.797933" lon="-5.082717">
        <ele>2776.0</ele>
        <time>2018-07-14T14:25:22Z</time>
      </trkpt>
      <trkpt lat="40.798000" lon="-5.082750">
        <ele>2776.0</ele>
        <time>2018-07-14T14:25:23Z</time>
      </trkpt>
      <trkpt lat="40.798067" lon="-5.082783">
        <ele>2775.0</ele>
        <time>2018-07-14T14:25:24Z</time>
      </trkpt>
      <trkpt lat="40.798150" lon="-5.082800">
        <ele>2775.0</ele>
        <time>2018-07-14T14:25:25Z</time>
      </trkpt>
      <trkpt lat="40.798217" lon="-5.082817">
        <ele>2773.0</ele>
        <time>2018-07-14T14:25:26Z</time>
      </trkpt>
      <trkpt lat="40.798300" lon="-5.082850">
        <ele>2772.0</ele>
        <time>2018-07-14T14:25:27Z</time>
      </trkpt>
      <trkpt lat="40.798383" lon="-5.082867">
        <ele>2770.0</ele>
        <time>2018-07-14T14:25:28Z</time>
      </trkpt>
      <trkpt lat="40.798467" lon="-5.082900">
        <ele>2769.0</ele>
        <time>2018-07-14T14:25:29Z</time>
      </trkpt>
      <trkpt lat="40.798533" lon="-5.082933">
        <ele>2768.0</ele>
        <time>2018-07-14T14:25:30Z</time>
      </trkpt>
      <trkpt lat="40.798600" lon="-5.082967">
        <ele>2768.0</ele>
        <time>2018-07-14T14:25:31Z</time>
      </trkpt>
      <trkpt lat="40.798683" lon="-5.083000">
        <ele>2766.0</ele>
        <time>2018-07-14T14:25:32Z</time>
      </trkpt>
      <trkpt lat="40.798750" lon="-5.083050">
        <ele>2765.0</ele>
        <time>2018-07-14T14:25:33Z</time>
      </trkpt>
      <trkpt lat="40.798833" lon="-5.083100">
        <ele>2763.0</ele>
        <time>2018-07-14T14:25:34Z</time>
      </trkpt>
      <trkpt lat="40.798917" lon="-5.083150">
        <ele>2761.0</ele>
        <time>2018-07-14T14:25:35Z</time>
      </trkpt>
      <trkpt lat="40.798983" lon="-5.083200">
        <ele>2760.0</ele>
        <time>2018-07-14T14:25:36Z</time>
      </trkpt>
      <trkpt lat="40.799050" lon="-5.083233">
        <ele>2758.0</ele>
        <time>2018-07-14T14:25:37Z</time>
      </trkpt>
      <trkpt lat="40.799133" lon="-5.083283">
        <ele>2757.0</ele>
        <time>2018-07-14T14:25:38Z</time>
      </trkpt>
      <trkpt lat="40.799217" lon="-5.083317">
        <ele>2755.0</ele>
        <time>2018-07-14T14:25:39Z</time>
      </trkpt>
      <trkpt lat="40.799300" lon="-5.083350">
        <ele>2753.0</ele>
        <time>2018-07-14T14:25:40Z</time>
      </trkpt>
      <trkpt lat="40.799383" lon="-5.083383">
        <ele>2751.0</ele>
        <time>2018-07-14T14:25:41Z</time>
      </trkpt>
      <trkpt lat="40.799467" lon="-5.083417">
        <ele>2749.0</ele>
        <time>2018-07-14T14:25:42Z</time>
      </trkpt>
      <trkpt lat="40.799550" lon="-5.083450">
        <ele>2747.0</ele>
        <time>2018-07-14T14:25:43Z</time>
      </trkpt>
      <trkpt lat="40.799633" lon="-5.083500">
        <ele>2745.0</ele>
        <time>2018-07-14T14:25:44Z</time>
      </trkpt>
      <trkpt lat="40.799717" lon="-5.083533">
        <ele>2742.0</ele>
        <time>2018-07-14T14:25:45Z</time>
      </trkpt>
      <trkpt lat="40.799783" lon="-5.083583">
        <ele>2740.0</ele>
        <time>2018-07-14T14:25:46Z</time>
      </trkpt>
      <trkpt lat="40.799850" lon="-5.083633">
        <ele>2739.0</ele>
        <time>2018-07-14T14:25:47Z</time>
      </trkpt>
      <trkpt lat="40.799933" lon="-5.083667">
        <ele>2737.0</ele>
        <time>2018-07-14T14:25:48Z</time>
      </trkpt>
      <trkpt lat="40.800017" lon="-5.083717">
        <ele>2736.0</ele>
        <time>2018-07-14T14:25:49Z</time>
      </trkpt>
      <trkpt lat="40.800100" lon="-5.083750">
        <ele>2734.0</ele>
        <time>2018-07-14T14:25:50Z</time>
      </trkpt>
      <trkpt lat="40.800200" lon="-5.083783">
        <ele>2733.0</ele>
        <time>2018-07-14T14:25:51Z</time>
      </trkpt>
      <trkpt lat="40.800267" lon="-5.083800">
        <ele>2733.0</ele>
        <time>2018-07-14T14:25:52Z</time>
      </trkpt>
      <trkpt lat="40.800350" lon="-5.083817">
        <ele>2734.0</ele>
        <time>2018-07-14T14:25:53Z</time>
      </trkpt>
      <trkpt lat="40.800433" lon="-5.083833">
        <ele>2734.0</ele>
        <time>2018-07-14T14:25:54Z</time>
      </trkpt>
      <trkpt lat="40.800500" lon="-5.083850">
        <ele>2734.0</ele>
        <time>2018-07-14T14:25:55Z</time>
      </trkpt>
      <trkpt lat="40.800600" lon="-5.083867">
        <ele>2733.0</ele>
        <time>2018-07-14T14:25:56Z</time>
      </trkpt>
      <trkpt lat="40.800683" lon="-5.083883">
        <ele>2732.0</ele>
        <time>2018-07-14T14:25:57Z</time>
      </trkpt>
      <trkpt lat="40.800783" lon="-5.083900">
        <ele>2732.0</ele>
        <time>2018-07-14T14:25:58Z</time>
      </trkpt>
      <trkpt lat="40.800883" lon="-5.083933">
        <ele>2731.0</ele>
        <time>2018-07-14T14:25:59Z</time>
      </trkpt>
      <trkpt lat="40.800967" lon="-5.083967">
        <ele>2732.0</ele>
        <time>2018-07-14T14:26:00Z</time>
      </trkpt>
      <trkpt lat="40.801050" lon="-5.083983">
        <ele>2731.0</ele>
        <time>2018-07-14T14:26:01Z</time>
      </trkpt>
      <trkpt lat="40.801133" lon="-5.084000">
        <ele>2730.0</ele>
        <time>2018-07-14T14:26:02Z</time>
      </trkpt>
      <trkpt lat="40.801233" lon="-5.084000">
        <ele>2728.0</ele>
        <time>2018-07-14T14:26:03Z</time>
      </trkpt>
      <trkpt lat="40.801317" lon="-5.084017">
        <ele>2726.0</ele>
        <time>2018-07-14T14:26:04Z</time>
      </trkpt>
      <trkpt lat="40.801417" lon="-5.084033">
        <ele>2724.0</ele>
        <time>2018-07-14T14:26:05Z</time>
      </trkpt>
      <trkpt lat="40.801500" lon="-5.084050">
        <ele>2723.0</ele>
        <time>2018-07-14T14:26:06Z</time>
      </trkpt>
      <trkpt lat="40.801600" lon="-5.084067">
        <ele>2721.0</ele>
        <time>2018-07-14T14:26:07Z</time>
      </trkpt>
      <trkpt lat="40.801700" lon="-5.084100">
        <ele>2719.0</ele>
        <time>2018-07-14T14:26:08Z</time>
      </trkpt>
      <trkpt lat="40.801817" lon="-5.084117">
        <ele>2718.0</ele>
        <time>2018-07-14T14:26:09Z</time>
      </trkpt>
      <trkpt lat="40.801917" lon="-5.084150">
        <ele>2717.0</ele>
        <time>2018-07-14T14:26:10Z</time>
      </trkpt>
      <trkpt lat="40.802033" lon="-5.084183">
        <ele>2716.0</ele>
        <time>2018-07-14T14:26:11Z</time>
      </trkpt>
      <trkpt lat="40.802133" lon="-5.084233">
        <ele>2716.0</ele>
        <time>2018-07-14T14:26:12Z</time>
      </trkpt>
      <trkpt lat="40.802233" lon="-5.084267">
        <ele>2717.0</ele>
        <time>2018-07-14T14:26:13Z</time>
      </trkpt>
      <trkpt lat="40.802317" lon="-5.084283">
        <ele>2719.0</ele>
        <time>2018-07-14T14:26:14Z</time>
      </trkpt>
      <trkpt lat="40.802400" lon="-5.084300">
        <ele>2720.0</ele>
        <time>2018-07-14T14:26:15Z</time>
      </trkpt>
      <trkpt lat="40.802483" lon="-5.084333">
        <ele>2721.0</ele>
        <time>2018-07-14T14:26:16Z</time>
      </trkpt>
      <trkpt lat="40.802583" lon="-5.084367">
        <ele>2721.0</ele>
        <time>2018-07-14T14:26:17Z</time>
      </trkpt>
      <trkpt lat="40.802667" lon="-5.084400">
        <ele>2722.0</ele>
        <time>2018-07-14T14:26:18Z</time>
      </trkpt>
      <trkpt lat="40.802817" lon="-5.084500">
        <ele>2724.0</ele>
        <time>2018-07-14T14:26:20Z</time>
      </trkpt>
      <trkpt lat="40.802883" lon="-5.084533">
        <ele>2724.0</ele>
        <time>2018-07-14T14:26:21Z</time>
      </trkpt>
      <trkpt lat="40.802967" lon="-5.084583">
        <ele>2724.0</ele>
        <time>2018-07-14T14:26:22Z</time>
      </trkpt>
      <trkpt lat="40.803067" lon="-5.084633">
        <ele>2723.0</ele>
        <time>2018-07-14T14:26:23Z</time>
      </trkpt>
      <trkpt lat="40.803150" lon="-5.084683">
        <ele>2722.0</ele>
        <time>2018-07-14T14:26:24Z</time>
      </trkpt>
      <trkpt lat="40.803250" lon="-5.084717">
        <ele>2722.0</ele>
        <time>2018-07-14T14:26:25Z</time>
      </trkpt>
      <trkpt lat="40.803333" lon="-5.084767">
        <ele>2721.0</ele>
        <time>2018-07-14T14:26:26Z</time>
      </trkpt>
      <trkpt lat="40.803417" lon="-5.084817">
        <ele>2721.0</ele>
        <time>2018-07-14T14:26:27Z</time>
      </trkpt>
      <trkpt lat="40.803483" lon="-5.084850">
        <ele>2721.0</ele>
        <time>2018-07-14T14:26:28Z</time>
      </trkpt>
      <trkpt lat="40.803550" lon="-5.084900">
        <ele>2720.0</ele>
        <time>2018-07-14T14:26:29Z</time>
      </trkpt>
      <trkpt lat="40.803633" lon="-5.084917">
        <ele>2718.0</ele>
        <time>2018-07-14T14:26:30Z</time>
      </trkpt>
      <trkpt lat="40.803717" lon="-5.084950">
        <ele>2716.0</ele>
        <time>2018-07-14T14:26:31Z</time>
      </trkpt>
      <trkpt lat="40.803817" lon="-5.085000">
        <ele>2713.0</ele>
        <time>2018-07-14T14:26:32Z</time>
      </trkpt>
      <trkpt lat="40.803917" lon="-5.085050">
        <ele>2710.0</ele>
        <time>2018-07-14T14:26:33Z</time>
      </trkpt>
      <trkpt lat="40.804000" lon="-5.085100">
        <ele>2708.0</ele>
        <time>2018-07-14T14:26:34Z</time>
      </trkpt>
      <trkpt lat="40.804083" lon="-5.085150">
        <ele>2706.0</ele>
        <time>2018-07-14T14:26:35Z</time>
      </trkpt>
      <trkpt lat="40.804167" lon="-5.085183">
        <ele>2704.0</ele>
        <time>2018-07-14T14:26:36Z</time>
      </trkpt>
      <trkpt lat="40.804250" lon="-5.085200">
        <ele>2702.0</ele>
        <time>2018-07-14T14:26:37Z</time>
      </trkpt>
      <trkpt lat="40.804333" lon="-5.085250">
        <ele>2699.0</ele>
        <time>2018-07-14T14:26:38Z</time>
      </trkpt>
      <trkpt lat="40.804433" lon="-5.085283">
        <ele>2696.0</ele>
        <time>2018-07-14T14:26:39Z</time>
      </trkpt>
      <trkpt lat="40.804517" lon="-5.085333">
        <ele>2692.0</ele>
        <time>2018-07-14T14:26:40Z</time>
      </trkpt>
      <trkpt lat="40.804600" lon="-5.085383">
        <ele>2690.0</ele>
        <time>2018-07-14T14:26:41Z</time>
      </trkpt>
      <trkpt lat="40.804683" lon="-5.085417">
        <ele>2687.0</ele>
        <time>2018-07-14T14:26:42Z</time>
      </trkpt>
      <trkpt lat="40.804767" lon="-5.085467">
        <ele>2685.0</ele>
        <time>2018-07-14T14:26:43Z</time>
      </trkpt>
      <trkpt lat="40.804867" lon="-5.085500">
        <ele>2682.0</ele>
        <time>2018-07-14T14:26:44Z</time>
      </trkpt>
      <trkpt lat="40.804950" lon="-5.085533">
        <ele>2680.0</ele>
        <time>2018-07-14T14:26:45Z</time>
      </trkpt>
      <trkpt lat="40.805050" lon="-5.085583">
        <ele>2677.0</ele>
        <time>2018-07-14T14:26:46Z</time>
      </trkpt>
      <trkpt lat="40.805133" lon="-5.085617">
        <ele>2674.0</ele>
        <time>2018-07-14T14:26:47Z</time>
      </trkpt>
      <trkpt lat="40.805217" lon="-5.085650">
        <ele>2671.0</ele>
        <time>2018-07-14T14:26:48Z</time>
      </trkpt>
      <trkpt lat="40.805300" lon="-5.085683">
        <ele>2669.0</ele>
        <time>2018-07-14T14:26:49Z</time>
      </trkpt>
      <trkpt lat="40.805383" lon="-5.085733">
        <ele>2667.0</ele>
        <time>2018-07-14T14:26:50Z</time>
      </trkpt>
      <trkpt lat="40.805483" lon="-5.085767">
        <ele>2664.0</ele>
        <time>2018-07-14T14:26:51Z</time>
      </trkpt>
      <trkpt lat="40.805567" lon="-5.085817">
        <ele>2662.0</ele>
        <time>2018-07-14T14:26:52Z</time>
      </trkpt>
      <trkpt lat="40.805650" lon="-5.085850">
        <ele>2659.0</ele>
        <time>2018-07-14T14:26:53Z</time>
      </trkpt>
      <trkpt lat="40.805733" lon="-5.085900">
        <ele>2657.0</ele>
        <time>2018-07-14T14:26:54Z</time>
      </trkpt>
      <trkpt lat="40.805817" lon="-5.085950">
        <ele>2655.0</ele>
        <time>2018-07-14T14:26:55Z</time>
      </trkpt>
      <trkpt lat="40.805900" lon="-5.086000">
        <ele>2653.0</ele>
        <time>2018-07-14T14:26:56Z</time>
      </trkpt>
      <trkpt lat="40.805983" lon="-5.086033">
        <ele>2650.0</ele>
        <time>2018-07-14T14:26:57Z</time>
      </trkpt>
      <trkpt lat="40.806217" lon="-5.086200">
        <ele>2642.0</ele>
        <time>2018-07-14T14:27:00Z</time>
      </trkpt>
      <trkpt lat="40.806283" lon="-5.086250">
        <ele>2640.0</ele>
        <time>2018-07-14T14:27:01Z</time>
      </trkpt>
      <trkpt lat="40.806367" lon="-5.086283">
        <ele>2637.0</ele>
        <time>2018-07-14T14:27:02Z</time>
      </trkpt>
      <trkpt lat="40.806433" lon="-5.086333">
        <ele>2634.0</ele>
        <time>2018-07-14T14:27:03Z</time>
      </trkpt>
      <trkpt lat="40.806517" lon="-5.086400">
        <ele>2631.0</ele>
        <time>2018-07-14T14:27:04Z</time>
      </trkpt>
      <trkpt lat="40.806600" lon="-5.086450">
        <ele>2628.0</ele>
        <time>2018-07-14T14:27:05Z</time>
      </trkpt>
      <trkpt lat="40.806667" lon="-5.086500">
        <ele>2626.0</ele>
        <time>2018-07-14T14:27:06Z</time>
      </trkpt>
      <trkpt lat="40.806733" lon="-5.086550">
        <ele>2624.0</ele>
        <time>2018-07-14T14:27:07Z</time>
      </trkpt>
      <trkpt lat="40.806800" lon="-5.086583">
        <ele>2622.0</ele>
        <time>2018-07-14T14:27:08Z</time>
      </trkpt>
      <trkpt lat="40.806867" lon="-5.086617">
        <ele>2619.0</ele>
        <time>2018-07-14T14:27:09Z</time>
      </trkpt>
      <trkpt lat="40.806933" lon="-5.086667">
        <ele>2615.0</ele>
        <time>2018-07-14T14:27:10Z</time>
      </trkpt>
      <trkpt lat="40.807017" lon="-5.086733">
        <ele>2611.0</ele>
        <time>2018-07-14T14:27:11Z</time>
      </trkpt>
      <trkpt lat="40.807100" lon="-5.086783">
        <ele>2607.0</ele>
        <time>2018-07-14T14:27:12Z</time>
      </trkpt>
      <trkpt lat="40.807167" lon="-5.086850">
        <ele>2604.0</ele>
        <time>2018-07-14T14:27:13Z</time>
      </trkpt>
      <trkpt lat="40.807250" lon="-5.086900">
        <ele>2601.0</ele>
        <time>2018-07-14T14:27:14Z</time>
      </trkpt>
      <trkpt lat="40.807317" lon="-5.086950">
        <ele>2598.0</ele>
        <time>2018-07-14T14:27:15Z</time>
      </trkpt>
      <trkpt lat="40.807400" lon="-5.087000">
        <ele>2594.0</ele>
        <time>2018-07-14T14:27:16Z</time>
      </trkpt>
      <trkpt lat="40.807467" lon="-5.087067">
        <ele>2591.0</ele>
        <time>2018-07-14T14:27:17Z</time>
      </trkpt>
      <trkpt lat="40.807550" lon="-5.087133">
        <ele>2587.0</ele>
        <time>2018-07-14T14:27:18Z</time>
      </trkpt>
      <trkpt lat="40.807617" lon="-5.087200">
        <ele>2583.0</ele>
        <time>2018-07-14T14:27:19Z</time>
      </trkpt>
      <trkpt lat="40.807683" lon="-5.087267">
        <ele>2581.0</ele>
        <time>2018-07-14T14:27:20Z</time>
      </trkpt>
      <trkpt lat="40.807750" lon="-5.087317">
        <ele>2578.0</ele>
        <time>2018-07-14T14:27:21Z</time>
      </trkpt>
      <trkpt lat="40.807800" lon="-5.087383">
        <ele>2575.0</ele>
        <time>2018-07-14T14:27:22Z</time>
      </trkpt>
      <trkpt lat="40.807867" lon="-5.087433">
        <ele>2572.0</ele>
        <time>2018-07-14T14:27:23Z</time>
      </trkpt>
      <trkpt lat="40.807950" lon="-5.087483">
        <ele>2569.0</ele>
        <time>2018-07-14T14:27:24Z</time>
      </trkpt>
      <trkpt lat="40.808017" lon="-5.087550">
        <ele>2566.0</ele>
        <time>2018-07-14T14:27:25Z</time>
      </trkpt>
      <trkpt lat="40.808100" lon="-5.087633">
        <ele>2562.0</ele>
        <time>2018-07-14T14:27:26Z</time>
      </trkpt>
      <trkpt lat="40.808167" lon="-5.087683">
        <ele>2560.0</ele>
        <time>2018-07-14T14:27:27Z</time>
      </trkpt>
      <trkpt lat="40.808233" lon="-5.087750">
        <ele>2558.0</ele>
        <time>2018-07-14T14:27:28Z</time>
      </trkpt>
      <trkpt lat="40.808300" lon="-5.087800">
        <ele>2556.0</ele>
        <time>2018-07-14T14:27:29Z</time>
      </trkpt>
      <trkpt lat="40.808383" lon="-5.087850">
        <ele>2554.0</ele>
        <time>2018-07-14T14:27:30Z</time>
      </trkpt>
      <trkpt lat="40.808450" lon="-5.087917">
        <ele>2551.0</ele>
        <time>2018-07-14T14:27:31Z</time>
      </trkpt>
      <trkpt lat="40.808550" lon="-5.087983">
        <ele>2549.0</ele>
        <time>2018-07-14T14:27:32Z</time>
      </trkpt>
      <trkpt lat="40.808617" lon="-5.088067">
        <ele>2547.0</ele>
        <time>2018-07-14T14:27:33Z</time>
      </trkpt>
      <trkpt lat="40.808700" lon="-5.088150">
        <ele>2544.0</ele>
        <time>2018-07-14T14:27:34Z</time>
      </trkpt>
      <trkpt lat="40.808767" lon="-5.088217">
        <ele>2543.0</ele>
        <time>2018-07-14T14:27:35Z</time>
      </trkpt>
      <trkpt lat="40.808833" lon="-5.088283">
        <ele>2541.0</ele>
        <time>2018-07-14T14:27:36Z</time>
      </trkpt>
      <trkpt lat="40.808900" lon="-5.088333">
        <ele>2540.0</ele>
        <time>2018-07-14T14:27:37Z</time>
      </trkpt>
      <trkpt lat="40.808967" lon="-5.088400">
        <ele>2537.0</ele>
        <time>2018-07-14T14:27:38Z</time>
      </trkpt>
      <trkpt lat="40.809050" lon="-5.088483">
        <ele>2535.0</ele>
        <time>2018-07-14T14:27:39Z</time>
      </trkpt>
      <trkpt lat="40.809133" lon="-5.088550">
        <ele>2532.0</ele>
        <time>2018-07-14T14:27:40Z</time>
      </trkpt>
      <trkpt lat="40.809200" lon="-5.088617">
        <ele>2531.0</ele>
        <time>2018-07-14T14:27:41Z</time>
      </trkpt>
      <trkpt lat="40.809250" lon="-5.088683">
        <ele>2530.0</ele>
        <time>2018-07-14T14:27:42Z</time>
      </trkpt>
      <trkpt lat="40.809317" lon="-5.088750">
        <ele>2528.0</ele>
        <time>2018-07-14T14:27:43Z</time>
      </trkpt>
      <trkpt lat="40.809367" lon="-5.088817">
        <ele>2525.0</ele>
        <time>2018-07-14T14:27:44Z</time>
      </trkpt>
      <trkpt lat="40.809433" lon="-5.088883">
        <ele>2521.0</ele>
        <time>2018-07-14T14:27:45Z</time>
      </trkpt>
      <trkpt lat="40.809500" lon="-5.088967">
        <ele>2517.0</ele>
        <time>2018-07-14T14:27:46Z</time>
      </trkpt>
      <trkpt lat="40.809583" lon="-5.089033">
        <ele>2514.0</ele>
        <time>2018-07-14T14:27:47Z</time>
      </trkpt>
      <trkpt lat="40.809650" lon="-5.089117">
        <ele>2511.0</ele>
        <time>2018-07-14T14:27:48Z</time>
      </trkpt>
      <trkpt lat="40.809717" lon="-5.089167">
        <ele>2510.0</ele>
        <time>2018-07-14T14:27:49Z</time>
      </trkpt>
      <trkpt lat="40.809783" lon="-5.089217">
        <ele>2509.0</ele>
        <time>2018-07-14T14:27:50Z</time>
      </trkpt>
      <trkpt lat="40.809850" lon="-5.089267">
        <ele>2507.0</ele>
        <time>2018-07-14T14:27:51Z</time>
      </trkpt>
      <trkpt lat="40.809917" lon="-5.089333">
        <ele>2503.0</ele>
        <time>2018-07-14T14:27:52Z</time>
      </trkpt>
      <trkpt lat="40.810017" lon="-5.089417">
        <ele>2499.0</ele>
        <time>2018-07-14T14:27:53Z</time>
      </trkpt>
      <trkpt lat="40.810100" lon="-5.089483">
        <ele>2494.0</ele>
        <time>2018-07-14T14:27:54Z</time>
      </trkpt>
      <trkpt lat="40.810183" lon="-5.089567">
        <ele>2491.0</ele>
        <time>2018-07-14T14:27:55Z</time>
      </trkpt>
      <trkpt lat="40.810250" lon="-5.089633">
        <ele>2488.0</ele>
        <time>2018-07-14T14:27:56Z</time>
      </trkpt>
      <trkpt lat="40.810333" lon="-5.089700">
        <ele>2485.0</ele>
        <time>2018-07-14T14:27:57Z</time>
      </trkpt>
      <trkpt lat="40.810417" lon="-5.089783">
        <ele>2482.0</ele>
        <time>2018-07-14T14:27:58Z</time>
      </trkpt>
      <trkpt lat="40.810483" lon="-5.089867">
        <ele>2479.0</ele>
        <time>2018-07-14T14:27:59Z</time>
      </trkpt>
      <trkpt lat="40.810567" lon="-5.089933">
        <ele>2476.0</ele>
        <time>2018-07-14T14:28:00Z</time>
      </trkpt>
      <trkpt lat="40.810633" lon="-5.090017">
        <ele>2473.0</ele>
        <time>2018-07-14T14:28:01Z</time>
      </trkpt>
      <trkpt lat="40.810700" lon="-5.090100">
        <ele>2470.0</ele>
        <time>2018-07-14T14:28:02Z</time>
      </trkpt>
      <trkpt lat="40.810767" lon="-5.090183">
        <ele>2467.0</ele>
        <time>2018-07-14T14:28:03Z</time>
      </trkpt>
      <trkpt lat="40.810833" lon="-5.090267">
        <ele>2465.0</ele>
        <time>2018-07-14T14:28:04Z</time>
      </trkpt>
      <trkpt lat="40.810900" lon="-5.090367">
        <ele>2462.0</ele>
        <time>2018-07-14T14:28:05Z</time>
      </trkpt>
      <trkpt lat="40.810967" lon="-5.090450">
        <ele>2460.0</ele>
        <time>2018-07-14T14:28:06Z</time>
      </trkpt>
      <trkpt lat="40.811033" lon="-5.090517">
        <ele>2457.0</ele>
        <time>2018-07-14T14:28:07Z</time>
      </trkpt>
      <trkpt lat="40.811100" lon="-5.090600">
        <ele>2455.0</ele>
        <time>2018-07-14T14:28:08Z</time>
      </trkpt>
      <trkpt lat="40.811183" lon="-5.090683">
        <ele>2452.0</ele>
        <time>2018-07-14T14:28:09Z</time>
      </trkpt>
      <trkpt lat="40.811250" lon="-5.090750">
        <ele>2448.0</ele>
        <time>2018-07-14T14:28:10Z</time>
      </trkpt>
      <trkpt lat="40.811317" lon="-5.090833">
        <ele>2444.0</ele>
        <time>2018-07-14T14:28:11Z</time>
      </trkpt>
      <trkpt lat="40.811400" lon="-5.090933">
        <ele>2440.0</ele>
        <time>2018-07-14T14:28:12Z</time>
      </trkpt>
      <trkpt lat="40.811483" lon="-5.091033">
        <ele>2435.0</ele>
        <time>2018-07-14T14:28:13Z</time>
      </trkpt>
      <trkpt lat="40.811567" lon="-5.091133">
        <ele>2431.0</ele>
        <time>2018-07-14T14:28:14Z</time>
      </trkpt>
      <trkpt lat="40.811633" lon="-5.091233">
        <ele>2429.0</ele>
        <time>2018-07-14T14:28:15Z</time>
      </trkpt>
      <trkpt lat="40.811717" lon="-5.091317">
        <ele>2427.0</ele>
        <time>2018-07-14T14:28:16Z</time>
      </trkpt>
      <trkpt lat="40.811800" lon="-5.091383">
        <ele>2425.0</ele>
        <time>2018-07-14T14:28:17Z</time>
      </trkpt>
      <trkpt lat="40.811900" lon="-5.091450">
        <ele>2422.0</ele>
        <time>2018-07-14T14:28:18Z</time>
      </trkpt>
      <trkpt lat="40.811983" lon="-5.091517">
        <ele>2420.0</ele>
        <time>2018-07-14T14:28:19Z</time>
      </trkpt>
      <trkpt lat="40.812067" lon="-5.091583">
        <ele>2417.0</ele>
        <time>2018-07-14T14:28:20Z</time>
      </trkpt>
      <trkpt lat="40.812150" lon="-5.091667">
        <ele>2415.0</ele>
        <time>2018-07-14T14:28:21Z</time>
      </trkpt>
      <trkpt lat="40.812417" lon="-5.091867">
        <ele>2409.0</ele>
        <time>2018-07-14T14:28:24Z</time>
      </trkpt>
      <trkpt lat="40.812500" lon="-5.091933">
        <ele>2407.0</ele>
        <time>2018-07-14T14:28:25Z</time>
      </trkpt>
      <trkpt lat="40.812567" lon="-5.091983">
        <ele>2406.0</ele>
        <time>2018-07-14T14:28:26Z</time>
      </trkpt>
      <trkpt lat="40.812633" lon="-5.092050">
        <ele>2404.0</ele>
        <time>2018-07-14T14:28:27Z</time>
      </trkpt>
      <trkpt lat="40.812767" lon="-5.092200">
        <ele>2400.0</ele>
        <time>2018-07-14T14:28:29Z</time>
      </trkpt>
      <trkpt lat="40.812850" lon="-5.092300">
        <ele>2397.0</ele>
        <time>2018-07-14T14:28:30Z</time>
      </trkpt>
      <trkpt lat="40.812917" lon="-5.092400">
        <ele>2396.0</ele>
        <time>2018-07-14T14:28:31Z</time>
      </trkpt>
      <trkpt lat="40.812967" lon="-5.092483">
        <ele>2394.0</ele>
        <time>2018-07-14T14:28:32Z</time>
      </trkpt>
      <trkpt lat="40.813033" lon="-5.092583">
        <ele>2393.0</ele>
        <time>2018-07-14T14:28:33Z</time>
      </trkpt>
      <trkpt lat="40.813100" lon="-5.092667">
        <ele>2391.0</ele>
        <time>2018-07-14T14:28:34Z</time>
      </trkpt>
      <trkpt lat="40.813167" lon="-5.092733">
        <ele>2389.0</ele>
        <time>2018-07-14T14:28:35Z</time>
      </trkpt>
      <trkpt lat="40.813233" lon="-5.092817">
        <ele>2387.0</ele>
        <time>2018-07-14T14:28:36Z</time>
      </trkpt>
      <trkpt lat="40.813300" lon="-5.092883">
        <ele>2385.0</ele>
        <time>2018-07-14T14:28:37Z</time>
      </trkpt>
      <trkpt lat="40.813367" lon="-5.092950">
        <ele>2384.0</ele>
        <time>2018-07-14T14:28:38Z</time>
      </trkpt>
      <trkpt lat="40.813417" lon="-5.093017">
        <ele>2383.0</ele>
        <time>2018-07-14T14:28:39Z</time>
      </trkpt>
      <trkpt lat="40.813550" lon="-5.093133">
        <ele>2381.0</ele>
        <time>2018-07-14T14:28:41Z</time>
      </trkpt>
      <trkpt lat="40.813617" lon="-5.093200">
        <ele>2379.0</ele>
        <time>2018-07-14T14:28:42Z</time>
      </trkpt>
      <trkpt lat="40.813750" lon="-5.093350">
        <ele>2376.0</ele>
        <time>2018-07-14T14:28:44Z</time>
      </trkpt>
      <trkpt lat="40.813817" lon="-5.093417">
        <ele>2375.0</ele>
        <time>2018-07-14T14:28:45Z</time>
      </trkpt>
      <trkpt lat="40.813867" lon="-5.093483">
        <ele>2374.0</ele>
        <time>2018-07-14T14:28:46Z</time>
      </trkpt>
      <trkpt lat="40.813933" lon="-5.093550">
        <ele>2373.0</ele>
        <time>2018-07-14T14:28:47Z</time>
      </trkpt>
      <trkpt lat="40.814000" lon="-5.093617">
        <ele>2372.0</ele>
        <time>2018-07-14T14:28:48Z</time>
      </trkpt>
      <trkpt lat="40.814067" lon="-5.093700">
        <ele>2370.0</ele>
        <time>2018-07-14T14:28:49Z</time>
      </trkpt>
      <trkpt lat="40.814150" lon="-5.093800">
        <ele>2368.0</ele>
        <time>2018-07-14T14:28:50Z</time>
      </trkpt>
      <trkpt lat="40.814233" lon="-5.093850">
        <ele>2368.0</ele>
        <time>2018-07-14T14:28:51Z</time>
      </trkpt>
      <trkpt lat="40.814283" lon="-5.093900">
        <ele>2372.0</ele>
        <time>2018-07-14T14:28:52Z</time>
      </trkpt>
      <trkpt lat="40.814333" lon="-5.093917">
        <ele>2373.0</ele>
        <time>2018-07-14T14:28:53Z</time>
      </trkpt>
      <trkpt lat="40.814367" lon="-5.093950">
        <ele>2373.0</ele>
        <time>2018-07-14T14:28:54Z</time>
      </trkpt>
      <trkpt lat="40.814417" lon="-5.094000">
        <ele>2371.0</ele>
        <time>2018-07-14T14:28:55Z</time>
      </trkpt>
      <trkpt lat="40.814483" lon="-5.094067">
        <ele>2369.0</ele>
        <time>2018-07-14T14:28:56Z</time>
      </trkpt>
      <trkpt lat="40.814533" lon="-5.094133">
        <ele>2367.0</ele>
        <time>2018-07-14T14:28:57Z</time>
      </trkpt>
      <trkpt lat="40.814583" lon="-5.094200">
        <ele>2365.0</ele>
        <time>2018-07-14T14:28:58Z</time>
      </trkpt>
      <trkpt lat="40.814633" lon="-5.094267">
        <ele>2365.0</ele>
        <time>2018-07-14T14:28:59Z</time>
      </trkpt>
      <trkpt lat="40.814667" lon="-5.094317">
        <ele>2365.0</ele>
        <time>2018-07-14T14:29:00Z</time>
      </trkpt>
      <trkpt lat="40.814717" lon="-5.094383">
        <ele>2364.0</ele>
        <time>2018-07-14T14:29:01Z</time>
      </trkpt>
      <trkpt lat="40.814783" lon="-5.094433">
        <ele>2363.0</ele>
        <time>2018-07-14T14:29:02Z</time>
      </trkpt>
      <trkpt lat="40.814833" lon="-5.094500">
        <ele>2361.0</ele>
        <time>2018-07-14T14:29:03Z</time>
      </trkpt>
      <trkpt lat="40.814900" lon="-5.094567">
        <ele>2359.0</ele>
        <time>2018-07-14T14:29:04Z</time>
      </trkpt>
      <trkpt lat="40.814950" lon="-5.094617">
        <ele>2358.0</ele>
        <time>2018-07-14T14:29:05Z</time>
      </trkpt>
      <trkpt lat="40.815017" lon="-5.094683">
        <ele>2357.0</ele>
        <time>2018-07-14T14:29:06Z</time>
      </trkpt>
      <trkpt lat="40.815067" lon="-5.094750">
        <ele>2355.0</ele>
        <time>2018-07-14T14:29:07Z</time>
      </trkpt>
      <trkpt lat="40.815133" lon="-5.094817">
        <ele>2354.0</ele>
        <time>2018-07-14T14:29:08Z</time>
      </trkpt>
      <trkpt lat="40.815200" lon="-5.094883">
        <ele>2353.0</ele>
        <time>2018-07-14T14:29:09Z</time>
      </trkpt>
      <trkpt lat="40.815267" lon="-5.094950">
        <ele>2352.0</ele>
        <time>2018-07-14T14:29:10Z</time>
      </trkpt>
      <trkpt lat="40.815317" lon="-5.095000">
        <ele>2351.0</ele>
        <time>2018-07-14T14:29:11Z</time>
      </trkpt>
      <trkpt lat="40.815383" lon="-5.095067">
        <ele>2349.0</ele>
        <time>2018-07-14T14:29:12Z</time>
      </trkpt>
      <trkpt lat="40.815467" lon="-5.095133">
        <ele>2348.0</ele>
        <time>2018-07-14T14:29:13Z</time>
      </trkpt>
      <trkpt lat="40.815533" lon="-5.095200">
        <ele>2346.0</ele>
        <time>2018-07-14T14:29:14Z</time>
      </trkpt>
      <trkpt lat="40.815600" lon="-5.095267">
        <ele>2345.0</ele>
        <time>2018-07-14T14:29:15Z</time>
      </trkpt>
      <trkpt lat="40.815667" lon="-5.095317">
        <ele>2345.0</ele>
        <time>2018-07-14T14:29:16Z</time>
      </trkpt>
      <trkpt lat="40.815717" lon="-5.095383">
        <ele>2344.0</ele>
        <time>2018-07-14T14:29:17Z</time>
      </trkpt>
      <trkpt lat="40.815767" lon="-5.095433">
        <ele>2344.0</ele>
        <time>2018-07-14T14:29:18Z</time>
      </trkpt>
      <trkpt lat="40.815833" lon="-5.095500">
        <ele>2342.0</ele>
        <time>2018-07-14T14:29:19Z</time>
      </trkpt>
      <trkpt lat="40.815917" lon="-5.095567">
        <ele>2340.0</ele>
        <time>2018-07-14T14:29:20Z</time>
      </trkpt>
      <trkpt lat="40.816000" lon="-5.095633">
        <ele>2337.0</ele>
        <time>2018-07-14T14:29:21Z</time>
      </trkpt>
      <trkpt lat="40.816067" lon="-5.095700">
        <ele>2335.0</ele>
        <time>2018-07-14T14:29:22Z</time>
      </trkpt>
      <trkpt lat="40.816150" lon="-5.095767">
        <ele>2333.0</ele>
        <time>2018-07-14T14:29:23Z</time>
      </trkpt>
      <trkpt lat="40.816217" lon="-5.095833">
        <ele>2332.0</ele>
        <time>2018-07-14T14:29:24Z</time>
      </trkpt>
      <trkpt lat="40.816283" lon="-5.095900">
        <ele>2330.0</ele>
        <time>2018-07-14T14:29:25Z</time>
      </trkpt>
      <trkpt lat="40.816367" lon="-5.095950">
        <ele>2329.0</ele>
        <time>2018-07-14T14:29:26Z</time>
      </trkpt>
      <trkpt lat="40.816433" lon="-5.096017">
        <ele>2327.0</ele>
        <time>2018-07-14T14:29:27Z</time>
      </trkpt>
      <trkpt lat="40.816517" lon="-5.096083">
        <ele>2325.0</ele>
        <time>2018-07-14T14:29:28Z</time>
      </trkpt>
      <trkpt lat="40.816583" lon="-5.096150">
        <ele>2323.0</ele>
        <time>2018-07-14T14:29:29Z</time>
      </trkpt>
      <trkpt lat="40.816650" lon="-5.096217">
        <ele>2321.0</ele>
        <time>2018-07-14T14:29:30Z</time>
      </trkpt>
      <trkpt lat="40.816733" lon="-5.096283">
        <ele>2320.0</ele>
        <time>2018-07-14T14:29:31Z</time>
      </trkpt>
      <trkpt lat="40.816800" lon="-5.096333">
        <ele>2318.0</ele>
        <time>2018-07-14T14:29:32Z</time>
      </trkpt>
      <trkpt lat="40.816883" lon="-5.096400">
        <ele>2316.0</ele>
        <time>2018-07-14T14:29:33Z</time>
      </trkpt>
      <trkpt lat="40.816950" lon="-5.096467">
        <ele>2314.0</ele>
        <time>2018-07-14T14:29:34Z</time>
      </trkpt>
      <trkpt lat="40.817033" lon="-5.096517">
        <ele>2312.0</ele>
        <time>2018-07-14T14:29:35Z</time>
      </trkpt>
      <trkpt lat="40.817117" lon="-5.096567">
        <ele>2310.0</ele>
        <time>2018-07-14T14:29:36Z</time>
      </trkpt>
      <trkpt lat="40.817200" lon="-5.096617">
        <ele>2309.0</ele>
        <time>2018-07-14T14:29:37Z</time>
      </trkpt>
      <trkpt lat="40.817267" lon="-5.096683">
        <ele>2308.0</ele>
        <time>2018-07-14T14:29:38Z</time>
      </trkpt>
      <trkpt lat="40.817350" lon="-5.096717">
        <ele>2307.0</ele>
        <time>2018-07-14T14:29:39Z</time>
      </trkpt>
      <trkpt lat="40.817517" lon="-5.096833">
        <ele>2306.0</ele>
        <time>2018-07-14T14:29:41Z</time>
      </trkpt>
      <trkpt lat="40.817617" lon="-5.096867">
        <ele>2305.0</ele>
        <time>2018-07-14T14:29:42Z</time>
      </trkpt>
      <trkpt lat="40.817717" lon="-5.096917">
        <ele>2304.0</ele>
        <time>2018-07-14T14:29:43Z</time>
      </trkpt>
      <trkpt lat="40.817817" lon="-5.096950">
        <ele>2302.0</ele>
        <time>2018-07-14T14:29:44Z</time>
      </trkpt>
      <trkpt lat="40.817900" lon="-5.097000">
        <ele>2300.0</ele>
        <time>2018-07-14T14:29:45Z</time>
      </trkpt>
      <trkpt lat="40.817983" lon="-5.097050">
        <ele>2299.0</ele>
        <time>2018-07-14T14:29:46Z</time>
      </trkpt>
      <trkpt lat="40.818067" lon="-5.097100">
        <ele>2297.0</ele>
        <time>2018-07-14T14:29:47Z</time>
      </trkpt>
      <trkpt lat="40.818150" lon="-5.097150">
        <ele>2296.0</ele>
        <time>2018-07-14T14:29:48Z</time>
      </trkpt>
      <trkpt lat="40.818217" lon="-5.097217">
        <ele>2294.0</ele>
        <time>2018-07-14T14:29:49Z</time>
      </trkpt>
      <trkpt lat="40.818283" lon="-5.097267">
        <ele>2293.0</ele>
        <time>2018-07-14T14:29:50Z</time>
      </trkpt>
      <trkpt lat="40.818367" lon="-5.097317">
        <ele>2292.0</ele>
        <time>2018-07-14T14:29:51Z</time>
      </trkpt>
      <trkpt lat="40.818450" lon="-5.097367">
        <ele>2291.0</ele>
        <time>2018-07-14T14:29:52Z</time>
      </trkpt>
      <trkpt lat="40.818533" lon="-5.097417">
        <ele>2290.0</ele>
        <time>2018-07-14T14:29:53Z</time>
      </trkpt>
      <trkpt lat="40.818600" lon="-5.097483">
        <ele>2288.0</ele>
        <time>2018-07-14T14:29:54Z</time>
      </trkpt>
      <trkpt lat="40.818667" lon="-5.097533">
        <ele>2287.0</ele>
        <time>2018-07-14T14:29:55Z</time>
      </trkpt>
      <trkpt lat="40.818733" lon="-5.097583">
        <ele>2284.0</ele>
        <time>2018-07-14T14:29:56Z</time>
      </trkpt>
      <trkpt lat="40.818800" lon="-5.097633">
        <ele>2281.0</ele>
        <time>2018-07-14T14:29:57Z</time>
      </trkpt>
      <trkpt lat="40.818883" lon="-5.097700">
        <ele>2278.0</ele>
        <time>2018-07-14T14:29:58Z</time>
      </trkpt>
      <trkpt lat="40.818950" lon="-5.097767">
        <ele>2275.0</ele>
        <time>2018-07-14T14:29:59Z</time>
      </trkpt>
      <trkpt lat="40.819000" lon="-5.097850">
        <ele>2272.0</ele>
        <time>2018-07-14T14:30:00Z</time>
      </trkpt>
      <trkpt lat="40.819083" lon="-5.097933">
        <ele>2269.0</ele>
        <time>2018-07-14T14:30:01Z</time>
      </trkpt>
      <trkpt lat="40.819167" lon="-5.098017">
        <ele>2267.0</ele>
        <time>2018-07-14T14:30:02Z</time>
      </trkpt>
      <trkpt lat="40.819250" lon="-5.098067">
        <ele>2264.0</ele>
        <time>2018-07-14T14:30:03Z</time>
      </trkpt>
      <trkpt lat="40.819317" lon="-5.098133">
        <ele>2262.0</ele>
        <time>2018-07-14T14:30:04Z</time>
      </trkpt>
      <trkpt lat="40.819400" lon="-5.098183">
        <ele>2260.0</ele>
        <time>2018-07-14T14:30:05Z</time>
      </trkpt>
      <trkpt lat="40.819500" lon="-5.098250">
        <ele>2258.0</ele>
        <time>2018-07-14T14:30:06Z</time>
      </trkpt>
      <trkpt lat="40.819567" lon="-5.098300">
        <ele>2256.0</ele>
        <time>2018-07-14T14:30:07Z</time>
      </trkpt>
      <trkpt lat="40.819633" lon="-5.098350">
        <ele>2256.0</ele>
        <time>2018-07-14T14:30:08Z</time>
      </trkpt>
      <trkpt lat="40.819700" lon="-5.098400">
        <ele>2255.0</ele>
        <time>2018-07-14T14:30:09Z</time>
      </trkpt>
      <trkpt lat="40.819767" lon="-5.098467">
        <ele>2253.0</ele>
        <time>2018-07-14T14:30:10Z</time>
      </trkpt>
      <trkpt lat="40.819850" lon="-5.098517">
        <ele>2253.0</ele>
        <time>2018-07-14T14:30:11Z</time>
      </trkpt>
      <trkpt lat="40.819933" lon="-5.098583">
        <ele>2253.0</ele>
        <time>2018-07-14T14:30:12Z</time>
      </trkpt>
      <trkpt lat="40.820017" lon="-5.098633">
        <ele>2252.0</ele>
        <time>2018-07-14T14:30:13Z</time>
      </trkpt>
      <trkpt lat="40.820083" lon="-5.098683">
        <ele>2252.0</ele>
        <time>2018-07-14T14:30:14Z</time>
      </trkpt>
      <trkpt lat="40.820150" lon="-5.098733">
        <ele>2250.0</ele>
        <time>2018-07-14T14:30:15Z</time>
      </trkpt>
      <trkpt lat="40.820217" lon="-5.098783">
        <ele>2247.0</ele>
        <time>2018-07-14T14:30:16Z</time>
      </trkpt>
      <trkpt lat="40.820300" lon="-5.098833">
        <ele>2245.0</ele>
        <time>2018-07-14T14:30:17Z</time>
      </trkpt>
      <trkpt lat="40.820383" lon="-5.098883">
        <ele>2242.0</ele>
        <time>2018-07-14T14:30:18Z</time>
      </trkpt>
      <trkpt lat="40.820467" lon="-5.098917">
        <ele>2240.0</ele>
        <time>2018-07-14T14:30:19Z</time>
      </trkpt>
      <trkpt lat="40.820550" lon="-5.098950">
        <ele>2238.0</ele>
        <time>2018-07-14T14:30:20Z</time>
      </trkpt>
      <trkpt lat="40.820633" lon="-5.098983">
        <ele>2236.0</ele>
        <time>2018-07-14T14:30:21Z</time>
      </trkpt>
      <trkpt lat="40.820717" lon="-5.099050">
        <ele>2234.0</ele>
        <time>2018-07-14T14:30:22Z</time>
      </trkpt>
      <trkpt lat="40.820783" lon="-5.099100">
        <ele>2232.0</ele>
        <time>2018-07-14T14:30:23Z</time>
      </trkpt>
      <trkpt lat="40.820867" lon="-5.099150">
        <ele>2229.0</ele>
        <time>2018-07-14T14:30:24Z</time>
      </trkpt>
      <trkpt lat="40.820933" lon="-5.099217">
        <ele>2227.0</ele>
        <time>2018-07-14T14:30:25Z</time>
      </trkpt>
      <trkpt lat="40.821017" lon="-5.099283">
        <ele>2225.0</ele>
        <time>2018-07-14T14:30:26Z</time>
      </trkpt>
      <trkpt lat="40.821083" lon="-5.099350">
        <ele>2222.0</ele>
        <time>2018-07-14T14:30:27Z</time>
      </trkpt>
      <trkpt lat="40.821150" lon="-5.099433">
        <ele>2220.0</ele>
        <time>2018-07-14T14:30:28Z</time>
      </trkpt>
      <trkpt lat="40.821217" lon="-5.099500">
        <ele>2217.0</ele>
        <time>2018-07-14T14:30:29Z</time>
      </trkpt>
      <trkpt lat="40.821300" lon="-5.099567">
        <ele>2215.0</ele>
        <time>2018-07-14T14:30:30Z</time>
      </trkpt>
      <trkpt lat="40.821367" lon="-5.099617">
        <ele>2213.0</ele>
        <time>2018-07-14T14:30:31Z</time>
      </trkpt>
      <trkpt lat="40.821433" lon="-5.099683">
        <ele>2211.0</ele>
        <time>2018-07-14T14:30:32Z</time>
      </trkpt>
      <trkpt lat="40.821500" lon="-5.099733">
        <ele>2209.0</ele>
        <time>2018-07-14T14:30:33Z</time>
      </trkpt>
      <trkpt lat="40.821567" lon="-5.099783">
        <ele>2207.0</ele>
        <time>2018-07-14T14:30:34Z</time>
      </trkpt>
      <trkpt lat="40.821650" lon="-5.099850">
        <ele>2204.0</ele>
        <time>2018-07-14T14:30:35Z</time>
      </trkpt>
      <trkpt lat="40.821733" lon="-5.099900">
        <ele>2202.0</ele>
        <time>2018-07-14T14:30:36Z</time>
      </trkpt>
      <trkpt lat="40.821800" lon="-5.099967">
        <ele>2199.0</ele>
        <time>2018-07-14T14:30:37Z</time>
      </trkpt>
      <trkpt lat="40.821883" lon="-5.100033">
        <ele>2196.0</ele>
        <time>2018-07-14T14:30:38Z</time>
      </trkpt>
      <trkpt lat="40.821950" lon="-5.100117">
        <ele>2193.0</ele>
        <time>2018-07-14T14:30:39Z</time>
      </trkpt>
      <trkpt lat="40.822017" lon="-5.100200">
        <ele>2190.0</ele>
        <time>2018-07-14T14:30:40Z</time>
      </trkpt>
      <trkpt lat="40.822083" lon="-5.100283">
        <ele>2187.0</ele>
        <time>2018-07-14T14:30:41Z</time>
      </trkpt>
      <trkpt lat="40.822283" lon="-5.100500">
        <ele>2179.0</ele>
        <time>2018-07-14T14:30:44Z</time>
      </trkpt>
      <trkpt lat="40.822350" lon="-5.100583">
        <ele>2177.0</ele>
        <time>2018-07-14T14:30:45Z</time>
      </trkpt>
      <trkpt lat="40.822417" lon="-5.100667">
        <ele>2174.0</ele>
        <time>2018-07-14T14:30:46Z</time>
      </trkpt>
      <trkpt lat="40.822500" lon="-5.100767">
        <ele>2171.0</ele>
        <time>2018-07-14T14:30:47Z</time>
      </trkpt>
      <trkpt lat="40.822567" lon="-5.100867">
        <ele>2169.0</ele>
        <time>2018-07-14T14:30:48Z</time>
      </trkpt>
      <trkpt lat="40.822650" lon="-5.100933">
        <ele>2168.0</ele>
        <time>2018-07-14T14:30:49Z</time>
      </trkpt>
      <trkpt lat="40.822717" lon="-5.100983">
        <ele>2166.0</ele>
        <time>2018-07-14T14:30:50Z</time>
      </trkpt>
      <trkpt lat="40.822783" lon="-5.101050">
        <ele>2165.0</ele>
        <time>2018-07-14T14:30:51Z</time>
      </trkpt>
      <trkpt lat="40.822867" lon="-5.101100">
        <ele>2163.0</ele>
        <time>2018-07-14T14:30:52Z</time>
      </trkpt>
      <trkpt lat="40.822933" lon="-5.101183">
        <ele>2161.0</ele>
        <time>2018-07-14T14:30:53Z</time>
      </trkpt>
      <trkpt lat="40.823000" lon="-5.101250">
        <ele>2159.0</ele>
        <time>2018-07-14T14:30:54Z</time>
      </trkpt>
      <trkpt lat="40.823067" lon="-5.101333">
        <ele>2157.0</ele>
        <time>2018-07-14T14:30:55Z</time>
      </trkpt>
      <trkpt lat="40.823133" lon="-5.101400">
        <ele>2155.0</ele>
        <time>2018-07-14T14:30:56Z</time>
      </trkpt>
      <trkpt lat="40.823200" lon="-5.101467">
        <ele>2153.0</ele>
        <time>2018-07-14T14:30:57Z</time>
      </trkpt>
      <trkpt lat="40.823283" lon="-5.101517">
        <ele>2150.0</ele>
        <time>2018-07-14T14:30:58Z</time>
      </trkpt>
      <trkpt lat="40.823350" lon="-5.101567">
        <ele>2147.0</ele>
        <time>2018-07-14T14:30:59Z</time>
      </trkpt>
      <trkpt lat="40.823433" lon="-5.101617">
        <ele>2144.0</ele>
        <time>2018-07-14T14:31:00Z</time>
      </trkpt>
      <trkpt lat="40.823517" lon="-5.101683">
        <ele>2141.0</ele>
        <time>2018-07-14T14:31:01Z</time>
      </trkpt>
      <trkpt lat="40.823600" lon="-5.101750">
        <ele>2138.0</ele>
        <time>2018-07-14T14:31:02Z</time>
      </trkpt>
      <trkpt lat="40.823667" lon="-5.101800">
        <ele>2136.0</ele>
        <time>2018-07-14T14:31:03Z</time>
      </trkpt>
      <trkpt lat="40.823733" lon="-5.101867">
        <ele>2134.0</ele>
        <time>2018-07-14T14:31:04Z</time>
      </trkpt>
      <trkpt lat="40.823817" lon="-5.101917">
        <ele>2138.0</ele>
        <time>2018-07-14T14:31:05Z</time>
      </trkpt>
      <trkpt lat="40.823883" lon="-5.101967">
        <ele>2137.0</ele>
        <time>2018-07-14T14:31:06Z</time>
      </trkpt>
      <trkpt lat="40.823950" lon="-5.102017">
        <ele>2136.0</ele>
        <time>2018-07-14T14:31:07Z</time>
      </trkpt>
      <trkpt lat="40.824017" lon="-5.102083">
        <ele>2135.0</ele>
        <time>2018-07-14T14:31:08Z</time>
      </trkpt>
      <trkpt lat="40.824100" lon="-5.102133">
        <ele>2134.0</ele>
        <time>2018-07-14T14:31:09Z</time>
      </trkpt>
      <trkpt lat="40.824167" lon="-5.102183">
        <ele>2132.0</ele>
        <time>2018-07-14T14:31:10Z</time>
      </trkpt>
      <trkpt lat="40.824233" lon="-5.102250">
        <ele>2131.0</ele>
        <time>2018-07-14T14:31:11Z</time>
      </trkpt>
      <trkpt lat="40.824300" lon="-5.102283">
        <ele>2128.0</ele>
        <time>2018-07-14T14:31:12Z</time>
      </trkpt>
      <trkpt lat="40.824367" lon="-5.102333">
        <ele>2125.0</ele>
        <time>2018-07-14T14:31:13Z</time>
      </trkpt>
      <trkpt lat="40.824433" lon="-5.102383">
        <ele>2123.0</ele>
        <time>2018-07-14T14:31:14Z</time>
      </trkpt>
      <trkpt lat="40.824517" lon="-5.102433">
        <ele>2120.0</ele>
        <time>2018-07-14T14:31:15Z</time>
      </trkpt>
      <trkpt lat="40.824600" lon="-5.102483">
        <ele>2117.0</ele>
        <time>2018-07-14T14:31:16Z</time>
      </trkpt>
      <trkpt lat="40.824683" lon="-5.102533">
        <ele>2115.0</ele>
        <time>2018-07-14T14:31:17Z</time>
      </trkpt>
      <trkpt lat="40.824733" lon="-5.102583">
        <ele>2113.0</ele>
        <time>2018-07-14T14:31:18Z</time>
      </trkpt>
      <trkpt lat="40.824800" lon="-5.102633">
        <ele>2111.0</ele>
        <time>2018-07-14T14:31:19Z</time>
      </trkpt>
      <trkpt lat="40.824867" lon="-5.102667">
        <ele>2109.0</ele>
        <time>2018-07-14T14:31:20Z</time>
      </trkpt>
      <trkpt lat="40.824950" lon="-5.102717">
        <ele>2107.0</ele>
        <time>2018-07-14T14:31:21Z</time>
      </trkpt>
      <trkpt lat="40.825017" lon="-5.102767">
        <ele>2105.0</ele>
        <time>2018-07-14T14:31:22Z</time>
      </trkpt>
      <trkpt lat="40.825100" lon="-5.102817">
        <ele>2102.0</ele>
        <time>2018-07-14T14:31:23Z</time>
      </trkpt>
      <trkpt lat="40.825167" lon="-5.102867">
        <ele>2100.0</ele>
        <time>2018-07-14T14:31:24Z</time>
      </trkpt>
      <trkpt lat="40.825250" lon="-5.102933">
        <ele>2097.0</ele>
        <time>2018-07-14T14:31:25Z</time>
      </trkpt>
      <trkpt lat="40.825333" lon="-5.103000">
        <ele>2097.0</ele>
        <time>2018-07-14T14:31:26Z</time>
      </trkpt>
      <trkpt lat="40.825400" lon="-5.103050">
        <ele>2098.0</ele>
        <time>2018-07-14T14:31:27Z</time>
      </trkpt>
      <trkpt lat="40.825467" lon="-5.103100">
        <ele>2098.0</ele>
        <time>2018-07-14T14:31:28Z</time>
      </trkpt>
      <trkpt lat="40.825517" lon="-5.103133">
        <ele>2097.0</ele>
        <time>2018-07-14T14:31:29Z</time>
      </trkpt>
      <trkpt lat="40.825567" lon="-5.103167">
        <ele>2096.0</ele>
        <time>2018-07-14T14:31:30Z</time>
      </trkpt>
      <trkpt lat="40.825633" lon="-5.103217">
        <ele>2094.0</ele>
        <time>2018-07-14T14:31:31Z</time>
      </trkpt>
      <trkpt lat="40.825700" lon="-5.103267">
        <ele>2091.0</ele>
        <time>2018-07-14T14:31:32Z</time>
      </trkpt>
      <trkpt lat="40.825783" lon="-5.103317">
        <ele>2089.0</ele>
        <time>2018-07-14T14:31:33Z</time>
      </trkpt>
      <trkpt lat="40.825850" lon="-5.103367">
        <ele>2087.0</ele>
        <time>2018-07-14T14:31:34Z</time>
      </trkpt>
      <trkpt lat="40.825917" lon="-5.103417">
        <ele>2085.0</ele>
        <time>2018-07-14T14:31:35Z</time>
      </trkpt>
      <trkpt lat="40.825983" lon="-5.103450">
        <ele>2083.0</ele>
        <time>2018-07-14T14:31:36Z</time>
      </trkpt>
      <trkpt lat="40.826050" lon="-5.103517">
        <ele>2079.0</ele>
        <time>2018-07-14T14:31:37Z</time>
      </trkpt>
      <trkpt lat="40.826117" lon="-5.103583">
        <ele>2075.0</ele>
        <time>2018-07-14T14:31:38Z</time>
      </trkpt>
      <trkpt lat="40.826183" lon="-5.103650">
        <ele>2071.0</ele>
        <time>2018-07-14T14:31:39Z</time>
      </trkpt>
      <trkpt lat="40.826250" lon="-5.103717">
        <ele>2068.0</ele>
        <time>2018-07-14T14:31:40Z</time>
      </trkpt>
      <trkpt lat="40.826317" lon="-5.103767">
        <ele>2066.0</ele>
        <time>2018-07-14T14:31:41Z</time>
      </trkpt>
      <trkpt lat="40.826383" lon="-5.103800">
        <ele>2065.0</ele>
        <time>2018-07-14T14:31:42Z</time>
      </trkpt>
      <trkpt lat="40.826450" lon="-5.103850">
        <ele>2063.0</ele>
        <time>2018-07-14T14:31:43Z</time>
      </trkpt>
      <trkpt lat="40.826517" lon="-5.103917">
        <ele>2061.0</ele>
        <time>2018-07-14T14:31:44Z</time>
      </trkpt>
      <trkpt lat="40.826567" lon="-5.103983">
        <ele>2058.0</ele>
        <time>2018-07-14T14:31:45Z</time>
      </trkpt>
      <trkpt lat="40.826650" lon="-5.104050">
        <ele>2055.0</ele>
        <time>2018-07-14T14:31:46Z</time>
      </trkpt>
      <trkpt lat="40.826733" lon="-5.104117">
        <ele>2053.0</ele>
        <time>2018-07-14T14:31:47Z</time>
      </trkpt>
      <trkpt lat="40.826817" lon="-5.104167">
        <ele>2051.0</ele>
        <time>2018-07-14T14:31:48Z</time>
      </trkpt>
      <trkpt lat="40.826900" lon="-5.104217">
        <ele>2050.0</ele>
        <time>2018-07-14T14:31:49Z</time>
      </trkpt>
      <trkpt lat="40.826983" lon="-5.104267">
        <ele>2049.0</ele>
        <time>2018-07-14T14:31:50Z</time>
      </trkpt>
      <trkpt lat="40.827050" lon="-5.104317">
        <ele>2048.0</ele>
        <time>2018-07-14T14:31:51Z</time>
      </trkpt>
      <trkpt lat="40.827133" lon="-5.104350">
        <ele>2047.0</ele>
        <time>2018-07-14T14:31:52Z</time>
      </trkpt>
      <trkpt lat="40.827217" lon="-5.104400">
        <ele>2045.0</ele>
        <time>2018-07-14T14:31:53Z</time>
      </trkpt>
      <trkpt lat="40.827300" lon="-5.104433">
        <ele>2042.0</ele>
        <time>2018-07-14T14:31:54Z</time>
      </trkpt>
      <trkpt lat="40.827383" lon="-5.104467">
        <ele>2040.0</ele>
        <time>2018-07-14T14:31:55Z</time>
      </trkpt>
      <trkpt lat="40.827467" lon="-5.104483">
        <ele>2037.0</ele>
        <time>2018-07-14T14:31:56Z</time>
      </trkpt>
      <trkpt lat="40.827550" lon="-5.104517">
        <ele>2033.0</ele>
        <time>2018-07-14T14:31:57Z</time>
      </trkpt>
      <trkpt lat="40.827633" lon="-5.104550">
        <ele>2030.0</ele>
        <time>2018-07-14T14:31:58Z</time>
      </trkpt>
      <trkpt lat="40.827700" lon="-5.104583">
        <ele>2027.0</ele>
        <time>2018-07-14T14:31:59Z</time>
      </trkpt>
      <trkpt lat="40.827750" lon="-5.104617">
        <ele>2024.0</ele>
        <time>2018-07-14T14:32:00Z</time>
      </trkpt>
      <trkpt lat="40.827833" lon="-5.104667">
        <ele>2020.0</ele>
        <time>2018-07-14T14:32:01Z</time>
      </trkpt>
      <trkpt lat="40.827900" lon="-5.104717">
        <ele>2016.0</ele>
        <time>2018-07-14T14:32:02Z</time>
      </trkpt>
      <trkpt lat="40.827983" lon="-5.104750">
        <ele>2012.0</ele>
        <time>2018-07-14T14:32:03Z</time>
      </trkpt>
      <trkpt lat="40.828050" lon="-5.104800">
        <ele>2008.0</ele>
        <time>2018-07-14T14:32:04Z</time>
      </trkpt>
      <trkpt lat="40.828117" lon="-5.104850">
        <ele>2005.0</ele>
        <time>2018-07-14T14:32:05Z</time>
      </trkpt>
      <trkpt lat="40.828200" lon="-5.104883">
        <ele>2002.0</ele>
        <time>2018-07-14T14:32:06Z</time>
      </trkpt>
      <trkpt lat="40.828267" lon="-5.104917">
        <ele>1998.0</ele>
        <time>2018-07-14T14:32:07Z</time>
      </trkpt>
      <trkpt lat="40.828350" lon="-5.104967">
        <ele>1995.0</ele>
        <time>2018-07-14T14:32:08Z</time>
      </trkpt>
      <trkpt lat="40.828417" lon="-5.105000">
        <ele>1991.0</ele>
        <time>2018-07-14T14:32:09Z</time>
      </trkpt>
      <trkpt lat="40.828500" lon="-5.105050">
        <ele>1987.0</ele>
        <time>2018-07-14T14:32:10Z</time>
      </trkpt>
      <trkpt lat="40.828600" lon="-5.105083">
        <ele>1984.0</ele>
        <time>2018-07-14T14:32:11Z</time>
      </trkpt>
      <trkpt lat="40.828683" lon="-5.105133">
        <ele>1980.0</ele>
        <time>2018-07-14T14:32:12Z</time>
      </trkpt>
      <trkpt lat="40.828767" lon="-5.105183">
        <ele>1976.0</ele>
        <time>2018-07-14T14:32:13Z</time>
      </trkpt>
      <trkpt lat="40.828850" lon="-5.105233">
        <ele>1971.0</ele>
        <time>2018-07-14T14:32:14Z</time>
      </trkpt>
      <trkpt lat="40.828950" lon="-5.105283">
        <ele>1966.0</ele>
        <time>2018-07-14T14:32:15Z</time>
      </trkpt>
      <trkpt lat="40.829033" lon="-5.105333">
        <ele>1961.0</ele>
        <time>2018-07-14T14:32:16Z</time>
      </trkpt>
      <trkpt lat="40.829133" lon="-5.105383">
        <ele>1956.0</ele>
        <time>2018-07-14T14:32:17Z</time>
      </trkpt>
      <trkpt lat="40.829217" lon="-5.105433">
        <ele>1950.0</ele>
        <time>2018-07-14T14:32:18Z</time>
      </trkpt>
      <trkpt lat="40.829317" lon="-5.105483">
        <ele>1944.0</ele>
        <time>2018-07-14T14:32:19Z</time>
      </trkpt>
      <trkpt lat="40.829417" lon="-5.105533">
        <ele>1938.0</ele>
        <time>2018-07-14T14:32:20Z</time>
      </trkpt>
      <trkpt lat="40.829517" lon="-5.105567">
        <ele>1934.0</ele>
        <time>2018-07-14T14:32:21Z</time>
      </trkpt>
      <trkpt lat="40.829617" lon="-5.105617">
        <ele>1929.0</ele>
        <time>2018-07-14T14:32:22Z</time>
      </trkpt>
      <trkpt lat="40.829733" lon="-5.105650">
        <ele>1925.0</ele>
        <time>2018-07-14T14:32:23Z</time>
      </trkpt>
      <trkpt lat="40.829833" lon="-5.105700">
        <ele>1921.0</ele>
        <time>2018-07-14T14:32:24Z</time>
      </trkpt>
      <trkpt lat="40.830033" lon="-5.105833">
        <ele>1911.0</ele>
        <time>2018-07-14T14:32:26Z</time>
      </trkpt>
      <trkpt lat="40.830150" lon="-5.105900">
        <ele>1906.0</ele>
        <time>2018-07-14T14:32:27Z</time>
      </trkpt>
      <trkpt lat="40.830267" lon="-5.105967">
        <ele>1902.0</ele>
        <time>2018-07-14T14:32:28Z</time>
      </trkpt>
      <trkpt lat="40.830383" lon="-5.106050">
        <ele>1898.0</ele>
        <time>2018-07-14T14:32:29Z</time>
      </trkpt>
      <trkpt lat="40.830500" lon="-5.106133">
        <ele>1893.0</ele>
        <time>2018-07-14T14:32:30Z</time>
      </trkpt>
      <trkpt lat="40.830617" lon="-5.106217">
        <ele>1889.0</ele>
        <time>2018-07-14T14:32:31Z</time>
      </trkpt>
      <trkpt lat="40.830733" lon="-5.106283">
        <ele>1886.0</ele>
        <time>2018-07-14T14:32:32Z</time>
      </trkpt>
      <trkpt lat="40.830850" lon="-5.106350">
        <ele>1883.0</ele>
        <time>2018-07-14T14:32:33Z</time>
      </trkpt>
      <trkpt lat="40.830967" lon="-5.106417">
        <ele>1881.0</ele>
        <time>2018-07-14T14:32:34Z</time>
      </trkpt>
      <trkpt lat="40.831067" lon="-5.106450">
        <ele>1881.0</ele>
        <time>2018-07-14T14:32:35Z</time>
      </trkpt>
      <trkpt lat="40.831167" lon="-5.106467">
        <ele>1880.0</ele>
        <time>2018-07-14T14:32:36Z</time>
      </trkpt>
      <trkpt lat="40.831267" lon="-5.106517">
        <ele>1879.0</ele>
        <time>2018-07-14T14:32:37Z</time>
      </trkpt>
      <trkpt lat="40.831383" lon="-5.106550">
        <ele>1878.0</ele>
        <time>2018-07-14T14:32:38Z</time>
      </trkpt>
      <trkpt lat="40.831500" lon="-5.106583">
        <ele>1876.0</ele>
        <time>2018-07-14T14:32:39Z</time>
      </trkpt>
      <trkpt lat="40.831617" lon="-5.106633">
        <ele>1876.0</ele>
        <time>2018-07-14T14:32:40Z</time>
      </trkpt>
      <trkpt lat="40.831733" lon="-5.106667">
        <ele>1875.0</ele>
        <time>2018-07-14T14:32:41Z</time>
      </trkpt>
      <trkpt lat="40.831833" lon="-5.106717">
        <ele>1875.0</ele>
        <time>2018-07-14T14:32:42Z</time>
      </trkpt>
      <trkpt lat="40.831933" lon="-5.106767">
        <ele>1875.0</ele>
        <time>2018-07-14T14:32:43Z</time>
      </trkpt>
      <trkpt lat="40.832033" lon="-5.106833">
        <ele>1875.0</ele>
        <time>2018-07-14T14:32:44Z</time>
      </trkpt>
      <trkpt lat="40.832150" lon="-5.106883">
        <ele>1875.0</ele>
        <time>2018-07-14T14:32:45Z</time>
      </trkpt>
      <trkpt lat="40.832250" lon="-5.106917">
        <ele>1876.0</ele>
        <time>2018-07-14T14:32:46Z</time>
      </trkpt>
      <trkpt lat="40.832350" lon="-5.106950">
        <ele>1877.0</ele>
        <time>2018-07-14T14:32:47Z</time>
      </trkpt>
      <trkpt lat="40.832450" lon="-5.106983">
        <ele>1877.0</ele>
        <time>2018-07-14T14:32:48Z</time>
      </trkpt>
      <trkpt lat="40.832550" lon="-5.107017">
        <ele>1877.0</ele>
        <time>2018-07-14T14:32:49Z</time>
      </trkpt>
      <trkpt lat="40.832667" lon="-5.107033">
        <ele>1877.0</ele>
        <time>2018-07-14T14:32:50Z</time>
      </trkpt>
      <trkpt lat="40.832767" lon="-5.107067">
        <ele>1877.0</ele>
        <time>2018-07-14T14:32:51Z</time>
      </trkpt>
      <trkpt lat="40.832883" lon="-5.107100">
        <ele>1877.0</ele>
        <time>2018-07-14T14:32:52Z</time>
      </trkpt>
      <trkpt lat="40.832983" lon="-5.107133">
        <ele>1877.0</ele>
        <time>2018-07-14T14:32:53Z</time>
      </trkpt>
      <trkpt lat="40.833067" lon="-5.107167">
        <ele>1878.0</ele>
        <time>2018-07-14T14:32:54Z</time>
      </trkpt>
      <trkpt lat="40.833167" lon="-5.107200">
        <ele>1878.0</ele>
        <time>2018-07-14T14:32:55Z</time>
      </trkpt>
      <trkpt lat="40.833267" lon="-5.107233">
        <ele>1878.0</ele>
        <time>2018-07-14T14:32:56Z</time>
      </trkpt>
      <trkpt lat="40.833367" lon="-5.107267">
        <ele>1877.0</ele>
        <time>2018-07-14T14:32:57Z</time>
      </trkpt>
      <trkpt lat="40.833467" lon="-5.107300">
        <ele>1877.0</ele>
        <time>2018-07-14T14:32:58Z</time>
      </trkpt>
      <trkpt lat="40.833567" lon="-5.107317">
        <ele>1877.0</ele>
        <time>2018-07-14T14:32:59Z</time>
      </trkpt>
      <trkpt lat="40.833667" lon="-5.107333">
        <ele>1878.0</ele>
        <time>2018-07-14T14:33:00Z</time>
      </trkpt>
      <trkpt lat="40.833767" lon="-5.107333">
        <ele>1877.0</ele>
        <time>2018-07-14T14:33:01Z</time>
      </trkpt>
      <trkpt lat="40.833867" lon="-5.107350">
        <ele>1877.0</ele>
        <time>2018-07-14T14:33:02Z</time>
      </trkpt>
      <trkpt lat="40.833967" lon="-5.107350">
        <ele>1876.0</ele>
        <time>2018-07-14T14:33:03Z</time>
      </trkpt>
      <trkpt lat="40.834067" lon="-5.107367">
        <ele>1876.0</ele>
        <time>2018-07-14T14:33:04Z</time>
      </trkpt>
      <trkpt lat="40.834150" lon="-5.107367">
        <ele>1875.0</ele>
        <time>2018-07-14T14:33:05Z</time>
      </trkpt>
      <trkpt lat="40.834250" lon="-5.107383">
        <ele>1874.0</ele>
        <time>2018-07-14T14:33:06Z</time>
      </trkpt>
      <trkpt lat="40.834333" lon="-5.107400">
        <ele>1872.0</ele>
        <time>2018-07-14T14:33:07Z</time>
      </trkpt>
      <trkpt lat="40.834433" lon="-5.107433">
        <ele>1871.0</ele>
        <time>2018-07-14T14:33:08Z</time>
      </trkpt>
      <trkpt lat="40.834533" lon="-5.107467">
        <ele>1870.0</ele>
        <time>2018-07-14T14:33:09Z</time>
      </trkpt>
      <trkpt lat="40.834617" lon="-5.107483">
        <ele>1870.0</ele>
        <time>2018-07-14T14:33:10Z</time>
      </trkpt>
      <trkpt lat="40.834700" lon="-5.107517">
        <ele>1869.0</ele>
        <time>2018-07-14T14:33:11Z</time>
      </trkpt>
      <trkpt lat="40.834783" lon="-5.107533">
        <ele>1868.0</ele>
        <time>2018-07-14T14:33:12Z</time>
      </trkpt>
      <trkpt lat="40.834883" lon="-5.107567">
        <ele>1867.0</ele>
        <time>2018-07-14T14:33:13Z</time>
      </trkpt>
      <trkpt lat="40.834967" lon="-5.107617">
        <ele>1866.0</ele>
        <time>2018-07-14T14:33:14Z</time>
      </trkpt>
      <trkpt lat="40.835050" lon="-5.107633">
        <ele>1865.0</ele>
        <time>2018-07-14T14:33:15Z</time>
      </trkpt>
      <trkpt lat="40.835117" lon="-5.107650">
        <ele>1864.0</ele>
        <time>2018-07-14T14:33:16Z</time>
      </trkpt>
      <trkpt lat="40.835200" lon="-5.107667">
        <ele>1864.0</ele>
        <time>2018-07-14T14:33:17Z</time>
      </trkpt>
      <trkpt lat="40.835267" lon="-5.107683">
        <ele>1863.0</ele>
        <time>2018-07-14T14:33:18Z</time>
      </trkpt>
      <trkpt lat="40.835367" lon="-5.107700">
        <ele>1862.0</ele>
        <time>2018-07-14T14:33:19Z</time>
      </trkpt>
      <trkpt lat="40.835450" lon="-5.107717">
        <ele>1861.0</ele>
        <time>2018-07-14T14:33:20Z</time>
      </trkpt>
      <trkpt lat="40.835533" lon="-5.107750">
        <ele>1861.0</ele>
        <time>2018-07-14T14:33:21Z</time>
      </trkpt>
      <trkpt lat="40.835600" lon="-5.107767">
        <ele>1861.0</ele>
        <time>2018-07-14T14:33:22Z</time>
      </trkpt>
      <trkpt lat="40.835667" lon="-5.107800">
        <ele>1861.0</ele>
        <time>2018-07-14T14:33:23Z</time>
      </trkpt>
      <trkpt lat="40.835733" lon="-5.107833">
        <ele>1861.0</ele>
        <time>2018-07-14T14:33:24Z</time>
      </trkpt>
      <trkpt lat="40.835883" lon="-5.107883">
        <ele>1860.0</ele>
        <time>2018-07-14T14:33:26Z</time>
      </trkpt>
      <trkpt lat="40.835950" lon="-5.107900">
        <ele>1860.0</ele>
        <time>2018-07-14T14:33:27Z</time>
      </trkpt>
      <trkpt lat="40.836000" lon="-5.107917">
        <ele>1859.0</ele>
        <time>2018-07-14T14:33:28Z</time>
      </trkpt>
      <trkpt lat="40.836083" lon="-5.107950">
        <ele>1856.0</ele>
        <time>2018-07-14T14:33:29Z</time>
      </trkpt>
      <trkpt lat="40.836167" lon="-5.107967">
        <ele>1852.0</ele>
        <time>2018-07-14T14:33:30Z</time>
      </trkpt>
      <trkpt lat="40.836250" lon="-5.108000">
        <ele>1848.0</ele>
        <time>2018-07-14T14:33:31Z</time>
      </trkpt>
      <trkpt lat="40.836317" lon="-5.108033">
        <ele>1846.0</ele>
        <time>2018-07-14T14:33:32Z</time>
      </trkpt>
      <trkpt lat="40.836400" lon="-5.108050">
        <ele>1844.0</ele>
        <time>2018-07-14T14:33:33Z</time>
      </trkpt>
      <trkpt lat="40.836483" lon="-5.108067">
        <ele>1842.0</ele>
        <time>2018-07-14T14:33:34Z</time>
      </trkpt>
      <trkpt lat="40.836583" lon="-5.108083">
        <ele>1840.0</ele>
        <time>2018-07-14T14:33:35Z</time>
      </trkpt>
      <trkpt lat="40.836667" lon="-5.108100">
        <ele>1837.0</ele>
        <time>2018-07-14T14:33:36Z</time>
      </trkpt>
      <trkpt lat="40.836750" lon="-5.108117">
        <ele>1835.0</ele>
        <time>2018-07-14T14:33:37Z</time>
      </trkpt>
      <trkpt lat="40.836850" lon="-5.108133">
        <ele>1834.0</ele>
        <time>2018-07-14T14:33:38Z</time>
      </trkpt>
      <trkpt lat="40.836933" lon="-5.108150">
        <ele>1833.0</ele>
        <time>2018-07-14T14:33:39Z</time>
      </trkpt>
      <trkpt lat="40.837017" lon="-5.108183">
        <ele>1833.0</ele>
        <time>2018-07-14T14:33:40Z</time>
      </trkpt>
      <trkpt lat="40.837083" lon="-5.108200">
        <ele>1832.0</ele>
        <time>2018-07-14T14:33:41Z</time>
      </trkpt>
      <trkpt lat="40.837150" lon="-5.108233">
        <ele>1832.0</ele>
        <time>2018-07-14T14:33:42Z</time>
      </trkpt>
      <trkpt lat="40.837217" lon="-5.108267">
        <ele>1830.0</ele>
        <time>2018-07-14T14:33:43Z</time>
      </trkpt>
      <trkpt lat="40.837300" lon="-5.108300">
        <ele>1829.0</ele>
        <time>2018-07-14T14:33:44Z</time>
      </trkpt>
      <trkpt lat="40.837367" lon="-5.108317">
        <ele>1827.0</ele>
        <time>2018-07-14T14:33:45Z</time>
      </trkpt>
      <trkpt lat="40.837450" lon="-5.108350">
        <ele>1825.0</ele>
        <time>2018-07-14T14:33:46Z</time>
      </trkpt>
      <trkpt lat="40.837517" lon="-5.108367">
        <ele>1823.0</ele>
        <time>2018-07-14T14:33:47Z</time>
      </trkpt>
      <trkpt lat="40.837600" lon="-5.108400">
        <ele>1820.0</ele>
        <time>2018-07-14T14:33:48Z</time>
      </trkpt>
      <trkpt lat="40.837683" lon="-5.108433">
        <ele>1818.0</ele>
        <time>2018-07-14T14:33:49Z</time>
      </trkpt>
      <trkpt lat="40.837750" lon="-5.108467">
        <ele>1816.0</ele>
        <time>2018-07-14T14:33:50Z</time>
      </trkpt>
      <trkpt lat="40.837817" lon="-5.108483">
        <ele>1814.0</ele>
        <time>2018-07-14T14:33:51Z</time>
      </trkpt>
      <trkpt lat="40.837883" lon="-5.108500">
        <ele>1813.0</ele>
        <time>2018-07-14T14:33:52Z</time>
      </trkpt>
      <trkpt lat="40.837967" lon="-5.108500">
        <ele>1811.0</ele>
        <time>2018-07-14T14:33:53Z</time>
      </trkpt>
      <trkpt lat="40.838050" lon="-5.108517">
        <ele>1808.0</ele>
        <time>2018-07-14T14:33:54Z</time>
      </trkpt>
      <trkpt lat="40.838133" lon="-5.108533">
        <ele>1805.0</ele>
        <time>2018-07-14T14:33:55Z</time>
      </trkpt>
      <trkpt lat="40.838217" lon="-5.108550">
        <ele>1803.0</ele>
        <time>2018-07-14T14:33:56Z</time>
      </trkpt>
      <trkpt lat="40.838283" lon="-5.108567">
        <ele>1801.0</ele>
        <time>2018-07-14T14:33:57Z</time>
      </trkpt>
      <trkpt lat="40.838367" lon="-5.108583">
        <ele>1799.0</ele>
        <time>2018-07-14T14:33:58Z</time>
      </trkpt>
      <trkpt lat="40.838433" lon="-5.108617">
        <ele>1797.0</ele>
        <time>2018-07-14T14:33:59Z</time>
      </trkpt>
      <trkpt lat="40.838517" lon="-5.108633">
        <ele>1795.0</ele>
        <time>2018-07-14T14:34:00Z</time>
      </trkpt>
      <trkpt lat="40.838583" lon="-5.108650">
        <ele>1794.0</ele>
        <time>2018-07-14T14:34:01Z</time>
      </trkpt>
      <trkpt lat="40.838667" lon="-5.108667">
        <ele>1792.0</ele>
        <time>2018-07-14T14:34:02Z</time>
      </trkpt>
      <trkpt lat="40.838733" lon="-5.108700">
        <ele>1789.0</ele>
        <time>2018-07-14T14:34:03Z</time>
      </trkpt>
      <trkpt lat="40.838783" lon="-5.108717">
        <ele>1787.0</ele>
        <time>2018-07-14T14:34:04Z</time>
      </trkpt>
      <trkpt lat="40.838850" lon="-5.108733">
        <ele>1785.0</ele>
        <time>2018-07-14T14:34:05Z</time>
      </trkpt>
      <trkpt lat="40.838933" lon="-5.108750">
        <ele>1782.0</ele>
        <time>2018-07-14T14:34:06Z</time>
      </trkpt>
      <trkpt lat="40.839000" lon="-5.108767">
        <ele>1779.0</ele>
        <time>2018-07-14T14:34:07Z</time>
      </trkpt>
      <trkpt lat="40.839083" lon="-5.108800">
        <ele>1776.0</ele>
        <time>2018-07-14T14:34:08Z</time>
      </trkpt>
      <trkpt lat="40.839150" lon="-5.108833">
        <ele>1773.0</ele>
        <time>2018-07-14T14:34:09Z</time>
      </trkpt>
      <trkpt lat="40.839217" lon="-5.108867">
        <ele>1770.0</ele>
        <time>2018-07-14T14:34:10Z</time>
      </trkpt>
      <trkpt lat="40.839283" lon="-5.108883">
        <ele>1768.0</ele>
        <time>2018-07-14T14:34:11Z</time>
      </trkpt>
      <trkpt lat="40.839350" lon="-5.108917">
        <ele>1765.0</ele>
        <time>2018-07-14T14:34:12Z</time>
      </trkpt>
      <trkpt lat="40.839417" lon="-5.108933">
        <ele>1762.0</ele>
        <time>2018-07-14T14:34:13Z</time>
      </trkpt>
      <trkpt lat="40.839483" lon="-5.108967">
        <ele>1759.0</ele>
        <time>2018-07-14T14:34:14Z</time>
      </trkpt>
      <trkpt lat="40.839550" lon="-5.108983">
        <ele>1756.0</ele>
        <time>2018-07-14T14:34:15Z</time>
      </trkpt>
      <trkpt lat="40.839617" lon="-5.109000">
        <ele>1754.0</ele>
        <time>2018-07-14T14:34:16Z</time>
      </trkpt>
      <trkpt lat="40.839700" lon="-5.109033">
        <ele>1751.0</ele>
        <time>2018-07-14T14:34:17Z</time>
      </trkpt>
      <trkpt lat="40.839767" lon="-5.109050">
        <ele>1748.0</ele>
        <time>2018-07-14T14:34:18Z</time>
      </trkpt>
      <trkpt lat="40.839833" lon="-5.109083">
        <ele>1745.0</ele>
        <time>2018-07-14T14:34:19Z</time>
      </trkpt>
      <trkpt lat="40.839900" lon="-5.109117">
        <ele>1741.0</ele>
        <time>2018-07-14T14:34:20Z</time>
      </trkpt>
      <trkpt lat="40.839967" lon="-5.109150">
        <ele>1738.0</ele>
        <time>2018-07-14T14:34:21Z</time>
      </trkpt>
      <trkpt lat="40.840033" lon="-5.109183">
        <ele>1736.0</ele>
        <time>2018-07-14T14:34:22Z</time>
      </trkpt>
      <trkpt lat="40.840100" lon="-5.109200">
        <ele>1733.0</ele>
        <time>2018-07-14T14:34:23Z</time>
      </trkpt>
      <trkpt lat="40.840167" lon="-5.109233">
        <ele>1730.0</ele>
        <time>2018-07-14T14:34:24Z</time>
      </trkpt>
      <trkpt lat="40.840233" lon="-5.109267">
        <ele>1727.0</ele>
        <time>2018-07-14T14:34:25Z</time>
      </trkpt>
      <trkpt lat="40.840317" lon="-5.109317">
        <ele>1723.0</ele>
        <time>2018-07-14T14:34:26Z</time>
      </trkpt>
      <trkpt lat="40.840383" lon="-5.109350">
        <ele>1721.0</ele>
        <time>2018-07-14T14:34:27Z</time>
      </trkpt>
      <trkpt lat="40.840467" lon="-5.109367">
        <ele>1720.0</ele>
        <time>2018-07-14T14:34:28Z</time>
      </trkpt>
      <trkpt lat="40.840517" lon="-5.109400">
        <ele>1718.0</ele>
        <time>2018-07-14T14:34:29Z</time>
      </trkpt>
      <trkpt lat="40.840583" lon="-5.109417">
        <ele>1715.0</ele>
        <time>2018-07-14T14:34:30Z</time>
      </trkpt>
      <trkpt lat="40.840667" lon="-5.109450">
        <ele>1711.0</ele>
        <time>2018-07-14T14:34:31Z</time>
      </trkpt>
      <trkpt lat="40.840750" lon="-5.109483">
        <ele>1708.0</ele>
        <time>2018-07-14T14:34:32Z</time>
      </trkpt>
      <trkpt lat="40.840833" lon="-5.109533">
        <ele>1704.0</ele>
        <time>2018-07-14T14:34:33Z</time>
      </trkpt>
      <trkpt lat="40.840900" lon="-5.109550">
        <ele>1701.0</ele>
        <time>2018-07-14T14:34:34Z</time>
      </trkpt>
      <trkpt lat="40.840967" lon="-5.109583">
        <ele>1698.0</ele>
        <time>2018-07-14T14:34:35Z</time>
      </trkpt>
      <trkpt lat="40.841050" lon="-5.109617">
        <ele>1696.0</ele>
        <time>2018-07-14T14:34:36Z</time>
      </trkpt>
      <trkpt lat="40.841117" lon="-5.109650">
        <ele>1693.0</ele>
        <time>2018-07-14T14:34:37Z</time>
      </trkpt>
      <trkpt lat="40.841200" lon="-5.109683">
        <ele>1691.0</ele>
        <time>2018-07-14T14:34:38Z</time>
      </trkpt>
      <trkpt lat="40.841267" lon="-5.109717">
        <ele>1688.0</ele>
        <time>2018-07-14T14:34:39Z</time>
      </trkpt>
      <trkpt lat="40.841350" lon="-5.109750">
        <ele>1686.0</ele>
        <time>2018-07-14T14:34:40Z</time>
      </trkpt>
      <trkpt lat="40.841433" lon="-5.109783">
        <ele>1684.0</ele>
        <time>2018-07-14T14:34:41Z</time>
      </trkpt>
      <trkpt lat="40.841500" lon="-5.109833">
        <ele>1682.0</ele>
        <time>2018-07-14T14:34:42Z</time>
      </trkpt>
      <trkpt lat="40.841567" lon="-5.109883">
        <ele>1680.0</ele>
        <time>2018-07-14T14:34:43Z</time>
      </trkpt>
      <trkpt lat="40.841633" lon="-5.109917">
        <ele>1678.0</ele>
        <time>2018-07-14T14:34:44Z</time>
      </trkpt>
      <trkpt lat="40.841700" lon="-5.109967">
        <ele>1677.0</ele>
        <time>2018-07-14T14:34:45Z</time>
      </trkpt>
      <trkpt lat="40.841783" lon="-5.109983">
        <ele>1675.0</ele>
        <time>2018-07-14T14:34:46Z</time>
      </trkpt>
      <trkpt lat="40.841850" lon="-5.110033">
        <ele>1672.0</ele>
        <time>2018-07-14T14:34:47Z</time>
      </trkpt>
      <trkpt lat="40.841917" lon="-5.110083">
        <ele>1670.0</ele>
        <time>2018-07-14T14:34:48Z</time>
      </trkpt>
      <trkpt lat="40.841983" lon="-5.110117">
        <ele>1667.0</ele>
        <time>2018-07-14T14:34:49Z</time>
      </trkpt>
      <trkpt lat="40.842050" lon="-5.110167">
        <ele>1664.0</ele>
        <time>2018-07-14T14:34:50Z</time>
      </trkpt>
      <trkpt lat="40.842117" lon="-5.110200">
        <ele>1661.0</ele>
        <time>2018-07-14T14:34:51Z</time>
      </trkpt>
      <trkpt lat="40.842183" lon="-5.110233">
        <ele>1658.0</ele>
        <time>2018-07-14T14:34:52Z</time>
      </trkpt>
      <trkpt lat="40.842267" lon="-5.110267">
        <ele>1655.0</ele>
        <time>2018-07-14T14:34:53Z</time>
      </trkpt>
      <trkpt lat="40.842333" lon="-5.110300">
        <ele>1651.0</ele>
        <time>2018-07-14T14:34:54Z</time>
      </trkpt>
      <trkpt lat="40.842417" lon="-5.110350">
        <ele>1648.0</ele>
        <time>2018-07-14T14:34:55Z</time>
      </trkpt>
      <trkpt lat="40.842500" lon="-5.110383">
        <ele>1645.0</ele>
        <time>2018-07-14T14:34:56Z</time>
      </trkpt>
      <trkpt lat="40.842583" lon="-5.110433">
        <ele>1642.0</ele>
        <time>2018-07-14T14:34:57Z</time>
      </trkpt>
      <trkpt lat="40.842650" lon="-5.110467">
        <ele>1640.0</ele>
        <time>2018-07-14T14:34:58Z</time>
      </trkpt>
      <trkpt lat="40.842733" lon="-5.110517">
        <ele>1637.0</ele>
        <time>2018-07-14T14:34:59Z</time>
      </trkpt>
      <trkpt lat="40.842800" lon="-5.110550">
        <ele>1635.0</ele>
        <time>2018-07-14T14:35:00Z</time>
      </trkpt>
      <trkpt lat="40.842883" lon="-5.110583">
        <ele>1633.0</ele>
        <time>2018-07-14T14:35:01Z</time>
      </trkpt>
      <trkpt lat="40.842967" lon="-5.110617">
        <ele>1631.0</ele>
        <time>2018-07-14T14:35:02Z</time>
      </trkpt>
      <trkpt lat="40.843050" lon="-5.110633">
        <ele>1629.0</ele>
        <time>2018-07-14T14:35:03Z</time>
      </trkpt>
      <trkpt lat="40.843133" lon="-5.110667">
        <ele>1627.0</ele>
        <time>2018-07-14T14:35:04Z</time>
      </trkpt>
      <trkpt lat="40.843217" lon="-5.110700">
        <ele>1625.0</ele>
        <time>2018-07-14T14:35:05Z</time>
      </trkpt>
      <trkpt lat="40.843317" lon="-5.110733">
        <ele>1622.0</ele>
        <time>2018-07-14T14:35:06Z</time>
      </trkpt>
      <trkpt lat="40.843400" lon="-5.110767">
        <ele>1620.0</ele>
        <time>2018-07-14T14:35:07Z</time>
      </trkpt>
      <trkpt lat="40.843483" lon="-5.110800">
        <ele>1618.0</ele>
        <time>2018-07-14T14:35:08Z</time>
      </trkpt>
      <trkpt lat="40.843583" lon="-5.110817">
        <ele>1616.0</ele>
        <time>2018-07-14T14:35:09Z</time>
      </trkpt>
      <trkpt lat="40.843667" lon="-5.110833">
        <ele>1614.0</ele>
        <time>2018-07-14T14:35:10Z</time>
      </trkpt>
      <trkpt lat="40.843750" lon="-5.110867">
        <ele>1612.0</ele>
        <time>2018-07-14T14:35:11Z</time>
      </trkpt>
      <trkpt lat="40.843833" lon="-5.110900">
        <ele>1610.0</ele>
        <time>2018-07-14T14:35:12Z</time>
      </trkpt>
      <trkpt lat="40.843933" lon="-5.110933">
        <ele>1607.0</ele>
        <time>2018-07-14T14:35:13Z</time>
      </trkpt>
      <trkpt lat="40.844017" lon="-5.110983">
        <ele>1604.0</ele>
        <time>2018-07-14T14:35:14Z</time>
      </trkpt>
      <trkpt lat="40.844117" lon="-5.111017">
        <ele>1603.0</ele>
        <time>2018-07-14T14:35:15Z</time>
      </trkpt>
      <trkpt lat="40.844217" lon="-5.111050">
        <ele>1601.0</ele>
        <time>2018-07-14T14:35:16Z</time>
      </trkpt>
      <trkpt lat="40.844317" lon="-5.111100">
        <ele>1599.0</ele>
        <time>2018-07-14T14:35:17Z</time>
      </trkpt>
      <trkpt lat="40.844417" lon="-5.111117">
        <ele>1598.0</ele>
        <time>2018-07-14T14:35:18Z</time>
      </trkpt>
      <trkpt lat="40.844533" lon="-5.111150">
        <ele>1596.0</ele>
        <time>2018-07-14T14:35:19Z</time>
      </trkpt>
      <trkpt lat="40.844633" lon="-5.111167">
        <ele>1595.0</ele>
        <time>2018-07-14T14:35:20Z</time>
      </trkpt>
      <trkpt lat="40.844733" lon="-5.111183">
        <ele>1593.0</ele>
        <time>2018-07-14T14:35:21Z</time>
      </trkpt>
      <trkpt lat="40.844983" lon="-5.111217">
        <ele>1590.0</ele>
        <time>2018-07-14T14:35:23Z</time>
      </trkpt>
      <trkpt lat="40.845117" lon="-5.111250">
        <ele>1588.0</ele>
        <time>2018-07-14T14:35:24Z</time>
      </trkpt>
      <trkpt lat="40.845233" lon="-5.111267">
        <ele>1586.0</ele>
        <time>2018-07-14T14:35:25Z</time>
      </trkpt>
      <trkpt lat="40.845383" lon="-5.111300">
        <ele>1584.0</ele>
        <time>2018-07-14T14:35:26Z</time>
      </trkpt>
      <trkpt lat="40.845517" lon="-5.111317">
        <ele>1583.0</ele>
        <time>2018-07-14T14:35:27Z</time>
      </trkpt>
      <trkpt lat="40.845650" lon="-5.111350">
        <ele>1582.0</ele>
        <time>2018-07-14T14:35:28Z</time>
      </trkpt>
      <trkpt lat="40.845783" lon="-5.111383">
        <ele>1581.0</ele>
        <time>2018-07-14T14:35:29Z</time>
      </trkpt>
      <trkpt lat="40.845917" lon="-5.111400">
        <ele>1580.0</ele>
        <time>2018-07-14T14:35:30Z</time>
      </trkpt>
      <trkpt lat="40.846033" lon="-5.111433">
        <ele>1580.0</ele>
        <time>2018-07-14T14:35:31Z</time>
      </trkpt>
      <trkpt lat="40.846167" lon="-5.111467">
        <ele>1580.0</ele>
        <time>2018-07-14T14:35:32Z</time>
      </trkpt>
      <trkpt lat="40.846300" lon="-5.111483">
        <ele>1580.0</ele>
        <time>2018-07-14T14:35:33Z</time>
      </trkpt>
      <trkpt lat="40.846433" lon="-5.111500">
        <ele>1580.0</ele>
        <time>2018-07-14T14:35:34Z</time>
      </trkpt>
      <trkpt lat="40.846567" lon="-5.111500">
        <ele>1580.0</ele>
        <time>2018-07-14T14:35:35Z</time>
      </trkpt>
      <trkpt lat="40.846683" lon="-5.111500">
        <ele>1581.0</ele>
        <time>2018-07-14T14:35:36Z</time>
      </trkpt>
      <trkpt lat="40.846800" lon="-5.111517">
        <ele>1580.0</ele>
        <time>2018-07-14T14:35:37Z</time>
      </trkpt>
      <trkpt lat="40.846917" lon="-5.111533">
        <ele>1579.0</ele>
        <time>2018-07-14T14:35:38Z</time>
      </trkpt>
      <trkpt lat="40.847050" lon="-5.111550">
        <ele>1578.0</ele>
        <time>2018-07-14T14:35:39Z</time>
      </trkpt>
      <trkpt lat="40.847183" lon="-5.111567">
        <ele>1577.0</ele>
        <time>2018-07-14T14:35:40Z</time>
      </trkpt>
      <trkpt lat="40.847317" lon="-5.111600">
        <ele>1577.0</ele>
        <time>2018-07-14T14:35:41Z</time>
      </trkpt>
      <trkpt lat="40.847433" lon="-5.111617">
        <ele>1578.0</ele>
        <time>2018-07-14T14:35:42Z</time>
      </trkpt>
      <trkpt lat="40.847550" lon="-5.111633">
        <ele>1579.0</ele>
        <time>2018-07-14T14:35:43Z</time>
      </trkpt>
      <trkpt lat="40.847650" lon="-5.111667">
        <ele>1580.0</ele>
        <time>2018-07-14T14:35:44Z</time>
      </trkpt>
      <trkpt lat="40.847767" lon="-5.111683">
        <ele>1580.0</ele>
        <time>2018-07-14T14:35:45Z</time>
      </trkpt>
      <trkpt lat="40.847900" lon="-5.111717">
        <ele>1579.0</ele>
        <time>2018-07-14T14:35:46Z</time>
      </trkpt>
      <trkpt lat="40.848017" lon="-5.111733">
        <ele>1579.0</ele>
        <time>2018-07-14T14:35:47Z</time>
      </trkpt>
      <trkpt lat="40.848133" lon="-5.111767">
        <ele>1579.0</ele>
        <time>2018-07-14T14:35:48Z</time>
      </trkpt>
      <trkpt lat="40.848250" lon="-5.111783">
        <ele>1580.0</ele>
        <time>2018-07-14T14:35:49Z</time>
      </trkpt>
      <trkpt lat="40.848367" lon="-5.111817">
        <ele>1580.0</ele>
        <time>2018-07-14T14:35:50Z</time>
      </trkpt>
      <trkpt lat="40.848483" lon="-5.111833">
        <ele>1580.0</ele>
        <time>2018-07-14T14:35:51Z</time>
      </trkpt>
      <trkpt lat="40.848600" lon="-5.111883">
        <ele>1580.0</ele>
        <time>2018-07-14T14:35:52Z</time>
      </trkpt>
      <trkpt lat="40.848717" lon="-5.111933">
        <ele>1580.0</ele>
        <time>2018-07-14T14:35:53Z</time>
      </trkpt>
      <trkpt lat="40.848833" lon="-5.111967">
        <ele>1580.0</ele>
        <time>2018-07-14T14:35:54Z</time>
      </trkpt>
      <trkpt lat="40.848950" lon="-5.112000">
        <ele>1580.0</ele>
        <time>2018-07-14T14:35:55Z</time>
      </trkpt>
      <trkpt lat="40.849083" lon="-5.112017">
        <ele>1581.0</ele>
        <time>2018-07-14T14:35:56Z</time>
      </trkpt>
      <trkpt lat="40.849200" lon="-5.112033">
        <ele>1580.0</ele>
        <time>2018-07-14T14:35:57Z</time>
      </trkpt>
      <trkpt lat="40.849317" lon="-5.112067">
        <ele>1580.0</ele>
        <time>2018-07-14T14:35:58Z</time>
      </trkpt>
      <trkpt lat="40.849433" lon="-5.112100">
        <ele>1579.0</ele>
        <time>2018-07-14T14:35:59Z</time>
      </trkpt>
      <trkpt lat="40.849550" lon="-5.112133">
        <ele>1580.0</ele>
        <time>2018-07-14T14:36:00Z</time>
      </trkpt>
      <trkpt lat="40.849667" lon="-5.112150">
        <ele>1580.0</ele>
        <time>2018-07-14T14:36:01Z</time>
      </trkpt>
      <trkpt lat="40.849783" lon="-5.112167">
        <ele>1581.0</ele>
        <time>2018-07-14T14:36:02Z</time>
      </trkpt>
      <trkpt lat="40.849900" lon="-5.112167">
        <ele>1581.0</ele>
        <time>2018-07-14T14:36:03Z</time>
      </trkpt>
      <trkpt lat="40.850033" lon="-5.112183">
        <ele>1581.0</ele>
        <time>2018-07-14T14:36:04Z</time>
      </trkpt>
      <trkpt lat="40.850150" lon="-5.112200">
        <ele>1581.0</ele>
        <time>2018-07-14T14:36:05Z</time>
      </trkpt>
      <trkpt lat="40.850267" lon="-5.112233">
        <ele>1581.0</ele>
        <time>2018-07-14T14:36:06Z</time>
      </trkpt>
      <trkpt lat="40.850383" lon="-5.112250">
        <ele>1583.0</ele>
        <time>2018-07-14T14:36:07Z</time>
      </trkpt>
      <trkpt lat="40.850483" lon="-5.112250">
        <ele>1584.0</ele>
        <time>2018-07-14T14:36:08Z</time>
      </trkpt>
      <trkpt lat="40.850583" lon="-5.112283">
        <ele>1584.0</ele>
        <time>2018-07-14T14:36:09Z</time>
      </trkpt>
      <trkpt lat="40.850700" lon="-5.112317">
        <ele>1584.0</ele>
        <time>2018-07-14T14:36:10Z</time>
      </trkpt>
      <trkpt lat="40.850817" lon="-5.112383">
        <ele>1583.0</ele>
        <time>2018-07-14T14:36:11Z</time>
      </trkpt>
      <trkpt lat="40.850917" lon="-5.112450">
        <ele>1583.0</ele>
        <time>2018-07-14T14:36:12Z</time>
      </trkpt>
      <trkpt lat="40.851117" lon="-5.112650">
        <ele>1584.0</ele>
        <time>2018-07-14T14:36:15Z</time>
      </trkpt>
      <trkpt lat="40.851183" lon="-5.112717">
        <ele>1582.0</ele>
        <time>2018-07-14T14:36:16Z</time>
      </trkpt>
      <trkpt lat="40.851267" lon="-5.112800">
        <ele>1580.0</ele>
        <time>2018-07-14T14:36:17Z</time>
      </trkpt>
      <trkpt lat="40.851333" lon="-5.112883">
        <ele>1578.0</ele>
        <time>2018-07-14T14:36:18Z</time>
      </trkpt>
      <trkpt lat="40.851400" lon="-5.112950">
        <ele>1579.0</ele>
        <time>2018-07-14T14:36:19Z</time>
      </trkpt>
      <trkpt lat="40.851450" lon="-5.113017">
        <ele>1579.0</ele>
        <time>2018-07-14T14:36:20Z</time>
      </trkpt>
      <trkpt lat="40.851500" lon="-5.113067">
        <ele>1579.0</ele>
        <time>2018-07-14T14:36:21Z</time>
      </trkpt>
      <trkpt lat="40.851550" lon="-5.113133">
        <ele>1578.0</ele>
        <time>2018-07-14T14:36:22Z</time>
      </trkpt>
      <trkpt lat="40.851600" lon="-5.113200">
        <ele>1577.0</ele>
        <time>2018-07-14T14:36:23Z</time>
      </trkpt>
      <trkpt lat="40.851633" lon="-5.113283">
        <ele>1575.0</ele>
        <time>2018-07-14T14:36:24Z</time>
      </trkpt>
      <trkpt lat="40.851667" lon="-5.113350">
        <ele>1574.0</ele>
        <time>2018-07-14T14:36:25Z</time>
      </trkpt>
      <trkpt lat="40.851700" lon="-5.113400">
        <ele>1574.0</ele>
        <time>2018-07-14T14:36:26Z</time>
      </trkpt>
      <trkpt lat="40.851717" lon="-5.113450">
        <ele>1574.0</ele>
        <time>2018-07-14T14:36:27Z</time>
      </trkpt>
      <trkpt lat="40.851750" lon="-5.113517">
        <ele>1573.0</ele>
        <time>2018-07-14T14:36:28Z</time>
      </trkpt>
      <trkpt lat="40.851783" lon="-5.113583">
        <ele>1572.0</ele>
        <time>2018-07-14T14:36:29Z</time>
      </trkpt>
      <trkpt lat="40.851817" lon="-5.113667">
        <ele>1570.0</ele>
        <time>2018-07-14T14:36:30Z</time>
      </trkpt>
      <trkpt lat="40.851850" lon="-5.113733">
        <ele>1569.0</ele>
        <time>2018-07-14T14:36:31Z</time>
      </trkpt>
      <trkpt lat="40.851917" lon="-5.113800">
        <ele>1568.0</ele>
        <time>2018-07-14T14:36:32Z</time>
      </trkpt>
      <trkpt lat="40.851983" lon="-5.113867">
        <ele>1566.0</ele>
        <time>2018-07-14T14:36:33Z</time>
      </trkpt>
      <trkpt lat="40.852083" lon="-5.113933">
        <ele>1565.0</ele>
        <time>2018-07-14T14:36:34Z</time>
      </trkpt>
      <trkpt lat="40.852183" lon="-5.113967">
        <ele>1563.0</ele>
        <time>2018-07-14T14:36:35Z</time>
      </trkpt>
      <trkpt lat="40.852283" lon="-5.114000">
        <ele>1563.0</ele>
        <time>2018-07-14T14:36:36Z</time>
      </trkpt>
      <trkpt lat="40.852383" lon="-5.114000">
        <ele>1563.0</ele>
        <time>2018-07-14T14:36:37Z</time>
      </trkpt>
      <trkpt lat="40.852483" lon="-5.114017">
        <ele>1562.0</ele>
        <time>2018-07-14T14:36:38Z</time>
      </trkpt>
      <trkpt lat="40.852567" lon="-5.114033">
        <ele>1562.0</ele>
        <time>2018-07-14T14:36:39Z</time>
      </trkpt>
      <trkpt lat="40.852683" lon="-5.114050">
        <ele>1561.0</ele>
        <time>2018-07-14T14:36:40Z</time>
      </trkpt>
      <trkpt lat="40.852783" lon="-5.114067">
        <ele>1560.0</ele>
        <time>2018-07-14T14:36:41Z</time>
      </trkpt>
      <trkpt lat="40.852900" lon="-5.114083">
        <ele>1558.0</ele>
        <time>2018-07-14T14:36:42Z</time>
      </trkpt>
      <trkpt lat="40.853000" lon="-5.114100">
        <ele>1556.0</ele>
        <time>2018-07-14T14:36:43Z</time>
      </trkpt>
      <trkpt lat="40.853100" lon="-5.114117">
        <ele>1555.0</ele>
        <time>2018-07-14T14:36:44Z</time>
      </trkpt>
      <trkpt lat="40.853200" lon="-5.114133">
        <ele>1554.0</ele>
        <time>2018-07-14T14:36:45Z</time>
      </trkpt>
      <trkpt lat="40.853300" lon="-5.114150">
        <ele>1552.0</ele>
        <time>2018-07-14T14:36:46Z</time>
      </trkpt>
      <trkpt lat="40.853417" lon="-5.114167">
        <ele>1550.0</ele>
        <time>2018-07-14T14:36:47Z</time>
      </trkpt>
      <trkpt lat="40.853517" lon="-5.114183">
        <ele>1547.0</ele>
        <time>2018-07-14T14:36:48Z</time>
      </trkpt>
      <trkpt lat="40.853633" lon="-5.114217">
        <ele>1545.0</ele>
        <time>2018-07-14T14:36:49Z</time>
      </trkpt>
      <trkpt lat="40.853733" lon="-5.114233">
        <ele>1543.0</ele>
        <time>2018-07-14T14:36:50Z</time>
      </trkpt>
      <trkpt lat="40.853850" lon="-5.114250">
        <ele>1541.0</ele>
        <time>2018-07-14T14:36:51Z</time>
      </trkpt>
      <trkpt lat="40.853950" lon="-5.114250">
        <ele>1540.0</ele>
        <time>2018-07-14T14:36:52Z</time>
      </trkpt>
      <trkpt lat="40.854050" lon="-5.114250">
        <ele>1538.0</ele>
        <time>2018-07-14T14:36:53Z</time>
      </trkpt>
      <trkpt lat="40.854167" lon="-5.114250">
        <ele>1536.0</ele>
        <time>2018-07-14T14:36:54Z</time>
      </trkpt>
      <trkpt lat="40.854283" lon="-5.114250">
        <ele>1535.0</ele>
        <time>2018-07-14T14:36:55Z</time>
      </trkpt>
      <trkpt lat="40.854383" lon="-5.114250">
        <ele>1533.0</ele>
        <time>2018-07-14T14:36:56Z</time>
      </trkpt>
      <trkpt lat="40.854500" lon="-5.114250">
        <ele>1532.0</ele>
        <time>2018-07-14T14:36:57Z</time>
      </trkpt>
      <trkpt lat="40.854600" lon="-5.114250">
        <ele>1531.0</ele>
        <time>2018-07-14T14:36:58Z</time>
      </trkpt>
      <trkpt lat="40.854700" lon="-5.114233">
        <ele>1529.0</ele>
        <time>2018-07-14T14:36:59Z</time>
      </trkpt>
      <trkpt lat="40.855050" lon="-5.114167">
        <ele>1519.0</ele>
        <time>2018-07-14T14:37:02Z</time>
      </trkpt>
      <trkpt lat="40.855183" lon="-5.114167">
        <ele>1515.0</ele>
        <time>2018-07-14T14:37:03Z</time>
      </trkpt>
      <trkpt lat="40.855300" lon="-5.114150">
        <ele>1512.0</ele>
        <time>2018-07-14T14:37:04Z</time>
      </trkpt>
      <trkpt lat="40.855417" lon="-5.114167">
        <ele>1511.0</ele>
        <time>2018-07-14T14:37:05Z</time>
      </trkpt>
      <trkpt lat="40.855533" lon="-5.114183">
        <ele>1509.0</ele>
        <time>2018-07-14T14:37:06Z</time>
      </trkpt>
      <trkpt lat="40.855633" lon="-5.114183">
        <ele>1507.0</ele>
        <time>2018-07-14T14:37:07Z</time>
      </trkpt>
      <trkpt lat="40.855750" lon="-5.114183">
        <ele>1504.0</ele>
        <time>2018-07-14T14:37:08Z</time>
      </trkpt>
      <trkpt lat="40.855867" lon="-5.114183">
        <ele>1502.0</ele>
        <time>2018-07-14T14:37:09Z</time>
      </trkpt>
      <trkpt lat="40.855983" lon="-5.114183">
        <ele>1501.0</ele>
        <time>2018-07-14T14:37:10Z</time>
      </trkpt>
      <trkpt lat="40.856100" lon="-5.114183">
        <ele>1500.0</ele>
        <time>2018-07-14T14:37:11Z</time>
      </trkpt>
      <trkpt lat="40.856200" lon="-5.114167">
        <ele>1501.0</ele>
        <time>2018-07-14T14:37:12Z</time>
      </trkpt>
      <trkpt lat="40.856300" lon="-5.114167">
        <ele>1501.0</ele>
        <time>2018-07-14T14:37:13Z</time>
      </trkpt>
      <trkpt lat="40.856383" lon="-5.114150">
        <ele>1502.0</ele>
        <time>2018-07-14T14:37:14Z</time>
      </trkpt>
      <trkpt lat="40.856467" lon="-5.114133">
        <ele>1503.0</ele>
        <time>2018-07-14T14:37:15Z</time>
      </trkpt>
      <trkpt lat="40.856567" lon="-5.114133">
        <ele>1503.0</ele>
        <time>2018-07-14T14:37:16Z</time>
      </trkpt>
      <trkpt lat="40.856683" lon="-5.114133">
        <ele>1502.0</ele>
        <time>2018-07-14T14:37:17Z</time>
      </trkpt>
      <trkpt lat="40.856800" lon="-5.114150">
        <ele>1502.0</ele>
        <time>2018-07-14T14:37:18Z</time>
      </trkpt>
      <trkpt lat="40.856900" lon="-5.114167">
        <ele>1503.0</ele>
        <time>2018-07-14T14:37:19Z</time>
      </trkpt>
      <trkpt lat="40.857000" lon="-5.114183">
        <ele>1505.0</ele>
        <time>2018-07-14T14:37:20Z</time>
      </trkpt>
      <trkpt lat="40.857083" lon="-5.114183">
        <ele>1506.0</ele>
        <time>2018-07-14T14:37:21Z</time>
      </trkpt>
      <trkpt lat="40.857167" lon="-5.114167">
        <ele>1507.0</ele>
        <time>2018-07-14T14:37:22Z</time>
      </trkpt>
      <trkpt lat="40.857267" lon="-5.114150">
        <ele>1508.0</ele>
        <time>2018-07-14T14:37:23Z</time>
      </trkpt>
      <trkpt lat="40.857350" lon="-5.114133">
        <ele>1509.0</ele>
        <time>2018-07-14T14:37:24Z</time>
      </trkpt>
      <trkpt lat="40.857433" lon="-5.114117">
        <ele>1510.0</ele>
        <time>2018-07-14T14:37:25Z</time>
      </trkpt>
      <trkpt lat="40.857500" lon="-5.114117">
        <ele>1510.0</ele>
        <time>2018-07-14T14:37:26Z</time>
      </trkpt>
      <trkpt lat="40.857567" lon="-5.114133">
        <ele>1509.0</ele>
        <time>2018-07-14T14:37:27Z</time>
      </trkpt>
      <trkpt lat="40.857633" lon="-5.114183">
        <ele>1508.0</ele>
        <time>2018-07-14T14:37:28Z</time>
      </trkpt>
      <trkpt lat="40.857700" lon="-5.114200">
        <ele>1508.0</ele>
        <time>2018-07-14T14:37:29Z</time>
      </trkpt>
      <trkpt lat="40.857767" lon="-5.114217">
        <ele>1509.0</ele>
        <time>2018-07-14T14:37:30Z</time>
      </trkpt>
      <trkpt lat="40.857850" lon="-5.114217">
        <ele>1509.0</ele>
        <time>2018-07-14T14:37:31Z</time>
      </trkpt>
      <trkpt lat="40.857933" lon="-5.114233">
        <ele>1509.0</ele>
        <time>2018-07-14T14:37:32Z</time>
      </trkpt>
      <trkpt lat="40.858033" lon="-5.114233">
        <ele>1508.0</ele>
        <time>2018-07-14T14:37:33Z</time>
      </trkpt>
      <trkpt lat="40.858100" lon="-5.114250">
        <ele>1507.0</ele>
        <time>2018-07-14T14:37:34Z</time>
      </trkpt>
      <trkpt lat="40.858183" lon="-5.114250">
        <ele>1506.0</ele>
        <time>2018-07-14T14:37:35Z</time>
      </trkpt>
      <trkpt lat="40.858250" lon="-5.114267">
        <ele>1505.0</ele>
        <time>2018-07-14T14:37:36Z</time>
      </trkpt>
      <trkpt lat="40.858333" lon="-5.114283">
        <ele>1504.0</ele>
        <time>2018-07-14T14:37:37Z</time>
      </trkpt>
      <trkpt lat="40.858400" lon="-5.114300">
        <ele>1502.0</ele>
        <time>2018-07-14T14:37:38Z</time>
      </trkpt>
      <trkpt lat="40.858517" lon="-5.114333">
        <ele>1500.0</ele>
        <time>2018-07-14T14:37:40Z</time>
      </trkpt>
      <trkpt lat="40.858583" lon="-5.114333">
        <ele>1499.0</ele>
        <time>2018-07-14T14:37:41Z</time>
      </trkpt>
      <trkpt lat="40.858650" lon="-5.114367">
        <ele>1497.0</ele>
        <time>2018-07-14T14:37:42Z</time>
      </trkpt>
      <trkpt lat="40.858717" lon="-5.114383">
        <ele>1494.0</ele>
        <time>2018-07-14T14:37:43Z</time>
      </trkpt>
      <trkpt lat="40.858800" lon="-5.114417">
        <ele>1492.0</ele>
        <time>2018-07-14T14:37:44Z</time>
      </trkpt>
      <trkpt lat="40.858867" lon="-5.114450">
        <ele>1490.0</ele>
        <time>2018-07-14T14:37:45Z</time>
      </trkpt>
      <trkpt lat="40.858917" lon="-5.114483">
        <ele>1488.0</ele>
        <time>2018-07-14T14:37:46Z</time>
      </trkpt>
      <trkpt lat="40.859000" lon="-5.114533">
        <ele>1488.0</ele>
        <time>2018-07-14T14:37:47Z</time>
      </trkpt>
      <trkpt lat="40.859067" lon="-5.114583">
        <ele>1486.0</ele>
        <time>2018-07-14T14:37:48Z</time>
      </trkpt>
      <trkpt lat="40.859133" lon="-5.114617">
        <ele>1484.0</ele>
        <time>2018-07-14T14:37:49Z</time>
      </trkpt>
      <trkpt lat="40.859217" lon="-5.114667">
        <ele>1481.0</ele>
        <time>2018-07-14T14:37:50Z</time>
      </trkpt>
      <trkpt lat="40.859283" lon="-5.114717">
        <ele>1479.0</ele>
        <time>2018-07-14T14:37:51Z</time>
      </trkpt>
      <trkpt lat="40.859333" lon="-5.114750">
        <ele>1477.0</ele>
        <time>2018-07-14T14:37:52Z</time>
      </trkpt>
      <trkpt lat="40.859383" lon="-5.114800">
        <ele>1476.0</ele>
        <time>2018-07-14T14:37:53Z</time>
      </trkpt>
      <trkpt lat="40.859450" lon="-5.114833">
        <ele>1475.0</ele>
        <time>2018-07-14T14:37:54Z</time>
      </trkpt>
      <trkpt lat="40.859500" lon="-5.114867">
        <ele>1475.0</ele>
        <time>2018-07-14T14:37:55Z</time>
      </trkpt>
      <trkpt lat="40.859583" lon="-5.114883">
        <ele>1475.0</ele>
        <time>2018-07-14T14:37:56Z</time>
      </trkpt>
      <trkpt lat="40.859650" lon="-5.114900">
        <ele>1475.0</ele>
        <time>2018-07-14T14:37:57Z</time>
      </trkpt>
      <trkpt lat="40.859717" lon="-5.114933">
        <ele>1475.0</ele>
        <time>2018-07-14T14:37:58Z</time>
      </trkpt>
      <trkpt lat="40.859783" lon="-5.114967">
        <ele>1474.0</ele>
        <time>2018-07-14T14:37:59Z</time>
      </trkpt>
      <trkpt lat="40.859833" lon="-5.115017">
        <ele>1473.0</ele>
        <time>2018-07-14T14:38:00Z</time>
      </trkpt>
      <trkpt lat="40.859917" lon="-5.115050">
        <ele>1472.0</ele>
        <time>2018-07-14T14:38:01Z</time>
      </trkpt>
      <trkpt lat="40.859983" lon="-5.115067">
        <ele>1472.0</ele>
        <time>2018-07-14T14:38:02Z</time>
      </trkpt>
      <trkpt lat="40.860050" lon="-5.115083">
        <ele>1473.0</ele>
        <time>2018-07-14T14:38:03Z</time>
      </trkpt>
      <trkpt lat="40.860117" lon="-5.115117">
        <ele>1472.0</ele>
        <time>2018-07-14T14:38:04Z</time>
      </trkpt>
      <trkpt lat="40.860183" lon="-5.115150">
        <ele>1471.0</ele>
        <time>2018-07-14T14:38:05Z</time>
      </trkpt>
      <trkpt lat="40.860383" lon="-5.115267">
        <ele>1469.0</ele>
        <time>2018-07-14T14:38:08Z</time>
      </trkpt>
      <trkpt lat="40.860450" lon="-5.115300">
        <ele>1469.0</ele>
        <time>2018-07-14T14:38:09Z</time>
      </trkpt>
      <trkpt lat="40.860517" lon="-5.115333">
        <ele>1469.0</ele>
        <time>2018-07-14T14:38:10Z</time>
      </trkpt>
      <trkpt lat="40.860583" lon="-5.115383">
        <ele>1469.0</ele>
        <time>2018-07-14T14:38:11Z</time>
      </trkpt>
      <trkpt lat="40.860683" lon="-5.115517">
        <ele>1471.0</ele>
        <time>2018-07-14T14:38:13Z</time>
      </trkpt>
      <trkpt lat="40.860733" lon="-5.115550">
        <ele>1474.0</ele>
        <time>2018-07-14T14:38:14Z</time>
      </trkpt>
      <trkpt lat="40.860783" lon="-5.115583">
        <ele>1477.0</ele>
        <time>2018-07-14T14:38:15Z</time>
      </trkpt>
      <trkpt lat="40.860850" lon="-5.115617">
        <ele>1480.0</ele>
        <time>2018-07-14T14:38:16Z</time>
      </trkpt>
      <trkpt lat="40.860917" lon="-5.115667">
        <ele>1482.0</ele>
        <time>2018-07-14T14:38:17Z</time>
      </trkpt>
      <trkpt lat="40.860983" lon="-5.115700">
        <ele>1484.0</ele>
        <time>2018-07-14T14:38:18Z</time>
      </trkpt>
      <trkpt lat="40.861050" lon="-5.115767">
        <ele>1485.0</ele>
        <time>2018-07-14T14:38:19Z</time>
      </trkpt>
      <trkpt lat="40.861117" lon="-5.115817">
        <ele>1486.0</ele>
        <time>2018-07-14T14:38:20Z</time>
      </trkpt>
      <trkpt lat="40.861183" lon="-5.115883">
        <ele>1488.0</ele>
        <time>2018-07-14T14:38:21Z</time>
      </trkpt>
      <trkpt lat="40.861217" lon="-5.115933">
        <ele>1490.0</ele>
        <time>2018-07-14T14:38:22Z</time>
      </trkpt>
      <trkpt lat="40.861250" lon="-5.115983">
        <ele>1492.0</ele>
        <time>2018-07-14T14:38:23Z</time>
      </trkpt>
      <trkpt lat="40.861267" lon="-5.116083">
        <ele>1494.0</ele>
        <time>2018-07-14T14:38:25Z</time>
      </trkpt>
      <trkpt lat="40.861233" lon="-5.116117">
        <ele>1494.0</ele>
        <time>2018-07-14T14:38:26Z</time>
      </trkpt>
      <trkpt lat="40.861200" lon="-5.116150">
        <ele>1494.0</ele>
        <time>2018-07-14T14:38:27Z</time>
      </trkpt>
      <trkpt lat="40.861167" lon="-5.116167">
        <ele>1493.0</ele>
        <time>2018-07-14T14:38:28Z</time>
      </trkpt>
      <trkpt lat="40.861117" lon="-5.116150">
        <ele>1492.0</ele>
        <time>2018-07-14T14:38:29Z</time>
      </trkpt>
      <trkpt lat="40.861083" lon="-5.116117">
        <ele>1491.0</ele>
        <time>2018-07-14T14:38:30Z</time>
      </trkpt>
      <trkpt lat="40.861067" lon="-5.116067">
        <ele>1489.0</ele>
        <time>2018-07-14T14:38:31Z</time>
      </trkpt>
      <trkpt lat="40.861033" lon="-5.116017">
        <ele>1486.0</ele>
        <time>2018-07-14T14:38:32Z</time>
      </trkpt>
      <trkpt lat="40.860983" lon="-5.115950">
        <ele>1483.0</ele>
        <time>2018-07-14T14:38:33Z</time>
      </trkpt>
      <trkpt lat="40.860967" lon="-5.115850">
        <ele>1480.0</ele>
        <time>2018-07-14T14:38:34Z</time>
      </trkpt>
      <trkpt lat="40.860950" lon="-5.115733">
        <ele>1478.0</ele>
        <time>2018-07-14T14:38:35Z</time>
      </trkpt>
      <trkpt lat="40.860950" lon="-5.115583">
        <ele>1475.0</ele>
        <time>2018-07-14T14:38:36Z</time>
      </trkpt>
      <trkpt lat="40.861050" lon="-5.115250">
        <ele>1469.0</ele>
        <time>2018-07-14T14:38:38Z</time>
      </trkpt>
      <trkpt lat="40.861150" lon="-5.115117">
        <ele>1466.0</ele>
        <time>2018-07-14T14:38:39Z</time>
      </trkpt>
      <trkpt lat="40.861283" lon="-5.115033">
        <ele>1463.0</ele>
        <time>2018-07-14T14:38:40Z</time>
      </trkpt>
      <trkpt lat="40.861417" lon="-5.115000">
        <ele>1460.0</ele>
        <time>2018-07-14T14:38:41Z</time>
      </trkpt>
      <trkpt lat="40.861533" lon="-5.114983">
        <ele>1457.0</ele>
        <time>2018-07-14T14:38:42Z</time>
      </trkpt>
      <trkpt lat="40.861633" lon="-5.114983">
        <ele>1456.0</ele>
        <time>2018-07-14T14:38:43Z</time>
      </trkpt>
      <trkpt lat="40.861717" lon="-5.115000">
        <ele>1456.0</ele>
        <time>2018-07-14T14:38:44Z</time>
      </trkpt>
      <trkpt lat="40.861783" lon="-5.115017">
        <ele>1453.0</ele>
        <time>2018-07-14T14:38:45Z</time>
      </trkpt>
      <trkpt lat="40.861850" lon="-5.115067">
        <ele>1451.0</ele>
        <time>2018-07-14T14:38:46Z</time>
      </trkpt>
      <trkpt lat="40.861900" lon="-5.115117">
        <ele>1452.0</ele>
        <time>2018-07-14T14:38:47Z</time>
      </trkpt>
      <trkpt lat="40.861950" lon="-5.115150">
        <ele>1451.0</ele>
        <time>2018-07-14T14:38:48Z</time>
      </trkpt>
      <trkpt lat="40.862000" lon="-5.115183">
        <ele>1450.0</ele>
        <time>2018-07-14T14:38:49Z</time>
      </trkpt>
      <trkpt lat="40.862067" lon="-5.115233">
        <ele>1449.0</ele>
        <time>2018-07-14T14:38:50Z</time>
      </trkpt>
      <trkpt lat="40.862117" lon="-5.115283">
        <ele>1448.0</ele>
        <time>2018-07-14T14:38:51Z</time>
      </trkpt>
      <trkpt lat="40.862183" lon="-5.115333">
        <ele>1448.0</ele>
        <time>2018-07-14T14:38:52Z</time>
      </trkpt>
      <trkpt lat="40.862267" lon="-5.115383">
        <ele>1448.0</ele>
        <time>2018-07-14T14:38:53Z</time>
      </trkpt>
      <trkpt lat="40.862333" lon="-5.115417">
        <ele>1448.0</ele>
        <time>2018-07-14T14:38:54Z</time>
      </trkpt>
      <trkpt lat="40.862400" lon="-5.115450">
        <ele>1448.0</ele>
        <time>2018-07-14T14:38:55Z</time>
      </trkpt>
      <trkpt lat="40.862450" lon="-5.115500">
        <ele>1448.0</ele>
        <time>2018-07-14T14:38:56Z</time>
      </trkpt>
      <trkpt lat="40.862517" lon="-5.115550">
        <ele>1447.0</ele>
        <time>2018-07-14T14:38:57Z</time>
      </trkpt>
      <trkpt lat="40.862567" lon="-5.115600">
        <ele>1447.0</ele>
        <time>2018-07-14T14:38:58Z</time>
      </trkpt>
      <trkpt lat="40.862617" lon="-5.115667">
        <ele>1447.0</ele>
        <time>2018-07-14T14:38:59Z</time>
      </trkpt>
      <trkpt lat="40.862667" lon="-5.115717">
        <ele>1447.0</ele>
        <time>2018-07-14T14:39:00Z</time>
      </trkpt>
      <trkpt lat="40.862700" lon="-5.115750">
        <ele>1448.0</ele>
        <time>2018-07-14T14:39:01Z</time>
      </trkpt>
      <trkpt lat="40.862733" lon="-5.115800">
        <ele>1448.0</ele>
        <time>2018-07-14T14:39:02Z</time>
      </trkpt>
      <trkpt lat="40.862767" lon="-5.115833">
        <ele>1449.0</ele>
        <time>2018-07-14T14:39:03Z</time>
      </trkpt>
      <trkpt lat="40.862800" lon="-5.115867">
        <ele>1449.0</ele>
        <time>2018-07-14T14:39:04Z</time>
      </trkpt>
      <trkpt lat="40.862850" lon="-5.115917">
        <ele>1449.0</ele>
        <time>2018-07-14T14:39:05Z</time>
      </trkpt>
      <trkpt lat="40.862867" lon="-5.115950">
        <ele>1449.0</ele>
        <time>2018-07-14T14:39:06Z</time>
      </trkpt>
      <trkpt lat="40.862900" lon="-5.115983">
        <ele>1450.0</ele>
        <time>2018-07-14T14:39:07Z</time>
      </trkpt>
      <trkpt lat="40.862917" lon="-5.116017">
        <ele>1450.0</ele>
        <time>2018-07-14T14:39:08Z</time>
      </trkpt>
      <trkpt lat="40.862933" lon="-5.116067">
        <ele>1450.0</ele>
        <time>2018-07-14T14:39:09Z</time>
      </trkpt>
      <trkpt lat="40.862950" lon="-5.116100">
        <ele>1450.0</ele>
        <time>2018-07-14T14:39:10Z</time>
      </trkpt>
      <trkpt lat="40.862983" lon="-5.116133">
        <ele>1450.0</ele>
        <time>2018-07-14T14:39:11Z</time>
      </trkpt>
      <trkpt lat="40.863000" lon="-5.116150">
        <ele>1450.0</ele>
        <time>2018-07-14T14:39:12Z</time>
      </trkpt>
      <trkpt lat="40.863017" lon="-5.116183">
        <ele>1450.0</ele>
        <time>2018-07-14T14:39:13Z</time>
      </trkpt>
      <trkpt lat="40.863033" lon="-5.116200">
        <ele>1449.0</ele>
        <time>2018-07-14T14:39:14Z</time>
      </trkpt>
      <trkpt lat="40.863033" lon="-5.116233">
        <ele>1448.0</ele>
        <time>2018-07-14T14:39:15Z</time>
      </trkpt>
      <trkpt lat="40.863067" lon="-5.116267">
        <ele>1448.0</ele>
        <time>2018-07-14T14:39:16Z</time>
      </trkpt>
      <trkpt lat="40.863100" lon="-5.116300">
        <ele>1447.0</ele>
        <time>2018-07-14T14:39:17Z</time>
      </trkpt>
      <trkpt lat="40.863133" lon="-5.116333">
        <ele>1446.0</ele>
        <time>2018-07-14T14:39:18Z</time>
      </trkpt>
      <trkpt lat="40.863167" lon="-5.116367">
        <ele>1444.0</ele>
        <time>2018-07-14T14:39:19Z</time>
      </trkpt>
      <trkpt lat="40.863183" lon="-5.116417">
        <ele>1442.0</ele>
        <time>2018-07-14T14:39:20Z</time>
      </trkpt>
      <trkpt lat="40.863217" lon="-5.116467">
        <ele>1440.0</ele>
        <time>2018-07-14T14:39:21Z</time>
      </trkpt>
      <trkpt lat="40.863250" lon="-5.116517">
        <ele>1439.0</ele>
        <time>2018-07-14T14:39:22Z</time>
      </trkpt>
      <trkpt lat="40.863300" lon="-5.116567">
        <ele>1439.0</ele>
        <time>2018-07-14T14:39:23Z</time>
      </trkpt>
      <trkpt lat="40.863350" lon="-5.116600">
        <ele>1439.0</ele>
        <time>2018-07-14T14:39:24Z</time>
      </trkpt>
      <trkpt lat="40.863383" lon="-5.116617">
        <ele>1439.0</ele>
        <time>2018-07-14T14:39:25Z</time>
      </trkpt>
      <trkpt lat="40.863433" lon="-5.116650">
        <ele>1438.0</ele>
        <time>2018-07-14T14:39:26Z</time>
      </trkpt>
      <trkpt lat="40.863483" lon="-5.116700">
        <ele>1436.0</ele>
        <time>2018-07-14T14:39:27Z</time>
      </trkpt>
      <trkpt lat="40.863517" lon="-5.116750">
        <ele>1433.0</ele>
        <time>2018-07-14T14:39:28Z</time>
      </trkpt>
      <trkpt lat="40.863550" lon="-5.116800">
        <ele>1431.0</ele>
        <time>2018-07-14T14:39:29Z</time>
      </trkpt>
      <trkpt lat="40.863583" lon="-5.116850">
        <ele>1430.0</ele>
        <time>2018-07-14T14:39:30Z</time>
      </trkpt>
      <trkpt lat="40.863617" lon="-5.116883">
        <ele>1429.0</ele>
        <time>2018-07-14T14:39:31Z</time>
      </trkpt>
      <trkpt lat="40.863633" lon="-5.116917">
        <ele>1428.0</ele>
        <time>2018-07-14T14:39:32Z</time>
      </trkpt>
      <trkpt lat="40.863650" lon="-5.116950">
        <ele>1427.0</ele>
        <time>2018-07-14T14:39:33Z</time>
      </trkpt>
      <trkpt lat="40.863683" lon="-5.117000">
        <ele>1425.0</ele>
        <time>2018-07-14T14:39:34Z</time>
      </trkpt>
      <trkpt lat="40.863700" lon="-5.117033">
        <ele>1424.0</ele>
        <time>2018-07-14T14:39:35Z</time>
      </trkpt>
      <trkpt lat="40.863733" lon="-5.117083">
        <ele>1423.0</ele>
        <time>2018-07-14T14:39:36Z</time>
      </trkpt>
      <trkpt lat="40.863750" lon="-5.117117">
        <ele>1422.0</ele>
        <time>2018-07-14T14:39:37Z</time>
      </trkpt>
      <trkpt lat="40.863783" lon="-5.117150">
        <ele>1421.0</ele>
        <time>2018-07-14T14:39:38Z</time>
      </trkpt>
      <trkpt lat="40.863817" lon="-5.117183">
        <ele>1420.0</ele>
        <time>2018-07-14T14:39:39Z</time>
      </trkpt>
      <trkpt lat="40.863867" lon="-5.117233">
        <ele>1419.0</ele>
        <time>2018-07-14T14:39:40Z</time>
      </trkpt>
      <trkpt lat="40.863917" lon="-5.117267">
        <ele>1418.0</ele>
        <time>2018-07-14T14:39:41Z</time>
      </trkpt>
      <trkpt lat="40.863967" lon="-5.117300">
        <ele>1416.0</ele>
        <time>2018-07-14T14:39:42Z</time>
      </trkpt>
      <trkpt lat="40.864033" lon="-5.117333">
        <ele>1413.0</ele>
        <time>2018-07-14T14:39:43Z</time>
      </trkpt>
      <trkpt lat="40.864100" lon="-5.117367">
        <ele>1410.0</ele>
        <time>2018-07-14T14:39:44Z</time>
      </trkpt>
      <trkpt lat="40.864167" lon="-5.117417">
        <ele>1407.0</ele>
        <time>2018-07-14T14:39:45Z</time>
      </trkpt>
      <trkpt lat="40.864250" lon="-5.117467">
        <ele>1404.0</ele>
        <time>2018-07-14T14:39:46Z</time>
      </trkpt>
      <trkpt lat="40.864333" lon="-5.117500">
        <ele>1401.0</ele>
        <time>2018-07-14T14:39:47Z</time>
      </trkpt>
      <trkpt lat="40.864417" lon="-5.117550">
        <ele>1397.0</ele>
        <time>2018-07-14T14:39:48Z</time>
      </trkpt>
      <trkpt lat="40.864500" lon="-5.117600">
        <ele>1394.0</ele>
        <time>2018-07-14T14:39:49Z</time>
      </trkpt>
      <trkpt lat="40.864583" lon="-5.117650">
        <ele>1391.0</ele>
        <time>2018-07-14T14:39:50Z</time>
      </trkpt>
      <trkpt lat="40.864667" lon="-5.117717">
        <ele>1387.0</ele>
        <time>2018-07-14T14:39:51Z</time>
      </trkpt>
      <trkpt lat="40.864750" lon="-5.117767">
        <ele>1384.0</ele>
        <time>2018-07-14T14:39:52Z</time>
      </trkpt>
      <trkpt lat="40.864833" lon="-5.117817">
        <ele>1382.0</ele>
        <time>2018-07-14T14:39:53Z</time>
      </trkpt>
      <trkpt lat="40.864917" lon="-5.117867">
        <ele>1379.0</ele>
        <time>2018-07-14T14:39:54Z</time>
      </trkpt>
      <trkpt lat="40.864983" lon="-5.117933">
        <ele>1377.0</ele>
        <time>2018-07-14T14:39:55Z</time>
      </trkpt>
      <trkpt lat="40.865050" lon="-5.117967">
        <ele>1378.0</ele>
        <time>2018-07-14T14:39:56Z</time>
      </trkpt>
      <trkpt lat="40.865117" lon="-5.118050">
        <ele>1377.0</ele>
        <time>2018-07-14T14:39:57Z</time>
      </trkpt>
      <trkpt lat="40.865183" lon="-5.118117">
        <ele>1375.0</ele>
        <time>2018-07-14T14:39:58Z</time>
      </trkpt>
      <trkpt lat="40.865250" lon="-5.118200">
        <ele>1373.0</ele>
        <time>2018-07-14T14:39:59Z</time>
      </trkpt>
      <trkpt lat="40.865333" lon="-5.118267">
        <ele>1372.0</ele>
        <time>2018-07-14T14:40:00Z</time>
      </trkpt>
      <trkpt lat="40.865400" lon="-5.118300">
        <ele>1373.0</ele>
        <time>2018-07-14T14:40:01Z</time>
      </trkpt>
      <trkpt lat="40.865467" lon="-5.118317">
        <ele>1372.0</ele>
        <time>2018-07-14T14:40:02Z</time>
      </trkpt>
      <trkpt lat="40.865517" lon="-5.118350">
        <ele>1371.0</ele>
        <time>2018-07-14T14:40:03Z</time>
      </trkpt>
      <trkpt lat="40.865583" lon="-5.118417">
        <ele>1369.0</ele>
        <time>2018-07-14T14:40:04Z</time>
      </trkpt>
      <trkpt lat="40.865650" lon="-5.118483">
        <ele>1366.0</ele>
        <time>2018-07-14T14:40:05Z</time>
      </trkpt>
      <trkpt lat="40.865717" lon="-5.118550">
        <ele>1363.0</ele>
        <time>2018-07-14T14:40:06Z</time>
      </trkpt>
      <trkpt lat="40.865767" lon="-5.118633">
        <ele>1361.0</ele>
        <time>2018-07-14T14:40:07Z</time>
      </trkpt>
      <trkpt lat="40.865817" lon="-5.118717">
        <ele>1358.0</ele>
        <time>2018-07-14T14:40:08Z</time>
      </trkpt>
      <trkpt lat="40.865867" lon="-5.118783">
        <ele>1357.0</ele>
        <time>2018-07-14T14:40:09Z</time>
      </trkpt>
      <trkpt lat="40.865900" lon="-5.118833">
        <ele>1356.0</ele>
        <time>2018-07-14T14:40:10Z</time>
      </trkpt>
      <trkpt lat="40.865950" lon="-5.118867">
        <ele>1355.0</ele>
        <time>2018-07-14T14:40:11Z</time>
      </trkpt>
      <trkpt lat="40.865983" lon="-5.118900">
        <ele>1355.0</ele>
        <time>2018-07-14T14:40:12Z</time>
      </trkpt>
      <trkpt lat="40.866033" lon="-5.118933">
        <ele>1353.0</ele>
        <time>2018-07-14T14:40:13Z</time>
      </trkpt>
      <trkpt lat="40.866067" lon="-5.118967">
        <ele>1351.0</ele>
        <time>2018-07-14T14:40:14Z</time>
      </trkpt>
      <trkpt lat="40.866117" lon="-5.119017">
        <ele>1348.0</ele>
        <time>2018-07-14T14:40:15Z</time>
      </trkpt>
      <trkpt lat="40.866150" lon="-5.119067">
        <ele>1346.0</ele>
        <time>2018-07-14T14:40:16Z</time>
      </trkpt>
      <trkpt lat="40.866200" lon="-5.119117">
        <ele>1342.0</ele>
        <time>2018-07-14T14:40:17Z</time>
      </trkpt>
      <trkpt lat="40.866233" lon="-5.119167">
        <ele>1338.0</ele>
        <time>2018-07-14T14:40:18Z</time>
      </trkpt>
      <trkpt lat="40.866267" lon="-5.119200">
        <ele>1334.0</ele>
        <time>2018-07-14T14:40:19Z</time>
      </trkpt>
      <trkpt lat="40.866333" lon="-5.119250">
        <ele>1330.0</ele>
        <time>2018-07-14T14:40:20Z</time>
      </trkpt>
      <trkpt lat="40.866400" lon="-5.119300">
        <ele>1325.0</ele>
        <time>2018-07-14T14:40:21Z</time>
      </trkpt>
      <trkpt lat="40.866467" lon="-5.119367">
        <ele>1320.0</ele>
        <time>2018-07-14T14:40:22Z</time>
      </trkpt>
      <trkpt lat="40.866533" lon="-5.119433">
        <ele>1318.0</ele>
        <time>2018-07-14T14:40:23Z</time>
      </trkpt>
      <trkpt lat="40.866583" lon="-5.119450">
        <ele>1318.0</ele>
        <time>2018-07-14T14:40:24Z</time>
      </trkpt>
      <trkpt lat="40.866667" lon="-5.119483">
        <ele>1318.0</ele>
        <time>2018-07-14T14:40:25Z</time>
      </trkpt>
      <trkpt lat="40.866733" lon="-5.119500">
        <ele>1318.0</ele>
        <time>2018-07-14T14:40:26Z</time>
      </trkpt>
      <trkpt lat="40.866800" lon="-5.119517">
        <ele>1317.0</ele>
        <time>2018-07-14T14:40:27Z</time>
      </trkpt>
      <trkpt lat="40.866850" lon="-5.119550">
        <ele>1315.0</ele>
        <time>2018-07-14T14:40:28Z</time>
      </trkpt>
      <trkpt lat="40.866900" lon="-5.119583">
        <ele>1312.0</ele>
        <time>2018-07-14T14:40:29Z</time>
      </trkpt>
      <trkpt lat="40.866967" lon="-5.119633">
        <ele>1309.0</ele>
        <time>2018-07-14T14:40:30Z</time>
      </trkpt>
      <trkpt lat="40.867033" lon="-5.119667">
        <ele>1307.0</ele>
        <time>2018-07-14T14:40:31Z</time>
      </trkpt>
      <trkpt lat="40.867117" lon="-5.119683">
        <ele>1307.0</ele>
        <time>2018-07-14T14:40:32Z</time>
      </trkpt>
      <trkpt lat="40.867183" lon="-5.119683">
        <ele>1307.0</ele>
        <time>2018-07-14T14:40:33Z</time>
      </trkpt>
      <trkpt lat="40.867250" lon="-5.119667">
        <ele>1307.0</ele>
        <time>2018-07-14T14:40:34Z</time>
      </trkpt>
      <trkpt lat="40.867333" lon="-5.119650">
        <ele>1305.0</ele>
        <time>2018-07-14T14:40:35Z</time>
      </trkpt>
      <trkpt lat="40.867417" lon="-5.119667">
        <ele>1302.0</ele>
        <time>2018-07-14T14:40:36Z</time>
      </trkpt>
      <trkpt lat="40.867517" lon="-5.119683">
        <ele>1299.0</ele>
        <time>2018-07-14T14:40:37Z</time>
      </trkpt>
      <trkpt lat="40.867600" lon="-5.119683">
        <ele>1296.0</ele>
        <time>2018-07-14T14:40:38Z</time>
      </trkpt>
      <trkpt lat="40.867667" lon="-5.119700">
        <ele>1295.0</ele>
        <time>2018-07-14T14:40:39Z</time>
      </trkpt>
      <trkpt lat="40.867750" lon="-5.119700">
        <ele>1295.0</ele>
        <time>2018-07-14T14:40:40Z</time>
      </trkpt>
      <trkpt lat="40.867833" lon="-5.119683">
        <ele>1294.0</ele>
        <time>2018-07-14T14:40:41Z</time>
      </trkpt>
      <trkpt lat="40.867917" lon="-5.119683">
        <ele>1292.0</ele>
        <time>2018-07-14T14:40:42Z</time>
      </trkpt>
      <trkpt lat="40.868017" lon="-5.119683">
        <ele>1290.0</ele>
        <time>2018-07-14T14:40:43Z</time>
      </trkpt>
      <trkpt lat="40.868133" lon="-5.119667">
        <ele>1288.0</ele>
        <time>2018-07-14T14:40:44Z</time>
      </trkpt>
      <trkpt lat="40.868250" lon="-5.119667">
        <ele>1286.0</ele>
        <time>2018-07-14T14:40:45Z</time>
      </trkpt>
      <trkpt lat="40.868350" lon="-5.119683">
        <ele>1284.0</ele>
        <time>2018-07-14T14:40:46Z</time>
      </trkpt>
      <trkpt lat="40.868450" lon="-5.119700">
        <ele>1281.0</ele>
        <time>2018-07-14T14:40:47Z</time>
      </trkpt>
      <trkpt lat="40.868567" lon="-5.119717">
        <ele>1278.0</ele>
        <time>2018-07-14T14:40:48Z</time>
      </trkpt>
      <trkpt lat="40.868683" lon="-5.119767">
        <ele>1275.0</ele>
        <time>2018-07-14T14:40:49Z</time>
      </trkpt>
      <trkpt lat="40.868817" lon="-5.119783">
        <ele>1272.0</ele>
        <time>2018-07-14T14:40:50Z</time>
      </trkpt>
      <trkpt lat="40.868933" lon="-5.119800">
        <ele>1270.0</ele>
        <time>2018-07-14T14:40:51Z</time>
      </trkpt>
      <trkpt lat="40.869033" lon="-5.119783">
        <ele>1269.0</ele>
        <time>2018-07-14T14:40:52Z</time>
      </trkpt>
      <trkpt lat="40.869150" lon="-5.119750">
        <ele>1268.0</ele>
        <time>2018-07-14T14:40:53Z</time>
      </trkpt>
      <trkpt lat="40.869250" lon="-5.119750">
        <ele>1266.0</ele>
        <time>2018-07-14T14:40:54Z</time>
      </trkpt>
      <trkpt lat="40.869367" lon="-5.119750">
        <ele>1263.0</ele>
        <time>2018-07-14T14:40:55Z</time>
      </trkpt>
      <trkpt lat="40.869483" lon="-5.119767">
        <ele>1260.0</ele>
        <time>2018-07-14T14:40:56Z</time>
      </trkpt>
      <trkpt lat="40.869583" lon="-5.119800">
        <ele>1257.0</ele>
        <time>2018-07-14T14:40:57Z</time>
      </trkpt>
      <trkpt lat="40.869667" lon="-5.119817">
        <ele>1255.0</ele>
        <time>2018-07-14T14:40:58Z</time>
      </trkpt>
      <trkpt lat="40.869767" lon="-5.119817">
        <ele>1254.0</ele>
        <time>2018-07-14T14:40:59Z</time>
      </trkpt>
      <trkpt lat="40.869850" lon="-5.119817">
        <ele>1251.0</ele>
        <time>2018-07-14T14:41:00Z</time>
      </trkpt>
      <trkpt lat="40.869950" lon="-5.119833">
        <ele>1248.0</ele>
        <time>2018-07-14T14:41:01Z</time>
      </trkpt>
      <trkpt lat="40.870067" lon="-5.119867">
        <ele>1244.0</ele>
        <time>2018-07-14T14:41:02Z</time>
      </trkpt>
      <trkpt lat="40.870167" lon="-5.119900">
        <ele>1240.0</ele>
        <time>2018-07-14T14:41:03Z</time>
      </trkpt>
      <trkpt lat="40.870267" lon="-5.119917">
        <ele>1236.0</ele>
        <time>2018-07-14T14:41:04Z</time>
      </trkpt>
      <trkpt lat="40.870367" lon="-5.119950">
        <ele>1234.0</ele>
        <time>2018-07-14T14:41:05Z</time>
      </trkpt>
      <trkpt lat="40.870450" lon="-5.119967">
        <ele>1232.0</ele>
        <time>2018-07-14T14:41:06Z</time>
      </trkpt>
      <trkpt lat="40.870517" lon="-5.119967">
        <ele>1230.0</ele>
        <time>2018-07-14T14:41:07Z</time>
      </trkpt>
      <trkpt lat="40.870583" lon="-5.119967">
        <ele>1227.0</ele>
        <time>2018-07-14T14:41:08Z</time>
      </trkpt>
      <trkpt lat="40.870667" lon="-5.119983">
        <ele>1224.0</ele>
        <time>2018-07-14T14:41:09Z</time>
      </trkpt>
      <trkpt lat="40.870750" lon="-5.120017">
        <ele>1220.0</ele>
        <time>2018-07-14T14:41:10Z</time>
      </trkpt>
      <trkpt lat="40.870833" lon="-5.120050">
        <ele>1216.0</ele>
        <time>2018-07-14T14:41:11Z</time>
      </trkpt>
      <trkpt lat="40.870900" lon="-5.120083">
        <ele>1212.0</ele>
        <time>2018-07-14T14:41:12Z</time>
      </trkpt>
      <trkpt lat="40.870967" lon="-5.120083">
        <ele>1209.0</ele>
        <time>2018-07-14T14:41:13Z</time>
      </trkpt>
      <trkpt lat="40.871033" lon="-5.120117">
        <ele>1206.0</ele>
        <time>2018-07-14T14:41:14Z</time>
      </trkpt>
      <trkpt lat="40.871117" lon="-5.120150">
        <ele>1201.0</ele>
        <time>2018-07-14T14:41:15Z</time>
      </trkpt>
      <trkpt lat="40.871200" lon="-5.120200">
        <ele>1196.0</ele>
        <time>2018-07-14T14:41:16Z</time>
      </trkpt>
      <trkpt lat="40.871300" lon="-5.120250">
        <ele>1191.0</ele>
        <time>2018-07-14T14:41:17Z</time>
      </trkpt>
      <trkpt lat="40.871483" lon="-5.120333">
        <ele>1182.0</ele>
        <time>2018-07-14T14:41:19Z</time>
      </trkpt>
      <trkpt lat="40.871567" lon="-5.120367">
        <ele>1184.0</ele>
        <time>2018-07-14T14:41:20Z</time>
      </trkpt>
      <trkpt lat="40.871650" lon="-5.120417">
        <ele>1181.0</ele>
        <time>2018-07-14T14:41:21Z</time>
      </trkpt>
      <trkpt lat="40.871767" lon="-5.120450">
        <ele>1175.0</ele>
        <time>2018-07-14T14:41:22Z</time>
      </trkpt>
      <trkpt lat="40.871883" lon="-5.120450">
        <ele>1168.0</ele>
        <time>2018-07-14T14:41:23Z</time>
      </trkpt>
      <trkpt lat="40.872017" lon="-5.120450">
        <ele>1162.0</ele>
        <time>2018-07-14T14:41:24Z</time>
      </trkpt>
      <trkpt lat="40.872133" lon="-5.120450">
        <ele>1157.0</ele>
        <time>2018-07-14T14:41:25Z</time>
      </trkpt>
      <trkpt lat="40.872233" lon="-5.120467">
        <ele>1152.0</ele>
        <time>2018-07-14T14:41:26Z</time>
      </trkpt>
      <trkpt lat="40.872317" lon="-5.120483">
        <ele>1148.0</ele>
        <time>2018-07-14T14:41:27Z</time>
      </trkpt>
      <trkpt lat="40.872433" lon="-5.120500">
        <ele>1143.0</ele>
        <time>2018-07-14T14:41:28Z</time>
      </trkpt>
      <trkpt lat="40.872550" lon="-5.120517">
        <ele>1136.0</ele>
        <time>2018-07-14T14:41:29Z</time>
      </trkpt>
      <trkpt lat="40.872817" lon="-5.120500">
        <ele>1128.0</ele>
        <time>2018-07-14T14:41:31Z</time>
      </trkpt>
      <trkpt lat="40.872917" lon="-5.120483">
        <ele>1128.0</ele>
        <time>2018-07-14T14:41:32Z</time>
      </trkpt>
      <trkpt lat="40.873017" lon="-5.120483">
        <ele>1128.0</ele>
        <time>2018-07-14T14:41:33Z</time>
      </trkpt>
      <trkpt lat="40.873117" lon="-5.120467">
        <ele>1126.0</ele>
        <time>2018-07-14T14:41:34Z</time>
      </trkpt>
      <trkpt lat="40.873250" lon="-5.120467">
        <ele>1125.0</ele>
        <time>2018-07-14T14:41:35Z</time>
      </trkpt>
      <trkpt lat="40.873383" lon="-5.120450">
        <ele>1123.0</ele>
        <time>2018-07-14T14:41:36Z</time>
      </trkpt>
      <trkpt lat="40.873517" lon="-5.120433">
        <ele>1122.0</ele>
        <time>2018-07-14T14:41:37Z</time>
      </trkpt>
      <trkpt lat="40.873650" lon="-5.120417">
        <ele>1123.0</ele>
        <time>2018-07-14T14:41:38Z</time>
      </trkpt>
      <trkpt lat="40.873750" lon="-5.120400">
        <ele>1123.0</ele>
        <time>2018-07-14T14:41:39Z</time>
      </trkpt>
      <trkpt lat="40.873867" lon="-5.120350">
        <ele>1122.0</ele>
        <time>2018-07-14T14:41:40Z</time>
      </trkpt>
      <trkpt lat="40.874000" lon="-5.120300">
        <ele>1121.0</ele>
        <time>2018-07-14T14:41:41Z</time>
      </trkpt>
      <trkpt lat="40.874133" lon="-5.120217">
        <ele>1118.0</ele>
        <time>2018-07-14T14:41:42Z</time>
      </trkpt>
      <trkpt lat="40.874267" lon="-5.120133">
        <ele>1116.0</ele>
        <time>2018-07-14T14:41:43Z</time>
      </trkpt>
      <trkpt lat="40.874400" lon="-5.120033">
        <ele>1116.0</ele>
        <time>2018-07-14T14:41:44Z</time>
      </trkpt>
      <trkpt lat="40.874517" lon="-5.119967">
        <ele>1118.0</ele>
        <time>2018-07-14T14:41:45Z</time>
      </trkpt>
      <trkpt lat="40.874633" lon="-5.119933">
        <ele>1118.0</ele>
        <time>2018-07-14T14:41:46Z</time>
      </trkpt>
      <trkpt lat="40.874750" lon="-5.119917">
        <ele>1118.0</ele>
        <time>2018-07-14T14:41:47Z</time>
      </trkpt>
      <trkpt lat="40.874867" lon="-5.119883">
        <ele>1117.0</ele>
        <time>2018-07-14T14:41:48Z</time>
      </trkpt>
      <trkpt lat="40.874983" lon="-5.119867">
        <ele>1117.0</ele>
        <time>2018-07-14T14:41:49Z</time>
      </trkpt>
      <trkpt lat="40.875083" lon="-5.119867">
        <ele>1116.0</ele>
        <time>2018-07-14T14:41:50Z</time>
      </trkpt>
      <trkpt lat="40.875183" lon="-5.119883">
        <ele>1115.0</ele>
        <time>2018-07-14T14:41:51Z</time>
      </trkpt>
      <trkpt lat="40.875250" lon="-5.119933">
        <ele>1112.0</ele>
        <time>2018-07-14T14:41:52Z</time>
      </trkpt>
      <trkpt lat="40.875283" lon="-5.120000">
        <ele>1109.0</ele>
        <time>2018-07-14T14:41:53Z</time>
      </trkpt>
      <trkpt lat="40.875300" lon="-5.120067">
        <ele>1107.0</ele>
        <time>2018-07-14T14:41:54Z</time>
      </trkpt>
      <trkpt lat="40.875283" lon="-5.120117">
        <ele>1104.0</ele>
        <time>2018-07-14T14:41:55Z</time>
      </trkpt>
      <trkpt lat="40.875250" lon="-5.120150">
        <ele>1102.0</ele>
        <time>2018-07-14T14:41:56Z</time>
      </trkpt>
      <trkpt lat="40.875200" lon="-5.120150">
        <ele>1099.0</ele>
        <time>2018-07-14T14:41:57Z</time>
      </trkpt>
      <trkpt lat="40.875150" lon="-5.120133">
        <ele>1098.0</ele>
        <time>2018-07-14T14:41:58Z</time>
      </trkpt>
      <trkpt lat="40.875100" lon="-5.120083">
        <ele>1096.0</ele>
        <time>2018-07-14T14:41:59Z</time>
      </trkpt>
      <trkpt lat="40.875067" lon="-5.119967">
        <ele>1096.0</ele>
        <time>2018-07-14T14:42:00Z</time>
      </trkpt>
      <trkpt lat="40.875067" lon="-5.119833">
        <ele>1095.0</ele>
        <time>2018-07-14T14:42:01Z</time>
      </trkpt>
      <trkpt lat="40.875067" lon="-5.119700">
        <ele>1093.0</ele>
        <time>2018-07-14T14:42:02Z</time>
      </trkpt>
      <trkpt lat="40.875100" lon="-5.119533">
        <ele>1092.0</ele>
        <time>2018-07-14T14:42:03Z</time>
      </trkpt>
      <trkpt lat="40.875150" lon="-5.119367">
        <ele>1091.0</ele>
        <time>2018-07-14T14:42:04Z</time>
      </trkpt>
      <trkpt lat="40.875217" lon="-5.119217">
        <ele>1090.0</ele>
        <time>2018-07-14T14:42:05Z</time>
      </trkpt>
      <trkpt lat="40.875300" lon="-5.119050">
        <ele>1089.0</ele>
        <time>2018-07-14T14:42:06Z</time>
      </trkpt>
      <trkpt lat="40.875417" lon="-5.118933">
        <ele>1088.0</ele>
        <time>2018-07-14T14:42:07Z</time>
      </trkpt>
      <trkpt lat="40.875550" lon="-5.118850">
        <ele>1087.0</ele>
        <time>2018-07-14T14:42:08Z</time>
      </trkpt>
      <trkpt lat="40.875667" lon="-5.118800">
        <ele>1087.0</ele>
        <time>2018-07-14T14:42:09Z</time>
      </trkpt>
      <trkpt lat="40.875767" lon="-5.118767">
        <ele>1089.0</ele>
        <time>2018-07-14T14:42:10Z</time>
      </trkpt>
      <trkpt lat="40.875883" lon="-5.118750">
        <ele>1089.0</ele>
        <time>2018-07-14T14:42:11Z</time>
      </trkpt>
      <trkpt lat="40.875983" lon="-5.118750">
        <ele>1089.0</ele>
        <time>2018-07-14T14:42:12Z</time>
      </trkpt>
      <trkpt lat="40.876083" lon="-5.118750">
        <ele>1088.0</ele>
        <time>2018-07-14T14:42:13Z</time>
      </trkpt>
      <trkpt lat="40.876167" lon="-5.118767">
        <ele>1087.0</ele>
        <time>2018-07-14T14:42:14Z</time>
      </trkpt>
      <trkpt lat="40.876250" lon="-5.118800">
        <ele>1086.0</ele>
        <time>2018-07-14T14:42:15Z</time>
      </trkpt>
      <trkpt lat="40.876317" lon="-5.118817">
        <ele>1085.0</ele>
        <time>2018-07-14T14:42:16Z</time>
      </trkpt>
      <trkpt lat="40.876383" lon="-5.118817">
        <ele>1084.0</ele>
        <time>2018-07-14T14:42:17Z</time>
      </trkpt>
      <trkpt lat="40.876467" lon="-5.118817">
        <ele>1083.0</ele>
        <time>2018-07-14T14:42:18Z</time>
      </trkpt>
      <trkpt lat="40.876550" lon="-5.118817">
        <ele>1080.0</ele>
        <time>2018-07-14T14:42:19Z</time>
      </trkpt>
      <trkpt lat="40.876633" lon="-5.118817">
        <ele>1077.0</ele>
        <time>2018-07-14T14:42:20Z</time>
      </trkpt>
      <trkpt lat="40.876717" lon="-5.118817">
        <ele>1074.0</ele>
        <time>2018-07-14T14:42:21Z</time>
      </trkpt>
      <trkpt lat="40.876800" lon="-5.118817">
        <ele>1072.0</ele>
        <time>2018-07-14T14:42:22Z</time>
      </trkpt>
      <trkpt lat="40.876883" lon="-5.118817">
        <ele>1070.0</ele>
        <time>2018-07-14T14:42:23Z</time>
      </trkpt>
      <trkpt lat="40.876967" lon="-5.118817">
        <ele>1067.0</ele>
        <time>2018-07-14T14:42:24Z</time>
      </trkpt>
      <trkpt lat="40.877050" lon="-5.118817">
        <ele>1064.0</ele>
        <time>2018-07-14T14:42:25Z</time>
      </trkpt>
      <trkpt lat="40.877150" lon="-5.118833">
        <ele>1062.0</ele>
        <time>2018-07-14T14:42:26Z</time>
      </trkpt>
      <trkpt lat="40.877250" lon="-5.118833">
        <ele>1060.0</ele>
        <time>2018-07-14T14:42:27Z</time>
      </trkpt>
      <trkpt lat="40.877367" lon="-5.118833">
        <ele>1059.0</ele>
        <time>2018-07-14T14:42:28Z</time>
      </trkpt>
      <trkpt lat="40.877467" lon="-5.118833">
        <ele>1059.0</ele>
        <time>2018-07-14T14:42:29Z</time>
      </trkpt>
      <trkpt lat="40.877583" lon="-5.118817">
        <ele>1059.0</ele>
        <time>2018-07-14T14:42:30Z</time>
      </trkpt>
      <trkpt lat="40.877667" lon="-5.118800">
        <ele>1059.0</ele>
        <time>2018-07-14T14:42:31Z</time>
      </trkpt>
      <trkpt lat="40.877767" lon="-5.118800">
        <ele>1058.0</ele>
        <time>2018-07-14T14:42:32Z</time>
      </trkpt>
      <trkpt lat="40.877867" lon="-5.118800">
        <ele>1058.0</ele>
        <time>2018-07-14T14:42:33Z</time>
      </trkpt>
      <trkpt lat="40.877983" lon="-5.118800">
        <ele>1056.0</ele>
        <time>2018-07-14T14:42:34Z</time>
      </trkpt>
      <trkpt lat="40.878083" lon="-5.118800">
        <ele>1054.0</ele>
        <time>2018-07-14T14:42:35Z</time>
      </trkpt>
      <trkpt lat="40.878200" lon="-5.118800">
        <ele>1054.0</ele>
        <time>2018-07-14T14:42:36Z</time>
      </trkpt>
      <trkpt lat="40.878300" lon="-5.118800">
        <ele>1054.0</ele>
        <time>2018-07-14T14:42:37Z</time>
      </trkpt>
      <trkpt lat="40.878400" lon="-5.118800">
        <ele>1054.0</ele>
        <time>2018-07-14T14:42:38Z</time>
      </trkpt>
      <trkpt lat="40.878517" lon="-5.118817">
        <ele>1053.0</ele>
        <time>2018-07-14T14:42:39Z</time>
      </trkpt>
      <trkpt lat="40.878633" lon="-5.118833">
        <ele>1053.0</ele>
        <time>2018-07-14T14:42:40Z</time>
      </trkpt>
      <trkpt lat="40.878750" lon="-5.118867">
        <ele>1052.0</ele>
        <time>2018-07-14T14:42:41Z</time>
      </trkpt>
      <trkpt lat="40.878850" lon="-5.118883">
        <ele>1053.0</ele>
        <time>2018-07-14T14:42:42Z</time>
      </trkpt>
      <trkpt lat="40.878950" lon="-5.118900">
        <ele>1054.0</ele>
        <time>2018-07-14T14:42:43Z</time>
      </trkpt>
      <trkpt lat="40.879033" lon="-5.118900">
        <ele>1055.0</ele>
        <time>2018-07-14T14:42:44Z</time>
      </trkpt>
      <trkpt lat="40.879117" lon="-5.118917">
        <ele>1056.0</ele>
        <time>2018-07-14T14:42:45Z</time>
      </trkpt>
      <trkpt lat="40.879200" lon="-5.118967">
        <ele>1056.0</ele>
        <time>2018-07-14T14:42:46Z</time>
      </trkpt>
      <trkpt lat="40.879267" lon="-5.119033">
        <ele>1056.0</ele>
        <time>2018-07-14T14:42:47Z</time>
      </trkpt>
      <trkpt lat="40.879350" lon="-5.119133">
        <ele>1055.0</ele>
        <time>2018-07-14T14:42:48Z</time>
      </trkpt>
      <trkpt lat="40.879400" lon="-5.119233">
        <ele>1056.0</ele>
        <time>2018-07-14T14:42:49Z</time>
      </trkpt>
      <trkpt lat="40.879433" lon="-5.119317">
        <ele>1058.0</ele>
        <time>2018-07-14T14:42:50Z</time>
      </trkpt>
      <trkpt lat="40.879467" lon="-5.119350">
        <ele>1061.0</ele>
        <time>2018-07-14T14:42:51Z</time>
      </trkpt>
      <trkpt lat="40.879500" lon="-5.119383">
        <ele>1062.0</ele>
        <time>2018-07-14T14:42:52Z</time>
      </trkpt>
      <trkpt lat="40.879533" lon="-5.119400">
        <ele>1063.0</ele>
        <time>2018-07-14T14:42:53Z</time>
      </trkpt>
      <trkpt lat="40.879583" lon="-5.119433">
        <ele>1061.0</ele>
        <time>2018-07-14T14:42:54Z</time>
      </trkpt>
      <trkpt lat="40.879600" lon="-5.119500">
        <ele>1059.0</ele>
        <time>2018-07-14T14:42:55Z</time>
      </trkpt>
      <trkpt lat="40.879617" lon="-5.119550">
        <ele>1057.0</ele>
        <time>2018-07-14T14:42:56Z</time>
      </trkpt>
      <trkpt lat="40.879617" lon="-5.119600">
        <ele>1056.0</ele>
        <time>2018-07-14T14:42:57Z</time>
      </trkpt>
      <trkpt lat="40.879617" lon="-5.119617">
        <ele>1054.0</ele>
        <time>2018-07-14T14:42:58Z</time>
      </trkpt>
      <trkpt lat="40.879600" lon="-5.119617">
        <ele>1053.0</ele>
        <time>2018-07-14T14:42:59Z</time>
      </trkpt>
      <trkpt lat="40.879583" lon="-5.119600">
        <ele>1052.0</ele>
        <time>2018-07-14T14:43:00Z</time>
      </trkpt>
      <trkpt lat="40.879550" lon="-5.119567">
        <ele>1050.0</ele>
        <time>2018-07-14T14:43:01Z</time>
      </trkpt>
      <trkpt lat="40.879517" lon="-5.119533">
        <ele>1048.0</ele>
        <time>2018-07-14T14:43:02Z</time>
      </trkpt>
      <trkpt lat="40.879483" lon="-5.119517">
        <ele>1050.0</ele>
        <time>2018-07-14T14:43:03Z</time>
      </trkpt>
      <trkpt lat="40.879450" lon="-5.119517">
        <ele>1049.0</ele>
        <time>2018-07-14T14:43:04Z</time>
      </trkpt>
      <trkpt lat="40.879433" lon="-5.119533">
        <ele>1048.0</ele>
        <time>2018-07-14T14:43:05Z</time>
      </trkpt>
      <trkpt lat="40.879433" lon="-5.119583">
        <ele>1047.0</ele>
        <time>2018-07-14T14:43:06Z</time>
      </trkpt>
      <trkpt lat="40.879450" lon="-5.119617">
        <ele>1046.0</ele>
        <time>2018-07-14T14:43:07Z</time>
      </trkpt>
      <trkpt lat="40.879467" lon="-5.119650">
        <ele>1044.0</ele>
        <time>2018-07-14T14:43:08Z</time>
      </trkpt>
      <trkpt lat="40.879483" lon="-5.119683">
        <ele>1041.0</ele>
        <time>2018-07-14T14:43:09Z</time>
      </trkpt>
      <trkpt lat="40.879517" lon="-5.119733">
        <ele>1039.0</ele>
        <time>2018-07-14T14:43:10Z</time>
      </trkpt>
      <trkpt lat="40.879517" lon="-5.119783">
        <ele>1036.0</ele>
        <time>2018-07-14T14:43:11Z</time>
      </trkpt>
      <trkpt lat="40.879517" lon="-5.119817">
        <ele>1034.0</ele>
        <time>2018-07-14T14:43:12Z</time>
      </trkpt>
      <trkpt lat="40.879517" lon="-5.119850">
        <ele>1032.0</ele>
        <time>2018-07-14T14:43:13Z</time>
      </trkpt>
      <trkpt lat="40.879500" lon="-5.119900">
        <ele>1032.0</ele>
        <time>2018-07-14T14:43:15Z</time>
      </trkpt>
      <trkpt lat="40.879500" lon="-5.119917">
        <ele>1031.0</ele>
        <time>2018-07-14T14:43:16Z</time>
      </trkpt>
      <trkpt lat="40.879483" lon="-5.119950">
        <ele>1029.0</ele>
        <time>2018-07-14T14:43:17Z</time>
      </trkpt>
      <trkpt lat="40.879467" lon="-5.119967">
        <ele>1029.0</ele>
        <time>2018-07-14T14:43:18Z</time>
      </trkpt>
      <trkpt lat="40.879467" lon="-5.119917">
        <ele>1028.0</ele>
        <time>2018-07-14T14:43:19Z</time>
      </trkpt>
      <trkpt lat="40.879433" lon="-5.119900">
        <ele>1024.0</ele>
        <time>2018-07-14T14:43:20Z</time>
      </trkpt>
      <trkpt lat="40.879400" lon="-5.119883">
        <ele>1020.0</ele>
        <time>2018-07-14T14:43:21Z</time>
      </trkpt>
      <trkpt lat="40.879367" lon="-5.119883">
        <ele>1015.0</ele>
        <time>2018-07-14T14:43:22Z</time>
      </trkpt>
      <trkpt lat="40.879333" lon="-5.119900">
        <ele>1011.0</ele>
        <time>2018-07-14T14:43:23Z</time>
      </trkpt>
      <trkpt lat="40.879317" lon="-5.119917">
        <ele>1008.0</ele>
        <time>2018-07-14T14:43:24Z</time>
      </trkpt>
      <trkpt lat="40.879283" lon="-5.119933">
        <ele>1005.0</ele>
        <time>2018-07-14T14:43:25Z</time>
      </trkpt>
      <trkpt lat="40.879267" lon="-5.119933">
        <ele>1003.0</ele>
        <time>2018-07-14T14:43:26Z</time>
      </trkpt>
      <trkpt lat="40.879233" lon="-5.119933">
        <ele>1001.0</ele>
        <time>2018-07-14T14:43:27Z</time>
      </trkpt>
      <trkpt lat="40.879217" lon="-5.119950">
        <ele>999.0</ele>
        <time>2018-07-14T14:43:28Z</time>
      </trkpt>
      <trkpt lat="40.879200" lon="-5.119967">
        <ele>997.0</ele>
        <time>2018-07-14T14:43:29Z</time>
      </trkpt>
      <trkpt lat="40.879167" lon="-5.119983">
        <ele>994.0</ele>
        <time>2018-07-14T14:43:30Z</time>
      </trkpt>
      <trkpt lat="40.879150" lon="-5.120000">
        <ele>992.0</ele>
        <time>2018-07-14T14:43:31Z</time>
      </trkpt>
      <trkpt lat="40.879150" lon="-5.120033">
        <ele>989.0</ele>
        <time>2018-07-14T14:43:32Z</time>
      </trkpt>
      <trkpt lat="40.879133" lon="-5.120083">
        <ele>987.0</ele>
        <time>2018-07-14T14:43:33Z</time>
      </trkpt>
      <trkpt lat="40.879133" lon="-5.120133">
        <ele>985.0</ele>
        <time>2018-07-14T14:43:34Z</time>
      </trkpt>
      <trkpt lat="40.879100" lon="-5.120183">
        <ele>982.0</ele>
        <time>2018-07-14T14:43:35Z</time>
      </trkpt>
      <trkpt lat="40.879067" lon="-5.120233">
        <ele>984.0</ele>
        <time>2018-07-14T14:43:36Z</time>
      </trkpt>
      <trkpt lat="40.879050" lon="-5.120250">
        <ele>982.0</ele>
        <time>2018-07-14T14:43:37Z</time>
      </trkpt>
      <trkpt lat="40.879033" lon="-5.120267">
        <ele>980.0</ele>
        <time>2018-07-14T14:43:38Z</time>
      </trkpt>
      <trkpt lat="40.879000" lon="-5.120283">
        <ele>977.0</ele>
        <time>2018-07-14T14:43:39Z</time>
      </trkpt>
      <trkpt lat="40.878967" lon="-5.120317">
        <ele>975.0</ele>
        <time>2018-07-14T14:43:40Z</time>
      </trkpt>
      <trkpt lat="40.878950" lon="-5.120333">
        <ele>973.0</ele>
        <time>2018-07-14T14:43:41Z</time>
      </trkpt>
      <trkpt lat="40.878933" lon="-5.120367">
        <ele>971.0</ele>
        <time>2018-07-14T14:43:42Z</time>
      </trkpt>
      <trkpt lat="40.878917" lon="-5.120400">
        <ele>969.0</ele>
        <time>2018-07-14T14:43:43Z</time>
      </trkpt>
      <trkpt lat="40.878900" lon="-5.120433">
        <ele>966.0</ele>
        <time>2018-07-14T14:43:44Z</time>
      </trkpt>
      <trkpt lat="40.878883" lon="-5.120467">
        <ele>963.0</ele>
        <time>2018-07-14T14:43:45Z</time>
      </trkpt>
      <trkpt lat="40.878850" lon="-5.120517">
        <ele>960.0</ele>
        <time>2018-07-14T14:43:46Z</time>
      </trkpt>
      <trkpt lat="40.878833" lon="-5.120533">
        <ele>961.0</ele>
        <time>2018-07-14T14:43:47Z</time>
      </trkpt>
      <trkpt lat="40.878850" lon="-5.120533">
        <ele>960.0</ele>
        <time>2018-07-14T14:43:49Z</time>
      </trkpt>
      <trkpt lat="40.878850" lon="-5.120550">
        <ele>959.0</ele>
        <time>2018-07-14T14:43:50Z</time>
      </trkpt>
      <trkpt lat="40.878850" lon="-5.120533">
        <ele>958.0</ele>
        <time>2018-07-14T14:43:51Z</time>
      </trkpt>
      <trkpt lat="40.878867" lon="-5.120550">
        <ele>957.0</ele>
        <time>2018-07-14T14:43:52Z</time>
      </trkpt>
      <trkpt lat="40.878867" lon="-5.120550">
        <ele>957.0</ele>
        <time>2018-07-14T14:43:53Z</time>
      </trkpt>
      <trkpt lat="40.878867" lon="-5.120550">
        <ele>956.0</ele>
        <time>2018-07-14T14:43:54Z</time>
      </trkpt>
      <trkpt lat="40.878867" lon="-5.120533">
        <ele>955.0</ele>
        <time>2018-07-14T14:43:55Z</time>
      </trkpt>
      <trkpt lat="40.878867" lon="-5.120533">
        <ele>955.0</ele>
        <time>2018-07-14T14:43:56Z</time>
      </trkpt>
      <trkpt lat="40.878867" lon="-5.120533">
        <ele>955.0</ele>
        <time>2018-07-14T14:43:57Z</time>
      </trkpt>
      <trkpt lat="40.878867" lon="-5.120533">
        <ele>954.0</ele>
        <time>2018-07-14T14:43:58Z</time>
      </trkpt>
      <trkpt lat="40.878867" lon="-5.120533">
        <ele>954.0</ele>
        <time>2018-07-14T14:43:59Z</time>
      </trkpt>
      <trkpt lat="40.878867" lon="-5.120533">
        <ele>953.0</ele>
        <time>2018-07-14T14:44:00Z</time>
      </trkpt>
      <trkpt lat="40.878867" lon="-5.120533">
        <ele>953.0</ele>
        <time>2018-07-14T14:44:01Z</time>
      </trkpt>
      <trkpt lat="40.878867" lon="-5.120533">
        <ele>953.0</ele>
        <time>2018-07-14T14:44:02Z</time>
      </trkpt>
      <trkpt lat="40.878867" lon="-5.120533">
        <ele>953.0</ele>
        <time>2018-07-14T14:44:03Z</time>
      </trkpt>
      <trkpt lat="40.878867" lon="-5.120533">
        <ele>953.0</ele>
        <time>2018-07-14T14:44:04Z</time>
      </trkpt>
      <trkpt lat="40.878867" lon="-5.120533">
        <ele>953.0</ele>
        <time>2018-07-14T14:44:05Z</time>
      </trkpt>
      <trkpt lat="40.878867" lon="-5.120533">
        <ele>952.0</ele>
        <time>2018-07-14T14:44:06Z</time>
      </trkpt>
      <trkpt lat="40.878867" lon="-5.120533">
        <ele>952.0</ele>
        <time>2018-07-14T14:44:07Z</time>
      </trkpt>
      <trkpt lat="40.878867" lon="-5.120533">
        <ele>952.0</ele>
        <time>2018-07-14T14:44:08Z</time>
      </trkpt>
      <trkpt lat="40.878867" lon="-5.120533">
        <ele>952.0</ele>
        <time>2018-07-14T14:44:09Z</time>
      </trkpt>
      <trkpt lat="40.878867" lon="-5.120533">
        <ele>952.0</ele>
        <time>2018-07-14T14:44:10Z</time>
      </trkpt>
      <trkpt lat="40.878867" lon="-5.120533">
        <ele>952.0</ele>
        <time>2018-07-14T14:44:11Z</time>
      </trkpt>
      <trkpt lat="40.878867" lon="-5.120533">
        <ele>951.0</ele>
        <time>2018-07-14T14:44:12Z</time>
      </trkpt>
      <trkpt lat="40.878867" lon="-5.120533">
        <ele>951.0</ele>
        <time>2018-07-14T14:44:13Z</time>
      </trkpt>
      <trkpt lat="40.878867" lon="-5.120533">
        <ele>951.0</ele>
        <time>2018-07-14T14:44:14Z</time>
      </trkpt>
      <trkpt lat="40.878867" lon="-5.120533">
        <ele>951.0</ele>
        <time>2018-07-14T14:44:15Z</time>
      </trkpt>
      <trkpt lat="40.878850" lon="-5.120533">
        <ele>951.0</ele>
        <time>2018-07-14T14:44:16Z</time>
      </trkpt>
      <trkpt lat="40.878850" lon="-5.120533">
        <ele>951.0</ele>
        <time>2018-07-14T14:44:17Z</time>
      </trkpt>
      <trkpt lat="40.878867" lon="-5.120533">
        <ele>951.0</ele>
        <time>2018-07-14T14:44:18Z</time>
      </trkpt>
      <trkpt lat="40.878850" lon="-5.120533">
        <ele>951.0</ele>
        <time>2018-07-14T14:44:19Z</time>
      </trkpt>
      <trkpt lat="40.878850" lon="-5.120533">
        <ele>951.0</ele>
        <time>2018-07-14T14:44:20Z</time>
      </trkpt>
      <trkpt lat="40.878850" lon="-5.120533">
        <ele>951.0</ele>
        <time>2018-07-14T14:44:21Z</time>
      </trkpt>
      <trkpt lat="40.878867" lon="-5.120533">
        <ele>951.0</ele>
        <time>2018-07-14T14:44:23Z</time>
      </trkpt>
      <trkpt lat="40.878867" lon="-5.120533">
        <ele>951.0</ele>
        <time>2018-07-14T14:44:24Z</time>
      </trkpt>
      <trkpt lat="40.878850" lon="-5.120533">
        <ele>951.0</ele>
        <time>2018-07-14T14:44:25Z</time>
      </trkpt>
      <trkpt lat="40.878850" lon="-5.120533">
        <ele>951.0</ele>
        <time>2018-07-14T14:44:26Z</time>
      </trkpt>
      <trkpt lat="40.878850" lon="-5.120533">
        <ele>951.0</ele>
        <time>2018-07-14T14:44:27Z</time>
      </trkpt>
      <trkpt lat="40.878850" lon="-5.120533">
        <ele>951.0</ele>
        <time>2018-07-14T14:44:28Z</time>
      </trkpt>
      <trkpt lat="40.878850" lon="-5.120533">
        <ele>951.0</ele>
        <time>2018-07-14T14:44:29Z</time>
      </trkpt>
      <trkpt lat="40.878850" lon="-5.120533">
        <ele>951.0</ele>
        <time>2018-07-14T14:44:30Z</time>
      </trkpt>
      <trkpt lat="40.878850" lon="-5.120533">
        <ele>951.0</ele>
        <time>2018-07-14T14:44:31Z</time>
      </trkpt>
      <trkpt lat="40.878850" lon="-5.120533">
        <ele>951.0</ele>
        <time>2018-07-14T14:44:32Z</time>
      </trkpt>
      <trkpt lat="40.878850" lon="-5.120533">
        <ele>950.0</ele>
        <time>2018-07-14T14:44:33Z</time>
      </trkpt>
      <trkpt lat="40.878850" lon="-5.120533">
        <ele>950.0</ele>
        <time>2018-07-14T14:44:34Z</time>
      </trkpt>
      <trkpt lat="40.878850" lon="-5.120533">
        <ele>950.0</ele>
        <time>2018-07-14T14:44:35Z</time>
      </trkpt>
    </trkseg>
  </trk>
</gpx>
